<?xml version="1.0" encoding="UTF-8" standalone="no" ?>
<gpx xmlns="http://www.topografix.com/GPX/1/1" xmlns:xsi="http://www.w3.org/2001/XMLSchema-instance" xsi:schemaLocation="http://www.topografix.com/GPX/1/1 http://www.topografix.com/GPX/1/1/gpx.xsd" version="1.1" creator="VisuGPX - https://www.visugpx.com">
  <metadata>
    <name>Randonnée Spicheren \&quot;Bunkerweg\&quot; 22 01 2012</name>
    <desc><![CDATA[Avec le club Randospich]]></desc>
  </metadata>
  <trk>
    <name><![CDATA[Randonnée Spicheren \"Bunkerweg\" 22 01 2012_1]]></name>
    <trkseg>
      <trkpt lat="49.19098" lon="6.96489">
        <ele>311</ele>
        <time>2012-01-22T08:02:10Z</time>
      </trkpt>
      <trkpt lat="49.19086" lon="6.96525">
        <ele>311</ele>
        <time>2012-01-22T08:03:45Z</time>
      </trkpt>
      <trkpt lat="49.19086" lon="6.96528">
        <ele>310</ele>
        <time>2012-01-22T08:03:47Z</time>
      </trkpt>
      <trkpt lat="49.19086" lon="6.9653">
        <ele>310</ele>
        <time>2012-01-22T08:03:48Z</time>
      </trkpt>
      <trkpt lat="49.19087" lon="6.96533">
        <ele>309</ele>
        <time>2012-01-22T08:03:50Z</time>
      </trkpt>
      <trkpt lat="49.19089" lon="6.96535">
        <ele>309</ele>
        <time>2012-01-22T08:03:52Z</time>
      </trkpt>
      <trkpt lat="49.1909" lon="6.96538">
        <ele>309</ele>
        <time>2012-01-22T08:03:54Z</time>
      </trkpt>
      <trkpt lat="49.19092" lon="6.9654">
        <ele>309</ele>
        <time>2012-01-22T08:03:56Z</time>
      </trkpt>
      <trkpt lat="49.19094" lon="6.96541">
        <ele>308</ele>
        <time>2012-01-22T08:03:58Z</time>
      </trkpt>
      <trkpt lat="49.19096" lon="6.96543">
        <ele>308</ele>
        <time>2012-01-22T08:04:00Z</time>
      </trkpt>
      <trkpt lat="49.19097" lon="6.96544">
        <ele>307</ele>
        <time>2012-01-22T08:04:01Z</time>
      </trkpt>
      <trkpt lat="49.19098" lon="6.96545">
        <ele>307</ele>
        <time>2012-01-22T08:04:02Z</time>
      </trkpt>
      <trkpt lat="49.19099" lon="6.96546">
        <ele>307</ele>
        <time>2012-01-22T08:04:02Z</time>
      </trkpt>
      <trkpt lat="49.19101" lon="6.96546">
        <ele>307</ele>
        <time>2012-01-22T08:04:04Z</time>
      </trkpt>
      <trkpt lat="49.19102" lon="6.96547">
        <ele>307</ele>
        <time>2012-01-22T08:04:05Z</time>
      </trkpt>
      <trkpt lat="49.19103" lon="6.96548">
        <ele>307</ele>
        <time>2012-01-22T08:04:06Z</time>
      </trkpt>
      <trkpt lat="49.19104" lon="6.96548">
        <ele>307</ele>
        <time>2012-01-22T08:04:07Z</time>
      </trkpt>
      <trkpt lat="49.19106" lon="6.96549">
        <ele>307</ele>
        <time>2012-01-22T08:04:08Z</time>
      </trkpt>
      <trkpt lat="49.19108" lon="6.96551">
        <ele>307</ele>
        <time>2012-01-22T08:04:10Z</time>
      </trkpt>
      <trkpt lat="49.19109" lon="6.96551">
        <ele>307</ele>
        <time>2012-01-22T08:04:10Z</time>
      </trkpt>
      <trkpt lat="49.19111" lon="6.96553">
        <ele>307</ele>
        <time>2012-01-22T08:04:13Z</time>
      </trkpt>
      <trkpt lat="49.19112" lon="6.96553">
        <ele>307</ele>
        <time>2012-01-22T08:04:14Z</time>
      </trkpt>
      <trkpt lat="49.19114" lon="6.96554">
        <ele>307</ele>
        <time>2012-01-22T08:04:14Z</time>
      </trkpt>
      <trkpt lat="49.19115" lon="6.96554">
        <ele>307</ele>
        <time>2012-01-22T08:04:16Z</time>
      </trkpt>
      <trkpt lat="49.19117" lon="6.96555">
        <ele>307</ele>
        <time>2012-01-22T08:04:17Z</time>
      </trkpt>
      <trkpt lat="49.19118" lon="6.96556">
        <ele>307</ele>
        <time>2012-01-22T08:04:18Z</time>
      </trkpt>
      <trkpt lat="49.19119" lon="6.96557">
        <ele>307</ele>
        <time>2012-01-22T08:04:18Z</time>
      </trkpt>
      <trkpt lat="49.1912" lon="6.96558">
        <ele>307</ele>
        <time>2012-01-22T08:04:20Z</time>
      </trkpt>
      <trkpt lat="49.19122" lon="6.96558">
        <ele>307</ele>
        <time>2012-01-22T08:04:22Z</time>
      </trkpt>
      <trkpt lat="49.19124" lon="6.96559">
        <ele>307</ele>
        <time>2012-01-22T08:04:22Z</time>
      </trkpt>
      <trkpt lat="49.19125" lon="6.96559">
        <ele>307</ele>
        <time>2012-01-22T08:04:24Z</time>
      </trkpt>
      <trkpt lat="49.19126" lon="6.96559">
        <ele>307</ele>
        <time>2012-01-22T08:04:25Z</time>
      </trkpt>
      <trkpt lat="49.19128" lon="6.9656">
        <ele>307</ele>
        <time>2012-01-22T08:04:26Z</time>
      </trkpt>
      <trkpt lat="49.19129" lon="6.9656">
        <ele>307</ele>
        <time>2012-01-22T08:04:28Z</time>
      </trkpt>
      <trkpt lat="49.1913" lon="6.9656">
        <ele>307</ele>
        <time>2012-01-22T08:04:29Z</time>
      </trkpt>
      <trkpt lat="49.19132" lon="6.9656">
        <ele>307</ele>
        <time>2012-01-22T08:04:30Z</time>
      </trkpt>
      <trkpt lat="49.19133" lon="6.96561">
        <ele>307</ele>
        <time>2012-01-22T08:04:31Z</time>
      </trkpt>
      <trkpt lat="49.19135" lon="6.96562">
        <ele>307</ele>
        <time>2012-01-22T08:04:33Z</time>
      </trkpt>
      <trkpt lat="49.19136" lon="6.96562">
        <ele>307</ele>
        <time>2012-01-22T08:04:34Z</time>
      </trkpt>
      <trkpt lat="49.19138" lon="6.96563">
        <ele>307</ele>
        <time>2012-01-22T08:04:35Z</time>
      </trkpt>
      <trkpt lat="49.19139" lon="6.96564">
        <ele>307</ele>
        <time>2012-01-22T08:04:36Z</time>
      </trkpt>
      <trkpt lat="49.19141" lon="6.96565">
        <ele>307</ele>
        <time>2012-01-22T08:04:37Z</time>
      </trkpt>
      <trkpt lat="49.19142" lon="6.96566">
        <ele>307</ele>
        <time>2012-01-22T08:04:38Z</time>
      </trkpt>
      <trkpt lat="49.19144" lon="6.96567">
        <ele>307</ele>
        <time>2012-01-22T08:04:39Z</time>
      </trkpt>
      <trkpt lat="49.19145" lon="6.96568">
        <ele>307</ele>
        <time>2012-01-22T08:04:40Z</time>
      </trkpt>
      <trkpt lat="49.19146" lon="6.9657">
        <ele>307</ele>
        <time>2012-01-22T08:04:41Z</time>
      </trkpt>
      <trkpt lat="49.19149" lon="6.96573">
        <ele>307</ele>
        <time>2012-01-22T08:04:42Z</time>
      </trkpt>
      <trkpt lat="49.1915" lon="6.96575">
        <ele>307</ele>
        <time>2012-01-22T08:04:45Z</time>
      </trkpt>
      <trkpt lat="49.19152" lon="6.96576">
        <ele>307</ele>
        <time>2012-01-22T08:04:47Z</time>
      </trkpt>
      <trkpt lat="49.19153" lon="6.96578">
        <ele>307</ele>
        <time>2012-01-22T08:04:49Z</time>
      </trkpt>
      <trkpt lat="49.19154" lon="6.96579">
        <ele>307</ele>
        <time>2012-01-22T08:04:50Z</time>
      </trkpt>
      <trkpt lat="49.19156" lon="6.9658">
        <ele>307</ele>
        <time>2012-01-22T08:04:50Z</time>
      </trkpt>
      <trkpt lat="49.19158" lon="6.96581">
        <ele>307</ele>
        <time>2012-01-22T08:04:52Z</time>
      </trkpt>
      <trkpt lat="49.19159" lon="6.96583">
        <ele>307</ele>
        <time>2012-01-22T08:04:53Z</time>
      </trkpt>
      <trkpt lat="49.19159" lon="6.96585">
        <ele>307</ele>
        <time>2012-01-22T08:04:54Z</time>
      </trkpt>
      <trkpt lat="49.19159" lon="6.96587">
        <ele>307</ele>
        <time>2012-01-22T08:04:54Z</time>
      </trkpt>
      <trkpt lat="49.19159" lon="6.96589">
        <ele>307</ele>
        <time>2012-01-22T08:04:56Z</time>
      </trkpt>
      <trkpt lat="49.19159" lon="6.96591">
        <ele>307</ele>
        <time>2012-01-22T08:04:57Z</time>
      </trkpt>
      <trkpt lat="49.19159" lon="6.96593">
        <ele>307</ele>
        <time>2012-01-22T08:04:58Z</time>
      </trkpt>
      <trkpt lat="49.19159" lon="6.96595">
        <ele>307</ele>
        <time>2012-01-22T08:04:59Z</time>
      </trkpt>
      <trkpt lat="49.19159" lon="6.96596">
        <ele>307</ele>
        <time>2012-01-22T08:05:00Z</time>
      </trkpt>
      <trkpt lat="49.19159" lon="6.96598">
        <ele>307</ele>
        <time>2012-01-22T08:05:01Z</time>
      </trkpt>
      <trkpt lat="49.19159" lon="6.966">
        <ele>307</ele>
        <time>2012-01-22T08:05:02Z</time>
      </trkpt>
      <trkpt lat="49.19159" lon="6.96603">
        <ele>307</ele>
        <time>2012-01-22T08:05:04Z</time>
      </trkpt>
      <trkpt lat="49.1916" lon="6.96606">
        <ele>307</ele>
        <time>2012-01-22T08:05:06Z</time>
      </trkpt>
      <trkpt lat="49.19162" lon="6.96607">
        <ele>307</ele>
        <time>2012-01-22T08:05:06Z</time>
      </trkpt>
      <trkpt lat="49.19163" lon="6.96607">
        <ele>307</ele>
        <time>2012-01-22T08:05:08Z</time>
      </trkpt>
      <trkpt lat="49.19165" lon="6.96607">
        <ele>307</ele>
        <time>2012-01-22T08:05:09Z</time>
      </trkpt>
      <trkpt lat="49.19166" lon="6.96607">
        <ele>307</ele>
        <time>2012-01-22T08:05:10Z</time>
      </trkpt>
      <trkpt lat="49.19168" lon="6.96607">
        <ele>307</ele>
        <time>2012-01-22T08:05:12Z</time>
      </trkpt>
      <trkpt lat="49.19169" lon="6.96608">
        <ele>307</ele>
        <time>2012-01-22T08:05:13Z</time>
      </trkpt>
      <trkpt lat="49.1917" lon="6.96608">
        <ele>307</ele>
        <time>2012-01-22T08:05:14Z</time>
      </trkpt>
      <trkpt lat="49.19173" lon="6.96608">
        <ele>307</ele>
        <time>2012-01-22T08:05:16Z</time>
      </trkpt>
      <trkpt lat="49.19175" lon="6.96608">
        <ele>307</ele>
        <time>2012-01-22T08:05:18Z</time>
      </trkpt>
      <trkpt lat="49.19177" lon="6.96608">
        <ele>307</ele>
        <time>2012-01-22T08:05:19Z</time>
      </trkpt>
      <trkpt lat="49.19178" lon="6.96609">
        <ele>307</ele>
        <time>2012-01-22T08:05:20Z</time>
      </trkpt>
      <trkpt lat="49.1918" lon="6.96609">
        <ele>307</ele>
        <time>2012-01-22T08:05:21Z</time>
      </trkpt>
      <trkpt lat="49.19181" lon="6.96609">
        <ele>307</ele>
        <time>2012-01-22T08:05:22Z</time>
      </trkpt>
      <trkpt lat="49.19182" lon="6.96609">
        <ele>307</ele>
        <time>2012-01-22T08:05:22Z</time>
      </trkpt>
      <trkpt lat="49.19183" lon="6.9661">
        <ele>307</ele>
        <time>2012-01-22T08:05:24Z</time>
      </trkpt>
      <trkpt lat="49.19185" lon="6.96611">
        <ele>307</ele>
        <time>2012-01-22T08:05:25Z</time>
      </trkpt>
      <trkpt lat="49.19187" lon="6.96612">
        <ele>307</ele>
        <time>2012-01-22T08:05:27Z</time>
      </trkpt>
      <trkpt lat="49.19188" lon="6.96612">
        <ele>307</ele>
        <time>2012-01-22T08:05:28Z</time>
      </trkpt>
      <trkpt lat="49.19189" lon="6.96612">
        <ele>307</ele>
        <time>2012-01-22T08:05:29Z</time>
      </trkpt>
      <trkpt lat="49.19191" lon="6.96612">
        <ele>307</ele>
        <time>2012-01-22T08:05:30Z</time>
      </trkpt>
      <trkpt lat="49.19193" lon="6.96612">
        <ele>307</ele>
        <time>2012-01-22T08:05:31Z</time>
      </trkpt>
      <trkpt lat="49.19194" lon="6.96613">
        <ele>307</ele>
        <time>2012-01-22T08:05:33Z</time>
      </trkpt>
      <trkpt lat="49.19196" lon="6.96613">
        <ele>307</ele>
        <time>2012-01-22T08:05:34Z</time>
      </trkpt>
      <trkpt lat="49.19197" lon="6.96613">
        <ele>307</ele>
        <time>2012-01-22T08:05:35Z</time>
      </trkpt>
      <trkpt lat="49.19198" lon="6.96613">
        <ele>307</ele>
        <time>2012-01-22T08:05:36Z</time>
      </trkpt>
      <trkpt lat="49.192" lon="6.96614">
        <ele>307</ele>
        <time>2012-01-22T08:05:37Z</time>
      </trkpt>
      <trkpt lat="49.19202" lon="6.96614">
        <ele>307</ele>
        <time>2012-01-22T08:05:39Z</time>
      </trkpt>
      <trkpt lat="49.19203" lon="6.96615">
        <ele>307</ele>
        <time>2012-01-22T08:05:40Z</time>
      </trkpt>
      <trkpt lat="49.19204" lon="6.96615">
        <ele>307</ele>
        <time>2012-01-22T08:05:41Z</time>
      </trkpt>
      <trkpt lat="49.19206" lon="6.96615">
        <ele>307</ele>
        <time>2012-01-22T08:05:42Z</time>
      </trkpt>
      <trkpt lat="49.19207" lon="6.96615">
        <ele>307</ele>
        <time>2012-01-22T08:05:42Z</time>
      </trkpt>
      <trkpt lat="49.19209" lon="6.96615">
        <ele>307</ele>
        <time>2012-01-22T08:05:44Z</time>
      </trkpt>
      <trkpt lat="49.1921" lon="6.96615">
        <ele>307</ele>
        <time>2012-01-22T08:05:45Z</time>
      </trkpt>
      <trkpt lat="49.19212" lon="6.96615">
        <ele>307</ele>
        <time>2012-01-22T08:05:46Z</time>
      </trkpt>
      <trkpt lat="49.19213" lon="6.96615">
        <ele>307</ele>
        <time>2012-01-22T08:05:47Z</time>
      </trkpt>
      <trkpt lat="49.19215" lon="6.96615">
        <ele>307</ele>
        <time>2012-01-22T08:05:48Z</time>
      </trkpt>
      <trkpt lat="49.19216" lon="6.96615">
        <ele>307</ele>
        <time>2012-01-22T08:05:49Z</time>
      </trkpt>
      <trkpt lat="49.19217" lon="6.96615">
        <ele>307</ele>
        <time>2012-01-22T08:05:50Z</time>
      </trkpt>
      <trkpt lat="49.19218" lon="6.96615">
        <ele>307</ele>
        <time>2012-01-22T08:05:51Z</time>
      </trkpt>
      <trkpt lat="49.1922" lon="6.96615">
        <ele>307</ele>
        <time>2012-01-22T08:05:52Z</time>
      </trkpt>
      <trkpt lat="49.19221" lon="6.96616">
        <ele>307</ele>
        <time>2012-01-22T08:05:53Z</time>
      </trkpt>
      <trkpt lat="49.19222" lon="6.96616">
        <ele>307</ele>
        <time>2012-01-22T08:05:54Z</time>
      </trkpt>
      <trkpt lat="49.19223" lon="6.96617">
        <ele>307</ele>
        <time>2012-01-22T08:05:55Z</time>
      </trkpt>
      <trkpt lat="49.19225" lon="6.96618">
        <ele>307</ele>
        <time>2012-01-22T08:05:56Z</time>
      </trkpt>
      <trkpt lat="49.19226" lon="6.96619">
        <ele>307</ele>
        <time>2012-01-22T08:05:57Z</time>
      </trkpt>
      <trkpt lat="49.19228" lon="6.96619">
        <ele>307</ele>
        <time>2012-01-22T08:05:58Z</time>
      </trkpt>
      <trkpt lat="49.19229" lon="6.9662">
        <ele>307</ele>
        <time>2012-01-22T08:05:59Z</time>
      </trkpt>
      <trkpt lat="49.1923" lon="6.9662">
        <ele>307</ele>
        <time>2012-01-22T08:06:00Z</time>
      </trkpt>
      <trkpt lat="49.19231" lon="6.96621">
        <ele>307</ele>
        <time>2012-01-22T08:06:01Z</time>
      </trkpt>
      <trkpt lat="49.19233" lon="6.96621">
        <ele>307</ele>
        <time>2012-01-22T08:06:02Z</time>
      </trkpt>
      <trkpt lat="49.19234" lon="6.96621">
        <ele>307</ele>
        <time>2012-01-22T08:06:03Z</time>
      </trkpt>
      <trkpt lat="49.19235" lon="6.96622">
        <ele>307</ele>
        <time>2012-01-22T08:06:03Z</time>
      </trkpt>
      <trkpt lat="49.19237" lon="6.96623">
        <ele>307</ele>
        <time>2012-01-22T08:06:05Z</time>
      </trkpt>
      <trkpt lat="49.19238" lon="6.96623">
        <ele>307</ele>
        <time>2012-01-22T08:06:06Z</time>
      </trkpt>
      <trkpt lat="49.19239" lon="6.96624">
        <ele>307</ele>
        <time>2012-01-22T08:06:06Z</time>
      </trkpt>
      <trkpt lat="49.19241" lon="6.96625">
        <ele>307</ele>
        <time>2012-01-22T08:06:08Z</time>
      </trkpt>
      <trkpt lat="49.19242" lon="6.96625">
        <ele>307</ele>
        <time>2012-01-22T08:06:09Z</time>
      </trkpt>
      <trkpt lat="49.19243" lon="6.96626">
        <ele>307</ele>
        <time>2012-01-22T08:06:10Z</time>
      </trkpt>
      <trkpt lat="49.19244" lon="6.96627">
        <ele>307</ele>
        <time>2012-01-22T08:06:10Z</time>
      </trkpt>
      <trkpt lat="49.19246" lon="6.96628">
        <ele>307</ele>
        <time>2012-01-22T08:06:11Z</time>
      </trkpt>
      <trkpt lat="49.19248" lon="6.96629">
        <ele>307</ele>
        <time>2012-01-22T08:06:14Z</time>
      </trkpt>
      <trkpt lat="49.1925" lon="6.96631">
        <ele>307</ele>
        <time>2012-01-22T08:06:16Z</time>
      </trkpt>
      <trkpt lat="49.19251" lon="6.96631">
        <ele>307</ele>
        <time>2012-01-22T08:06:17Z</time>
      </trkpt>
      <trkpt lat="49.19252" lon="6.96632">
        <ele>307</ele>
        <time>2012-01-22T08:06:18Z</time>
      </trkpt>
      <trkpt lat="49.19254" lon="6.96633">
        <ele>307</ele>
        <time>2012-01-22T08:06:18Z</time>
      </trkpt>
      <trkpt lat="49.19255" lon="6.96634">
        <ele>307</ele>
        <time>2012-01-22T08:06:20Z</time>
      </trkpt>
      <trkpt lat="49.19256" lon="6.96635">
        <ele>307</ele>
        <time>2012-01-22T08:06:21Z</time>
      </trkpt>
      <trkpt lat="49.19257" lon="6.96636">
        <ele>307</ele>
        <time>2012-01-22T08:06:22Z</time>
      </trkpt>
      <trkpt lat="49.1926" lon="6.96638">
        <ele>307</ele>
        <time>2012-01-22T08:06:24Z</time>
      </trkpt>
      <trkpt lat="49.19261" lon="6.96639">
        <ele>307</ele>
        <time>2012-01-22T08:06:25Z</time>
      </trkpt>
      <trkpt lat="49.19262" lon="6.96639">
        <ele>307</ele>
        <time>2012-01-22T08:06:26Z</time>
      </trkpt>
      <trkpt lat="49.19263" lon="6.9664">
        <ele>307</ele>
        <time>2012-01-22T08:06:26Z</time>
      </trkpt>
      <trkpt lat="49.19264" lon="6.96641">
        <ele>307</ele>
        <time>2012-01-22T08:06:28Z</time>
      </trkpt>
      <trkpt lat="49.19265" lon="6.96642">
        <ele>307</ele>
        <time>2012-01-22T08:06:29Z</time>
      </trkpt>
      <trkpt lat="49.19267" lon="6.96643">
        <ele>307</ele>
        <time>2012-01-22T08:06:30Z</time>
      </trkpt>
      <trkpt lat="49.19269" lon="6.96645">
        <ele>307</ele>
        <time>2012-01-22T08:06:32Z</time>
      </trkpt>
      <trkpt lat="49.1927" lon="6.96646">
        <ele>307</ele>
        <time>2012-01-22T08:06:33Z</time>
      </trkpt>
      <trkpt lat="49.19272" lon="6.96646">
        <ele>307</ele>
        <time>2012-01-22T08:06:34Z</time>
      </trkpt>
      <trkpt lat="49.19273" lon="6.96647">
        <ele>307</ele>
        <time>2012-01-22T08:06:35Z</time>
      </trkpt>
      <trkpt lat="49.19274" lon="6.96648">
        <ele>307</ele>
        <time>2012-01-22T08:06:36Z</time>
      </trkpt>
      <trkpt lat="49.19276" lon="6.96649">
        <ele>307</ele>
        <time>2012-01-22T08:06:37Z</time>
      </trkpt>
      <trkpt lat="49.19277" lon="6.9665">
        <ele>307</ele>
        <time>2012-01-22T08:06:37Z</time>
      </trkpt>
      <trkpt lat="49.19279" lon="6.96651">
        <ele>307</ele>
        <time>2012-01-22T08:06:40Z</time>
      </trkpt>
      <trkpt lat="49.19281" lon="6.96653">
        <ele>307</ele>
        <time>2012-01-22T08:06:42Z</time>
      </trkpt>
      <trkpt lat="49.19282" lon="6.96654">
        <ele>307</ele>
        <time>2012-01-22T08:06:42Z</time>
      </trkpt>
      <trkpt lat="49.19283" lon="6.96655">
        <ele>307</ele>
        <time>2012-01-22T08:06:44Z</time>
      </trkpt>
      <trkpt lat="49.19284" lon="6.96655">
        <ele>307</ele>
        <time>2012-01-22T08:06:45Z</time>
      </trkpt>
      <trkpt lat="49.19286" lon="6.96656">
        <ele>307</ele>
        <time>2012-01-22T08:06:46Z</time>
      </trkpt>
      <trkpt lat="49.19287" lon="6.96657">
        <ele>307</ele>
        <time>2012-01-22T08:06:47Z</time>
      </trkpt>
      <trkpt lat="49.19288" lon="6.96658">
        <ele>307</ele>
        <time>2012-01-22T08:06:48Z</time>
      </trkpt>
      <trkpt lat="49.19289" lon="6.96658">
        <ele>307</ele>
        <time>2012-01-22T08:06:49Z</time>
      </trkpt>
      <trkpt lat="49.19291" lon="6.96659">
        <ele>306</ele>
        <time>2012-01-22T08:06:50Z</time>
      </trkpt>
      <trkpt lat="49.19292" lon="6.9666">
        <ele>306</ele>
        <time>2012-01-22T08:06:51Z</time>
      </trkpt>
      <trkpt lat="49.19294" lon="6.96662">
        <ele>306</ele>
        <time>2012-01-22T08:06:53Z</time>
      </trkpt>
      <trkpt lat="49.19296" lon="6.96663">
        <ele>305</ele>
        <time>2012-01-22T08:06:54Z</time>
      </trkpt>
      <trkpt lat="49.19297" lon="6.96663">
        <ele>305</ele>
        <time>2012-01-22T08:06:55Z</time>
      </trkpt>
      <trkpt lat="49.19298" lon="6.96664">
        <ele>305</ele>
        <time>2012-01-22T08:06:56Z</time>
      </trkpt>
      <trkpt lat="49.193" lon="6.96664">
        <ele>305</ele>
        <time>2012-01-22T08:06:57Z</time>
      </trkpt>
      <trkpt lat="49.19301" lon="6.96665">
        <ele>305</ele>
        <time>2012-01-22T08:06:58Z</time>
      </trkpt>
      <trkpt lat="49.19302" lon="6.96665">
        <ele>305</ele>
        <time>2012-01-22T08:06:59Z</time>
      </trkpt>
      <trkpt lat="49.19304" lon="6.96666">
        <ele>305</ele>
        <time>2012-01-22T08:07:00Z</time>
      </trkpt>
      <trkpt lat="49.19306" lon="6.96667">
        <ele>305</ele>
        <time>2012-01-22T08:07:02Z</time>
      </trkpt>
      <trkpt lat="49.19307" lon="6.96668">
        <ele>305</ele>
        <time>2012-01-22T08:07:03Z</time>
      </trkpt>
      <trkpt lat="49.19308" lon="6.96668">
        <ele>305</ele>
        <time>2012-01-22T08:07:04Z</time>
      </trkpt>
      <trkpt lat="49.1931" lon="6.96669">
        <ele>305</ele>
        <time>2012-01-22T08:07:05Z</time>
      </trkpt>
      <trkpt lat="49.19311" lon="6.96669">
        <ele>305</ele>
        <time>2012-01-22T08:07:06Z</time>
      </trkpt>
      <trkpt lat="49.19313" lon="6.96671">
        <ele>305</ele>
        <time>2012-01-22T08:07:08Z</time>
      </trkpt>
      <trkpt lat="49.19314" lon="6.96671">
        <ele>305</ele>
        <time>2012-01-22T08:07:09Z</time>
      </trkpt>
      <trkpt lat="49.19316" lon="6.96671">
        <ele>304</ele>
        <time>2012-01-22T08:07:10Z</time>
      </trkpt>
      <trkpt lat="49.19317" lon="6.96672">
        <ele>304</ele>
        <time>2012-01-22T08:07:11Z</time>
      </trkpt>
      <trkpt lat="49.19318" lon="6.96673">
        <ele>304</ele>
        <time>2012-01-22T08:07:12Z</time>
      </trkpt>
      <trkpt lat="49.19321" lon="6.96674">
        <ele>304</ele>
        <time>2012-01-22T08:07:14Z</time>
      </trkpt>
      <trkpt lat="49.19323" lon="6.96674">
        <ele>304</ele>
        <time>2012-01-22T08:07:15Z</time>
      </trkpt>
      <trkpt lat="49.19324" lon="6.96675">
        <ele>304</ele>
        <time>2012-01-22T08:07:16Z</time>
      </trkpt>
      <trkpt lat="49.19326" lon="6.96675">
        <ele>304</ele>
        <time>2012-01-22T08:07:17Z</time>
      </trkpt>
      <trkpt lat="49.19327" lon="6.96676">
        <ele>304</ele>
        <time>2012-01-22T08:07:18Z</time>
      </trkpt>
      <trkpt lat="49.19328" lon="6.96676">
        <ele>304</ele>
        <time>2012-01-22T08:07:18Z</time>
      </trkpt>
      <trkpt lat="49.19329" lon="6.96676">
        <ele>304</ele>
        <time>2012-01-22T08:07:20Z</time>
      </trkpt>
      <trkpt lat="49.19331" lon="6.96677">
        <ele>304</ele>
        <time>2012-01-22T08:07:21Z</time>
      </trkpt>
      <trkpt lat="49.19333" lon="6.96677">
        <ele>304</ele>
        <time>2012-01-22T08:07:22Z</time>
      </trkpt>
      <trkpt lat="49.19334" lon="6.96678">
        <ele>304</ele>
        <time>2012-01-22T08:07:22Z</time>
      </trkpt>
      <trkpt lat="49.19336" lon="6.96679">
        <ele>304</ele>
        <time>2012-01-22T08:07:24Z</time>
      </trkpt>
      <trkpt lat="49.19337" lon="6.96679">
        <ele>304</ele>
        <time>2012-01-22T08:07:25Z</time>
      </trkpt>
      <trkpt lat="49.19338" lon="6.9668">
        <ele>304</ele>
        <time>2012-01-22T08:07:26Z</time>
      </trkpt>
      <trkpt lat="49.19339" lon="6.96681">
        <ele>304</ele>
        <time>2012-01-22T08:07:27Z</time>
      </trkpt>
      <trkpt lat="49.19341" lon="6.96681">
        <ele>304</ele>
        <time>2012-01-22T08:07:28Z</time>
      </trkpt>
      <trkpt lat="49.19342" lon="6.96682">
        <ele>304</ele>
        <time>2012-01-22T08:07:29Z</time>
      </trkpt>
      <trkpt lat="49.19343" lon="6.96683">
        <ele>304</ele>
        <time>2012-01-22T08:07:30Z</time>
      </trkpt>
      <trkpt lat="49.19344" lon="6.96684">
        <ele>304</ele>
        <time>2012-01-22T08:07:31Z</time>
      </trkpt>
      <trkpt lat="49.19347" lon="6.96685">
        <ele>304</ele>
        <time>2012-01-22T08:07:33Z</time>
      </trkpt>
      <trkpt lat="49.19348" lon="6.96685">
        <ele>304</ele>
        <time>2012-01-22T08:07:34Z</time>
      </trkpt>
      <trkpt lat="49.19349" lon="6.96686">
        <ele>304</ele>
        <time>2012-01-22T08:07:35Z</time>
      </trkpt>
      <trkpt lat="49.19351" lon="6.96688">
        <ele>304</ele>
        <time>2012-01-22T08:07:37Z</time>
      </trkpt>
      <trkpt lat="49.19352" lon="6.96688">
        <ele>304</ele>
        <time>2012-01-22T08:07:38Z</time>
      </trkpt>
      <trkpt lat="49.19353" lon="6.96689">
        <ele>304</ele>
        <time>2012-01-22T08:07:39Z</time>
      </trkpt>
      <trkpt lat="49.19355" lon="6.96689">
        <ele>304</ele>
        <time>2012-01-22T08:07:40Z</time>
      </trkpt>
      <trkpt lat="49.19356" lon="6.9669">
        <ele>304</ele>
        <time>2012-01-22T08:07:41Z</time>
      </trkpt>
      <trkpt lat="49.19357" lon="6.9669">
        <ele>304</ele>
        <time>2012-01-22T08:07:42Z</time>
      </trkpt>
      <trkpt lat="49.19358" lon="6.96691">
        <ele>304</ele>
        <time>2012-01-22T08:07:43Z</time>
      </trkpt>
      <trkpt lat="49.1936" lon="6.96691">
        <ele>304</ele>
        <time>2012-01-22T08:07:44Z</time>
      </trkpt>
      <trkpt lat="49.19361" lon="6.96691">
        <ele>304</ele>
        <time>2012-01-22T08:07:45Z</time>
      </trkpt>
      <trkpt lat="49.19363" lon="6.96691">
        <ele>304</ele>
        <time>2012-01-22T08:07:46Z</time>
      </trkpt>
      <trkpt lat="49.19364" lon="6.96691">
        <ele>304</ele>
        <time>2012-01-22T08:07:47Z</time>
      </trkpt>
      <trkpt lat="49.19365" lon="6.9669">
        <ele>304</ele>
        <time>2012-01-22T08:07:48Z</time>
      </trkpt>
      <trkpt lat="49.19367" lon="6.9669">
        <ele>304</ele>
        <time>2012-01-22T08:07:49Z</time>
      </trkpt>
      <trkpt lat="49.19368" lon="6.9669">
        <ele>304</ele>
        <time>2012-01-22T08:07:50Z</time>
      </trkpt>
      <trkpt lat="49.19369" lon="6.9669">
        <ele>305</ele>
        <time>2012-01-22T08:07:51Z</time>
      </trkpt>
      <trkpt lat="49.19371" lon="6.9669">
        <ele>305</ele>
        <time>2012-01-22T08:07:52Z</time>
      </trkpt>
      <trkpt lat="49.19372" lon="6.9669">
        <ele>305</ele>
        <time>2012-01-22T08:07:53Z</time>
      </trkpt>
      <trkpt lat="49.19373" lon="6.9669">
        <ele>306</ele>
        <time>2012-01-22T08:07:54Z</time>
      </trkpt>
      <trkpt lat="49.19375" lon="6.9669">
        <ele>306</ele>
        <time>2012-01-22T08:07:55Z</time>
      </trkpt>
      <trkpt lat="49.19376" lon="6.9669">
        <ele>306</ele>
        <time>2012-01-22T08:07:56Z</time>
      </trkpt>
      <trkpt lat="49.19378" lon="6.9669">
        <ele>306</ele>
        <time>2012-01-22T08:07:57Z</time>
      </trkpt>
      <trkpt lat="49.19379" lon="6.9669">
        <ele>307</ele>
        <time>2012-01-22T08:07:58Z</time>
      </trkpt>
      <trkpt lat="49.19381" lon="6.96691">
        <ele>307</ele>
        <time>2012-01-22T08:07:59Z</time>
      </trkpt>
      <trkpt lat="49.19382" lon="6.96692">
        <ele>307</ele>
        <time>2012-01-22T08:08:00Z</time>
      </trkpt>
      <trkpt lat="49.19383" lon="6.96692">
        <ele>307</ele>
        <time>2012-01-22T08:08:01Z</time>
      </trkpt>
      <trkpt lat="49.19385" lon="6.96692">
        <ele>307</ele>
        <time>2012-01-22T08:08:02Z</time>
      </trkpt>
      <trkpt lat="49.19386" lon="6.96692">
        <ele>307</ele>
        <time>2012-01-22T08:08:03Z</time>
      </trkpt>
      <trkpt lat="49.19388" lon="6.96692">
        <ele>307</ele>
        <time>2012-01-22T08:08:05Z</time>
      </trkpt>
      <trkpt lat="49.19389" lon="6.96692">
        <ele>307</ele>
        <time>2012-01-22T08:08:06Z</time>
      </trkpt>
      <trkpt lat="49.1939" lon="6.96696">
        <ele>307</ele>
        <time>2012-01-22T08:08:08Z</time>
      </trkpt>
      <trkpt lat="49.1939" lon="6.96698">
        <ele>307</ele>
        <time>2012-01-22T08:08:09Z</time>
      </trkpt>
      <trkpt lat="49.19392" lon="6.967">
        <ele>307</ele>
        <time>2012-01-22T08:08:11Z</time>
      </trkpt>
      <trkpt lat="49.19394" lon="6.96701">
        <ele>307</ele>
        <time>2012-01-22T08:08:12Z</time>
      </trkpt>
      <trkpt lat="49.19395" lon="6.96701">
        <ele>307</ele>
        <time>2012-01-22T08:08:13Z</time>
      </trkpt>
      <trkpt lat="49.19396" lon="6.96701">
        <ele>307</ele>
        <time>2012-01-22T08:08:14Z</time>
      </trkpt>
      <trkpt lat="49.19397" lon="6.96702">
        <ele>307</ele>
        <time>2012-01-22T08:08:15Z</time>
      </trkpt>
      <trkpt lat="49.19399" lon="6.96702">
        <ele>308</ele>
        <time>2012-01-22T08:08:16Z</time>
      </trkpt>
      <trkpt lat="49.194" lon="6.96703">
        <ele>308</ele>
        <time>2012-01-22T08:08:17Z</time>
      </trkpt>
      <trkpt lat="49.19401" lon="6.96703">
        <ele>308</ele>
        <time>2012-01-22T08:08:18Z</time>
      </trkpt>
      <trkpt lat="49.19402" lon="6.96704">
        <ele>308</ele>
        <time>2012-01-22T08:08:18Z</time>
      </trkpt>
      <trkpt lat="49.19404" lon="6.96705">
        <ele>308</ele>
        <time>2012-01-22T08:08:20Z</time>
      </trkpt>
      <trkpt lat="49.19405" lon="6.96705">
        <ele>308</ele>
        <time>2012-01-22T08:08:21Z</time>
      </trkpt>
      <trkpt lat="49.19407" lon="6.96706">
        <ele>308</ele>
        <time>2012-01-22T08:08:22Z</time>
      </trkpt>
      <trkpt lat="49.19408" lon="6.96707">
        <ele>308</ele>
        <time>2012-01-22T08:08:23Z</time>
      </trkpt>
      <trkpt lat="49.19409" lon="6.96708">
        <ele>309</ele>
        <time>2012-01-22T08:08:24Z</time>
      </trkpt>
      <trkpt lat="49.1941" lon="6.96708">
        <ele>309</ele>
        <time>2012-01-22T08:08:25Z</time>
      </trkpt>
      <trkpt lat="49.19411" lon="6.96709">
        <ele>309</ele>
        <time>2012-01-22T08:08:26Z</time>
      </trkpt>
      <trkpt lat="49.19413" lon="6.96711">
        <ele>310</ele>
        <time>2012-01-22T08:08:28Z</time>
      </trkpt>
      <trkpt lat="49.19415" lon="6.96711">
        <ele>310</ele>
        <time>2012-01-22T08:08:29Z</time>
      </trkpt>
      <trkpt lat="49.19416" lon="6.96712">
        <ele>310</ele>
        <time>2012-01-22T08:08:30Z</time>
      </trkpt>
      <trkpt lat="49.19418" lon="6.96713">
        <ele>310</ele>
        <time>2012-01-22T08:08:32Z</time>
      </trkpt>
      <trkpt lat="49.1942" lon="6.96715">
        <ele>310</ele>
        <time>2012-01-22T08:08:34Z</time>
      </trkpt>
      <trkpt lat="49.19422" lon="6.96715">
        <ele>310</ele>
        <time>2012-01-22T08:08:35Z</time>
      </trkpt>
      <trkpt lat="49.19424" lon="6.96717">
        <ele>310</ele>
        <time>2012-01-22T08:08:36Z</time>
      </trkpt>
      <trkpt lat="49.19426" lon="6.96719">
        <ele>310</ele>
        <time>2012-01-22T08:08:39Z</time>
      </trkpt>
      <trkpt lat="49.19428" lon="6.96719">
        <ele>310</ele>
        <time>2012-01-22T08:08:40Z</time>
      </trkpt>
      <trkpt lat="49.19429" lon="6.9672">
        <ele>310</ele>
        <time>2012-01-22T08:08:41Z</time>
      </trkpt>
      <trkpt lat="49.19431" lon="6.96721">
        <ele>310</ele>
        <time>2012-01-22T08:08:42Z</time>
      </trkpt>
      <trkpt lat="49.19432" lon="6.96722">
        <ele>310</ele>
        <time>2012-01-22T08:08:43Z</time>
      </trkpt>
      <trkpt lat="49.19434" lon="6.96722">
        <ele>310</ele>
        <time>2012-01-22T08:08:43Z</time>
      </trkpt>
      <trkpt lat="49.19435" lon="6.96723">
        <ele>310</ele>
        <time>2012-01-22T08:08:45Z</time>
      </trkpt>
      <trkpt lat="49.19436" lon="6.96723">
        <ele>311</ele>
        <time>2012-01-22T08:08:46Z</time>
      </trkpt>
      <trkpt lat="49.19437" lon="6.96725">
        <ele>311</ele>
        <time>2012-01-22T08:08:47Z</time>
      </trkpt>
      <trkpt lat="49.19439" lon="6.96726">
        <ele>311</ele>
        <time>2012-01-22T08:08:48Z</time>
      </trkpt>
      <trkpt lat="49.1944" lon="6.96727">
        <ele>311</ele>
        <time>2012-01-22T08:08:49Z</time>
      </trkpt>
      <trkpt lat="49.19442" lon="6.96727">
        <ele>311</ele>
        <time>2012-01-22T08:08:50Z</time>
      </trkpt>
      <trkpt lat="49.19443" lon="6.96727">
        <ele>311</ele>
        <time>2012-01-22T08:08:51Z</time>
      </trkpt>
      <trkpt lat="49.19443" lon="6.96729">
        <ele>311</ele>
        <time>2012-01-22T08:08:52Z</time>
      </trkpt>
      <trkpt lat="49.19445" lon="6.96731">
        <ele>311</ele>
        <time>2012-01-22T08:08:54Z</time>
      </trkpt>
      <trkpt lat="49.19446" lon="6.96731">
        <ele>311</ele>
        <time>2012-01-22T08:08:55Z</time>
      </trkpt>
      <trkpt lat="49.19448" lon="6.96731">
        <ele>311</ele>
        <time>2012-01-22T08:08:55Z</time>
      </trkpt>
      <trkpt lat="49.1945" lon="6.96731">
        <ele>311</ele>
        <time>2012-01-22T08:08:56Z</time>
      </trkpt>
      <trkpt lat="49.19451" lon="6.96731">
        <ele>311</ele>
        <time>2012-01-22T08:08:58Z</time>
      </trkpt>
      <trkpt lat="49.19453" lon="6.96731">
        <ele>311</ele>
        <time>2012-01-22T08:08:59Z</time>
      </trkpt>
      <trkpt lat="49.19454" lon="6.96732">
        <ele>311</ele>
        <time>2012-01-22T08:09:00Z</time>
      </trkpt>
      <trkpt lat="49.19455" lon="6.96733">
        <ele>311</ele>
        <time>2012-01-22T08:09:01Z</time>
      </trkpt>
      <trkpt lat="49.19456" lon="6.96733">
        <ele>311</ele>
        <time>2012-01-22T08:09:02Z</time>
      </trkpt>
      <trkpt lat="49.19458" lon="6.96733">
        <ele>311</ele>
        <time>2012-01-22T08:09:03Z</time>
      </trkpt>
      <trkpt lat="49.19459" lon="6.96734">
        <ele>311</ele>
        <time>2012-01-22T08:09:04Z</time>
      </trkpt>
      <trkpt lat="49.19461" lon="6.96734">
        <ele>311</ele>
        <time>2012-01-22T08:09:05Z</time>
      </trkpt>
      <trkpt lat="49.19462" lon="6.96735">
        <ele>311</ele>
        <time>2012-01-22T08:09:05Z</time>
      </trkpt>
      <trkpt lat="49.19463" lon="6.96736">
        <ele>311</ele>
        <time>2012-01-22T08:09:07Z</time>
      </trkpt>
      <trkpt lat="49.19464" lon="6.96736">
        <ele>311</ele>
        <time>2012-01-22T08:09:08Z</time>
      </trkpt>
      <trkpt lat="49.19466" lon="6.96737">
        <ele>311</ele>
        <time>2012-01-22T08:09:09Z</time>
      </trkpt>
      <trkpt lat="49.19468" lon="6.96738">
        <ele>311</ele>
        <time>2012-01-22T08:09:11Z</time>
      </trkpt>
      <trkpt lat="49.19469" lon="6.96739">
        <ele>311</ele>
        <time>2012-01-22T08:09:12Z</time>
      </trkpt>
      <trkpt lat="49.19471" lon="6.96739">
        <ele>311</ele>
        <time>2012-01-22T08:09:13Z</time>
      </trkpt>
      <trkpt lat="49.19472" lon="6.9674">
        <ele>311</ele>
        <time>2012-01-22T08:09:14Z</time>
      </trkpt>
      <trkpt lat="49.19473" lon="6.96741">
        <ele>311</ele>
        <time>2012-01-22T08:09:15Z</time>
      </trkpt>
      <trkpt lat="49.19474" lon="6.96742">
        <ele>311</ele>
        <time>2012-01-22T08:09:16Z</time>
      </trkpt>
      <trkpt lat="49.19476" lon="6.96742">
        <ele>311</ele>
        <time>2012-01-22T08:09:17Z</time>
      </trkpt>
      <trkpt lat="49.19477" lon="6.96743">
        <ele>311</ele>
        <time>2012-01-22T08:09:17Z</time>
      </trkpt>
      <trkpt lat="49.19478" lon="6.96743">
        <ele>311</ele>
        <time>2012-01-22T08:09:19Z</time>
      </trkpt>
      <trkpt lat="49.19479" lon="6.96744">
        <ele>311</ele>
        <time>2012-01-22T08:09:20Z</time>
      </trkpt>
      <trkpt lat="49.19481" lon="6.96745">
        <ele>311</ele>
        <time>2012-01-22T08:09:21Z</time>
      </trkpt>
      <trkpt lat="49.19483" lon="6.96747">
        <ele>311</ele>
        <time>2012-01-22T08:09:23Z</time>
      </trkpt>
      <trkpt lat="49.19484" lon="6.96747">
        <ele>311</ele>
        <time>2012-01-22T08:09:24Z</time>
      </trkpt>
      <trkpt lat="49.19486" lon="6.96748">
        <ele>311</ele>
        <time>2012-01-22T08:09:26Z</time>
      </trkpt>
      <trkpt lat="49.19487" lon="6.96749">
        <ele>311</ele>
        <time>2012-01-22T08:09:27Z</time>
      </trkpt>
      <trkpt lat="49.19489" lon="6.9675">
        <ele>311</ele>
        <time>2012-01-22T08:09:28Z</time>
      </trkpt>
      <trkpt lat="49.1949" lon="6.9675">
        <ele>311</ele>
        <time>2012-01-22T08:09:29Z</time>
      </trkpt>
      <trkpt lat="49.19491" lon="6.9675">
        <ele>311</ele>
        <time>2012-01-22T08:09:30Z</time>
      </trkpt>
      <trkpt lat="49.19492" lon="6.96751">
        <ele>311</ele>
        <time>2012-01-22T08:09:31Z</time>
      </trkpt>
      <trkpt lat="49.19494" lon="6.96751">
        <ele>311</ele>
        <time>2012-01-22T08:09:32Z</time>
      </trkpt>
      <trkpt lat="49.19495" lon="6.96752">
        <ele>311</ele>
        <time>2012-01-22T08:09:32Z</time>
      </trkpt>
      <trkpt lat="49.19497" lon="6.96752">
        <ele>311</ele>
        <time>2012-01-22T08:09:35Z</time>
      </trkpt>
      <trkpt lat="49.19498" lon="6.96752">
        <ele>311</ele>
        <time>2012-01-22T08:09:36Z</time>
      </trkpt>
      <trkpt lat="49.195" lon="6.96753">
        <ele>311</ele>
        <time>2012-01-22T08:09:37Z</time>
      </trkpt>
      <trkpt lat="49.19501" lon="6.96753">
        <ele>311</ele>
        <time>2012-01-22T08:09:38Z</time>
      </trkpt>
      <trkpt lat="49.19502" lon="6.96753">
        <ele>311</ele>
        <time>2012-01-22T08:09:39Z</time>
      </trkpt>
      <trkpt lat="49.19503" lon="6.96754">
        <ele>311</ele>
        <time>2012-01-22T08:09:40Z</time>
      </trkpt>
      <trkpt lat="49.19504" lon="6.96754">
        <ele>311</ele>
        <time>2012-01-22T08:09:40Z</time>
      </trkpt>
      <trkpt lat="49.19506" lon="6.96755">
        <ele>311</ele>
        <time>2012-01-22T08:09:41Z</time>
      </trkpt>
      <trkpt lat="49.19507" lon="6.96755">
        <ele>311</ele>
        <time>2012-01-22T08:09:43Z</time>
      </trkpt>
      <trkpt lat="49.19508" lon="6.96755">
        <ele>311</ele>
        <time>2012-01-22T08:09:44Z</time>
      </trkpt>
      <trkpt lat="49.1951" lon="6.96756">
        <ele>311</ele>
        <time>2012-01-22T08:09:45Z</time>
      </trkpt>
      <trkpt lat="49.19511" lon="6.96756">
        <ele>311</ele>
        <time>2012-01-22T08:09:46Z</time>
      </trkpt>
      <trkpt lat="49.19512" lon="6.96756">
        <ele>311</ele>
        <time>2012-01-22T08:09:47Z</time>
      </trkpt>
      <trkpt lat="49.19513" lon="6.96756">
        <ele>311</ele>
        <time>2012-01-22T08:09:48Z</time>
      </trkpt>
      <trkpt lat="49.19514" lon="6.96756">
        <ele>311</ele>
        <time>2012-01-22T08:09:49Z</time>
      </trkpt>
      <trkpt lat="49.19516" lon="6.96756">
        <ele>311</ele>
        <time>2012-01-22T08:09:50Z</time>
      </trkpt>
      <trkpt lat="49.19517" lon="6.96757">
        <ele>311</ele>
        <time>2012-01-22T08:09:51Z</time>
      </trkpt>
      <trkpt lat="49.19518" lon="6.96756">
        <ele>311</ele>
        <time>2012-01-22T08:09:52Z</time>
      </trkpt>
      <trkpt lat="49.19519" lon="6.96757">
        <ele>311</ele>
        <time>2012-01-22T08:09:53Z</time>
      </trkpt>
      <trkpt lat="49.19521" lon="6.96757">
        <ele>311</ele>
        <time>2012-01-22T08:09:54Z</time>
      </trkpt>
      <trkpt lat="49.19522" lon="6.96757">
        <ele>311</ele>
        <time>2012-01-22T08:09:55Z</time>
      </trkpt>
      <trkpt lat="49.19523" lon="6.96757">
        <ele>311</ele>
        <time>2012-01-22T08:09:56Z</time>
      </trkpt>
      <trkpt lat="49.19524" lon="6.96756">
        <ele>312</ele>
        <time>2012-01-22T08:09:57Z</time>
      </trkpt>
      <trkpt lat="49.19525" lon="6.96756">
        <ele>312</ele>
        <time>2012-01-22T08:09:58Z</time>
      </trkpt>
      <trkpt lat="49.19527" lon="6.96757">
        <ele>312</ele>
        <time>2012-01-22T08:09:59Z</time>
      </trkpt>
      <trkpt lat="49.19528" lon="6.96757">
        <ele>312</ele>
        <time>2012-01-22T08:10:00Z</time>
      </trkpt>
      <trkpt lat="49.19529" lon="6.96757">
        <ele>313</ele>
        <time>2012-01-22T08:10:01Z</time>
      </trkpt>
      <trkpt lat="49.1953" lon="6.96757">
        <ele>313</ele>
        <time>2012-01-22T08:10:02Z</time>
      </trkpt>
      <trkpt lat="49.19532" lon="6.96757">
        <ele>313</ele>
        <time>2012-01-22T08:10:03Z</time>
      </trkpt>
      <trkpt lat="49.19533" lon="6.96757">
        <ele>313</ele>
        <time>2012-01-22T08:10:04Z</time>
      </trkpt>
      <trkpt lat="49.19535" lon="6.96759">
        <ele>314</ele>
        <time>2012-01-22T08:10:05Z</time>
      </trkpt>
      <trkpt lat="49.19537" lon="6.9676">
        <ele>314</ele>
        <time>2012-01-22T08:10:07Z</time>
      </trkpt>
      <trkpt lat="49.19538" lon="6.96761">
        <ele>314</ele>
        <time>2012-01-22T08:10:08Z</time>
      </trkpt>
      <trkpt lat="49.19539" lon="6.96762">
        <ele>314</ele>
        <time>2012-01-22T08:10:09Z</time>
      </trkpt>
      <trkpt lat="49.1954" lon="6.96762">
        <ele>314</ele>
        <time>2012-01-22T08:10:10Z</time>
      </trkpt>
      <trkpt lat="49.19542" lon="6.96762">
        <ele>314</ele>
        <time>2012-01-22T08:10:11Z</time>
      </trkpt>
      <trkpt lat="49.19543" lon="6.96763">
        <ele>314</ele>
        <time>2012-01-22T08:10:11Z</time>
      </trkpt>
      <trkpt lat="49.19544" lon="6.96763">
        <ele>314</ele>
        <time>2012-01-22T08:10:13Z</time>
      </trkpt>
      <trkpt lat="49.19545" lon="6.96763">
        <ele>314</ele>
        <time>2012-01-22T08:10:14Z</time>
      </trkpt>
      <trkpt lat="49.19547" lon="6.96763">
        <ele>314</ele>
        <time>2012-01-22T08:10:15Z</time>
      </trkpt>
      <trkpt lat="49.19548" lon="6.96763">
        <ele>314</ele>
        <time>2012-01-22T08:10:16Z</time>
      </trkpt>
      <trkpt lat="49.1955" lon="6.96763">
        <ele>314</ele>
        <time>2012-01-22T08:10:17Z</time>
      </trkpt>
      <trkpt lat="49.19551" lon="6.96763">
        <ele>314</ele>
        <time>2012-01-22T08:10:18Z</time>
      </trkpt>
      <trkpt lat="49.19552" lon="6.96763">
        <ele>314</ele>
        <time>2012-01-22T08:10:19Z</time>
      </trkpt>
      <trkpt lat="49.19554" lon="6.96763">
        <ele>314</ele>
        <time>2012-01-22T08:10:20Z</time>
      </trkpt>
      <trkpt lat="49.19555" lon="6.96763">
        <ele>314</ele>
        <time>2012-01-22T08:10:21Z</time>
      </trkpt>
      <trkpt lat="49.19556" lon="6.96763">
        <ele>314</ele>
        <time>2012-01-22T08:10:21Z</time>
      </trkpt>
      <trkpt lat="49.19558" lon="6.96762">
        <ele>314</ele>
        <time>2012-01-22T08:10:23Z</time>
      </trkpt>
      <trkpt lat="49.19559" lon="6.96762">
        <ele>314</ele>
        <time>2012-01-22T08:10:24Z</time>
      </trkpt>
      <trkpt lat="49.1956" lon="6.96762">
        <ele>314</ele>
        <time>2012-01-22T08:10:25Z</time>
      </trkpt>
      <trkpt lat="49.19562" lon="6.96762">
        <ele>314</ele>
        <time>2012-01-22T08:10:26Z</time>
      </trkpt>
      <trkpt lat="49.19563" lon="6.96762">
        <ele>314</ele>
        <time>2012-01-22T08:10:27Z</time>
      </trkpt>
      <trkpt lat="49.19564" lon="6.96762">
        <ele>314</ele>
        <time>2012-01-22T08:10:28Z</time>
      </trkpt>
      <trkpt lat="49.19566" lon="6.96762">
        <ele>314</ele>
        <time>2012-01-22T08:10:29Z</time>
      </trkpt>
      <trkpt lat="49.19567" lon="6.96762">
        <ele>314</ele>
        <time>2012-01-22T08:10:30Z</time>
      </trkpt>
      <trkpt lat="49.19569" lon="6.96762">
        <ele>314</ele>
        <time>2012-01-22T08:10:31Z</time>
      </trkpt>
      <trkpt lat="49.1957" lon="6.96762">
        <ele>314</ele>
        <time>2012-01-22T08:10:32Z</time>
      </trkpt>
      <trkpt lat="49.19571" lon="6.96762">
        <ele>314</ele>
        <time>2012-01-22T08:10:33Z</time>
      </trkpt>
      <trkpt lat="49.19573" lon="6.96762">
        <ele>314</ele>
        <time>2012-01-22T08:10:33Z</time>
      </trkpt>
      <trkpt lat="49.19574" lon="6.96762">
        <ele>314</ele>
        <time>2012-01-22T08:10:35Z</time>
      </trkpt>
      <trkpt lat="49.19575" lon="6.96762">
        <ele>314</ele>
        <time>2012-01-22T08:10:36Z</time>
      </trkpt>
      <trkpt lat="49.19577" lon="6.96761">
        <ele>315</ele>
        <time>2012-01-22T08:10:38Z</time>
      </trkpt>
      <trkpt lat="49.19579" lon="6.96761">
        <ele>315</ele>
        <time>2012-01-22T08:10:38Z</time>
      </trkpt>
      <trkpt lat="49.1958" lon="6.96761">
        <ele>315</ele>
        <time>2012-01-22T08:10:40Z</time>
      </trkpt>
      <trkpt lat="49.19582" lon="6.96761">
        <ele>315</ele>
        <time>2012-01-22T08:10:41Z</time>
      </trkpt>
      <trkpt lat="49.19583" lon="6.96761">
        <ele>315</ele>
        <time>2012-01-22T08:10:41Z</time>
      </trkpt>
      <trkpt lat="49.19584" lon="6.96761">
        <ele>315</ele>
        <time>2012-01-22T08:10:42Z</time>
      </trkpt>
      <trkpt lat="49.19586" lon="6.96761">
        <ele>315</ele>
        <time>2012-01-22T08:10:44Z</time>
      </trkpt>
      <trkpt lat="49.19587" lon="6.96761">
        <ele>315</ele>
        <time>2012-01-22T08:10:45Z</time>
      </trkpt>
      <trkpt lat="49.19588" lon="6.96761">
        <ele>315</ele>
        <time>2012-01-22T08:10:45Z</time>
      </trkpt>
      <trkpt lat="49.1959" lon="6.9676">
        <ele>315</ele>
        <time>2012-01-22T08:10:47Z</time>
      </trkpt>
      <trkpt lat="49.19592" lon="6.9676">
        <ele>316</ele>
        <time>2012-01-22T08:10:49Z</time>
      </trkpt>
      <trkpt lat="49.19593" lon="6.9676">
        <ele>316</ele>
        <time>2012-01-22T08:10:50Z</time>
      </trkpt>
      <trkpt lat="49.19596" lon="6.9676">
        <ele>316</ele>
        <time>2012-01-22T08:10:52Z</time>
      </trkpt>
      <trkpt lat="49.19597" lon="6.9676">
        <ele>316</ele>
        <time>2012-01-22T08:10:53Z</time>
      </trkpt>
      <trkpt lat="49.19599" lon="6.9676">
        <ele>316</ele>
        <time>2012-01-22T08:10:54Z</time>
      </trkpt>
      <trkpt lat="49.196" lon="6.9676">
        <ele>316</ele>
        <time>2012-01-22T08:10:55Z</time>
      </trkpt>
      <trkpt lat="49.19601" lon="6.9676">
        <ele>316</ele>
        <time>2012-01-22T08:10:56Z</time>
      </trkpt>
      <trkpt lat="49.19603" lon="6.96761">
        <ele>316</ele>
        <time>2012-01-22T08:10:57Z</time>
      </trkpt>
      <trkpt lat="49.19604" lon="6.96761">
        <ele>316</ele>
        <time>2012-01-22T08:10:58Z</time>
      </trkpt>
      <trkpt lat="49.19606" lon="6.96762">
        <ele>316</ele>
        <time>2012-01-22T08:10:59Z</time>
      </trkpt>
      <trkpt lat="49.19607" lon="6.96762">
        <ele>316</ele>
        <time>2012-01-22T08:11:00Z</time>
      </trkpt>
      <trkpt lat="49.19608" lon="6.96762">
        <ele>316</ele>
        <time>2012-01-22T08:11:01Z</time>
      </trkpt>
      <trkpt lat="49.1961" lon="6.96763">
        <ele>316</ele>
        <time>2012-01-22T08:11:02Z</time>
      </trkpt>
      <trkpt lat="49.19611" lon="6.96763">
        <ele>316</ele>
        <time>2012-01-22T08:11:03Z</time>
      </trkpt>
      <trkpt lat="49.19612" lon="6.96764">
        <ele>316</ele>
        <time>2012-01-22T08:11:03Z</time>
      </trkpt>
      <trkpt lat="49.19614" lon="6.96764">
        <ele>316</ele>
        <time>2012-01-22T08:11:05Z</time>
      </trkpt>
      <trkpt lat="49.19615" lon="6.96765">
        <ele>316</ele>
        <time>2012-01-22T08:11:05Z</time>
      </trkpt>
      <trkpt lat="49.19616" lon="6.96765">
        <ele>316</ele>
        <time>2012-01-22T08:11:07Z</time>
      </trkpt>
      <trkpt lat="49.19617" lon="6.96766">
        <ele>317</ele>
        <time>2012-01-22T08:11:08Z</time>
      </trkpt>
      <trkpt lat="49.19619" lon="6.96766">
        <ele>317</ele>
        <time>2012-01-22T08:11:09Z</time>
      </trkpt>
      <trkpt lat="49.1962" lon="6.96766">
        <ele>317</ele>
        <time>2012-01-22T08:11:10Z</time>
      </trkpt>
      <trkpt lat="49.19621" lon="6.96766">
        <ele>317</ele>
        <time>2012-01-22T08:11:11Z</time>
      </trkpt>
      <trkpt lat="49.19622" lon="6.96767">
        <ele>317</ele>
        <time>2012-01-22T08:11:12Z</time>
      </trkpt>
      <trkpt lat="49.19624" lon="6.96767">
        <ele>317</ele>
        <time>2012-01-22T08:11:14Z</time>
      </trkpt>
      <trkpt lat="49.19626" lon="6.96768">
        <ele>317</ele>
        <time>2012-01-22T08:11:15Z</time>
      </trkpt>
      <trkpt lat="49.19627" lon="6.96768">
        <ele>317</ele>
        <time>2012-01-22T08:11:16Z</time>
      </trkpt>
      <trkpt lat="49.19628" lon="6.96769">
        <ele>317</ele>
        <time>2012-01-22T08:11:17Z</time>
      </trkpt>
      <trkpt lat="49.19629" lon="6.96769">
        <ele>317</ele>
        <time>2012-01-22T08:11:18Z</time>
      </trkpt>
      <trkpt lat="49.19631" lon="6.96769">
        <ele>317</ele>
        <time>2012-01-22T08:11:19Z</time>
      </trkpt>
      <trkpt lat="49.19632" lon="6.9677">
        <ele>317</ele>
        <time>2012-01-22T08:11:20Z</time>
      </trkpt>
      <trkpt lat="49.19634" lon="6.9677">
        <ele>317</ele>
        <time>2012-01-22T08:11:21Z</time>
      </trkpt>
      <trkpt lat="49.19635" lon="6.9677">
        <ele>317</ele>
        <time>2012-01-22T08:11:22Z</time>
      </trkpt>
      <trkpt lat="49.19637" lon="6.9677">
        <ele>317</ele>
        <time>2012-01-22T08:11:23Z</time>
      </trkpt>
      <trkpt lat="49.19638" lon="6.96771">
        <ele>317</ele>
        <time>2012-01-22T08:11:24Z</time>
      </trkpt>
      <trkpt lat="49.19639" lon="6.96771">
        <ele>317</ele>
        <time>2012-01-22T08:11:25Z</time>
      </trkpt>
      <trkpt lat="49.19641" lon="6.96772">
        <ele>317</ele>
        <time>2012-01-22T08:11:26Z</time>
      </trkpt>
      <trkpt lat="49.19642" lon="6.96772">
        <ele>317</ele>
        <time>2012-01-22T08:11:27Z</time>
      </trkpt>
      <trkpt lat="49.19643" lon="6.96773">
        <ele>317</ele>
        <time>2012-01-22T08:11:28Z</time>
      </trkpt>
      <trkpt lat="49.19645" lon="6.96773">
        <ele>317</ele>
        <time>2012-01-22T08:11:29Z</time>
      </trkpt>
      <trkpt lat="49.19646" lon="6.96773">
        <ele>317</ele>
        <time>2012-01-22T08:11:30Z</time>
      </trkpt>
      <trkpt lat="49.19647" lon="6.96774">
        <ele>317</ele>
        <time>2012-01-22T08:11:31Z</time>
      </trkpt>
      <trkpt lat="49.19648" lon="6.96774">
        <ele>317</ele>
        <time>2012-01-22T08:11:32Z</time>
      </trkpt>
      <trkpt lat="49.1965" lon="6.96775">
        <ele>317</ele>
        <time>2012-01-22T08:11:33Z</time>
      </trkpt>
      <trkpt lat="49.19652" lon="6.96775">
        <ele>317</ele>
        <time>2012-01-22T08:11:35Z</time>
      </trkpt>
      <trkpt lat="49.19653" lon="6.96776">
        <ele>317</ele>
        <time>2012-01-22T08:11:36Z</time>
      </trkpt>
      <trkpt lat="49.19654" lon="6.96776">
        <ele>317</ele>
        <time>2012-01-22T08:11:37Z</time>
      </trkpt>
      <trkpt lat="49.19656" lon="6.96777">
        <ele>317</ele>
        <time>2012-01-22T08:11:38Z</time>
      </trkpt>
      <trkpt lat="49.19657" lon="6.96777">
        <ele>317</ele>
        <time>2012-01-22T08:11:39Z</time>
      </trkpt>
      <trkpt lat="49.19659" lon="6.96777">
        <ele>317</ele>
        <time>2012-01-22T08:11:40Z</time>
      </trkpt>
      <trkpt lat="49.1966" lon="6.96777">
        <ele>317</ele>
        <time>2012-01-22T08:11:41Z</time>
      </trkpt>
      <trkpt lat="49.19661" lon="6.96777">
        <ele>317</ele>
        <time>2012-01-22T08:11:42Z</time>
      </trkpt>
      <trkpt lat="49.19662" lon="6.96778">
        <ele>317</ele>
        <time>2012-01-22T08:11:43Z</time>
      </trkpt>
      <trkpt lat="49.19664" lon="6.96778">
        <ele>317</ele>
        <time>2012-01-22T08:11:44Z</time>
      </trkpt>
      <trkpt lat="49.19665" lon="6.96778">
        <ele>317</ele>
        <time>2012-01-22T08:11:45Z</time>
      </trkpt>
      <trkpt lat="49.19666" lon="6.96779">
        <ele>317</ele>
        <time>2012-01-22T08:11:46Z</time>
      </trkpt>
      <trkpt lat="49.19667" lon="6.96779">
        <ele>317</ele>
        <time>2012-01-22T08:11:47Z</time>
      </trkpt>
      <trkpt lat="49.19668" lon="6.96779">
        <ele>317</ele>
        <time>2012-01-22T08:11:48Z</time>
      </trkpt>
      <trkpt lat="49.19669" lon="6.9678">
        <ele>317</ele>
        <time>2012-01-22T08:11:49Z</time>
      </trkpt>
      <trkpt lat="49.19671" lon="6.9678">
        <ele>317</ele>
        <time>2012-01-22T08:11:50Z</time>
      </trkpt>
      <trkpt lat="49.19672" lon="6.9678">
        <ele>317</ele>
        <time>2012-01-22T08:11:51Z</time>
      </trkpt>
      <trkpt lat="49.19674" lon="6.9678">
        <ele>317</ele>
        <time>2012-01-22T08:11:52Z</time>
      </trkpt>
      <trkpt lat="49.19675" lon="6.96781">
        <ele>317</ele>
        <time>2012-01-22T08:11:53Z</time>
      </trkpt>
      <trkpt lat="49.19676" lon="6.96781">
        <ele>317</ele>
        <time>2012-01-22T08:11:54Z</time>
      </trkpt>
      <trkpt lat="49.19677" lon="6.96781">
        <ele>317</ele>
        <time>2012-01-22T08:11:55Z</time>
      </trkpt>
      <trkpt lat="49.19679" lon="6.96781">
        <ele>317</ele>
        <time>2012-01-22T08:11:56Z</time>
      </trkpt>
      <trkpt lat="49.1968" lon="6.96781">
        <ele>317</ele>
        <time>2012-01-22T08:11:57Z</time>
      </trkpt>
      <trkpt lat="49.19681" lon="6.96781">
        <ele>317</ele>
        <time>2012-01-22T08:11:57Z</time>
      </trkpt>
      <trkpt lat="49.19682" lon="6.96782">
        <ele>317</ele>
        <time>2012-01-22T08:11:59Z</time>
      </trkpt>
      <trkpt lat="49.19684" lon="6.96782">
        <ele>317</ele>
        <time>2012-01-22T08:12:00Z</time>
      </trkpt>
      <trkpt lat="49.19685" lon="6.96782">
        <ele>317</ele>
        <time>2012-01-22T08:12:01Z</time>
      </trkpt>
      <trkpt lat="49.19687" lon="6.96782">
        <ele>317</ele>
        <time>2012-01-22T08:12:02Z</time>
      </trkpt>
      <trkpt lat="49.19688" lon="6.96782">
        <ele>317</ele>
        <time>2012-01-22T08:12:03Z</time>
      </trkpt>
      <trkpt lat="49.1969" lon="6.96783">
        <ele>317</ele>
        <time>2012-01-22T08:12:05Z</time>
      </trkpt>
      <trkpt lat="49.19692" lon="6.96783">
        <ele>317</ele>
        <time>2012-01-22T08:12:06Z</time>
      </trkpt>
      <trkpt lat="49.19693" lon="6.96784">
        <ele>317</ele>
        <time>2012-01-22T08:12:07Z</time>
      </trkpt>
      <trkpt lat="49.19694" lon="6.96784">
        <ele>317</ele>
        <time>2012-01-22T08:12:08Z</time>
      </trkpt>
      <trkpt lat="49.19696" lon="6.96784">
        <ele>317</ele>
        <time>2012-01-22T08:12:09Z</time>
      </trkpt>
      <trkpt lat="49.19697" lon="6.96784">
        <ele>317</ele>
        <time>2012-01-22T08:12:10Z</time>
      </trkpt>
      <trkpt lat="49.19698" lon="6.96784">
        <ele>317</ele>
        <time>2012-01-22T08:12:11Z</time>
      </trkpt>
      <trkpt lat="49.19699" lon="6.96785">
        <ele>317</ele>
        <time>2012-01-22T08:12:12Z</time>
      </trkpt>
      <trkpt lat="49.19701" lon="6.96785">
        <ele>317</ele>
        <time>2012-01-22T08:12:13Z</time>
      </trkpt>
      <trkpt lat="49.19702" lon="6.96785">
        <ele>317</ele>
        <time>2012-01-22T08:12:13Z</time>
      </trkpt>
      <trkpt lat="49.19703" lon="6.96786">
        <ele>317</ele>
        <time>2012-01-22T08:12:15Z</time>
      </trkpt>
      <trkpt lat="49.19704" lon="6.96786">
        <ele>317</ele>
        <time>2012-01-22T08:12:16Z</time>
      </trkpt>
      <trkpt lat="49.19706" lon="6.96786">
        <ele>317</ele>
        <time>2012-01-22T08:12:17Z</time>
      </trkpt>
      <trkpt lat="49.19707" lon="6.96787">
        <ele>317</ele>
        <time>2012-01-22T08:12:18Z</time>
      </trkpt>
      <trkpt lat="49.19708" lon="6.96788">
        <ele>317</ele>
        <time>2012-01-22T08:12:19Z</time>
      </trkpt>
      <trkpt lat="49.1971" lon="6.96788">
        <ele>317</ele>
        <time>2012-01-22T08:12:20Z</time>
      </trkpt>
      <trkpt lat="49.19712" lon="6.96789">
        <ele>317</ele>
        <time>2012-01-22T08:12:22Z</time>
      </trkpt>
      <trkpt lat="49.19713" lon="6.96789">
        <ele>317</ele>
        <time>2012-01-22T08:12:23Z</time>
      </trkpt>
      <trkpt lat="49.19714" lon="6.96789">
        <ele>317</ele>
        <time>2012-01-22T08:12:24Z</time>
      </trkpt>
      <trkpt lat="49.19715" lon="6.9679">
        <ele>317</ele>
        <time>2012-01-22T08:12:24Z</time>
      </trkpt>
      <trkpt lat="49.19716" lon="6.9679">
        <ele>317</ele>
        <time>2012-01-22T08:12:25Z</time>
      </trkpt>
      <trkpt lat="49.19717" lon="6.96791">
        <ele>317</ele>
        <time>2012-01-22T08:12:27Z</time>
      </trkpt>
      <trkpt lat="49.1972" lon="6.96792">
        <ele>316</ele>
        <time>2012-01-22T08:12:28Z</time>
      </trkpt>
      <trkpt lat="49.19721" lon="6.96792">
        <ele>316</ele>
        <time>2012-01-22T08:12:29Z</time>
      </trkpt>
      <trkpt lat="49.19722" lon="6.96793">
        <ele>315</ele>
        <time>2012-01-22T08:12:30Z</time>
      </trkpt>
      <trkpt lat="49.19724" lon="6.96794">
        <ele>315</ele>
        <time>2012-01-22T08:12:33Z</time>
      </trkpt>
      <trkpt lat="49.19725" lon="6.96794">
        <ele>314</ele>
        <time>2012-01-22T08:12:34Z</time>
      </trkpt>
      <trkpt lat="49.19727" lon="6.96795">
        <ele>313</ele>
        <time>2012-01-22T08:12:35Z</time>
      </trkpt>
      <trkpt lat="49.19729" lon="6.96796">
        <ele>312</ele>
        <time>2012-01-22T08:12:37Z</time>
      </trkpt>
      <trkpt lat="49.19731" lon="6.96797">
        <ele>311</ele>
        <time>2012-01-22T08:12:39Z</time>
      </trkpt>
      <trkpt lat="49.19733" lon="6.96798">
        <ele>310</ele>
        <time>2012-01-22T08:12:41Z</time>
      </trkpt>
      <trkpt lat="49.19734" lon="6.96799">
        <ele>309</ele>
        <time>2012-01-22T08:12:43Z</time>
      </trkpt>
      <trkpt lat="49.19736" lon="6.96801">
        <ele>308</ele>
        <time>2012-01-22T08:12:45Z</time>
      </trkpt>
      <trkpt lat="49.19738" lon="6.96802">
        <ele>307</ele>
        <time>2012-01-22T08:12:47Z</time>
      </trkpt>
      <trkpt lat="49.19741" lon="6.96803">
        <ele>306</ele>
        <time>2012-01-22T08:12:49Z</time>
      </trkpt>
      <trkpt lat="49.19742" lon="6.96804">
        <ele>306</ele>
        <time>2012-01-22T08:12:51Z</time>
      </trkpt>
      <trkpt lat="49.19743" lon="6.96805">
        <ele>306</ele>
        <time>2012-01-22T08:12:51Z</time>
      </trkpt>
      <trkpt lat="49.19744" lon="6.96806">
        <ele>305</ele>
        <time>2012-01-22T08:12:52Z</time>
      </trkpt>
      <trkpt lat="49.19745" lon="6.96806">
        <ele>305</ele>
        <time>2012-01-22T08:12:53Z</time>
      </trkpt>
      <trkpt lat="49.19747" lon="6.96807">
        <ele>305</ele>
        <time>2012-01-22T08:12:55Z</time>
      </trkpt>
      <trkpt lat="49.19748" lon="6.96808">
        <ele>305</ele>
        <time>2012-01-22T08:12:55Z</time>
      </trkpt>
      <trkpt lat="49.19749" lon="6.96809">
        <ele>304</ele>
        <time>2012-01-22T08:12:56Z</time>
      </trkpt>
      <trkpt lat="49.19751" lon="6.96809">
        <ele>304</ele>
        <time>2012-01-22T08:12:57Z</time>
      </trkpt>
      <trkpt lat="49.19753" lon="6.96811">
        <ele>304</ele>
        <time>2012-01-22T08:12:59Z</time>
      </trkpt>
      <trkpt lat="49.19754" lon="6.96812">
        <ele>304</ele>
        <time>2012-01-22T08:13:01Z</time>
      </trkpt>
      <trkpt lat="49.19755" lon="6.96812">
        <ele>303</ele>
        <time>2012-01-22T08:13:01Z</time>
      </trkpt>
      <trkpt lat="49.19756" lon="6.96813">
        <ele>303</ele>
        <time>2012-01-22T08:13:03Z</time>
      </trkpt>
      <trkpt lat="49.19758" lon="6.96813">
        <ele>303</ele>
        <time>2012-01-22T08:13:04Z</time>
      </trkpt>
      <trkpt lat="49.19759" lon="6.96814">
        <ele>303</ele>
        <time>2012-01-22T08:13:04Z</time>
      </trkpt>
      <trkpt lat="49.1976" lon="6.96815">
        <ele>303</ele>
        <time>2012-01-22T08:13:05Z</time>
      </trkpt>
      <trkpt lat="49.19762" lon="6.96815">
        <ele>303</ele>
        <time>2012-01-22T08:13:07Z</time>
      </trkpt>
      <trkpt lat="49.19763" lon="6.96816">
        <ele>303</ele>
        <time>2012-01-22T08:13:08Z</time>
      </trkpt>
      <trkpt lat="49.19764" lon="6.96816">
        <ele>302</ele>
        <time>2012-01-22T08:13:08Z</time>
      </trkpt>
      <trkpt lat="49.19765" lon="6.96817">
        <ele>302</ele>
        <time>2012-01-22T08:13:09Z</time>
      </trkpt>
      <trkpt lat="49.19767" lon="6.96817">
        <ele>302</ele>
        <time>2012-01-22T08:13:10Z</time>
      </trkpt>
      <trkpt lat="49.19768" lon="6.96818">
        <ele>302</ele>
        <time>2012-01-22T08:13:12Z</time>
      </trkpt>
      <trkpt lat="49.1977" lon="6.96819">
        <ele>302</ele>
        <time>2012-01-22T08:13:12Z</time>
      </trkpt>
      <trkpt lat="49.19771" lon="6.96819">
        <ele>302</ele>
        <time>2012-01-22T08:13:13Z</time>
      </trkpt>
      <trkpt lat="49.19772" lon="6.9682">
        <ele>301</ele>
        <time>2012-01-22T08:13:15Z</time>
      </trkpt>
      <trkpt lat="49.19773" lon="6.9682">
        <ele>301</ele>
        <time>2012-01-22T08:13:16Z</time>
      </trkpt>
      <trkpt lat="49.19775" lon="6.9682">
        <ele>301</ele>
        <time>2012-01-22T08:13:17Z</time>
      </trkpt>
      <trkpt lat="49.19776" lon="6.96821">
        <ele>301</ele>
        <time>2012-01-22T08:13:18Z</time>
      </trkpt>
      <trkpt lat="49.19777" lon="6.96821">
        <ele>301</ele>
        <time>2012-01-22T08:13:19Z</time>
      </trkpt>
      <trkpt lat="49.19779" lon="6.96821">
        <ele>301</ele>
        <time>2012-01-22T08:13:19Z</time>
      </trkpt>
      <trkpt lat="49.1978" lon="6.96821">
        <ele>301</ele>
        <time>2012-01-22T08:13:21Z</time>
      </trkpt>
      <trkpt lat="49.19781" lon="6.96821">
        <ele>300</ele>
        <time>2012-01-22T08:13:21Z</time>
      </trkpt>
      <trkpt lat="49.19783" lon="6.96822">
        <ele>300</ele>
        <time>2012-01-22T08:13:23Z</time>
      </trkpt>
      <trkpt lat="49.19784" lon="6.96822">
        <ele>300</ele>
        <time>2012-01-22T08:13:24Z</time>
      </trkpt>
      <trkpt lat="49.19785" lon="6.96823">
        <ele>300</ele>
        <time>2012-01-22T08:13:25Z</time>
      </trkpt>
      <trkpt lat="49.19787" lon="6.96823">
        <ele>300</ele>
        <time>2012-01-22T08:13:25Z</time>
      </trkpt>
      <trkpt lat="49.19788" lon="6.96823">
        <ele>300</ele>
        <time>2012-01-22T08:13:27Z</time>
      </trkpt>
      <trkpt lat="49.1979" lon="6.96824">
        <ele>300</ele>
        <time>2012-01-22T08:13:28Z</time>
      </trkpt>
      <trkpt lat="49.19791" lon="6.96824">
        <ele>300</ele>
        <time>2012-01-22T08:13:28Z</time>
      </trkpt>
      <trkpt lat="49.19793" lon="6.96825">
        <ele>300</ele>
        <time>2012-01-22T08:13:29Z</time>
      </trkpt>
      <trkpt lat="49.19794" lon="6.96825">
        <ele>300</ele>
        <time>2012-01-22T08:13:31Z</time>
      </trkpt>
      <trkpt lat="49.19796" lon="6.96825">
        <ele>300</ele>
        <time>2012-01-22T08:13:32Z</time>
      </trkpt>
      <trkpt lat="49.19797" lon="6.96825">
        <ele>300</ele>
        <time>2012-01-22T08:13:33Z</time>
      </trkpt>
      <trkpt lat="49.19799" lon="6.96824">
        <ele>300</ele>
        <time>2012-01-22T08:13:34Z</time>
      </trkpt>
      <trkpt lat="49.198" lon="6.96824">
        <ele>300</ele>
        <time>2012-01-22T08:13:35Z</time>
      </trkpt>
      <trkpt lat="49.19801" lon="6.96824">
        <ele>300</ele>
        <time>2012-01-22T08:13:36Z</time>
      </trkpt>
      <trkpt lat="49.19803" lon="6.96824">
        <ele>300</ele>
        <time>2012-01-22T08:13:36Z</time>
      </trkpt>
      <trkpt lat="49.19804" lon="6.96824">
        <ele>300</ele>
        <time>2012-01-22T08:13:37Z</time>
      </trkpt>
      <trkpt lat="49.19806" lon="6.96824">
        <ele>300</ele>
        <time>2012-01-22T08:13:39Z</time>
      </trkpt>
      <trkpt lat="49.19807" lon="6.96824">
        <ele>300</ele>
        <time>2012-01-22T08:13:40Z</time>
      </trkpt>
      <trkpt lat="49.19808" lon="6.96824">
        <ele>300</ele>
        <time>2012-01-22T08:13:41Z</time>
      </trkpt>
      <trkpt lat="49.1981" lon="6.96825">
        <ele>300</ele>
        <time>2012-01-22T08:13:42Z</time>
      </trkpt>
      <trkpt lat="49.19811" lon="6.96825">
        <ele>300</ele>
        <time>2012-01-22T08:13:43Z</time>
      </trkpt>
      <trkpt lat="49.19812" lon="6.96825">
        <ele>300</ele>
        <time>2012-01-22T08:13:44Z</time>
      </trkpt>
      <trkpt lat="49.19813" lon="6.96825">
        <ele>300</ele>
        <time>2012-01-22T08:13:45Z</time>
      </trkpt>
      <trkpt lat="49.19815" lon="6.96825">
        <ele>300</ele>
        <time>2012-01-22T08:13:47Z</time>
      </trkpt>
      <trkpt lat="49.19817" lon="6.96825">
        <ele>300</ele>
        <time>2012-01-22T08:13:48Z</time>
      </trkpt>
      <trkpt lat="49.19818" lon="6.96825">
        <ele>300</ele>
        <time>2012-01-22T08:13:49Z</time>
      </trkpt>
      <trkpt lat="49.19819" lon="6.96826">
        <ele>300</ele>
        <time>2012-01-22T08:13:49Z</time>
      </trkpt>
      <trkpt lat="49.1982" lon="6.96826">
        <ele>300</ele>
        <time>2012-01-22T08:13:51Z</time>
      </trkpt>
      <trkpt lat="49.19822" lon="6.96826">
        <ele>300</ele>
        <time>2012-01-22T08:13:52Z</time>
      </trkpt>
      <trkpt lat="49.19823" lon="6.96826">
        <ele>300</ele>
        <time>2012-01-22T08:13:52Z</time>
      </trkpt>
      <trkpt lat="49.19825" lon="6.96826">
        <ele>300</ele>
        <time>2012-01-22T08:13:54Z</time>
      </trkpt>
      <trkpt lat="49.19826" lon="6.96826">
        <ele>300</ele>
        <time>2012-01-22T08:13:55Z</time>
      </trkpt>
      <trkpt lat="49.19827" lon="6.96827">
        <ele>300</ele>
        <time>2012-01-22T08:13:56Z</time>
      </trkpt>
      <trkpt lat="49.19829" lon="6.96827">
        <ele>300</ele>
        <time>2012-01-22T08:13:56Z</time>
      </trkpt>
      <trkpt lat="49.19831" lon="6.96827">
        <ele>300</ele>
        <time>2012-01-22T08:13:57Z</time>
      </trkpt>
      <trkpt lat="49.19832" lon="6.96827">
        <ele>300</ele>
        <time>2012-01-22T08:13:59Z</time>
      </trkpt>
      <trkpt lat="49.19833" lon="6.96827">
        <ele>300</ele>
        <time>2012-01-22T08:14:00Z</time>
      </trkpt>
      <trkpt lat="49.19835" lon="6.96828">
        <ele>300</ele>
        <time>2012-01-22T08:14:00Z</time>
      </trkpt>
      <trkpt lat="49.19836" lon="6.96828">
        <ele>300</ele>
        <time>2012-01-22T08:14:02Z</time>
      </trkpt>
      <trkpt lat="49.19838" lon="6.96828">
        <ele>300</ele>
        <time>2012-01-22T08:14:03Z</time>
      </trkpt>
      <trkpt lat="49.19839" lon="6.96827">
        <ele>300</ele>
        <time>2012-01-22T08:14:04Z</time>
      </trkpt>
      <trkpt lat="49.19841" lon="6.96827">
        <ele>300</ele>
        <time>2012-01-22T08:14:05Z</time>
      </trkpt>
      <trkpt lat="49.19843" lon="6.96827">
        <ele>300</ele>
        <time>2012-01-22T08:14:06Z</time>
      </trkpt>
      <trkpt lat="49.19844" lon="6.96826">
        <ele>300</ele>
        <time>2012-01-22T08:14:07Z</time>
      </trkpt>
      <trkpt lat="49.19846" lon="6.96825">
        <ele>300</ele>
        <time>2012-01-22T08:14:08Z</time>
      </trkpt>
      <trkpt lat="49.19847" lon="6.96824">
        <ele>300</ele>
        <time>2012-01-22T08:14:09Z</time>
      </trkpt>
      <trkpt lat="49.19848" lon="6.96823">
        <ele>300</ele>
        <time>2012-01-22T08:14:10Z</time>
      </trkpt>
      <trkpt lat="49.1985" lon="6.96821">
        <ele>300</ele>
        <time>2012-01-22T08:14:12Z</time>
      </trkpt>
      <trkpt lat="49.19852" lon="6.96818">
        <ele>300</ele>
        <time>2012-01-22T08:14:13Z</time>
      </trkpt>
      <trkpt lat="49.19854" lon="6.96815">
        <ele>300</ele>
        <time>2012-01-22T08:14:16Z</time>
      </trkpt>
      <trkpt lat="49.19855" lon="6.96812">
        <ele>300</ele>
        <time>2012-01-22T08:14:18Z</time>
      </trkpt>
      <trkpt lat="49.19856" lon="6.96809">
        <ele>300</ele>
        <time>2012-01-22T08:14:20Z</time>
      </trkpt>
      <trkpt lat="49.19858" lon="6.96806">
        <ele>300</ele>
        <time>2012-01-22T08:14:22Z</time>
      </trkpt>
      <trkpt lat="49.19859" lon="6.96805">
        <ele>300</ele>
        <time>2012-01-22T08:14:23Z</time>
      </trkpt>
      <trkpt lat="49.1986" lon="6.96801">
        <ele>300</ele>
        <time>2012-01-22T08:14:25Z</time>
      </trkpt>
      <trkpt lat="49.1986" lon="6.96799">
        <ele>300</ele>
        <time>2012-01-22T08:14:26Z</time>
      </trkpt>
      <trkpt lat="49.1986" lon="6.96797">
        <ele>300</ele>
        <time>2012-01-22T08:14:27Z</time>
      </trkpt>
      <trkpt lat="49.19861" lon="6.96794">
        <ele>300</ele>
        <time>2012-01-22T08:14:29Z</time>
      </trkpt>
      <trkpt lat="49.19861" lon="6.96792">
        <ele>300</ele>
        <time>2012-01-22T08:14:30Z</time>
      </trkpt>
      <trkpt lat="49.19862" lon="6.96789">
        <ele>300</ele>
        <time>2012-01-22T08:14:32Z</time>
      </trkpt>
      <trkpt lat="49.19863" lon="6.96788">
        <ele>300</ele>
        <time>2012-01-22T08:14:33Z</time>
      </trkpt>
      <trkpt lat="49.19863" lon="6.96785">
        <ele>300</ele>
        <time>2012-01-22T08:14:35Z</time>
      </trkpt>
      <trkpt lat="49.19864" lon="6.96782">
        <ele>300</ele>
        <time>2012-01-22T08:14:37Z</time>
      </trkpt>
      <trkpt lat="49.19865" lon="6.96779">
        <ele>300</ele>
        <time>2012-01-22T08:14:39Z</time>
      </trkpt>
      <trkpt lat="49.19867" lon="6.96775">
        <ele>300</ele>
        <time>2012-01-22T08:14:41Z</time>
      </trkpt>
      <trkpt lat="49.19868" lon="6.96772">
        <ele>300</ele>
        <time>2012-01-22T08:14:42Z</time>
      </trkpt>
      <trkpt lat="49.19869" lon="6.9677">
        <ele>300</ele>
        <time>2012-01-22T08:14:45Z</time>
      </trkpt>
      <trkpt lat="49.1987" lon="6.96767">
        <ele>300</ele>
        <time>2012-01-22T08:14:47Z</time>
      </trkpt>
      <trkpt lat="49.19871" lon="6.96765">
        <ele>300</ele>
        <time>2012-01-22T08:14:49Z</time>
      </trkpt>
      <trkpt lat="49.19872" lon="6.96762">
        <ele>300</ele>
        <time>2012-01-22T08:14:51Z</time>
      </trkpt>
      <trkpt lat="49.19873" lon="6.9676">
        <ele>300</ele>
        <time>2012-01-22T08:14:52Z</time>
      </trkpt>
      <trkpt lat="49.19875" lon="6.96757">
        <ele>300</ele>
        <time>2012-01-22T08:14:55Z</time>
      </trkpt>
      <trkpt lat="49.19875" lon="6.96754">
        <ele>299</ele>
        <time>2012-01-22T08:14:57Z</time>
      </trkpt>
      <trkpt lat="49.19876" lon="6.96751">
        <ele>299</ele>
        <time>2012-01-22T08:14:59Z</time>
      </trkpt>
      <trkpt lat="49.19877" lon="6.96748">
        <ele>298</ele>
        <time>2012-01-22T08:15:01Z</time>
      </trkpt>
      <trkpt lat="49.19878" lon="6.96747">
        <ele>298</ele>
        <time>2012-01-22T08:15:02Z</time>
      </trkpt>
      <trkpt lat="49.19878" lon="6.96744">
        <ele>298</ele>
        <time>2012-01-22T08:15:04Z</time>
      </trkpt>
      <trkpt lat="49.19879" lon="6.96742">
        <ele>298</ele>
        <time>2012-01-22T08:15:05Z</time>
      </trkpt>
      <trkpt lat="49.19879" lon="6.9674">
        <ele>298</ele>
        <time>2012-01-22T08:15:05Z</time>
      </trkpt>
      <trkpt lat="49.19879" lon="6.96738">
        <ele>298</ele>
        <time>2012-01-22T08:15:07Z</time>
      </trkpt>
      <trkpt lat="49.19879" lon="6.96736">
        <ele>298</ele>
        <time>2012-01-22T08:15:08Z</time>
      </trkpt>
      <trkpt lat="49.19879" lon="6.96735">
        <ele>298</ele>
        <time>2012-01-22T08:15:09Z</time>
      </trkpt>
      <trkpt lat="49.1988" lon="6.96733">
        <ele>298</ele>
        <time>2012-01-22T08:15:10Z</time>
      </trkpt>
      <trkpt lat="49.1988" lon="6.96729">
        <ele>298</ele>
        <time>2012-01-22T08:15:12Z</time>
      </trkpt>
      <trkpt lat="49.1988" lon="6.96728">
        <ele>298</ele>
        <time>2012-01-22T08:15:12Z</time>
      </trkpt>
      <trkpt lat="49.1988" lon="6.96726">
        <ele>298</ele>
        <time>2012-01-22T08:15:14Z</time>
      </trkpt>
      <trkpt lat="49.19881" lon="6.96724">
        <ele>298</ele>
        <time>2012-01-22T08:15:15Z</time>
      </trkpt>
      <trkpt lat="49.19881" lon="6.9672">
        <ele>298</ele>
        <time>2012-01-22T08:15:17Z</time>
      </trkpt>
      <trkpt lat="49.19881" lon="6.96716">
        <ele>298</ele>
        <time>2012-01-22T08:15:19Z</time>
      </trkpt>
      <trkpt lat="49.19881" lon="6.96714">
        <ele>298</ele>
        <time>2012-01-22T08:15:20Z</time>
      </trkpt>
      <trkpt lat="49.19881" lon="6.96711">
        <ele>298</ele>
        <time>2012-01-22T08:15:21Z</time>
      </trkpt>
      <trkpt lat="49.19881" lon="6.96709">
        <ele>299</ele>
        <time>2012-01-22T08:15:22Z</time>
      </trkpt>
      <trkpt lat="49.19881" lon="6.96707">
        <ele>300</ele>
        <time>2012-01-22T08:15:23Z</time>
      </trkpt>
      <trkpt lat="49.19882" lon="6.96703">
        <ele>302</ele>
        <time>2012-01-22T08:15:24Z</time>
      </trkpt>
      <trkpt lat="49.19883" lon="6.96702">
        <ele>303</ele>
        <time>2012-01-22T08:15:26Z</time>
      </trkpt>
      <trkpt lat="49.19885" lon="6.96699">
        <ele>305</ele>
        <time>2012-01-22T08:15:28Z</time>
      </trkpt>
      <trkpt lat="49.19887" lon="6.96698">
        <ele>307</ele>
        <time>2012-01-22T08:15:30Z</time>
      </trkpt>
      <trkpt lat="49.19888" lon="6.96697">
        <ele>308</ele>
        <time>2012-01-22T08:15:31Z</time>
      </trkpt>
      <trkpt lat="49.1989" lon="6.96696">
        <ele>308</ele>
        <time>2012-01-22T08:15:32Z</time>
      </trkpt>
      <trkpt lat="49.19891" lon="6.96695">
        <ele>309</ele>
        <time>2012-01-22T08:15:34Z</time>
      </trkpt>
      <trkpt lat="49.19893" lon="6.96695">
        <ele>309</ele>
        <time>2012-01-22T08:15:35Z</time>
      </trkpt>
      <trkpt lat="49.19894" lon="6.96694">
        <ele>309</ele>
        <time>2012-01-22T08:15:36Z</time>
      </trkpt>
      <trkpt lat="49.19895" lon="6.96694">
        <ele>309</ele>
        <time>2012-01-22T08:15:37Z</time>
      </trkpt>
      <trkpt lat="49.19896" lon="6.96693">
        <ele>309</ele>
        <time>2012-01-22T08:15:39Z</time>
      </trkpt>
      <trkpt lat="49.19898" lon="6.96693">
        <ele>310</ele>
        <time>2012-01-22T08:15:40Z</time>
      </trkpt>
      <trkpt lat="49.199" lon="6.96694">
        <ele>310</ele>
        <time>2012-01-22T08:15:43Z</time>
      </trkpt>
      <trkpt lat="49.19901" lon="6.96695">
        <ele>311</ele>
        <time>2012-01-22T08:15:44Z</time>
      </trkpt>
      <trkpt lat="49.19902" lon="6.96695">
        <ele>311</ele>
        <time>2012-01-22T08:15:45Z</time>
      </trkpt>
      <trkpt lat="49.19905" lon="6.96695">
        <ele>311</ele>
        <time>2012-01-22T08:15:47Z</time>
      </trkpt>
      <trkpt lat="49.19906" lon="6.96695">
        <ele>311</ele>
        <time>2012-01-22T08:15:47Z</time>
      </trkpt>
      <trkpt lat="49.19907" lon="6.96695">
        <ele>311</ele>
        <time>2012-01-22T08:15:49Z</time>
      </trkpt>
      <trkpt lat="49.1991" lon="6.96694">
        <ele>311</ele>
        <time>2012-01-22T08:15:51Z</time>
      </trkpt>
      <trkpt lat="49.19911" lon="6.96694">
        <ele>311</ele>
        <time>2012-01-22T08:15:52Z</time>
      </trkpt>
      <trkpt lat="49.19912" lon="6.96694">
        <ele>311</ele>
        <time>2012-01-22T08:15:52Z</time>
      </trkpt>
      <trkpt lat="49.19915" lon="6.96694">
        <ele>311</ele>
        <time>2012-01-22T08:15:55Z</time>
      </trkpt>
      <trkpt lat="49.19916" lon="6.96694">
        <ele>312</ele>
        <time>2012-01-22T08:15:55Z</time>
      </trkpt>
      <trkpt lat="49.19918" lon="6.96694">
        <ele>312</ele>
        <time>2012-01-22T08:15:57Z</time>
      </trkpt>
      <trkpt lat="49.19919" lon="6.96694">
        <ele>312</ele>
        <time>2012-01-22T08:15:57Z</time>
      </trkpt>
      <trkpt lat="49.19921" lon="6.96694">
        <ele>312</ele>
        <time>2012-01-22T08:15:59Z</time>
      </trkpt>
      <trkpt lat="49.19922" lon="6.96694">
        <ele>312</ele>
        <time>2012-01-22T08:15:59Z</time>
      </trkpt>
      <trkpt lat="49.19924" lon="6.96694">
        <ele>312</ele>
        <time>2012-01-22T08:16:01Z</time>
      </trkpt>
      <trkpt lat="49.19925" lon="6.96694">
        <ele>312</ele>
        <time>2012-01-22T08:16:01Z</time>
      </trkpt>
      <trkpt lat="49.19926" lon="6.96694">
        <ele>313</ele>
        <time>2012-01-22T08:16:03Z</time>
      </trkpt>
      <trkpt lat="49.19928" lon="6.96694">
        <ele>313</ele>
        <time>2012-01-22T08:16:04Z</time>
      </trkpt>
      <trkpt lat="49.19929" lon="6.96694">
        <ele>313</ele>
        <time>2012-01-22T08:16:05Z</time>
      </trkpt>
      <trkpt lat="49.19931" lon="6.96693">
        <ele>314</ele>
        <time>2012-01-22T08:16:07Z</time>
      </trkpt>
      <trkpt lat="49.19932" lon="6.96693">
        <ele>314</ele>
        <time>2012-01-22T08:16:08Z</time>
      </trkpt>
      <trkpt lat="49.19933" lon="6.96693">
        <ele>314</ele>
        <time>2012-01-22T08:16:08Z</time>
      </trkpt>
      <trkpt lat="49.19935" lon="6.96693">
        <ele>315</ele>
        <time>2012-01-22T08:16:10Z</time>
      </trkpt>
      <trkpt lat="49.19936" lon="6.96692">
        <ele>315</ele>
        <time>2012-01-22T08:16:11Z</time>
      </trkpt>
      <trkpt lat="49.19937" lon="6.96692">
        <ele>315</ele>
        <time>2012-01-22T08:16:12Z</time>
      </trkpt>
      <trkpt lat="49.19939" lon="6.96692">
        <ele>315</ele>
        <time>2012-01-22T08:16:13Z</time>
      </trkpt>
      <trkpt lat="49.1994" lon="6.96692">
        <ele>315</ele>
        <time>2012-01-22T08:16:13Z</time>
      </trkpt>
      <trkpt lat="49.19941" lon="6.96692">
        <ele>315</ele>
        <time>2012-01-22T08:16:15Z</time>
      </trkpt>
      <trkpt lat="49.19942" lon="6.96691">
        <ele>315</ele>
        <time>2012-01-22T08:16:16Z</time>
      </trkpt>
      <trkpt lat="49.19944" lon="6.96691">
        <ele>315</ele>
        <time>2012-01-22T08:16:17Z</time>
      </trkpt>
      <trkpt lat="49.19945" lon="6.96691">
        <ele>315</ele>
        <time>2012-01-22T08:16:17Z</time>
      </trkpt>
      <trkpt lat="49.19946" lon="6.96692">
        <ele>315</ele>
        <time>2012-01-22T08:16:19Z</time>
      </trkpt>
      <trkpt lat="49.19947" lon="6.96692">
        <ele>315</ele>
        <time>2012-01-22T08:16:20Z</time>
      </trkpt>
      <trkpt lat="49.19948" lon="6.96692">
        <ele>315</ele>
        <time>2012-01-22T08:16:21Z</time>
      </trkpt>
      <trkpt lat="49.19949" lon="6.96692">
        <ele>315</ele>
        <time>2012-01-22T08:16:22Z</time>
      </trkpt>
      <trkpt lat="49.19951" lon="6.96692">
        <ele>315</ele>
        <time>2012-01-22T08:16:23Z</time>
      </trkpt>
      <trkpt lat="49.19952" lon="6.96692">
        <ele>315</ele>
        <time>2012-01-22T08:16:23Z</time>
      </trkpt>
      <trkpt lat="49.19954" lon="6.96692">
        <ele>315</ele>
        <time>2012-01-22T08:16:25Z</time>
      </trkpt>
      <trkpt lat="49.19955" lon="6.96692">
        <ele>315</ele>
        <time>2012-01-22T08:16:25Z</time>
      </trkpt>
      <trkpt lat="49.19957" lon="6.96692">
        <ele>315</ele>
        <time>2012-01-22T08:16:27Z</time>
      </trkpt>
      <trkpt lat="49.19958" lon="6.96692">
        <ele>315</ele>
        <time>2012-01-22T08:16:28Z</time>
      </trkpt>
      <trkpt lat="49.19959" lon="6.96691">
        <ele>315</ele>
        <time>2012-01-22T08:16:29Z</time>
      </trkpt>
      <trkpt lat="49.19961" lon="6.96691">
        <ele>315</ele>
        <time>2012-01-22T08:16:30Z</time>
      </trkpt>
      <trkpt lat="49.19962" lon="6.96691">
        <ele>315</ele>
        <time>2012-01-22T08:16:31Z</time>
      </trkpt>
      <trkpt lat="49.19963" lon="6.96691">
        <ele>315</ele>
        <time>2012-01-22T08:16:31Z</time>
      </trkpt>
      <trkpt lat="49.19964" lon="6.96691">
        <ele>315</ele>
        <time>2012-01-22T08:16:32Z</time>
      </trkpt>
      <trkpt lat="49.19966" lon="6.96691">
        <ele>315</ele>
        <time>2012-01-22T08:16:35Z</time>
      </trkpt>
      <trkpt lat="49.19968" lon="6.96691">
        <ele>315</ele>
        <time>2012-01-22T08:16:36Z</time>
      </trkpt>
      <trkpt lat="49.19969" lon="6.96691">
        <ele>315</ele>
        <time>2012-01-22T08:16:36Z</time>
      </trkpt>
      <trkpt lat="49.1997" lon="6.96691">
        <ele>315</ele>
        <time>2012-01-22T08:16:38Z</time>
      </trkpt>
      <trkpt lat="49.19971" lon="6.96692">
        <ele>315</ele>
        <time>2012-01-22T08:16:39Z</time>
      </trkpt>
      <trkpt lat="49.19973" lon="6.96692">
        <ele>315</ele>
        <time>2012-01-22T08:16:40Z</time>
      </trkpt>
      <trkpt lat="49.19975" lon="6.96692">
        <ele>316</ele>
        <time>2012-01-22T08:16:40Z</time>
      </trkpt>
      <trkpt lat="49.19976" lon="6.96691">
        <ele>316</ele>
        <time>2012-01-22T08:16:42Z</time>
      </trkpt>
      <trkpt lat="49.19977" lon="6.96691">
        <ele>317</ele>
        <time>2012-01-22T08:16:43Z</time>
      </trkpt>
      <trkpt lat="49.19978" lon="6.96691">
        <ele>317</ele>
        <time>2012-01-22T08:16:44Z</time>
      </trkpt>
      <trkpt lat="49.19979" lon="6.96691">
        <ele>318</ele>
        <time>2012-01-22T08:16:45Z</time>
      </trkpt>
      <trkpt lat="49.19981" lon="6.9669">
        <ele>318</ele>
        <time>2012-01-22T08:16:46Z</time>
      </trkpt>
      <trkpt lat="49.19983" lon="6.9669">
        <ele>318</ele>
        <time>2012-01-22T08:16:47Z</time>
      </trkpt>
      <trkpt lat="49.19984" lon="6.96691">
        <ele>319</ele>
        <time>2012-01-22T08:16:47Z</time>
      </trkpt>
      <trkpt lat="49.19986" lon="6.96691">
        <ele>319</ele>
        <time>2012-01-22T08:16:49Z</time>
      </trkpt>
      <trkpt lat="49.19987" lon="6.96691">
        <ele>319</ele>
        <time>2012-01-22T08:16:50Z</time>
      </trkpt>
      <trkpt lat="49.19989" lon="6.96692">
        <ele>319</ele>
        <time>2012-01-22T08:16:50Z</time>
      </trkpt>
      <trkpt lat="49.1999" lon="6.96693">
        <ele>319</ele>
        <time>2012-01-22T08:16:52Z</time>
      </trkpt>
      <trkpt lat="49.19991" lon="6.96694">
        <ele>319</ele>
        <time>2012-01-22T08:16:52Z</time>
      </trkpt>
      <trkpt lat="49.19992" lon="6.96696">
        <ele>319</ele>
        <time>2012-01-22T08:16:54Z</time>
      </trkpt>
      <trkpt lat="49.19993" lon="6.96697">
        <ele>319</ele>
        <time>2012-01-22T08:16:55Z</time>
      </trkpt>
      <trkpt lat="49.19994" lon="6.96699">
        <ele>319</ele>
        <time>2012-01-22T08:16:55Z</time>
      </trkpt>
      <trkpt lat="49.19995" lon="6.96701">
        <ele>319</ele>
        <time>2012-01-22T08:16:56Z</time>
      </trkpt>
      <trkpt lat="49.19995" lon="6.96703">
        <ele>319</ele>
        <time>2012-01-22T08:16:58Z</time>
      </trkpt>
      <trkpt lat="49.19996" lon="6.96705">
        <ele>319</ele>
        <time>2012-01-22T08:16:59Z</time>
      </trkpt>
      <trkpt lat="49.19997" lon="6.96706">
        <ele>319</ele>
        <time>2012-01-22T08:17:00Z</time>
      </trkpt>
      <trkpt lat="49.19997" lon="6.96708">
        <ele>319</ele>
        <time>2012-01-22T08:17:01Z</time>
      </trkpt>
      <trkpt lat="49.19998" lon="6.9671">
        <ele>319</ele>
        <time>2012-01-22T08:17:02Z</time>
      </trkpt>
      <trkpt lat="49.19999" lon="6.96712">
        <ele>319</ele>
        <time>2012-01-22T08:17:03Z</time>
      </trkpt>
      <trkpt lat="49.19999" lon="6.96713">
        <ele>319</ele>
        <time>2012-01-22T08:17:04Z</time>
      </trkpt>
      <trkpt lat="49.2" lon="6.96715">
        <ele>319</ele>
        <time>2012-01-22T08:17:05Z</time>
      </trkpt>
      <trkpt lat="49.2" lon="6.96717">
        <ele>319</ele>
        <time>2012-01-22T08:17:06Z</time>
      </trkpt>
      <trkpt lat="49.20001" lon="6.96719">
        <ele>319</ele>
        <time>2012-01-22T08:17:07Z</time>
      </trkpt>
      <trkpt lat="49.20001" lon="6.96721">
        <ele>319</ele>
        <time>2012-01-22T08:17:08Z</time>
      </trkpt>
      <trkpt lat="49.20002" lon="6.96723">
        <ele>319</ele>
        <time>2012-01-22T08:17:08Z</time>
      </trkpt>
      <trkpt lat="49.20002" lon="6.96725">
        <ele>319</ele>
        <time>2012-01-22T08:17:10Z</time>
      </trkpt>
      <trkpt lat="49.20003" lon="6.96727">
        <ele>319</ele>
        <time>2012-01-22T08:17:11Z</time>
      </trkpt>
      <trkpt lat="49.20004" lon="6.96729">
        <ele>319</ele>
        <time>2012-01-22T08:17:12Z</time>
      </trkpt>
      <trkpt lat="49.20004" lon="6.96731">
        <ele>319</ele>
        <time>2012-01-22T08:17:13Z</time>
      </trkpt>
      <trkpt lat="49.20005" lon="6.96732">
        <ele>319</ele>
        <time>2012-01-22T08:17:14Z</time>
      </trkpt>
      <trkpt lat="49.20005" lon="6.96734">
        <ele>319</ele>
        <time>2012-01-22T08:17:15Z</time>
      </trkpt>
      <trkpt lat="49.20006" lon="6.96736">
        <ele>319</ele>
        <time>2012-01-22T08:17:16Z</time>
      </trkpt>
      <trkpt lat="49.20006" lon="6.96738">
        <ele>319</ele>
        <time>2012-01-22T08:17:17Z</time>
      </trkpt>
      <trkpt lat="49.20007" lon="6.9674">
        <ele>319</ele>
        <time>2012-01-22T08:17:18Z</time>
      </trkpt>
      <trkpt lat="49.20007" lon="6.96741">
        <ele>319</ele>
        <time>2012-01-22T08:17:19Z</time>
      </trkpt>
      <trkpt lat="49.20008" lon="6.96743">
        <ele>319</ele>
        <time>2012-01-22T08:17:20Z</time>
      </trkpt>
      <trkpt lat="49.2001" lon="6.96746">
        <ele>319</ele>
        <time>2012-01-22T08:17:22Z</time>
      </trkpt>
      <trkpt lat="49.20011" lon="6.96749">
        <ele>319</ele>
        <time>2012-01-22T08:17:23Z</time>
      </trkpt>
      <trkpt lat="49.20013" lon="6.9675">
        <ele>319</ele>
        <time>2012-01-22T08:17:25Z</time>
      </trkpt>
      <trkpt lat="49.20013" lon="6.96752">
        <ele>319</ele>
        <time>2012-01-22T08:17:26Z</time>
      </trkpt>
      <trkpt lat="49.20014" lon="6.96754">
        <ele>319</ele>
        <time>2012-01-22T08:17:27Z</time>
      </trkpt>
      <trkpt lat="49.20015" lon="6.96756">
        <ele>319</ele>
        <time>2012-01-22T08:17:28Z</time>
      </trkpt>
      <trkpt lat="49.20015" lon="6.96758">
        <ele>319</ele>
        <time>2012-01-22T08:17:29Z</time>
      </trkpt>
      <trkpt lat="49.20016" lon="6.96761">
        <ele>319</ele>
        <time>2012-01-22T08:17:31Z</time>
      </trkpt>
      <trkpt lat="49.20017" lon="6.96763">
        <ele>319</ele>
        <time>2012-01-22T08:17:32Z</time>
      </trkpt>
      <trkpt lat="49.20018" lon="6.96766">
        <ele>319</ele>
        <time>2012-01-22T08:17:34Z</time>
      </trkpt>
      <trkpt lat="49.20018" lon="6.96767">
        <ele>319</ele>
        <time>2012-01-22T08:17:35Z</time>
      </trkpt>
      <trkpt lat="49.20018" lon="6.9677">
        <ele>319</ele>
        <time>2012-01-22T08:17:37Z</time>
      </trkpt>
      <trkpt lat="49.20018" lon="6.96773">
        <ele>319</ele>
        <time>2012-01-22T08:17:39Z</time>
      </trkpt>
      <trkpt lat="49.20019" lon="6.96774">
        <ele>319</ele>
        <time>2012-01-22T08:17:40Z</time>
      </trkpt>
      <trkpt lat="49.20019" lon="6.96778">
        <ele>317</ele>
        <time>2012-01-22T08:17:42Z</time>
      </trkpt>
      <trkpt lat="49.2002" lon="6.9678">
        <ele>317</ele>
        <time>2012-01-22T08:17:44Z</time>
      </trkpt>
      <trkpt lat="49.2002" lon="6.96783">
        <ele>316</ele>
        <time>2012-01-22T08:17:46Z</time>
      </trkpt>
      <trkpt lat="49.20021" lon="6.96785">
        <ele>315</ele>
        <time>2012-01-22T08:17:47Z</time>
      </trkpt>
      <trkpt lat="49.20021" lon="6.96787">
        <ele>315</ele>
        <time>2012-01-22T08:17:48Z</time>
      </trkpt>
      <trkpt lat="49.20022" lon="6.9679">
        <ele>313</ele>
        <time>2012-01-22T08:17:51Z</time>
      </trkpt>
      <trkpt lat="49.20023" lon="6.96792">
        <ele>313</ele>
        <time>2012-01-22T08:17:52Z</time>
      </trkpt>
      <trkpt lat="49.20023" lon="6.96794">
        <ele>312</ele>
        <time>2012-01-22T08:17:53Z</time>
      </trkpt>
      <trkpt lat="49.20023" lon="6.96796">
        <ele>312</ele>
        <time>2012-01-22T08:17:54Z</time>
      </trkpt>
      <trkpt lat="49.20024" lon="6.96798">
        <ele>312</ele>
        <time>2012-01-22T08:17:55Z</time>
      </trkpt>
      <trkpt lat="49.20024" lon="6.968">
        <ele>311</ele>
        <time>2012-01-22T08:17:55Z</time>
      </trkpt>
      <trkpt lat="49.20024" lon="6.96802">
        <ele>311</ele>
        <time>2012-01-22T08:17:57Z</time>
      </trkpt>
      <trkpt lat="49.20025" lon="6.96804">
        <ele>311</ele>
        <time>2012-01-22T08:17:58Z</time>
      </trkpt>
      <trkpt lat="49.20026" lon="6.96807">
        <ele>311</ele>
        <time>2012-01-22T08:17:59Z</time>
      </trkpt>
      <trkpt lat="49.20028" lon="6.9681">
        <ele>311</ele>
        <time>2012-01-22T08:18:00Z</time>
      </trkpt>
      <trkpt lat="49.20029" lon="6.96812">
        <ele>311</ele>
        <time>2012-01-22T08:18:01Z</time>
      </trkpt>
      <trkpt lat="49.2003" lon="6.96815">
        <ele>311</ele>
        <time>2012-01-22T08:18:02Z</time>
      </trkpt>
      <trkpt lat="49.20031" lon="6.96817">
        <ele>311</ele>
        <time>2012-01-22T08:18:03Z</time>
      </trkpt>
      <trkpt lat="49.20032" lon="6.96819">
        <ele>312</ele>
        <time>2012-01-22T08:18:03Z</time>
      </trkpt>
      <trkpt lat="49.20033" lon="6.96821">
        <ele>313</ele>
        <time>2012-01-22T08:18:05Z</time>
      </trkpt>
      <trkpt lat="49.20034" lon="6.96823">
        <ele>313</ele>
        <time>2012-01-22T08:18:06Z</time>
      </trkpt>
      <trkpt lat="49.20035" lon="6.96825">
        <ele>314</ele>
        <time>2012-01-22T08:18:07Z</time>
      </trkpt>
      <trkpt lat="49.20036" lon="6.96827">
        <ele>315</ele>
        <time>2012-01-22T08:18:07Z</time>
      </trkpt>
      <trkpt lat="49.20036" lon="6.96829">
        <ele>316</ele>
        <time>2012-01-22T08:18:09Z</time>
      </trkpt>
      <trkpt lat="49.20037" lon="6.96832">
        <ele>317</ele>
        <time>2012-01-22T08:18:11Z</time>
      </trkpt>
      <trkpt lat="49.20039" lon="6.96834">
        <ele>318</ele>
        <time>2012-01-22T08:18:13Z</time>
      </trkpt>
      <trkpt lat="49.20041" lon="6.96838">
        <ele>319</ele>
        <time>2012-01-22T08:18:15Z</time>
      </trkpt>
      <trkpt lat="49.20042" lon="6.9684">
        <ele>320</ele>
        <time>2012-01-22T08:18:16Z</time>
      </trkpt>
      <trkpt lat="49.20043" lon="6.96842">
        <ele>320</ele>
        <time>2012-01-22T08:18:17Z</time>
      </trkpt>
      <trkpt lat="49.20044" lon="6.96844">
        <ele>321</ele>
        <time>2012-01-22T08:18:18Z</time>
      </trkpt>
      <trkpt lat="49.20044" lon="6.96847">
        <ele>321</ele>
        <time>2012-01-22T08:18:19Z</time>
      </trkpt>
      <trkpt lat="49.20044" lon="6.96849">
        <ele>321</ele>
        <time>2012-01-22T08:18:20Z</time>
      </trkpt>
      <trkpt lat="49.20044" lon="6.96851">
        <ele>321</ele>
        <time>2012-01-22T08:18:21Z</time>
      </trkpt>
      <trkpt lat="49.20045" lon="6.96854">
        <ele>321</ele>
        <time>2012-01-22T08:18:23Z</time>
      </trkpt>
      <trkpt lat="49.20045" lon="6.96857">
        <ele>321</ele>
        <time>2012-01-22T08:18:25Z</time>
      </trkpt>
      <trkpt lat="49.20046" lon="6.96859">
        <ele>321</ele>
        <time>2012-01-22T08:18:26Z</time>
      </trkpt>
      <trkpt lat="49.20046" lon="6.96861">
        <ele>321</ele>
        <time>2012-01-22T08:18:27Z</time>
      </trkpt>
      <trkpt lat="49.20046" lon="6.96862">
        <ele>320</ele>
        <time>2012-01-22T08:18:28Z</time>
      </trkpt>
      <trkpt lat="49.20046" lon="6.96865">
        <ele>319</ele>
        <time>2012-01-22T08:18:30Z</time>
      </trkpt>
      <trkpt lat="49.20047" lon="6.96866">
        <ele>319</ele>
        <time>2012-01-22T08:18:31Z</time>
      </trkpt>
      <trkpt lat="49.20047" lon="6.96869">
        <ele>317</ele>
        <time>2012-01-22T08:18:33Z</time>
      </trkpt>
      <trkpt lat="49.20047" lon="6.96871">
        <ele>317</ele>
        <time>2012-01-22T08:18:34Z</time>
      </trkpt>
      <trkpt lat="49.20047" lon="6.96873">
        <ele>316</ele>
        <time>2012-01-22T08:18:34Z</time>
      </trkpt>
      <trkpt lat="49.20048" lon="6.96876">
        <ele>315</ele>
        <time>2012-01-22T08:18:37Z</time>
      </trkpt>
      <trkpt lat="49.20049" lon="6.96879">
        <ele>314</ele>
        <time>2012-01-22T08:18:39Z</time>
      </trkpt>
      <trkpt lat="49.20049" lon="6.96881">
        <ele>313</ele>
        <time>2012-01-22T08:18:40Z</time>
      </trkpt>
      <trkpt lat="49.20049" lon="6.96883">
        <ele>312</ele>
        <time>2012-01-22T08:18:41Z</time>
      </trkpt>
      <trkpt lat="49.2005" lon="6.96886">
        <ele>310</ele>
        <time>2012-01-22T08:18:43Z</time>
      </trkpt>
      <trkpt lat="49.20052" lon="6.96889">
        <ele>309</ele>
        <time>2012-01-22T08:18:45Z</time>
      </trkpt>
      <trkpt lat="49.20052" lon="6.96891">
        <ele>308</ele>
        <time>2012-01-22T08:18:46Z</time>
      </trkpt>
      <trkpt lat="49.20053" lon="6.96893">
        <ele>307</ele>
        <time>2012-01-22T08:18:47Z</time>
      </trkpt>
      <trkpt lat="49.20053" lon="6.96895">
        <ele>307</ele>
        <time>2012-01-22T08:18:48Z</time>
      </trkpt>
      <trkpt lat="49.20054" lon="6.96897">
        <ele>307</ele>
        <time>2012-01-22T08:18:49Z</time>
      </trkpt>
      <trkpt lat="49.20054" lon="6.96899">
        <ele>307</ele>
        <time>2012-01-22T08:18:50Z</time>
      </trkpt>
      <trkpt lat="49.20055" lon="6.96901">
        <ele>306</ele>
        <time>2012-01-22T08:18:51Z</time>
      </trkpt>
      <trkpt lat="49.20055" lon="6.96903">
        <ele>306</ele>
        <time>2012-01-22T08:18:52Z</time>
      </trkpt>
      <trkpt lat="49.20056" lon="6.96905">
        <ele>306</ele>
        <time>2012-01-22T08:18:53Z</time>
      </trkpt>
      <trkpt lat="49.20056" lon="6.96907">
        <ele>306</ele>
        <time>2012-01-22T08:18:54Z</time>
      </trkpt>
      <trkpt lat="49.20057" lon="6.96909">
        <ele>305</ele>
        <time>2012-01-22T08:18:55Z</time>
      </trkpt>
      <trkpt lat="49.20057" lon="6.96911">
        <ele>305</ele>
        <time>2012-01-22T08:18:56Z</time>
      </trkpt>
      <trkpt lat="49.20058" lon="6.96913">
        <ele>305</ele>
        <time>2012-01-22T08:18:57Z</time>
      </trkpt>
      <trkpt lat="49.20058" lon="6.96915">
        <ele>304</ele>
        <time>2012-01-22T08:18:58Z</time>
      </trkpt>
      <trkpt lat="49.20059" lon="6.96917">
        <ele>304</ele>
        <time>2012-01-22T08:18:59Z</time>
      </trkpt>
      <trkpt lat="49.20059" lon="6.96919">
        <ele>304</ele>
        <time>2012-01-22T08:19:00Z</time>
      </trkpt>
      <trkpt lat="49.2006" lon="6.96921">
        <ele>304</ele>
        <time>2012-01-22T08:19:01Z</time>
      </trkpt>
      <trkpt lat="49.2006" lon="6.96923">
        <ele>304</ele>
        <time>2012-01-22T08:19:02Z</time>
      </trkpt>
      <trkpt lat="49.20061" lon="6.96925">
        <ele>303</ele>
        <time>2012-01-22T08:19:03Z</time>
      </trkpt>
      <trkpt lat="49.20061" lon="6.96927">
        <ele>303</ele>
        <time>2012-01-22T08:19:03Z</time>
      </trkpt>
      <trkpt lat="49.20062" lon="6.96929">
        <ele>303</ele>
        <time>2012-01-22T08:19:05Z</time>
      </trkpt>
      <trkpt lat="49.20062" lon="6.96931">
        <ele>303</ele>
        <time>2012-01-22T08:19:06Z</time>
      </trkpt>
      <trkpt lat="49.20063" lon="6.96933">
        <ele>303</ele>
        <time>2012-01-22T08:19:07Z</time>
      </trkpt>
      <trkpt lat="49.20063" lon="6.96936">
        <ele>303</ele>
        <time>2012-01-22T08:19:07Z</time>
      </trkpt>
      <trkpt lat="49.20064" lon="6.96938">
        <ele>303</ele>
        <time>2012-01-22T08:19:09Z</time>
      </trkpt>
      <trkpt lat="49.20064" lon="6.9694">
        <ele>302</ele>
        <time>2012-01-22T08:19:10Z</time>
      </trkpt>
      <trkpt lat="49.20065" lon="6.96942">
        <ele>302</ele>
        <time>2012-01-22T08:19:11Z</time>
      </trkpt>
      <trkpt lat="49.20065" lon="6.96944">
        <ele>302</ele>
        <time>2012-01-22T08:19:11Z</time>
      </trkpt>
      <trkpt lat="49.20067" lon="6.96948">
        <ele>302</ele>
        <time>2012-01-22T08:19:13Z</time>
      </trkpt>
      <trkpt lat="49.20068" lon="6.9695">
        <ele>302</ele>
        <time>2012-01-22T08:19:14Z</time>
      </trkpt>
      <trkpt lat="49.20068" lon="6.96951">
        <ele>302</ele>
        <time>2012-01-22T08:19:15Z</time>
      </trkpt>
      <trkpt lat="49.20068" lon="6.96953">
        <ele>302</ele>
        <time>2012-01-22T08:19:16Z</time>
      </trkpt>
      <trkpt lat="49.20069" lon="6.96955">
        <ele>302</ele>
        <time>2012-01-22T08:19:17Z</time>
      </trkpt>
      <trkpt lat="49.2007" lon="6.96957">
        <ele>302</ele>
        <time>2012-01-22T08:19:18Z</time>
      </trkpt>
      <trkpt lat="49.20072" lon="6.96961">
        <ele>302</ele>
        <time>2012-01-22T08:19:19Z</time>
      </trkpt>
      <trkpt lat="49.20073" lon="6.96964">
        <ele>302</ele>
        <time>2012-01-22T08:19:20Z</time>
      </trkpt>
      <trkpt lat="49.20075" lon="6.96967">
        <ele>303</ele>
        <time>2012-01-22T08:19:21Z</time>
      </trkpt>
      <trkpt lat="49.20076" lon="6.9697">
        <ele>304</ele>
        <time>2012-01-22T08:19:22Z</time>
      </trkpt>
      <trkpt lat="49.20078" lon="6.96973">
        <ele>305</ele>
        <time>2012-01-22T08:19:22Z</time>
      </trkpt>
      <trkpt lat="49.20079" lon="6.96975">
        <ele>306</ele>
        <time>2012-01-22T08:19:23Z</time>
      </trkpt>
      <trkpt lat="49.2008" lon="6.96978">
        <ele>307</ele>
        <time>2012-01-22T08:19:25Z</time>
      </trkpt>
      <trkpt lat="49.20081" lon="6.9698">
        <ele>308</ele>
        <time>2012-01-22T08:19:26Z</time>
      </trkpt>
      <trkpt lat="49.20081" lon="6.96982">
        <ele>309</ele>
        <time>2012-01-22T08:19:27Z</time>
      </trkpt>
      <trkpt lat="49.20081" lon="6.96985">
        <ele>310</ele>
        <time>2012-01-22T08:19:28Z</time>
      </trkpt>
      <trkpt lat="49.20082" lon="6.96988">
        <ele>311</ele>
        <time>2012-01-22T08:19:29Z</time>
      </trkpt>
      <trkpt lat="49.20082" lon="6.9699">
        <ele>312</ele>
        <time>2012-01-22T08:19:30Z</time>
      </trkpt>
      <trkpt lat="49.20082" lon="6.96991">
        <ele>313</ele>
        <time>2012-01-22T08:19:31Z</time>
      </trkpt>
      <trkpt lat="49.20083" lon="6.96993">
        <ele>314</ele>
        <time>2012-01-22T08:19:32Z</time>
      </trkpt>
      <trkpt lat="49.20083" lon="6.96995">
        <ele>315</ele>
        <time>2012-01-22T08:19:33Z</time>
      </trkpt>
      <trkpt lat="49.20083" lon="6.96997">
        <ele>315</ele>
        <time>2012-01-22T08:19:34Z</time>
      </trkpt>
      <trkpt lat="49.20083" lon="6.96999">
        <ele>315</ele>
        <time>2012-01-22T08:19:35Z</time>
      </trkpt>
      <trkpt lat="49.20084" lon="6.97001">
        <ele>315</ele>
        <time>2012-01-22T08:19:36Z</time>
      </trkpt>
      <trkpt lat="49.20085" lon="6.97003">
        <ele>315</ele>
        <time>2012-01-22T08:19:37Z</time>
      </trkpt>
      <trkpt lat="49.20085" lon="6.97006">
        <ele>315</ele>
        <time>2012-01-22T08:19:38Z</time>
      </trkpt>
      <trkpt lat="49.20086" lon="6.97007">
        <ele>315</ele>
        <time>2012-01-22T08:19:39Z</time>
      </trkpt>
      <trkpt lat="49.20086" lon="6.97009">
        <ele>316</ele>
        <time>2012-01-22T08:19:40Z</time>
      </trkpt>
      <trkpt lat="49.20086" lon="6.97011">
        <ele>316</ele>
        <time>2012-01-22T08:19:41Z</time>
      </trkpt>
      <trkpt lat="49.20086" lon="6.97013">
        <ele>316</ele>
        <time>2012-01-22T08:19:42Z</time>
      </trkpt>
      <trkpt lat="49.20086" lon="6.97015">
        <ele>316</ele>
        <time>2012-01-22T08:19:43Z</time>
      </trkpt>
      <trkpt lat="49.20086" lon="6.97016">
        <ele>316</ele>
        <time>2012-01-22T08:19:44Z</time>
      </trkpt>
      <trkpt lat="49.20086" lon="6.97018">
        <ele>316</ele>
        <time>2012-01-22T08:19:45Z</time>
      </trkpt>
      <trkpt lat="49.20086" lon="6.9702">
        <ele>316</ele>
        <time>2012-01-22T08:19:46Z</time>
      </trkpt>
      <trkpt lat="49.20086" lon="6.97023">
        <ele>316</ele>
        <time>2012-01-22T08:19:47Z</time>
      </trkpt>
      <trkpt lat="49.20086" lon="6.97026">
        <ele>316</ele>
        <time>2012-01-22T08:19:47Z</time>
      </trkpt>
      <trkpt lat="49.20086" lon="6.97028">
        <ele>316</ele>
        <time>2012-01-22T08:19:49Z</time>
      </trkpt>
      <trkpt lat="49.20086" lon="6.97031">
        <ele>316</ele>
        <time>2012-01-22T08:19:49Z</time>
      </trkpt>
      <trkpt lat="49.20086" lon="6.97034">
        <ele>316</ele>
        <time>2012-01-22T08:19:51Z</time>
      </trkpt>
      <trkpt lat="49.20085" lon="6.97036">
        <ele>316</ele>
        <time>2012-01-22T08:19:51Z</time>
      </trkpt>
      <trkpt lat="49.20085" lon="6.97038">
        <ele>316</ele>
        <time>2012-01-22T08:19:53Z</time>
      </trkpt>
      <trkpt lat="49.20084" lon="6.97039">
        <ele>316</ele>
        <time>2012-01-22T08:19:54Z</time>
      </trkpt>
      <trkpt lat="49.20084" lon="6.97041">
        <ele>316</ele>
        <time>2012-01-22T08:19:55Z</time>
      </trkpt>
      <trkpt lat="49.20083" lon="6.97044">
        <ele>316</ele>
        <time>2012-01-22T08:19:55Z</time>
      </trkpt>
      <trkpt lat="49.20083" lon="6.97046">
        <ele>316</ele>
        <time>2012-01-22T08:19:57Z</time>
      </trkpt>
      <trkpt lat="49.20083" lon="6.97047">
        <ele>316</ele>
        <time>2012-01-22T08:19:58Z</time>
      </trkpt>
      <trkpt lat="49.20083" lon="6.97049">
        <ele>316</ele>
        <time>2012-01-22T08:19:58Z</time>
      </trkpt>
      <trkpt lat="49.20083" lon="6.97051">
        <ele>316</ele>
        <time>2012-01-22T08:20:00Z</time>
      </trkpt>
      <trkpt lat="49.20083" lon="6.97053">
        <ele>316</ele>
        <time>2012-01-22T08:20:01Z</time>
      </trkpt>
      <trkpt lat="49.20082" lon="6.97055">
        <ele>316</ele>
        <time>2012-01-22T08:20:02Z</time>
      </trkpt>
      <trkpt lat="49.20082" lon="6.97057">
        <ele>316</ele>
        <time>2012-01-22T08:20:03Z</time>
      </trkpt>
      <trkpt lat="49.20081" lon="6.97059">
        <ele>316</ele>
        <time>2012-01-22T08:20:04Z</time>
      </trkpt>
      <trkpt lat="49.20081" lon="6.97061">
        <ele>316</ele>
        <time>2012-01-22T08:20:05Z</time>
      </trkpt>
      <trkpt lat="49.20081" lon="6.97063">
        <ele>316</ele>
        <time>2012-01-22T08:20:06Z</time>
      </trkpt>
      <trkpt lat="49.2008" lon="6.97066">
        <ele>316</ele>
        <time>2012-01-22T08:20:07Z</time>
      </trkpt>
      <trkpt lat="49.20079" lon="6.97069">
        <ele>316</ele>
        <time>2012-01-22T08:20:08Z</time>
      </trkpt>
      <trkpt lat="49.20079" lon="6.97071">
        <ele>316</ele>
        <time>2012-01-22T08:20:09Z</time>
      </trkpt>
      <trkpt lat="49.20079" lon="6.97073">
        <ele>316</ele>
        <time>2012-01-22T08:20:10Z</time>
      </trkpt>
      <trkpt lat="49.20078" lon="6.97076">
        <ele>316</ele>
        <time>2012-01-22T08:20:11Z</time>
      </trkpt>
      <trkpt lat="49.20077" lon="6.97079">
        <ele>316</ele>
        <time>2012-01-22T08:20:12Z</time>
      </trkpt>
      <trkpt lat="49.20076" lon="6.97082">
        <ele>316</ele>
        <time>2012-01-22T08:20:13Z</time>
      </trkpt>
      <trkpt lat="49.20076" lon="6.97084">
        <ele>316</ele>
        <time>2012-01-22T08:20:14Z</time>
      </trkpt>
      <trkpt lat="49.20076" lon="6.97086">
        <ele>316</ele>
        <time>2012-01-22T08:20:15Z</time>
      </trkpt>
      <trkpt lat="49.20076" lon="6.97088">
        <ele>316</ele>
        <time>2012-01-22T08:20:16Z</time>
      </trkpt>
      <trkpt lat="49.20076" lon="6.97091">
        <ele>316</ele>
        <time>2012-01-22T08:20:17Z</time>
      </trkpt>
      <trkpt lat="49.20076" lon="6.97094">
        <ele>316</ele>
        <time>2012-01-22T08:20:18Z</time>
      </trkpt>
      <trkpt lat="49.20076" lon="6.97096">
        <ele>316</ele>
        <time>2012-01-22T08:20:20Z</time>
      </trkpt>
      <trkpt lat="49.20076" lon="6.97098">
        <ele>316</ele>
        <time>2012-01-22T08:20:21Z</time>
      </trkpt>
      <trkpt lat="49.20076" lon="6.971">
        <ele>316</ele>
        <time>2012-01-22T08:20:22Z</time>
      </trkpt>
      <trkpt lat="49.20076" lon="6.97102">
        <ele>316</ele>
        <time>2012-01-22T08:20:23Z</time>
      </trkpt>
      <trkpt lat="49.20075" lon="6.97105">
        <ele>316</ele>
        <time>2012-01-22T08:20:23Z</time>
      </trkpt>
      <trkpt lat="49.20074" lon="6.97108">
        <ele>316</ele>
        <time>2012-01-22T08:20:25Z</time>
      </trkpt>
      <trkpt lat="49.20074" lon="6.9711">
        <ele>316</ele>
        <time>2012-01-22T08:20:27Z</time>
      </trkpt>
      <trkpt lat="49.20075" lon="6.97112">
        <ele>315</ele>
        <time>2012-01-22T08:20:27Z</time>
      </trkpt>
      <trkpt lat="49.20074" lon="6.97115">
        <ele>315</ele>
        <time>2012-01-22T08:20:29Z</time>
      </trkpt>
      <trkpt lat="49.20073" lon="6.97118">
        <ele>315</ele>
        <time>2012-01-22T08:20:30Z</time>
      </trkpt>
      <trkpt lat="49.20073" lon="6.9712">
        <ele>314</ele>
        <time>2012-01-22T08:20:31Z</time>
      </trkpt>
      <trkpt lat="49.20073" lon="6.97122">
        <ele>314</ele>
        <time>2012-01-22T08:20:31Z</time>
      </trkpt>
      <trkpt lat="49.20072" lon="6.97124">
        <ele>313</ele>
        <time>2012-01-22T08:20:33Z</time>
      </trkpt>
      <trkpt lat="49.20072" lon="6.97126">
        <ele>313</ele>
        <time>2012-01-22T08:20:34Z</time>
      </trkpt>
      <trkpt lat="49.20071" lon="6.97128">
        <ele>312</ele>
        <time>2012-01-22T08:20:35Z</time>
      </trkpt>
      <trkpt lat="49.20071" lon="6.9713">
        <ele>312</ele>
        <time>2012-01-22T08:20:36Z</time>
      </trkpt>
      <trkpt lat="49.20071" lon="6.97132">
        <ele>312</ele>
        <time>2012-01-22T08:20:37Z</time>
      </trkpt>
      <trkpt lat="49.20071" lon="6.97134">
        <ele>312</ele>
        <time>2012-01-22T08:20:38Z</time>
      </trkpt>
      <trkpt lat="49.20071" lon="6.97135">
        <ele>312</ele>
        <time>2012-01-22T08:20:39Z</time>
      </trkpt>
      <trkpt lat="49.2007" lon="6.97137">
        <ele>312</ele>
        <time>2012-01-22T08:20:40Z</time>
      </trkpt>
      <trkpt lat="49.2007" lon="6.97139">
        <ele>312</ele>
        <time>2012-01-22T08:20:41Z</time>
      </trkpt>
      <trkpt lat="49.2007" lon="6.97142">
        <ele>312</ele>
        <time>2012-01-22T08:20:42Z</time>
      </trkpt>
      <trkpt lat="49.20069" lon="6.97144">
        <ele>312</ele>
        <time>2012-01-22T08:20:43Z</time>
      </trkpt>
      <trkpt lat="49.20069" lon="6.97146">
        <ele>312</ele>
        <time>2012-01-22T08:20:43Z</time>
      </trkpt>
      <trkpt lat="49.2007" lon="6.97149">
        <ele>312</ele>
        <time>2012-01-22T08:20:45Z</time>
      </trkpt>
      <trkpt lat="49.20069" lon="6.97151">
        <ele>312</ele>
        <time>2012-01-22T08:20:46Z</time>
      </trkpt>
      <trkpt lat="49.20069" lon="6.97153">
        <ele>312</ele>
        <time>2012-01-22T08:20:47Z</time>
      </trkpt>
      <trkpt lat="49.20071" lon="6.97156">
        <ele>311</ele>
        <time>2012-01-22T08:20:49Z</time>
      </trkpt>
      <trkpt lat="49.20071" lon="6.97157">
        <ele>311</ele>
        <time>2012-01-22T08:20:50Z</time>
      </trkpt>
      <trkpt lat="49.2007" lon="6.97159">
        <ele>311</ele>
        <time>2012-01-22T08:20:51Z</time>
      </trkpt>
      <trkpt lat="49.2007" lon="6.97162">
        <ele>311</ele>
        <time>2012-01-22T08:20:52Z</time>
      </trkpt>
      <trkpt lat="49.20069" lon="6.97164">
        <ele>311</ele>
        <time>2012-01-22T08:20:53Z</time>
      </trkpt>
      <trkpt lat="49.20068" lon="6.97166">
        <ele>311</ele>
        <time>2012-01-22T08:20:54Z</time>
      </trkpt>
      <trkpt lat="49.20067" lon="6.97167">
        <ele>311</ele>
        <time>2012-01-22T08:20:55Z</time>
      </trkpt>
      <trkpt lat="49.20066" lon="6.97169">
        <ele>311</ele>
        <time>2012-01-22T08:20:56Z</time>
      </trkpt>
      <trkpt lat="49.20066" lon="6.97171">
        <ele>311</ele>
        <time>2012-01-22T08:20:57Z</time>
      </trkpt>
      <trkpt lat="49.20066" lon="6.97173">
        <ele>311</ele>
        <time>2012-01-22T08:20:58Z</time>
      </trkpt>
      <trkpt lat="49.20065" lon="6.97176">
        <ele>311</ele>
        <time>2012-01-22T08:20:59Z</time>
      </trkpt>
      <trkpt lat="49.20064" lon="6.97178">
        <ele>311</ele>
        <time>2012-01-22T08:21:00Z</time>
      </trkpt>
      <trkpt lat="49.20064" lon="6.9718">
        <ele>311</ele>
        <time>2012-01-22T08:21:01Z</time>
      </trkpt>
      <trkpt lat="49.20064" lon="6.97182">
        <ele>311</ele>
        <time>2012-01-22T08:21:01Z</time>
      </trkpt>
      <trkpt lat="49.20064" lon="6.97184">
        <ele>311</ele>
        <time>2012-01-22T08:21:03Z</time>
      </trkpt>
      <trkpt lat="49.20064" lon="6.97186">
        <ele>311</ele>
        <time>2012-01-22T08:21:04Z</time>
      </trkpt>
      <trkpt lat="49.20063" lon="6.97188">
        <ele>311</ele>
        <time>2012-01-22T08:21:04Z</time>
      </trkpt>
      <trkpt lat="49.20062" lon="6.97189">
        <ele>311</ele>
        <time>2012-01-22T08:21:06Z</time>
      </trkpt>
      <trkpt lat="49.20062" lon="6.97191">
        <ele>311</ele>
        <time>2012-01-22T08:21:07Z</time>
      </trkpt>
      <trkpt lat="49.20062" lon="6.97193">
        <ele>311</ele>
        <time>2012-01-22T08:21:08Z</time>
      </trkpt>
      <trkpt lat="49.20061" lon="6.97195">
        <ele>311</ele>
        <time>2012-01-22T08:21:09Z</time>
      </trkpt>
      <trkpt lat="49.20061" lon="6.97197">
        <ele>311</ele>
        <time>2012-01-22T08:21:10Z</time>
      </trkpt>
      <trkpt lat="49.20061" lon="6.97199">
        <ele>311</ele>
        <time>2012-01-22T08:21:11Z</time>
      </trkpt>
      <trkpt lat="49.20061" lon="6.97202">
        <ele>311</ele>
        <time>2012-01-22T08:21:12Z</time>
      </trkpt>
      <trkpt lat="49.20061" lon="6.97204">
        <ele>311</ele>
        <time>2012-01-22T08:21:13Z</time>
      </trkpt>
      <trkpt lat="49.2006" lon="6.97206">
        <ele>311</ele>
        <time>2012-01-22T08:21:13Z</time>
      </trkpt>
      <trkpt lat="49.2006" lon="6.97208">
        <ele>311</ele>
        <time>2012-01-22T08:21:15Z</time>
      </trkpt>
      <trkpt lat="49.2006" lon="6.97211">
        <ele>311</ele>
        <time>2012-01-22T08:21:16Z</time>
      </trkpt>
      <trkpt lat="49.20059" lon="6.97213">
        <ele>311</ele>
        <time>2012-01-22T08:21:17Z</time>
      </trkpt>
      <trkpt lat="49.20059" lon="6.97215">
        <ele>311</ele>
        <time>2012-01-22T08:21:18Z</time>
      </trkpt>
      <trkpt lat="49.20059" lon="6.97218">
        <ele>311</ele>
        <time>2012-01-22T08:21:19Z</time>
      </trkpt>
      <trkpt lat="49.20058" lon="6.9722">
        <ele>311</ele>
        <time>2012-01-22T08:21:20Z</time>
      </trkpt>
      <trkpt lat="49.20058" lon="6.97222">
        <ele>311</ele>
        <time>2012-01-22T08:21:21Z</time>
      </trkpt>
      <trkpt lat="49.20057" lon="6.97224">
        <ele>311</ele>
        <time>2012-01-22T08:21:22Z</time>
      </trkpt>
      <trkpt lat="49.20057" lon="6.97226">
        <ele>311</ele>
        <time>2012-01-22T08:21:23Z</time>
      </trkpt>
      <trkpt lat="49.20057" lon="6.97228">
        <ele>311</ele>
        <time>2012-01-22T08:21:24Z</time>
      </trkpt>
      <trkpt lat="49.20057" lon="6.9723">
        <ele>311</ele>
        <time>2012-01-22T08:21:24Z</time>
      </trkpt>
      <trkpt lat="49.20057" lon="6.97232">
        <ele>311</ele>
        <time>2012-01-22T08:21:26Z</time>
      </trkpt>
      <trkpt lat="49.20057" lon="6.97234">
        <ele>311</ele>
        <time>2012-01-22T08:21:27Z</time>
      </trkpt>
      <trkpt lat="49.20056" lon="6.97236">
        <ele>311</ele>
        <time>2012-01-22T08:21:28Z</time>
      </trkpt>
      <trkpt lat="49.20056" lon="6.97238">
        <ele>311</ele>
        <time>2012-01-22T08:21:29Z</time>
      </trkpt>
      <trkpt lat="49.20057" lon="6.97239">
        <ele>311</ele>
        <time>2012-01-22T08:21:29Z</time>
      </trkpt>
      <trkpt lat="49.20056" lon="6.97242">
        <ele>311</ele>
        <time>2012-01-22T08:21:31Z</time>
      </trkpt>
      <trkpt lat="49.20056" lon="6.97244">
        <ele>311</ele>
        <time>2012-01-22T08:21:32Z</time>
      </trkpt>
      <trkpt lat="49.20056" lon="6.97246">
        <ele>311</ele>
        <time>2012-01-22T08:21:33Z</time>
      </trkpt>
      <trkpt lat="49.20056" lon="6.97248">
        <ele>311</ele>
        <time>2012-01-22T08:21:34Z</time>
      </trkpt>
      <trkpt lat="49.20056" lon="6.97251">
        <ele>311</ele>
        <time>2012-01-22T08:21:35Z</time>
      </trkpt>
      <trkpt lat="49.20056" lon="6.97253">
        <ele>311</ele>
        <time>2012-01-22T08:21:36Z</time>
      </trkpt>
      <trkpt lat="49.20056" lon="6.97255">
        <ele>311</ele>
        <time>2012-01-22T08:21:37Z</time>
      </trkpt>
      <trkpt lat="49.20056" lon="6.97257">
        <ele>311</ele>
        <time>2012-01-22T08:21:38Z</time>
      </trkpt>
      <trkpt lat="49.20056" lon="6.97259">
        <ele>311</ele>
        <time>2012-01-22T08:21:38Z</time>
      </trkpt>
      <trkpt lat="49.20056" lon="6.97261">
        <ele>311</ele>
        <time>2012-01-22T08:21:40Z</time>
      </trkpt>
      <trkpt lat="49.20056" lon="6.97264">
        <ele>311</ele>
        <time>2012-01-22T08:21:40Z</time>
      </trkpt>
      <trkpt lat="49.20056" lon="6.97265">
        <ele>311</ele>
        <time>2012-01-22T08:21:42Z</time>
      </trkpt>
      <trkpt lat="49.20056" lon="6.97267">
        <ele>311</ele>
        <time>2012-01-22T08:21:43Z</time>
      </trkpt>
      <trkpt lat="49.20056" lon="6.97269">
        <ele>311</ele>
        <time>2012-01-22T08:21:44Z</time>
      </trkpt>
      <trkpt lat="49.20055" lon="6.97272">
        <ele>311</ele>
        <time>2012-01-22T08:21:45Z</time>
      </trkpt>
      <trkpt lat="49.20055" lon="6.97274">
        <ele>311</ele>
        <time>2012-01-22T08:21:46Z</time>
      </trkpt>
      <trkpt lat="49.20055" lon="6.97276">
        <ele>311</ele>
        <time>2012-01-22T08:21:47Z</time>
      </trkpt>
      <trkpt lat="49.20055" lon="6.97278">
        <ele>311</ele>
        <time>2012-01-22T08:21:48Z</time>
      </trkpt>
      <trkpt lat="49.20055" lon="6.9728">
        <ele>311</ele>
        <time>2012-01-22T08:21:49Z</time>
      </trkpt>
      <trkpt lat="49.20055" lon="6.97282">
        <ele>311</ele>
        <time>2012-01-22T08:21:50Z</time>
      </trkpt>
      <trkpt lat="49.20055" lon="6.97285">
        <ele>311</ele>
        <time>2012-01-22T08:21:51Z</time>
      </trkpt>
      <trkpt lat="49.20055" lon="6.97287">
        <ele>311</ele>
        <time>2012-01-22T08:21:52Z</time>
      </trkpt>
      <trkpt lat="49.20055" lon="6.97289">
        <ele>311</ele>
        <time>2012-01-22T08:21:53Z</time>
      </trkpt>
      <trkpt lat="49.20055" lon="6.97291">
        <ele>311</ele>
        <time>2012-01-22T08:21:54Z</time>
      </trkpt>
      <trkpt lat="49.20055" lon="6.97293">
        <ele>311</ele>
        <time>2012-01-22T08:21:55Z</time>
      </trkpt>
      <trkpt lat="49.20055" lon="6.97295">
        <ele>311</ele>
        <time>2012-01-22T08:21:56Z</time>
      </trkpt>
      <trkpt lat="49.20054" lon="6.97297">
        <ele>311</ele>
        <time>2012-01-22T08:21:57Z</time>
      </trkpt>
      <trkpt lat="49.20054" lon="6.97298">
        <ele>311</ele>
        <time>2012-01-22T08:21:58Z</time>
      </trkpt>
      <trkpt lat="49.20054" lon="6.97301">
        <ele>311</ele>
        <time>2012-01-22T08:21:59Z</time>
      </trkpt>
      <trkpt lat="49.20053" lon="6.97303">
        <ele>311</ele>
        <time>2012-01-22T08:22:00Z</time>
      </trkpt>
      <trkpt lat="49.20053" lon="6.97305">
        <ele>311</ele>
        <time>2012-01-22T08:22:01Z</time>
      </trkpt>
      <trkpt lat="49.20052" lon="6.97307">
        <ele>311</ele>
        <time>2012-01-22T08:22:02Z</time>
      </trkpt>
      <trkpt lat="49.20052" lon="6.97309">
        <ele>311</ele>
        <time>2012-01-22T08:22:03Z</time>
      </trkpt>
      <trkpt lat="49.20052" lon="6.97311">
        <ele>311</ele>
        <time>2012-01-22T08:22:04Z</time>
      </trkpt>
      <trkpt lat="49.20052" lon="6.97313">
        <ele>311</ele>
        <time>2012-01-22T08:22:05Z</time>
      </trkpt>
      <trkpt lat="49.20052" lon="6.97316">
        <ele>311</ele>
        <time>2012-01-22T08:22:06Z</time>
      </trkpt>
      <trkpt lat="49.20051" lon="6.97317">
        <ele>311</ele>
        <time>2012-01-22T08:22:07Z</time>
      </trkpt>
      <trkpt lat="49.2005" lon="6.97319">
        <ele>311</ele>
        <time>2012-01-22T08:22:08Z</time>
      </trkpt>
      <trkpt lat="49.2005" lon="6.97321">
        <ele>311</ele>
        <time>2012-01-22T08:22:09Z</time>
      </trkpt>
      <trkpt lat="49.2005" lon="6.97323">
        <ele>311</ele>
        <time>2012-01-22T08:22:10Z</time>
      </trkpt>
      <trkpt lat="49.2005" lon="6.97324">
        <ele>311</ele>
        <time>2012-01-22T08:22:11Z</time>
      </trkpt>
      <trkpt lat="49.2005" lon="6.97326">
        <ele>311</ele>
        <time>2012-01-22T08:22:12Z</time>
      </trkpt>
      <trkpt lat="49.20049" lon="6.97329">
        <ele>311</ele>
        <time>2012-01-22T08:22:14Z</time>
      </trkpt>
      <trkpt lat="49.20049" lon="6.97331">
        <ele>311</ele>
        <time>2012-01-22T08:22:15Z</time>
      </trkpt>
      <trkpt lat="49.20048" lon="6.97333">
        <ele>311</ele>
        <time>2012-01-22T08:22:15Z</time>
      </trkpt>
      <trkpt lat="49.20048" lon="6.97336">
        <ele>311</ele>
        <time>2012-01-22T08:22:17Z</time>
      </trkpt>
      <trkpt lat="49.20048" lon="6.97339">
        <ele>311</ele>
        <time>2012-01-22T08:22:18Z</time>
      </trkpt>
      <trkpt lat="49.20048" lon="6.97341">
        <ele>311</ele>
        <time>2012-01-22T08:22:18Z</time>
      </trkpt>
      <trkpt lat="49.20047" lon="6.97344">
        <ele>311</ele>
        <time>2012-01-22T08:22:20Z</time>
      </trkpt>
      <trkpt lat="49.20047" lon="6.97346">
        <ele>311</ele>
        <time>2012-01-22T08:22:20Z</time>
      </trkpt>
      <trkpt lat="49.20047" lon="6.97348">
        <ele>311</ele>
        <time>2012-01-22T08:22:22Z</time>
      </trkpt>
      <trkpt lat="49.20047" lon="6.9735">
        <ele>311</ele>
        <time>2012-01-22T08:22:23Z</time>
      </trkpt>
      <trkpt lat="49.20046" lon="6.97352">
        <ele>311</ele>
        <time>2012-01-22T08:22:24Z</time>
      </trkpt>
      <trkpt lat="49.20046" lon="6.97355">
        <ele>311</ele>
        <time>2012-01-22T08:22:25Z</time>
      </trkpt>
      <trkpt lat="49.20046" lon="6.97357">
        <ele>311</ele>
        <time>2012-01-22T08:22:26Z</time>
      </trkpt>
      <trkpt lat="49.20045" lon="6.97359">
        <ele>311</ele>
        <time>2012-01-22T08:22:27Z</time>
      </trkpt>
      <trkpt lat="49.20045" lon="6.97362">
        <ele>311</ele>
        <time>2012-01-22T08:22:28Z</time>
      </trkpt>
      <trkpt lat="49.20045" lon="6.97364">
        <ele>311</ele>
        <time>2012-01-22T08:22:28Z</time>
      </trkpt>
      <trkpt lat="49.20045" lon="6.97365">
        <ele>311</ele>
        <time>2012-01-22T08:22:29Z</time>
      </trkpt>
      <trkpt lat="49.20045" lon="6.97367">
        <ele>311</ele>
        <time>2012-01-22T08:22:31Z</time>
      </trkpt>
      <trkpt lat="49.20045" lon="6.97369">
        <ele>311</ele>
        <time>2012-01-22T08:22:32Z</time>
      </trkpt>
      <trkpt lat="49.20046" lon="6.97372">
        <ele>311</ele>
        <time>2012-01-22T08:22:34Z</time>
      </trkpt>
      <trkpt lat="49.20045" lon="6.97374">
        <ele>311</ele>
        <time>2012-01-22T08:22:34Z</time>
      </trkpt>
      <trkpt lat="49.20045" lon="6.97376">
        <ele>311</ele>
        <time>2012-01-22T08:22:36Z</time>
      </trkpt>
      <trkpt lat="49.20045" lon="6.97379">
        <ele>311</ele>
        <time>2012-01-22T08:22:38Z</time>
      </trkpt>
      <trkpt lat="49.20045" lon="6.97382">
        <ele>311</ele>
        <time>2012-01-22T08:22:39Z</time>
      </trkpt>
      <trkpt lat="49.20045" lon="6.97383">
        <ele>311</ele>
        <time>2012-01-22T08:22:41Z</time>
      </trkpt>
      <trkpt lat="49.20046" lon="6.97386">
        <ele>311</ele>
        <time>2012-01-22T08:22:43Z</time>
      </trkpt>
      <trkpt lat="49.20046" lon="6.97389">
        <ele>311</ele>
        <time>2012-01-22T08:22:45Z</time>
      </trkpt>
      <trkpt lat="49.20046" lon="6.97391">
        <ele>311</ele>
        <time>2012-01-22T08:22:46Z</time>
      </trkpt>
      <trkpt lat="49.20046" lon="6.97393">
        <ele>311</ele>
        <time>2012-01-22T08:22:47Z</time>
      </trkpt>
      <trkpt lat="49.20046" lon="6.97395">
        <ele>311</ele>
        <time>2012-01-22T08:22:48Z</time>
      </trkpt>
      <trkpt lat="49.20046" lon="6.97397">
        <ele>311</ele>
        <time>2012-01-22T08:22:49Z</time>
      </trkpt>
      <trkpt lat="49.20047" lon="6.97399">
        <ele>311</ele>
        <time>2012-01-22T08:22:50Z</time>
      </trkpt>
      <trkpt lat="49.20047" lon="6.97401">
        <ele>311</ele>
        <time>2012-01-22T08:22:51Z</time>
      </trkpt>
      <trkpt lat="49.20047" lon="6.97403">
        <ele>311</ele>
        <time>2012-01-22T08:22:52Z</time>
      </trkpt>
      <trkpt lat="49.20047" lon="6.97405">
        <ele>311</ele>
        <time>2012-01-22T08:22:53Z</time>
      </trkpt>
      <trkpt lat="49.20047" lon="6.97407">
        <ele>311</ele>
        <time>2012-01-22T08:22:53Z</time>
      </trkpt>
      <trkpt lat="49.20047" lon="6.97408">
        <ele>311</ele>
        <time>2012-01-22T08:22:55Z</time>
      </trkpt>
      <trkpt lat="49.20047" lon="6.9741">
        <ele>311</ele>
        <time>2012-01-22T08:22:56Z</time>
      </trkpt>
      <trkpt lat="49.20047" lon="6.97412">
        <ele>311</ele>
        <time>2012-01-22T08:22:57Z</time>
      </trkpt>
      <trkpt lat="49.20046" lon="6.97414">
        <ele>311</ele>
        <time>2012-01-22T08:22:58Z</time>
      </trkpt>
      <trkpt lat="49.20046" lon="6.97417">
        <ele>311</ele>
        <time>2012-01-22T08:22:59Z</time>
      </trkpt>
      <trkpt lat="49.20046" lon="6.97418">
        <ele>311</ele>
        <time>2012-01-22T08:23:00Z</time>
      </trkpt>
      <trkpt lat="49.20046" lon="6.9742">
        <ele>311</ele>
        <time>2012-01-22T08:23:01Z</time>
      </trkpt>
      <trkpt lat="49.20045" lon="6.97423">
        <ele>311</ele>
        <time>2012-01-22T08:23:02Z</time>
      </trkpt>
      <trkpt lat="49.20045" lon="6.97425">
        <ele>311</ele>
        <time>2012-01-22T08:23:03Z</time>
      </trkpt>
      <trkpt lat="49.20045" lon="6.97427">
        <ele>311</ele>
        <time>2012-01-22T08:23:04Z</time>
      </trkpt>
      <trkpt lat="49.20045" lon="6.9743">
        <ele>311</ele>
        <time>2012-01-22T08:23:05Z</time>
      </trkpt>
      <trkpt lat="49.20045" lon="6.97431">
        <ele>311</ele>
        <time>2012-01-22T08:23:05Z</time>
      </trkpt>
      <trkpt lat="49.20045" lon="6.97433">
        <ele>311</ele>
        <time>2012-01-22T08:23:07Z</time>
      </trkpt>
      <trkpt lat="49.20045" lon="6.97435">
        <ele>311</ele>
        <time>2012-01-22T08:23:08Z</time>
      </trkpt>
      <trkpt lat="49.20044" lon="6.97437">
        <ele>311</ele>
        <time>2012-01-22T08:23:09Z</time>
      </trkpt>
      <trkpt lat="49.20044" lon="6.97439">
        <ele>311</ele>
        <time>2012-01-22T08:23:10Z</time>
      </trkpt>
      <trkpt lat="49.20045" lon="6.97441">
        <ele>311</ele>
        <time>2012-01-22T08:23:11Z</time>
      </trkpt>
      <trkpt lat="49.20045" lon="6.97443">
        <ele>311</ele>
        <time>2012-01-22T08:23:12Z</time>
      </trkpt>
      <trkpt lat="49.20045" lon="6.97445">
        <ele>311</ele>
        <time>2012-01-22T08:23:12Z</time>
      </trkpt>
      <trkpt lat="49.20045" lon="6.97446">
        <ele>311</ele>
        <time>2012-01-22T08:23:13Z</time>
      </trkpt>
      <trkpt lat="49.20044" lon="6.97448">
        <ele>311</ele>
        <time>2012-01-22T08:23:15Z</time>
      </trkpt>
      <trkpt lat="49.20044" lon="6.9745">
        <ele>311</ele>
        <time>2012-01-22T08:23:16Z</time>
      </trkpt>
      <trkpt lat="49.20044" lon="6.97452">
        <ele>311</ele>
        <time>2012-01-22T08:23:17Z</time>
      </trkpt>
      <trkpt lat="49.20044" lon="6.97454">
        <ele>311</ele>
        <time>2012-01-22T08:23:18Z</time>
      </trkpt>
      <trkpt lat="49.20044" lon="6.97456">
        <ele>311</ele>
        <time>2012-01-22T08:23:19Z</time>
      </trkpt>
      <trkpt lat="49.20044" lon="6.97459">
        <ele>311</ele>
        <time>2012-01-22T08:23:20Z</time>
      </trkpt>
      <trkpt lat="49.20044" lon="6.97461">
        <ele>311</ele>
        <time>2012-01-22T08:23:21Z</time>
      </trkpt>
      <trkpt lat="49.20043" lon="6.97463">
        <ele>311</ele>
        <time>2012-01-22T08:23:21Z</time>
      </trkpt>
      <trkpt lat="49.20043" lon="6.97465">
        <ele>311</ele>
        <time>2012-01-22T08:23:23Z</time>
      </trkpt>
      <trkpt lat="49.20043" lon="6.97467">
        <ele>311</ele>
        <time>2012-01-22T08:23:24Z</time>
      </trkpt>
      <trkpt lat="49.20044" lon="6.97469">
        <ele>311</ele>
        <time>2012-01-22T08:23:25Z</time>
      </trkpt>
      <trkpt lat="49.20044" lon="6.97471">
        <ele>311</ele>
        <time>2012-01-22T08:23:26Z</time>
      </trkpt>
      <trkpt lat="49.20043" lon="6.97474">
        <ele>311</ele>
        <time>2012-01-22T08:23:27Z</time>
      </trkpt>
      <trkpt lat="49.20043" lon="6.97476">
        <ele>311</ele>
        <time>2012-01-22T08:23:28Z</time>
      </trkpt>
      <trkpt lat="49.20043" lon="6.97478">
        <ele>311</ele>
        <time>2012-01-22T08:23:28Z</time>
      </trkpt>
      <trkpt lat="49.20042" lon="6.97479">
        <ele>311</ele>
        <time>2012-01-22T08:23:30Z</time>
      </trkpt>
      <trkpt lat="49.20043" lon="6.97482">
        <ele>311</ele>
        <time>2012-01-22T08:23:31Z</time>
      </trkpt>
      <trkpt lat="49.20043" lon="6.97483">
        <ele>311</ele>
        <time>2012-01-22T08:23:32Z</time>
      </trkpt>
      <trkpt lat="49.20043" lon="6.97485">
        <ele>311</ele>
        <time>2012-01-22T08:23:32Z</time>
      </trkpt>
      <trkpt lat="49.20043" lon="6.97487">
        <ele>311</ele>
        <time>2012-01-22T08:23:34Z</time>
      </trkpt>
      <trkpt lat="49.20043" lon="6.97489">
        <ele>311</ele>
        <time>2012-01-22T08:23:35Z</time>
      </trkpt>
      <trkpt lat="49.20043" lon="6.97493">
        <ele>311</ele>
        <time>2012-01-22T08:23:37Z</time>
      </trkpt>
      <trkpt lat="49.20043" lon="6.97495">
        <ele>311</ele>
        <time>2012-01-22T08:23:37Z</time>
      </trkpt>
      <trkpt lat="49.20042" lon="6.97497">
        <ele>311</ele>
        <time>2012-01-22T08:23:39Z</time>
      </trkpt>
      <trkpt lat="49.20043" lon="6.97499">
        <ele>311</ele>
        <time>2012-01-22T08:23:40Z</time>
      </trkpt>
      <trkpt lat="49.20043" lon="6.97501">
        <ele>311</ele>
        <time>2012-01-22T08:23:40Z</time>
      </trkpt>
      <trkpt lat="49.20042" lon="6.97503">
        <ele>311</ele>
        <time>2012-01-22T08:23:41Z</time>
      </trkpt>
      <trkpt lat="49.20042" lon="6.97505">
        <ele>311</ele>
        <time>2012-01-22T08:23:43Z</time>
      </trkpt>
      <trkpt lat="49.20042" lon="6.97507">
        <ele>311</ele>
        <time>2012-01-22T08:23:43Z</time>
      </trkpt>
      <trkpt lat="49.20042" lon="6.97509">
        <ele>311</ele>
        <time>2012-01-22T08:23:45Z</time>
      </trkpt>
      <trkpt lat="49.20042" lon="6.97511">
        <ele>311</ele>
        <time>2012-01-22T08:23:46Z</time>
      </trkpt>
      <trkpt lat="49.20043" lon="6.97513">
        <ele>311</ele>
        <time>2012-01-22T08:23:47Z</time>
      </trkpt>
      <trkpt lat="49.20043" lon="6.97515">
        <ele>311</ele>
        <time>2012-01-22T08:23:48Z</time>
      </trkpt>
      <trkpt lat="49.20043" lon="6.97517">
        <ele>311</ele>
        <time>2012-01-22T08:23:49Z</time>
      </trkpt>
      <trkpt lat="49.20044" lon="6.97519">
        <ele>311</ele>
        <time>2012-01-22T08:23:50Z</time>
      </trkpt>
      <trkpt lat="49.20044" lon="6.97521">
        <ele>311</ele>
        <time>2012-01-22T08:23:51Z</time>
      </trkpt>
      <trkpt lat="49.20044" lon="6.97522">
        <ele>311</ele>
        <time>2012-01-22T08:23:52Z</time>
      </trkpt>
      <trkpt lat="49.20043" lon="6.97524">
        <ele>311</ele>
        <time>2012-01-22T08:23:53Z</time>
      </trkpt>
      <trkpt lat="49.20043" lon="6.97527">
        <ele>311</ele>
        <time>2012-01-22T08:23:54Z</time>
      </trkpt>
      <trkpt lat="49.20043" lon="6.97529">
        <ele>311</ele>
        <time>2012-01-22T08:23:55Z</time>
      </trkpt>
      <trkpt lat="49.20043" lon="6.97531">
        <ele>311</ele>
        <time>2012-01-22T08:23:56Z</time>
      </trkpt>
      <trkpt lat="49.20043" lon="6.97534">
        <ele>311</ele>
        <time>2012-01-22T08:23:56Z</time>
      </trkpt>
      <trkpt lat="49.20042" lon="6.97537">
        <ele>311</ele>
        <time>2012-01-22T08:23:58Z</time>
      </trkpt>
      <trkpt lat="49.20042" lon="6.97539">
        <ele>311</ele>
        <time>2012-01-22T08:23:59Z</time>
      </trkpt>
      <trkpt lat="49.20042" lon="6.97541">
        <ele>311</ele>
        <time>2012-01-22T08:24:00Z</time>
      </trkpt>
      <trkpt lat="49.20042" lon="6.97542">
        <ele>311</ele>
        <time>2012-01-22T08:24:01Z</time>
      </trkpt>
      <trkpt lat="49.20042" lon="6.97544">
        <ele>311</ele>
        <time>2012-01-22T08:24:02Z</time>
      </trkpt>
      <trkpt lat="49.20043" lon="6.97547">
        <ele>311</ele>
        <time>2012-01-22T08:24:02Z</time>
      </trkpt>
      <trkpt lat="49.20043" lon="6.97549">
        <ele>311</ele>
        <time>2012-01-22T08:24:04Z</time>
      </trkpt>
      <trkpt lat="49.20043" lon="6.97551">
        <ele>311</ele>
        <time>2012-01-22T08:24:04Z</time>
      </trkpt>
      <trkpt lat="49.20043" lon="6.97553">
        <ele>311</ele>
        <time>2012-01-22T08:24:06Z</time>
      </trkpt>
      <trkpt lat="49.20043" lon="6.97555">
        <ele>311</ele>
        <time>2012-01-22T08:24:07Z</time>
      </trkpt>
      <trkpt lat="49.20043" lon="6.97558">
        <ele>311</ele>
        <time>2012-01-22T08:24:08Z</time>
      </trkpt>
      <trkpt lat="49.20043" lon="6.97561">
        <ele>311</ele>
        <time>2012-01-22T08:24:09Z</time>
      </trkpt>
      <trkpt lat="49.20043" lon="6.97563">
        <ele>311</ele>
        <time>2012-01-22T08:24:09Z</time>
      </trkpt>
      <trkpt lat="49.20044" lon="6.97565">
        <ele>311</ele>
        <time>2012-01-22T08:24:11Z</time>
      </trkpt>
      <trkpt lat="49.20044" lon="6.97568">
        <ele>311</ele>
        <time>2012-01-22T08:24:12Z</time>
      </trkpt>
      <trkpt lat="49.20044" lon="6.9757">
        <ele>311</ele>
        <time>2012-01-22T08:24:13Z</time>
      </trkpt>
      <trkpt lat="49.20044" lon="6.97572">
        <ele>311</ele>
        <time>2012-01-22T08:24:14Z</time>
      </trkpt>
      <trkpt lat="49.20044" lon="6.97574">
        <ele>311</ele>
        <time>2012-01-22T08:24:15Z</time>
      </trkpt>
      <trkpt lat="49.20044" lon="6.97577">
        <ele>311</ele>
        <time>2012-01-22T08:24:16Z</time>
      </trkpt>
      <trkpt lat="49.20044" lon="6.97579">
        <ele>311</ele>
        <time>2012-01-22T08:24:17Z</time>
      </trkpt>
      <trkpt lat="49.20045" lon="6.97581">
        <ele>311</ele>
        <time>2012-01-22T08:24:18Z</time>
      </trkpt>
      <trkpt lat="49.20045" lon="6.97585">
        <ele>311</ele>
        <time>2012-01-22T08:24:18Z</time>
      </trkpt>
      <trkpt lat="49.20044" lon="6.97589">
        <ele>312</ele>
        <time>2012-01-22T08:24:20Z</time>
      </trkpt>
      <trkpt lat="49.20044" lon="6.97592">
        <ele>313</ele>
        <time>2012-01-22T08:24:21Z</time>
      </trkpt>
      <trkpt lat="49.20044" lon="6.97596">
        <ele>314</ele>
        <time>2012-01-22T08:24:22Z</time>
      </trkpt>
      <trkpt lat="49.20044" lon="6.97598">
        <ele>315</ele>
        <time>2012-01-22T08:24:23Z</time>
      </trkpt>
      <trkpt lat="49.20044" lon="6.976">
        <ele>316</ele>
        <time>2012-01-22T08:24:24Z</time>
      </trkpt>
      <trkpt lat="49.20044" lon="6.97603">
        <ele>317</ele>
        <time>2012-01-22T08:24:25Z</time>
      </trkpt>
      <trkpt lat="49.20044" lon="6.97604">
        <ele>318</ele>
        <time>2012-01-22T08:24:26Z</time>
      </trkpt>
      <trkpt lat="49.20044" lon="6.97607">
        <ele>319</ele>
        <time>2012-01-22T08:24:27Z</time>
      </trkpt>
      <trkpt lat="49.20045" lon="6.9761">
        <ele>320</ele>
        <time>2012-01-22T08:24:29Z</time>
      </trkpt>
      <trkpt lat="49.20045" lon="6.97612">
        <ele>320</ele>
        <time>2012-01-22T08:24:30Z</time>
      </trkpt>
      <trkpt lat="49.20045" lon="6.97614">
        <ele>320</ele>
        <time>2012-01-22T08:24:32Z</time>
      </trkpt>
      <trkpt lat="49.20046" lon="6.97616">
        <ele>320</ele>
        <time>2012-01-22T08:24:33Z</time>
      </trkpt>
      <trkpt lat="49.20046" lon="6.97618">
        <ele>320</ele>
        <time>2012-01-22T08:24:34Z</time>
      </trkpt>
      <trkpt lat="49.20046" lon="6.9762">
        <ele>320</ele>
        <time>2012-01-22T08:24:34Z</time>
      </trkpt>
      <trkpt lat="49.20046" lon="6.97622">
        <ele>320</ele>
        <time>2012-01-22T08:24:36Z</time>
      </trkpt>
      <trkpt lat="49.20047" lon="6.97624">
        <ele>320</ele>
        <time>2012-01-22T08:24:36Z</time>
      </trkpt>
      <trkpt lat="49.20047" lon="6.97626">
        <ele>320</ele>
        <time>2012-01-22T08:24:38Z</time>
      </trkpt>
      <trkpt lat="49.20047" lon="6.97629">
        <ele>320</ele>
        <time>2012-01-22T08:24:41Z</time>
      </trkpt>
      <trkpt lat="49.20047" lon="6.97632">
        <ele>320</ele>
        <time>2012-01-22T08:24:42Z</time>
      </trkpt>
      <trkpt lat="49.20047" lon="6.97635">
        <ele>320</ele>
        <time>2012-01-22T08:24:43Z</time>
      </trkpt>
      <trkpt lat="49.20047" lon="6.97638">
        <ele>320</ele>
        <time>2012-01-22T08:24:44Z</time>
      </trkpt>
      <trkpt lat="49.20046" lon="6.9764">
        <ele>320</ele>
        <time>2012-01-22T08:24:45Z</time>
      </trkpt>
      <trkpt lat="49.20047" lon="6.97642">
        <ele>320</ele>
        <time>2012-01-22T08:24:46Z</time>
      </trkpt>
      <trkpt lat="49.20047" lon="6.97644">
        <ele>320</ele>
        <time>2012-01-22T08:24:47Z</time>
      </trkpt>
      <trkpt lat="49.20047" lon="6.97646">
        <ele>320</ele>
        <time>2012-01-22T08:24:48Z</time>
      </trkpt>
      <trkpt lat="49.20047" lon="6.97648">
        <ele>320</ele>
        <time>2012-01-22T08:24:49Z</time>
      </trkpt>
      <trkpt lat="49.20047" lon="6.97652">
        <ele>320</ele>
        <time>2012-01-22T08:24:51Z</time>
      </trkpt>
      <trkpt lat="49.20047" lon="6.97655">
        <ele>320</ele>
        <time>2012-01-22T08:24:52Z</time>
      </trkpt>
      <trkpt lat="49.20047" lon="6.97658">
        <ele>320</ele>
        <time>2012-01-22T08:24:53Z</time>
      </trkpt>
      <trkpt lat="49.20046" lon="6.9766">
        <ele>320</ele>
        <time>2012-01-22T08:24:54Z</time>
      </trkpt>
      <trkpt lat="49.20046" lon="6.97662">
        <ele>320</ele>
        <time>2012-01-22T08:24:55Z</time>
      </trkpt>
      <trkpt lat="49.20046" lon="6.97666">
        <ele>320</ele>
        <time>2012-01-22T08:24:56Z</time>
      </trkpt>
      <trkpt lat="49.20047" lon="6.97668">
        <ele>320</ele>
        <time>2012-01-22T08:24:57Z</time>
      </trkpt>
      <trkpt lat="49.20047" lon="6.9767">
        <ele>320</ele>
        <time>2012-01-22T08:24:58Z</time>
      </trkpt>
      <trkpt lat="49.20046" lon="6.97672">
        <ele>320</ele>
        <time>2012-01-22T08:24:59Z</time>
      </trkpt>
      <trkpt lat="49.20046" lon="6.97674">
        <ele>320</ele>
        <time>2012-01-22T08:25:00Z</time>
      </trkpt>
      <trkpt lat="49.20045" lon="6.97677">
        <ele>320</ele>
        <time>2012-01-22T08:25:02Z</time>
      </trkpt>
      <trkpt lat="49.20045" lon="6.9768">
        <ele>320</ele>
        <time>2012-01-22T08:25:04Z</time>
      </trkpt>
      <trkpt lat="49.20045" lon="6.97682">
        <ele>320</ele>
        <time>2012-01-22T08:25:05Z</time>
      </trkpt>
      <trkpt lat="49.20045" lon="6.97683">
        <ele>320</ele>
        <time>2012-01-22T08:25:06Z</time>
      </trkpt>
      <trkpt lat="49.20045" lon="6.97687">
        <ele>320</ele>
        <time>2012-01-22T08:25:08Z</time>
      </trkpt>
      <trkpt lat="49.20045" lon="6.9769">
        <ele>320</ele>
        <time>2012-01-22T08:25:09Z</time>
      </trkpt>
      <trkpt lat="49.20045" lon="6.97692">
        <ele>320</ele>
        <time>2012-01-22T08:25:11Z</time>
      </trkpt>
      <trkpt lat="49.20045" lon="6.97694">
        <ele>320</ele>
        <time>2012-01-22T08:25:12Z</time>
      </trkpt>
      <trkpt lat="49.20045" lon="6.97697">
        <ele>320</ele>
        <time>2012-01-22T08:25:13Z</time>
      </trkpt>
      <trkpt lat="49.20045" lon="6.97699">
        <ele>320</ele>
        <time>2012-01-22T08:25:14Z</time>
      </trkpt>
      <trkpt lat="49.20045" lon="6.97701">
        <ele>320</ele>
        <time>2012-01-22T08:25:14Z</time>
      </trkpt>
      <trkpt lat="49.20045" lon="6.97703">
        <ele>320</ele>
        <time>2012-01-22T08:25:16Z</time>
      </trkpt>
      <trkpt lat="49.20045" lon="6.97706">
        <ele>320</ele>
        <time>2012-01-22T08:25:17Z</time>
      </trkpt>
      <trkpt lat="49.20045" lon="6.97708">
        <ele>320</ele>
        <time>2012-01-22T08:25:18Z</time>
      </trkpt>
      <trkpt lat="49.20045" lon="6.9771">
        <ele>320</ele>
        <time>2012-01-22T08:25:19Z</time>
      </trkpt>
      <trkpt lat="49.20045" lon="6.97712">
        <ele>320</ele>
        <time>2012-01-22T08:25:20Z</time>
      </trkpt>
      <trkpt lat="49.20045" lon="6.97714">
        <ele>320</ele>
        <time>2012-01-22T08:25:21Z</time>
      </trkpt>
      <trkpt lat="49.20045" lon="6.97716">
        <ele>319</ele>
        <time>2012-01-22T08:25:21Z</time>
      </trkpt>
      <trkpt lat="49.20045" lon="6.97718">
        <ele>318</ele>
        <time>2012-01-22T08:25:23Z</time>
      </trkpt>
      <trkpt lat="49.20046" lon="6.9772">
        <ele>318</ele>
        <time>2012-01-22T08:25:24Z</time>
      </trkpt>
      <trkpt lat="49.20046" lon="6.97723">
        <ele>317</ele>
        <time>2012-01-22T08:25:24Z</time>
      </trkpt>
      <trkpt lat="49.20046" lon="6.97727">
        <ele>317</ele>
        <time>2012-01-22T08:25:27Z</time>
      </trkpt>
      <trkpt lat="49.20047" lon="6.97728">
        <ele>317</ele>
        <time>2012-01-22T08:25:28Z</time>
      </trkpt>
      <trkpt lat="49.20047" lon="6.97732">
        <ele>317</ele>
        <time>2012-01-22T08:25:29Z</time>
      </trkpt>
      <trkpt lat="49.20046" lon="6.97733">
        <ele>317</ele>
        <time>2012-01-22T08:25:30Z</time>
      </trkpt>
      <trkpt lat="49.20046" lon="6.97735">
        <ele>317</ele>
        <time>2012-01-22T08:25:31Z</time>
      </trkpt>
      <trkpt lat="49.20045" lon="6.97737">
        <ele>317</ele>
        <time>2012-01-22T08:25:32Z</time>
      </trkpt>
      <trkpt lat="49.20045" lon="6.97739">
        <ele>317</ele>
        <time>2012-01-22T08:25:33Z</time>
      </trkpt>
      <trkpt lat="49.20045" lon="6.9774">
        <ele>317</ele>
        <time>2012-01-22T08:25:33Z</time>
      </trkpt>
      <trkpt lat="49.20045" lon="6.97742">
        <ele>317</ele>
        <time>2012-01-22T08:25:35Z</time>
      </trkpt>
      <trkpt lat="49.20045" lon="6.97744">
        <ele>317</ele>
        <time>2012-01-22T08:25:36Z</time>
      </trkpt>
      <trkpt lat="49.20045" lon="6.97746">
        <ele>317</ele>
        <time>2012-01-22T08:25:37Z</time>
      </trkpt>
      <trkpt lat="49.20045" lon="6.97748">
        <ele>316</ele>
        <time>2012-01-22T08:25:38Z</time>
      </trkpt>
      <trkpt lat="49.20045" lon="6.97749">
        <ele>316</ele>
        <time>2012-01-22T08:25:39Z</time>
      </trkpt>
      <trkpt lat="49.20045" lon="6.97751">
        <ele>316</ele>
        <time>2012-01-22T08:25:40Z</time>
      </trkpt>
      <trkpt lat="49.20045" lon="6.97753">
        <ele>316</ele>
        <time>2012-01-22T08:25:41Z</time>
      </trkpt>
      <trkpt lat="49.20046" lon="6.97755">
        <ele>315</ele>
        <time>2012-01-22T08:25:42Z</time>
      </trkpt>
      <trkpt lat="49.20046" lon="6.97757">
        <ele>315</ele>
        <time>2012-01-22T08:25:43Z</time>
      </trkpt>
      <trkpt lat="49.20045" lon="6.97759">
        <ele>315</ele>
        <time>2012-01-22T08:25:44Z</time>
      </trkpt>
      <trkpt lat="49.20045" lon="6.97761">
        <ele>315</ele>
        <time>2012-01-22T08:25:45Z</time>
      </trkpt>
      <trkpt lat="49.20045" lon="6.97763">
        <ele>314</ele>
        <time>2012-01-22T08:25:46Z</time>
      </trkpt>
      <trkpt lat="49.20045" lon="6.97765">
        <ele>314</ele>
        <time>2012-01-22T08:25:47Z</time>
      </trkpt>
      <trkpt lat="49.20045" lon="6.97767">
        <ele>314</ele>
        <time>2012-01-22T08:25:47Z</time>
      </trkpt>
      <trkpt lat="49.20045" lon="6.97771">
        <ele>314</ele>
        <time>2012-01-22T08:25:49Z</time>
      </trkpt>
      <trkpt lat="49.20045" lon="6.97773">
        <ele>314</ele>
        <time>2012-01-22T08:25:50Z</time>
      </trkpt>
      <trkpt lat="49.20045" lon="6.97776">
        <ele>314</ele>
        <time>2012-01-22T08:25:51Z</time>
      </trkpt>
      <trkpt lat="49.20045" lon="6.97778">
        <ele>314</ele>
        <time>2012-01-22T08:25:52Z</time>
      </trkpt>
      <trkpt lat="49.20045" lon="6.97781">
        <ele>314</ele>
        <time>2012-01-22T08:25:53Z</time>
      </trkpt>
      <trkpt lat="49.20046" lon="6.97783">
        <ele>314</ele>
        <time>2012-01-22T08:25:54Z</time>
      </trkpt>
      <trkpt lat="49.20046" lon="6.97785">
        <ele>314</ele>
        <time>2012-01-22T08:25:54Z</time>
      </trkpt>
      <trkpt lat="49.20046" lon="6.97788">
        <ele>314</ele>
        <time>2012-01-22T08:25:56Z</time>
      </trkpt>
      <trkpt lat="49.20045" lon="6.97791">
        <ele>314</ele>
        <time>2012-01-22T08:25:57Z</time>
      </trkpt>
      <trkpt lat="49.20045" lon="6.97793">
        <ele>315</ele>
        <time>2012-01-22T08:25:58Z</time>
      </trkpt>
      <trkpt lat="49.20046" lon="6.97795">
        <ele>315</ele>
        <time>2012-01-22T08:25:59Z</time>
      </trkpt>
      <trkpt lat="49.20046" lon="6.97797">
        <ele>316</ele>
        <time>2012-01-22T08:26:00Z</time>
      </trkpt>
      <trkpt lat="49.20046" lon="6.978">
        <ele>316</ele>
        <time>2012-01-22T08:26:01Z</time>
      </trkpt>
      <trkpt lat="49.20046" lon="6.97802">
        <ele>316</ele>
        <time>2012-01-22T08:26:02Z</time>
      </trkpt>
      <trkpt lat="49.20046" lon="6.97804">
        <ele>316</ele>
        <time>2012-01-22T08:26:03Z</time>
      </trkpt>
      <trkpt lat="49.20046" lon="6.97806">
        <ele>316</ele>
        <time>2012-01-22T08:26:04Z</time>
      </trkpt>
      <trkpt lat="49.20046" lon="6.97809">
        <ele>316</ele>
        <time>2012-01-22T08:26:05Z</time>
      </trkpt>
      <trkpt lat="49.20046" lon="6.97811">
        <ele>316</ele>
        <time>2012-01-22T08:26:06Z</time>
      </trkpt>
      <trkpt lat="49.20046" lon="6.97814">
        <ele>316</ele>
        <time>2012-01-22T08:26:07Z</time>
      </trkpt>
      <trkpt lat="49.20046" lon="6.97815">
        <ele>316</ele>
        <time>2012-01-22T08:26:08Z</time>
      </trkpt>
      <trkpt lat="49.20046" lon="6.97817">
        <ele>316</ele>
        <time>2012-01-22T08:26:08Z</time>
      </trkpt>
      <trkpt lat="49.20046" lon="6.97819">
        <ele>316</ele>
        <time>2012-01-22T08:26:10Z</time>
      </trkpt>
      <trkpt lat="49.20046" lon="6.97821">
        <ele>316</ele>
        <time>2012-01-22T08:26:11Z</time>
      </trkpt>
      <trkpt lat="49.20046" lon="6.97823">
        <ele>316</ele>
        <time>2012-01-22T08:26:12Z</time>
      </trkpt>
      <trkpt lat="49.20045" lon="6.97826">
        <ele>316</ele>
        <time>2012-01-22T08:26:13Z</time>
      </trkpt>
      <trkpt lat="49.20045" lon="6.97828">
        <ele>316</ele>
        <time>2012-01-22T08:26:14Z</time>
      </trkpt>
      <trkpt lat="49.20045" lon="6.9783">
        <ele>316</ele>
        <time>2012-01-22T08:26:15Z</time>
      </trkpt>
      <trkpt lat="49.20045" lon="6.97831">
        <ele>316</ele>
        <time>2012-01-22T08:26:16Z</time>
      </trkpt>
      <trkpt lat="49.20045" lon="6.97833">
        <ele>316</ele>
        <time>2012-01-22T08:26:17Z</time>
      </trkpt>
      <trkpt lat="49.20045" lon="6.97836">
        <ele>316</ele>
        <time>2012-01-22T08:26:18Z</time>
      </trkpt>
      <trkpt lat="49.20045" lon="6.97838">
        <ele>316</ele>
        <time>2012-01-22T08:26:19Z</time>
      </trkpt>
      <trkpt lat="49.20044" lon="6.97839">
        <ele>316</ele>
        <time>2012-01-22T08:26:20Z</time>
      </trkpt>
      <trkpt lat="49.20044" lon="6.97841">
        <ele>316</ele>
        <time>2012-01-22T08:26:20Z</time>
      </trkpt>
      <trkpt lat="49.20044" lon="6.97843">
        <ele>316</ele>
        <time>2012-01-22T08:26:22Z</time>
      </trkpt>
      <trkpt lat="49.20044" lon="6.97845">
        <ele>316</ele>
        <time>2012-01-22T08:26:23Z</time>
      </trkpt>
      <trkpt lat="49.20044" lon="6.97847">
        <ele>316</ele>
        <time>2012-01-22T08:26:24Z</time>
      </trkpt>
      <trkpt lat="49.20045" lon="6.97849">
        <ele>316</ele>
        <time>2012-01-22T08:26:25Z</time>
      </trkpt>
      <trkpt lat="49.20045" lon="6.97851">
        <ele>316</ele>
        <time>2012-01-22T08:26:26Z</time>
      </trkpt>
      <trkpt lat="49.20045" lon="6.97852">
        <ele>316</ele>
        <time>2012-01-22T08:26:27Z</time>
      </trkpt>
      <trkpt lat="49.20045" lon="6.97854">
        <ele>316</ele>
        <time>2012-01-22T08:26:28Z</time>
      </trkpt>
      <trkpt lat="49.20045" lon="6.97857">
        <ele>316</ele>
        <time>2012-01-22T08:26:30Z</time>
      </trkpt>
      <trkpt lat="49.20045" lon="6.97859">
        <ele>316</ele>
        <time>2012-01-22T08:26:31Z</time>
      </trkpt>
      <trkpt lat="49.20045" lon="6.97861">
        <ele>316</ele>
        <time>2012-01-22T08:26:32Z</time>
      </trkpt>
      <trkpt lat="49.20046" lon="6.97863">
        <ele>316</ele>
        <time>2012-01-22T08:26:33Z</time>
      </trkpt>
      <trkpt lat="49.20046" lon="6.97865">
        <ele>316</ele>
        <time>2012-01-22T08:26:34Z</time>
      </trkpt>
      <trkpt lat="49.20046" lon="6.97867">
        <ele>316</ele>
        <time>2012-01-22T08:26:35Z</time>
      </trkpt>
      <trkpt lat="49.20046" lon="6.97869">
        <ele>316</ele>
        <time>2012-01-22T08:26:36Z</time>
      </trkpt>
      <trkpt lat="49.20046" lon="6.97871">
        <ele>316</ele>
        <time>2012-01-22T08:26:37Z</time>
      </trkpt>
      <trkpt lat="49.20046" lon="6.97873">
        <ele>316</ele>
        <time>2012-01-22T08:26:38Z</time>
      </trkpt>
      <trkpt lat="49.20046" lon="6.97875">
        <ele>316</ele>
        <time>2012-01-22T08:26:39Z</time>
      </trkpt>
      <trkpt lat="49.20046" lon="6.97878">
        <ele>316</ele>
        <time>2012-01-22T08:26:40Z</time>
      </trkpt>
      <trkpt lat="49.20046" lon="6.97879">
        <ele>316</ele>
        <time>2012-01-22T08:26:41Z</time>
      </trkpt>
      <trkpt lat="49.20045" lon="6.97881">
        <ele>316</ele>
        <time>2012-01-22T08:26:42Z</time>
      </trkpt>
      <trkpt lat="49.20045" lon="6.97883">
        <ele>316</ele>
        <time>2012-01-22T08:26:43Z</time>
      </trkpt>
      <trkpt lat="49.20046" lon="6.97885">
        <ele>316</ele>
        <time>2012-01-22T08:26:44Z</time>
      </trkpt>
      <trkpt lat="49.20047" lon="6.97887">
        <ele>316</ele>
        <time>2012-01-22T08:26:44Z</time>
      </trkpt>
      <trkpt lat="49.20047" lon="6.97889">
        <ele>316</ele>
        <time>2012-01-22T08:26:46Z</time>
      </trkpt>
      <trkpt lat="49.20047" lon="6.97891">
        <ele>316</ele>
        <time>2012-01-22T08:26:46Z</time>
      </trkpt>
      <trkpt lat="49.20047" lon="6.97893">
        <ele>316</ele>
        <time>2012-01-22T08:26:48Z</time>
      </trkpt>
      <trkpt lat="49.20046" lon="6.97895">
        <ele>316</ele>
        <time>2012-01-22T08:26:48Z</time>
      </trkpt>
      <trkpt lat="49.20046" lon="6.97897">
        <ele>316</ele>
        <time>2012-01-22T08:26:50Z</time>
      </trkpt>
      <trkpt lat="49.20046" lon="6.97899">
        <ele>316</ele>
        <time>2012-01-22T08:26:51Z</time>
      </trkpt>
      <trkpt lat="49.20045" lon="6.97902">
        <ele>316</ele>
        <time>2012-01-22T08:26:52Z</time>
      </trkpt>
      <trkpt lat="49.20045" lon="6.97906">
        <ele>316</ele>
        <time>2012-01-22T08:26:52Z</time>
      </trkpt>
      <trkpt lat="49.20045" lon="6.97908">
        <ele>316</ele>
        <time>2012-01-22T08:26:54Z</time>
      </trkpt>
      <trkpt lat="49.20045" lon="6.97909">
        <ele>317</ele>
        <time>2012-01-22T08:26:55Z</time>
      </trkpt>
      <trkpt lat="49.20044" lon="6.97911">
        <ele>317</ele>
        <time>2012-01-22T08:26:56Z</time>
      </trkpt>
      <trkpt lat="49.20045" lon="6.97913">
        <ele>318</ele>
        <time>2012-01-22T08:26:57Z</time>
      </trkpt>
      <trkpt lat="49.20045" lon="6.97916">
        <ele>318</ele>
        <time>2012-01-22T08:26:59Z</time>
      </trkpt>
      <trkpt lat="49.20045" lon="6.97918">
        <ele>318</ele>
        <time>2012-01-22T08:26:59Z</time>
      </trkpt>
      <trkpt lat="49.20045" lon="6.9792">
        <ele>318</ele>
        <time>2012-01-22T08:27:01Z</time>
      </trkpt>
      <trkpt lat="49.20045" lon="6.97921">
        <ele>318</ele>
        <time>2012-01-22T08:27:02Z</time>
      </trkpt>
      <trkpt lat="49.20045" lon="6.97923">
        <ele>318</ele>
        <time>2012-01-22T08:27:03Z</time>
      </trkpt>
      <trkpt lat="49.20045" lon="6.97925">
        <ele>318</ele>
        <time>2012-01-22T08:27:04Z</time>
      </trkpt>
      <trkpt lat="49.20046" lon="6.97927">
        <ele>318</ele>
        <time>2012-01-22T08:27:05Z</time>
      </trkpt>
      <trkpt lat="49.20046" lon="6.97929">
        <ele>318</ele>
        <time>2012-01-22T08:27:05Z</time>
      </trkpt>
      <trkpt lat="49.20046" lon="6.97932">
        <ele>318</ele>
        <time>2012-01-22T08:27:07Z</time>
      </trkpt>
      <trkpt lat="49.20047" lon="6.97934">
        <ele>318</ele>
        <time>2012-01-22T08:27:08Z</time>
      </trkpt>
      <trkpt lat="49.20047" lon="6.97936">
        <ele>318</ele>
        <time>2012-01-22T08:27:09Z</time>
      </trkpt>
      <trkpt lat="49.20047" lon="6.97938">
        <ele>318</ele>
        <time>2012-01-22T08:27:10Z</time>
      </trkpt>
      <trkpt lat="49.20047" lon="6.97941">
        <ele>318</ele>
        <time>2012-01-22T08:27:11Z</time>
      </trkpt>
      <trkpt lat="49.20047" lon="6.97944">
        <ele>318</ele>
        <time>2012-01-22T08:27:13Z</time>
      </trkpt>
      <trkpt lat="49.20048" lon="6.97947">
        <ele>318</ele>
        <time>2012-01-22T08:27:14Z</time>
      </trkpt>
      <trkpt lat="49.20048" lon="6.97948">
        <ele>318</ele>
        <time>2012-01-22T08:27:15Z</time>
      </trkpt>
      <trkpt lat="49.20049" lon="6.9795">
        <ele>318</ele>
        <time>2012-01-22T08:27:16Z</time>
      </trkpt>
      <trkpt lat="49.2005" lon="6.97953">
        <ele>318</ele>
        <time>2012-01-22T08:27:17Z</time>
      </trkpt>
      <trkpt lat="49.2005" lon="6.97955">
        <ele>318</ele>
        <time>2012-01-22T08:27:17Z</time>
      </trkpt>
      <trkpt lat="49.2005" lon="6.97958">
        <ele>318</ele>
        <time>2012-01-22T08:27:19Z</time>
      </trkpt>
      <trkpt lat="49.2005" lon="6.9796">
        <ele>318</ele>
        <time>2012-01-22T08:27:21Z</time>
      </trkpt>
      <trkpt lat="49.2005" lon="6.97964">
        <ele>318</ele>
        <time>2012-01-22T08:27:23Z</time>
      </trkpt>
      <trkpt lat="49.20051" lon="6.97966">
        <ele>318</ele>
        <time>2012-01-22T08:27:24Z</time>
      </trkpt>
      <trkpt lat="49.20052" lon="6.97971">
        <ele>318</ele>
        <time>2012-01-22T08:27:25Z</time>
      </trkpt>
      <trkpt lat="49.20052" lon="6.97975">
        <ele>318</ele>
        <time>2012-01-22T08:27:28Z</time>
      </trkpt>
      <trkpt lat="49.20052" lon="6.97977">
        <ele>319</ele>
        <time>2012-01-22T08:27:29Z</time>
      </trkpt>
      <trkpt lat="49.20052" lon="6.97979">
        <ele>319</ele>
        <time>2012-01-22T08:27:30Z</time>
      </trkpt>
      <trkpt lat="49.20054" lon="6.97982">
        <ele>320</ele>
        <time>2012-01-22T08:27:32Z</time>
      </trkpt>
      <trkpt lat="49.20055" lon="6.97983">
        <ele>320</ele>
        <time>2012-01-22T08:27:33Z</time>
      </trkpt>
      <trkpt lat="49.20056" lon="6.97985">
        <ele>320</ele>
        <time>2012-01-22T08:27:33Z</time>
      </trkpt>
      <trkpt lat="49.20057" lon="6.97987">
        <ele>320</ele>
        <time>2012-01-22T08:27:35Z</time>
      </trkpt>
      <trkpt lat="49.20057" lon="6.9799">
        <ele>321</ele>
        <time>2012-01-22T08:27:37Z</time>
      </trkpt>
      <trkpt lat="49.20056" lon="6.97992">
        <ele>321</ele>
        <time>2012-01-22T08:27:39Z</time>
      </trkpt>
      <trkpt lat="49.20057" lon="6.97995">
        <ele>321</ele>
        <time>2012-01-22T08:27:41Z</time>
      </trkpt>
      <trkpt lat="49.20058" lon="6.97997">
        <ele>321</ele>
        <time>2012-01-22T08:27:42Z</time>
      </trkpt>
      <trkpt lat="49.20059" lon="6.98">
        <ele>321</ele>
        <time>2012-01-22T08:27:43Z</time>
      </trkpt>
      <trkpt lat="49.20059" lon="6.98003">
        <ele>321</ele>
        <time>2012-01-22T08:27:44Z</time>
      </trkpt>
      <trkpt lat="49.2006" lon="6.98005">
        <ele>321</ele>
        <time>2012-01-22T08:27:45Z</time>
      </trkpt>
      <trkpt lat="49.20061" lon="6.98006">
        <ele>321</ele>
        <time>2012-01-22T08:27:46Z</time>
      </trkpt>
      <trkpt lat="49.20062" lon="6.98008">
        <ele>321</ele>
        <time>2012-01-22T08:27:47Z</time>
      </trkpt>
      <trkpt lat="49.20063" lon="6.9801">
        <ele>321</ele>
        <time>2012-01-22T08:27:48Z</time>
      </trkpt>
      <trkpt lat="49.20066" lon="6.98011">
        <ele>321</ele>
        <time>2012-01-22T08:27:49Z</time>
      </trkpt>
      <trkpt lat="49.20067" lon="6.98012">
        <ele>321</ele>
        <time>2012-01-22T08:27:50Z</time>
      </trkpt>
      <trkpt lat="49.20068" lon="6.98017">
        <ele>321</ele>
        <time>2012-01-22T08:27:52Z</time>
      </trkpt>
      <trkpt lat="49.2007" lon="6.98019">
        <ele>321</ele>
        <time>2012-01-22T08:27:52Z</time>
      </trkpt>
      <trkpt lat="49.20071" lon="6.98022">
        <ele>321</ele>
        <time>2012-01-22T08:27:55Z</time>
      </trkpt>
      <trkpt lat="49.20072" lon="6.98024">
        <ele>321</ele>
        <time>2012-01-22T08:27:56Z</time>
      </trkpt>
      <trkpt lat="49.20073" lon="6.98027">
        <ele>321</ele>
        <time>2012-01-22T08:27:57Z</time>
      </trkpt>
      <trkpt lat="49.20074" lon="6.9803">
        <ele>321</ele>
        <time>2012-01-22T08:27:59Z</time>
      </trkpt>
      <trkpt lat="49.20075" lon="6.98033">
        <ele>321</ele>
        <time>2012-01-22T08:28:01Z</time>
      </trkpt>
      <trkpt lat="49.20077" lon="6.98036">
        <ele>321</ele>
        <time>2012-01-22T08:28:03Z</time>
      </trkpt>
      <trkpt lat="49.20078" lon="6.98038">
        <ele>321</ele>
        <time>2012-01-22T08:28:04Z</time>
      </trkpt>
      <trkpt lat="49.20078" lon="6.98039">
        <ele>321</ele>
        <time>2012-01-22T08:28:05Z</time>
      </trkpt>
      <trkpt lat="49.20079" lon="6.98041">
        <ele>321</ele>
        <time>2012-01-22T08:28:06Z</time>
      </trkpt>
      <trkpt lat="49.20079" lon="6.98043">
        <ele>321</ele>
        <time>2012-01-22T08:28:07Z</time>
      </trkpt>
      <trkpt lat="49.20081" lon="6.98046">
        <ele>321</ele>
        <time>2012-01-22T08:28:09Z</time>
      </trkpt>
      <trkpt lat="49.2008" lon="6.98048">
        <ele>321</ele>
        <time>2012-01-22T08:28:11Z</time>
      </trkpt>
      <trkpt lat="49.2008" lon="6.9805">
        <ele>321</ele>
        <time>2012-01-22T08:28:12Z</time>
      </trkpt>
      <trkpt lat="49.20081" lon="6.98052">
        <ele>321</ele>
        <time>2012-01-22T08:28:13Z</time>
      </trkpt>
      <trkpt lat="49.20081" lon="6.98054">
        <ele>321</ele>
        <time>2012-01-22T08:28:14Z</time>
      </trkpt>
      <trkpt lat="49.20081" lon="6.98055">
        <ele>321</ele>
        <time>2012-01-22T08:28:15Z</time>
      </trkpt>
      <trkpt lat="49.20083" lon="6.98057">
        <ele>321</ele>
        <time>2012-01-22T08:28:16Z</time>
      </trkpt>
      <trkpt lat="49.20085" lon="6.9806">
        <ele>321</ele>
        <time>2012-01-22T08:28:18Z</time>
      </trkpt>
      <trkpt lat="49.20086" lon="6.98062">
        <ele>321</ele>
        <time>2012-01-22T08:28:19Z</time>
      </trkpt>
      <trkpt lat="49.20086" lon="6.98065">
        <ele>321</ele>
        <time>2012-01-22T08:28:21Z</time>
      </trkpt>
      <trkpt lat="49.20087" lon="6.98067">
        <ele>321</ele>
        <time>2012-01-22T08:28:23Z</time>
      </trkpt>
      <trkpt lat="49.20087" lon="6.9807">
        <ele>321</ele>
        <time>2012-01-22T08:28:25Z</time>
      </trkpt>
      <trkpt lat="49.20087" lon="6.98072">
        <ele>321</ele>
        <time>2012-01-22T08:28:26Z</time>
      </trkpt>
      <trkpt lat="49.20088" lon="6.98076">
        <ele>321</ele>
        <time>2012-01-22T08:28:28Z</time>
      </trkpt>
      <trkpt lat="49.20088" lon="6.98078">
        <ele>321</ele>
        <time>2012-01-22T08:28:30Z</time>
      </trkpt>
      <trkpt lat="49.20089" lon="6.98082">
        <ele>321</ele>
        <time>2012-01-22T08:28:32Z</time>
      </trkpt>
      <trkpt lat="49.20089" lon="6.98084">
        <ele>320</ele>
        <time>2012-01-22T08:28:33Z</time>
      </trkpt>
      <trkpt lat="49.2009" lon="6.98086">
        <ele>319</ele>
        <time>2012-01-22T08:28:34Z</time>
      </trkpt>
      <trkpt lat="49.20091" lon="6.9809">
        <ele>318</ele>
        <time>2012-01-22T08:28:36Z</time>
      </trkpt>
      <trkpt lat="49.20092" lon="6.98093">
        <ele>317</ele>
        <time>2012-01-22T08:28:38Z</time>
      </trkpt>
      <trkpt lat="49.20094" lon="6.98095">
        <ele>317</ele>
        <time>2012-01-22T08:28:40Z</time>
      </trkpt>
      <trkpt lat="49.20095" lon="6.98097">
        <ele>315</ele>
        <time>2012-01-22T08:28:42Z</time>
      </trkpt>
      <trkpt lat="49.20096" lon="6.98099">
        <ele>314</ele>
        <time>2012-01-22T08:28:44Z</time>
      </trkpt>
      <trkpt lat="49.20097" lon="6.98103">
        <ele>312</ele>
        <time>2012-01-22T08:28:46Z</time>
      </trkpt>
      <trkpt lat="49.20098" lon="6.98104">
        <ele>312</ele>
        <time>2012-01-22T08:28:47Z</time>
      </trkpt>
      <trkpt lat="49.20098" lon="6.98106">
        <ele>311</ele>
        <time>2012-01-22T08:28:48Z</time>
      </trkpt>
      <trkpt lat="49.20099" lon="6.98108">
        <ele>310</ele>
        <time>2012-01-22T08:28:49Z</time>
      </trkpt>
      <trkpt lat="49.201" lon="6.9811">
        <ele>310</ele>
        <time>2012-01-22T08:28:50Z</time>
      </trkpt>
      <trkpt lat="49.201" lon="6.98111">
        <ele>309</ele>
        <time>2012-01-22T08:28:51Z</time>
      </trkpt>
      <trkpt lat="49.20101" lon="6.98113">
        <ele>309</ele>
        <time>2012-01-22T08:28:52Z</time>
      </trkpt>
      <trkpt lat="49.20101" lon="6.98115">
        <ele>309</ele>
        <time>2012-01-22T08:28:53Z</time>
      </trkpt>
      <trkpt lat="49.20101" lon="6.98117">
        <ele>309</ele>
        <time>2012-01-22T08:28:54Z</time>
      </trkpt>
      <trkpt lat="49.20101" lon="6.98119">
        <ele>309</ele>
        <time>2012-01-22T08:28:55Z</time>
      </trkpt>
      <trkpt lat="49.20101" lon="6.98122">
        <ele>309</ele>
        <time>2012-01-22T08:28:56Z</time>
      </trkpt>
      <trkpt lat="49.20102" lon="6.98123">
        <ele>309</ele>
        <time>2012-01-22T08:28:56Z</time>
      </trkpt>
      <trkpt lat="49.20102" lon="6.98125">
        <ele>309</ele>
        <time>2012-01-22T08:28:58Z</time>
      </trkpt>
      <trkpt lat="49.20103" lon="6.98127">
        <ele>309</ele>
        <time>2012-01-22T08:28:59Z</time>
      </trkpt>
      <trkpt lat="49.20103" lon="6.98129">
        <ele>309</ele>
        <time>2012-01-22T08:29:00Z</time>
      </trkpt>
      <trkpt lat="49.20104" lon="6.98131">
        <ele>309</ele>
        <time>2012-01-22T08:29:01Z</time>
      </trkpt>
      <trkpt lat="49.20104" lon="6.98133">
        <ele>309</ele>
        <time>2012-01-22T08:29:02Z</time>
      </trkpt>
      <trkpt lat="49.20105" lon="6.98136">
        <ele>309</ele>
        <time>2012-01-22T08:29:03Z</time>
      </trkpt>
      <trkpt lat="49.20106" lon="6.98138">
        <ele>309</ele>
        <time>2012-01-22T08:29:04Z</time>
      </trkpt>
      <trkpt lat="49.20107" lon="6.9814">
        <ele>309</ele>
        <time>2012-01-22T08:29:05Z</time>
      </trkpt>
      <trkpt lat="49.20108" lon="6.98142">
        <ele>309</ele>
        <time>2012-01-22T08:29:06Z</time>
      </trkpt>
      <trkpt lat="49.20109" lon="6.98144">
        <ele>309</ele>
        <time>2012-01-22T08:29:08Z</time>
      </trkpt>
      <trkpt lat="49.2011" lon="6.98148">
        <ele>309</ele>
        <time>2012-01-22T08:29:10Z</time>
      </trkpt>
      <trkpt lat="49.20111" lon="6.98151">
        <ele>309</ele>
        <time>2012-01-22T08:29:12Z</time>
      </trkpt>
      <trkpt lat="49.20113" lon="6.98154">
        <ele>309</ele>
        <time>2012-01-22T08:29:14Z</time>
      </trkpt>
      <trkpt lat="49.20113" lon="6.98156">
        <ele>309</ele>
        <time>2012-01-22T08:29:15Z</time>
      </trkpt>
      <trkpt lat="49.20114" lon="6.98158">
        <ele>309</ele>
        <time>2012-01-22T08:29:16Z</time>
      </trkpt>
      <trkpt lat="49.20115" lon="6.98159">
        <ele>309</ele>
        <time>2012-01-22T08:29:17Z</time>
      </trkpt>
      <trkpt lat="49.20115" lon="6.98161">
        <ele>309</ele>
        <time>2012-01-22T08:29:17Z</time>
      </trkpt>
      <trkpt lat="49.20116" lon="6.98163">
        <ele>309</ele>
        <time>2012-01-22T08:29:19Z</time>
      </trkpt>
      <trkpt lat="49.20117" lon="6.98166">
        <ele>309</ele>
        <time>2012-01-22T08:29:21Z</time>
      </trkpt>
      <trkpt lat="49.20118" lon="6.98168">
        <ele>309</ele>
        <time>2012-01-22T08:29:22Z</time>
      </trkpt>
      <trkpt lat="49.20119" lon="6.98171">
        <ele>309</ele>
        <time>2012-01-22T08:29:24Z</time>
      </trkpt>
      <trkpt lat="49.2012" lon="6.98172">
        <ele>309</ele>
        <time>2012-01-22T08:29:25Z</time>
      </trkpt>
      <trkpt lat="49.20122" lon="6.98175">
        <ele>309</ele>
        <time>2012-01-22T08:29:27Z</time>
      </trkpt>
      <trkpt lat="49.20123" lon="6.98177">
        <ele>309</ele>
        <time>2012-01-22T08:29:28Z</time>
      </trkpt>
      <trkpt lat="49.20123" lon="6.98179">
        <ele>309</ele>
        <time>2012-01-22T08:29:29Z</time>
      </trkpt>
      <trkpt lat="49.20124" lon="6.98182">
        <ele>309</ele>
        <time>2012-01-22T08:29:31Z</time>
      </trkpt>
      <trkpt lat="49.20126" lon="6.98185">
        <ele>309</ele>
        <time>2012-01-22T08:29:33Z</time>
      </trkpt>
      <trkpt lat="49.20128" lon="6.98188">
        <ele>309</ele>
        <time>2012-01-22T08:29:35Z</time>
      </trkpt>
      <trkpt lat="49.20129" lon="6.98189">
        <ele>309</ele>
        <time>2012-01-22T08:29:36Z</time>
      </trkpt>
      <trkpt lat="49.2013" lon="6.98191">
        <ele>309</ele>
        <time>2012-01-22T08:29:36Z</time>
      </trkpt>
      <trkpt lat="49.20132" lon="6.98195">
        <ele>309</ele>
        <time>2012-01-22T08:29:39Z</time>
      </trkpt>
      <trkpt lat="49.20133" lon="6.98199">
        <ele>309</ele>
        <time>2012-01-22T08:29:40Z</time>
      </trkpt>
      <trkpt lat="49.20135" lon="6.98201">
        <ele>309</ele>
        <time>2012-01-22T08:29:41Z</time>
      </trkpt>
      <trkpt lat="49.20136" lon="6.98205">
        <ele>310</ele>
        <time>2012-01-22T08:29:43Z</time>
      </trkpt>
      <trkpt lat="49.20137" lon="6.98207">
        <ele>311</ele>
        <time>2012-01-22T08:29:44Z</time>
      </trkpt>
      <trkpt lat="49.20138" lon="6.98208">
        <ele>312</ele>
        <time>2012-01-22T08:29:44Z</time>
      </trkpt>
      <trkpt lat="49.2014" lon="6.98211">
        <ele>312</ele>
        <time>2012-01-22T08:29:47Z</time>
      </trkpt>
      <trkpt lat="49.2014" lon="6.98213">
        <ele>313</ele>
        <time>2012-01-22T08:29:48Z</time>
      </trkpt>
      <trkpt lat="49.20141" lon="6.98215">
        <ele>313</ele>
        <time>2012-01-22T08:29:49Z</time>
      </trkpt>
      <trkpt lat="49.20142" lon="6.98217">
        <ele>313</ele>
        <time>2012-01-22T08:29:50Z</time>
      </trkpt>
      <trkpt lat="49.20143" lon="6.98219">
        <ele>313</ele>
        <time>2012-01-22T08:29:51Z</time>
      </trkpt>
      <trkpt lat="49.20144" lon="6.98223">
        <ele>314</ele>
        <time>2012-01-22T08:29:53Z</time>
      </trkpt>
      <trkpt lat="49.20144" lon="6.98224">
        <ele>314</ele>
        <time>2012-01-22T08:29:53Z</time>
      </trkpt>
      <trkpt lat="49.20144" lon="6.98226">
        <ele>314</ele>
        <time>2012-01-22T08:29:55Z</time>
      </trkpt>
      <trkpt lat="49.20145" lon="6.98228">
        <ele>314</ele>
        <time>2012-01-22T08:29:56Z</time>
      </trkpt>
      <trkpt lat="49.20146" lon="6.98229">
        <ele>315</ele>
        <time>2012-01-22T08:29:57Z</time>
      </trkpt>
      <trkpt lat="49.20147" lon="6.98232">
        <ele>315</ele>
        <time>2012-01-22T08:29:59Z</time>
      </trkpt>
      <trkpt lat="49.20147" lon="6.98234">
        <ele>315</ele>
        <time>2012-01-22T08:29:59Z</time>
      </trkpt>
      <trkpt lat="49.20147" lon="6.98236">
        <ele>316</ele>
        <time>2012-01-22T08:30:00Z</time>
      </trkpt>
      <trkpt lat="49.20148" lon="6.98238">
        <ele>316</ele>
        <time>2012-01-22T08:30:01Z</time>
      </trkpt>
      <trkpt lat="49.20149" lon="6.98241">
        <ele>316</ele>
        <time>2012-01-22T08:30:04Z</time>
      </trkpt>
      <trkpt lat="49.2015" lon="6.98243">
        <ele>316</ele>
        <time>2012-01-22T08:30:04Z</time>
      </trkpt>
      <trkpt lat="49.20151" lon="6.98246">
        <ele>316</ele>
        <time>2012-01-22T08:30:07Z</time>
      </trkpt>
      <trkpt lat="49.20152" lon="6.98249">
        <ele>316</ele>
        <time>2012-01-22T08:30:08Z</time>
      </trkpt>
      <trkpt lat="49.20153" lon="6.98251">
        <ele>316</ele>
        <time>2012-01-22T08:30:10Z</time>
      </trkpt>
      <trkpt lat="49.20153" lon="6.98253">
        <ele>316</ele>
        <time>2012-01-22T08:30:11Z</time>
      </trkpt>
      <trkpt lat="49.20155" lon="6.98256">
        <ele>317</ele>
        <time>2012-01-22T08:30:12Z</time>
      </trkpt>
      <trkpt lat="49.20156" lon="6.98258">
        <ele>317</ele>
        <time>2012-01-22T08:30:14Z</time>
      </trkpt>
      <trkpt lat="49.20156" lon="6.98261">
        <ele>317</ele>
        <time>2012-01-22T08:30:15Z</time>
      </trkpt>
      <trkpt lat="49.20157" lon="6.98263">
        <ele>317</ele>
        <time>2012-01-22T08:30:15Z</time>
      </trkpt>
      <trkpt lat="49.20159" lon="6.98266">
        <ele>318</ele>
        <time>2012-01-22T08:30:18Z</time>
      </trkpt>
      <trkpt lat="49.20161" lon="6.98268">
        <ele>318</ele>
        <time>2012-01-22T08:30:20Z</time>
      </trkpt>
      <trkpt lat="49.20162" lon="6.98271">
        <ele>318</ele>
        <time>2012-01-22T08:30:21Z</time>
      </trkpt>
      <trkpt lat="49.20163" lon="6.98273">
        <ele>318</ele>
        <time>2012-01-22T08:30:23Z</time>
      </trkpt>
      <trkpt lat="49.20164" lon="6.98276">
        <ele>318</ele>
        <time>2012-01-22T08:30:24Z</time>
      </trkpt>
      <trkpt lat="49.20165" lon="6.98277">
        <ele>318</ele>
        <time>2012-01-22T08:30:26Z</time>
      </trkpt>
      <trkpt lat="49.20166" lon="6.9828">
        <ele>318</ele>
        <time>2012-01-22T08:30:28Z</time>
      </trkpt>
      <trkpt lat="49.20168" lon="6.98283">
        <ele>318</ele>
        <time>2012-01-22T08:30:29Z</time>
      </trkpt>
      <trkpt lat="49.20168" lon="6.98284">
        <ele>318</ele>
        <time>2012-01-22T08:30:31Z</time>
      </trkpt>
      <trkpt lat="49.20169" lon="6.98287">
        <ele>318</ele>
        <time>2012-01-22T08:30:32Z</time>
      </trkpt>
      <trkpt lat="49.2017" lon="6.98289">
        <ele>318</ele>
        <time>2012-01-22T08:30:34Z</time>
      </trkpt>
      <trkpt lat="49.20171" lon="6.98291">
        <ele>318</ele>
        <time>2012-01-22T08:30:35Z</time>
      </trkpt>
      <trkpt lat="49.20171" lon="6.98293">
        <ele>318</ele>
        <time>2012-01-22T08:30:36Z</time>
      </trkpt>
      <trkpt lat="49.20172" lon="6.98294">
        <ele>318</ele>
        <time>2012-01-22T08:30:37Z</time>
      </trkpt>
      <trkpt lat="49.20173" lon="6.98297">
        <ele>318</ele>
        <time>2012-01-22T08:30:38Z</time>
      </trkpt>
      <trkpt lat="49.20174" lon="6.98299">
        <ele>318</ele>
        <time>2012-01-22T08:30:39Z</time>
      </trkpt>
      <trkpt lat="49.20175" lon="6.98301">
        <ele>318</ele>
        <time>2012-01-22T08:30:40Z</time>
      </trkpt>
      <trkpt lat="49.20176" lon="6.98303">
        <ele>318</ele>
        <time>2012-01-22T08:30:41Z</time>
      </trkpt>
      <trkpt lat="49.20177" lon="6.98305">
        <ele>318</ele>
        <time>2012-01-22T08:30:42Z</time>
      </trkpt>
      <trkpt lat="49.20177" lon="6.98307">
        <ele>319</ele>
        <time>2012-01-22T08:30:43Z</time>
      </trkpt>
      <trkpt lat="49.20178" lon="6.98309">
        <ele>319</ele>
        <time>2012-01-22T08:30:44Z</time>
      </trkpt>
      <trkpt lat="49.20178" lon="6.9831">
        <ele>320</ele>
        <time>2012-01-22T08:30:45Z</time>
      </trkpt>
      <trkpt lat="49.20179" lon="6.98312">
        <ele>320</ele>
        <time>2012-01-22T08:30:45Z</time>
      </trkpt>
      <trkpt lat="49.2018" lon="6.98314">
        <ele>320</ele>
        <time>2012-01-22T08:30:47Z</time>
      </trkpt>
      <trkpt lat="49.20181" lon="6.98316">
        <ele>321</ele>
        <time>2012-01-22T08:30:48Z</time>
      </trkpt>
      <trkpt lat="49.20182" lon="6.98319">
        <ele>321</ele>
        <time>2012-01-22T08:30:50Z</time>
      </trkpt>
      <trkpt lat="49.20183" lon="6.98322">
        <ele>321</ele>
        <time>2012-01-22T08:30:52Z</time>
      </trkpt>
      <trkpt lat="49.20184" lon="6.98324">
        <ele>321</ele>
        <time>2012-01-22T08:30:53Z</time>
      </trkpt>
      <trkpt lat="49.20184" lon="6.98326">
        <ele>321</ele>
        <time>2012-01-22T08:30:54Z</time>
      </trkpt>
      <trkpt lat="49.20185" lon="6.98327">
        <ele>321</ele>
        <time>2012-01-22T08:30:55Z</time>
      </trkpt>
      <trkpt lat="49.20185" lon="6.98332">
        <ele>321</ele>
        <time>2012-01-22T08:30:56Z</time>
      </trkpt>
      <trkpt lat="49.20185" lon="6.98335">
        <ele>322</ele>
        <time>2012-01-22T08:30:56Z</time>
      </trkpt>
      <trkpt lat="49.20185" lon="6.98337">
        <ele>322</ele>
        <time>2012-01-22T08:30:57Z</time>
      </trkpt>
      <trkpt lat="49.20186" lon="6.98339">
        <ele>323</ele>
        <time>2012-01-22T08:30:59Z</time>
      </trkpt>
      <trkpt lat="49.20187" lon="6.98341">
        <ele>323</ele>
        <time>2012-01-22T08:31:00Z</time>
      </trkpt>
      <trkpt lat="49.20187" lon="6.98343">
        <ele>323</ele>
        <time>2012-01-22T08:31:01Z</time>
      </trkpt>
      <trkpt lat="49.20187" lon="6.98345">
        <ele>323</ele>
        <time>2012-01-22T08:31:02Z</time>
      </trkpt>
      <trkpt lat="49.20187" lon="6.98347">
        <ele>323</ele>
        <time>2012-01-22T08:31:03Z</time>
      </trkpt>
      <trkpt lat="49.20187" lon="6.98349">
        <ele>323</ele>
        <time>2012-01-22T08:31:04Z</time>
      </trkpt>
      <trkpt lat="49.20187" lon="6.98352">
        <ele>323</ele>
        <time>2012-01-22T08:31:05Z</time>
      </trkpt>
      <trkpt lat="49.20187" lon="6.98354">
        <ele>323</ele>
        <time>2012-01-22T08:31:05Z</time>
      </trkpt>
      <trkpt lat="49.20186" lon="6.98356">
        <ele>323</ele>
        <time>2012-01-22T08:31:06Z</time>
      </trkpt>
      <trkpt lat="49.20186" lon="6.98358">
        <ele>323</ele>
        <time>2012-01-22T08:31:08Z</time>
      </trkpt>
      <trkpt lat="49.20185" lon="6.9836">
        <ele>323</ele>
        <time>2012-01-22T08:31:09Z</time>
      </trkpt>
      <trkpt lat="49.20184" lon="6.98362">
        <ele>323</ele>
        <time>2012-01-22T08:31:10Z</time>
      </trkpt>
      <trkpt lat="49.20183" lon="6.98365">
        <ele>323</ele>
        <time>2012-01-22T08:31:11Z</time>
      </trkpt>
      <trkpt lat="49.20182" lon="6.98367">
        <ele>323</ele>
        <time>2012-01-22T08:31:13Z</time>
      </trkpt>
      <trkpt lat="49.20181" lon="6.9837">
        <ele>323</ele>
        <time>2012-01-22T08:31:15Z</time>
      </trkpt>
      <trkpt lat="49.2018" lon="6.98373">
        <ele>323</ele>
        <time>2012-01-22T08:31:16Z</time>
      </trkpt>
      <trkpt lat="49.20178" lon="6.98376">
        <ele>323</ele>
        <time>2012-01-22T08:31:19Z</time>
      </trkpt>
      <trkpt lat="49.20176" lon="6.98379">
        <ele>323</ele>
        <time>2012-01-22T08:31:21Z</time>
      </trkpt>
      <trkpt lat="49.20176" lon="6.9838">
        <ele>323</ele>
        <time>2012-01-22T08:31:22Z</time>
      </trkpt>
      <trkpt lat="49.20175" lon="6.98382">
        <ele>323</ele>
        <time>2012-01-22T08:31:22Z</time>
      </trkpt>
      <trkpt lat="49.20173" lon="6.98385">
        <ele>323</ele>
        <time>2012-01-22T08:31:24Z</time>
      </trkpt>
      <trkpt lat="49.20171" lon="6.98387">
        <ele>323</ele>
        <time>2012-01-22T08:31:26Z</time>
      </trkpt>
      <trkpt lat="49.2017" lon="6.9839">
        <ele>323</ele>
        <time>2012-01-22T08:31:28Z</time>
      </trkpt>
      <trkpt lat="49.20168" lon="6.98393">
        <ele>323</ele>
        <time>2012-01-22T08:31:31Z</time>
      </trkpt>
      <trkpt lat="49.20166" lon="6.98396">
        <ele>323</ele>
        <time>2012-01-22T08:31:33Z</time>
      </trkpt>
      <trkpt lat="49.20166" lon="6.98398">
        <ele>323</ele>
        <time>2012-01-22T08:31:34Z</time>
      </trkpt>
      <trkpt lat="49.20164" lon="6.98401">
        <ele>323</ele>
        <time>2012-01-22T08:31:35Z</time>
      </trkpt>
      <trkpt lat="49.20162" lon="6.98403">
        <ele>323</ele>
        <time>2012-01-22T08:31:38Z</time>
      </trkpt>
      <trkpt lat="49.20162" lon="6.98405">
        <ele>323</ele>
        <time>2012-01-22T08:31:39Z</time>
      </trkpt>
      <trkpt lat="49.2016" lon="6.98408">
        <ele>323</ele>
        <time>2012-01-22T08:31:41Z</time>
      </trkpt>
      <trkpt lat="49.20158" lon="6.98411">
        <ele>323</ele>
        <time>2012-01-22T08:31:43Z</time>
      </trkpt>
      <trkpt lat="49.20157" lon="6.98415">
        <ele>323</ele>
        <time>2012-01-22T08:31:44Z</time>
      </trkpt>
      <trkpt lat="49.20156" lon="6.98416">
        <ele>323</ele>
        <time>2012-01-22T08:31:45Z</time>
      </trkpt>
      <trkpt lat="49.20155" lon="6.98418">
        <ele>323</ele>
        <time>2012-01-22T08:31:46Z</time>
      </trkpt>
      <trkpt lat="49.20153" lon="6.98421">
        <ele>323</ele>
        <time>2012-01-22T08:31:48Z</time>
      </trkpt>
      <trkpt lat="49.20152" lon="6.98423">
        <ele>323</ele>
        <time>2012-01-22T08:31:49Z</time>
      </trkpt>
      <trkpt lat="49.2015" lon="6.98426">
        <ele>323</ele>
        <time>2012-01-22T08:31:52Z</time>
      </trkpt>
      <trkpt lat="49.20148" lon="6.98429">
        <ele>323</ele>
        <time>2012-01-22T08:31:54Z</time>
      </trkpt>
      <trkpt lat="49.20147" lon="6.98433">
        <ele>323</ele>
        <time>2012-01-22T08:31:56Z</time>
      </trkpt>
      <trkpt lat="49.20146" lon="6.98435">
        <ele>323</ele>
        <time>2012-01-22T08:31:57Z</time>
      </trkpt>
      <trkpt lat="49.20144" lon="6.98438">
        <ele>323</ele>
        <time>2012-01-22T08:31:59Z</time>
      </trkpt>
      <trkpt lat="49.20142" lon="6.98441">
        <ele>323</ele>
        <time>2012-01-22T08:32:01Z</time>
      </trkpt>
      <trkpt lat="49.20141" lon="6.98444">
        <ele>323</ele>
        <time>2012-01-22T08:32:03Z</time>
      </trkpt>
      <trkpt lat="49.20139" lon="6.98447">
        <ele>323</ele>
        <time>2012-01-22T08:32:05Z</time>
      </trkpt>
      <trkpt lat="49.20139" lon="6.98449">
        <ele>323</ele>
        <time>2012-01-22T08:32:06Z</time>
      </trkpt>
      <trkpt lat="49.20137" lon="6.9845">
        <ele>323</ele>
        <time>2012-01-22T08:32:07Z</time>
      </trkpt>
      <trkpt lat="49.20135" lon="6.98453">
        <ele>323</ele>
        <time>2012-01-22T08:32:09Z</time>
      </trkpt>
      <trkpt lat="49.20134" lon="6.98455">
        <ele>323</ele>
        <time>2012-01-22T08:32:10Z</time>
      </trkpt>
      <trkpt lat="49.20134" lon="6.98457">
        <ele>323</ele>
        <time>2012-01-22T08:32:11Z</time>
      </trkpt>
      <trkpt lat="49.20132" lon="6.98458">
        <ele>323</ele>
        <time>2012-01-22T08:32:12Z</time>
      </trkpt>
      <trkpt lat="49.20131" lon="6.98461">
        <ele>323</ele>
        <time>2012-01-22T08:32:13Z</time>
      </trkpt>
      <trkpt lat="49.20129" lon="6.98464">
        <ele>323</ele>
        <time>2012-01-22T08:32:16Z</time>
      </trkpt>
      <trkpt lat="49.20127" lon="6.98468">
        <ele>323</ele>
        <time>2012-01-22T08:32:18Z</time>
      </trkpt>
      <trkpt lat="49.20126" lon="6.98469">
        <ele>323</ele>
        <time>2012-01-22T08:32:19Z</time>
      </trkpt>
      <trkpt lat="49.20124" lon="6.98471">
        <ele>323</ele>
        <time>2012-01-22T08:32:20Z</time>
      </trkpt>
      <trkpt lat="49.20123" lon="6.98473">
        <ele>323</ele>
        <time>2012-01-22T08:32:21Z</time>
      </trkpt>
      <trkpt lat="49.20122" lon="6.98475">
        <ele>323</ele>
        <time>2012-01-22T08:32:22Z</time>
      </trkpt>
      <trkpt lat="49.2012" lon="6.98477">
        <ele>323</ele>
        <time>2012-01-22T08:32:24Z</time>
      </trkpt>
      <trkpt lat="49.20118" lon="6.9848">
        <ele>323</ele>
        <time>2012-01-22T08:32:26Z</time>
      </trkpt>
      <trkpt lat="49.20117" lon="6.98481">
        <ele>323</ele>
        <time>2012-01-22T08:32:27Z</time>
      </trkpt>
      <trkpt lat="49.20116" lon="6.98483">
        <ele>323</ele>
        <time>2012-01-22T08:32:28Z</time>
      </trkpt>
      <trkpt lat="49.20115" lon="6.98484">
        <ele>323</ele>
        <time>2012-01-22T08:32:29Z</time>
      </trkpt>
      <trkpt lat="49.20113" lon="6.98485">
        <ele>323</ele>
        <time>2012-01-22T08:32:29Z</time>
      </trkpt>
      <trkpt lat="49.20112" lon="6.98487">
        <ele>323</ele>
        <time>2012-01-22T08:32:31Z</time>
      </trkpt>
      <trkpt lat="49.20111" lon="6.98489">
        <ele>323</ele>
        <time>2012-01-22T08:32:32Z</time>
      </trkpt>
      <trkpt lat="49.2011" lon="6.9849">
        <ele>323</ele>
        <time>2012-01-22T08:32:33Z</time>
      </trkpt>
      <trkpt lat="49.20109" lon="6.98492">
        <ele>323</ele>
        <time>2012-01-22T08:32:33Z</time>
      </trkpt>
      <trkpt lat="49.20108" lon="6.98493">
        <ele>323</ele>
        <time>2012-01-22T08:32:35Z</time>
      </trkpt>
      <trkpt lat="49.20106" lon="6.98494">
        <ele>323</ele>
        <time>2012-01-22T08:32:36Z</time>
      </trkpt>
      <trkpt lat="49.20105" lon="6.98496">
        <ele>323</ele>
        <time>2012-01-22T08:32:37Z</time>
      </trkpt>
      <trkpt lat="49.20103" lon="6.98498">
        <ele>323</ele>
        <time>2012-01-22T08:32:39Z</time>
      </trkpt>
      <trkpt lat="49.20101" lon="6.98501">
        <ele>323</ele>
        <time>2012-01-22T08:32:41Z</time>
      </trkpt>
      <trkpt lat="49.20099" lon="6.98503">
        <ele>323</ele>
        <time>2012-01-22T08:32:43Z</time>
      </trkpt>
      <trkpt lat="49.20098" lon="6.98504">
        <ele>323</ele>
        <time>2012-01-22T08:32:44Z</time>
      </trkpt>
      <trkpt lat="49.20096" lon="6.98507">
        <ele>323</ele>
        <time>2012-01-22T08:32:45Z</time>
      </trkpt>
      <trkpt lat="49.20094" lon="6.9851">
        <ele>323</ele>
        <time>2012-01-22T08:32:48Z</time>
      </trkpt>
      <trkpt lat="49.20093" lon="6.98512">
        <ele>323</ele>
        <time>2012-01-22T08:32:49Z</time>
      </trkpt>
      <trkpt lat="49.20091" lon="6.98515">
        <ele>323</ele>
        <time>2012-01-22T08:32:51Z</time>
      </trkpt>
      <trkpt lat="49.2009" lon="6.98516">
        <ele>323</ele>
        <time>2012-01-22T08:32:52Z</time>
      </trkpt>
      <trkpt lat="49.20088" lon="6.98518">
        <ele>323</ele>
        <time>2012-01-22T08:32:54Z</time>
      </trkpt>
      <trkpt lat="49.20086" lon="6.98521">
        <ele>323</ele>
        <time>2012-01-22T08:32:56Z</time>
      </trkpt>
      <trkpt lat="49.20084" lon="6.98524">
        <ele>323</ele>
        <time>2012-01-22T08:32:58Z</time>
      </trkpt>
      <trkpt lat="49.20082" lon="6.98527">
        <ele>323</ele>
        <time>2012-01-22T08:33:00Z</time>
      </trkpt>
      <trkpt lat="49.2008" lon="6.98529">
        <ele>323</ele>
        <time>2012-01-22T08:33:01Z</time>
      </trkpt>
      <trkpt lat="49.20079" lon="6.98532">
        <ele>323</ele>
        <time>2012-01-22T08:33:04Z</time>
      </trkpt>
      <trkpt lat="49.20077" lon="6.98535">
        <ele>323</ele>
        <time>2012-01-22T08:33:05Z</time>
      </trkpt>
      <trkpt lat="49.20075" lon="6.98538">
        <ele>323</ele>
        <time>2012-01-22T08:33:08Z</time>
      </trkpt>
      <trkpt lat="49.20074" lon="6.98539">
        <ele>323</ele>
        <time>2012-01-22T08:33:08Z</time>
      </trkpt>
      <trkpt lat="49.20073" lon="6.98541">
        <ele>323</ele>
        <time>2012-01-22T08:33:10Z</time>
      </trkpt>
      <trkpt lat="49.20071" lon="6.98544">
        <ele>323</ele>
        <time>2012-01-22T08:33:12Z</time>
      </trkpt>
      <trkpt lat="49.2007" lon="6.98546">
        <ele>323</ele>
        <time>2012-01-22T08:33:13Z</time>
      </trkpt>
      <trkpt lat="49.20069" lon="6.98549">
        <ele>323</ele>
        <time>2012-01-22T08:33:13Z</time>
      </trkpt>
      <trkpt lat="49.20067" lon="6.98552">
        <ele>323</ele>
        <time>2012-01-22T08:33:16Z</time>
      </trkpt>
      <trkpt lat="49.20066" lon="6.98554">
        <ele>323</ele>
        <time>2012-01-22T08:33:16Z</time>
      </trkpt>
      <trkpt lat="49.20066" lon="6.98555">
        <ele>323</ele>
        <time>2012-01-22T08:33:18Z</time>
      </trkpt>
      <trkpt lat="49.20065" lon="6.98557">
        <ele>323</ele>
        <time>2012-01-22T08:33:19Z</time>
      </trkpt>
      <trkpt lat="49.20065" lon="6.9856">
        <ele>323</ele>
        <time>2012-01-22T08:33:20Z</time>
      </trkpt>
      <trkpt lat="49.20064" lon="6.98561">
        <ele>323</ele>
        <time>2012-01-22T08:33:21Z</time>
      </trkpt>
      <trkpt lat="49.20063" lon="6.98564">
        <ele>323</ele>
        <time>2012-01-22T08:33:22Z</time>
      </trkpt>
      <trkpt lat="49.20062" lon="6.98566">
        <ele>323</ele>
        <time>2012-01-22T08:33:24Z</time>
      </trkpt>
      <trkpt lat="49.20061" lon="6.98569">
        <ele>323</ele>
        <time>2012-01-22T08:33:25Z</time>
      </trkpt>
      <trkpt lat="49.2006" lon="6.98571">
        <ele>323</ele>
        <time>2012-01-22T08:33:27Z</time>
      </trkpt>
      <trkpt lat="49.20059" lon="6.98574">
        <ele>323</ele>
        <time>2012-01-22T08:33:29Z</time>
      </trkpt>
      <trkpt lat="49.20058" lon="6.98577">
        <ele>324</ele>
        <time>2012-01-22T08:33:31Z</time>
      </trkpt>
      <trkpt lat="49.20057" lon="6.98579">
        <ele>324</ele>
        <time>2012-01-22T08:33:31Z</time>
      </trkpt>
      <trkpt lat="49.20057" lon="6.9858">
        <ele>324</ele>
        <time>2012-01-22T08:33:33Z</time>
      </trkpt>
      <trkpt lat="49.20055" lon="6.98584">
        <ele>324</ele>
        <time>2012-01-22T08:33:35Z</time>
      </trkpt>
      <trkpt lat="49.20054" lon="6.98586">
        <ele>324</ele>
        <time>2012-01-22T08:33:36Z</time>
      </trkpt>
      <trkpt lat="49.20053" lon="6.98587">
        <ele>324</ele>
        <time>2012-01-22T08:33:37Z</time>
      </trkpt>
      <trkpt lat="49.20052" lon="6.9859">
        <ele>325</ele>
        <time>2012-01-22T08:33:39Z</time>
      </trkpt>
      <trkpt lat="49.20051" lon="6.98592">
        <ele>325</ele>
        <time>2012-01-22T08:33:40Z</time>
      </trkpt>
      <trkpt lat="49.2005" lon="6.98595">
        <ele>325</ele>
        <time>2012-01-22T08:33:42Z</time>
      </trkpt>
      <trkpt lat="49.20049" lon="6.98597">
        <ele>325</ele>
        <time>2012-01-22T08:33:43Z</time>
      </trkpt>
      <trkpt lat="49.20048" lon="6.98599">
        <ele>326</ele>
        <time>2012-01-22T08:33:44Z</time>
      </trkpt>
      <trkpt lat="49.20047" lon="6.98602">
        <ele>326</ele>
        <time>2012-01-22T08:33:45Z</time>
      </trkpt>
      <trkpt lat="49.20047" lon="6.98604">
        <ele>326</ele>
        <time>2012-01-22T08:33:46Z</time>
      </trkpt>
      <trkpt lat="49.20046" lon="6.98606">
        <ele>326</ele>
        <time>2012-01-22T08:33:47Z</time>
      </trkpt>
      <trkpt lat="49.20046" lon="6.98608">
        <ele>327</ele>
        <time>2012-01-22T08:33:48Z</time>
      </trkpt>
      <trkpt lat="49.20045" lon="6.9861">
        <ele>327</ele>
        <time>2012-01-22T08:33:49Z</time>
      </trkpt>
      <trkpt lat="49.20044" lon="6.98613">
        <ele>327</ele>
        <time>2012-01-22T08:33:51Z</time>
      </trkpt>
      <trkpt lat="49.20042" lon="6.98615">
        <ele>327</ele>
        <time>2012-01-22T08:33:52Z</time>
      </trkpt>
      <trkpt lat="49.20042" lon="6.98617">
        <ele>327</ele>
        <time>2012-01-22T08:33:53Z</time>
      </trkpt>
      <trkpt lat="49.20041" lon="6.98619">
        <ele>327</ele>
        <time>2012-01-22T08:33:54Z</time>
      </trkpt>
      <trkpt lat="49.20039" lon="6.98622">
        <ele>327</ele>
        <time>2012-01-22T08:33:56Z</time>
      </trkpt>
      <trkpt lat="49.20038" lon="6.98624">
        <ele>327</ele>
        <time>2012-01-22T08:33:58Z</time>
      </trkpt>
      <trkpt lat="49.20037" lon="6.98627">
        <ele>327</ele>
        <time>2012-01-22T08:34:00Z</time>
      </trkpt>
      <trkpt lat="49.20036" lon="6.98629">
        <ele>327</ele>
        <time>2012-01-22T08:34:00Z</time>
      </trkpt>
      <trkpt lat="49.20034" lon="6.98631">
        <ele>327</ele>
        <time>2012-01-22T08:34:03Z</time>
      </trkpt>
      <trkpt lat="49.20033" lon="6.98634">
        <ele>327</ele>
        <time>2012-01-22T08:34:04Z</time>
      </trkpt>
      <trkpt lat="49.20032" lon="6.98637">
        <ele>327</ele>
        <time>2012-01-22T08:34:06Z</time>
      </trkpt>
      <trkpt lat="49.2003" lon="6.9864">
        <ele>328</ele>
        <time>2012-01-22T08:34:08Z</time>
      </trkpt>
      <trkpt lat="49.20029" lon="6.98643">
        <ele>328</ele>
        <time>2012-01-22T08:34:09Z</time>
      </trkpt>
      <trkpt lat="49.20028" lon="6.98646">
        <ele>328</ele>
        <time>2012-01-22T08:34:11Z</time>
      </trkpt>
      <trkpt lat="49.20027" lon="6.98648">
        <ele>328</ele>
        <time>2012-01-22T08:34:11Z</time>
      </trkpt>
      <trkpt lat="49.20026" lon="6.98649">
        <ele>329</ele>
        <time>2012-01-22T08:34:13Z</time>
      </trkpt>
      <trkpt lat="49.20023" lon="6.98652">
        <ele>329</ele>
        <time>2012-01-22T08:34:15Z</time>
      </trkpt>
      <trkpt lat="49.20022" lon="6.98655">
        <ele>329</ele>
        <time>2012-01-22T08:34:16Z</time>
      </trkpt>
      <trkpt lat="49.20021" lon="6.98658">
        <ele>329</ele>
        <time>2012-01-22T08:34:17Z</time>
      </trkpt>
      <trkpt lat="49.20019" lon="6.9866">
        <ele>329</ele>
        <time>2012-01-22T08:34:20Z</time>
      </trkpt>
      <trkpt lat="49.20018" lon="6.98663">
        <ele>329</ele>
        <time>2012-01-22T08:34:22Z</time>
      </trkpt>
      <trkpt lat="49.20016" lon="6.98665">
        <ele>329</ele>
        <time>2012-01-22T08:34:24Z</time>
      </trkpt>
      <trkpt lat="49.20014" lon="6.98667">
        <ele>329</ele>
        <time>2012-01-22T08:34:26Z</time>
      </trkpt>
      <trkpt lat="49.20013" lon="6.98669">
        <ele>330</ele>
        <time>2012-01-22T08:34:30Z</time>
      </trkpt>
      <trkpt lat="49.20013" lon="6.98671">
        <ele>330</ele>
        <time>2012-01-22T08:34:31Z</time>
      </trkpt>
      <trkpt lat="49.20011" lon="6.98674">
        <ele>330</ele>
        <time>2012-01-22T08:34:33Z</time>
      </trkpt>
      <trkpt lat="49.2001" lon="6.98677">
        <ele>331</ele>
        <time>2012-01-22T08:34:35Z</time>
      </trkpt>
      <trkpt lat="49.20009" lon="6.98679">
        <ele>331</ele>
        <time>2012-01-22T08:34:36Z</time>
      </trkpt>
      <trkpt lat="49.20007" lon="6.98681">
        <ele>331</ele>
        <time>2012-01-22T08:34:38Z</time>
      </trkpt>
      <trkpt lat="49.20006" lon="6.98684">
        <ele>331</ele>
        <time>2012-01-22T08:34:39Z</time>
      </trkpt>
      <trkpt lat="49.20004" lon="6.98686">
        <ele>331</ele>
        <time>2012-01-22T08:34:41Z</time>
      </trkpt>
      <trkpt lat="49.20003" lon="6.98688">
        <ele>331</ele>
        <time>2012-01-22T08:34:42Z</time>
      </trkpt>
      <trkpt lat="49.20002" lon="6.9869">
        <ele>331</ele>
        <time>2012-01-22T08:34:43Z</time>
      </trkpt>
      <trkpt lat="49.20001" lon="6.98693">
        <ele>331</ele>
        <time>2012-01-22T08:34:44Z</time>
      </trkpt>
      <trkpt lat="49.2" lon="6.98694">
        <ele>331</ele>
        <time>2012-01-22T08:34:45Z</time>
      </trkpt>
      <trkpt lat="49.19999" lon="6.98696">
        <ele>331</ele>
        <time>2012-01-22T08:34:46Z</time>
      </trkpt>
      <trkpt lat="49.19998" lon="6.98699">
        <ele>331</ele>
        <time>2012-01-22T08:34:48Z</time>
      </trkpt>
      <trkpt lat="49.19996" lon="6.987">
        <ele>331</ele>
        <time>2012-01-22T08:34:50Z</time>
      </trkpt>
      <trkpt lat="49.19994" lon="6.98703">
        <ele>331</ele>
        <time>2012-01-22T08:34:52Z</time>
      </trkpt>
      <trkpt lat="49.19993" lon="6.98704">
        <ele>331</ele>
        <time>2012-01-22T08:34:53Z</time>
      </trkpt>
      <trkpt lat="49.19992" lon="6.98706">
        <ele>331</ele>
        <time>2012-01-22T08:34:55Z</time>
      </trkpt>
      <trkpt lat="49.19991" lon="6.98708">
        <ele>331</ele>
        <time>2012-01-22T08:34:57Z</time>
      </trkpt>
      <trkpt lat="49.19989" lon="6.98711">
        <ele>331</ele>
        <time>2012-01-22T08:34:59Z</time>
      </trkpt>
      <trkpt lat="49.19987" lon="6.98714">
        <ele>331</ele>
        <time>2012-01-22T08:35:01Z</time>
      </trkpt>
      <trkpt lat="49.19986" lon="6.98718">
        <ele>331</ele>
        <time>2012-01-22T08:35:03Z</time>
      </trkpt>
      <trkpt lat="49.19984" lon="6.9872">
        <ele>331</ele>
        <time>2012-01-22T08:35:04Z</time>
      </trkpt>
      <trkpt lat="49.19983" lon="6.98722">
        <ele>331</ele>
        <time>2012-01-22T08:35:05Z</time>
      </trkpt>
      <trkpt lat="49.19981" lon="6.98725">
        <ele>331</ele>
        <time>2012-01-22T08:35:07Z</time>
      </trkpt>
      <trkpt lat="49.19979" lon="6.98727">
        <ele>331</ele>
        <time>2012-01-22T08:35:09Z</time>
      </trkpt>
      <trkpt lat="49.19978" lon="6.9873">
        <ele>331</ele>
        <time>2012-01-22T08:35:09Z</time>
      </trkpt>
      <trkpt lat="49.19978" lon="6.98733">
        <ele>331</ele>
        <time>2012-01-22T08:35:11Z</time>
      </trkpt>
      <trkpt lat="49.19977" lon="6.98734">
        <ele>331</ele>
        <time>2012-01-22T08:35:12Z</time>
      </trkpt>
      <trkpt lat="49.19976" lon="6.98736">
        <ele>331</ele>
        <time>2012-01-22T08:35:13Z</time>
      </trkpt>
      <trkpt lat="49.19974" lon="6.98737">
        <ele>331</ele>
        <time>2012-01-22T08:35:15Z</time>
      </trkpt>
      <trkpt lat="49.19974" lon="6.98738">
        <ele>331</ele>
        <time>2012-01-22T08:35:16Z</time>
      </trkpt>
      <trkpt lat="49.19973" lon="6.9874">
        <ele>331</ele>
        <time>2012-01-22T08:35:17Z</time>
      </trkpt>
      <trkpt lat="49.19972" lon="6.98743">
        <ele>331</ele>
        <time>2012-01-22T08:35:19Z</time>
      </trkpt>
      <trkpt lat="49.19971" lon="6.98746">
        <ele>331</ele>
        <time>2012-01-22T08:35:21Z</time>
      </trkpt>
      <trkpt lat="49.1997" lon="6.98748">
        <ele>331</ele>
        <time>2012-01-22T08:35:22Z</time>
      </trkpt>
      <trkpt lat="49.19969" lon="6.98751">
        <ele>331</ele>
        <time>2012-01-22T08:35:23Z</time>
      </trkpt>
      <trkpt lat="49.19968" lon="6.98753">
        <ele>331</ele>
        <time>2012-01-22T08:35:24Z</time>
      </trkpt>
      <trkpt lat="49.19967" lon="6.98755">
        <ele>331</ele>
        <time>2012-01-22T08:35:25Z</time>
      </trkpt>
      <trkpt lat="49.19966" lon="6.98757">
        <ele>331</ele>
        <time>2012-01-22T08:35:26Z</time>
      </trkpt>
      <trkpt lat="49.19965" lon="6.9876">
        <ele>331</ele>
        <time>2012-01-22T08:35:27Z</time>
      </trkpt>
      <trkpt lat="49.19965" lon="6.98762">
        <ele>331</ele>
        <time>2012-01-22T08:35:27Z</time>
      </trkpt>
      <trkpt lat="49.19964" lon="6.98764">
        <ele>331</ele>
        <time>2012-01-22T08:35:29Z</time>
      </trkpt>
      <trkpt lat="49.19963" lon="6.98766">
        <ele>331</ele>
        <time>2012-01-22T08:35:30Z</time>
      </trkpt>
      <trkpt lat="49.19962" lon="6.98768">
        <ele>331</ele>
        <time>2012-01-22T08:35:30Z</time>
      </trkpt>
      <trkpt lat="49.19962" lon="6.98769">
        <ele>331</ele>
        <time>2012-01-22T08:35:32Z</time>
      </trkpt>
      <trkpt lat="49.19961" lon="6.98771">
        <ele>331</ele>
        <time>2012-01-22T08:35:33Z</time>
      </trkpt>
      <trkpt lat="49.1996" lon="6.98773">
        <ele>331</ele>
        <time>2012-01-22T08:35:34Z</time>
      </trkpt>
      <trkpt lat="49.1996" lon="6.98775">
        <ele>331</ele>
        <time>2012-01-22T08:35:34Z</time>
      </trkpt>
      <trkpt lat="49.19958" lon="6.98778">
        <ele>331</ele>
        <time>2012-01-22T08:35:37Z</time>
      </trkpt>
      <trkpt lat="49.19957" lon="6.9878">
        <ele>331</ele>
        <time>2012-01-22T08:35:37Z</time>
      </trkpt>
      <trkpt lat="49.19957" lon="6.98782">
        <ele>331</ele>
        <time>2012-01-22T08:35:39Z</time>
      </trkpt>
      <trkpt lat="49.19956" lon="6.98784">
        <ele>331</ele>
        <time>2012-01-22T08:35:39Z</time>
      </trkpt>
      <trkpt lat="49.19955" lon="6.98785">
        <ele>331</ele>
        <time>2012-01-22T08:35:41Z</time>
      </trkpt>
      <trkpt lat="49.19953" lon="6.98788">
        <ele>331</ele>
        <time>2012-01-22T08:35:42Z</time>
      </trkpt>
      <trkpt lat="49.19951" lon="6.98791">
        <ele>331</ele>
        <time>2012-01-22T08:35:45Z</time>
      </trkpt>
      <trkpt lat="49.19951" lon="6.98793">
        <ele>331</ele>
        <time>2012-01-22T08:35:46Z</time>
      </trkpt>
      <trkpt lat="49.1995" lon="6.98794">
        <ele>331</ele>
        <time>2012-01-22T08:35:47Z</time>
      </trkpt>
      <trkpt lat="49.1995" lon="6.98796">
        <ele>330</ele>
        <time>2012-01-22T08:35:48Z</time>
      </trkpt>
      <trkpt lat="49.1995" lon="6.98798">
        <ele>330</ele>
        <time>2012-01-22T08:35:49Z</time>
      </trkpt>
      <trkpt lat="49.19949" lon="6.98801">
        <ele>330</ele>
        <time>2012-01-22T08:35:51Z</time>
      </trkpt>
      <trkpt lat="49.19948" lon="6.98803">
        <ele>330</ele>
        <time>2012-01-22T08:35:52Z</time>
      </trkpt>
      <trkpt lat="49.19948" lon="6.98804">
        <ele>330</ele>
        <time>2012-01-22T08:35:53Z</time>
      </trkpt>
      <trkpt lat="49.19947" lon="6.98806">
        <ele>330</ele>
        <time>2012-01-22T08:35:54Z</time>
      </trkpt>
      <trkpt lat="49.19947" lon="6.98808">
        <ele>330</ele>
        <time>2012-01-22T08:35:55Z</time>
      </trkpt>
      <trkpt lat="49.19946" lon="6.9881">
        <ele>330</ele>
        <time>2012-01-22T08:35:56Z</time>
      </trkpt>
      <trkpt lat="49.19946" lon="6.98812">
        <ele>330</ele>
        <time>2012-01-22T08:35:57Z</time>
      </trkpt>
      <trkpt lat="49.19945" lon="6.98813">
        <ele>330</ele>
        <time>2012-01-22T08:35:58Z</time>
      </trkpt>
      <trkpt lat="49.19945" lon="6.98816">
        <ele>329</ele>
        <time>2012-01-22T08:36:00Z</time>
      </trkpt>
      <trkpt lat="49.19944" lon="6.98818">
        <ele>329</ele>
        <time>2012-01-22T08:36:01Z</time>
      </trkpt>
      <trkpt lat="49.19943" lon="6.9882">
        <ele>329</ele>
        <time>2012-01-22T08:36:01Z</time>
      </trkpt>
      <trkpt lat="49.19943" lon="6.98823">
        <ele>329</ele>
        <time>2012-01-22T08:36:03Z</time>
      </trkpt>
      <trkpt lat="49.19942" lon="6.98825">
        <ele>329</ele>
        <time>2012-01-22T08:36:04Z</time>
      </trkpt>
      <trkpt lat="49.19942" lon="6.98827">
        <ele>329</ele>
        <time>2012-01-22T08:36:05Z</time>
      </trkpt>
      <trkpt lat="49.19942" lon="6.98829">
        <ele>329</ele>
        <time>2012-01-22T08:36:06Z</time>
      </trkpt>
      <trkpt lat="49.19941" lon="6.98831">
        <ele>329</ele>
        <time>2012-01-22T08:36:07Z</time>
      </trkpt>
      <trkpt lat="49.19941" lon="6.98834">
        <ele>329</ele>
        <time>2012-01-22T08:36:09Z</time>
      </trkpt>
      <trkpt lat="49.19941" lon="6.98835">
        <ele>329</ele>
        <time>2012-01-22T08:36:10Z</time>
      </trkpt>
      <trkpt lat="49.19941" lon="6.98837">
        <ele>329</ele>
        <time>2012-01-22T08:36:10Z</time>
      </trkpt>
      <trkpt lat="49.19941" lon="6.98839">
        <ele>329</ele>
        <time>2012-01-22T08:36:12Z</time>
      </trkpt>
      <trkpt lat="49.19941" lon="6.98841">
        <ele>329</ele>
        <time>2012-01-22T08:36:13Z</time>
      </trkpt>
      <trkpt lat="49.19941" lon="6.98844">
        <ele>329</ele>
        <time>2012-01-22T08:36:14Z</time>
      </trkpt>
      <trkpt lat="49.19941" lon="6.98846">
        <ele>329</ele>
        <time>2012-01-22T08:36:15Z</time>
      </trkpt>
      <trkpt lat="49.19941" lon="6.98849">
        <ele>329</ele>
        <time>2012-01-22T08:36:17Z</time>
      </trkpt>
      <trkpt lat="49.19941" lon="6.98852">
        <ele>329</ele>
        <time>2012-01-22T08:36:19Z</time>
      </trkpt>
      <trkpt lat="49.19941" lon="6.98854">
        <ele>329</ele>
        <time>2012-01-22T08:36:19Z</time>
      </trkpt>
      <trkpt lat="49.19942" lon="6.98857">
        <ele>329</ele>
        <time>2012-01-22T08:36:22Z</time>
      </trkpt>
      <trkpt lat="49.19942" lon="6.98859">
        <ele>329</ele>
        <time>2012-01-22T08:36:23Z</time>
      </trkpt>
      <trkpt lat="49.19942" lon="6.98862">
        <ele>329</ele>
        <time>2012-01-22T08:36:25Z</time>
      </trkpt>
      <trkpt lat="49.19942" lon="6.98865">
        <ele>329</ele>
        <time>2012-01-22T08:36:26Z</time>
      </trkpt>
      <trkpt lat="49.19941" lon="6.98867">
        <ele>329</ele>
        <time>2012-01-22T08:36:27Z</time>
      </trkpt>
      <trkpt lat="49.19941" lon="6.98869">
        <ele>329</ele>
        <time>2012-01-22T08:36:27Z</time>
      </trkpt>
      <trkpt lat="49.19941" lon="6.9887">
        <ele>329</ele>
        <time>2012-01-22T08:36:29Z</time>
      </trkpt>
      <trkpt lat="49.19941" lon="6.98873">
        <ele>329</ele>
        <time>2012-01-22T08:36:30Z</time>
      </trkpt>
      <trkpt lat="49.19941" lon="6.98875">
        <ele>329</ele>
        <time>2012-01-22T08:36:30Z</time>
      </trkpt>
      <trkpt lat="49.19941" lon="6.98878">
        <ele>329</ele>
        <time>2012-01-22T08:36:32Z</time>
      </trkpt>
      <trkpt lat="49.19941" lon="6.9888">
        <ele>329</ele>
        <time>2012-01-22T08:36:33Z</time>
      </trkpt>
      <trkpt lat="49.19941" lon="6.98882">
        <ele>329</ele>
        <time>2012-01-22T08:36:34Z</time>
      </trkpt>
      <trkpt lat="49.19941" lon="6.98884">
        <ele>329</ele>
        <time>2012-01-22T08:36:35Z</time>
      </trkpt>
      <trkpt lat="49.19941" lon="6.98886">
        <ele>329</ele>
        <time>2012-01-22T08:36:36Z</time>
      </trkpt>
      <trkpt lat="49.19941" lon="6.98888">
        <ele>329</ele>
        <time>2012-01-22T08:36:37Z</time>
      </trkpt>
      <trkpt lat="49.19941" lon="6.98891">
        <ele>329</ele>
        <time>2012-01-22T08:36:38Z</time>
      </trkpt>
      <trkpt lat="49.19941" lon="6.98892">
        <ele>329</ele>
        <time>2012-01-22T08:36:39Z</time>
      </trkpt>
      <trkpt lat="49.19941" lon="6.98894">
        <ele>329</ele>
        <time>2012-01-22T08:36:40Z</time>
      </trkpt>
      <trkpt lat="49.19942" lon="6.98896">
        <ele>329</ele>
        <time>2012-01-22T08:36:41Z</time>
      </trkpt>
      <trkpt lat="49.19942" lon="6.98898">
        <ele>329</ele>
        <time>2012-01-22T08:36:42Z</time>
      </trkpt>
      <trkpt lat="49.19942" lon="6.98902">
        <ele>329</ele>
        <time>2012-01-22T08:36:44Z</time>
      </trkpt>
      <trkpt lat="49.19942" lon="6.98903">
        <ele>329</ele>
        <time>2012-01-22T08:36:45Z</time>
      </trkpt>
      <trkpt lat="49.19942" lon="6.98905">
        <ele>329</ele>
        <time>2012-01-22T08:36:46Z</time>
      </trkpt>
      <trkpt lat="49.19942" lon="6.98909">
        <ele>329</ele>
        <time>2012-01-22T08:36:48Z</time>
      </trkpt>
      <trkpt lat="49.19942" lon="6.98911">
        <ele>329</ele>
        <time>2012-01-22T08:36:49Z</time>
      </trkpt>
      <trkpt lat="49.19942" lon="6.98913">
        <ele>329</ele>
        <time>2012-01-22T08:36:50Z</time>
      </trkpt>
      <trkpt lat="49.19942" lon="6.98915">
        <ele>329</ele>
        <time>2012-01-22T08:36:51Z</time>
      </trkpt>
      <trkpt lat="49.19942" lon="6.98918">
        <ele>329</ele>
        <time>2012-01-22T08:36:51Z</time>
      </trkpt>
      <trkpt lat="49.19942" lon="6.9892">
        <ele>329</ele>
        <time>2012-01-22T08:36:53Z</time>
      </trkpt>
      <trkpt lat="49.19942" lon="6.98922">
        <ele>329</ele>
        <time>2012-01-22T08:36:54Z</time>
      </trkpt>
      <trkpt lat="49.19942" lon="6.98924">
        <ele>329</ele>
        <time>2012-01-22T08:36:55Z</time>
      </trkpt>
      <trkpt lat="49.19942" lon="6.98926">
        <ele>329</ele>
        <time>2012-01-22T08:36:55Z</time>
      </trkpt>
      <trkpt lat="49.19943" lon="6.98928">
        <ele>329</ele>
        <time>2012-01-22T08:36:57Z</time>
      </trkpt>
      <trkpt lat="49.19943" lon="6.9893">
        <ele>329</ele>
        <time>2012-01-22T08:36:58Z</time>
      </trkpt>
      <trkpt lat="49.19943" lon="6.98932">
        <ele>329</ele>
        <time>2012-01-22T08:36:59Z</time>
      </trkpt>
      <trkpt lat="49.19943" lon="6.98934">
        <ele>329</ele>
        <time>2012-01-22T08:37:00Z</time>
      </trkpt>
      <trkpt lat="49.19943" lon="6.98936">
        <ele>329</ele>
        <time>2012-01-22T08:37:01Z</time>
      </trkpt>
      <trkpt lat="49.19943" lon="6.98939">
        <ele>329</ele>
        <time>2012-01-22T08:37:02Z</time>
      </trkpt>
      <trkpt lat="49.19943" lon="6.98941">
        <ele>329</ele>
        <time>2012-01-22T08:37:02Z</time>
      </trkpt>
      <trkpt lat="49.19943" lon="6.98943">
        <ele>329</ele>
        <time>2012-01-22T08:37:04Z</time>
      </trkpt>
      <trkpt lat="49.19943" lon="6.98946">
        <ele>329</ele>
        <time>2012-01-22T08:37:05Z</time>
      </trkpt>
      <trkpt lat="49.19942" lon="6.98949">
        <ele>329</ele>
        <time>2012-01-22T08:37:06Z</time>
      </trkpt>
      <trkpt lat="49.19942" lon="6.98951">
        <ele>329</ele>
        <time>2012-01-22T08:37:07Z</time>
      </trkpt>
      <trkpt lat="49.19941" lon="6.98953">
        <ele>329</ele>
        <time>2012-01-22T08:37:08Z</time>
      </trkpt>
      <trkpt lat="49.19941" lon="6.98955">
        <ele>329</ele>
        <time>2012-01-22T08:37:09Z</time>
      </trkpt>
      <trkpt lat="49.19941" lon="6.98958">
        <ele>329</ele>
        <time>2012-01-22T08:37:10Z</time>
      </trkpt>
      <trkpt lat="49.1994" lon="6.9896">
        <ele>329</ele>
        <time>2012-01-22T08:37:11Z</time>
      </trkpt>
      <trkpt lat="49.19941" lon="6.98962">
        <ele>329</ele>
        <time>2012-01-22T08:37:11Z</time>
      </trkpt>
      <trkpt lat="49.19941" lon="6.98964">
        <ele>329</ele>
        <time>2012-01-22T08:37:12Z</time>
      </trkpt>
      <trkpt lat="49.19941" lon="6.98966">
        <ele>329</ele>
        <time>2012-01-22T08:37:14Z</time>
      </trkpt>
      <trkpt lat="49.19941" lon="6.98968">
        <ele>329</ele>
        <time>2012-01-22T08:37:14Z</time>
      </trkpt>
      <trkpt lat="49.19941" lon="6.9897">
        <ele>329</ele>
        <time>2012-01-22T08:37:16Z</time>
      </trkpt>
      <trkpt lat="49.19941" lon="6.98972">
        <ele>329</ele>
        <time>2012-01-22T08:37:17Z</time>
      </trkpt>
      <trkpt lat="49.19941" lon="6.98974">
        <ele>329</ele>
        <time>2012-01-22T08:37:18Z</time>
      </trkpt>
      <trkpt lat="49.19941" lon="6.98976">
        <ele>329</ele>
        <time>2012-01-22T08:37:18Z</time>
      </trkpt>
      <trkpt lat="49.19941" lon="6.98978">
        <ele>329</ele>
        <time>2012-01-22T08:37:20Z</time>
      </trkpt>
      <trkpt lat="49.19941" lon="6.98979">
        <ele>329</ele>
        <time>2012-01-22T08:37:21Z</time>
      </trkpt>
      <trkpt lat="49.19941" lon="6.98981">
        <ele>329</ele>
        <time>2012-01-22T08:37:22Z</time>
      </trkpt>
      <trkpt lat="49.19942" lon="6.98983">
        <ele>329</ele>
        <time>2012-01-22T08:37:23Z</time>
      </trkpt>
      <trkpt lat="49.19942" lon="6.98985">
        <ele>329</ele>
        <time>2012-01-22T08:37:24Z</time>
      </trkpt>
      <trkpt lat="49.19943" lon="6.98987">
        <ele>329</ele>
        <time>2012-01-22T08:37:24Z</time>
      </trkpt>
      <trkpt lat="49.19942" lon="6.98989">
        <ele>329</ele>
        <time>2012-01-22T08:37:26Z</time>
      </trkpt>
      <trkpt lat="49.19943" lon="6.98993">
        <ele>329</ele>
        <time>2012-01-22T08:37:27Z</time>
      </trkpt>
      <trkpt lat="49.19944" lon="6.98995">
        <ele>329</ele>
        <time>2012-01-22T08:37:28Z</time>
      </trkpt>
      <trkpt lat="49.19944" lon="6.98997">
        <ele>329</ele>
        <time>2012-01-22T08:37:30Z</time>
      </trkpt>
      <trkpt lat="49.19945" lon="6.99">
        <ele>329</ele>
        <time>2012-01-22T08:37:31Z</time>
      </trkpt>
      <trkpt lat="49.19945" lon="6.99003">
        <ele>329</ele>
        <time>2012-01-22T08:37:33Z</time>
      </trkpt>
      <trkpt lat="49.19945" lon="6.99004">
        <ele>329</ele>
        <time>2012-01-22T08:37:34Z</time>
      </trkpt>
      <trkpt lat="49.19946" lon="6.99008">
        <ele>329</ele>
        <time>2012-01-22T08:37:36Z</time>
      </trkpt>
      <trkpt lat="49.19946" lon="6.99009">
        <ele>329</ele>
        <time>2012-01-22T08:37:37Z</time>
      </trkpt>
      <trkpt lat="49.19947" lon="6.99012">
        <ele>329</ele>
        <time>2012-01-22T08:37:38Z</time>
      </trkpt>
      <trkpt lat="49.19947" lon="6.99014">
        <ele>329</ele>
        <time>2012-01-22T08:37:39Z</time>
      </trkpt>
      <trkpt lat="49.19947" lon="6.99016">
        <ele>329</ele>
        <time>2012-01-22T08:37:39Z</time>
      </trkpt>
      <trkpt lat="49.19947" lon="6.99017">
        <ele>329</ele>
        <time>2012-01-22T08:37:41Z</time>
      </trkpt>
      <trkpt lat="49.19948" lon="6.9902">
        <ele>329</ele>
        <time>2012-01-22T08:37:43Z</time>
      </trkpt>
      <trkpt lat="49.19948" lon="6.99022">
        <ele>329</ele>
        <time>2012-01-22T08:37:44Z</time>
      </trkpt>
      <trkpt lat="49.19948" lon="6.99024">
        <ele>329</ele>
        <time>2012-01-22T08:37:45Z</time>
      </trkpt>
      <trkpt lat="49.19948" lon="6.99026">
        <ele>329</ele>
        <time>2012-01-22T08:37:46Z</time>
      </trkpt>
      <trkpt lat="49.19949" lon="6.99028">
        <ele>329</ele>
        <time>2012-01-22T08:37:47Z</time>
      </trkpt>
      <trkpt lat="49.19947" lon="6.99032">
        <ele>329</ele>
        <time>2012-01-22T08:37:47Z</time>
      </trkpt>
      <trkpt lat="49.19947" lon="6.99036">
        <ele>329</ele>
        <time>2012-01-22T08:37:49Z</time>
      </trkpt>
      <trkpt lat="49.19946" lon="6.99039">
        <ele>329</ele>
        <time>2012-01-22T08:37:49Z</time>
      </trkpt>
      <trkpt lat="49.19946" lon="6.99041">
        <ele>330</ele>
        <time>2012-01-22T08:37:51Z</time>
      </trkpt>
      <trkpt lat="49.19946" lon="6.99044">
        <ele>331</ele>
        <time>2012-01-22T08:37:53Z</time>
      </trkpt>
      <trkpt lat="49.19946" lon="6.99046">
        <ele>332</ele>
        <time>2012-01-22T08:37:54Z</time>
      </trkpt>
      <trkpt lat="49.19946" lon="6.99048">
        <ele>332</ele>
        <time>2012-01-22T08:37:55Z</time>
      </trkpt>
      <trkpt lat="49.19946" lon="6.9905">
        <ele>332</ele>
        <time>2012-01-22T08:37:56Z</time>
      </trkpt>
      <trkpt lat="49.19946" lon="6.99052">
        <ele>332</ele>
        <time>2012-01-22T08:37:57Z</time>
      </trkpt>
      <trkpt lat="49.19947" lon="6.99054">
        <ele>332</ele>
        <time>2012-01-22T08:37:58Z</time>
      </trkpt>
      <trkpt lat="49.19946" lon="6.99056">
        <ele>332</ele>
        <time>2012-01-22T08:37:59Z</time>
      </trkpt>
      <trkpt lat="49.19946" lon="6.99058">
        <ele>332</ele>
        <time>2012-01-22T08:38:00Z</time>
      </trkpt>
      <trkpt lat="49.19946" lon="6.9906">
        <ele>332</ele>
        <time>2012-01-22T08:38:01Z</time>
      </trkpt>
      <trkpt lat="49.19946" lon="6.99061">
        <ele>332</ele>
        <time>2012-01-22T08:38:02Z</time>
      </trkpt>
      <trkpt lat="49.19946" lon="6.99063">
        <ele>332</ele>
        <time>2012-01-22T08:38:03Z</time>
      </trkpt>
      <trkpt lat="49.19946" lon="6.99066">
        <ele>332</ele>
        <time>2012-01-22T08:38:03Z</time>
      </trkpt>
      <trkpt lat="49.19947" lon="6.99067">
        <ele>332</ele>
        <time>2012-01-22T08:38:05Z</time>
      </trkpt>
      <trkpt lat="49.19947" lon="6.9907">
        <ele>332</ele>
        <time>2012-01-22T08:38:06Z</time>
      </trkpt>
      <trkpt lat="49.19947" lon="6.99072">
        <ele>332</ele>
        <time>2012-01-22T08:38:07Z</time>
      </trkpt>
      <trkpt lat="49.19948" lon="6.99074">
        <ele>332</ele>
        <time>2012-01-22T08:38:07Z</time>
      </trkpt>
      <trkpt lat="49.19948" lon="6.99077">
        <ele>332</ele>
        <time>2012-01-22T08:38:08Z</time>
      </trkpt>
      <trkpt lat="49.19948" lon="6.99079">
        <ele>332</ele>
        <time>2012-01-22T08:38:10Z</time>
      </trkpt>
      <trkpt lat="49.19947" lon="6.99082">
        <ele>332</ele>
        <time>2012-01-22T08:38:12Z</time>
      </trkpt>
      <trkpt lat="49.19948" lon="6.99085">
        <ele>332</ele>
        <time>2012-01-22T08:38:14Z</time>
      </trkpt>
      <trkpt lat="49.19949" lon="6.9909">
        <ele>332</ele>
        <time>2012-01-22T08:38:15Z</time>
      </trkpt>
      <trkpt lat="49.19949" lon="6.99092">
        <ele>332</ele>
        <time>2012-01-22T08:38:17Z</time>
      </trkpt>
      <trkpt lat="49.19949" lon="6.99094">
        <ele>332</ele>
        <time>2012-01-22T08:38:18Z</time>
      </trkpt>
      <trkpt lat="49.19949" lon="6.99097">
        <ele>332</ele>
        <time>2012-01-22T08:38:18Z</time>
      </trkpt>
      <trkpt lat="49.19949" lon="6.99098">
        <ele>332</ele>
        <time>2012-01-22T08:38:19Z</time>
      </trkpt>
      <trkpt lat="49.1995" lon="6.99101">
        <ele>332</ele>
        <time>2012-01-22T08:38:22Z</time>
      </trkpt>
      <trkpt lat="49.1995" lon="6.99103">
        <ele>331</ele>
        <time>2012-01-22T08:38:23Z</time>
      </trkpt>
      <trkpt lat="49.19951" lon="6.99105">
        <ele>331</ele>
        <time>2012-01-22T08:38:23Z</time>
      </trkpt>
      <trkpt lat="49.19951" lon="6.99107">
        <ele>331</ele>
        <time>2012-01-22T08:38:25Z</time>
      </trkpt>
      <trkpt lat="49.19952" lon="6.99109">
        <ele>330</ele>
        <time>2012-01-22T08:38:26Z</time>
      </trkpt>
      <trkpt lat="49.19951" lon="6.99112">
        <ele>330</ele>
        <time>2012-01-22T08:38:27Z</time>
      </trkpt>
      <trkpt lat="49.19951" lon="6.99114">
        <ele>330</ele>
        <time>2012-01-22T08:38:28Z</time>
      </trkpt>
      <trkpt lat="49.19951" lon="6.99117">
        <ele>330</ele>
        <time>2012-01-22T08:38:29Z</time>
      </trkpt>
      <trkpt lat="49.19951" lon="6.99119">
        <ele>330</ele>
        <time>2012-01-22T08:38:30Z</time>
      </trkpt>
      <trkpt lat="49.19952" lon="6.99121">
        <ele>330</ele>
        <time>2012-01-22T08:38:30Z</time>
      </trkpt>
      <trkpt lat="49.19952" lon="6.99123">
        <ele>330</ele>
        <time>2012-01-22T08:38:31Z</time>
      </trkpt>
      <trkpt lat="49.19952" lon="6.99125">
        <ele>330</ele>
        <time>2012-01-22T08:38:33Z</time>
      </trkpt>
      <trkpt lat="49.19951" lon="6.99127">
        <ele>330</ele>
        <time>2012-01-22T08:38:34Z</time>
      </trkpt>
      <trkpt lat="49.19951" lon="6.99129">
        <ele>330</ele>
        <time>2012-01-22T08:38:35Z</time>
      </trkpt>
      <trkpt lat="49.19951" lon="6.99132">
        <ele>330</ele>
        <time>2012-01-22T08:38:35Z</time>
      </trkpt>
      <trkpt lat="49.19952" lon="6.99134">
        <ele>330</ele>
        <time>2012-01-22T08:38:37Z</time>
      </trkpt>
      <trkpt lat="49.19952" lon="6.99135">
        <ele>330</ele>
        <time>2012-01-22T08:38:38Z</time>
      </trkpt>
      <trkpt lat="49.19952" lon="6.99137">
        <ele>330</ele>
        <time>2012-01-22T08:38:39Z</time>
      </trkpt>
      <trkpt lat="49.19952" lon="6.99141">
        <ele>330</ele>
        <time>2012-01-22T08:38:41Z</time>
      </trkpt>
      <trkpt lat="49.19952" lon="6.99143">
        <ele>330</ele>
        <time>2012-01-22T08:38:42Z</time>
      </trkpt>
      <trkpt lat="49.19952" lon="6.99145">
        <ele>330</ele>
        <time>2012-01-22T08:38:42Z</time>
      </trkpt>
      <trkpt lat="49.19952" lon="6.99147">
        <ele>330</ele>
        <time>2012-01-22T08:38:43Z</time>
      </trkpt>
      <trkpt lat="49.19952" lon="6.99149">
        <ele>330</ele>
        <time>2012-01-22T08:38:45Z</time>
      </trkpt>
      <trkpt lat="49.19952" lon="6.99151">
        <ele>330</ele>
        <time>2012-01-22T08:38:46Z</time>
      </trkpt>
      <trkpt lat="49.19952" lon="6.99153">
        <ele>330</ele>
        <time>2012-01-22T08:38:47Z</time>
      </trkpt>
      <trkpt lat="49.19952" lon="6.99156">
        <ele>330</ele>
        <time>2012-01-22T08:38:47Z</time>
      </trkpt>
      <trkpt lat="49.19952" lon="6.99158">
        <ele>330</ele>
        <time>2012-01-22T08:38:49Z</time>
      </trkpt>
      <trkpt lat="49.19952" lon="6.99161">
        <ele>330</ele>
        <time>2012-01-22T08:38:50Z</time>
      </trkpt>
      <trkpt lat="49.19952" lon="6.99164">
        <ele>330</ele>
        <time>2012-01-22T08:38:51Z</time>
      </trkpt>
      <trkpt lat="49.19952" lon="6.99166">
        <ele>330</ele>
        <time>2012-01-22T08:38:52Z</time>
      </trkpt>
      <trkpt lat="49.19952" lon="6.99168">
        <ele>330</ele>
        <time>2012-01-22T08:38:53Z</time>
      </trkpt>
      <trkpt lat="49.19952" lon="6.99172">
        <ele>330</ele>
        <time>2012-01-22T08:38:54Z</time>
      </trkpt>
      <trkpt lat="49.19951" lon="6.99175">
        <ele>330</ele>
        <time>2012-01-22T08:38:55Z</time>
      </trkpt>
      <trkpt lat="49.19951" lon="6.99177">
        <ele>330</ele>
        <time>2012-01-22T08:38:55Z</time>
      </trkpt>
      <trkpt lat="49.19951" lon="6.9918">
        <ele>330</ele>
        <time>2012-01-22T08:38:57Z</time>
      </trkpt>
      <trkpt lat="49.19951" lon="6.99182">
        <ele>330</ele>
        <time>2012-01-22T08:38:58Z</time>
      </trkpt>
      <trkpt lat="49.19951" lon="6.99184">
        <ele>330</ele>
        <time>2012-01-22T08:38:58Z</time>
      </trkpt>
      <trkpt lat="49.19951" lon="6.99185">
        <ele>330</ele>
        <time>2012-01-22T08:39:00Z</time>
      </trkpt>
      <trkpt lat="49.19951" lon="6.99187">
        <ele>330</ele>
        <time>2012-01-22T08:39:01Z</time>
      </trkpt>
      <trkpt lat="49.19951" lon="6.99189">
        <ele>330</ele>
        <time>2012-01-22T08:39:02Z</time>
      </trkpt>
      <trkpt lat="49.1995" lon="6.99191">
        <ele>330</ele>
        <time>2012-01-22T08:39:03Z</time>
      </trkpt>
      <trkpt lat="49.1995" lon="6.99193">
        <ele>330</ele>
        <time>2012-01-22T08:39:04Z</time>
      </trkpt>
      <trkpt lat="49.19949" lon="6.99195">
        <ele>330</ele>
        <time>2012-01-22T08:39:05Z</time>
      </trkpt>
      <trkpt lat="49.19949" lon="6.99197">
        <ele>330</ele>
        <time>2012-01-22T08:39:06Z</time>
      </trkpt>
      <trkpt lat="49.19949" lon="6.99199">
        <ele>330</ele>
        <time>2012-01-22T08:39:07Z</time>
      </trkpt>
      <trkpt lat="49.19949" lon="6.99201">
        <ele>330</ele>
        <time>2012-01-22T08:39:08Z</time>
      </trkpt>
      <trkpt lat="49.19949" lon="6.99203">
        <ele>330</ele>
        <time>2012-01-22T08:39:09Z</time>
      </trkpt>
      <trkpt lat="49.19948" lon="6.99205">
        <ele>330</ele>
        <time>2012-01-22T08:39:10Z</time>
      </trkpt>
      <trkpt lat="49.19948" lon="6.99207">
        <ele>330</ele>
        <time>2012-01-22T08:39:10Z</time>
      </trkpt>
      <trkpt lat="49.19948" lon="6.99209">
        <ele>330</ele>
        <time>2012-01-22T08:39:12Z</time>
      </trkpt>
      <trkpt lat="49.19948" lon="6.99211">
        <ele>330</ele>
        <time>2012-01-22T08:39:13Z</time>
      </trkpt>
      <trkpt lat="49.19948" lon="6.99213">
        <ele>330</ele>
        <time>2012-01-22T08:39:14Z</time>
      </trkpt>
      <trkpt lat="49.19948" lon="6.99215">
        <ele>330</ele>
        <time>2012-01-22T08:39:14Z</time>
      </trkpt>
      <trkpt lat="49.19948" lon="6.99217">
        <ele>330</ele>
        <time>2012-01-22T08:39:16Z</time>
      </trkpt>
      <trkpt lat="49.19948" lon="6.99219">
        <ele>330</ele>
        <time>2012-01-22T08:39:17Z</time>
      </trkpt>
      <trkpt lat="49.19947" lon="6.99221">
        <ele>330</ele>
        <time>2012-01-22T08:39:18Z</time>
      </trkpt>
      <trkpt lat="49.19947" lon="6.99222">
        <ele>330</ele>
        <time>2012-01-22T08:39:19Z</time>
      </trkpt>
      <trkpt lat="49.19947" lon="6.99224">
        <ele>330</ele>
        <time>2012-01-22T08:39:20Z</time>
      </trkpt>
      <trkpt lat="49.19947" lon="6.99227">
        <ele>330</ele>
        <time>2012-01-22T08:39:21Z</time>
      </trkpt>
      <trkpt lat="49.19947" lon="6.99229">
        <ele>330</ele>
        <time>2012-01-22T08:39:22Z</time>
      </trkpt>
      <trkpt lat="49.19946" lon="6.9923">
        <ele>330</ele>
        <time>2012-01-22T08:39:22Z</time>
      </trkpt>
      <trkpt lat="49.19946" lon="6.99232">
        <ele>330</ele>
        <time>2012-01-22T08:39:24Z</time>
      </trkpt>
      <trkpt lat="49.19946" lon="6.99234">
        <ele>330</ele>
        <time>2012-01-22T08:39:25Z</time>
      </trkpt>
      <trkpt lat="49.19946" lon="6.99236">
        <ele>330</ele>
        <time>2012-01-22T08:39:26Z</time>
      </trkpt>
      <trkpt lat="49.19945" lon="6.99238">
        <ele>330</ele>
        <time>2012-01-22T08:39:27Z</time>
      </trkpt>
      <trkpt lat="49.19944" lon="6.99242">
        <ele>330</ele>
        <time>2012-01-22T08:39:29Z</time>
      </trkpt>
      <trkpt lat="49.19944" lon="6.99243">
        <ele>330</ele>
        <time>2012-01-22T08:39:30Z</time>
      </trkpt>
      <trkpt lat="49.19943" lon="6.99246">
        <ele>330</ele>
        <time>2012-01-22T08:39:30Z</time>
      </trkpt>
      <trkpt lat="49.19942" lon="6.99248">
        <ele>330</ele>
        <time>2012-01-22T08:39:32Z</time>
      </trkpt>
      <trkpt lat="49.19942" lon="6.99249">
        <ele>330</ele>
        <time>2012-01-22T08:39:33Z</time>
      </trkpt>
      <trkpt lat="49.19942" lon="6.99252">
        <ele>330</ele>
        <time>2012-01-22T08:39:34Z</time>
      </trkpt>
      <trkpt lat="49.19942" lon="6.99253">
        <ele>330</ele>
        <time>2012-01-22T08:39:35Z</time>
      </trkpt>
      <trkpt lat="49.19941" lon="6.99256">
        <ele>330</ele>
        <time>2012-01-22T08:39:35Z</time>
      </trkpt>
      <trkpt lat="49.19941" lon="6.99257">
        <ele>330</ele>
        <time>2012-01-22T08:39:37Z</time>
      </trkpt>
      <trkpt lat="49.1994" lon="6.99259">
        <ele>330</ele>
        <time>2012-01-22T08:39:38Z</time>
      </trkpt>
      <trkpt lat="49.19939" lon="6.99261">
        <ele>330</ele>
        <time>2012-01-22T08:39:38Z</time>
      </trkpt>
      <trkpt lat="49.19939" lon="6.99263">
        <ele>330</ele>
        <time>2012-01-22T08:39:40Z</time>
      </trkpt>
      <trkpt lat="49.19938" lon="6.99265">
        <ele>330</ele>
        <time>2012-01-22T08:39:41Z</time>
      </trkpt>
      <trkpt lat="49.19937" lon="6.99266">
        <ele>330</ele>
        <time>2012-01-22T08:39:41Z</time>
      </trkpt>
      <trkpt lat="49.19936" lon="6.99269">
        <ele>330</ele>
        <time>2012-01-22T08:39:43Z</time>
      </trkpt>
      <trkpt lat="49.19934" lon="6.99272">
        <ele>330</ele>
        <time>2012-01-22T08:39:45Z</time>
      </trkpt>
      <trkpt lat="49.19933" lon="6.99274">
        <ele>330</ele>
        <time>2012-01-22T08:39:46Z</time>
      </trkpt>
      <trkpt lat="49.19931" lon="6.99276">
        <ele>330</ele>
        <time>2012-01-22T08:39:46Z</time>
      </trkpt>
      <trkpt lat="49.19931" lon="6.99278">
        <ele>330</ele>
        <time>2012-01-22T08:39:47Z</time>
      </trkpt>
      <trkpt lat="49.1993" lon="6.99279">
        <ele>330</ele>
        <time>2012-01-22T08:39:49Z</time>
      </trkpt>
      <trkpt lat="49.19929" lon="6.99281">
        <ele>330</ele>
        <time>2012-01-22T08:39:49Z</time>
      </trkpt>
      <trkpt lat="49.19927" lon="6.99284">
        <ele>330</ele>
        <time>2012-01-22T08:39:52Z</time>
      </trkpt>
      <trkpt lat="49.19926" lon="6.99286">
        <ele>330</ele>
        <time>2012-01-22T08:39:53Z</time>
      </trkpt>
      <trkpt lat="49.19924" lon="6.99288">
        <ele>331</ele>
        <time>2012-01-22T08:39:55Z</time>
      </trkpt>
      <trkpt lat="49.19923" lon="6.99289">
        <ele>331</ele>
        <time>2012-01-22T08:39:56Z</time>
      </trkpt>
      <trkpt lat="49.19921" lon="6.99291">
        <ele>331</ele>
        <time>2012-01-22T08:39:57Z</time>
      </trkpt>
      <trkpt lat="49.1992" lon="6.99292">
        <ele>331</ele>
        <time>2012-01-22T08:39:58Z</time>
      </trkpt>
      <trkpt lat="49.19919" lon="6.99294">
        <ele>332</ele>
        <time>2012-01-22T08:39:59Z</time>
      </trkpt>
      <trkpt lat="49.19918" lon="6.99296">
        <ele>332</ele>
        <time>2012-01-22T08:40:00Z</time>
      </trkpt>
      <trkpt lat="49.19916" lon="6.99298">
        <ele>332</ele>
        <time>2012-01-22T08:40:02Z</time>
      </trkpt>
      <trkpt lat="49.19915" lon="6.993">
        <ele>332</ele>
        <time>2012-01-22T08:40:02Z</time>
      </trkpt>
      <trkpt lat="49.19914" lon="6.99302">
        <ele>332</ele>
        <time>2012-01-22T08:40:04Z</time>
      </trkpt>
      <trkpt lat="49.19912" lon="6.99304">
        <ele>332</ele>
        <time>2012-01-22T08:40:06Z</time>
      </trkpt>
      <trkpt lat="49.1991" lon="6.99307">
        <ele>332</ele>
        <time>2012-01-22T08:40:08Z</time>
      </trkpt>
      <trkpt lat="49.1991" lon="6.99309">
        <ele>332</ele>
        <time>2012-01-22T08:40:09Z</time>
      </trkpt>
      <trkpt lat="49.19909" lon="6.99311">
        <ele>332</ele>
        <time>2012-01-22T08:40:10Z</time>
      </trkpt>
      <trkpt lat="49.19908" lon="6.99313">
        <ele>332</ele>
        <time>2012-01-22T08:40:10Z</time>
      </trkpt>
      <trkpt lat="49.19907" lon="6.99315">
        <ele>332</ele>
        <time>2012-01-22T08:40:12Z</time>
      </trkpt>
      <trkpt lat="49.19906" lon="6.99317">
        <ele>332</ele>
        <time>2012-01-22T08:40:13Z</time>
      </trkpt>
      <trkpt lat="49.19905" lon="6.99319">
        <ele>332</ele>
        <time>2012-01-22T08:40:14Z</time>
      </trkpt>
      <trkpt lat="49.19904" lon="6.9932">
        <ele>332</ele>
        <time>2012-01-22T08:40:15Z</time>
      </trkpt>
      <trkpt lat="49.19904" lon="6.99322">
        <ele>332</ele>
        <time>2012-01-22T08:40:16Z</time>
      </trkpt>
      <trkpt lat="49.19902" lon="6.99325">
        <ele>332</ele>
        <time>2012-01-22T08:40:18Z</time>
      </trkpt>
      <trkpt lat="49.19901" lon="6.99328">
        <ele>332</ele>
        <time>2012-01-22T08:40:19Z</time>
      </trkpt>
      <trkpt lat="49.19899" lon="6.9933">
        <ele>332</ele>
        <time>2012-01-22T08:40:21Z</time>
      </trkpt>
      <trkpt lat="49.19897" lon="6.99333">
        <ele>332</ele>
        <time>2012-01-22T08:40:23Z</time>
      </trkpt>
      <trkpt lat="49.19896" lon="6.99335">
        <ele>332</ele>
        <time>2012-01-22T08:40:23Z</time>
      </trkpt>
      <trkpt lat="49.19896" lon="6.99336">
        <ele>332</ele>
        <time>2012-01-22T08:40:25Z</time>
      </trkpt>
      <trkpt lat="49.19894" lon="6.99338">
        <ele>332</ele>
        <time>2012-01-22T08:40:26Z</time>
      </trkpt>
      <trkpt lat="49.19893" lon="6.99341">
        <ele>332</ele>
        <time>2012-01-22T08:40:28Z</time>
      </trkpt>
      <trkpt lat="49.19892" lon="6.99343">
        <ele>332</ele>
        <time>2012-01-22T08:40:30Z</time>
      </trkpt>
      <trkpt lat="49.1989" lon="6.99345">
        <ele>332</ele>
        <time>2012-01-22T08:40:32Z</time>
      </trkpt>
      <trkpt lat="49.19889" lon="6.99347">
        <ele>332</ele>
        <time>2012-01-22T08:40:33Z</time>
      </trkpt>
      <trkpt lat="49.19888" lon="6.99348">
        <ele>332</ele>
        <time>2012-01-22T08:40:34Z</time>
      </trkpt>
      <trkpt lat="49.19886" lon="6.99351">
        <ele>332</ele>
        <time>2012-01-22T08:40:34Z</time>
      </trkpt>
      <trkpt lat="49.19885" lon="6.99353">
        <ele>332</ele>
        <time>2012-01-22T08:40:36Z</time>
      </trkpt>
      <trkpt lat="49.19884" lon="6.99355">
        <ele>332</ele>
        <time>2012-01-22T08:40:37Z</time>
      </trkpt>
      <trkpt lat="49.19883" lon="6.99357">
        <ele>332</ele>
        <time>2012-01-22T08:40:39Z</time>
      </trkpt>
      <trkpt lat="49.19881" lon="6.9936">
        <ele>332</ele>
        <time>2012-01-22T08:40:41Z</time>
      </trkpt>
      <trkpt lat="49.1988" lon="6.99362">
        <ele>332</ele>
        <time>2012-01-22T08:40:42Z</time>
      </trkpt>
      <trkpt lat="49.19878" lon="6.99364">
        <ele>332</ele>
        <time>2012-01-22T08:40:44Z</time>
      </trkpt>
      <trkpt lat="49.19876" lon="6.99365">
        <ele>333</ele>
        <time>2012-01-22T08:40:46Z</time>
      </trkpt>
      <trkpt lat="49.19875" lon="6.99366">
        <ele>333</ele>
        <time>2012-01-22T08:40:46Z</time>
      </trkpt>
      <trkpt lat="49.19874" lon="6.99368">
        <ele>333</ele>
        <time>2012-01-22T08:40:48Z</time>
      </trkpt>
      <trkpt lat="49.19872" lon="6.9937">
        <ele>333</ele>
        <time>2012-01-22T08:40:50Z</time>
      </trkpt>
      <trkpt lat="49.1987" lon="6.99373">
        <ele>333</ele>
        <time>2012-01-22T08:40:52Z</time>
      </trkpt>
      <trkpt lat="49.19869" lon="6.99374">
        <ele>333</ele>
        <time>2012-01-22T08:40:53Z</time>
      </trkpt>
      <trkpt lat="49.19867" lon="6.99376">
        <ele>333</ele>
        <time>2012-01-22T08:40:55Z</time>
      </trkpt>
      <trkpt lat="49.19866" lon="6.99377">
        <ele>333</ele>
        <time>2012-01-22T08:40:55Z</time>
      </trkpt>
      <trkpt lat="49.19864" lon="6.99381">
        <ele>333</ele>
        <time>2012-01-22T08:40:58Z</time>
      </trkpt>
      <trkpt lat="49.19863" lon="6.99383">
        <ele>333</ele>
        <time>2012-01-22T08:40:59Z</time>
      </trkpt>
      <trkpt lat="49.19862" lon="6.99385">
        <ele>333</ele>
        <time>2012-01-22T08:40:59Z</time>
      </trkpt>
      <trkpt lat="49.19862" lon="6.99388">
        <ele>333</ele>
        <time>2012-01-22T08:41:01Z</time>
      </trkpt>
      <trkpt lat="49.19861" lon="6.9939">
        <ele>333</ele>
        <time>2012-01-22T08:41:02Z</time>
      </trkpt>
      <trkpt lat="49.1986" lon="6.99392">
        <ele>333</ele>
        <time>2012-01-22T08:41:03Z</time>
      </trkpt>
      <trkpt lat="49.19859" lon="6.99394">
        <ele>333</ele>
        <time>2012-01-22T08:41:03Z</time>
      </trkpt>
      <trkpt lat="49.19857" lon="6.99397">
        <ele>333</ele>
        <time>2012-01-22T08:41:06Z</time>
      </trkpt>
      <trkpt lat="49.19856" lon="6.99399">
        <ele>333</ele>
        <time>2012-01-22T08:41:07Z</time>
      </trkpt>
      <trkpt lat="49.19855" lon="6.99401">
        <ele>333</ele>
        <time>2012-01-22T08:41:08Z</time>
      </trkpt>
      <trkpt lat="49.19855" lon="6.99403">
        <ele>333</ele>
        <time>2012-01-22T08:41:09Z</time>
      </trkpt>
      <trkpt lat="49.19854" lon="6.99405">
        <ele>333</ele>
        <time>2012-01-22T08:41:10Z</time>
      </trkpt>
      <trkpt lat="49.19853" lon="6.99408">
        <ele>333</ele>
        <time>2012-01-22T08:41:12Z</time>
      </trkpt>
      <trkpt lat="49.19852" lon="6.9941">
        <ele>333</ele>
        <time>2012-01-22T08:41:13Z</time>
      </trkpt>
      <trkpt lat="49.19851" lon="6.99412">
        <ele>333</ele>
        <time>2012-01-22T08:41:14Z</time>
      </trkpt>
      <trkpt lat="49.1985" lon="6.99414">
        <ele>333</ele>
        <time>2012-01-22T08:41:15Z</time>
      </trkpt>
      <trkpt lat="49.19848" lon="6.99417">
        <ele>333</ele>
        <time>2012-01-22T08:41:17Z</time>
      </trkpt>
      <trkpt lat="49.19846" lon="6.99419">
        <ele>334</ele>
        <time>2012-01-22T08:41:19Z</time>
      </trkpt>
      <trkpt lat="49.19845" lon="6.99421">
        <ele>334</ele>
        <time>2012-01-22T08:41:20Z</time>
      </trkpt>
      <trkpt lat="49.19844" lon="6.99423">
        <ele>334</ele>
        <time>2012-01-22T08:41:21Z</time>
      </trkpt>
      <trkpt lat="49.19844" lon="6.99425">
        <ele>334</ele>
        <time>2012-01-22T08:41:22Z</time>
      </trkpt>
      <trkpt lat="49.19843" lon="6.99426">
        <ele>335</ele>
        <time>2012-01-22T08:41:22Z</time>
      </trkpt>
      <trkpt lat="49.1984" lon="6.99429">
        <ele>335</ele>
        <time>2012-01-22T08:41:25Z</time>
      </trkpt>
      <trkpt lat="49.19838" lon="6.99431">
        <ele>335</ele>
        <time>2012-01-22T08:41:27Z</time>
      </trkpt>
      <trkpt lat="49.19836" lon="6.99433">
        <ele>335</ele>
        <time>2012-01-22T08:41:29Z</time>
      </trkpt>
      <trkpt lat="49.19835" lon="6.99436">
        <ele>335</ele>
        <time>2012-01-22T08:41:31Z</time>
      </trkpt>
      <trkpt lat="49.19833" lon="6.99437">
        <ele>335</ele>
        <time>2012-01-22T08:41:31Z</time>
      </trkpt>
      <trkpt lat="49.19832" lon="6.9944">
        <ele>336</ele>
        <time>2012-01-22T08:41:34Z</time>
      </trkpt>
      <trkpt lat="49.19831" lon="6.99442">
        <ele>336</ele>
        <time>2012-01-22T08:41:35Z</time>
      </trkpt>
      <trkpt lat="49.19829" lon="6.99444">
        <ele>336</ele>
        <time>2012-01-22T08:41:37Z</time>
      </trkpt>
      <trkpt lat="49.19828" lon="6.99446">
        <ele>336</ele>
        <time>2012-01-22T08:41:38Z</time>
      </trkpt>
      <trkpt lat="49.19827" lon="6.99449">
        <ele>336</ele>
        <time>2012-01-22T08:41:40Z</time>
      </trkpt>
      <trkpt lat="49.19825" lon="6.99451">
        <ele>336</ele>
        <time>2012-01-22T08:41:42Z</time>
      </trkpt>
      <trkpt lat="49.19824" lon="6.99453">
        <ele>336</ele>
        <time>2012-01-22T08:41:43Z</time>
      </trkpt>
      <trkpt lat="49.19822" lon="6.99454">
        <ele>336</ele>
        <time>2012-01-22T08:41:44Z</time>
      </trkpt>
      <trkpt lat="49.19821" lon="6.99456">
        <ele>336</ele>
        <time>2012-01-22T08:41:46Z</time>
      </trkpt>
      <trkpt lat="49.19819" lon="6.99458">
        <ele>336</ele>
        <time>2012-01-22T08:41:48Z</time>
      </trkpt>
      <trkpt lat="49.19817" lon="6.9946">
        <ele>336</ele>
        <time>2012-01-22T08:41:49Z</time>
      </trkpt>
      <trkpt lat="49.19815" lon="6.99462">
        <ele>336</ele>
        <time>2012-01-22T08:41:52Z</time>
      </trkpt>
      <trkpt lat="49.19814" lon="6.99464">
        <ele>336</ele>
        <time>2012-01-22T08:41:53Z</time>
      </trkpt>
      <trkpt lat="49.19813" lon="6.99466">
        <ele>336</ele>
        <time>2012-01-22T08:41:54Z</time>
      </trkpt>
      <trkpt lat="49.19812" lon="6.99468">
        <ele>336</ele>
        <time>2012-01-22T08:41:54Z</time>
      </trkpt>
      <trkpt lat="49.19811" lon="6.99471">
        <ele>336</ele>
        <time>2012-01-22T08:41:56Z</time>
      </trkpt>
      <trkpt lat="49.1981" lon="6.99473">
        <ele>336</ele>
        <time>2012-01-22T08:41:57Z</time>
      </trkpt>
      <trkpt lat="49.19809" lon="6.99475">
        <ele>336</ele>
        <time>2012-01-22T08:41:58Z</time>
      </trkpt>
      <trkpt lat="49.19808" lon="6.99476">
        <ele>336</ele>
        <time>2012-01-22T08:41:59Z</time>
      </trkpt>
      <trkpt lat="49.19807" lon="6.99477">
        <ele>336</ele>
        <time>2012-01-22T08:42:00Z</time>
      </trkpt>
      <trkpt lat="49.19805" lon="6.99479">
        <ele>336</ele>
        <time>2012-01-22T08:42:01Z</time>
      </trkpt>
      <trkpt lat="49.19804" lon="6.9948">
        <ele>336</ele>
        <time>2012-01-22T08:42:02Z</time>
      </trkpt>
      <trkpt lat="49.19802" lon="6.99482">
        <ele>336</ele>
        <time>2012-01-22T08:42:04Z</time>
      </trkpt>
      <trkpt lat="49.19801" lon="6.99486">
        <ele>336</ele>
        <time>2012-01-22T08:42:06Z</time>
      </trkpt>
      <trkpt lat="49.198" lon="6.99488">
        <ele>336</ele>
        <time>2012-01-22T08:42:07Z</time>
      </trkpt>
      <trkpt lat="49.19799" lon="6.9949">
        <ele>336</ele>
        <time>2012-01-22T08:42:07Z</time>
      </trkpt>
      <trkpt lat="49.19797" lon="6.99493">
        <ele>336</ele>
        <time>2012-01-22T08:42:10Z</time>
      </trkpt>
      <trkpt lat="49.19796" lon="6.99495">
        <ele>336</ele>
        <time>2012-01-22T08:42:12Z</time>
      </trkpt>
      <trkpt lat="49.19794" lon="6.99498">
        <ele>336</ele>
        <time>2012-01-22T08:42:14Z</time>
      </trkpt>
      <trkpt lat="49.19793" lon="6.99499">
        <ele>336</ele>
        <time>2012-01-22T08:42:15Z</time>
      </trkpt>
      <trkpt lat="49.19791" lon="6.99502">
        <ele>336</ele>
        <time>2012-01-22T08:42:17Z</time>
      </trkpt>
      <trkpt lat="49.1979" lon="6.99504">
        <ele>336</ele>
        <time>2012-01-22T08:42:18Z</time>
      </trkpt>
      <trkpt lat="49.19789" lon="6.99505">
        <ele>336</ele>
        <time>2012-01-22T08:42:18Z</time>
      </trkpt>
      <trkpt lat="49.19788" lon="6.99507">
        <ele>336</ele>
        <time>2012-01-22T08:42:19Z</time>
      </trkpt>
      <trkpt lat="49.19786" lon="6.99508">
        <ele>336</ele>
        <time>2012-01-22T08:42:21Z</time>
      </trkpt>
      <trkpt lat="49.19785" lon="6.9951">
        <ele>336</ele>
        <time>2012-01-22T08:42:22Z</time>
      </trkpt>
      <trkpt lat="49.19783" lon="6.99512">
        <ele>336</ele>
        <time>2012-01-22T08:42:24Z</time>
      </trkpt>
      <trkpt lat="49.19782" lon="6.99514">
        <ele>336</ele>
        <time>2012-01-22T08:42:26Z</time>
      </trkpt>
      <trkpt lat="49.19781" lon="6.99515">
        <ele>336</ele>
        <time>2012-01-22T08:42:27Z</time>
      </trkpt>
      <trkpt lat="49.1978" lon="6.99517">
        <ele>336</ele>
        <time>2012-01-22T08:42:27Z</time>
      </trkpt>
      <trkpt lat="49.19778" lon="6.99519">
        <ele>336</ele>
        <time>2012-01-22T08:42:29Z</time>
      </trkpt>
      <trkpt lat="49.19777" lon="6.9952">
        <ele>336</ele>
        <time>2012-01-22T08:42:30Z</time>
      </trkpt>
      <trkpt lat="49.19775" lon="6.99523">
        <ele>336</ele>
        <time>2012-01-22T08:42:33Z</time>
      </trkpt>
      <trkpt lat="49.19774" lon="6.99524">
        <ele>336</ele>
        <time>2012-01-22T08:42:34Z</time>
      </trkpt>
      <trkpt lat="49.19773" lon="6.99525">
        <ele>336</ele>
        <time>2012-01-22T08:42:34Z</time>
      </trkpt>
      <trkpt lat="49.19771" lon="6.99527">
        <ele>336</ele>
        <time>2012-01-22T08:42:37Z</time>
      </trkpt>
      <trkpt lat="49.19769" lon="6.9953">
        <ele>336</ele>
        <time>2012-01-22T08:42:38Z</time>
      </trkpt>
      <trkpt lat="49.19769" lon="6.99532">
        <ele>336</ele>
        <time>2012-01-22T08:42:40Z</time>
      </trkpt>
      <trkpt lat="49.19768" lon="6.99534">
        <ele>336</ele>
        <time>2012-01-22T08:42:41Z</time>
      </trkpt>
      <trkpt lat="49.19767" lon="6.99536">
        <ele>336</ele>
        <time>2012-01-22T08:42:43Z</time>
      </trkpt>
      <trkpt lat="49.19765" lon="6.9954">
        <ele>336</ele>
        <time>2012-01-22T08:42:45Z</time>
      </trkpt>
      <trkpt lat="49.19765" lon="6.99542">
        <ele>336</ele>
        <time>2012-01-22T08:42:45Z</time>
      </trkpt>
      <trkpt lat="49.19764" lon="6.99545">
        <ele>336</ele>
        <time>2012-01-22T08:42:46Z</time>
      </trkpt>
      <trkpt lat="49.19763" lon="6.99546">
        <ele>335</ele>
        <time>2012-01-22T08:42:47Z</time>
      </trkpt>
      <trkpt lat="49.19762" lon="6.99549">
        <ele>335</ele>
        <time>2012-01-22T08:42:50Z</time>
      </trkpt>
      <trkpt lat="49.19761" lon="6.99553">
        <ele>335</ele>
        <time>2012-01-22T08:42:51Z</time>
      </trkpt>
      <trkpt lat="49.1976" lon="6.99555">
        <ele>335</ele>
        <time>2012-01-22T08:42:53Z</time>
      </trkpt>
      <trkpt lat="49.19759" lon="6.99557">
        <ele>334</ele>
        <time>2012-01-22T08:42:54Z</time>
      </trkpt>
      <trkpt lat="49.19759" lon="6.99559">
        <ele>334</ele>
        <time>2012-01-22T08:42:55Z</time>
      </trkpt>
      <trkpt lat="49.19758" lon="6.99563">
        <ele>334</ele>
        <time>2012-01-22T08:42:55Z</time>
      </trkpt>
      <trkpt lat="49.19757" lon="6.99565">
        <ele>334</ele>
        <time>2012-01-22T08:42:57Z</time>
      </trkpt>
      <trkpt lat="49.19756" lon="6.99567">
        <ele>334</ele>
        <time>2012-01-22T08:42:58Z</time>
      </trkpt>
      <trkpt lat="49.19756" lon="6.99569">
        <ele>334</ele>
        <time>2012-01-22T08:42:59Z</time>
      </trkpt>
      <trkpt lat="49.19755" lon="6.99571">
        <ele>334</ele>
        <time>2012-01-22T08:43:00Z</time>
      </trkpt>
      <trkpt lat="49.19754" lon="6.99574">
        <ele>334</ele>
        <time>2012-01-22T08:43:02Z</time>
      </trkpt>
      <trkpt lat="49.19753" lon="6.99576">
        <ele>333</ele>
        <time>2012-01-22T08:43:03Z</time>
      </trkpt>
      <trkpt lat="49.19753" lon="6.99577">
        <ele>333</ele>
        <time>2012-01-22T08:43:03Z</time>
      </trkpt>
      <trkpt lat="49.19753" lon="6.99579">
        <ele>332</ele>
        <time>2012-01-22T08:43:05Z</time>
      </trkpt>
      <trkpt lat="49.19752" lon="6.99581">
        <ele>331</ele>
        <time>2012-01-22T08:43:06Z</time>
      </trkpt>
      <trkpt lat="49.19752" lon="6.99583">
        <ele>331</ele>
        <time>2012-01-22T08:43:06Z</time>
      </trkpt>
      <trkpt lat="49.19751" lon="6.99584">
        <ele>330</ele>
        <time>2012-01-22T08:43:07Z</time>
      </trkpt>
      <trkpt lat="49.19751" lon="6.99586">
        <ele>330</ele>
        <time>2012-01-22T08:43:08Z</time>
      </trkpt>
      <trkpt lat="49.1975" lon="6.99589">
        <ele>329</ele>
        <time>2012-01-22T08:43:10Z</time>
      </trkpt>
      <trkpt lat="49.19749" lon="6.99592">
        <ele>328</ele>
        <time>2012-01-22T08:43:13Z</time>
      </trkpt>
      <trkpt lat="49.19749" lon="6.99594">
        <ele>327</ele>
        <time>2012-01-22T08:43:14Z</time>
      </trkpt>
      <trkpt lat="49.19748" lon="6.99596">
        <ele>327</ele>
        <time>2012-01-22T08:43:16Z</time>
      </trkpt>
      <trkpt lat="49.19748" lon="6.99598">
        <ele>326</ele>
        <time>2012-01-22T08:43:16Z</time>
      </trkpt>
      <trkpt lat="49.19747" lon="6.99601">
        <ele>325</ele>
        <time>2012-01-22T08:43:18Z</time>
      </trkpt>
      <trkpt lat="49.19746" lon="6.99605">
        <ele>324</ele>
        <time>2012-01-22T08:43:21Z</time>
      </trkpt>
      <trkpt lat="49.19746" lon="6.99608">
        <ele>324</ele>
        <time>2012-01-22T08:43:21Z</time>
      </trkpt>
      <trkpt lat="49.19745" lon="6.99612">
        <ele>324</ele>
        <time>2012-01-22T08:43:22Z</time>
      </trkpt>
      <trkpt lat="49.19744" lon="6.99614">
        <ele>324</ele>
        <time>2012-01-22T08:43:23Z</time>
      </trkpt>
      <trkpt lat="49.19743" lon="6.99618">
        <ele>324</ele>
        <time>2012-01-22T08:43:25Z</time>
      </trkpt>
      <trkpt lat="49.19743" lon="6.99621">
        <ele>324</ele>
        <time>2012-01-22T08:43:28Z</time>
      </trkpt>
      <trkpt lat="49.19742" lon="6.99624">
        <ele>324</ele>
        <time>2012-01-22T08:43:29Z</time>
      </trkpt>
      <trkpt lat="49.19741" lon="6.99627">
        <ele>324</ele>
        <time>2012-01-22T08:43:32Z</time>
      </trkpt>
      <trkpt lat="49.19741" lon="6.9963">
        <ele>324</ele>
        <time>2012-01-22T08:43:34Z</time>
      </trkpt>
      <trkpt lat="49.1974" lon="6.99633">
        <ele>322</ele>
        <time>2012-01-22T08:43:35Z</time>
      </trkpt>
      <trkpt lat="49.19739" lon="6.99635">
        <ele>322</ele>
        <time>2012-01-22T08:43:37Z</time>
      </trkpt>
      <trkpt lat="49.19738" lon="6.99638">
        <ele>321</ele>
        <time>2012-01-22T08:43:39Z</time>
      </trkpt>
      <trkpt lat="49.19738" lon="6.9964">
        <ele>321</ele>
        <time>2012-01-22T08:43:40Z</time>
      </trkpt>
      <trkpt lat="49.19736" lon="6.99643">
        <ele>320</ele>
        <time>2012-01-22T08:43:41Z</time>
      </trkpt>
      <trkpt lat="49.19736" lon="6.99645">
        <ele>320</ele>
        <time>2012-01-22T08:43:42Z</time>
      </trkpt>
      <trkpt lat="49.19736" lon="6.99648">
        <ele>319</ele>
        <time>2012-01-22T08:43:44Z</time>
      </trkpt>
      <trkpt lat="49.19735" lon="6.9965">
        <ele>319</ele>
        <time>2012-01-22T08:43:45Z</time>
      </trkpt>
      <trkpt lat="49.19735" lon="6.99652">
        <ele>319</ele>
        <time>2012-01-22T08:43:45Z</time>
      </trkpt>
      <trkpt lat="49.19734" lon="6.99654">
        <ele>319</ele>
        <time>2012-01-22T08:43:46Z</time>
      </trkpt>
      <trkpt lat="49.19733" lon="6.99655">
        <ele>319</ele>
        <time>2012-01-22T08:43:47Z</time>
      </trkpt>
      <trkpt lat="49.19733" lon="6.99657">
        <ele>319</ele>
        <time>2012-01-22T08:43:48Z</time>
      </trkpt>
      <trkpt lat="49.19732" lon="6.99659">
        <ele>319</ele>
        <time>2012-01-22T08:43:49Z</time>
      </trkpt>
      <trkpt lat="49.19732" lon="6.9966">
        <ele>318</ele>
        <time>2012-01-22T08:43:51Z</time>
      </trkpt>
      <trkpt lat="49.19732" lon="6.99663">
        <ele>318</ele>
        <time>2012-01-22T08:43:51Z</time>
      </trkpt>
      <trkpt lat="49.19731" lon="6.99665">
        <ele>318</ele>
        <time>2012-01-22T08:43:52Z</time>
      </trkpt>
      <trkpt lat="49.1973" lon="6.99667">
        <ele>318</ele>
        <time>2012-01-22T08:43:53Z</time>
      </trkpt>
      <trkpt lat="49.1973" lon="6.99669">
        <ele>318</ele>
        <time>2012-01-22T08:43:54Z</time>
      </trkpt>
      <trkpt lat="49.19729" lon="6.99671">
        <ele>318</ele>
        <time>2012-01-22T08:43:56Z</time>
      </trkpt>
      <trkpt lat="49.19729" lon="6.99673">
        <ele>318</ele>
        <time>2012-01-22T08:43:57Z</time>
      </trkpt>
      <trkpt lat="49.19729" lon="6.99674">
        <ele>318</ele>
        <time>2012-01-22T08:43:58Z</time>
      </trkpt>
      <trkpt lat="49.19728" lon="6.99677">
        <ele>318</ele>
        <time>2012-01-22T08:43:58Z</time>
      </trkpt>
      <trkpt lat="49.19728" lon="6.9968">
        <ele>318</ele>
        <time>2012-01-22T08:43:59Z</time>
      </trkpt>
      <trkpt lat="49.19727" lon="6.99683">
        <ele>318</ele>
        <time>2012-01-22T08:44:02Z</time>
      </trkpt>
      <trkpt lat="49.19727" lon="6.99685">
        <ele>318</ele>
        <time>2012-01-22T08:44:02Z</time>
      </trkpt>
      <trkpt lat="49.19726" lon="6.99688">
        <ele>318</ele>
        <time>2012-01-22T08:44:03Z</time>
      </trkpt>
      <trkpt lat="49.19725" lon="6.99691">
        <ele>318</ele>
        <time>2012-01-22T08:44:04Z</time>
      </trkpt>
      <trkpt lat="49.19725" lon="6.99693">
        <ele>318</ele>
        <time>2012-01-22T08:44:06Z</time>
      </trkpt>
      <trkpt lat="49.19725" lon="6.99695">
        <ele>318</ele>
        <time>2012-01-22T08:44:07Z</time>
      </trkpt>
      <trkpt lat="49.19724" lon="6.99697">
        <ele>318</ele>
        <time>2012-01-22T08:44:07Z</time>
      </trkpt>
      <trkpt lat="49.19724" lon="6.99699">
        <ele>318</ele>
        <time>2012-01-22T08:44:08Z</time>
      </trkpt>
      <trkpt lat="49.19723" lon="6.99701">
        <ele>319</ele>
        <time>2012-01-22T08:44:10Z</time>
      </trkpt>
      <trkpt lat="49.19722" lon="6.99703">
        <ele>319</ele>
        <time>2012-01-22T08:44:12Z</time>
      </trkpt>
      <trkpt lat="49.19722" lon="6.99705">
        <ele>320</ele>
        <time>2012-01-22T08:44:12Z</time>
      </trkpt>
      <trkpt lat="49.19721" lon="6.99707">
        <ele>320</ele>
        <time>2012-01-22T08:44:13Z</time>
      </trkpt>
      <trkpt lat="49.1972" lon="6.99709">
        <ele>320</ele>
        <time>2012-01-22T08:44:14Z</time>
      </trkpt>
      <trkpt lat="49.19719" lon="6.99713">
        <ele>321</ele>
        <time>2012-01-22T08:44:16Z</time>
      </trkpt>
      <trkpt lat="49.19718" lon="6.99715">
        <ele>321</ele>
        <time>2012-01-22T08:44:18Z</time>
      </trkpt>
      <trkpt lat="49.19717" lon="6.99716">
        <ele>321</ele>
        <time>2012-01-22T08:44:18Z</time>
      </trkpt>
      <trkpt lat="49.19716" lon="6.99719">
        <ele>321</ele>
        <time>2012-01-22T08:44:20Z</time>
      </trkpt>
      <trkpt lat="49.19714" lon="6.99722">
        <ele>322</ele>
        <time>2012-01-22T08:44:23Z</time>
      </trkpt>
      <trkpt lat="49.19714" lon="6.99724">
        <ele>322</ele>
        <time>2012-01-22T08:44:23Z</time>
      </trkpt>
      <trkpt lat="49.19713" lon="6.99726">
        <ele>322</ele>
        <time>2012-01-22T08:44:24Z</time>
      </trkpt>
      <trkpt lat="49.19712" lon="6.99728">
        <ele>322</ele>
        <time>2012-01-22T08:44:26Z</time>
      </trkpt>
      <trkpt lat="49.19711" lon="6.9973">
        <ele>322</ele>
        <time>2012-01-22T08:44:26Z</time>
      </trkpt>
      <trkpt lat="49.1971" lon="6.99731">
        <ele>322</ele>
        <time>2012-01-22T08:44:28Z</time>
      </trkpt>
      <trkpt lat="49.19709" lon="6.99732">
        <ele>322</ele>
        <time>2012-01-22T08:44:28Z</time>
      </trkpt>
      <trkpt lat="49.19707" lon="6.99733">
        <ele>323</ele>
        <time>2012-01-22T08:44:29Z</time>
      </trkpt>
      <trkpt lat="49.19705" lon="6.99735">
        <ele>323</ele>
        <time>2012-01-22T08:44:31Z</time>
      </trkpt>
      <trkpt lat="49.19704" lon="6.99736">
        <ele>323</ele>
        <time>2012-01-22T08:44:32Z</time>
      </trkpt>
      <trkpt lat="49.19703" lon="6.99738">
        <ele>323</ele>
        <time>2012-01-22T08:44:34Z</time>
      </trkpt>
      <trkpt lat="49.19701" lon="6.99738">
        <ele>323</ele>
        <time>2012-01-22T08:44:34Z</time>
      </trkpt>
      <trkpt lat="49.197" lon="6.9974">
        <ele>323</ele>
        <time>2012-01-22T08:44:36Z</time>
      </trkpt>
      <trkpt lat="49.19698" lon="6.99741">
        <ele>323</ele>
        <time>2012-01-22T08:44:37Z</time>
      </trkpt>
      <trkpt lat="49.19697" lon="6.99742">
        <ele>323</ele>
        <time>2012-01-22T08:44:39Z</time>
      </trkpt>
      <trkpt lat="49.19695" lon="6.99743">
        <ele>323</ele>
        <time>2012-01-22T08:44:41Z</time>
      </trkpt>
      <trkpt lat="49.19693" lon="6.99743">
        <ele>323</ele>
        <time>2012-01-22T08:44:42Z</time>
      </trkpt>
      <trkpt lat="49.19692" lon="6.99744">
        <ele>323</ele>
        <time>2012-01-22T08:44:43Z</time>
      </trkpt>
      <trkpt lat="49.1969" lon="6.99745">
        <ele>323</ele>
        <time>2012-01-22T08:44:46Z</time>
      </trkpt>
      <trkpt lat="49.19688" lon="6.99747">
        <ele>323</ele>
        <time>2012-01-22T08:44:47Z</time>
      </trkpt>
      <trkpt lat="49.19687" lon="6.99748">
        <ele>323</ele>
        <time>2012-01-22T08:44:49Z</time>
      </trkpt>
      <trkpt lat="49.19685" lon="6.99748">
        <ele>323</ele>
        <time>2012-01-22T08:44:49Z</time>
      </trkpt>
      <trkpt lat="49.19684" lon="6.99749">
        <ele>323</ele>
        <time>2012-01-22T08:44:51Z</time>
      </trkpt>
      <trkpt lat="49.19683" lon="6.9975">
        <ele>323</ele>
        <time>2012-01-22T08:44:51Z</time>
      </trkpt>
      <trkpt lat="49.19681" lon="6.9975">
        <ele>323</ele>
        <time>2012-01-22T08:44:52Z</time>
      </trkpt>
      <trkpt lat="49.19679" lon="6.99752">
        <ele>323</ele>
        <time>2012-01-22T08:44:54Z</time>
      </trkpt>
      <trkpt lat="49.19678" lon="6.99753">
        <ele>323</ele>
        <time>2012-01-22T08:44:56Z</time>
      </trkpt>
      <trkpt lat="49.19677" lon="6.99754">
        <ele>323</ele>
        <time>2012-01-22T08:44:56Z</time>
      </trkpt>
      <trkpt lat="49.19675" lon="6.99755">
        <ele>323</ele>
        <time>2012-01-22T08:44:57Z</time>
      </trkpt>
      <trkpt lat="49.19673" lon="6.99756">
        <ele>323</ele>
        <time>2012-01-22T08:44:58Z</time>
      </trkpt>
      <trkpt lat="49.19672" lon="6.99757">
        <ele>323</ele>
        <time>2012-01-22T08:44:59Z</time>
      </trkpt>
      <trkpt lat="49.19671" lon="6.99758">
        <ele>323</ele>
        <time>2012-01-22T08:45:01Z</time>
      </trkpt>
      <trkpt lat="49.19669" lon="6.99759">
        <ele>323</ele>
        <time>2012-01-22T08:45:01Z</time>
      </trkpt>
      <trkpt lat="49.19668" lon="6.9976">
        <ele>323</ele>
        <time>2012-01-22T08:45:02Z</time>
      </trkpt>
      <trkpt lat="49.19667" lon="6.99762">
        <ele>323</ele>
        <time>2012-01-22T08:45:04Z</time>
      </trkpt>
      <trkpt lat="49.19664" lon="6.99764">
        <ele>323</ele>
        <time>2012-01-22T08:45:06Z</time>
      </trkpt>
      <trkpt lat="49.19663" lon="6.99765">
        <ele>323</ele>
        <time>2012-01-22T08:45:07Z</time>
      </trkpt>
      <trkpt lat="49.19661" lon="6.99766">
        <ele>323</ele>
        <time>2012-01-22T08:45:08Z</time>
      </trkpt>
      <trkpt lat="49.19659" lon="6.99767">
        <ele>323</ele>
        <time>2012-01-22T08:45:09Z</time>
      </trkpt>
      <trkpt lat="49.19658" lon="6.99768">
        <ele>323</ele>
        <time>2012-01-22T08:45:10Z</time>
      </trkpt>
      <trkpt lat="49.19657" lon="6.9977">
        <ele>323</ele>
        <time>2012-01-22T08:45:11Z</time>
      </trkpt>
      <trkpt lat="49.19656" lon="6.99771">
        <ele>323</ele>
        <time>2012-01-22T08:45:12Z</time>
      </trkpt>
      <trkpt lat="49.19653" lon="6.99773">
        <ele>323</ele>
        <time>2012-01-22T08:45:14Z</time>
      </trkpt>
      <trkpt lat="49.19651" lon="6.99774">
        <ele>323</ele>
        <time>2012-01-22T08:45:17Z</time>
      </trkpt>
      <trkpt lat="49.1965" lon="6.99775">
        <ele>323</ele>
        <time>2012-01-22T08:45:18Z</time>
      </trkpt>
      <trkpt lat="49.19647" lon="6.99775">
        <ele>323</ele>
        <time>2012-01-22T08:45:20Z</time>
      </trkpt>
      <trkpt lat="49.19646" lon="6.99775">
        <ele>323</ele>
        <time>2012-01-22T08:45:22Z</time>
      </trkpt>
      <trkpt lat="49.19645" lon="6.99776">
        <ele>323</ele>
        <time>2012-01-22T08:45:22Z</time>
      </trkpt>
      <trkpt lat="49.19643" lon="6.99777">
        <ele>323</ele>
        <time>2012-01-22T08:45:24Z</time>
      </trkpt>
      <trkpt lat="49.19641" lon="6.99778">
        <ele>323</ele>
        <time>2012-01-22T08:45:25Z</time>
      </trkpt>
      <trkpt lat="49.1964" lon="6.9978">
        <ele>323</ele>
        <time>2012-01-22T08:45:27Z</time>
      </trkpt>
      <trkpt lat="49.19638" lon="6.99782">
        <ele>323</ele>
        <time>2012-01-22T08:45:28Z</time>
      </trkpt>
      <trkpt lat="49.19637" lon="6.99783">
        <ele>323</ele>
        <time>2012-01-22T08:45:28Z</time>
      </trkpt>
      <trkpt lat="49.19635" lon="6.99785">
        <ele>323</ele>
        <time>2012-01-22T08:45:30Z</time>
      </trkpt>
      <trkpt lat="49.19634" lon="6.99786">
        <ele>323</ele>
        <time>2012-01-22T08:45:32Z</time>
      </trkpt>
      <trkpt lat="49.19632" lon="6.99789">
        <ele>323</ele>
        <time>2012-01-22T08:45:33Z</time>
      </trkpt>
      <trkpt lat="49.19631" lon="6.9979">
        <ele>323</ele>
        <time>2012-01-22T08:45:34Z</time>
      </trkpt>
      <trkpt lat="49.19629" lon="6.99791">
        <ele>323</ele>
        <time>2012-01-22T08:45:37Z</time>
      </trkpt>
      <trkpt lat="49.19627" lon="6.99794">
        <ele>323</ele>
        <time>2012-01-22T08:45:38Z</time>
      </trkpt>
      <trkpt lat="49.19625" lon="6.99795">
        <ele>323</ele>
        <time>2012-01-22T08:45:39Z</time>
      </trkpt>
      <trkpt lat="49.19624" lon="6.99796">
        <ele>323</ele>
        <time>2012-01-22T08:45:40Z</time>
      </trkpt>
      <trkpt lat="49.19622" lon="6.99797">
        <ele>323</ele>
        <time>2012-01-22T08:45:43Z</time>
      </trkpt>
      <trkpt lat="49.19621" lon="6.99798">
        <ele>323</ele>
        <time>2012-01-22T08:45:44Z</time>
      </trkpt>
      <trkpt lat="49.19619" lon="6.99801">
        <ele>323</ele>
        <time>2012-01-22T08:45:46Z</time>
      </trkpt>
      <trkpt lat="49.19617" lon="6.99802">
        <ele>323</ele>
        <time>2012-01-22T08:45:48Z</time>
      </trkpt>
      <trkpt lat="49.19616" lon="6.99802">
        <ele>323</ele>
        <time>2012-01-22T08:45:48Z</time>
      </trkpt>
      <trkpt lat="49.19615" lon="6.99803">
        <ele>323</ele>
        <time>2012-01-22T08:45:49Z</time>
      </trkpt>
      <trkpt lat="49.19613" lon="6.99805">
        <ele>323</ele>
        <time>2012-01-22T08:45:51Z</time>
      </trkpt>
      <trkpt lat="49.19611" lon="6.99806">
        <ele>323</ele>
        <time>2012-01-22T08:45:53Z</time>
      </trkpt>
      <trkpt lat="49.1961" lon="6.99806">
        <ele>323</ele>
        <time>2012-01-22T08:45:53Z</time>
      </trkpt>
      <trkpt lat="49.19608" lon="6.99807">
        <ele>323</ele>
        <time>2012-01-22T08:45:55Z</time>
      </trkpt>
      <trkpt lat="49.19607" lon="6.99809">
        <ele>323</ele>
        <time>2012-01-22T08:45:56Z</time>
      </trkpt>
      <trkpt lat="49.19606" lon="6.99809">
        <ele>323</ele>
        <time>2012-01-22T08:45:58Z</time>
      </trkpt>
      <trkpt lat="49.19604" lon="6.9981">
        <ele>323</ele>
        <time>2012-01-22T08:45:58Z</time>
      </trkpt>
      <trkpt lat="49.19602" lon="6.99812">
        <ele>323</ele>
        <time>2012-01-22T08:46:00Z</time>
      </trkpt>
      <trkpt lat="49.196" lon="6.99813">
        <ele>323</ele>
        <time>2012-01-22T08:46:01Z</time>
      </trkpt>
      <trkpt lat="49.19599" lon="6.99814">
        <ele>323</ele>
        <time>2012-01-22T08:46:03Z</time>
      </trkpt>
      <trkpt lat="49.19598" lon="6.99815">
        <ele>324</ele>
        <time>2012-01-22T08:46:03Z</time>
      </trkpt>
      <trkpt lat="49.19596" lon="6.99816">
        <ele>324</ele>
        <time>2012-01-22T08:46:04Z</time>
      </trkpt>
      <trkpt lat="49.19595" lon="6.99817">
        <ele>324</ele>
        <time>2012-01-22T08:46:05Z</time>
      </trkpt>
      <trkpt lat="49.19593" lon="6.99818">
        <ele>325</ele>
        <time>2012-01-22T08:46:08Z</time>
      </trkpt>
      <trkpt lat="49.19591" lon="6.99821">
        <ele>325</ele>
        <time>2012-01-22T08:46:09Z</time>
      </trkpt>
      <trkpt lat="49.19589" lon="6.99822">
        <ele>325</ele>
        <time>2012-01-22T08:46:10Z</time>
      </trkpt>
      <trkpt lat="49.19588" lon="6.99822">
        <ele>325</ele>
        <time>2012-01-22T08:46:11Z</time>
      </trkpt>
      <trkpt lat="49.19586" lon="6.99823">
        <ele>325</ele>
        <time>2012-01-22T08:46:14Z</time>
      </trkpt>
      <trkpt lat="49.19585" lon="6.99824">
        <ele>325</ele>
        <time>2012-01-22T08:46:14Z</time>
      </trkpt>
      <trkpt lat="49.19583" lon="6.99824">
        <ele>325</ele>
        <time>2012-01-22T08:46:15Z</time>
      </trkpt>
      <trkpt lat="49.19582" lon="6.99825">
        <ele>325</ele>
        <time>2012-01-22T08:46:16Z</time>
      </trkpt>
      <trkpt lat="49.1958" lon="6.99826">
        <ele>325</ele>
        <time>2012-01-22T08:46:17Z</time>
      </trkpt>
      <trkpt lat="49.19578" lon="6.99827">
        <ele>325</ele>
        <time>2012-01-22T08:46:20Z</time>
      </trkpt>
      <trkpt lat="49.19576" lon="6.99828">
        <ele>325</ele>
        <time>2012-01-22T08:46:21Z</time>
      </trkpt>
      <trkpt lat="49.19574" lon="6.9983">
        <ele>326</ele>
        <time>2012-01-22T08:46:23Z</time>
      </trkpt>
      <trkpt lat="49.19572" lon="6.99832">
        <ele>326</ele>
        <time>2012-01-22T08:46:26Z</time>
      </trkpt>
      <trkpt lat="49.19571" lon="6.99832">
        <ele>326</ele>
        <time>2012-01-22T08:46:27Z</time>
      </trkpt>
      <trkpt lat="49.19569" lon="6.99831">
        <ele>326</ele>
        <time>2012-01-22T08:46:33Z</time>
      </trkpt>
      <trkpt lat="49.19568" lon="6.9983">
        <ele>326</ele>
        <time>2012-01-22T08:46:34Z</time>
      </trkpt>
      <trkpt lat="49.19568" lon="6.99828">
        <ele>326</ele>
        <time>2012-01-22T08:46:46Z</time>
      </trkpt>
      <trkpt lat="49.19567" lon="6.99827">
        <ele>326</ele>
        <time>2012-01-22T08:46:49Z</time>
      </trkpt>
      <trkpt lat="49.19566" lon="6.99827">
        <ele>323</ele>
        <time>2012-01-22T08:47:03Z</time>
      </trkpt>
      <trkpt lat="49.19565" lon="6.99826">
        <ele>323</ele>
        <time>2012-01-22T08:47:06Z</time>
      </trkpt>
      <trkpt lat="49.19564" lon="6.99825">
        <ele>323</ele>
        <time>2012-01-22T08:47:08Z</time>
      </trkpt>
      <trkpt lat="49.19562" lon="6.99824">
        <ele>323</ele>
        <time>2012-01-22T08:47:10Z</time>
      </trkpt>
      <trkpt lat="49.19561" lon="6.99823">
        <ele>323</ele>
        <time>2012-01-22T08:47:14Z</time>
      </trkpt>
      <trkpt lat="49.19562" lon="6.99825">
        <ele>323</ele>
        <time>2012-01-22T08:47:16Z</time>
      </trkpt>
      <trkpt lat="49.19561" lon="6.99823">
        <ele>323</ele>
        <time>2012-01-22T08:47:22Z</time>
      </trkpt>
      <trkpt lat="49.19562" lon="6.99825">
        <ele>323</ele>
        <time>2012-01-22T08:47:32Z</time>
      </trkpt>
      <trkpt lat="49.19563" lon="6.99826">
        <ele>323</ele>
        <time>2012-01-22T08:47:50Z</time>
      </trkpt>
      <trkpt lat="49.19562" lon="6.99825">
        <ele>322</ele>
        <time>2012-01-22T08:47:54Z</time>
      </trkpt>
      <trkpt lat="49.19561" lon="6.99824">
        <ele>322</ele>
        <time>2012-01-22T08:47:57Z</time>
      </trkpt>
      <trkpt lat="49.19562" lon="6.99825">
        <ele>322</ele>
        <time>2012-01-22T08:48:08Z</time>
      </trkpt>
      <trkpt lat="49.19562" lon="6.99828">
        <ele>322</ele>
        <time>2012-01-22T08:48:14Z</time>
      </trkpt>
      <trkpt lat="49.19563" lon="6.9983">
        <ele>322</ele>
        <time>2012-01-22T08:48:15Z</time>
      </trkpt>
      <trkpt lat="49.19564" lon="6.99833">
        <ele>322</ele>
        <time>2012-01-22T08:48:17Z</time>
      </trkpt>
      <trkpt lat="49.19566" lon="6.99835">
        <ele>322</ele>
        <time>2012-01-22T08:48:19Z</time>
      </trkpt>
      <trkpt lat="49.19567" lon="6.99836">
        <ele>322</ele>
        <time>2012-01-22T08:48:21Z</time>
      </trkpt>
      <trkpt lat="49.19568" lon="6.99838">
        <ele>321</ele>
        <time>2012-01-22T08:48:22Z</time>
      </trkpt>
      <trkpt lat="49.19569" lon="6.99839">
        <ele>320</ele>
        <time>2012-01-22T08:48:23Z</time>
      </trkpt>
      <trkpt lat="49.1957" lon="6.9984">
        <ele>320</ele>
        <time>2012-01-22T08:48:24Z</time>
      </trkpt>
      <trkpt lat="49.19572" lon="6.99841">
        <ele>319</ele>
        <time>2012-01-22T08:48:25Z</time>
      </trkpt>
      <trkpt lat="49.19573" lon="6.99842">
        <ele>318</ele>
        <time>2012-01-22T08:48:26Z</time>
      </trkpt>
      <trkpt lat="49.19574" lon="6.99845">
        <ele>317</ele>
        <time>2012-01-22T08:48:28Z</time>
      </trkpt>
      <trkpt lat="49.19576" lon="6.99847">
        <ele>316</ele>
        <time>2012-01-22T08:48:30Z</time>
      </trkpt>
      <trkpt lat="49.19578" lon="6.99848">
        <ele>316</ele>
        <time>2012-01-22T08:48:32Z</time>
      </trkpt>
      <trkpt lat="49.19579" lon="6.99848">
        <ele>315</ele>
        <time>2012-01-22T08:48:34Z</time>
      </trkpt>
      <trkpt lat="49.19581" lon="6.99848">
        <ele>315</ele>
        <time>2012-01-22T08:48:36Z</time>
      </trkpt>
      <trkpt lat="49.19583" lon="6.99848">
        <ele>315</ele>
        <time>2012-01-22T08:48:37Z</time>
      </trkpt>
      <trkpt lat="49.19585" lon="6.99849">
        <ele>315</ele>
        <time>2012-01-22T08:48:39Z</time>
      </trkpt>
      <trkpt lat="49.19587" lon="6.9985">
        <ele>315</ele>
        <time>2012-01-22T08:48:40Z</time>
      </trkpt>
      <trkpt lat="49.19588" lon="6.99851">
        <ele>315</ele>
        <time>2012-01-22T08:48:42Z</time>
      </trkpt>
      <trkpt lat="49.19589" lon="6.99853">
        <ele>314</ele>
        <time>2012-01-22T08:48:43Z</time>
      </trkpt>
      <trkpt lat="49.19591" lon="6.99856">
        <ele>314</ele>
        <time>2012-01-22T08:48:45Z</time>
      </trkpt>
      <trkpt lat="49.19592" lon="6.99857">
        <ele>314</ele>
        <time>2012-01-22T08:48:46Z</time>
      </trkpt>
      <trkpt lat="49.19593" lon="6.99858">
        <ele>314</ele>
        <time>2012-01-22T08:48:47Z</time>
      </trkpt>
      <trkpt lat="49.19595" lon="6.9986">
        <ele>314</ele>
        <time>2012-01-22T08:48:49Z</time>
      </trkpt>
      <trkpt lat="49.19597" lon="6.99862">
        <ele>313</ele>
        <time>2012-01-22T08:48:51Z</time>
      </trkpt>
      <trkpt lat="49.19599" lon="6.99862">
        <ele>313</ele>
        <time>2012-01-22T08:48:53Z</time>
      </trkpt>
      <trkpt lat="49.19601" lon="6.99862">
        <ele>312</ele>
        <time>2012-01-22T08:48:53Z</time>
      </trkpt>
      <trkpt lat="49.19603" lon="6.99864">
        <ele>311</ele>
        <time>2012-01-22T08:48:54Z</time>
      </trkpt>
      <trkpt lat="49.19604" lon="6.99866">
        <ele>310</ele>
        <time>2012-01-22T08:48:55Z</time>
      </trkpt>
      <trkpt lat="49.19605" lon="6.99866">
        <ele>309</ele>
        <time>2012-01-22T08:48:56Z</time>
      </trkpt>
      <trkpt lat="49.19606" lon="6.99868">
        <ele>308</ele>
        <time>2012-01-22T08:48:57Z</time>
      </trkpt>
      <trkpt lat="49.19607" lon="6.99871">
        <ele>308</ele>
        <time>2012-01-22T08:48:58Z</time>
      </trkpt>
      <trkpt lat="49.19608" lon="6.99873">
        <ele>308</ele>
        <time>2012-01-22T08:48:59Z</time>
      </trkpt>
      <trkpt lat="49.19609" lon="6.99875">
        <ele>308</ele>
        <time>2012-01-22T08:49:00Z</time>
      </trkpt>
      <trkpt lat="49.19609" lon="6.99877">
        <ele>308</ele>
        <time>2012-01-22T08:49:01Z</time>
      </trkpt>
      <trkpt lat="49.19611" lon="6.9988">
        <ele>307</ele>
        <time>2012-01-22T08:49:03Z</time>
      </trkpt>
      <trkpt lat="49.19613" lon="6.99882">
        <ele>307</ele>
        <time>2012-01-22T08:49:05Z</time>
      </trkpt>
      <trkpt lat="49.19614" lon="6.99883">
        <ele>306</ele>
        <time>2012-01-22T08:49:06Z</time>
      </trkpt>
      <trkpt lat="49.19615" lon="6.99885">
        <ele>306</ele>
        <time>2012-01-22T08:49:07Z</time>
      </trkpt>
      <trkpt lat="49.19615" lon="6.99887">
        <ele>306</ele>
        <time>2012-01-22T08:49:09Z</time>
      </trkpt>
      <trkpt lat="49.19617" lon="6.99888">
        <ele>306</ele>
        <time>2012-01-22T08:49:09Z</time>
      </trkpt>
      <trkpt lat="49.19619" lon="6.9989">
        <ele>306</ele>
        <time>2012-01-22T08:49:11Z</time>
      </trkpt>
      <trkpt lat="49.19621" lon="6.99891">
        <ele>306</ele>
        <time>2012-01-22T08:49:12Z</time>
      </trkpt>
      <trkpt lat="49.19622" lon="6.99891">
        <ele>306</ele>
        <time>2012-01-22T08:49:14Z</time>
      </trkpt>
      <trkpt lat="49.19622" lon="6.99894">
        <ele>306</ele>
        <time>2012-01-22T08:49:14Z</time>
      </trkpt>
      <trkpt lat="49.19624" lon="6.99895">
        <ele>306</ele>
        <time>2012-01-22T08:49:15Z</time>
      </trkpt>
      <trkpt lat="49.19624" lon="6.99897">
        <ele>306</ele>
        <time>2012-01-22T08:49:16Z</time>
      </trkpt>
      <trkpt lat="49.19626" lon="6.999">
        <ele>306</ele>
        <time>2012-01-22T08:49:18Z</time>
      </trkpt>
      <trkpt lat="49.19627" lon="6.99901">
        <ele>306</ele>
        <time>2012-01-22T08:49:19Z</time>
      </trkpt>
      <trkpt lat="49.19628" lon="6.99902">
        <ele>306</ele>
        <time>2012-01-22T08:49:20Z</time>
      </trkpt>
      <trkpt lat="49.19629" lon="6.99903">
        <ele>306</ele>
        <time>2012-01-22T08:49:21Z</time>
      </trkpt>
      <trkpt lat="49.19631" lon="6.99905">
        <ele>306</ele>
        <time>2012-01-22T08:49:23Z</time>
      </trkpt>
      <trkpt lat="49.19632" lon="6.99907">
        <ele>306</ele>
        <time>2012-01-22T08:49:24Z</time>
      </trkpt>
      <trkpt lat="49.19633" lon="6.99908">
        <ele>306</ele>
        <time>2012-01-22T08:49:25Z</time>
      </trkpt>
      <trkpt lat="49.19635" lon="6.99911">
        <ele>306</ele>
        <time>2012-01-22T08:49:27Z</time>
      </trkpt>
      <trkpt lat="49.19636" lon="6.99912">
        <ele>306</ele>
        <time>2012-01-22T08:49:29Z</time>
      </trkpt>
      <trkpt lat="49.19638" lon="6.99913">
        <ele>306</ele>
        <time>2012-01-22T08:49:29Z</time>
      </trkpt>
      <trkpt lat="49.1964" lon="6.99915">
        <ele>306</ele>
        <time>2012-01-22T08:49:31Z</time>
      </trkpt>
      <trkpt lat="49.19641" lon="6.99915">
        <ele>306</ele>
        <time>2012-01-22T08:49:33Z</time>
      </trkpt>
      <trkpt lat="49.19643" lon="6.99915">
        <ele>306</ele>
        <time>2012-01-22T08:49:34Z</time>
      </trkpt>
      <trkpt lat="49.19644" lon="6.99916">
        <ele>306</ele>
        <time>2012-01-22T08:49:35Z</time>
      </trkpt>
      <trkpt lat="49.19645" lon="6.99916">
        <ele>306</ele>
        <time>2012-01-22T08:49:36Z</time>
      </trkpt>
      <trkpt lat="49.19646" lon="6.99917">
        <ele>306</ele>
        <time>2012-01-22T08:49:37Z</time>
      </trkpt>
      <trkpt lat="49.19648" lon="6.99918">
        <ele>306</ele>
        <time>2012-01-22T08:49:38Z</time>
      </trkpt>
      <trkpt lat="49.1965" lon="6.99918">
        <ele>306</ele>
        <time>2012-01-22T08:49:39Z</time>
      </trkpt>
      <trkpt lat="49.19652" lon="6.99919">
        <ele>306</ele>
        <time>2012-01-22T08:49:40Z</time>
      </trkpt>
      <trkpt lat="49.19653" lon="6.99919">
        <ele>306</ele>
        <time>2012-01-22T08:49:41Z</time>
      </trkpt>
      <trkpt lat="49.19655" lon="6.9992">
        <ele>306</ele>
        <time>2012-01-22T08:49:43Z</time>
      </trkpt>
      <trkpt lat="49.19658" lon="6.99922">
        <ele>306</ele>
        <time>2012-01-22T08:49:45Z</time>
      </trkpt>
      <trkpt lat="49.19659" lon="6.99922">
        <ele>306</ele>
        <time>2012-01-22T08:49:46Z</time>
      </trkpt>
      <trkpt lat="49.19661" lon="6.99923">
        <ele>306</ele>
        <time>2012-01-22T08:49:47Z</time>
      </trkpt>
      <trkpt lat="49.19662" lon="6.99923">
        <ele>306</ele>
        <time>2012-01-22T08:49:48Z</time>
      </trkpt>
      <trkpt lat="49.19664" lon="6.99927">
        <ele>307</ele>
        <time>2012-01-22T08:49:50Z</time>
      </trkpt>
      <trkpt lat="49.19666" lon="6.99928">
        <ele>307</ele>
        <time>2012-01-22T08:49:51Z</time>
      </trkpt>
      <trkpt lat="49.19667" lon="6.99929">
        <ele>307</ele>
        <time>2012-01-22T08:49:52Z</time>
      </trkpt>
      <trkpt lat="49.19669" lon="6.99931">
        <ele>307</ele>
        <time>2012-01-22T08:49:54Z</time>
      </trkpt>
      <trkpt lat="49.19671" lon="6.99932">
        <ele>307</ele>
        <time>2012-01-22T08:49:55Z</time>
      </trkpt>
      <trkpt lat="49.19672" lon="6.99934">
        <ele>307</ele>
        <time>2012-01-22T08:49:56Z</time>
      </trkpt>
      <trkpt lat="49.19674" lon="6.99936">
        <ele>307</ele>
        <time>2012-01-22T08:49:58Z</time>
      </trkpt>
      <trkpt lat="49.19676" lon="6.99937">
        <ele>307</ele>
        <time>2012-01-22T08:50:00Z</time>
      </trkpt>
      <trkpt lat="49.19677" lon="6.99936">
        <ele>309</ele>
        <time>2012-01-22T08:50:02Z</time>
      </trkpt>
      <trkpt lat="49.19678" lon="6.99934">
        <ele>309</ele>
        <time>2012-01-22T08:50:04Z</time>
      </trkpt>
      <trkpt lat="49.1968" lon="6.99932">
        <ele>309</ele>
        <time>2012-01-22T08:50:06Z</time>
      </trkpt>
      <trkpt lat="49.19681" lon="6.9993">
        <ele>309</ele>
        <time>2012-01-22T08:50:07Z</time>
      </trkpt>
      <trkpt lat="49.19682" lon="6.99927">
        <ele>309</ele>
        <time>2012-01-22T08:50:09Z</time>
      </trkpt>
      <trkpt lat="49.19683" lon="6.99926">
        <ele>309</ele>
        <time>2012-01-22T08:50:10Z</time>
      </trkpt>
      <trkpt lat="49.19685" lon="6.99924">
        <ele>309</ele>
        <time>2012-01-22T08:50:12Z</time>
      </trkpt>
      <trkpt lat="49.19687" lon="6.99921">
        <ele>309</ele>
        <time>2012-01-22T08:50:14Z</time>
      </trkpt>
      <trkpt lat="49.19689" lon="6.99918">
        <ele>309</ele>
        <time>2012-01-22T08:50:16Z</time>
      </trkpt>
      <trkpt lat="49.1969" lon="6.99915">
        <ele>309</ele>
        <time>2012-01-22T08:50:18Z</time>
      </trkpt>
      <trkpt lat="49.19691" lon="6.99911">
        <ele>309</ele>
        <time>2012-01-22T08:50:20Z</time>
      </trkpt>
      <trkpt lat="49.19693" lon="6.99908">
        <ele>309</ele>
        <time>2012-01-22T08:50:22Z</time>
      </trkpt>
      <trkpt lat="49.19694" lon="6.99908">
        <ele>309</ele>
        <time>2012-01-22T08:50:23Z</time>
      </trkpt>
      <trkpt lat="49.19696" lon="6.99906">
        <ele>309</ele>
        <time>2012-01-22T08:50:24Z</time>
      </trkpt>
      <trkpt lat="49.19698" lon="6.99905">
        <ele>309</ele>
        <time>2012-01-22T08:50:25Z</time>
      </trkpt>
      <trkpt lat="49.197" lon="6.99903">
        <ele>309</ele>
        <time>2012-01-22T08:50:27Z</time>
      </trkpt>
      <trkpt lat="49.19701" lon="6.999">
        <ele>309</ele>
        <time>2012-01-22T08:50:29Z</time>
      </trkpt>
      <trkpt lat="49.19702" lon="6.99898">
        <ele>309</ele>
        <time>2012-01-22T08:50:30Z</time>
      </trkpt>
      <trkpt lat="49.19703" lon="6.99896">
        <ele>309</ele>
        <time>2012-01-22T08:50:31Z</time>
      </trkpt>
      <trkpt lat="49.19704" lon="6.99893">
        <ele>309</ele>
        <time>2012-01-22T08:50:33Z</time>
      </trkpt>
      <trkpt lat="49.19706" lon="6.99892">
        <ele>309</ele>
        <time>2012-01-22T08:50:34Z</time>
      </trkpt>
      <trkpt lat="49.19707" lon="6.9989">
        <ele>309</ele>
        <time>2012-01-22T08:50:35Z</time>
      </trkpt>
      <trkpt lat="49.19709" lon="6.99889">
        <ele>309</ele>
        <time>2012-01-22T08:50:36Z</time>
      </trkpt>
      <trkpt lat="49.1971" lon="6.99888">
        <ele>309</ele>
        <time>2012-01-22T08:50:37Z</time>
      </trkpt>
      <trkpt lat="49.19711" lon="6.99886">
        <ele>309</ele>
        <time>2012-01-22T08:50:39Z</time>
      </trkpt>
      <trkpt lat="49.19712" lon="6.99883">
        <ele>309</ele>
        <time>2012-01-22T08:50:40Z</time>
      </trkpt>
      <trkpt lat="49.19714" lon="6.99882">
        <ele>309</ele>
        <time>2012-01-22T08:50:42Z</time>
      </trkpt>
      <trkpt lat="49.19716" lon="6.99879">
        <ele>309</ele>
        <time>2012-01-22T08:50:44Z</time>
      </trkpt>
      <trkpt lat="49.19718" lon="6.99878">
        <ele>309</ele>
        <time>2012-01-22T08:50:45Z</time>
      </trkpt>
      <trkpt lat="49.19719" lon="6.99876">
        <ele>309</ele>
        <time>2012-01-22T08:50:46Z</time>
      </trkpt>
      <trkpt lat="49.19721" lon="6.99874">
        <ele>309</ele>
        <time>2012-01-22T08:50:47Z</time>
      </trkpt>
      <trkpt lat="49.19721" lon="6.99873">
        <ele>309</ele>
        <time>2012-01-22T08:50:48Z</time>
      </trkpt>
      <trkpt lat="49.19723" lon="6.99871">
        <ele>309</ele>
        <time>2012-01-22T08:50:50Z</time>
      </trkpt>
      <trkpt lat="49.19724" lon="6.99869">
        <ele>309</ele>
        <time>2012-01-22T08:50:51Z</time>
      </trkpt>
      <trkpt lat="49.19725" lon="6.99866">
        <ele>309</ele>
        <time>2012-01-22T08:50:53Z</time>
      </trkpt>
      <trkpt lat="49.19727" lon="6.99864">
        <ele>309</ele>
        <time>2012-01-22T08:50:54Z</time>
      </trkpt>
      <trkpt lat="49.19728" lon="6.99863">
        <ele>309</ele>
        <time>2012-01-22T08:50:55Z</time>
      </trkpt>
      <trkpt lat="49.1973" lon="6.99861">
        <ele>309</ele>
        <time>2012-01-22T08:50:56Z</time>
      </trkpt>
      <trkpt lat="49.19731" lon="6.9986">
        <ele>309</ele>
        <time>2012-01-22T08:50:57Z</time>
      </trkpt>
      <trkpt lat="49.19732" lon="6.99858">
        <ele>309</ele>
        <time>2012-01-22T08:50:58Z</time>
      </trkpt>
      <trkpt lat="49.19732" lon="6.99857">
        <ele>309</ele>
        <time>2012-01-22T08:50:59Z</time>
      </trkpt>
      <trkpt lat="49.19734" lon="6.99854">
        <ele>309</ele>
        <time>2012-01-22T08:51:01Z</time>
      </trkpt>
      <trkpt lat="49.19736" lon="6.99852">
        <ele>309</ele>
        <time>2012-01-22T08:51:03Z</time>
      </trkpt>
      <trkpt lat="49.19737" lon="6.99851">
        <ele>309</ele>
        <time>2012-01-22T08:51:04Z</time>
      </trkpt>
      <trkpt lat="49.19739" lon="6.99848">
        <ele>309</ele>
        <time>2012-01-22T08:51:06Z</time>
      </trkpt>
      <trkpt lat="49.19741" lon="6.99846">
        <ele>309</ele>
        <time>2012-01-22T08:51:08Z</time>
      </trkpt>
      <trkpt lat="49.19743" lon="6.99845">
        <ele>309</ele>
        <time>2012-01-22T08:51:09Z</time>
      </trkpt>
      <trkpt lat="49.19744" lon="6.99843">
        <ele>309</ele>
        <time>2012-01-22T08:51:10Z</time>
      </trkpt>
      <trkpt lat="49.19746" lon="6.99842">
        <ele>309</ele>
        <time>2012-01-22T08:51:11Z</time>
      </trkpt>
      <trkpt lat="49.19748" lon="6.99841">
        <ele>309</ele>
        <time>2012-01-22T08:51:12Z</time>
      </trkpt>
      <trkpt lat="49.19749" lon="6.9984">
        <ele>309</ele>
        <time>2012-01-22T08:51:13Z</time>
      </trkpt>
      <trkpt lat="49.1975" lon="6.99838">
        <ele>308</ele>
        <time>2012-01-22T08:51:14Z</time>
      </trkpt>
      <trkpt lat="49.19751" lon="6.99836">
        <ele>308</ele>
        <time>2012-01-22T08:51:15Z</time>
      </trkpt>
      <trkpt lat="49.19752" lon="6.99834">
        <ele>308</ele>
        <time>2012-01-22T08:51:16Z</time>
      </trkpt>
      <trkpt lat="49.19753" lon="6.99834">
        <ele>308</ele>
        <time>2012-01-22T08:51:17Z</time>
      </trkpt>
      <trkpt lat="49.19755" lon="6.99831">
        <ele>308</ele>
        <time>2012-01-22T08:51:19Z</time>
      </trkpt>
      <trkpt lat="49.19756" lon="6.99829">
        <ele>308</ele>
        <time>2012-01-22T08:51:20Z</time>
      </trkpt>
      <trkpt lat="49.19757" lon="6.99828">
        <ele>308</ele>
        <time>2012-01-22T08:51:21Z</time>
      </trkpt>
      <trkpt lat="49.19759" lon="6.99826">
        <ele>308</ele>
        <time>2012-01-22T08:51:22Z</time>
      </trkpt>
      <trkpt lat="49.1976" lon="6.99825">
        <ele>307</ele>
        <time>2012-01-22T08:51:23Z</time>
      </trkpt>
      <trkpt lat="49.19762" lon="6.99822">
        <ele>307</ele>
        <time>2012-01-22T08:51:25Z</time>
      </trkpt>
      <trkpt lat="49.19763" lon="6.9982">
        <ele>307</ele>
        <time>2012-01-22T08:51:26Z</time>
      </trkpt>
      <trkpt lat="49.19764" lon="6.99818">
        <ele>307</ele>
        <time>2012-01-22T08:51:28Z</time>
      </trkpt>
      <trkpt lat="49.19766" lon="6.99816">
        <ele>307</ele>
        <time>2012-01-22T08:51:29Z</time>
      </trkpt>
      <trkpt lat="49.19768" lon="6.99814">
        <ele>307</ele>
        <time>2012-01-22T08:51:31Z</time>
      </trkpt>
      <trkpt lat="49.1977" lon="6.99812">
        <ele>307</ele>
        <time>2012-01-22T08:51:33Z</time>
      </trkpt>
      <trkpt lat="49.19771" lon="6.99811">
        <ele>307</ele>
        <time>2012-01-22T08:51:34Z</time>
      </trkpt>
      <trkpt lat="49.19772" lon="6.9981">
        <ele>307</ele>
        <time>2012-01-22T08:51:35Z</time>
      </trkpt>
      <trkpt lat="49.19773" lon="6.99809">
        <ele>307</ele>
        <time>2012-01-22T08:51:36Z</time>
      </trkpt>
      <trkpt lat="49.19775" lon="6.99806">
        <ele>306</ele>
        <time>2012-01-22T08:51:38Z</time>
      </trkpt>
      <trkpt lat="49.19776" lon="6.99805">
        <ele>306</ele>
        <time>2012-01-22T08:51:39Z</time>
      </trkpt>
      <trkpt lat="49.19778" lon="6.99804">
        <ele>306</ele>
        <time>2012-01-22T08:51:40Z</time>
      </trkpt>
      <trkpt lat="49.19779" lon="6.99802">
        <ele>306</ele>
        <time>2012-01-22T08:51:41Z</time>
      </trkpt>
      <trkpt lat="49.1978" lon="6.99801">
        <ele>306</ele>
        <time>2012-01-22T08:51:42Z</time>
      </trkpt>
      <trkpt lat="49.19782" lon="6.99799">
        <ele>306</ele>
        <time>2012-01-22T08:51:43Z</time>
      </trkpt>
      <trkpt lat="49.19783" lon="6.99798">
        <ele>306</ele>
        <time>2012-01-22T08:51:44Z</time>
      </trkpt>
      <trkpt lat="49.19785" lon="6.99796">
        <ele>305</ele>
        <time>2012-01-22T08:51:46Z</time>
      </trkpt>
      <trkpt lat="49.19787" lon="6.99794">
        <ele>305</ele>
        <time>2012-01-22T08:51:48Z</time>
      </trkpt>
      <trkpt lat="49.19788" lon="6.99794">
        <ele>305</ele>
        <time>2012-01-22T08:51:49Z</time>
      </trkpt>
      <trkpt lat="49.1979" lon="6.99791">
        <ele>305</ele>
        <time>2012-01-22T08:51:51Z</time>
      </trkpt>
      <trkpt lat="49.19793" lon="6.99789">
        <ele>305</ele>
        <time>2012-01-22T08:51:53Z</time>
      </trkpt>
      <trkpt lat="49.19794" lon="6.99788">
        <ele>305</ele>
        <time>2012-01-22T08:51:54Z</time>
      </trkpt>
      <trkpt lat="49.19796" lon="6.99787">
        <ele>305</ele>
        <time>2012-01-22T08:51:55Z</time>
      </trkpt>
      <trkpt lat="49.19798" lon="6.99787">
        <ele>305</ele>
        <time>2012-01-22T08:51:56Z</time>
      </trkpt>
      <trkpt lat="49.19799" lon="6.99787">
        <ele>305</ele>
        <time>2012-01-22T08:51:57Z</time>
      </trkpt>
      <trkpt lat="49.198" lon="6.99786">
        <ele>305</ele>
        <time>2012-01-22T08:51:58Z</time>
      </trkpt>
      <trkpt lat="49.19802" lon="6.99784">
        <ele>305</ele>
        <time>2012-01-22T08:51:59Z</time>
      </trkpt>
      <trkpt lat="49.19804" lon="6.99783">
        <ele>305</ele>
        <time>2012-01-22T08:52:00Z</time>
      </trkpt>
      <trkpt lat="49.19805" lon="6.99783">
        <ele>305</ele>
        <time>2012-01-22T08:52:01Z</time>
      </trkpt>
      <trkpt lat="49.19807" lon="6.99783">
        <ele>305</ele>
        <time>2012-01-22T08:52:02Z</time>
      </trkpt>
      <trkpt lat="49.19808" lon="6.99782">
        <ele>305</ele>
        <time>2012-01-22T08:52:03Z</time>
      </trkpt>
      <trkpt lat="49.19809" lon="6.9978">
        <ele>305</ele>
        <time>2012-01-22T08:52:04Z</time>
      </trkpt>
      <trkpt lat="49.19811" lon="6.99779">
        <ele>305</ele>
        <time>2012-01-22T08:52:05Z</time>
      </trkpt>
      <trkpt lat="49.19813" lon="6.99778">
        <ele>306</ele>
        <time>2012-01-22T08:52:07Z</time>
      </trkpt>
      <trkpt lat="49.19815" lon="6.99777">
        <ele>306</ele>
        <time>2012-01-22T08:52:09Z</time>
      </trkpt>
      <trkpt lat="49.19817" lon="6.99776">
        <ele>306</ele>
        <time>2012-01-22T08:52:10Z</time>
      </trkpt>
      <trkpt lat="49.19819" lon="6.99775">
        <ele>307</ele>
        <time>2012-01-22T08:52:12Z</time>
      </trkpt>
      <trkpt lat="49.1982" lon="6.99774">
        <ele>307</ele>
        <time>2012-01-22T08:52:13Z</time>
      </trkpt>
      <trkpt lat="49.19822" lon="6.99773">
        <ele>307</ele>
        <time>2012-01-22T08:52:14Z</time>
      </trkpt>
      <trkpt lat="49.19824" lon="6.99772">
        <ele>308</ele>
        <time>2012-01-22T08:52:16Z</time>
      </trkpt>
      <trkpt lat="49.19825" lon="6.9977">
        <ele>308</ele>
        <time>2012-01-22T08:52:18Z</time>
      </trkpt>
      <trkpt lat="49.19827" lon="6.99768">
        <ele>308</ele>
        <time>2012-01-22T08:52:20Z</time>
      </trkpt>
      <trkpt lat="49.19828" lon="6.99767">
        <ele>308</ele>
        <time>2012-01-22T08:52:21Z</time>
      </trkpt>
      <trkpt lat="49.1983" lon="6.99766">
        <ele>308</ele>
        <time>2012-01-22T08:52:22Z</time>
      </trkpt>
      <trkpt lat="49.19832" lon="6.99765">
        <ele>308</ele>
        <time>2012-01-22T08:52:24Z</time>
      </trkpt>
      <trkpt lat="49.19834" lon="6.99762">
        <ele>308</ele>
        <time>2012-01-22T08:52:26Z</time>
      </trkpt>
      <trkpt lat="49.19836" lon="6.9976">
        <ele>308</ele>
        <time>2012-01-22T08:52:28Z</time>
      </trkpt>
      <trkpt lat="49.19837" lon="6.99758">
        <ele>308</ele>
        <time>2012-01-22T08:52:30Z</time>
      </trkpt>
      <trkpt lat="49.19838" lon="6.99757">
        <ele>308</ele>
        <time>2012-01-22T08:52:31Z</time>
      </trkpt>
      <trkpt lat="49.19839" lon="6.99757">
        <ele>308</ele>
        <time>2012-01-22T08:52:32Z</time>
      </trkpt>
      <trkpt lat="49.19841" lon="6.99756">
        <ele>308</ele>
        <time>2012-01-22T08:52:33Z</time>
      </trkpt>
      <trkpt lat="49.19842" lon="6.99755">
        <ele>308</ele>
        <time>2012-01-22T08:52:34Z</time>
      </trkpt>
      <trkpt lat="49.19844" lon="6.99753">
        <ele>308</ele>
        <time>2012-01-22T08:52:35Z</time>
      </trkpt>
      <trkpt lat="49.19846" lon="6.99751">
        <ele>308</ele>
        <time>2012-01-22T08:52:37Z</time>
      </trkpt>
      <trkpt lat="49.19847" lon="6.9975">
        <ele>308</ele>
        <time>2012-01-22T08:52:38Z</time>
      </trkpt>
      <trkpt lat="49.19849" lon="6.9975">
        <ele>308</ele>
        <time>2012-01-22T08:52:39Z</time>
      </trkpt>
      <trkpt lat="49.19851" lon="6.99749">
        <ele>308</ele>
        <time>2012-01-22T08:52:40Z</time>
      </trkpt>
      <trkpt lat="49.19852" lon="6.99748">
        <ele>308</ele>
        <time>2012-01-22T08:52:41Z</time>
      </trkpt>
      <trkpt lat="49.19854" lon="6.99747">
        <ele>308</ele>
        <time>2012-01-22T08:52:42Z</time>
      </trkpt>
      <trkpt lat="49.19856" lon="6.99746">
        <ele>308</ele>
        <time>2012-01-22T08:52:43Z</time>
      </trkpt>
      <trkpt lat="49.19857" lon="6.99744">
        <ele>308</ele>
        <time>2012-01-22T08:52:45Z</time>
      </trkpt>
      <trkpt lat="49.19858" lon="6.99742">
        <ele>308</ele>
        <time>2012-01-22T08:52:46Z</time>
      </trkpt>
      <trkpt lat="49.19859" lon="6.99741">
        <ele>308</ele>
        <time>2012-01-22T08:52:47Z</time>
      </trkpt>
      <trkpt lat="49.19861" lon="6.99739">
        <ele>308</ele>
        <time>2012-01-22T08:52:50Z</time>
      </trkpt>
      <trkpt lat="49.19863" lon="6.99738">
        <ele>308</ele>
        <time>2012-01-22T08:52:52Z</time>
      </trkpt>
      <trkpt lat="49.19864" lon="6.99737">
        <ele>308</ele>
        <time>2012-01-22T08:52:53Z</time>
      </trkpt>
      <trkpt lat="49.19866" lon="6.99737">
        <ele>308</ele>
        <time>2012-01-22T08:52:54Z</time>
      </trkpt>
      <trkpt lat="49.19867" lon="6.99737">
        <ele>308</ele>
        <time>2012-01-22T08:52:55Z</time>
      </trkpt>
      <trkpt lat="49.19869" lon="6.99735">
        <ele>308</ele>
        <time>2012-01-22T08:52:57Z</time>
      </trkpt>
      <trkpt lat="49.19871" lon="6.99733">
        <ele>308</ele>
        <time>2012-01-22T08:52:59Z</time>
      </trkpt>
      <trkpt lat="49.19873" lon="6.99732">
        <ele>308</ele>
        <time>2012-01-22T08:53:01Z</time>
      </trkpt>
      <trkpt lat="49.19875" lon="6.99731">
        <ele>308</ele>
        <time>2012-01-22T08:53:02Z</time>
      </trkpt>
      <trkpt lat="49.19876" lon="6.9973">
        <ele>308</ele>
        <time>2012-01-22T08:53:03Z</time>
      </trkpt>
      <trkpt lat="49.19878" lon="6.99729">
        <ele>308</ele>
        <time>2012-01-22T08:53:04Z</time>
      </trkpt>
      <trkpt lat="49.1988" lon="6.99728">
        <ele>308</ele>
        <time>2012-01-22T08:53:05Z</time>
      </trkpt>
      <trkpt lat="49.19883" lon="6.99728">
        <ele>308</ele>
        <time>2012-01-22T08:53:06Z</time>
      </trkpt>
      <trkpt lat="49.19884" lon="6.99727">
        <ele>309</ele>
        <time>2012-01-22T08:53:07Z</time>
      </trkpt>
      <trkpt lat="49.19886" lon="6.99726">
        <ele>309</ele>
        <time>2012-01-22T08:53:08Z</time>
      </trkpt>
      <trkpt lat="49.19888" lon="6.99725">
        <ele>309</ele>
        <time>2012-01-22T08:53:09Z</time>
      </trkpt>
      <trkpt lat="49.19889" lon="6.99724">
        <ele>309</ele>
        <time>2012-01-22T08:53:10Z</time>
      </trkpt>
      <trkpt lat="49.1989" lon="6.99723">
        <ele>309</ele>
        <time>2012-01-22T08:53:12Z</time>
      </trkpt>
      <trkpt lat="49.19893" lon="6.99721">
        <ele>310</ele>
        <time>2012-01-22T08:53:14Z</time>
      </trkpt>
      <trkpt lat="49.19894" lon="6.9972">
        <ele>311</ele>
        <time>2012-01-22T08:53:15Z</time>
      </trkpt>
      <trkpt lat="49.19896" lon="6.99717">
        <ele>311</ele>
        <time>2012-01-22T08:53:16Z</time>
      </trkpt>
      <trkpt lat="49.19898" lon="6.99716">
        <ele>311</ele>
        <time>2012-01-22T08:53:17Z</time>
      </trkpt>
      <trkpt lat="49.199" lon="6.99714">
        <ele>311</ele>
        <time>2012-01-22T08:53:19Z</time>
      </trkpt>
      <trkpt lat="49.19902" lon="6.99711">
        <ele>311</ele>
        <time>2012-01-22T08:53:21Z</time>
      </trkpt>
      <trkpt lat="49.19904" lon="6.99709">
        <ele>311</ele>
        <time>2012-01-22T08:53:23Z</time>
      </trkpt>
      <trkpt lat="49.19905" lon="6.99708">
        <ele>312</ele>
        <time>2012-01-22T08:53:25Z</time>
      </trkpt>
      <trkpt lat="49.19907" lon="6.99706">
        <ele>312</ele>
        <time>2012-01-22T08:53:27Z</time>
      </trkpt>
      <trkpt lat="49.19909" lon="6.99705">
        <ele>312</ele>
        <time>2012-01-22T08:53:28Z</time>
      </trkpt>
      <trkpt lat="49.1991" lon="6.99704">
        <ele>312</ele>
        <time>2012-01-22T08:53:29Z</time>
      </trkpt>
      <trkpt lat="49.19912" lon="6.99703">
        <ele>312</ele>
        <time>2012-01-22T08:53:31Z</time>
      </trkpt>
      <trkpt lat="49.19914" lon="6.99703">
        <ele>312</ele>
        <time>2012-01-22T08:53:32Z</time>
      </trkpt>
      <trkpt lat="49.19916" lon="6.99703">
        <ele>312</ele>
        <time>2012-01-22T08:53:33Z</time>
      </trkpt>
      <trkpt lat="49.19917" lon="6.99703">
        <ele>312</ele>
        <time>2012-01-22T08:53:34Z</time>
      </trkpt>
      <trkpt lat="49.19919" lon="6.99703">
        <ele>312</ele>
        <time>2012-01-22T08:53:35Z</time>
      </trkpt>
      <trkpt lat="49.19921" lon="6.99702">
        <ele>312</ele>
        <time>2012-01-22T08:53:36Z</time>
      </trkpt>
      <trkpt lat="49.19923" lon="6.99701">
        <ele>312</ele>
        <time>2012-01-22T08:53:38Z</time>
      </trkpt>
      <trkpt lat="49.19925" lon="6.997">
        <ele>312</ele>
        <time>2012-01-22T08:53:40Z</time>
      </trkpt>
      <trkpt lat="49.19926" lon="6.997">
        <ele>312</ele>
        <time>2012-01-22T08:53:41Z</time>
      </trkpt>
      <trkpt lat="49.19928" lon="6.99699">
        <ele>312</ele>
        <time>2012-01-22T08:53:42Z</time>
      </trkpt>
      <trkpt lat="49.1993" lon="6.99699">
        <ele>312</ele>
        <time>2012-01-22T08:53:43Z</time>
      </trkpt>
      <trkpt lat="49.19931" lon="6.99698">
        <ele>312</ele>
        <time>2012-01-22T08:53:44Z</time>
      </trkpt>
      <trkpt lat="49.19933" lon="6.99698">
        <ele>312</ele>
        <time>2012-01-22T08:53:45Z</time>
      </trkpt>
      <trkpt lat="49.19934" lon="6.99697">
        <ele>312</ele>
        <time>2012-01-22T08:53:47Z</time>
      </trkpt>
      <trkpt lat="49.19936" lon="6.99697">
        <ele>312</ele>
        <time>2012-01-22T08:53:48Z</time>
      </trkpt>
      <trkpt lat="49.19938" lon="6.99697">
        <ele>312</ele>
        <time>2012-01-22T08:53:49Z</time>
      </trkpt>
      <trkpt lat="49.19939" lon="6.99697">
        <ele>312</ele>
        <time>2012-01-22T08:53:50Z</time>
      </trkpt>
      <trkpt lat="49.1994" lon="6.99697">
        <ele>312</ele>
        <time>2012-01-22T08:53:51Z</time>
      </trkpt>
      <trkpt lat="49.19942" lon="6.99697">
        <ele>312</ele>
        <time>2012-01-22T08:53:52Z</time>
      </trkpt>
      <trkpt lat="49.19943" lon="6.99697">
        <ele>312</ele>
        <time>2012-01-22T08:53:53Z</time>
      </trkpt>
      <trkpt lat="49.19945" lon="6.99697">
        <ele>312</ele>
        <time>2012-01-22T08:53:54Z</time>
      </trkpt>
      <trkpt lat="49.19946" lon="6.99697">
        <ele>312</ele>
        <time>2012-01-22T08:53:56Z</time>
      </trkpt>
      <trkpt lat="49.19948" lon="6.99696">
        <ele>312</ele>
        <time>2012-01-22T08:53:57Z</time>
      </trkpt>
      <trkpt lat="49.19949" lon="6.99696">
        <ele>312</ele>
        <time>2012-01-22T08:53:58Z</time>
      </trkpt>
      <trkpt lat="49.1995" lon="6.99697">
        <ele>312</ele>
        <time>2012-01-22T08:53:59Z</time>
      </trkpt>
      <trkpt lat="49.19952" lon="6.99697">
        <ele>313</ele>
        <time>2012-01-22T08:54:00Z</time>
      </trkpt>
      <trkpt lat="49.19954" lon="6.99697">
        <ele>313</ele>
        <time>2012-01-22T08:54:01Z</time>
      </trkpt>
      <trkpt lat="49.19955" lon="6.99697">
        <ele>313</ele>
        <time>2012-01-22T08:54:02Z</time>
      </trkpt>
      <trkpt lat="49.19957" lon="6.99697">
        <ele>313</ele>
        <time>2012-01-22T08:54:03Z</time>
      </trkpt>
      <trkpt lat="49.19958" lon="6.99697">
        <ele>313</ele>
        <time>2012-01-22T08:54:04Z</time>
      </trkpt>
      <trkpt lat="49.19959" lon="6.99698">
        <ele>314</ele>
        <time>2012-01-22T08:54:05Z</time>
      </trkpt>
      <trkpt lat="49.19962" lon="6.99697">
        <ele>314</ele>
        <time>2012-01-22T08:54:07Z</time>
      </trkpt>
      <trkpt lat="49.19963" lon="6.99697">
        <ele>314</ele>
        <time>2012-01-22T08:54:08Z</time>
      </trkpt>
      <trkpt lat="49.19964" lon="6.99696">
        <ele>314</ele>
        <time>2012-01-22T08:54:09Z</time>
      </trkpt>
      <trkpt lat="49.19966" lon="6.99696">
        <ele>314</ele>
        <time>2012-01-22T08:54:10Z</time>
      </trkpt>
      <trkpt lat="49.19967" lon="6.99696">
        <ele>314</ele>
        <time>2012-01-22T08:54:11Z</time>
      </trkpt>
      <trkpt lat="49.19969" lon="6.99697">
        <ele>314</ele>
        <time>2012-01-22T08:54:13Z</time>
      </trkpt>
      <trkpt lat="49.1997" lon="6.99697">
        <ele>314</ele>
        <time>2012-01-22T08:54:14Z</time>
      </trkpt>
      <trkpt lat="49.19971" lon="6.99697">
        <ele>314</ele>
        <time>2012-01-22T08:54:15Z</time>
      </trkpt>
      <trkpt lat="49.19973" lon="6.99697">
        <ele>314</ele>
        <time>2012-01-22T08:54:16Z</time>
      </trkpt>
      <trkpt lat="49.19975" lon="6.99697">
        <ele>314</ele>
        <time>2012-01-22T08:54:17Z</time>
      </trkpt>
      <trkpt lat="49.19976" lon="6.99697">
        <ele>314</ele>
        <time>2012-01-22T08:54:18Z</time>
      </trkpt>
      <trkpt lat="49.19977" lon="6.99697">
        <ele>314</ele>
        <time>2012-01-22T08:54:19Z</time>
      </trkpt>
      <trkpt lat="49.19978" lon="6.99696">
        <ele>314</ele>
        <time>2012-01-22T08:54:21Z</time>
      </trkpt>
      <trkpt lat="49.1998" lon="6.99696">
        <ele>314</ele>
        <time>2012-01-22T08:54:22Z</time>
      </trkpt>
      <trkpt lat="49.19981" lon="6.99696">
        <ele>314</ele>
        <time>2012-01-22T08:54:23Z</time>
      </trkpt>
      <trkpt lat="49.19983" lon="6.99697">
        <ele>314</ele>
        <time>2012-01-22T08:54:25Z</time>
      </trkpt>
      <trkpt lat="49.19985" lon="6.99698">
        <ele>314</ele>
        <time>2012-01-22T08:54:26Z</time>
      </trkpt>
      <trkpt lat="49.19986" lon="6.99698">
        <ele>314</ele>
        <time>2012-01-22T08:54:27Z</time>
      </trkpt>
      <trkpt lat="49.19988" lon="6.99698">
        <ele>315</ele>
        <time>2012-01-22T08:54:28Z</time>
      </trkpt>
      <trkpt lat="49.1999" lon="6.99697">
        <ele>315</ele>
        <time>2012-01-22T08:54:29Z</time>
      </trkpt>
      <trkpt lat="49.19992" lon="6.99697">
        <ele>316</ele>
        <time>2012-01-22T08:54:31Z</time>
      </trkpt>
      <trkpt lat="49.19993" lon="6.99697">
        <ele>316</ele>
        <time>2012-01-22T08:54:32Z</time>
      </trkpt>
      <trkpt lat="49.19995" lon="6.99695">
        <ele>318</ele>
        <time>2012-01-22T08:54:36Z</time>
      </trkpt>
      <trkpt lat="49.19997" lon="6.99695">
        <ele>318</ele>
        <time>2012-01-22T08:54:37Z</time>
      </trkpt>
      <trkpt lat="49.19999" lon="6.99695">
        <ele>319</ele>
        <time>2012-01-22T08:54:39Z</time>
      </trkpt>
      <trkpt lat="49.20001" lon="6.99695">
        <ele>319</ele>
        <time>2012-01-22T08:54:40Z</time>
      </trkpt>
      <trkpt lat="49.20003" lon="6.99694">
        <ele>319</ele>
        <time>2012-01-22T08:54:41Z</time>
      </trkpt>
      <trkpt lat="49.20005" lon="6.99694">
        <ele>319</ele>
        <time>2012-01-22T08:54:42Z</time>
      </trkpt>
      <trkpt lat="49.20006" lon="6.99694">
        <ele>319</ele>
        <time>2012-01-22T08:54:43Z</time>
      </trkpt>
      <trkpt lat="49.20008" lon="6.99694">
        <ele>319</ele>
        <time>2012-01-22T08:54:44Z</time>
      </trkpt>
      <trkpt lat="49.2001" lon="6.99694">
        <ele>319</ele>
        <time>2012-01-22T08:54:45Z</time>
      </trkpt>
      <trkpt lat="49.20012" lon="6.99694">
        <ele>319</ele>
        <time>2012-01-22T08:54:46Z</time>
      </trkpt>
      <trkpt lat="49.20013" lon="6.99694">
        <ele>319</ele>
        <time>2012-01-22T08:54:47Z</time>
      </trkpt>
      <trkpt lat="49.20014" lon="6.99696">
        <ele>319</ele>
        <time>2012-01-22T08:54:49Z</time>
      </trkpt>
      <trkpt lat="49.20015" lon="6.99696">
        <ele>319</ele>
        <time>2012-01-22T08:54:50Z</time>
      </trkpt>
      <trkpt lat="49.20017" lon="6.99697">
        <ele>319</ele>
        <time>2012-01-22T08:54:51Z</time>
      </trkpt>
      <trkpt lat="49.20019" lon="6.99697">
        <ele>319</ele>
        <time>2012-01-22T08:54:52Z</time>
      </trkpt>
      <trkpt lat="49.20021" lon="6.99697">
        <ele>320</ele>
        <time>2012-01-22T08:54:53Z</time>
      </trkpt>
      <trkpt lat="49.20022" lon="6.99697">
        <ele>320</ele>
        <time>2012-01-22T08:54:54Z</time>
      </trkpt>
      <trkpt lat="49.20024" lon="6.99697">
        <ele>320</ele>
        <time>2012-01-22T08:54:55Z</time>
      </trkpt>
      <trkpt lat="49.20025" lon="6.99697">
        <ele>320</ele>
        <time>2012-01-22T08:54:56Z</time>
      </trkpt>
      <trkpt lat="49.20027" lon="6.99697">
        <ele>320</ele>
        <time>2012-01-22T08:54:57Z</time>
      </trkpt>
      <trkpt lat="49.20028" lon="6.99696">
        <ele>320</ele>
        <time>2012-01-22T08:54:58Z</time>
      </trkpt>
      <trkpt lat="49.2003" lon="6.99697">
        <ele>320</ele>
        <time>2012-01-22T08:54:59Z</time>
      </trkpt>
      <trkpt lat="49.20033" lon="6.99697">
        <ele>320</ele>
        <time>2012-01-22T08:55:00Z</time>
      </trkpt>
      <trkpt lat="49.20034" lon="6.99697">
        <ele>320</ele>
        <time>2012-01-22T08:55:01Z</time>
      </trkpt>
      <trkpt lat="49.20036" lon="6.99696">
        <ele>320</ele>
        <time>2012-01-22T08:55:02Z</time>
      </trkpt>
      <trkpt lat="49.20039" lon="6.99695">
        <ele>320</ele>
        <time>2012-01-22T08:55:04Z</time>
      </trkpt>
      <trkpt lat="49.2004" lon="6.99694">
        <ele>320</ele>
        <time>2012-01-22T08:55:05Z</time>
      </trkpt>
      <trkpt lat="49.20042" lon="6.99694">
        <ele>320</ele>
        <time>2012-01-22T08:55:06Z</time>
      </trkpt>
      <trkpt lat="49.20043" lon="6.99694">
        <ele>320</ele>
        <time>2012-01-22T08:55:08Z</time>
      </trkpt>
      <trkpt lat="49.20045" lon="6.99695">
        <ele>321</ele>
        <time>2012-01-22T08:55:10Z</time>
      </trkpt>
      <trkpt lat="49.20047" lon="6.99695">
        <ele>321</ele>
        <time>2012-01-22T08:55:11Z</time>
      </trkpt>
      <trkpt lat="49.20049" lon="6.99696">
        <ele>321</ele>
        <time>2012-01-22T08:55:13Z</time>
      </trkpt>
      <trkpt lat="49.2005" lon="6.99696">
        <ele>321</ele>
        <time>2012-01-22T08:55:14Z</time>
      </trkpt>
      <trkpt lat="49.20052" lon="6.99697">
        <ele>321</ele>
        <time>2012-01-22T08:55:15Z</time>
      </trkpt>
      <trkpt lat="49.20054" lon="6.99698">
        <ele>321</ele>
        <time>2012-01-22T08:55:17Z</time>
      </trkpt>
      <trkpt lat="49.20056" lon="6.99697">
        <ele>321</ele>
        <time>2012-01-22T08:55:18Z</time>
      </trkpt>
      <trkpt lat="49.20057" lon="6.99697">
        <ele>321</ele>
        <time>2012-01-22T08:55:19Z</time>
      </trkpt>
      <trkpt lat="49.20058" lon="6.99697">
        <ele>321</ele>
        <time>2012-01-22T08:55:20Z</time>
      </trkpt>
      <trkpt lat="49.2006" lon="6.99696">
        <ele>321</ele>
        <time>2012-01-22T08:55:21Z</time>
      </trkpt>
      <trkpt lat="49.20062" lon="6.99696">
        <ele>321</ele>
        <time>2012-01-22T08:55:22Z</time>
      </trkpt>
      <trkpt lat="49.20063" lon="6.99697">
        <ele>321</ele>
        <time>2012-01-22T08:55:23Z</time>
      </trkpt>
      <trkpt lat="49.20065" lon="6.99697">
        <ele>321</ele>
        <time>2012-01-22T08:55:24Z</time>
      </trkpt>
      <trkpt lat="49.20067" lon="6.99697">
        <ele>321</ele>
        <time>2012-01-22T08:55:25Z</time>
      </trkpt>
      <trkpt lat="49.20068" lon="6.99698">
        <ele>321</ele>
        <time>2012-01-22T08:55:26Z</time>
      </trkpt>
      <trkpt lat="49.20069" lon="6.99698">
        <ele>321</ele>
        <time>2012-01-22T08:55:27Z</time>
      </trkpt>
      <trkpt lat="49.20072" lon="6.99699">
        <ele>321</ele>
        <time>2012-01-22T08:55:29Z</time>
      </trkpt>
      <trkpt lat="49.20073" lon="6.997">
        <ele>321</ele>
        <time>2012-01-22T08:55:30Z</time>
      </trkpt>
      <trkpt lat="49.20074" lon="6.997">
        <ele>321</ele>
        <time>2012-01-22T08:55:31Z</time>
      </trkpt>
      <trkpt lat="49.20076" lon="6.997">
        <ele>321</ele>
        <time>2012-01-22T08:55:32Z</time>
      </trkpt>
      <trkpt lat="49.20077" lon="6.99699">
        <ele>321</ele>
        <time>2012-01-22T08:55:33Z</time>
      </trkpt>
      <trkpt lat="49.20079" lon="6.99699">
        <ele>321</ele>
        <time>2012-01-22T08:55:35Z</time>
      </trkpt>
      <trkpt lat="49.2008" lon="6.99698">
        <ele>321</ele>
        <time>2012-01-22T08:55:36Z</time>
      </trkpt>
      <trkpt lat="49.20082" lon="6.99698">
        <ele>321</ele>
        <time>2012-01-22T08:55:37Z</time>
      </trkpt>
      <trkpt lat="49.20084" lon="6.99697">
        <ele>321</ele>
        <time>2012-01-22T08:55:39Z</time>
      </trkpt>
      <trkpt lat="49.20087" lon="6.99697">
        <ele>321</ele>
        <time>2012-01-22T08:55:42Z</time>
      </trkpt>
      <trkpt lat="49.20088" lon="6.99697">
        <ele>321</ele>
        <time>2012-01-22T08:55:44Z</time>
      </trkpt>
      <trkpt lat="49.2009" lon="6.99696">
        <ele>321</ele>
        <time>2012-01-22T08:55:46Z</time>
      </trkpt>
      <trkpt lat="49.20091" lon="6.99696">
        <ele>321</ele>
        <time>2012-01-22T08:55:47Z</time>
      </trkpt>
      <trkpt lat="49.20093" lon="6.99696">
        <ele>321</ele>
        <time>2012-01-22T08:55:48Z</time>
      </trkpt>
      <trkpt lat="49.20096" lon="6.99695">
        <ele>321</ele>
        <time>2012-01-22T08:55:50Z</time>
      </trkpt>
      <trkpt lat="49.20098" lon="6.99695">
        <ele>321</ele>
        <time>2012-01-22T08:55:51Z</time>
      </trkpt>
      <trkpt lat="49.201" lon="6.99694">
        <ele>321</ele>
        <time>2012-01-22T08:55:52Z</time>
      </trkpt>
      <trkpt lat="49.20103" lon="6.99693">
        <ele>321</ele>
        <time>2012-01-22T08:55:53Z</time>
      </trkpt>
      <trkpt lat="49.20105" lon="6.99693">
        <ele>321</ele>
        <time>2012-01-22T08:55:54Z</time>
      </trkpt>
      <trkpt lat="49.20106" lon="6.99693">
        <ele>321</ele>
        <time>2012-01-22T08:55:55Z</time>
      </trkpt>
      <trkpt lat="49.20108" lon="6.99693">
        <ele>321</ele>
        <time>2012-01-22T08:55:56Z</time>
      </trkpt>
      <trkpt lat="49.20109" lon="6.99692">
        <ele>321</ele>
        <time>2012-01-22T08:55:57Z</time>
      </trkpt>
      <trkpt lat="49.20111" lon="6.99692">
        <ele>321</ele>
        <time>2012-01-22T08:55:58Z</time>
      </trkpt>
      <trkpt lat="49.20113" lon="6.99692">
        <ele>321</ele>
        <time>2012-01-22T08:55:59Z</time>
      </trkpt>
      <trkpt lat="49.20115" lon="6.99693">
        <ele>321</ele>
        <time>2012-01-22T08:56:00Z</time>
      </trkpt>
      <trkpt lat="49.20116" lon="6.99693">
        <ele>321</ele>
        <time>2012-01-22T08:56:01Z</time>
      </trkpt>
      <trkpt lat="49.20118" lon="6.99693">
        <ele>321</ele>
        <time>2012-01-22T08:56:02Z</time>
      </trkpt>
      <trkpt lat="49.20119" lon="6.99693">
        <ele>321</ele>
        <time>2012-01-22T08:56:04Z</time>
      </trkpt>
      <trkpt lat="49.20121" lon="6.99692">
        <ele>321</ele>
        <time>2012-01-22T08:56:05Z</time>
      </trkpt>
      <trkpt lat="49.20122" lon="6.99692">
        <ele>321</ele>
        <time>2012-01-22T08:56:06Z</time>
      </trkpt>
      <trkpt lat="49.20124" lon="6.99691">
        <ele>321</ele>
        <time>2012-01-22T08:56:07Z</time>
      </trkpt>
      <trkpt lat="49.20125" lon="6.99691">
        <ele>321</ele>
        <time>2012-01-22T08:56:08Z</time>
      </trkpt>
      <trkpt lat="49.20126" lon="6.99692">
        <ele>321</ele>
        <time>2012-01-22T08:56:09Z</time>
      </trkpt>
      <trkpt lat="49.20127" lon="6.99692">
        <ele>321</ele>
        <time>2012-01-22T08:56:10Z</time>
      </trkpt>
      <trkpt lat="49.20129" lon="6.99691">
        <ele>321</ele>
        <time>2012-01-22T08:56:11Z</time>
      </trkpt>
      <trkpt lat="49.20132" lon="6.9969">
        <ele>321</ele>
        <time>2012-01-22T08:56:13Z</time>
      </trkpt>
      <trkpt lat="49.20134" lon="6.9969">
        <ele>321</ele>
        <time>2012-01-22T08:56:14Z</time>
      </trkpt>
      <trkpt lat="49.20137" lon="6.9969">
        <ele>321</ele>
        <time>2012-01-22T08:56:15Z</time>
      </trkpt>
      <trkpt lat="49.20139" lon="6.9969">
        <ele>321</ele>
        <time>2012-01-22T08:56:16Z</time>
      </trkpt>
      <trkpt lat="49.20141" lon="6.9969">
        <ele>321</ele>
        <time>2012-01-22T08:56:17Z</time>
      </trkpt>
      <trkpt lat="49.20143" lon="6.9969">
        <ele>321</ele>
        <time>2012-01-22T08:56:18Z</time>
      </trkpt>
      <trkpt lat="49.20144" lon="6.99688">
        <ele>321</ele>
        <time>2012-01-22T08:56:19Z</time>
      </trkpt>
      <trkpt lat="49.20146" lon="6.99687">
        <ele>321</ele>
        <time>2012-01-22T08:56:20Z</time>
      </trkpt>
      <trkpt lat="49.20147" lon="6.99686">
        <ele>321</ele>
        <time>2012-01-22T08:56:21Z</time>
      </trkpt>
      <trkpt lat="49.20148" lon="6.99686">
        <ele>321</ele>
        <time>2012-01-22T08:56:22Z</time>
      </trkpt>
      <trkpt lat="49.2015" lon="6.99686">
        <ele>321</ele>
        <time>2012-01-22T08:56:23Z</time>
      </trkpt>
      <trkpt lat="49.20152" lon="6.99685">
        <ele>321</ele>
        <time>2012-01-22T08:56:24Z</time>
      </trkpt>
      <trkpt lat="49.20153" lon="6.99684">
        <ele>321</ele>
        <time>2012-01-22T08:56:25Z</time>
      </trkpt>
      <trkpt lat="49.20155" lon="6.99682">
        <ele>321</ele>
        <time>2012-01-22T08:56:27Z</time>
      </trkpt>
      <trkpt lat="49.20156" lon="6.99681">
        <ele>321</ele>
        <time>2012-01-22T08:56:29Z</time>
      </trkpt>
      <trkpt lat="49.20157" lon="6.9968">
        <ele>321</ele>
        <time>2012-01-22T08:56:30Z</time>
      </trkpt>
      <trkpt lat="49.2016" lon="6.99679">
        <ele>321</ele>
        <time>2012-01-22T08:56:32Z</time>
      </trkpt>
      <trkpt lat="49.20161" lon="6.99678">
        <ele>321</ele>
        <time>2012-01-22T08:56:33Z</time>
      </trkpt>
      <trkpt lat="49.20163" lon="6.99678">
        <ele>321</ele>
        <time>2012-01-22T08:56:34Z</time>
      </trkpt>
      <trkpt lat="49.20164" lon="6.99677">
        <ele>321</ele>
        <time>2012-01-22T08:56:35Z</time>
      </trkpt>
      <trkpt lat="49.20165" lon="6.99676">
        <ele>321</ele>
        <time>2012-01-22T08:56:36Z</time>
      </trkpt>
      <trkpt lat="49.20167" lon="6.99674">
        <ele>321</ele>
        <time>2012-01-22T08:56:38Z</time>
      </trkpt>
      <trkpt lat="49.2017" lon="6.99671">
        <ele>321</ele>
        <time>2012-01-22T08:56:40Z</time>
      </trkpt>
      <trkpt lat="49.20171" lon="6.9967">
        <ele>321</ele>
        <time>2012-01-22T08:56:41Z</time>
      </trkpt>
      <trkpt lat="49.20173" lon="6.99671">
        <ele>321</ele>
        <time>2012-01-22T08:56:42Z</time>
      </trkpt>
      <trkpt lat="49.20174" lon="6.9967">
        <ele>321</ele>
        <time>2012-01-22T08:56:43Z</time>
      </trkpt>
      <trkpt lat="49.20176" lon="6.99669">
        <ele>321</ele>
        <time>2012-01-22T08:56:44Z</time>
      </trkpt>
      <trkpt lat="49.20177" lon="6.99669">
        <ele>321</ele>
        <time>2012-01-22T08:56:45Z</time>
      </trkpt>
      <trkpt lat="49.20179" lon="6.99668">
        <ele>321</ele>
        <time>2012-01-22T08:56:46Z</time>
      </trkpt>
      <trkpt lat="49.20181" lon="6.99667">
        <ele>321</ele>
        <time>2012-01-22T08:56:47Z</time>
      </trkpt>
      <trkpt lat="49.20182" lon="6.99665">
        <ele>322</ele>
        <time>2012-01-22T08:56:49Z</time>
      </trkpt>
      <trkpt lat="49.20183" lon="6.99666">
        <ele>323</ele>
        <time>2012-01-22T08:56:50Z</time>
      </trkpt>
      <trkpt lat="49.20186" lon="6.99664">
        <ele>324</ele>
        <time>2012-01-22T08:56:52Z</time>
      </trkpt>
      <trkpt lat="49.20188" lon="6.99663">
        <ele>325</ele>
        <time>2012-01-22T08:56:53Z</time>
      </trkpt>
      <trkpt lat="49.20189" lon="6.99662">
        <ele>325</ele>
        <time>2012-01-22T08:56:54Z</time>
      </trkpt>
      <trkpt lat="49.20191" lon="6.99662">
        <ele>325</ele>
        <time>2012-01-22T08:56:55Z</time>
      </trkpt>
      <trkpt lat="49.20192" lon="6.99661">
        <ele>326</ele>
        <time>2012-01-22T08:56:56Z</time>
      </trkpt>
      <trkpt lat="49.20194" lon="6.99661">
        <ele>326</ele>
        <time>2012-01-22T08:56:57Z</time>
      </trkpt>
      <trkpt lat="49.20195" lon="6.9966">
        <ele>326</ele>
        <time>2012-01-22T08:56:58Z</time>
      </trkpt>
      <trkpt lat="49.20197" lon="6.99658">
        <ele>326</ele>
        <time>2012-01-22T08:56:59Z</time>
      </trkpt>
      <trkpt lat="49.20198" lon="6.99656">
        <ele>326</ele>
        <time>2012-01-22T08:57:00Z</time>
      </trkpt>
      <trkpt lat="49.20199" lon="6.99654">
        <ele>326</ele>
        <time>2012-01-22T08:57:01Z</time>
      </trkpt>
      <trkpt lat="49.20201" lon="6.99653">
        <ele>326</ele>
        <time>2012-01-22T08:57:02Z</time>
      </trkpt>
      <trkpt lat="49.20202" lon="6.99653">
        <ele>326</ele>
        <time>2012-01-22T08:57:03Z</time>
      </trkpt>
      <trkpt lat="49.20204" lon="6.9965">
        <ele>326</ele>
        <time>2012-01-22T08:57:05Z</time>
      </trkpt>
      <trkpt lat="49.20206" lon="6.99649">
        <ele>326</ele>
        <time>2012-01-22T08:57:06Z</time>
      </trkpt>
      <trkpt lat="49.20207" lon="6.99648">
        <ele>326</ele>
        <time>2012-01-22T08:57:07Z</time>
      </trkpt>
      <trkpt lat="49.20209" lon="6.99646">
        <ele>326</ele>
        <time>2012-01-22T08:57:08Z</time>
      </trkpt>
      <trkpt lat="49.20211" lon="6.99645">
        <ele>326</ele>
        <time>2012-01-22T08:57:09Z</time>
      </trkpt>
      <trkpt lat="49.20212" lon="6.99644">
        <ele>326</ele>
        <time>2012-01-22T08:57:10Z</time>
      </trkpt>
      <trkpt lat="49.20214" lon="6.99642">
        <ele>326</ele>
        <time>2012-01-22T08:57:12Z</time>
      </trkpt>
      <trkpt lat="49.20216" lon="6.99641">
        <ele>326</ele>
        <time>2012-01-22T08:57:14Z</time>
      </trkpt>
      <trkpt lat="49.20218" lon="6.9964">
        <ele>327</ele>
        <time>2012-01-22T08:57:16Z</time>
      </trkpt>
      <trkpt lat="49.20219" lon="6.99639">
        <ele>328</ele>
        <time>2012-01-22T08:57:17Z</time>
      </trkpt>
      <trkpt lat="49.2022" lon="6.99638">
        <ele>329</ele>
        <time>2012-01-22T08:57:18Z</time>
      </trkpt>
      <trkpt lat="49.20221" lon="6.99637">
        <ele>330</ele>
        <time>2012-01-22T08:57:19Z</time>
      </trkpt>
      <trkpt lat="49.20222" lon="6.99636">
        <ele>331</ele>
        <time>2012-01-22T08:57:20Z</time>
      </trkpt>
      <trkpt lat="49.20224" lon="6.99635">
        <ele>331</ele>
        <time>2012-01-22T08:57:22Z</time>
      </trkpt>
      <trkpt lat="49.20226" lon="6.99633">
        <ele>331</ele>
        <time>2012-01-22T08:57:24Z</time>
      </trkpt>
      <trkpt lat="49.20227" lon="6.99633">
        <ele>331</ele>
        <time>2012-01-22T08:57:25Z</time>
      </trkpt>
      <trkpt lat="49.20229" lon="6.99631">
        <ele>331</ele>
        <time>2012-01-22T08:57:27Z</time>
      </trkpt>
      <trkpt lat="49.20231" lon="6.99631">
        <ele>331</ele>
        <time>2012-01-22T08:57:28Z</time>
      </trkpt>
      <trkpt lat="49.20232" lon="6.99629">
        <ele>331</ele>
        <time>2012-01-22T08:57:30Z</time>
      </trkpt>
      <trkpt lat="49.20233" lon="6.99627">
        <ele>332</ele>
        <time>2012-01-22T08:57:31Z</time>
      </trkpt>
      <trkpt lat="49.20234" lon="6.99625">
        <ele>332</ele>
        <time>2012-01-22T08:57:33Z</time>
      </trkpt>
      <trkpt lat="49.20236" lon="6.99624">
        <ele>332</ele>
        <time>2012-01-22T08:57:34Z</time>
      </trkpt>
      <trkpt lat="49.20237" lon="6.99624">
        <ele>332</ele>
        <time>2012-01-22T08:57:35Z</time>
      </trkpt>
      <trkpt lat="49.20238" lon="6.99624">
        <ele>332</ele>
        <time>2012-01-22T08:57:36Z</time>
      </trkpt>
      <trkpt lat="49.2024" lon="6.99623">
        <ele>332</ele>
        <time>2012-01-22T08:57:37Z</time>
      </trkpt>
      <trkpt lat="49.20242" lon="6.99623">
        <ele>332</ele>
        <time>2012-01-22T08:57:38Z</time>
      </trkpt>
      <trkpt lat="49.20243" lon="6.99621">
        <ele>332</ele>
        <time>2012-01-22T08:57:39Z</time>
      </trkpt>
      <trkpt lat="49.20245" lon="6.99621">
        <ele>333</ele>
        <time>2012-01-22T08:57:40Z</time>
      </trkpt>
      <trkpt lat="49.20246" lon="6.99619">
        <ele>333</ele>
        <time>2012-01-22T08:57:41Z</time>
      </trkpt>
      <trkpt lat="49.20248" lon="6.99618">
        <ele>333</ele>
        <time>2012-01-22T08:57:42Z</time>
      </trkpt>
      <trkpt lat="49.2025" lon="6.99616">
        <ele>333</ele>
        <time>2012-01-22T08:57:43Z</time>
      </trkpt>
      <trkpt lat="49.20251" lon="6.99615">
        <ele>333</ele>
        <time>2012-01-22T08:57:44Z</time>
      </trkpt>
      <trkpt lat="49.20253" lon="6.99615">
        <ele>333</ele>
        <time>2012-01-22T08:57:45Z</time>
      </trkpt>
      <trkpt lat="49.20255" lon="6.99614">
        <ele>333</ele>
        <time>2012-01-22T08:57:46Z</time>
      </trkpt>
      <trkpt lat="49.20256" lon="6.99614">
        <ele>333</ele>
        <time>2012-01-22T08:57:47Z</time>
      </trkpt>
      <trkpt lat="49.20257" lon="6.99613">
        <ele>333</ele>
        <time>2012-01-22T08:57:48Z</time>
      </trkpt>
      <trkpt lat="49.20258" lon="6.99612">
        <ele>333</ele>
        <time>2012-01-22T08:57:49Z</time>
      </trkpt>
      <trkpt lat="49.2026" lon="6.9961">
        <ele>333</ele>
        <time>2012-01-22T08:57:51Z</time>
      </trkpt>
      <trkpt lat="49.20263" lon="6.99608">
        <ele>333</ele>
        <time>2012-01-22T08:57:53Z</time>
      </trkpt>
      <trkpt lat="49.20264" lon="6.99607">
        <ele>333</ele>
        <time>2012-01-22T08:57:54Z</time>
      </trkpt>
      <trkpt lat="49.20265" lon="6.99606">
        <ele>333</ele>
        <time>2012-01-22T08:57:55Z</time>
      </trkpt>
      <trkpt lat="49.20266" lon="6.99606">
        <ele>333</ele>
        <time>2012-01-22T08:57:56Z</time>
      </trkpt>
      <trkpt lat="49.20268" lon="6.99604">
        <ele>333</ele>
        <time>2012-01-22T08:57:58Z</time>
      </trkpt>
      <trkpt lat="49.2027" lon="6.99603">
        <ele>333</ele>
        <time>2012-01-22T08:57:59Z</time>
      </trkpt>
      <trkpt lat="49.20272" lon="6.99602">
        <ele>333</ele>
        <time>2012-01-22T08:58:00Z</time>
      </trkpt>
      <trkpt lat="49.20274" lon="6.99601">
        <ele>333</ele>
        <time>2012-01-22T08:58:02Z</time>
      </trkpt>
      <trkpt lat="49.20275" lon="6.996">
        <ele>333</ele>
        <time>2012-01-22T08:58:03Z</time>
      </trkpt>
      <trkpt lat="49.20277" lon="6.99599">
        <ele>333</ele>
        <time>2012-01-22T08:58:04Z</time>
      </trkpt>
      <trkpt lat="49.20278" lon="6.99598">
        <ele>333</ele>
        <time>2012-01-22T08:58:05Z</time>
      </trkpt>
      <trkpt lat="49.2028" lon="6.99597">
        <ele>333</ele>
        <time>2012-01-22T08:58:06Z</time>
      </trkpt>
      <trkpt lat="49.20281" lon="6.99594">
        <ele>333</ele>
        <time>2012-01-22T08:58:08Z</time>
      </trkpt>
      <trkpt lat="49.20282" lon="6.99592">
        <ele>333</ele>
        <time>2012-01-22T08:58:09Z</time>
      </trkpt>
      <trkpt lat="49.20283" lon="6.99591">
        <ele>333</ele>
        <time>2012-01-22T08:58:10Z</time>
      </trkpt>
      <trkpt lat="49.20285" lon="6.99588">
        <ele>333</ele>
        <time>2012-01-22T08:58:12Z</time>
      </trkpt>
      <trkpt lat="49.20287" lon="6.99587">
        <ele>333</ele>
        <time>2012-01-22T08:58:13Z</time>
      </trkpt>
      <trkpt lat="49.20288" lon="6.99586">
        <ele>333</ele>
        <time>2012-01-22T08:58:14Z</time>
      </trkpt>
      <trkpt lat="49.2029" lon="6.99584">
        <ele>333</ele>
        <time>2012-01-22T08:58:16Z</time>
      </trkpt>
      <trkpt lat="49.20291" lon="6.99583">
        <ele>333</ele>
        <time>2012-01-22T08:58:17Z</time>
      </trkpt>
      <trkpt lat="49.20292" lon="6.99581">
        <ele>333</ele>
        <time>2012-01-22T08:58:18Z</time>
      </trkpt>
      <trkpt lat="49.20293" lon="6.99579">
        <ele>333</ele>
        <time>2012-01-22T08:58:20Z</time>
      </trkpt>
      <trkpt lat="49.20293" lon="6.99577">
        <ele>333</ele>
        <time>2012-01-22T08:58:21Z</time>
      </trkpt>
      <trkpt lat="49.20293" lon="6.99575">
        <ele>333</ele>
        <time>2012-01-22T08:58:22Z</time>
      </trkpt>
      <trkpt lat="49.20294" lon="6.99573">
        <ele>333</ele>
        <time>2012-01-22T08:58:23Z</time>
      </trkpt>
      <trkpt lat="49.20294" lon="6.99571">
        <ele>334</ele>
        <time>2012-01-22T08:58:24Z</time>
      </trkpt>
      <trkpt lat="49.20294" lon="6.9957">
        <ele>334</ele>
        <time>2012-01-22T08:58:25Z</time>
      </trkpt>
      <trkpt lat="49.20294" lon="6.99567">
        <ele>334</ele>
        <time>2012-01-22T08:58:27Z</time>
      </trkpt>
      <trkpt lat="49.20293" lon="6.99565">
        <ele>334</ele>
        <time>2012-01-22T08:58:28Z</time>
      </trkpt>
      <trkpt lat="49.20293" lon="6.99563">
        <ele>334</ele>
        <time>2012-01-22T08:58:29Z</time>
      </trkpt>
      <trkpt lat="49.20293" lon="6.99561">
        <ele>334</ele>
        <time>2012-01-22T08:58:30Z</time>
      </trkpt>
      <trkpt lat="49.20292" lon="6.99559">
        <ele>334</ele>
        <time>2012-01-22T08:58:31Z</time>
      </trkpt>
      <trkpt lat="49.20292" lon="6.99557">
        <ele>334</ele>
        <time>2012-01-22T08:58:32Z</time>
      </trkpt>
      <trkpt lat="49.20291" lon="6.99555">
        <ele>334</ele>
        <time>2012-01-22T08:58:33Z</time>
      </trkpt>
      <trkpt lat="49.2029" lon="6.99553">
        <ele>334</ele>
        <time>2012-01-22T08:58:34Z</time>
      </trkpt>
      <trkpt lat="49.2029" lon="6.99551">
        <ele>334</ele>
        <time>2012-01-22T08:58:35Z</time>
      </trkpt>
      <trkpt lat="49.2029" lon="6.99549">
        <ele>334</ele>
        <time>2012-01-22T08:58:36Z</time>
      </trkpt>
      <trkpt lat="49.20289" lon="6.99547">
        <ele>334</ele>
        <time>2012-01-22T08:58:37Z</time>
      </trkpt>
      <trkpt lat="49.20289" lon="6.99544">
        <ele>334</ele>
        <time>2012-01-22T08:58:39Z</time>
      </trkpt>
      <trkpt lat="49.20288" lon="6.99542">
        <ele>334</ele>
        <time>2012-01-22T08:58:40Z</time>
      </trkpt>
      <trkpt lat="49.20288" lon="6.99541">
        <ele>334</ele>
        <time>2012-01-22T08:58:41Z</time>
      </trkpt>
      <trkpt lat="49.20288" lon="6.99539">
        <ele>334</ele>
        <time>2012-01-22T08:58:42Z</time>
      </trkpt>
      <trkpt lat="49.20287" lon="6.99537">
        <ele>334</ele>
        <time>2012-01-22T08:58:43Z</time>
      </trkpt>
      <trkpt lat="49.20287" lon="6.99534">
        <ele>334</ele>
        <time>2012-01-22T08:58:45Z</time>
      </trkpt>
      <trkpt lat="49.20287" lon="6.99532">
        <ele>335</ele>
        <time>2012-01-22T08:58:46Z</time>
      </trkpt>
      <trkpt lat="49.20287" lon="6.9953">
        <ele>335</ele>
        <time>2012-01-22T08:58:47Z</time>
      </trkpt>
      <trkpt lat="49.20287" lon="6.99528">
        <ele>336</ele>
        <time>2012-01-22T08:58:48Z</time>
      </trkpt>
      <trkpt lat="49.20286" lon="6.99525">
        <ele>336</ele>
        <time>2012-01-22T08:58:50Z</time>
      </trkpt>
      <trkpt lat="49.20286" lon="6.99523">
        <ele>337</ele>
        <time>2012-01-22T08:58:51Z</time>
      </trkpt>
      <trkpt lat="49.20286" lon="6.99521">
        <ele>337</ele>
        <time>2012-01-22T08:58:52Z</time>
      </trkpt>
      <trkpt lat="49.20285" lon="6.9952">
        <ele>337</ele>
        <time>2012-01-22T08:58:53Z</time>
      </trkpt>
      <trkpt lat="49.20285" lon="6.99518">
        <ele>337</ele>
        <time>2012-01-22T08:58:54Z</time>
      </trkpt>
      <trkpt lat="49.20284" lon="6.99514">
        <ele>337</ele>
        <time>2012-01-22T08:58:56Z</time>
      </trkpt>
      <trkpt lat="49.20284" lon="6.99512">
        <ele>337</ele>
        <time>2012-01-22T08:58:57Z</time>
      </trkpt>
      <trkpt lat="49.20283" lon="6.99509">
        <ele>338</ele>
        <time>2012-01-22T08:58:59Z</time>
      </trkpt>
      <trkpt lat="49.20283" lon="6.99508">
        <ele>338</ele>
        <time>2012-01-22T08:59:00Z</time>
      </trkpt>
      <trkpt lat="49.20282" lon="6.99504">
        <ele>338</ele>
        <time>2012-01-22T08:59:02Z</time>
      </trkpt>
      <trkpt lat="49.20282" lon="6.99503">
        <ele>338</ele>
        <time>2012-01-22T08:59:03Z</time>
      </trkpt>
      <trkpt lat="49.20282" lon="6.99501">
        <ele>338</ele>
        <time>2012-01-22T08:59:04Z</time>
      </trkpt>
      <trkpt lat="49.20282" lon="6.99499">
        <ele>338</ele>
        <time>2012-01-22T08:59:05Z</time>
      </trkpt>
      <trkpt lat="49.20281" lon="6.99495">
        <ele>338</ele>
        <time>2012-01-22T08:59:07Z</time>
      </trkpt>
      <trkpt lat="49.20281" lon="6.99493">
        <ele>338</ele>
        <time>2012-01-22T08:59:08Z</time>
      </trkpt>
      <trkpt lat="49.2028" lon="6.99491">
        <ele>338</ele>
        <time>2012-01-22T08:59:09Z</time>
      </trkpt>
      <trkpt lat="49.2028" lon="6.99489">
        <ele>338</ele>
        <time>2012-01-22T08:59:10Z</time>
      </trkpt>
      <trkpt lat="49.20279" lon="6.99487">
        <ele>339</ele>
        <time>2012-01-22T08:59:11Z</time>
      </trkpt>
      <trkpt lat="49.20279" lon="6.99485">
        <ele>339</ele>
        <time>2012-01-22T08:59:12Z</time>
      </trkpt>
      <trkpt lat="49.20278" lon="6.99483">
        <ele>339</ele>
        <time>2012-01-22T08:59:14Z</time>
      </trkpt>
      <trkpt lat="49.20277" lon="6.9948">
        <ele>339</ele>
        <time>2012-01-22T08:59:16Z</time>
      </trkpt>
      <trkpt lat="49.20277" lon="6.99478">
        <ele>339</ele>
        <time>2012-01-22T08:59:17Z</time>
      </trkpt>
      <trkpt lat="49.20276" lon="6.99476">
        <ele>339</ele>
        <time>2012-01-22T08:59:18Z</time>
      </trkpt>
      <trkpt lat="49.20276" lon="6.99474">
        <ele>339</ele>
        <time>2012-01-22T08:59:19Z</time>
      </trkpt>
      <trkpt lat="49.20275" lon="6.99472">
        <ele>339</ele>
        <time>2012-01-22T08:59:21Z</time>
      </trkpt>
      <trkpt lat="49.20274" lon="6.9947">
        <ele>339</ele>
        <time>2012-01-22T08:59:22Z</time>
      </trkpt>
      <trkpt lat="49.20274" lon="6.99468">
        <ele>339</ele>
        <time>2012-01-22T08:59:23Z</time>
      </trkpt>
      <trkpt lat="49.20273" lon="6.99466">
        <ele>340</ele>
        <time>2012-01-22T08:59:24Z</time>
      </trkpt>
      <trkpt lat="49.20273" lon="6.99464">
        <ele>340</ele>
        <time>2012-01-22T08:59:25Z</time>
      </trkpt>
      <trkpt lat="49.20272" lon="6.99462">
        <ele>340</ele>
        <time>2012-01-22T08:59:26Z</time>
      </trkpt>
      <trkpt lat="49.20271" lon="6.9946">
        <ele>340</ele>
        <time>2012-01-22T08:59:27Z</time>
      </trkpt>
      <trkpt lat="49.20271" lon="6.99457">
        <ele>340</ele>
        <time>2012-01-22T08:59:28Z</time>
      </trkpt>
      <trkpt lat="49.2027" lon="6.99455">
        <ele>340</ele>
        <time>2012-01-22T08:59:29Z</time>
      </trkpt>
      <trkpt lat="49.20269" lon="6.99453">
        <ele>340</ele>
        <time>2012-01-22T08:59:30Z</time>
      </trkpt>
      <trkpt lat="49.20269" lon="6.9945">
        <ele>340</ele>
        <time>2012-01-22T08:59:31Z</time>
      </trkpt>
      <trkpt lat="49.20268" lon="6.99448">
        <ele>340</ele>
        <time>2012-01-22T08:59:32Z</time>
      </trkpt>
      <trkpt lat="49.20268" lon="6.99445">
        <ele>340</ele>
        <time>2012-01-22T08:59:34Z</time>
      </trkpt>
      <trkpt lat="49.20266" lon="6.99442">
        <ele>340</ele>
        <time>2012-01-22T08:59:35Z</time>
      </trkpt>
      <trkpt lat="49.20266" lon="6.99439">
        <ele>340</ele>
        <time>2012-01-22T08:59:37Z</time>
      </trkpt>
      <trkpt lat="49.20266" lon="6.99437">
        <ele>340</ele>
        <time>2012-01-22T08:59:38Z</time>
      </trkpt>
      <trkpt lat="49.20265" lon="6.99435">
        <ele>340</ele>
        <time>2012-01-22T08:59:39Z</time>
      </trkpt>
      <trkpt lat="49.20264" lon="6.99432">
        <ele>340</ele>
        <time>2012-01-22T08:59:40Z</time>
      </trkpt>
      <trkpt lat="49.20264" lon="6.9943">
        <ele>340</ele>
        <time>2012-01-22T08:59:41Z</time>
      </trkpt>
      <trkpt lat="49.20263" lon="6.99427">
        <ele>340</ele>
        <time>2012-01-22T08:59:43Z</time>
      </trkpt>
      <trkpt lat="49.20262" lon="6.99425">
        <ele>340</ele>
        <time>2012-01-22T08:59:44Z</time>
      </trkpt>
      <trkpt lat="49.20261" lon="6.99423">
        <ele>340</ele>
        <time>2012-01-22T08:59:45Z</time>
      </trkpt>
      <trkpt lat="49.20261" lon="6.99422">
        <ele>340</ele>
        <time>2012-01-22T08:59:46Z</time>
      </trkpt>
      <trkpt lat="49.20261" lon="6.99419">
        <ele>340</ele>
        <time>2012-01-22T08:59:47Z</time>
      </trkpt>
      <trkpt lat="49.20261" lon="6.99417">
        <ele>340</ele>
        <time>2012-01-22T08:59:48Z</time>
      </trkpt>
      <trkpt lat="49.2026" lon="6.99415">
        <ele>340</ele>
        <time>2012-01-22T08:59:49Z</time>
      </trkpt>
      <trkpt lat="49.2026" lon="6.99413">
        <ele>340</ele>
        <time>2012-01-22T08:59:50Z</time>
      </trkpt>
      <trkpt lat="49.2026" lon="6.99412">
        <ele>340</ele>
        <time>2012-01-22T08:59:51Z</time>
      </trkpt>
      <trkpt lat="49.20259" lon="6.9941">
        <ele>340</ele>
        <time>2012-01-22T08:59:52Z</time>
      </trkpt>
      <trkpt lat="49.20258" lon="6.99407">
        <ele>340</ele>
        <time>2012-01-22T08:59:53Z</time>
      </trkpt>
      <trkpt lat="49.20258" lon="6.99405">
        <ele>340</ele>
        <time>2012-01-22T08:59:54Z</time>
      </trkpt>
      <trkpt lat="49.20258" lon="6.99403">
        <ele>340</ele>
        <time>2012-01-22T08:59:55Z</time>
      </trkpt>
      <trkpt lat="49.20257" lon="6.99401">
        <ele>340</ele>
        <time>2012-01-22T08:59:56Z</time>
      </trkpt>
      <trkpt lat="49.20256" lon="6.99399">
        <ele>340</ele>
        <time>2012-01-22T08:59:57Z</time>
      </trkpt>
      <trkpt lat="49.20256" lon="6.99397">
        <ele>340</ele>
        <time>2012-01-22T08:59:58Z</time>
      </trkpt>
      <trkpt lat="49.20256" lon="6.99396">
        <ele>340</ele>
        <time>2012-01-22T08:59:59Z</time>
      </trkpt>
      <trkpt lat="49.20255" lon="6.99394">
        <ele>340</ele>
        <time>2012-01-22T09:00:00Z</time>
      </trkpt>
      <trkpt lat="49.20255" lon="6.99392">
        <ele>340</ele>
        <time>2012-01-22T09:00:01Z</time>
      </trkpt>
      <trkpt lat="49.20255" lon="6.99389">
        <ele>340</ele>
        <time>2012-01-22T09:00:03Z</time>
      </trkpt>
      <trkpt lat="49.20254" lon="6.99387">
        <ele>340</ele>
        <time>2012-01-22T09:00:04Z</time>
      </trkpt>
      <trkpt lat="49.20254" lon="6.99385">
        <ele>340</ele>
        <time>2012-01-22T09:00:05Z</time>
      </trkpt>
      <trkpt lat="49.20254" lon="6.99383">
        <ele>340</ele>
        <time>2012-01-22T09:00:06Z</time>
      </trkpt>
      <trkpt lat="49.20253" lon="6.99381">
        <ele>340</ele>
        <time>2012-01-22T09:00:07Z</time>
      </trkpt>
      <trkpt lat="49.20252" lon="6.99379">
        <ele>340</ele>
        <time>2012-01-22T09:00:08Z</time>
      </trkpt>
      <trkpt lat="49.20252" lon="6.99376">
        <ele>340</ele>
        <time>2012-01-22T09:00:09Z</time>
      </trkpt>
      <trkpt lat="49.20251" lon="6.99374">
        <ele>340</ele>
        <time>2012-01-22T09:00:10Z</time>
      </trkpt>
      <trkpt lat="49.20251" lon="6.99371">
        <ele>340</ele>
        <time>2012-01-22T09:00:11Z</time>
      </trkpt>
      <trkpt lat="49.2025" lon="6.99369">
        <ele>340</ele>
        <time>2012-01-22T09:00:12Z</time>
      </trkpt>
      <trkpt lat="49.2025" lon="6.99368">
        <ele>340</ele>
        <time>2012-01-22T09:00:13Z</time>
      </trkpt>
      <trkpt lat="49.2025" lon="6.99366">
        <ele>340</ele>
        <time>2012-01-22T09:00:14Z</time>
      </trkpt>
      <trkpt lat="49.20249" lon="6.99363">
        <ele>340</ele>
        <time>2012-01-22T09:00:15Z</time>
      </trkpt>
      <trkpt lat="49.20248" lon="6.99361">
        <ele>340</ele>
        <time>2012-01-22T09:00:16Z</time>
      </trkpt>
      <trkpt lat="49.20248" lon="6.99359">
        <ele>340</ele>
        <time>2012-01-22T09:00:17Z</time>
      </trkpt>
      <trkpt lat="49.20248" lon="6.99356">
        <ele>340</ele>
        <time>2012-01-22T09:00:18Z</time>
      </trkpt>
      <trkpt lat="49.20247" lon="6.99353">
        <ele>340</ele>
        <time>2012-01-22T09:00:20Z</time>
      </trkpt>
      <trkpt lat="49.20247" lon="6.99351">
        <ele>340</ele>
        <time>2012-01-22T09:00:21Z</time>
      </trkpt>
      <trkpt lat="49.20247" lon="6.99349">
        <ele>340</ele>
        <time>2012-01-22T09:00:22Z</time>
      </trkpt>
      <trkpt lat="49.20246" lon="6.99347">
        <ele>340</ele>
        <time>2012-01-22T09:00:23Z</time>
      </trkpt>
      <trkpt lat="49.20245" lon="6.99344">
        <ele>340</ele>
        <time>2012-01-22T09:00:25Z</time>
      </trkpt>
      <trkpt lat="49.20243" lon="6.99341">
        <ele>340</ele>
        <time>2012-01-22T09:00:27Z</time>
      </trkpt>
      <trkpt lat="49.20243" lon="6.99339">
        <ele>340</ele>
        <time>2012-01-22T09:00:28Z</time>
      </trkpt>
      <trkpt lat="49.20242" lon="6.99337">
        <ele>340</ele>
        <time>2012-01-22T09:00:29Z</time>
      </trkpt>
      <trkpt lat="49.20242" lon="6.99335">
        <ele>340</ele>
        <time>2012-01-22T09:00:30Z</time>
      </trkpt>
      <trkpt lat="49.20241" lon="6.99333">
        <ele>340</ele>
        <time>2012-01-22T09:00:31Z</time>
      </trkpt>
      <trkpt lat="49.20241" lon="6.99332">
        <ele>340</ele>
        <time>2012-01-22T09:00:32Z</time>
      </trkpt>
      <trkpt lat="49.2024" lon="6.9933">
        <ele>340</ele>
        <time>2012-01-22T09:00:33Z</time>
      </trkpt>
      <trkpt lat="49.2024" lon="6.99327">
        <ele>340</ele>
        <time>2012-01-22T09:00:34Z</time>
      </trkpt>
      <trkpt lat="49.20239" lon="6.99325">
        <ele>340</ele>
        <time>2012-01-22T09:00:35Z</time>
      </trkpt>
      <trkpt lat="49.20238" lon="6.99324">
        <ele>340</ele>
        <time>2012-01-22T09:00:36Z</time>
      </trkpt>
      <trkpt lat="49.20237" lon="6.99322">
        <ele>340</ele>
        <time>2012-01-22T09:00:37Z</time>
      </trkpt>
      <trkpt lat="49.20237" lon="6.9932">
        <ele>340</ele>
        <time>2012-01-22T09:00:38Z</time>
      </trkpt>
      <trkpt lat="49.20236" lon="6.99317">
        <ele>340</ele>
        <time>2012-01-22T09:00:39Z</time>
      </trkpt>
      <trkpt lat="49.20235" lon="6.99315">
        <ele>340</ele>
        <time>2012-01-22T09:00:40Z</time>
      </trkpt>
      <trkpt lat="49.20235" lon="6.99313">
        <ele>340</ele>
        <time>2012-01-22T09:00:41Z</time>
      </trkpt>
      <trkpt lat="49.20234" lon="6.99311">
        <ele>340</ele>
        <time>2012-01-22T09:00:42Z</time>
      </trkpt>
      <trkpt lat="49.20233" lon="6.99309">
        <ele>340</ele>
        <time>2012-01-22T09:00:43Z</time>
      </trkpt>
      <trkpt lat="49.20232" lon="6.99307">
        <ele>340</ele>
        <time>2012-01-22T09:00:44Z</time>
      </trkpt>
      <trkpt lat="49.20232" lon="6.99304">
        <ele>340</ele>
        <time>2012-01-22T09:00:45Z</time>
      </trkpt>
      <trkpt lat="49.20232" lon="6.99302">
        <ele>340</ele>
        <time>2012-01-22T09:00:46Z</time>
      </trkpt>
      <trkpt lat="49.20231" lon="6.993">
        <ele>340</ele>
        <time>2012-01-22T09:00:47Z</time>
      </trkpt>
      <trkpt lat="49.20231" lon="6.99298">
        <ele>340</ele>
        <time>2012-01-22T09:00:48Z</time>
      </trkpt>
      <trkpt lat="49.2023" lon="6.99295">
        <ele>340</ele>
        <time>2012-01-22T09:00:49Z</time>
      </trkpt>
      <trkpt lat="49.20229" lon="6.99293">
        <ele>340</ele>
        <time>2012-01-22T09:00:50Z</time>
      </trkpt>
      <trkpt lat="49.20229" lon="6.99291">
        <ele>340</ele>
        <time>2012-01-22T09:00:51Z</time>
      </trkpt>
      <trkpt lat="49.20229" lon="6.99289">
        <ele>340</ele>
        <time>2012-01-22T09:00:52Z</time>
      </trkpt>
      <trkpt lat="49.20228" lon="6.99287">
        <ele>340</ele>
        <time>2012-01-22T09:00:53Z</time>
      </trkpt>
      <trkpt lat="49.20228" lon="6.99285">
        <ele>340</ele>
        <time>2012-01-22T09:00:54Z</time>
      </trkpt>
      <trkpt lat="49.20227" lon="6.99283">
        <ele>340</ele>
        <time>2012-01-22T09:00:55Z</time>
      </trkpt>
      <trkpt lat="49.20227" lon="6.99282">
        <ele>340</ele>
        <time>2012-01-22T09:00:56Z</time>
      </trkpt>
      <trkpt lat="49.20226" lon="6.99278">
        <ele>341</ele>
        <time>2012-01-22T09:00:58Z</time>
      </trkpt>
      <trkpt lat="49.20226" lon="6.99276">
        <ele>341</ele>
        <time>2012-01-22T09:00:59Z</time>
      </trkpt>
      <trkpt lat="49.20225" lon="6.99274">
        <ele>341</ele>
        <time>2012-01-22T09:01:00Z</time>
      </trkpt>
      <trkpt lat="49.20224" lon="6.99272">
        <ele>341</ele>
        <time>2012-01-22T09:01:01Z</time>
      </trkpt>
      <trkpt lat="49.20224" lon="6.9927">
        <ele>341</ele>
        <time>2012-01-22T09:01:02Z</time>
      </trkpt>
      <trkpt lat="49.20223" lon="6.99268">
        <ele>341</ele>
        <time>2012-01-22T09:01:03Z</time>
      </trkpt>
      <trkpt lat="49.20223" lon="6.99265">
        <ele>342</ele>
        <time>2012-01-22T09:01:04Z</time>
      </trkpt>
      <trkpt lat="49.20222" lon="6.99263">
        <ele>342</ele>
        <time>2012-01-22T09:01:05Z</time>
      </trkpt>
      <trkpt lat="49.20221" lon="6.99261">
        <ele>342</ele>
        <time>2012-01-22T09:01:06Z</time>
      </trkpt>
      <trkpt lat="49.20221" lon="6.99258">
        <ele>342</ele>
        <time>2012-01-22T09:01:07Z</time>
      </trkpt>
      <trkpt lat="49.20221" lon="6.99256">
        <ele>342</ele>
        <time>2012-01-22T09:01:08Z</time>
      </trkpt>
      <trkpt lat="49.2022" lon="6.99254">
        <ele>342</ele>
        <time>2012-01-22T09:01:09Z</time>
      </trkpt>
      <trkpt lat="49.2022" lon="6.99252">
        <ele>342</ele>
        <time>2012-01-22T09:01:10Z</time>
      </trkpt>
      <trkpt lat="49.20219" lon="6.9925">
        <ele>342</ele>
        <time>2012-01-22T09:01:11Z</time>
      </trkpt>
      <trkpt lat="49.20219" lon="6.99248">
        <ele>342</ele>
        <time>2012-01-22T09:01:12Z</time>
      </trkpt>
      <trkpt lat="49.20219" lon="6.99245">
        <ele>342</ele>
        <time>2012-01-22T09:01:13Z</time>
      </trkpt>
      <trkpt lat="49.20218" lon="6.99243">
        <ele>342</ele>
        <time>2012-01-22T09:01:14Z</time>
      </trkpt>
      <trkpt lat="49.20217" lon="6.99241">
        <ele>342</ele>
        <time>2012-01-22T09:01:15Z</time>
      </trkpt>
      <trkpt lat="49.20217" lon="6.99239">
        <ele>342</ele>
        <time>2012-01-22T09:01:16Z</time>
      </trkpt>
      <trkpt lat="49.20216" lon="6.99237">
        <ele>342</ele>
        <time>2012-01-22T09:01:17Z</time>
      </trkpt>
      <trkpt lat="49.20216" lon="6.99235">
        <ele>342</ele>
        <time>2012-01-22T09:01:18Z</time>
      </trkpt>
      <trkpt lat="49.20216" lon="6.99233">
        <ele>342</ele>
        <time>2012-01-22T09:01:19Z</time>
      </trkpt>
      <trkpt lat="49.20215" lon="6.9923">
        <ele>342</ele>
        <time>2012-01-22T09:01:21Z</time>
      </trkpt>
      <trkpt lat="49.20215" lon="6.99227">
        <ele>342</ele>
        <time>2012-01-22T09:01:23Z</time>
      </trkpt>
      <trkpt lat="49.20215" lon="6.99225">
        <ele>342</ele>
        <time>2012-01-22T09:01:24Z</time>
      </trkpt>
      <trkpt lat="49.20214" lon="6.99222">
        <ele>342</ele>
        <time>2012-01-22T09:01:26Z</time>
      </trkpt>
      <trkpt lat="49.20213" lon="6.9922">
        <ele>342</ele>
        <time>2012-01-22T09:01:27Z</time>
      </trkpt>
      <trkpt lat="49.20213" lon="6.99218">
        <ele>342</ele>
        <time>2012-01-22T09:01:28Z</time>
      </trkpt>
      <trkpt lat="49.20212" lon="6.99216">
        <ele>342</ele>
        <time>2012-01-22T09:01:29Z</time>
      </trkpt>
      <trkpt lat="49.20212" lon="6.99214">
        <ele>342</ele>
        <time>2012-01-22T09:01:30Z</time>
      </trkpt>
      <trkpt lat="49.20212" lon="6.99212">
        <ele>342</ele>
        <time>2012-01-22T09:01:31Z</time>
      </trkpt>
      <trkpt lat="49.20211" lon="6.99209">
        <ele>342</ele>
        <time>2012-01-22T09:01:32Z</time>
      </trkpt>
      <trkpt lat="49.20211" lon="6.99208">
        <ele>342</ele>
        <time>2012-01-22T09:01:33Z</time>
      </trkpt>
      <trkpt lat="49.20211" lon="6.99206">
        <ele>342</ele>
        <time>2012-01-22T09:01:34Z</time>
      </trkpt>
      <trkpt lat="49.2021" lon="6.99204">
        <ele>342</ele>
        <time>2012-01-22T09:01:35Z</time>
      </trkpt>
      <trkpt lat="49.2021" lon="6.99201">
        <ele>342</ele>
        <time>2012-01-22T09:01:36Z</time>
      </trkpt>
      <trkpt lat="49.20209" lon="6.99199">
        <ele>342</ele>
        <time>2012-01-22T09:01:37Z</time>
      </trkpt>
      <trkpt lat="49.20208" lon="6.99197">
        <ele>342</ele>
        <time>2012-01-22T09:01:38Z</time>
      </trkpt>
      <trkpt lat="49.20208" lon="6.99196">
        <ele>342</ele>
        <time>2012-01-22T09:01:39Z</time>
      </trkpt>
      <trkpt lat="49.20208" lon="6.99194">
        <ele>342</ele>
        <time>2012-01-22T09:01:40Z</time>
      </trkpt>
      <trkpt lat="49.20208" lon="6.99192">
        <ele>342</ele>
        <time>2012-01-22T09:01:41Z</time>
      </trkpt>
      <trkpt lat="49.20207" lon="6.9919">
        <ele>342</ele>
        <time>2012-01-22T09:01:42Z</time>
      </trkpt>
      <trkpt lat="49.20207" lon="6.99188">
        <ele>342</ele>
        <time>2012-01-22T09:01:43Z</time>
      </trkpt>
      <trkpt lat="49.20206" lon="6.99186">
        <ele>342</ele>
        <time>2012-01-22T09:01:44Z</time>
      </trkpt>
      <trkpt lat="49.20205" lon="6.99184">
        <ele>342</ele>
        <time>2012-01-22T09:01:45Z</time>
      </trkpt>
      <trkpt lat="49.20205" lon="6.99182">
        <ele>342</ele>
        <time>2012-01-22T09:01:46Z</time>
      </trkpt>
      <trkpt lat="49.20205" lon="6.9918">
        <ele>342</ele>
        <time>2012-01-22T09:01:47Z</time>
      </trkpt>
      <trkpt lat="49.20205" lon="6.99178">
        <ele>342</ele>
        <time>2012-01-22T09:01:48Z</time>
      </trkpt>
      <trkpt lat="49.20204" lon="6.99176">
        <ele>342</ele>
        <time>2012-01-22T09:01:49Z</time>
      </trkpt>
      <trkpt lat="49.20204" lon="6.99174">
        <ele>341</ele>
        <time>2012-01-22T09:01:50Z</time>
      </trkpt>
      <trkpt lat="49.20203" lon="6.99172">
        <ele>341</ele>
        <time>2012-01-22T09:01:51Z</time>
      </trkpt>
      <trkpt lat="49.20203" lon="6.9917">
        <ele>341</ele>
        <time>2012-01-22T09:01:52Z</time>
      </trkpt>
      <trkpt lat="49.20202" lon="6.99168">
        <ele>341</ele>
        <time>2012-01-22T09:01:53Z</time>
      </trkpt>
      <trkpt lat="49.20201" lon="6.99166">
        <ele>341</ele>
        <time>2012-01-22T09:01:54Z</time>
      </trkpt>
      <trkpt lat="49.20201" lon="6.99164">
        <ele>340</ele>
        <time>2012-01-22T09:01:55Z</time>
      </trkpt>
      <trkpt lat="49.202" lon="6.99162">
        <ele>340</ele>
        <time>2012-01-22T09:01:56Z</time>
      </trkpt>
      <trkpt lat="49.202" lon="6.9916">
        <ele>340</ele>
        <time>2012-01-22T09:01:57Z</time>
      </trkpt>
      <trkpt lat="49.20199" lon="6.99158">
        <ele>340</ele>
        <time>2012-01-22T09:01:58Z</time>
      </trkpt>
      <trkpt lat="49.20198" lon="6.99156">
        <ele>339</ele>
        <time>2012-01-22T09:01:59Z</time>
      </trkpt>
      <trkpt lat="49.20198" lon="6.99153">
        <ele>339</ele>
        <time>2012-01-22T09:02:00Z</time>
      </trkpt>
      <trkpt lat="49.20197" lon="6.99151">
        <ele>339</ele>
        <time>2012-01-22T09:02:01Z</time>
      </trkpt>
      <trkpt lat="49.20196" lon="6.99149">
        <ele>339</ele>
        <time>2012-01-22T09:02:02Z</time>
      </trkpt>
      <trkpt lat="49.20195" lon="6.99147">
        <ele>339</ele>
        <time>2012-01-22T09:02:03Z</time>
      </trkpt>
      <trkpt lat="49.20195" lon="6.99145">
        <ele>339</ele>
        <time>2012-01-22T09:02:04Z</time>
      </trkpt>
      <trkpt lat="49.20195" lon="6.99143">
        <ele>339</ele>
        <time>2012-01-22T09:02:05Z</time>
      </trkpt>
      <trkpt lat="49.20194" lon="6.99141">
        <ele>339</ele>
        <time>2012-01-22T09:02:06Z</time>
      </trkpt>
      <trkpt lat="49.20194" lon="6.99138">
        <ele>339</ele>
        <time>2012-01-22T09:02:07Z</time>
      </trkpt>
      <trkpt lat="49.20193" lon="6.99137">
        <ele>338</ele>
        <time>2012-01-22T09:02:08Z</time>
      </trkpt>
      <trkpt lat="49.20193" lon="6.99135">
        <ele>338</ele>
        <time>2012-01-22T09:02:09Z</time>
      </trkpt>
      <trkpt lat="49.20193" lon="6.99133">
        <ele>338</ele>
        <time>2012-01-22T09:02:10Z</time>
      </trkpt>
      <trkpt lat="49.20192" lon="6.99131">
        <ele>338</ele>
        <time>2012-01-22T09:02:11Z</time>
      </trkpt>
      <trkpt lat="49.20192" lon="6.99129">
        <ele>338</ele>
        <time>2012-01-22T09:02:12Z</time>
      </trkpt>
      <trkpt lat="49.20191" lon="6.99127">
        <ele>338</ele>
        <time>2012-01-22T09:02:13Z</time>
      </trkpt>
      <trkpt lat="49.2019" lon="6.99125">
        <ele>338</ele>
        <time>2012-01-22T09:02:14Z</time>
      </trkpt>
      <trkpt lat="49.2019" lon="6.99123">
        <ele>338</ele>
        <time>2012-01-22T09:02:15Z</time>
      </trkpt>
      <trkpt lat="49.20189" lon="6.99121">
        <ele>338</ele>
        <time>2012-01-22T09:02:16Z</time>
      </trkpt>
      <trkpt lat="49.20189" lon="6.9912">
        <ele>338</ele>
        <time>2012-01-22T09:02:17Z</time>
      </trkpt>
      <trkpt lat="49.20188" lon="6.99118">
        <ele>338</ele>
        <time>2012-01-22T09:02:18Z</time>
      </trkpt>
      <trkpt lat="49.20187" lon="6.99116">
        <ele>337</ele>
        <time>2012-01-22T09:02:19Z</time>
      </trkpt>
      <trkpt lat="49.20186" lon="6.99113">
        <ele>337</ele>
        <time>2012-01-22T09:02:20Z</time>
      </trkpt>
      <trkpt lat="49.20185" lon="6.99111">
        <ele>337</ele>
        <time>2012-01-22T09:02:21Z</time>
      </trkpt>
      <trkpt lat="49.20185" lon="6.99109">
        <ele>337</ele>
        <time>2012-01-22T09:02:22Z</time>
      </trkpt>
      <trkpt lat="49.20184" lon="6.99106">
        <ele>337</ele>
        <time>2012-01-22T09:02:23Z</time>
      </trkpt>
      <trkpt lat="49.20184" lon="6.99104">
        <ele>337</ele>
        <time>2012-01-22T09:02:24Z</time>
      </trkpt>
      <trkpt lat="49.20184" lon="6.99102">
        <ele>337</ele>
        <time>2012-01-22T09:02:25Z</time>
      </trkpt>
      <trkpt lat="49.20183" lon="6.99101">
        <ele>336</ele>
        <time>2012-01-22T09:02:26Z</time>
      </trkpt>
      <trkpt lat="49.20182" lon="6.99099">
        <ele>336</ele>
        <time>2012-01-22T09:02:27Z</time>
      </trkpt>
      <trkpt lat="49.20182" lon="6.99097">
        <ele>336</ele>
        <time>2012-01-22T09:02:28Z</time>
      </trkpt>
      <trkpt lat="49.20181" lon="6.99095">
        <ele>336</ele>
        <time>2012-01-22T09:02:29Z</time>
      </trkpt>
      <trkpt lat="49.2018" lon="6.99093">
        <ele>336</ele>
        <time>2012-01-22T09:02:30Z</time>
      </trkpt>
      <trkpt lat="49.2018" lon="6.99091">
        <ele>336</ele>
        <time>2012-01-22T09:02:31Z</time>
      </trkpt>
      <trkpt lat="49.20179" lon="6.99089">
        <ele>335</ele>
        <time>2012-01-22T09:02:32Z</time>
      </trkpt>
      <trkpt lat="49.20179" lon="6.99087">
        <ele>335</ele>
        <time>2012-01-22T09:02:33Z</time>
      </trkpt>
      <trkpt lat="49.20179" lon="6.99085">
        <ele>335</ele>
        <time>2012-01-22T09:02:34Z</time>
      </trkpt>
      <trkpt lat="49.20178" lon="6.99083">
        <ele>335</ele>
        <time>2012-01-22T09:02:35Z</time>
      </trkpt>
      <trkpt lat="49.20177" lon="6.99082">
        <ele>335</ele>
        <time>2012-01-22T09:02:36Z</time>
      </trkpt>
      <trkpt lat="49.20177" lon="6.9908">
        <ele>335</ele>
        <time>2012-01-22T09:02:37Z</time>
      </trkpt>
      <trkpt lat="49.20177" lon="6.99078">
        <ele>335</ele>
        <time>2012-01-22T09:02:38Z</time>
      </trkpt>
      <trkpt lat="49.20177" lon="6.99075">
        <ele>335</ele>
        <time>2012-01-22T09:02:39Z</time>
      </trkpt>
      <trkpt lat="49.20176" lon="6.99074">
        <ele>335</ele>
        <time>2012-01-22T09:02:40Z</time>
      </trkpt>
      <trkpt lat="49.20176" lon="6.99072">
        <ele>335</ele>
        <time>2012-01-22T09:02:41Z</time>
      </trkpt>
      <trkpt lat="49.20176" lon="6.9907">
        <ele>335</ele>
        <time>2012-01-22T09:02:42Z</time>
      </trkpt>
      <trkpt lat="49.20176" lon="6.99068">
        <ele>335</ele>
        <time>2012-01-22T09:02:43Z</time>
      </trkpt>
      <trkpt lat="49.20176" lon="6.99066">
        <ele>335</ele>
        <time>2012-01-22T09:02:44Z</time>
      </trkpt>
      <trkpt lat="49.20176" lon="6.99063">
        <ele>334</ele>
        <time>2012-01-22T09:02:45Z</time>
      </trkpt>
      <trkpt lat="49.20176" lon="6.99062">
        <ele>334</ele>
        <time>2012-01-22T09:02:46Z</time>
      </trkpt>
      <trkpt lat="49.20176" lon="6.9906">
        <ele>334</ele>
        <time>2012-01-22T09:02:47Z</time>
      </trkpt>
      <trkpt lat="49.20176" lon="6.99058">
        <ele>334</ele>
        <time>2012-01-22T09:02:48Z</time>
      </trkpt>
      <trkpt lat="49.20176" lon="6.99056">
        <ele>334</ele>
        <time>2012-01-22T09:02:49Z</time>
      </trkpt>
      <trkpt lat="49.20177" lon="6.99054">
        <ele>334</ele>
        <time>2012-01-22T09:02:50Z</time>
      </trkpt>
      <trkpt lat="49.20177" lon="6.99052">
        <ele>334</ele>
        <time>2012-01-22T09:02:51Z</time>
      </trkpt>
      <trkpt lat="49.20178" lon="6.9905">
        <ele>334</ele>
        <time>2012-01-22T09:02:52Z</time>
      </trkpt>
      <trkpt lat="49.20179" lon="6.99049">
        <ele>334</ele>
        <time>2012-01-22T09:02:53Z</time>
      </trkpt>
      <trkpt lat="49.20179" lon="6.99046">
        <ele>334</ele>
        <time>2012-01-22T09:02:54Z</time>
      </trkpt>
      <trkpt lat="49.20181" lon="6.99042">
        <ele>334</ele>
        <time>2012-01-22T09:02:56Z</time>
      </trkpt>
      <trkpt lat="49.20182" lon="6.99039">
        <ele>334</ele>
        <time>2012-01-22T09:02:58Z</time>
      </trkpt>
      <trkpt lat="49.20182" lon="6.99037">
        <ele>334</ele>
        <time>2012-01-22T09:02:59Z</time>
      </trkpt>
      <trkpt lat="49.20183" lon="6.99035">
        <ele>334</ele>
        <time>2012-01-22T09:03:00Z</time>
      </trkpt>
      <trkpt lat="49.20183" lon="6.99033">
        <ele>334</ele>
        <time>2012-01-22T09:03:01Z</time>
      </trkpt>
      <trkpt lat="49.20183" lon="6.99031">
        <ele>334</ele>
        <time>2012-01-22T09:03:02Z</time>
      </trkpt>
      <trkpt lat="49.20184" lon="6.99028">
        <ele>334</ele>
        <time>2012-01-22T09:03:03Z</time>
      </trkpt>
      <trkpt lat="49.20184" lon="6.99026">
        <ele>334</ele>
        <time>2012-01-22T09:03:04Z</time>
      </trkpt>
      <trkpt lat="49.20184" lon="6.99024">
        <ele>334</ele>
        <time>2012-01-22T09:03:05Z</time>
      </trkpt>
      <trkpt lat="49.20184" lon="6.99022">
        <ele>334</ele>
        <time>2012-01-22T09:03:06Z</time>
      </trkpt>
      <trkpt lat="49.20184" lon="6.9902">
        <ele>334</ele>
        <time>2012-01-22T09:03:07Z</time>
      </trkpt>
      <trkpt lat="49.20184" lon="6.99017">
        <ele>334</ele>
        <time>2012-01-22T09:03:08Z</time>
      </trkpt>
      <trkpt lat="49.20185" lon="6.99015">
        <ele>334</ele>
        <time>2012-01-22T09:03:09Z</time>
      </trkpt>
      <trkpt lat="49.20185" lon="6.99012">
        <ele>334</ele>
        <time>2012-01-22T09:03:10Z</time>
      </trkpt>
      <trkpt lat="49.20186" lon="6.9901">
        <ele>334</ele>
        <time>2012-01-22T09:03:11Z</time>
      </trkpt>
      <trkpt lat="49.20186" lon="6.99008">
        <ele>334</ele>
        <time>2012-01-22T09:03:12Z</time>
      </trkpt>
      <trkpt lat="49.20187" lon="6.99006">
        <ele>334</ele>
        <time>2012-01-22T09:03:13Z</time>
      </trkpt>
      <trkpt lat="49.20187" lon="6.99004">
        <ele>334</ele>
        <time>2012-01-22T09:03:14Z</time>
      </trkpt>
      <trkpt lat="49.20187" lon="6.99002">
        <ele>334</ele>
        <time>2012-01-22T09:03:15Z</time>
      </trkpt>
      <trkpt lat="49.20188" lon="6.99">
        <ele>334</ele>
        <time>2012-01-22T09:03:16Z</time>
      </trkpt>
      <trkpt lat="49.20189" lon="6.98997">
        <ele>334</ele>
        <time>2012-01-22T09:03:17Z</time>
      </trkpt>
      <trkpt lat="49.20189" lon="6.98995">
        <ele>334</ele>
        <time>2012-01-22T09:03:18Z</time>
      </trkpt>
      <trkpt lat="49.2019" lon="6.98994">
        <ele>334</ele>
        <time>2012-01-22T09:03:19Z</time>
      </trkpt>
      <trkpt lat="49.20191" lon="6.98992">
        <ele>334</ele>
        <time>2012-01-22T09:03:20Z</time>
      </trkpt>
      <trkpt lat="49.20192" lon="6.9899">
        <ele>334</ele>
        <time>2012-01-22T09:03:21Z</time>
      </trkpt>
      <trkpt lat="49.20193" lon="6.98988">
        <ele>334</ele>
        <time>2012-01-22T09:03:22Z</time>
      </trkpt>
      <trkpt lat="49.20194" lon="6.98986">
        <ele>334</ele>
        <time>2012-01-22T09:03:23Z</time>
      </trkpt>
      <trkpt lat="49.20194" lon="6.98985">
        <ele>334</ele>
        <time>2012-01-22T09:03:24Z</time>
      </trkpt>
      <trkpt lat="49.20196" lon="6.98981">
        <ele>334</ele>
        <time>2012-01-22T09:03:26Z</time>
      </trkpt>
      <trkpt lat="49.20197" lon="6.98979">
        <ele>334</ele>
        <time>2012-01-22T09:03:27Z</time>
      </trkpt>
      <trkpt lat="49.20198" lon="6.98977">
        <ele>334</ele>
        <time>2012-01-22T09:03:28Z</time>
      </trkpt>
      <trkpt lat="49.20198" lon="6.98974">
        <ele>334</ele>
        <time>2012-01-22T09:03:29Z</time>
      </trkpt>
      <trkpt lat="49.20199" lon="6.98973">
        <ele>334</ele>
        <time>2012-01-22T09:03:30Z</time>
      </trkpt>
      <trkpt lat="49.202" lon="6.9897">
        <ele>334</ele>
        <time>2012-01-22T09:03:32Z</time>
      </trkpt>
      <trkpt lat="49.20201" lon="6.98968">
        <ele>334</ele>
        <time>2012-01-22T09:03:33Z</time>
      </trkpt>
      <trkpt lat="49.20202" lon="6.98966">
        <ele>334</ele>
        <time>2012-01-22T09:03:34Z</time>
      </trkpt>
      <trkpt lat="49.20203" lon="6.98964">
        <ele>334</ele>
        <time>2012-01-22T09:03:35Z</time>
      </trkpt>
      <trkpt lat="49.20204" lon="6.98962">
        <ele>334</ele>
        <time>2012-01-22T09:03:37Z</time>
      </trkpt>
      <trkpt lat="49.20206" lon="6.9896">
        <ele>334</ele>
        <time>2012-01-22T09:03:39Z</time>
      </trkpt>
      <trkpt lat="49.20207" lon="6.9896">
        <ele>334</ele>
        <time>2012-01-22T09:03:40Z</time>
      </trkpt>
      <trkpt lat="49.20208" lon="6.9896">
        <ele>334</ele>
        <time>2012-01-22T09:03:41Z</time>
      </trkpt>
      <trkpt lat="49.2021" lon="6.9896">
        <ele>334</ele>
        <time>2012-01-22T09:03:42Z</time>
      </trkpt>
      <trkpt lat="49.20212" lon="6.9896">
        <ele>334</ele>
        <time>2012-01-22T09:03:44Z</time>
      </trkpt>
      <trkpt lat="49.20214" lon="6.98962">
        <ele>334</ele>
        <time>2012-01-22T09:03:46Z</time>
      </trkpt>
      <trkpt lat="49.20216" lon="6.98962">
        <ele>334</ele>
        <time>2012-01-22T09:03:47Z</time>
      </trkpt>
      <trkpt lat="49.20218" lon="6.98963">
        <ele>334</ele>
        <time>2012-01-22T09:03:48Z</time>
      </trkpt>
      <trkpt lat="49.20219" lon="6.98965">
        <ele>334</ele>
        <time>2012-01-22T09:03:49Z</time>
      </trkpt>
      <trkpt lat="49.20221" lon="6.98967">
        <ele>334</ele>
        <time>2012-01-22T09:03:50Z</time>
      </trkpt>
      <trkpt lat="49.20221" lon="6.98969">
        <ele>335</ele>
        <time>2012-01-22T09:03:51Z</time>
      </trkpt>
      <trkpt lat="49.20223" lon="6.9897">
        <ele>335</ele>
        <time>2012-01-22T09:03:52Z</time>
      </trkpt>
      <trkpt lat="49.20224" lon="6.98972">
        <ele>336</ele>
        <time>2012-01-22T09:03:53Z</time>
      </trkpt>
      <trkpt lat="49.20224" lon="6.98975">
        <ele>336</ele>
        <time>2012-01-22T09:03:54Z</time>
      </trkpt>
      <trkpt lat="49.20224" lon="6.98976">
        <ele>336</ele>
        <time>2012-01-22T09:03:55Z</time>
      </trkpt>
      <trkpt lat="49.20227" lon="6.98979">
        <ele>336</ele>
        <time>2012-01-22T09:03:57Z</time>
      </trkpt>
      <trkpt lat="49.20229" lon="6.9898">
        <ele>336</ele>
        <time>2012-01-22T09:03:58Z</time>
      </trkpt>
      <trkpt lat="49.2023" lon="6.98982">
        <ele>336</ele>
        <time>2012-01-22T09:03:59Z</time>
      </trkpt>
      <trkpt lat="49.20232" lon="6.98984">
        <ele>336</ele>
        <time>2012-01-22T09:04:01Z</time>
      </trkpt>
      <trkpt lat="49.20234" lon="6.98987">
        <ele>336</ele>
        <time>2012-01-22T09:04:03Z</time>
      </trkpt>
      <trkpt lat="49.20236" lon="6.98988">
        <ele>336</ele>
        <time>2012-01-22T09:04:04Z</time>
      </trkpt>
      <trkpt lat="49.20237" lon="6.98989">
        <ele>336</ele>
        <time>2012-01-22T09:04:05Z</time>
      </trkpt>
      <trkpt lat="49.20239" lon="6.98991">
        <ele>336</ele>
        <time>2012-01-22T09:04:07Z</time>
      </trkpt>
      <trkpt lat="49.2024" lon="6.98993">
        <ele>336</ele>
        <time>2012-01-22T09:04:08Z</time>
      </trkpt>
      <trkpt lat="49.20241" lon="6.98995">
        <ele>336</ele>
        <time>2012-01-22T09:04:09Z</time>
      </trkpt>
      <trkpt lat="49.20243" lon="6.98997">
        <ele>336</ele>
        <time>2012-01-22T09:04:10Z</time>
      </trkpt>
      <trkpt lat="49.20244" lon="6.98998">
        <ele>336</ele>
        <time>2012-01-22T09:04:11Z</time>
      </trkpt>
      <trkpt lat="49.20246" lon="6.99002">
        <ele>336</ele>
        <time>2012-01-22T09:04:13Z</time>
      </trkpt>
      <trkpt lat="49.20248" lon="6.99005">
        <ele>336</ele>
        <time>2012-01-22T09:04:15Z</time>
      </trkpt>
      <trkpt lat="49.20249" lon="6.99006">
        <ele>336</ele>
        <time>2012-01-22T09:04:16Z</time>
      </trkpt>
      <trkpt lat="49.20251" lon="6.99009">
        <ele>336</ele>
        <time>2012-01-22T09:04:18Z</time>
      </trkpt>
      <trkpt lat="49.20252" lon="6.9901">
        <ele>336</ele>
        <time>2012-01-22T09:04:19Z</time>
      </trkpt>
      <trkpt lat="49.20253" lon="6.99012">
        <ele>336</ele>
        <time>2012-01-22T09:04:20Z</time>
      </trkpt>
      <trkpt lat="49.20254" lon="6.99014">
        <ele>336</ele>
        <time>2012-01-22T09:04:21Z</time>
      </trkpt>
      <trkpt lat="49.20255" lon="6.99016">
        <ele>336</ele>
        <time>2012-01-22T09:04:22Z</time>
      </trkpt>
      <trkpt lat="49.20256" lon="6.99018">
        <ele>336</ele>
        <time>2012-01-22T09:04:23Z</time>
      </trkpt>
      <trkpt lat="49.20256" lon="6.9902">
        <ele>336</ele>
        <time>2012-01-22T09:04:24Z</time>
      </trkpt>
      <trkpt lat="49.20258" lon="6.99021">
        <ele>336</ele>
        <time>2012-01-22T09:04:25Z</time>
      </trkpt>
      <trkpt lat="49.2026" lon="6.99023">
        <ele>336</ele>
        <time>2012-01-22T09:04:27Z</time>
      </trkpt>
      <trkpt lat="49.20262" lon="6.99025">
        <ele>336</ele>
        <time>2012-01-22T09:04:29Z</time>
      </trkpt>
      <trkpt lat="49.20264" lon="6.99027">
        <ele>336</ele>
        <time>2012-01-22T09:04:31Z</time>
      </trkpt>
      <trkpt lat="49.20266" lon="6.9903">
        <ele>336</ele>
        <time>2012-01-22T09:04:33Z</time>
      </trkpt>
      <trkpt lat="49.20267" lon="6.99031">
        <ele>336</ele>
        <time>2012-01-22T09:04:34Z</time>
      </trkpt>
      <trkpt lat="49.20268" lon="6.99032">
        <ele>336</ele>
        <time>2012-01-22T09:04:35Z</time>
      </trkpt>
      <trkpt lat="49.2027" lon="6.99035">
        <ele>336</ele>
        <time>2012-01-22T09:04:37Z</time>
      </trkpt>
      <trkpt lat="49.20271" lon="6.99037">
        <ele>336</ele>
        <time>2012-01-22T09:04:38Z</time>
      </trkpt>
      <trkpt lat="49.20272" lon="6.99039">
        <ele>336</ele>
        <time>2012-01-22T09:04:39Z</time>
      </trkpt>
      <trkpt lat="49.20273" lon="6.99041">
        <ele>336</ele>
        <time>2012-01-22T09:04:40Z</time>
      </trkpt>
      <trkpt lat="49.20274" lon="6.99042">
        <ele>336</ele>
        <time>2012-01-22T09:04:41Z</time>
      </trkpt>
      <trkpt lat="49.20276" lon="6.99046">
        <ele>336</ele>
        <time>2012-01-22T09:04:43Z</time>
      </trkpt>
      <trkpt lat="49.20277" lon="6.99048">
        <ele>336</ele>
        <time>2012-01-22T09:04:44Z</time>
      </trkpt>
      <trkpt lat="49.20277" lon="6.9905">
        <ele>336</ele>
        <time>2012-01-22T09:04:45Z</time>
      </trkpt>
      <trkpt lat="49.20279" lon="6.99051">
        <ele>336</ele>
        <time>2012-01-22T09:04:46Z</time>
      </trkpt>
      <trkpt lat="49.2028" lon="6.99052">
        <ele>336</ele>
        <time>2012-01-22T09:04:47Z</time>
      </trkpt>
      <trkpt lat="49.20281" lon="6.99054">
        <ele>336</ele>
        <time>2012-01-22T09:04:48Z</time>
      </trkpt>
      <trkpt lat="49.20283" lon="6.99055">
        <ele>336</ele>
        <time>2012-01-22T09:04:50Z</time>
      </trkpt>
      <trkpt lat="49.20284" lon="6.99057">
        <ele>336</ele>
        <time>2012-01-22T09:04:51Z</time>
      </trkpt>
      <trkpt lat="49.20285" lon="6.9906">
        <ele>336</ele>
        <time>2012-01-22T09:04:52Z</time>
      </trkpt>
      <trkpt lat="49.20286" lon="6.99062">
        <ele>336</ele>
        <time>2012-01-22T09:04:53Z</time>
      </trkpt>
      <trkpt lat="49.20287" lon="6.99064">
        <ele>336</ele>
        <time>2012-01-22T09:04:54Z</time>
      </trkpt>
      <trkpt lat="49.20289" lon="6.99065">
        <ele>336</ele>
        <time>2012-01-22T09:04:55Z</time>
      </trkpt>
      <trkpt lat="49.2029" lon="6.99066">
        <ele>336</ele>
        <time>2012-01-22T09:04:56Z</time>
      </trkpt>
      <trkpt lat="49.20293" lon="6.9907">
        <ele>336</ele>
        <time>2012-01-22T09:04:58Z</time>
      </trkpt>
      <trkpt lat="49.20294" lon="6.99071">
        <ele>336</ele>
        <time>2012-01-22T09:04:59Z</time>
      </trkpt>
      <trkpt lat="49.20296" lon="6.99072">
        <ele>336</ele>
        <time>2012-01-22T09:05:00Z</time>
      </trkpt>
      <trkpt lat="49.20297" lon="6.99074">
        <ele>336</ele>
        <time>2012-01-22T09:05:01Z</time>
      </trkpt>
      <trkpt lat="49.20298" lon="6.99077">
        <ele>336</ele>
        <time>2012-01-22T09:05:03Z</time>
      </trkpt>
      <trkpt lat="49.203" lon="6.99078">
        <ele>336</ele>
        <time>2012-01-22T09:05:04Z</time>
      </trkpt>
      <trkpt lat="49.20301" lon="6.99079">
        <ele>336</ele>
        <time>2012-01-22T09:05:05Z</time>
      </trkpt>
      <trkpt lat="49.20302" lon="6.99082">
        <ele>336</ele>
        <time>2012-01-22T09:05:07Z</time>
      </trkpt>
      <trkpt lat="49.20303" lon="6.99084">
        <ele>336</ele>
        <time>2012-01-22T09:05:08Z</time>
      </trkpt>
      <trkpt lat="49.20304" lon="6.99086">
        <ele>336</ele>
        <time>2012-01-22T09:05:09Z</time>
      </trkpt>
      <trkpt lat="49.20305" lon="6.99088">
        <ele>336</ele>
        <time>2012-01-22T09:05:11Z</time>
      </trkpt>
      <trkpt lat="49.20306" lon="6.99091">
        <ele>336</ele>
        <time>2012-01-22T09:05:13Z</time>
      </trkpt>
      <trkpt lat="49.20306" lon="6.99094">
        <ele>335</ele>
        <time>2012-01-22T09:05:15Z</time>
      </trkpt>
      <trkpt lat="49.20308" lon="6.99097">
        <ele>333</ele>
        <time>2012-01-22T09:05:17Z</time>
      </trkpt>
      <trkpt lat="49.20309" lon="6.991">
        <ele>332</ele>
        <time>2012-01-22T09:05:19Z</time>
      </trkpt>
      <trkpt lat="49.2031" lon="6.99102">
        <ele>332</ele>
        <time>2012-01-22T09:05:20Z</time>
      </trkpt>
      <trkpt lat="49.20311" lon="6.99105">
        <ele>331</ele>
        <time>2012-01-22T09:05:22Z</time>
      </trkpt>
      <trkpt lat="49.20312" lon="6.99106">
        <ele>331</ele>
        <time>2012-01-22T09:05:23Z</time>
      </trkpt>
      <trkpt lat="49.20314" lon="6.99109">
        <ele>330</ele>
        <time>2012-01-22T09:05:25Z</time>
      </trkpt>
      <trkpt lat="49.20315" lon="6.99111">
        <ele>329</ele>
        <time>2012-01-22T09:05:27Z</time>
      </trkpt>
      <trkpt lat="49.20317" lon="6.99115">
        <ele>328</ele>
        <time>2012-01-22T09:05:29Z</time>
      </trkpt>
      <trkpt lat="49.20318" lon="6.99118">
        <ele>328</ele>
        <time>2012-01-22T09:05:31Z</time>
      </trkpt>
      <trkpt lat="49.2032" lon="6.9912">
        <ele>327</ele>
        <time>2012-01-22T09:05:33Z</time>
      </trkpt>
      <trkpt lat="49.20321" lon="6.99123">
        <ele>325</ele>
        <time>2012-01-22T09:05:35Z</time>
      </trkpt>
      <trkpt lat="49.20321" lon="6.99125">
        <ele>325</ele>
        <time>2012-01-22T09:05:36Z</time>
      </trkpt>
      <trkpt lat="49.20322" lon="6.99126">
        <ele>325</ele>
        <time>2012-01-22T09:05:37Z</time>
      </trkpt>
      <trkpt lat="49.20324" lon="6.99128">
        <ele>325</ele>
        <time>2012-01-22T09:05:38Z</time>
      </trkpt>
      <trkpt lat="49.20326" lon="6.9913">
        <ele>325</ele>
        <time>2012-01-22T09:05:39Z</time>
      </trkpt>
      <trkpt lat="49.20327" lon="6.99132">
        <ele>325</ele>
        <time>2012-01-22T09:05:40Z</time>
      </trkpt>
      <trkpt lat="49.20329" lon="6.99135">
        <ele>325</ele>
        <time>2012-01-22T09:05:42Z</time>
      </trkpt>
      <trkpt lat="49.2033" lon="6.99137">
        <ele>325</ele>
        <time>2012-01-22T09:05:43Z</time>
      </trkpt>
      <trkpt lat="49.20331" lon="6.99139">
        <ele>325</ele>
        <time>2012-01-22T09:05:44Z</time>
      </trkpt>
      <trkpt lat="49.20332" lon="6.99141">
        <ele>325</ele>
        <time>2012-01-22T09:05:45Z</time>
      </trkpt>
      <trkpt lat="49.20334" lon="6.99144">
        <ele>325</ele>
        <time>2012-01-22T09:05:47Z</time>
      </trkpt>
      <trkpt lat="49.20335" lon="6.99146">
        <ele>325</ele>
        <time>2012-01-22T09:05:48Z</time>
      </trkpt>
      <trkpt lat="49.20338" lon="6.99148">
        <ele>325</ele>
        <time>2012-01-22T09:05:50Z</time>
      </trkpt>
      <trkpt lat="49.20339" lon="6.99151">
        <ele>325</ele>
        <time>2012-01-22T09:05:52Z</time>
      </trkpt>
      <trkpt lat="49.20341" lon="6.99153">
        <ele>325</ele>
        <time>2012-01-22T09:05:53Z</time>
      </trkpt>
      <trkpt lat="49.20342" lon="6.99155">
        <ele>325</ele>
        <time>2012-01-22T09:05:54Z</time>
      </trkpt>
      <trkpt lat="49.20342" lon="6.99157">
        <ele>325</ele>
        <time>2012-01-22T09:05:55Z</time>
      </trkpt>
      <trkpt lat="49.20343" lon="6.99158">
        <ele>325</ele>
        <time>2012-01-22T09:05:56Z</time>
      </trkpt>
      <trkpt lat="49.20345" lon="6.99161">
        <ele>325</ele>
        <time>2012-01-22T09:05:58Z</time>
      </trkpt>
      <trkpt lat="49.20347" lon="6.99162">
        <ele>325</ele>
        <time>2012-01-22T09:05:59Z</time>
      </trkpt>
      <trkpt lat="49.20348" lon="6.99164">
        <ele>325</ele>
        <time>2012-01-22T09:06:00Z</time>
      </trkpt>
      <trkpt lat="49.20349" lon="6.99166">
        <ele>325</ele>
        <time>2012-01-22T09:06:01Z</time>
      </trkpt>
      <trkpt lat="49.2035" lon="6.99168">
        <ele>325</ele>
        <time>2012-01-22T09:06:02Z</time>
      </trkpt>
      <trkpt lat="49.20351" lon="6.99171">
        <ele>325</ele>
        <time>2012-01-22T09:06:04Z</time>
      </trkpt>
      <trkpt lat="49.20351" lon="6.99172">
        <ele>325</ele>
        <time>2012-01-22T09:06:05Z</time>
      </trkpt>
      <trkpt lat="49.20352" lon="6.99174">
        <ele>325</ele>
        <time>2012-01-22T09:06:06Z</time>
      </trkpt>
      <trkpt lat="49.20353" lon="6.99177">
        <ele>325</ele>
        <time>2012-01-22T09:06:08Z</time>
      </trkpt>
      <trkpt lat="49.20354" lon="6.99179">
        <ele>325</ele>
        <time>2012-01-22T09:06:09Z</time>
      </trkpt>
      <trkpt lat="49.20355" lon="6.9918">
        <ele>325</ele>
        <time>2012-01-22T09:06:10Z</time>
      </trkpt>
      <trkpt lat="49.20356" lon="6.99181">
        <ele>325</ele>
        <time>2012-01-22T09:06:11Z</time>
      </trkpt>
      <trkpt lat="49.20358" lon="6.99184">
        <ele>325</ele>
        <time>2012-01-22T09:06:13Z</time>
      </trkpt>
      <trkpt lat="49.20359" lon="6.99186">
        <ele>325</ele>
        <time>2012-01-22T09:06:14Z</time>
      </trkpt>
      <trkpt lat="49.2036" lon="6.99187">
        <ele>325</ele>
        <time>2012-01-22T09:06:15Z</time>
      </trkpt>
      <trkpt lat="49.2036" lon="6.99189">
        <ele>325</ele>
        <time>2012-01-22T09:06:16Z</time>
      </trkpt>
      <trkpt lat="49.20361" lon="6.99191">
        <ele>325</ele>
        <time>2012-01-22T09:06:17Z</time>
      </trkpt>
      <trkpt lat="49.20362" lon="6.99193">
        <ele>325</ele>
        <time>2012-01-22T09:06:18Z</time>
      </trkpt>
      <trkpt lat="49.20363" lon="6.99195">
        <ele>325</ele>
        <time>2012-01-22T09:06:19Z</time>
      </trkpt>
      <trkpt lat="49.20364" lon="6.99199">
        <ele>325</ele>
        <time>2012-01-22T09:06:21Z</time>
      </trkpt>
      <trkpt lat="49.20365" lon="6.99201">
        <ele>325</ele>
        <time>2012-01-22T09:06:22Z</time>
      </trkpt>
      <trkpt lat="49.20366" lon="6.99202">
        <ele>325</ele>
        <time>2012-01-22T09:06:23Z</time>
      </trkpt>
      <trkpt lat="49.20366" lon="6.99204">
        <ele>325</ele>
        <time>2012-01-22T09:06:24Z</time>
      </trkpt>
      <trkpt lat="49.20367" lon="6.99206">
        <ele>325</ele>
        <time>2012-01-22T09:06:25Z</time>
      </trkpt>
      <trkpt lat="49.20369" lon="6.99209">
        <ele>325</ele>
        <time>2012-01-22T09:06:27Z</time>
      </trkpt>
      <trkpt lat="49.20371" lon="6.99212">
        <ele>325</ele>
        <time>2012-01-22T09:06:29Z</time>
      </trkpt>
      <trkpt lat="49.20372" lon="6.99213">
        <ele>325</ele>
        <time>2012-01-22T09:06:30Z</time>
      </trkpt>
      <trkpt lat="49.20372" lon="6.99215">
        <ele>325</ele>
        <time>2012-01-22T09:06:31Z</time>
      </trkpt>
      <trkpt lat="49.20372" lon="6.99217">
        <ele>325</ele>
        <time>2012-01-22T09:06:32Z</time>
      </trkpt>
      <trkpt lat="49.20371" lon="6.9922">
        <ele>325</ele>
        <time>2012-01-22T09:06:33Z</time>
      </trkpt>
      <trkpt lat="49.20372" lon="6.99222">
        <ele>325</ele>
        <time>2012-01-22T09:06:35Z</time>
      </trkpt>
      <trkpt lat="49.20372" lon="6.99224">
        <ele>325</ele>
        <time>2012-01-22T09:06:36Z</time>
      </trkpt>
      <trkpt lat="49.20373" lon="6.99226">
        <ele>325</ele>
        <time>2012-01-22T09:06:37Z</time>
      </trkpt>
      <trkpt lat="49.20373" lon="6.99228">
        <ele>325</ele>
        <time>2012-01-22T09:06:38Z</time>
      </trkpt>
      <trkpt lat="49.20374" lon="6.9923">
        <ele>325</ele>
        <time>2012-01-22T09:06:39Z</time>
      </trkpt>
      <trkpt lat="49.20376" lon="6.99234">
        <ele>325</ele>
        <time>2012-01-22T09:06:41Z</time>
      </trkpt>
      <trkpt lat="49.20377" lon="6.99236">
        <ele>325</ele>
        <time>2012-01-22T09:06:42Z</time>
      </trkpt>
      <trkpt lat="49.20378" lon="6.99238">
        <ele>325</ele>
        <time>2012-01-22T09:06:43Z</time>
      </trkpt>
      <trkpt lat="49.20379" lon="6.99239">
        <ele>325</ele>
        <time>2012-01-22T09:06:44Z</time>
      </trkpt>
      <trkpt lat="49.2038" lon="6.99241">
        <ele>325</ele>
        <time>2012-01-22T09:06:45Z</time>
      </trkpt>
      <trkpt lat="49.20381" lon="6.99242">
        <ele>325</ele>
        <time>2012-01-22T09:06:46Z</time>
      </trkpt>
      <trkpt lat="49.20382" lon="6.99244">
        <ele>325</ele>
        <time>2012-01-22T09:06:47Z</time>
      </trkpt>
      <trkpt lat="49.20383" lon="6.99246">
        <ele>325</ele>
        <time>2012-01-22T09:06:48Z</time>
      </trkpt>
      <trkpt lat="49.20384" lon="6.99247">
        <ele>325</ele>
        <time>2012-01-22T09:06:49Z</time>
      </trkpt>
      <trkpt lat="49.20386" lon="6.99249">
        <ele>325</ele>
        <time>2012-01-22T09:06:50Z</time>
      </trkpt>
      <trkpt lat="49.20387" lon="6.99251">
        <ele>325</ele>
        <time>2012-01-22T09:06:51Z</time>
      </trkpt>
      <trkpt lat="49.20387" lon="6.99253">
        <ele>325</ele>
        <time>2012-01-22T09:06:52Z</time>
      </trkpt>
      <trkpt lat="49.20387" lon="6.99255">
        <ele>325</ele>
        <time>2012-01-22T09:06:53Z</time>
      </trkpt>
      <trkpt lat="49.20388" lon="6.99257">
        <ele>325</ele>
        <time>2012-01-22T09:06:54Z</time>
      </trkpt>
      <trkpt lat="49.20388" lon="6.99258">
        <ele>325</ele>
        <time>2012-01-22T09:06:55Z</time>
      </trkpt>
      <trkpt lat="49.2039" lon="6.9926">
        <ele>325</ele>
        <time>2012-01-22T09:06:56Z</time>
      </trkpt>
      <trkpt lat="49.20391" lon="6.99262">
        <ele>325</ele>
        <time>2012-01-22T09:06:57Z</time>
      </trkpt>
      <trkpt lat="49.20391" lon="6.99265">
        <ele>325</ele>
        <time>2012-01-22T09:06:58Z</time>
      </trkpt>
      <trkpt lat="49.20392" lon="6.99267">
        <ele>325</ele>
        <time>2012-01-22T09:06:59Z</time>
      </trkpt>
      <trkpt lat="49.20393" lon="6.99269">
        <ele>325</ele>
        <time>2012-01-22T09:07:00Z</time>
      </trkpt>
      <trkpt lat="49.20394" lon="6.9927">
        <ele>325</ele>
        <time>2012-01-22T09:07:01Z</time>
      </trkpt>
      <trkpt lat="49.20395" lon="6.99272">
        <ele>325</ele>
        <time>2012-01-22T09:07:02Z</time>
      </trkpt>
      <trkpt lat="49.20395" lon="6.99274">
        <ele>325</ele>
        <time>2012-01-22T09:07:03Z</time>
      </trkpt>
      <trkpt lat="49.20397" lon="6.99278">
        <ele>325</ele>
        <time>2012-01-22T09:07:05Z</time>
      </trkpt>
      <trkpt lat="49.20398" lon="6.99279">
        <ele>325</ele>
        <time>2012-01-22T09:07:06Z</time>
      </trkpt>
      <trkpt lat="49.20399" lon="6.99282">
        <ele>325</ele>
        <time>2012-01-22T09:07:07Z</time>
      </trkpt>
      <trkpt lat="49.204" lon="6.99284">
        <ele>325</ele>
        <time>2012-01-22T09:07:09Z</time>
      </trkpt>
      <trkpt lat="49.20401" lon="6.99287">
        <ele>325</ele>
        <time>2012-01-22T09:07:11Z</time>
      </trkpt>
      <trkpt lat="49.20401" lon="6.99289">
        <ele>325</ele>
        <time>2012-01-22T09:07:12Z</time>
      </trkpt>
      <trkpt lat="49.20403" lon="6.9929">
        <ele>325</ele>
        <time>2012-01-22T09:07:13Z</time>
      </trkpt>
      <trkpt lat="49.20404" lon="6.99293">
        <ele>325</ele>
        <time>2012-01-22T09:07:14Z</time>
      </trkpt>
      <trkpt lat="49.20404" lon="6.99294">
        <ele>325</ele>
        <time>2012-01-22T09:07:15Z</time>
      </trkpt>
      <trkpt lat="49.20405" lon="6.99296">
        <ele>325</ele>
        <time>2012-01-22T09:07:16Z</time>
      </trkpt>
      <trkpt lat="49.20407" lon="6.99298">
        <ele>325</ele>
        <time>2012-01-22T09:07:17Z</time>
      </trkpt>
      <trkpt lat="49.20408" lon="6.993">
        <ele>325</ele>
        <time>2012-01-22T09:07:18Z</time>
      </trkpt>
      <trkpt lat="49.2041" lon="6.99302">
        <ele>325</ele>
        <time>2012-01-22T09:07:20Z</time>
      </trkpt>
      <trkpt lat="49.20412" lon="6.99303">
        <ele>325</ele>
        <time>2012-01-22T09:07:21Z</time>
      </trkpt>
      <trkpt lat="49.20413" lon="6.99304">
        <ele>325</ele>
        <time>2012-01-22T09:07:22Z</time>
      </trkpt>
      <trkpt lat="49.20414" lon="6.99305">
        <ele>325</ele>
        <time>2012-01-22T09:07:23Z</time>
      </trkpt>
      <trkpt lat="49.20415" lon="6.99306">
        <ele>325</ele>
        <time>2012-01-22T09:07:24Z</time>
      </trkpt>
      <trkpt lat="49.20417" lon="6.99308">
        <ele>325</ele>
        <time>2012-01-22T09:07:25Z</time>
      </trkpt>
      <trkpt lat="49.20419" lon="6.99309">
        <ele>325</ele>
        <time>2012-01-22T09:07:26Z</time>
      </trkpt>
      <trkpt lat="49.20421" lon="6.9931">
        <ele>325</ele>
        <time>2012-01-22T09:07:27Z</time>
      </trkpt>
      <trkpt lat="49.20422" lon="6.99311">
        <ele>325</ele>
        <time>2012-01-22T09:07:28Z</time>
      </trkpt>
      <trkpt lat="49.20423" lon="6.99313">
        <ele>326</ele>
        <time>2012-01-22T09:07:29Z</time>
      </trkpt>
      <trkpt lat="49.20425" lon="6.99314">
        <ele>326</ele>
        <time>2012-01-22T09:07:30Z</time>
      </trkpt>
      <trkpt lat="49.20426" lon="6.99315">
        <ele>326</ele>
        <time>2012-01-22T09:07:31Z</time>
      </trkpt>
      <trkpt lat="49.20428" lon="6.99316">
        <ele>326</ele>
        <time>2012-01-22T09:07:32Z</time>
      </trkpt>
      <trkpt lat="49.2043" lon="6.99317">
        <ele>327</ele>
        <time>2012-01-22T09:07:33Z</time>
      </trkpt>
      <trkpt lat="49.20431" lon="6.99317">
        <ele>327</ele>
        <time>2012-01-22T09:07:34Z</time>
      </trkpt>
      <trkpt lat="49.20432" lon="6.99318">
        <ele>327</ele>
        <time>2012-01-22T09:07:35Z</time>
      </trkpt>
      <trkpt lat="49.20434" lon="6.9932">
        <ele>328</ele>
        <time>2012-01-22T09:07:37Z</time>
      </trkpt>
      <trkpt lat="49.20435" lon="6.99322">
        <ele>328</ele>
        <time>2012-01-22T09:07:38Z</time>
      </trkpt>
      <trkpt lat="49.20437" lon="6.99324">
        <ele>329</ele>
        <time>2012-01-22T09:07:40Z</time>
      </trkpt>
      <trkpt lat="49.2044" lon="6.99327">
        <ele>329</ele>
        <time>2012-01-22T09:07:42Z</time>
      </trkpt>
      <trkpt lat="49.20441" lon="6.99329">
        <ele>330</ele>
        <time>2012-01-22T09:07:43Z</time>
      </trkpt>
      <trkpt lat="49.20442" lon="6.99331">
        <ele>330</ele>
        <time>2012-01-22T09:07:45Z</time>
      </trkpt>
      <trkpt lat="49.20442" lon="6.99333">
        <ele>330</ele>
        <time>2012-01-22T09:07:46Z</time>
      </trkpt>
      <trkpt lat="49.20443" lon="6.99335">
        <ele>330</ele>
        <time>2012-01-22T09:07:47Z</time>
      </trkpt>
      <trkpt lat="49.20444" lon="6.99336">
        <ele>330</ele>
        <time>2012-01-22T09:07:48Z</time>
      </trkpt>
      <trkpt lat="49.20447" lon="6.99338">
        <ele>330</ele>
        <time>2012-01-22T09:07:50Z</time>
      </trkpt>
      <trkpt lat="49.20448" lon="6.99339">
        <ele>330</ele>
        <time>2012-01-22T09:07:51Z</time>
      </trkpt>
      <trkpt lat="49.20448" lon="6.99341">
        <ele>330</ele>
        <time>2012-01-22T09:07:52Z</time>
      </trkpt>
      <trkpt lat="49.2045" lon="6.99342">
        <ele>330</ele>
        <time>2012-01-22T09:07:53Z</time>
      </trkpt>
      <trkpt lat="49.20451" lon="6.99344">
        <ele>330</ele>
        <time>2012-01-22T09:07:54Z</time>
      </trkpt>
      <trkpt lat="49.20454" lon="6.99347">
        <ele>330</ele>
        <time>2012-01-22T09:07:56Z</time>
      </trkpt>
      <trkpt lat="49.20455" lon="6.99348">
        <ele>330</ele>
        <time>2012-01-22T09:07:57Z</time>
      </trkpt>
      <trkpt lat="49.20456" lon="6.99351">
        <ele>330</ele>
        <time>2012-01-22T09:07:59Z</time>
      </trkpt>
      <trkpt lat="49.20457" lon="6.99352">
        <ele>330</ele>
        <time>2012-01-22T09:08:00Z</time>
      </trkpt>
      <trkpt lat="49.20459" lon="6.99353">
        <ele>330</ele>
        <time>2012-01-22T09:08:01Z</time>
      </trkpt>
      <trkpt lat="49.20461" lon="6.99354">
        <ele>330</ele>
        <time>2012-01-22T09:08:02Z</time>
      </trkpt>
      <trkpt lat="49.20462" lon="6.99355">
        <ele>330</ele>
        <time>2012-01-22T09:08:03Z</time>
      </trkpt>
      <trkpt lat="49.20464" lon="6.99357">
        <ele>330</ele>
        <time>2012-01-22T09:08:04Z</time>
      </trkpt>
      <trkpt lat="49.20464" lon="6.99359">
        <ele>330</ele>
        <time>2012-01-22T09:08:05Z</time>
      </trkpt>
      <trkpt lat="49.20465" lon="6.9936">
        <ele>330</ele>
        <time>2012-01-22T09:08:06Z</time>
      </trkpt>
      <trkpt lat="49.20466" lon="6.99362">
        <ele>330</ele>
        <time>2012-01-22T09:08:07Z</time>
      </trkpt>
      <trkpt lat="49.20467" lon="6.99364">
        <ele>330</ele>
        <time>2012-01-22T09:08:08Z</time>
      </trkpt>
      <trkpt lat="49.20468" lon="6.99367">
        <ele>330</ele>
        <time>2012-01-22T09:08:09Z</time>
      </trkpt>
      <trkpt lat="49.20469" lon="6.99368">
        <ele>330</ele>
        <time>2012-01-22T09:08:10Z</time>
      </trkpt>
      <trkpt lat="49.2047" lon="6.99369">
        <ele>330</ele>
        <time>2012-01-22T09:08:11Z</time>
      </trkpt>
      <trkpt lat="49.20471" lon="6.99371">
        <ele>330</ele>
        <time>2012-01-22T09:08:12Z</time>
      </trkpt>
      <trkpt lat="49.20472" lon="6.99373">
        <ele>330</ele>
        <time>2012-01-22T09:08:13Z</time>
      </trkpt>
      <trkpt lat="49.20474" lon="6.99375">
        <ele>330</ele>
        <time>2012-01-22T09:08:14Z</time>
      </trkpt>
      <trkpt lat="49.20475" lon="6.99376">
        <ele>330</ele>
        <time>2012-01-22T09:08:15Z</time>
      </trkpt>
      <trkpt lat="49.20477" lon="6.99378">
        <ele>330</ele>
        <time>2012-01-22T09:08:16Z</time>
      </trkpt>
      <trkpt lat="49.20478" lon="6.99379">
        <ele>330</ele>
        <time>2012-01-22T09:08:17Z</time>
      </trkpt>
      <trkpt lat="49.2048" lon="6.99381">
        <ele>330</ele>
        <time>2012-01-22T09:08:19Z</time>
      </trkpt>
      <trkpt lat="49.2048" lon="6.99383">
        <ele>331</ele>
        <time>2012-01-22T09:08:21Z</time>
      </trkpt>
      <trkpt lat="49.20482" lon="6.99386">
        <ele>331</ele>
        <time>2012-01-22T09:08:23Z</time>
      </trkpt>
      <trkpt lat="49.20483" lon="6.99388">
        <ele>331</ele>
        <time>2012-01-22T09:08:25Z</time>
      </trkpt>
      <trkpt lat="49.20483" lon="6.9939">
        <ele>331</ele>
        <time>2012-01-22T09:08:27Z</time>
      </trkpt>
      <trkpt lat="49.20484" lon="6.99393">
        <ele>331</ele>
        <time>2012-01-22T09:08:29Z</time>
      </trkpt>
      <trkpt lat="49.20485" lon="6.99395">
        <ele>331</ele>
        <time>2012-01-22T09:08:31Z</time>
      </trkpt>
      <trkpt lat="49.20486" lon="6.99397">
        <ele>330</ele>
        <time>2012-01-22T09:08:32Z</time>
      </trkpt>
      <trkpt lat="49.20487" lon="6.99398">
        <ele>330</ele>
        <time>2012-01-22T09:08:33Z</time>
      </trkpt>
      <trkpt lat="49.20489" lon="6.994">
        <ele>330</ele>
        <time>2012-01-22T09:08:34Z</time>
      </trkpt>
      <trkpt lat="49.2049" lon="6.99402">
        <ele>330</ele>
        <time>2012-01-22T09:08:35Z</time>
      </trkpt>
      <trkpt lat="49.20492" lon="6.99404">
        <ele>330</ele>
        <time>2012-01-22T09:08:36Z</time>
      </trkpt>
      <trkpt lat="49.20494" lon="6.99407">
        <ele>330</ele>
        <time>2012-01-22T09:08:38Z</time>
      </trkpt>
      <trkpt lat="49.20496" lon="6.99409">
        <ele>330</ele>
        <time>2012-01-22T09:08:40Z</time>
      </trkpt>
      <trkpt lat="49.20497" lon="6.99412">
        <ele>329</ele>
        <time>2012-01-22T09:08:42Z</time>
      </trkpt>
      <trkpt lat="49.20498" lon="6.99414">
        <ele>329</ele>
        <time>2012-01-22T09:08:43Z</time>
      </trkpt>
      <trkpt lat="49.20498" lon="6.99416">
        <ele>329</ele>
        <time>2012-01-22T09:08:44Z</time>
      </trkpt>
      <trkpt lat="49.205" lon="6.99419">
        <ele>328</ele>
        <time>2012-01-22T09:08:46Z</time>
      </trkpt>
      <trkpt lat="49.20501" lon="6.99421">
        <ele>328</ele>
        <time>2012-01-22T09:08:47Z</time>
      </trkpt>
      <trkpt lat="49.20501" lon="6.99423">
        <ele>328</ele>
        <time>2012-01-22T09:08:48Z</time>
      </trkpt>
      <trkpt lat="49.20502" lon="6.99424">
        <ele>328</ele>
        <time>2012-01-22T09:08:49Z</time>
      </trkpt>
      <trkpt lat="49.20504" lon="6.99427">
        <ele>327</ele>
        <time>2012-01-22T09:08:51Z</time>
      </trkpt>
      <trkpt lat="49.20505" lon="6.99429">
        <ele>326</ele>
        <time>2012-01-22T09:08:52Z</time>
      </trkpt>
      <trkpt lat="49.20506" lon="6.9943">
        <ele>324</ele>
        <time>2012-01-22T09:08:54Z</time>
      </trkpt>
      <trkpt lat="49.20508" lon="6.99434">
        <ele>322</ele>
        <time>2012-01-22T09:08:56Z</time>
      </trkpt>
      <trkpt lat="49.20508" lon="6.99435">
        <ele>321</ele>
        <time>2012-01-22T09:08:57Z</time>
      </trkpt>
      <trkpt lat="49.2051" lon="6.99438">
        <ele>319</ele>
        <time>2012-01-22T09:08:59Z</time>
      </trkpt>
      <trkpt lat="49.20513" lon="6.9944">
        <ele>319</ele>
        <time>2012-01-22T09:09:00Z</time>
      </trkpt>
      <trkpt lat="49.20515" lon="6.99441">
        <ele>319</ele>
        <time>2012-01-22T09:09:01Z</time>
      </trkpt>
      <trkpt lat="49.20516" lon="6.99442">
        <ele>319</ele>
        <time>2012-01-22T09:09:02Z</time>
      </trkpt>
      <trkpt lat="49.20519" lon="6.99444">
        <ele>319</ele>
        <time>2012-01-22T09:09:03Z</time>
      </trkpt>
      <trkpt lat="49.20521" lon="6.99445">
        <ele>319</ele>
        <time>2012-01-22T09:09:04Z</time>
      </trkpt>
      <trkpt lat="49.20522" lon="6.99446">
        <ele>319</ele>
        <time>2012-01-22T09:09:05Z</time>
      </trkpt>
      <trkpt lat="49.20524" lon="6.99448">
        <ele>319</ele>
        <time>2012-01-22T09:09:06Z</time>
      </trkpt>
      <trkpt lat="49.20525" lon="6.99449">
        <ele>320</ele>
        <time>2012-01-22T09:09:07Z</time>
      </trkpt>
      <trkpt lat="49.20528" lon="6.9945">
        <ele>320</ele>
        <time>2012-01-22T09:09:09Z</time>
      </trkpt>
      <trkpt lat="49.20529" lon="6.99451">
        <ele>321</ele>
        <time>2012-01-22T09:09:10Z</time>
      </trkpt>
      <trkpt lat="49.20531" lon="6.99453">
        <ele>321</ele>
        <time>2012-01-22T09:09:12Z</time>
      </trkpt>
      <trkpt lat="49.20532" lon="6.99457">
        <ele>321</ele>
        <time>2012-01-22T09:09:14Z</time>
      </trkpt>
      <trkpt lat="49.20533" lon="6.99459">
        <ele>321</ele>
        <time>2012-01-22T09:09:15Z</time>
      </trkpt>
      <trkpt lat="49.20534" lon="6.99461">
        <ele>321</ele>
        <time>2012-01-22T09:09:16Z</time>
      </trkpt>
      <trkpt lat="49.20535" lon="6.99463">
        <ele>321</ele>
        <time>2012-01-22T09:09:17Z</time>
      </trkpt>
      <trkpt lat="49.20536" lon="6.99465">
        <ele>321</ele>
        <time>2012-01-22T09:09:18Z</time>
      </trkpt>
      <trkpt lat="49.20539" lon="6.99467">
        <ele>321</ele>
        <time>2012-01-22T09:09:20Z</time>
      </trkpt>
      <trkpt lat="49.2054" lon="6.99469">
        <ele>321</ele>
        <time>2012-01-22T09:09:22Z</time>
      </trkpt>
      <trkpt lat="49.20541" lon="6.99472">
        <ele>321</ele>
        <time>2012-01-22T09:09:23Z</time>
      </trkpt>
      <trkpt lat="49.20543" lon="6.99474">
        <ele>321</ele>
        <time>2012-01-22T09:09:25Z</time>
      </trkpt>
      <trkpt lat="49.20544" lon="6.99476">
        <ele>321</ele>
        <time>2012-01-22T09:09:26Z</time>
      </trkpt>
      <trkpt lat="49.20544" lon="6.99477">
        <ele>321</ele>
        <time>2012-01-22T09:09:27Z</time>
      </trkpt>
      <trkpt lat="49.20545" lon="6.9948">
        <ele>320</ele>
        <time>2012-01-22T09:09:29Z</time>
      </trkpt>
      <trkpt lat="49.20548" lon="6.99481">
        <ele>320</ele>
        <time>2012-01-22T09:09:30Z</time>
      </trkpt>
      <trkpt lat="49.2055" lon="6.99484">
        <ele>319</ele>
        <time>2012-01-22T09:09:32Z</time>
      </trkpt>
      <trkpt lat="49.20551" lon="6.99486">
        <ele>319</ele>
        <time>2012-01-22T09:09:33Z</time>
      </trkpt>
      <trkpt lat="49.20554" lon="6.99489">
        <ele>319</ele>
        <time>2012-01-22T09:09:35Z</time>
      </trkpt>
      <trkpt lat="49.20556" lon="6.99492">
        <ele>318</ele>
        <time>2012-01-22T09:09:37Z</time>
      </trkpt>
      <trkpt lat="49.20557" lon="6.99494">
        <ele>318</ele>
        <time>2012-01-22T09:09:39Z</time>
      </trkpt>
      <trkpt lat="49.20559" lon="6.99497">
        <ele>317</ele>
        <time>2012-01-22T09:09:41Z</time>
      </trkpt>
      <trkpt lat="49.2056" lon="6.995">
        <ele>316</ele>
        <time>2012-01-22T09:09:43Z</time>
      </trkpt>
      <trkpt lat="49.20561" lon="6.99502">
        <ele>316</ele>
        <time>2012-01-22T09:09:44Z</time>
      </trkpt>
      <trkpt lat="49.20561" lon="6.99504">
        <ele>315</ele>
        <time>2012-01-22T09:09:45Z</time>
      </trkpt>
      <trkpt lat="49.20562" lon="6.99507">
        <ele>315</ele>
        <time>2012-01-22T09:09:46Z</time>
      </trkpt>
      <trkpt lat="49.20564" lon="6.9951">
        <ele>314</ele>
        <time>2012-01-22T09:09:48Z</time>
      </trkpt>
      <trkpt lat="49.20565" lon="6.99513">
        <ele>313</ele>
        <time>2012-01-22T09:09:50Z</time>
      </trkpt>
      <trkpt lat="49.20567" lon="6.99515">
        <ele>313</ele>
        <time>2012-01-22T09:09:52Z</time>
      </trkpt>
      <trkpt lat="49.20569" lon="6.99518">
        <ele>312</ele>
        <time>2012-01-22T09:09:54Z</time>
      </trkpt>
      <trkpt lat="49.2057" lon="6.9952">
        <ele>311</ele>
        <time>2012-01-22T09:09:56Z</time>
      </trkpt>
      <trkpt lat="49.20571" lon="6.99521">
        <ele>311</ele>
        <time>2012-01-22T09:09:57Z</time>
      </trkpt>
      <trkpt lat="49.20572" lon="6.99523">
        <ele>310</ele>
        <time>2012-01-22T09:09:58Z</time>
      </trkpt>
      <trkpt lat="49.20573" lon="6.99526">
        <ele>309</ele>
        <time>2012-01-22T09:10:00Z</time>
      </trkpt>
      <trkpt lat="49.20574" lon="6.99529">
        <ele>309</ele>
        <time>2012-01-22T09:10:02Z</time>
      </trkpt>
      <trkpt lat="49.20575" lon="6.9953">
        <ele>308</ele>
        <time>2012-01-22T09:10:03Z</time>
      </trkpt>
      <trkpt lat="49.20576" lon="6.99532">
        <ele>308</ele>
        <time>2012-01-22T09:10:04Z</time>
      </trkpt>
      <trkpt lat="49.20578" lon="6.99533">
        <ele>308</ele>
        <time>2012-01-22T09:10:05Z</time>
      </trkpt>
      <trkpt lat="49.2058" lon="6.99534">
        <ele>308</ele>
        <time>2012-01-22T09:10:06Z</time>
      </trkpt>
      <trkpt lat="49.20583" lon="6.99535">
        <ele>308</ele>
        <time>2012-01-22T09:10:07Z</time>
      </trkpt>
      <trkpt lat="49.20584" lon="6.99537">
        <ele>308</ele>
        <time>2012-01-22T09:10:08Z</time>
      </trkpt>
      <trkpt lat="49.20585" lon="6.99539">
        <ele>308</ele>
        <time>2012-01-22T09:10:09Z</time>
      </trkpt>
      <trkpt lat="49.20585" lon="6.99541">
        <ele>308</ele>
        <time>2012-01-22T09:10:10Z</time>
      </trkpt>
      <trkpt lat="49.20587" lon="6.99542">
        <ele>308</ele>
        <time>2012-01-22T09:10:11Z</time>
      </trkpt>
      <trkpt lat="49.20588" lon="6.99546">
        <ele>308</ele>
        <time>2012-01-22T09:10:13Z</time>
      </trkpt>
      <trkpt lat="49.20589" lon="6.99548">
        <ele>308</ele>
        <time>2012-01-22T09:10:14Z</time>
      </trkpt>
      <trkpt lat="49.2059" lon="6.9955">
        <ele>308</ele>
        <time>2012-01-22T09:10:15Z</time>
      </trkpt>
      <trkpt lat="49.20591" lon="6.99552">
        <ele>308</ele>
        <time>2012-01-22T09:10:16Z</time>
      </trkpt>
      <trkpt lat="49.20593" lon="6.99553">
        <ele>308</ele>
        <time>2012-01-22T09:10:17Z</time>
      </trkpt>
      <trkpt lat="49.20594" lon="6.99556">
        <ele>308</ele>
        <time>2012-01-22T09:10:19Z</time>
      </trkpt>
      <trkpt lat="49.20594" lon="6.99558">
        <ele>308</ele>
        <time>2012-01-22T09:10:20Z</time>
      </trkpt>
      <trkpt lat="49.20595" lon="6.99561">
        <ele>308</ele>
        <time>2012-01-22T09:10:21Z</time>
      </trkpt>
      <trkpt lat="49.20595" lon="6.99563">
        <ele>308</ele>
        <time>2012-01-22T09:10:22Z</time>
      </trkpt>
      <trkpt lat="49.20596" lon="6.99565">
        <ele>308</ele>
        <time>2012-01-22T09:10:23Z</time>
      </trkpt>
      <trkpt lat="49.20596" lon="6.99567">
        <ele>308</ele>
        <time>2012-01-22T09:10:24Z</time>
      </trkpt>
      <trkpt lat="49.20597" lon="6.99569">
        <ele>308</ele>
        <time>2012-01-22T09:10:25Z</time>
      </trkpt>
      <trkpt lat="49.20597" lon="6.99571">
        <ele>308</ele>
        <time>2012-01-22T09:10:26Z</time>
      </trkpt>
      <trkpt lat="49.20598" lon="6.99573">
        <ele>308</ele>
        <time>2012-01-22T09:10:27Z</time>
      </trkpt>
      <trkpt lat="49.20598" lon="6.99575">
        <ele>308</ele>
        <time>2012-01-22T09:10:28Z</time>
      </trkpt>
      <trkpt lat="49.20599" lon="6.99577">
        <ele>308</ele>
        <time>2012-01-22T09:10:29Z</time>
      </trkpt>
      <trkpt lat="49.20599" lon="6.99579">
        <ele>308</ele>
        <time>2012-01-22T09:10:30Z</time>
      </trkpt>
      <trkpt lat="49.206" lon="6.99581">
        <ele>308</ele>
        <time>2012-01-22T09:10:31Z</time>
      </trkpt>
      <trkpt lat="49.20601" lon="6.99583">
        <ele>308</ele>
        <time>2012-01-22T09:10:32Z</time>
      </trkpt>
      <trkpt lat="49.20601" lon="6.99585">
        <ele>308</ele>
        <time>2012-01-22T09:10:33Z</time>
      </trkpt>
      <trkpt lat="49.20602" lon="6.99587">
        <ele>308</ele>
        <time>2012-01-22T09:10:34Z</time>
      </trkpt>
      <trkpt lat="49.20602" lon="6.99589">
        <ele>308</ele>
        <time>2012-01-22T09:10:35Z</time>
      </trkpt>
      <trkpt lat="49.20603" lon="6.99591">
        <ele>308</ele>
        <time>2012-01-22T09:10:36Z</time>
      </trkpt>
      <trkpt lat="49.20603" lon="6.99593">
        <ele>308</ele>
        <time>2012-01-22T09:10:37Z</time>
      </trkpt>
      <trkpt lat="49.20603" lon="6.99595">
        <ele>308</ele>
        <time>2012-01-22T09:10:38Z</time>
      </trkpt>
      <trkpt lat="49.20603" lon="6.99599">
        <ele>308</ele>
        <time>2012-01-22T09:10:40Z</time>
      </trkpt>
      <trkpt lat="49.20603" lon="6.99602">
        <ele>308</ele>
        <time>2012-01-22T09:10:41Z</time>
      </trkpt>
      <trkpt lat="49.20603" lon="6.99604">
        <ele>308</ele>
        <time>2012-01-22T09:10:42Z</time>
      </trkpt>
      <trkpt lat="49.20603" lon="6.99606">
        <ele>308</ele>
        <time>2012-01-22T09:10:43Z</time>
      </trkpt>
      <trkpt lat="49.20602" lon="6.99608">
        <ele>308</ele>
        <time>2012-01-22T09:10:44Z</time>
      </trkpt>
      <trkpt lat="49.20602" lon="6.99611">
        <ele>308</ele>
        <time>2012-01-22T09:10:45Z</time>
      </trkpt>
      <trkpt lat="49.20602" lon="6.99613">
        <ele>308</ele>
        <time>2012-01-22T09:10:46Z</time>
      </trkpt>
      <trkpt lat="49.20603" lon="6.99615">
        <ele>308</ele>
        <time>2012-01-22T09:10:47Z</time>
      </trkpt>
      <trkpt lat="49.20603" lon="6.99617">
        <ele>308</ele>
        <time>2012-01-22T09:10:48Z</time>
      </trkpt>
      <trkpt lat="49.20603" lon="6.9962">
        <ele>308</ele>
        <time>2012-01-22T09:10:49Z</time>
      </trkpt>
      <trkpt lat="49.20604" lon="6.99623">
        <ele>308</ele>
        <time>2012-01-22T09:10:50Z</time>
      </trkpt>
      <trkpt lat="49.20604" lon="6.99625">
        <ele>308</ele>
        <time>2012-01-22T09:10:51Z</time>
      </trkpt>
      <trkpt lat="49.20605" lon="6.99627">
        <ele>308</ele>
        <time>2012-01-22T09:10:52Z</time>
      </trkpt>
      <trkpt lat="49.20605" lon="6.99629">
        <ele>308</ele>
        <time>2012-01-22T09:10:53Z</time>
      </trkpt>
      <trkpt lat="49.20605" lon="6.99631">
        <ele>308</ele>
        <time>2012-01-22T09:10:54Z</time>
      </trkpt>
      <trkpt lat="49.20605" lon="6.99633">
        <ele>308</ele>
        <time>2012-01-22T09:10:55Z</time>
      </trkpt>
      <trkpt lat="49.20605" lon="6.99636">
        <ele>308</ele>
        <time>2012-01-22T09:10:56Z</time>
      </trkpt>
      <trkpt lat="49.20605" lon="6.99639">
        <ele>308</ele>
        <time>2012-01-22T09:10:57Z</time>
      </trkpt>
      <trkpt lat="49.20605" lon="6.99641">
        <ele>308</ele>
        <time>2012-01-22T09:10:58Z</time>
      </trkpt>
      <trkpt lat="49.20604" lon="6.99643">
        <ele>308</ele>
        <time>2012-01-22T09:10:59Z</time>
      </trkpt>
      <trkpt lat="49.20604" lon="6.99645">
        <ele>308</ele>
        <time>2012-01-22T09:11:00Z</time>
      </trkpt>
      <trkpt lat="49.20604" lon="6.99648">
        <ele>308</ele>
        <time>2012-01-22T09:11:01Z</time>
      </trkpt>
      <trkpt lat="49.20604" lon="6.9965">
        <ele>308</ele>
        <time>2012-01-22T09:11:02Z</time>
      </trkpt>
      <trkpt lat="49.20604" lon="6.99652">
        <ele>308</ele>
        <time>2012-01-22T09:11:03Z</time>
      </trkpt>
      <trkpt lat="49.20604" lon="6.99654">
        <ele>308</ele>
        <time>2012-01-22T09:11:04Z</time>
      </trkpt>
      <trkpt lat="49.20604" lon="6.99656">
        <ele>308</ele>
        <time>2012-01-22T09:11:05Z</time>
      </trkpt>
      <trkpt lat="49.20604" lon="6.99658">
        <ele>308</ele>
        <time>2012-01-22T09:11:06Z</time>
      </trkpt>
      <trkpt lat="49.20604" lon="6.9966">
        <ele>308</ele>
        <time>2012-01-22T09:11:07Z</time>
      </trkpt>
      <trkpt lat="49.20602" lon="6.99663">
        <ele>308</ele>
        <time>2012-01-22T09:11:09Z</time>
      </trkpt>
      <trkpt lat="49.20602" lon="6.99665">
        <ele>308</ele>
        <time>2012-01-22T09:11:10Z</time>
      </trkpt>
      <trkpt lat="49.20602" lon="6.99667">
        <ele>308</ele>
        <time>2012-01-22T09:11:11Z</time>
      </trkpt>
      <trkpt lat="49.20602" lon="6.99669">
        <ele>308</ele>
        <time>2012-01-22T09:11:12Z</time>
      </trkpt>
      <trkpt lat="49.20601" lon="6.99671">
        <ele>308</ele>
        <time>2012-01-22T09:11:13Z</time>
      </trkpt>
      <trkpt lat="49.20601" lon="6.99673">
        <ele>308</ele>
        <time>2012-01-22T09:11:14Z</time>
      </trkpt>
      <trkpt lat="49.20601" lon="6.99675">
        <ele>307</ele>
        <time>2012-01-22T09:11:15Z</time>
      </trkpt>
      <trkpt lat="49.20601" lon="6.99678">
        <ele>307</ele>
        <time>2012-01-22T09:11:16Z</time>
      </trkpt>
      <trkpt lat="49.20601" lon="6.9968">
        <ele>307</ele>
        <time>2012-01-22T09:11:17Z</time>
      </trkpt>
      <trkpt lat="49.206" lon="6.99683">
        <ele>306</ele>
        <time>2012-01-22T09:11:19Z</time>
      </trkpt>
      <trkpt lat="49.206" lon="6.99685">
        <ele>306</ele>
        <time>2012-01-22T09:11:20Z</time>
      </trkpt>
      <trkpt lat="49.20601" lon="6.99687">
        <ele>306</ele>
        <time>2012-01-22T09:11:21Z</time>
      </trkpt>
      <trkpt lat="49.20601" lon="6.99689">
        <ele>306</ele>
        <time>2012-01-22T09:11:22Z</time>
      </trkpt>
      <trkpt lat="49.20601" lon="6.99691">
        <ele>305</ele>
        <time>2012-01-22T09:11:23Z</time>
      </trkpt>
      <trkpt lat="49.20601" lon="6.99693">
        <ele>305</ele>
        <time>2012-01-22T09:11:24Z</time>
      </trkpt>
      <trkpt lat="49.20601" lon="6.99695">
        <ele>305</ele>
        <time>2012-01-22T09:11:25Z</time>
      </trkpt>
      <trkpt lat="49.20601" lon="6.99697">
        <ele>304</ele>
        <time>2012-01-22T09:11:26Z</time>
      </trkpt>
      <trkpt lat="49.20601" lon="6.99699">
        <ele>304</ele>
        <time>2012-01-22T09:11:27Z</time>
      </trkpt>
      <trkpt lat="49.20601" lon="6.99701">
        <ele>303</ele>
        <time>2012-01-22T09:11:28Z</time>
      </trkpt>
      <trkpt lat="49.20601" lon="6.99703">
        <ele>303</ele>
        <time>2012-01-22T09:11:29Z</time>
      </trkpt>
      <trkpt lat="49.206" lon="6.99706">
        <ele>302</ele>
        <time>2012-01-22T09:11:30Z</time>
      </trkpt>
      <trkpt lat="49.206" lon="6.99708">
        <ele>302</ele>
        <time>2012-01-22T09:11:31Z</time>
      </trkpt>
      <trkpt lat="49.20599" lon="6.99711">
        <ele>302</ele>
        <time>2012-01-22T09:11:32Z</time>
      </trkpt>
      <trkpt lat="49.20599" lon="6.99713">
        <ele>302</ele>
        <time>2012-01-22T09:11:33Z</time>
      </trkpt>
      <trkpt lat="49.20598" lon="6.99715">
        <ele>301</ele>
        <time>2012-01-22T09:11:34Z</time>
      </trkpt>
      <trkpt lat="49.20597" lon="6.99718">
        <ele>300</ele>
        <time>2012-01-22T09:11:36Z</time>
      </trkpt>
      <trkpt lat="49.20596" lon="6.9972">
        <ele>300</ele>
        <time>2012-01-22T09:11:37Z</time>
      </trkpt>
      <trkpt lat="49.20596" lon="6.99722">
        <ele>299</ele>
        <time>2012-01-22T09:11:38Z</time>
      </trkpt>
      <trkpt lat="49.20595" lon="6.99725">
        <ele>298</ele>
        <time>2012-01-22T09:11:39Z</time>
      </trkpt>
      <trkpt lat="49.20595" lon="6.99727">
        <ele>298</ele>
        <time>2012-01-22T09:11:40Z</time>
      </trkpt>
      <trkpt lat="49.20596" lon="6.99729">
        <ele>298</ele>
        <time>2012-01-22T09:11:41Z</time>
      </trkpt>
      <trkpt lat="49.20595" lon="6.99732">
        <ele>298</ele>
        <time>2012-01-22T09:11:42Z</time>
      </trkpt>
      <trkpt lat="49.20595" lon="6.99735">
        <ele>298</ele>
        <time>2012-01-22T09:11:43Z</time>
      </trkpt>
      <trkpt lat="49.20595" lon="6.99737">
        <ele>298</ele>
        <time>2012-01-22T09:11:44Z</time>
      </trkpt>
      <trkpt lat="49.20595" lon="6.99739">
        <ele>298</ele>
        <time>2012-01-22T09:11:45Z</time>
      </trkpt>
      <trkpt lat="49.20594" lon="6.99741">
        <ele>298</ele>
        <time>2012-01-22T09:11:46Z</time>
      </trkpt>
      <trkpt lat="49.20593" lon="6.99744">
        <ele>298</ele>
        <time>2012-01-22T09:11:47Z</time>
      </trkpt>
      <trkpt lat="49.20592" lon="6.99746">
        <ele>298</ele>
        <time>2012-01-22T09:11:48Z</time>
      </trkpt>
      <trkpt lat="49.20591" lon="6.99748">
        <ele>298</ele>
        <time>2012-01-22T09:11:50Z</time>
      </trkpt>
      <trkpt lat="49.20591" lon="6.9975">
        <ele>298</ele>
        <time>2012-01-22T09:11:51Z</time>
      </trkpt>
      <trkpt lat="49.2059" lon="6.99752">
        <ele>298</ele>
        <time>2012-01-22T09:11:52Z</time>
      </trkpt>
      <trkpt lat="49.20589" lon="6.99755">
        <ele>297</ele>
        <time>2012-01-22T09:11:54Z</time>
      </trkpt>
      <trkpt lat="49.20589" lon="6.99757">
        <ele>296</ele>
        <time>2012-01-22T09:11:55Z</time>
      </trkpt>
      <trkpt lat="49.20589" lon="6.99759">
        <ele>296</ele>
        <time>2012-01-22T09:11:56Z</time>
      </trkpt>
      <trkpt lat="49.20588" lon="6.99761">
        <ele>295</ele>
        <time>2012-01-22T09:11:57Z</time>
      </trkpt>
      <trkpt lat="49.20588" lon="6.99763">
        <ele>295</ele>
        <time>2012-01-22T09:11:58Z</time>
      </trkpt>
      <trkpt lat="49.20587" lon="6.99765">
        <ele>294</ele>
        <time>2012-01-22T09:11:59Z</time>
      </trkpt>
      <trkpt lat="49.20587" lon="6.99767">
        <ele>294</ele>
        <time>2012-01-22T09:12:00Z</time>
      </trkpt>
      <trkpt lat="49.20586" lon="6.99769">
        <ele>294</ele>
        <time>2012-01-22T09:12:01Z</time>
      </trkpt>
      <trkpt lat="49.20586" lon="6.99771">
        <ele>294</ele>
        <time>2012-01-22T09:12:02Z</time>
      </trkpt>
      <trkpt lat="49.20586" lon="6.99774">
        <ele>293</ele>
        <time>2012-01-22T09:12:03Z</time>
      </trkpt>
      <trkpt lat="49.20586" lon="6.99775">
        <ele>293</ele>
        <time>2012-01-22T09:12:04Z</time>
      </trkpt>
      <trkpt lat="49.20585" lon="6.99777">
        <ele>293</ele>
        <time>2012-01-22T09:12:05Z</time>
      </trkpt>
      <trkpt lat="49.20585" lon="6.9978">
        <ele>293</ele>
        <time>2012-01-22T09:12:06Z</time>
      </trkpt>
      <trkpt lat="49.20584" lon="6.99783">
        <ele>292</ele>
        <time>2012-01-22T09:12:07Z</time>
      </trkpt>
      <trkpt lat="49.20584" lon="6.99785">
        <ele>292</ele>
        <time>2012-01-22T09:12:08Z</time>
      </trkpt>
      <trkpt lat="49.20584" lon="6.99787">
        <ele>292</ele>
        <time>2012-01-22T09:12:09Z</time>
      </trkpt>
      <trkpt lat="49.20583" lon="6.99789">
        <ele>292</ele>
        <time>2012-01-22T09:12:10Z</time>
      </trkpt>
      <trkpt lat="49.20582" lon="6.99791">
        <ele>292</ele>
        <time>2012-01-22T09:12:11Z</time>
      </trkpt>
      <trkpt lat="49.20582" lon="6.99792">
        <ele>292</ele>
        <time>2012-01-22T09:12:12Z</time>
      </trkpt>
      <trkpt lat="49.20581" lon="6.99794">
        <ele>292</ele>
        <time>2012-01-22T09:12:13Z</time>
      </trkpt>
      <trkpt lat="49.20581" lon="6.99796">
        <ele>292</ele>
        <time>2012-01-22T09:12:14Z</time>
      </trkpt>
      <trkpt lat="49.20581" lon="6.99798">
        <ele>292</ele>
        <time>2012-01-22T09:12:15Z</time>
      </trkpt>
      <trkpt lat="49.20579" lon="6.99801">
        <ele>291</ele>
        <time>2012-01-22T09:12:17Z</time>
      </trkpt>
      <trkpt lat="49.20579" lon="6.99803">
        <ele>291</ele>
        <time>2012-01-22T09:12:18Z</time>
      </trkpt>
      <trkpt lat="49.20578" lon="6.99805">
        <ele>291</ele>
        <time>2012-01-22T09:12:19Z</time>
      </trkpt>
      <trkpt lat="49.20578" lon="6.99807">
        <ele>291</ele>
        <time>2012-01-22T09:12:20Z</time>
      </trkpt>
      <trkpt lat="49.20578" lon="6.9981">
        <ele>291</ele>
        <time>2012-01-22T09:12:21Z</time>
      </trkpt>
      <trkpt lat="49.20577" lon="6.99813">
        <ele>291</ele>
        <time>2012-01-22T09:12:22Z</time>
      </trkpt>
      <trkpt lat="49.20576" lon="6.99814">
        <ele>291</ele>
        <time>2012-01-22T09:12:23Z</time>
      </trkpt>
      <trkpt lat="49.20576" lon="6.99816">
        <ele>291</ele>
        <time>2012-01-22T09:12:24Z</time>
      </trkpt>
      <trkpt lat="49.20573" lon="6.99818">
        <ele>291</ele>
        <time>2012-01-22T09:12:26Z</time>
      </trkpt>
      <trkpt lat="49.20572" lon="6.9982">
        <ele>291</ele>
        <time>2012-01-22T09:12:27Z</time>
      </trkpt>
      <trkpt lat="49.20572" lon="6.99822">
        <ele>291</ele>
        <time>2012-01-22T09:12:28Z</time>
      </trkpt>
      <trkpt lat="49.20571" lon="6.99824">
        <ele>291</ele>
        <time>2012-01-22T09:12:29Z</time>
      </trkpt>
      <trkpt lat="49.2057" lon="6.99826">
        <ele>291</ele>
        <time>2012-01-22T09:12:30Z</time>
      </trkpt>
      <trkpt lat="49.20569" lon="6.99828">
        <ele>291</ele>
        <time>2012-01-22T09:12:31Z</time>
      </trkpt>
      <trkpt lat="49.20568" lon="6.99832">
        <ele>291</ele>
        <time>2012-01-22T09:12:33Z</time>
      </trkpt>
      <trkpt lat="49.20567" lon="6.99834">
        <ele>293</ele>
        <time>2012-01-22T09:12:35Z</time>
      </trkpt>
      <trkpt lat="49.20566" lon="6.99836">
        <ele>293</ele>
        <time>2012-01-22T09:12:36Z</time>
      </trkpt>
      <trkpt lat="49.20566" lon="6.99838">
        <ele>294</ele>
        <time>2012-01-22T09:12:37Z</time>
      </trkpt>
      <trkpt lat="49.20565" lon="6.99839">
        <ele>295</ele>
        <time>2012-01-22T09:12:38Z</time>
      </trkpt>
      <trkpt lat="49.20562" lon="6.9984">
        <ele>296</ele>
        <time>2012-01-22T09:12:39Z</time>
      </trkpt>
      <trkpt lat="49.20561" lon="6.99842">
        <ele>297</ele>
        <time>2012-01-22T09:12:40Z</time>
      </trkpt>
      <trkpt lat="49.20561" lon="6.99845">
        <ele>298</ele>
        <time>2012-01-22T09:12:41Z</time>
      </trkpt>
      <trkpt lat="49.20561" lon="6.99848">
        <ele>299</ele>
        <time>2012-01-22T09:12:42Z</time>
      </trkpt>
      <trkpt lat="49.20559" lon="6.99852">
        <ele>299</ele>
        <time>2012-01-22T09:12:44Z</time>
      </trkpt>
      <trkpt lat="49.20559" lon="6.99854">
        <ele>299</ele>
        <time>2012-01-22T09:12:46Z</time>
      </trkpt>
      <trkpt lat="49.20559" lon="6.99856">
        <ele>299</ele>
        <time>2012-01-22T09:12:47Z</time>
      </trkpt>
      <trkpt lat="49.20558" lon="6.99858">
        <ele>299</ele>
        <time>2012-01-22T09:12:48Z</time>
      </trkpt>
      <trkpt lat="49.20557" lon="6.99862">
        <ele>299</ele>
        <time>2012-01-22T09:12:50Z</time>
      </trkpt>
      <trkpt lat="49.20556" lon="6.99864">
        <ele>299</ele>
        <time>2012-01-22T09:12:51Z</time>
      </trkpt>
      <trkpt lat="49.20556" lon="6.99866">
        <ele>299</ele>
        <time>2012-01-22T09:12:52Z</time>
      </trkpt>
      <trkpt lat="49.20556" lon="6.99868">
        <ele>299</ele>
        <time>2012-01-22T09:12:53Z</time>
      </trkpt>
      <trkpt lat="49.20556" lon="6.99871">
        <ele>299</ele>
        <time>2012-01-22T09:12:54Z</time>
      </trkpt>
      <trkpt lat="49.20556" lon="6.99874">
        <ele>299</ele>
        <time>2012-01-22T09:12:55Z</time>
      </trkpt>
      <trkpt lat="49.20557" lon="6.99876">
        <ele>299</ele>
        <time>2012-01-22T09:12:56Z</time>
      </trkpt>
      <trkpt lat="49.20557" lon="6.99878">
        <ele>299</ele>
        <time>2012-01-22T09:12:57Z</time>
      </trkpt>
      <trkpt lat="49.20559" lon="6.99881">
        <ele>299</ele>
        <time>2012-01-22T09:12:59Z</time>
      </trkpt>
      <trkpt lat="49.20559" lon="6.99884">
        <ele>299</ele>
        <time>2012-01-22T09:13:01Z</time>
      </trkpt>
      <trkpt lat="49.2056" lon="6.99885">
        <ele>299</ele>
        <time>2012-01-22T09:13:02Z</time>
      </trkpt>
      <trkpt lat="49.2056" lon="6.99888">
        <ele>299</ele>
        <time>2012-01-22T09:13:03Z</time>
      </trkpt>
      <trkpt lat="49.2056" lon="6.9989">
        <ele>300</ele>
        <time>2012-01-22T09:13:04Z</time>
      </trkpt>
      <trkpt lat="49.2056" lon="6.99891">
        <ele>300</ele>
        <time>2012-01-22T09:13:05Z</time>
      </trkpt>
      <trkpt lat="49.20561" lon="6.99894">
        <ele>300</ele>
        <time>2012-01-22T09:13:06Z</time>
      </trkpt>
      <trkpt lat="49.20561" lon="6.99896">
        <ele>300</ele>
        <time>2012-01-22T09:13:07Z</time>
      </trkpt>
      <trkpt lat="49.20561" lon="6.99899">
        <ele>300</ele>
        <time>2012-01-22T09:13:08Z</time>
      </trkpt>
      <trkpt lat="49.20561" lon="6.99901">
        <ele>300</ele>
        <time>2012-01-22T09:13:09Z</time>
      </trkpt>
      <trkpt lat="49.2056" lon="6.99904">
        <ele>300</ele>
        <time>2012-01-22T09:13:10Z</time>
      </trkpt>
      <trkpt lat="49.2056" lon="6.99906">
        <ele>300</ele>
        <time>2012-01-22T09:13:11Z</time>
      </trkpt>
      <trkpt lat="49.2056" lon="6.99908">
        <ele>300</ele>
        <time>2012-01-22T09:13:12Z</time>
      </trkpt>
      <trkpt lat="49.20561" lon="6.9991">
        <ele>300</ele>
        <time>2012-01-22T09:13:13Z</time>
      </trkpt>
      <trkpt lat="49.20561" lon="6.99912">
        <ele>300</ele>
        <time>2012-01-22T09:13:14Z</time>
      </trkpt>
      <trkpt lat="49.20561" lon="6.99914">
        <ele>300</ele>
        <time>2012-01-22T09:13:15Z</time>
      </trkpt>
      <trkpt lat="49.20561" lon="6.99917">
        <ele>299</ele>
        <time>2012-01-22T09:13:17Z</time>
      </trkpt>
      <trkpt lat="49.20562" lon="6.9992">
        <ele>298</ele>
        <time>2012-01-22T09:13:18Z</time>
      </trkpt>
      <trkpt lat="49.20564" lon="6.99923">
        <ele>297</ele>
        <time>2012-01-22T09:13:20Z</time>
      </trkpt>
      <trkpt lat="49.20564" lon="6.99925">
        <ele>297</ele>
        <time>2012-01-22T09:13:21Z</time>
      </trkpt>
      <trkpt lat="49.20565" lon="6.99926">
        <ele>297</ele>
        <time>2012-01-22T09:13:22Z</time>
      </trkpt>
      <trkpt lat="49.20566" lon="6.99928">
        <ele>297</ele>
        <time>2012-01-22T09:13:23Z</time>
      </trkpt>
      <trkpt lat="49.20566" lon="6.9993">
        <ele>297</ele>
        <time>2012-01-22T09:13:24Z</time>
      </trkpt>
      <trkpt lat="49.20567" lon="6.99931">
        <ele>297</ele>
        <time>2012-01-22T09:13:25Z</time>
      </trkpt>
      <trkpt lat="49.20567" lon="6.99933">
        <ele>297</ele>
        <time>2012-01-22T09:13:26Z</time>
      </trkpt>
      <trkpt lat="49.20566" lon="6.99936">
        <ele>297</ele>
        <time>2012-01-22T09:13:27Z</time>
      </trkpt>
      <trkpt lat="49.20566" lon="6.99939">
        <ele>297</ele>
        <time>2012-01-22T09:13:29Z</time>
      </trkpt>
      <trkpt lat="49.20566" lon="6.99941">
        <ele>297</ele>
        <time>2012-01-22T09:13:30Z</time>
      </trkpt>
      <trkpt lat="49.20565" lon="6.99943">
        <ele>297</ele>
        <time>2012-01-22T09:13:31Z</time>
      </trkpt>
      <trkpt lat="49.20565" lon="6.99945">
        <ele>297</ele>
        <time>2012-01-22T09:13:32Z</time>
      </trkpt>
      <trkpt lat="49.20564" lon="6.99948">
        <ele>296</ele>
        <time>2012-01-22T09:13:33Z</time>
      </trkpt>
      <trkpt lat="49.20564" lon="6.9995">
        <ele>296</ele>
        <time>2012-01-22T09:13:34Z</time>
      </trkpt>
      <trkpt lat="49.20563" lon="6.99952">
        <ele>295</ele>
        <time>2012-01-22T09:13:35Z</time>
      </trkpt>
      <trkpt lat="49.20564" lon="6.99954">
        <ele>295</ele>
        <time>2012-01-22T09:13:36Z</time>
      </trkpt>
      <trkpt lat="49.20564" lon="6.99956">
        <ele>295</ele>
        <time>2012-01-22T09:13:37Z</time>
      </trkpt>
      <trkpt lat="49.20564" lon="6.99959">
        <ele>295</ele>
        <time>2012-01-22T09:13:38Z</time>
      </trkpt>
      <trkpt lat="49.20564" lon="6.99961">
        <ele>295</ele>
        <time>2012-01-22T09:13:39Z</time>
      </trkpt>
      <trkpt lat="49.20564" lon="6.99964">
        <ele>295</ele>
        <time>2012-01-22T09:13:40Z</time>
      </trkpt>
      <trkpt lat="49.20565" lon="6.99966">
        <ele>295</ele>
        <time>2012-01-22T09:13:41Z</time>
      </trkpt>
      <trkpt lat="49.20565" lon="6.99968">
        <ele>295</ele>
        <time>2012-01-22T09:13:42Z</time>
      </trkpt>
      <trkpt lat="49.20566" lon="6.99971">
        <ele>295</ele>
        <time>2012-01-22T09:13:43Z</time>
      </trkpt>
      <trkpt lat="49.20567" lon="6.99973">
        <ele>295</ele>
        <time>2012-01-22T09:13:44Z</time>
      </trkpt>
      <trkpt lat="49.20568" lon="6.99975">
        <ele>295</ele>
        <time>2012-01-22T09:13:45Z</time>
      </trkpt>
      <trkpt lat="49.2057" lon="6.99976">
        <ele>295</ele>
        <time>2012-01-22T09:13:46Z</time>
      </trkpt>
      <trkpt lat="49.20572" lon="6.99978">
        <ele>295</ele>
        <time>2012-01-22T09:13:47Z</time>
      </trkpt>
      <trkpt lat="49.20573" lon="6.99979">
        <ele>296</ele>
        <time>2012-01-22T09:13:48Z</time>
      </trkpt>
      <trkpt lat="49.20574" lon="6.99981">
        <ele>297</ele>
        <time>2012-01-22T09:13:49Z</time>
      </trkpt>
      <trkpt lat="49.20576" lon="6.99984">
        <ele>299</ele>
        <time>2012-01-22T09:13:51Z</time>
      </trkpt>
      <trkpt lat="49.20577" lon="6.99986">
        <ele>300</ele>
        <time>2012-01-22T09:13:52Z</time>
      </trkpt>
      <trkpt lat="49.20578" lon="6.99988">
        <ele>301</ele>
        <time>2012-01-22T09:13:53Z</time>
      </trkpt>
      <trkpt lat="49.20579" lon="6.9999">
        <ele>302</ele>
        <time>2012-01-22T09:13:55Z</time>
      </trkpt>
      <trkpt lat="49.20581" lon="6.99993">
        <ele>302</ele>
        <time>2012-01-22T09:13:58Z</time>
      </trkpt>
      <trkpt lat="49.20583" lon="6.99995">
        <ele>302</ele>
        <time>2012-01-22T09:14:00Z</time>
      </trkpt>
      <trkpt lat="49.20583" lon="6.99996">
        <ele>302</ele>
        <time>2012-01-22T09:14:01Z</time>
      </trkpt>
      <trkpt lat="49.20584" lon="6.99998">
        <ele>302</ele>
        <time>2012-01-22T09:14:02Z</time>
      </trkpt>
      <trkpt lat="49.20585" lon="7">
        <ele>302</ele>
        <time>2012-01-22T09:14:03Z</time>
      </trkpt>
      <trkpt lat="49.20585" lon="7.00002">
        <ele>302</ele>
        <time>2012-01-22T09:14:04Z</time>
      </trkpt>
      <trkpt lat="49.20586" lon="7.00003">
        <ele>302</ele>
        <time>2012-01-22T09:14:05Z</time>
      </trkpt>
      <trkpt lat="49.20588" lon="7.00006">
        <ele>302</ele>
        <time>2012-01-22T09:14:07Z</time>
      </trkpt>
      <trkpt lat="49.20589" lon="7.00009">
        <ele>302</ele>
        <time>2012-01-22T09:14:09Z</time>
      </trkpt>
      <trkpt lat="49.2059" lon="7.00011">
        <ele>302</ele>
        <time>2012-01-22T09:14:10Z</time>
      </trkpt>
      <trkpt lat="49.20591" lon="7.00013">
        <ele>302</ele>
        <time>2012-01-22T09:14:11Z</time>
      </trkpt>
      <trkpt lat="49.20592" lon="7.00016">
        <ele>302</ele>
        <time>2012-01-22T09:14:12Z</time>
      </trkpt>
      <trkpt lat="49.20593" lon="7.00018">
        <ele>302</ele>
        <time>2012-01-22T09:14:13Z</time>
      </trkpt>
      <trkpt lat="49.20594" lon="7.0002">
        <ele>302</ele>
        <time>2012-01-22T09:14:14Z</time>
      </trkpt>
      <trkpt lat="49.20595" lon="7.00023">
        <ele>302</ele>
        <time>2012-01-22T09:14:16Z</time>
      </trkpt>
      <trkpt lat="49.20596" lon="7.00025">
        <ele>302</ele>
        <time>2012-01-22T09:14:17Z</time>
      </trkpt>
      <trkpt lat="49.20597" lon="7.00026">
        <ele>302</ele>
        <time>2012-01-22T09:14:18Z</time>
      </trkpt>
      <trkpt lat="49.20599" lon="7.00029">
        <ele>302</ele>
        <time>2012-01-22T09:14:19Z</time>
      </trkpt>
      <trkpt lat="49.20599" lon="7.00031">
        <ele>302</ele>
        <time>2012-01-22T09:14:20Z</time>
      </trkpt>
      <trkpt lat="49.20599" lon="7.00033">
        <ele>302</ele>
        <time>2012-01-22T09:14:21Z</time>
      </trkpt>
      <trkpt lat="49.206" lon="7.00035">
        <ele>302</ele>
        <time>2012-01-22T09:14:22Z</time>
      </trkpt>
      <trkpt lat="49.20601" lon="7.00038">
        <ele>302</ele>
        <time>2012-01-22T09:14:23Z</time>
      </trkpt>
      <trkpt lat="49.20602" lon="7.00041">
        <ele>302</ele>
        <time>2012-01-22T09:14:24Z</time>
      </trkpt>
      <trkpt lat="49.20602" lon="7.00043">
        <ele>302</ele>
        <time>2012-01-22T09:14:25Z</time>
      </trkpt>
      <trkpt lat="49.20601" lon="7.00046">
        <ele>302</ele>
        <time>2012-01-22T09:14:26Z</time>
      </trkpt>
      <trkpt lat="49.206" lon="7.00048">
        <ele>302</ele>
        <time>2012-01-22T09:14:27Z</time>
      </trkpt>
      <trkpt lat="49.206" lon="7.0005">
        <ele>302</ele>
        <time>2012-01-22T09:14:28Z</time>
      </trkpt>
      <trkpt lat="49.206" lon="7.00052">
        <ele>302</ele>
        <time>2012-01-22T09:14:29Z</time>
      </trkpt>
      <trkpt lat="49.20601" lon="7.00055">
        <ele>302</ele>
        <time>2012-01-22T09:14:31Z</time>
      </trkpt>
      <trkpt lat="49.20599" lon="7.00056">
        <ele>302</ele>
        <time>2012-01-22T09:14:32Z</time>
      </trkpt>
      <trkpt lat="49.20598" lon="7.00058">
        <ele>302</ele>
        <time>2012-01-22T09:14:33Z</time>
      </trkpt>
      <trkpt lat="49.20598" lon="7.0006">
        <ele>302</ele>
        <time>2012-01-22T09:14:34Z</time>
      </trkpt>
      <trkpt lat="49.20597" lon="7.00064">
        <ele>301</ele>
        <time>2012-01-22T09:14:36Z</time>
      </trkpt>
      <trkpt lat="49.20597" lon="7.00066">
        <ele>300</ele>
        <time>2012-01-22T09:14:37Z</time>
      </trkpt>
      <trkpt lat="49.20597" lon="7.00069">
        <ele>300</ele>
        <time>2012-01-22T09:14:39Z</time>
      </trkpt>
      <trkpt lat="49.20597" lon="7.00071">
        <ele>300</ele>
        <time>2012-01-22T09:14:40Z</time>
      </trkpt>
      <trkpt lat="49.20596" lon="7.00074">
        <ele>300</ele>
        <time>2012-01-22T09:14:41Z</time>
      </trkpt>
      <trkpt lat="49.20596" lon="7.00075">
        <ele>300</ele>
        <time>2012-01-22T09:14:42Z</time>
      </trkpt>
      <trkpt lat="49.20595" lon="7.00077">
        <ele>300</ele>
        <time>2012-01-22T09:14:43Z</time>
      </trkpt>
      <trkpt lat="49.20594" lon="7.0008">
        <ele>300</ele>
        <time>2012-01-22T09:14:44Z</time>
      </trkpt>
      <trkpt lat="49.20594" lon="7.00082">
        <ele>300</ele>
        <time>2012-01-22T09:14:45Z</time>
      </trkpt>
      <trkpt lat="49.20593" lon="7.00084">
        <ele>300</ele>
        <time>2012-01-22T09:14:46Z</time>
      </trkpt>
      <trkpt lat="49.20593" lon="7.00085">
        <ele>300</ele>
        <time>2012-01-22T09:14:47Z</time>
      </trkpt>
      <trkpt lat="49.20593" lon="7.00087">
        <ele>300</ele>
        <time>2012-01-22T09:14:48Z</time>
      </trkpt>
      <trkpt lat="49.20593" lon="7.0009">
        <ele>300</ele>
        <time>2012-01-22T09:14:49Z</time>
      </trkpt>
      <trkpt lat="49.20592" lon="7.00092">
        <ele>302</ele>
        <time>2012-01-22T09:14:51Z</time>
      </trkpt>
      <trkpt lat="49.20592" lon="7.00094">
        <ele>302</ele>
        <time>2012-01-22T09:14:52Z</time>
      </trkpt>
      <trkpt lat="49.20592" lon="7.00096">
        <ele>302</ele>
        <time>2012-01-22T09:14:53Z</time>
      </trkpt>
      <trkpt lat="49.20591" lon="7.00099">
        <ele>302</ele>
        <time>2012-01-22T09:14:55Z</time>
      </trkpt>
      <trkpt lat="49.20591" lon="7.00101">
        <ele>302</ele>
        <time>2012-01-22T09:14:56Z</time>
      </trkpt>
      <trkpt lat="49.2059" lon="7.00104">
        <ele>302</ele>
        <time>2012-01-22T09:14:57Z</time>
      </trkpt>
      <trkpt lat="49.2059" lon="7.00106">
        <ele>302</ele>
        <time>2012-01-22T09:14:58Z</time>
      </trkpt>
      <trkpt lat="49.2059" lon="7.00108">
        <ele>302</ele>
        <time>2012-01-22T09:14:59Z</time>
      </trkpt>
      <trkpt lat="49.20589" lon="7.0011">
        <ele>302</ele>
        <time>2012-01-22T09:15:00Z</time>
      </trkpt>
      <trkpt lat="49.20588" lon="7.00112">
        <ele>302</ele>
        <time>2012-01-22T09:15:01Z</time>
      </trkpt>
      <trkpt lat="49.20588" lon="7.00115">
        <ele>302</ele>
        <time>2012-01-22T09:15:03Z</time>
      </trkpt>
      <trkpt lat="49.20587" lon="7.00117">
        <ele>302</ele>
        <time>2012-01-22T09:15:04Z</time>
      </trkpt>
      <trkpt lat="49.20587" lon="7.0012">
        <ele>302</ele>
        <time>2012-01-22T09:15:05Z</time>
      </trkpt>
      <trkpt lat="49.20588" lon="7.00122">
        <ele>302</ele>
        <time>2012-01-22T09:15:06Z</time>
      </trkpt>
      <trkpt lat="49.20588" lon="7.00126">
        <ele>302</ele>
        <time>2012-01-22T09:15:07Z</time>
      </trkpt>
      <trkpt lat="49.20588" lon="7.00128">
        <ele>302</ele>
        <time>2012-01-22T09:15:08Z</time>
      </trkpt>
      <trkpt lat="49.20588" lon="7.00132">
        <ele>302</ele>
        <time>2012-01-22T09:15:09Z</time>
      </trkpt>
      <trkpt lat="49.20589" lon="7.00134">
        <ele>302</ele>
        <time>2012-01-22T09:15:10Z</time>
      </trkpt>
      <trkpt lat="49.20589" lon="7.00136">
        <ele>302</ele>
        <time>2012-01-22T09:15:11Z</time>
      </trkpt>
      <trkpt lat="49.20589" lon="7.00138">
        <ele>302</ele>
        <time>2012-01-22T09:15:12Z</time>
      </trkpt>
      <trkpt lat="49.20589" lon="7.0014">
        <ele>302</ele>
        <time>2012-01-22T09:15:13Z</time>
      </trkpt>
      <trkpt lat="49.20589" lon="7.00142">
        <ele>303</ele>
        <time>2012-01-22T09:15:14Z</time>
      </trkpt>
      <trkpt lat="49.2059" lon="7.00144">
        <ele>303</ele>
        <time>2012-01-22T09:15:15Z</time>
      </trkpt>
      <trkpt lat="49.20591" lon="7.00146">
        <ele>303</ele>
        <time>2012-01-22T09:15:16Z</time>
      </trkpt>
      <trkpt lat="49.20591" lon="7.00148">
        <ele>303</ele>
        <time>2012-01-22T09:15:17Z</time>
      </trkpt>
      <trkpt lat="49.20591" lon="7.0015">
        <ele>303</ele>
        <time>2012-01-22T09:15:18Z</time>
      </trkpt>
      <trkpt lat="49.20591" lon="7.00153">
        <ele>303</ele>
        <time>2012-01-22T09:15:19Z</time>
      </trkpt>
      <trkpt lat="49.20591" lon="7.00155">
        <ele>303</ele>
        <time>2012-01-22T09:15:20Z</time>
      </trkpt>
      <trkpt lat="49.20591" lon="7.00158">
        <ele>303</ele>
        <time>2012-01-22T09:15:21Z</time>
      </trkpt>
      <trkpt lat="49.20591" lon="7.0016">
        <ele>303</ele>
        <time>2012-01-22T09:15:22Z</time>
      </trkpt>
      <trkpt lat="49.20592" lon="7.00162">
        <ele>303</ele>
        <time>2012-01-22T09:15:23Z</time>
      </trkpt>
      <trkpt lat="49.20592" lon="7.00165">
        <ele>303</ele>
        <time>2012-01-22T09:15:24Z</time>
      </trkpt>
      <trkpt lat="49.20592" lon="7.00167">
        <ele>303</ele>
        <time>2012-01-22T09:15:25Z</time>
      </trkpt>
      <trkpt lat="49.20593" lon="7.00169">
        <ele>303</ele>
        <time>2012-01-22T09:15:26Z</time>
      </trkpt>
      <trkpt lat="49.20593" lon="7.00172">
        <ele>303</ele>
        <time>2012-01-22T09:15:27Z</time>
      </trkpt>
      <trkpt lat="49.20595" lon="7.00173">
        <ele>303</ele>
        <time>2012-01-22T09:15:28Z</time>
      </trkpt>
      <trkpt lat="49.20596" lon="7.00175">
        <ele>303</ele>
        <time>2012-01-22T09:15:29Z</time>
      </trkpt>
      <trkpt lat="49.20596" lon="7.00177">
        <ele>303</ele>
        <time>2012-01-22T09:15:30Z</time>
      </trkpt>
      <trkpt lat="49.20597" lon="7.00179">
        <ele>303</ele>
        <time>2012-01-22T09:15:31Z</time>
      </trkpt>
      <trkpt lat="49.20598" lon="7.0018">
        <ele>303</ele>
        <time>2012-01-22T09:15:32Z</time>
      </trkpt>
      <trkpt lat="49.20598" lon="7.00184">
        <ele>303</ele>
        <time>2012-01-22T09:15:34Z</time>
      </trkpt>
      <trkpt lat="49.206" lon="7.00186">
        <ele>303</ele>
        <time>2012-01-22T09:15:36Z</time>
      </trkpt>
      <trkpt lat="49.20603" lon="7.00188">
        <ele>303</ele>
        <time>2012-01-22T09:15:38Z</time>
      </trkpt>
      <trkpt lat="49.20604" lon="7.00189">
        <ele>303</ele>
        <time>2012-01-22T09:15:39Z</time>
      </trkpt>
      <trkpt lat="49.20605" lon="7.00191">
        <ele>303</ele>
        <time>2012-01-22T09:15:40Z</time>
      </trkpt>
      <trkpt lat="49.20606" lon="7.00192">
        <ele>303</ele>
        <time>2012-01-22T09:15:41Z</time>
      </trkpt>
      <trkpt lat="49.20607" lon="7.00195">
        <ele>303</ele>
        <time>2012-01-22T09:15:42Z</time>
      </trkpt>
      <trkpt lat="49.20607" lon="7.00197">
        <ele>303</ele>
        <time>2012-01-22T09:15:43Z</time>
      </trkpt>
      <trkpt lat="49.2061" lon="7.00199">
        <ele>303</ele>
        <time>2012-01-22T09:15:45Z</time>
      </trkpt>
      <trkpt lat="49.2061" lon="7.00201">
        <ele>303</ele>
        <time>2012-01-22T09:15:46Z</time>
      </trkpt>
      <trkpt lat="49.20612" lon="7.00204">
        <ele>303</ele>
        <time>2012-01-22T09:15:48Z</time>
      </trkpt>
      <trkpt lat="49.20613" lon="7.00207">
        <ele>303</ele>
        <time>2012-01-22T09:15:50Z</time>
      </trkpt>
      <trkpt lat="49.20614" lon="7.00207">
        <ele>303</ele>
        <time>2012-01-22T09:15:51Z</time>
      </trkpt>
      <trkpt lat="49.20616" lon="7.00209">
        <ele>303</ele>
        <time>2012-01-22T09:15:52Z</time>
      </trkpt>
      <trkpt lat="49.20618" lon="7.00211">
        <ele>303</ele>
        <time>2012-01-22T09:15:53Z</time>
      </trkpt>
      <trkpt lat="49.2062" lon="7.00212">
        <ele>303</ele>
        <time>2012-01-22T09:15:54Z</time>
      </trkpt>
      <trkpt lat="49.20621" lon="7.00213">
        <ele>303</ele>
        <time>2012-01-22T09:15:55Z</time>
      </trkpt>
      <trkpt lat="49.20623" lon="7.00214">
        <ele>304</ele>
        <time>2012-01-22T09:15:57Z</time>
      </trkpt>
      <trkpt lat="49.20624" lon="7.00214">
        <ele>305</ele>
        <time>2012-01-22T09:15:58Z</time>
      </trkpt>
      <trkpt lat="49.20625" lon="7.00214">
        <ele>305</ele>
        <time>2012-01-22T09:15:59Z</time>
      </trkpt>
      <trkpt lat="49.20626" lon="7.00215">
        <ele>306</ele>
        <time>2012-01-22T09:16:00Z</time>
      </trkpt>
      <trkpt lat="49.20628" lon="7.00216">
        <ele>307</ele>
        <time>2012-01-22T09:16:02Z</time>
      </trkpt>
      <trkpt lat="49.20629" lon="7.00219">
        <ele>307</ele>
        <time>2012-01-22T09:16:04Z</time>
      </trkpt>
      <trkpt lat="49.20631" lon="7.0022">
        <ele>307</ele>
        <time>2012-01-22T09:16:05Z</time>
      </trkpt>
      <trkpt lat="49.20632" lon="7.00221">
        <ele>307</ele>
        <time>2012-01-22T09:16:06Z</time>
      </trkpt>
      <trkpt lat="49.20633" lon="7.00223">
        <ele>307</ele>
        <time>2012-01-22T09:16:08Z</time>
      </trkpt>
      <trkpt lat="49.20634" lon="7.00225">
        <ele>307</ele>
        <time>2012-01-22T09:16:10Z</time>
      </trkpt>
      <trkpt lat="49.20636" lon="7.00226">
        <ele>307</ele>
        <time>2012-01-22T09:16:11Z</time>
      </trkpt>
      <trkpt lat="49.20637" lon="7.00227">
        <ele>307</ele>
        <time>2012-01-22T09:16:12Z</time>
      </trkpt>
      <trkpt lat="49.20639" lon="7.00229">
        <ele>307</ele>
        <time>2012-01-22T09:16:13Z</time>
      </trkpt>
      <trkpt lat="49.2064" lon="7.0023">
        <ele>307</ele>
        <time>2012-01-22T09:16:14Z</time>
      </trkpt>
      <trkpt lat="49.20642" lon="7.00232">
        <ele>307</ele>
        <time>2012-01-22T09:16:16Z</time>
      </trkpt>
      <trkpt lat="49.20645" lon="7.00233">
        <ele>307</ele>
        <time>2012-01-22T09:16:18Z</time>
      </trkpt>
      <trkpt lat="49.20646" lon="7.00234">
        <ele>307</ele>
        <time>2012-01-22T09:16:19Z</time>
      </trkpt>
      <trkpt lat="49.20648" lon="7.00235">
        <ele>307</ele>
        <time>2012-01-22T09:16:21Z</time>
      </trkpt>
      <trkpt lat="49.2065" lon="7.00236">
        <ele>307</ele>
        <time>2012-01-22T09:16:23Z</time>
      </trkpt>
      <trkpt lat="49.20651" lon="7.00238">
        <ele>307</ele>
        <time>2012-01-22T09:16:25Z</time>
      </trkpt>
      <trkpt lat="49.20653" lon="7.00239">
        <ele>307</ele>
        <time>2012-01-22T09:16:26Z</time>
      </trkpt>
      <trkpt lat="49.20653" lon="7.00241">
        <ele>307</ele>
        <time>2012-01-22T09:16:28Z</time>
      </trkpt>
      <trkpt lat="49.20654" lon="7.00243">
        <ele>307</ele>
        <time>2012-01-22T09:16:30Z</time>
      </trkpt>
      <trkpt lat="49.20655" lon="7.00246">
        <ele>307</ele>
        <time>2012-01-22T09:16:33Z</time>
      </trkpt>
      <trkpt lat="49.20657" lon="7.00248">
        <ele>305</ele>
        <time>2012-01-22T09:16:35Z</time>
      </trkpt>
      <trkpt lat="49.20658" lon="7.00249">
        <ele>304</ele>
        <time>2012-01-22T09:16:36Z</time>
      </trkpt>
      <trkpt lat="49.2066" lon="7.0025">
        <ele>303</ele>
        <time>2012-01-22T09:16:37Z</time>
      </trkpt>
      <trkpt lat="49.20662" lon="7.00253">
        <ele>302</ele>
        <time>2012-01-22T09:16:39Z</time>
      </trkpt>
      <trkpt lat="49.20663" lon="7.00254">
        <ele>302</ele>
        <time>2012-01-22T09:16:40Z</time>
      </trkpt>
      <trkpt lat="49.20665" lon="7.00257">
        <ele>301</ele>
        <time>2012-01-22T09:16:42Z</time>
      </trkpt>
      <trkpt lat="49.20666" lon="7.00258">
        <ele>301</ele>
        <time>2012-01-22T09:16:43Z</time>
      </trkpt>
      <trkpt lat="49.20668" lon="7.00259">
        <ele>300</ele>
        <time>2012-01-22T09:16:45Z</time>
      </trkpt>
      <trkpt lat="49.2067" lon="7.00259">
        <ele>300</ele>
        <time>2012-01-22T09:16:47Z</time>
      </trkpt>
      <trkpt lat="49.20672" lon="7.0026">
        <ele>300</ele>
        <time>2012-01-22T09:16:49Z</time>
      </trkpt>
      <trkpt lat="49.20673" lon="7.0026">
        <ele>300</ele>
        <time>2012-01-22T09:16:51Z</time>
      </trkpt>
      <trkpt lat="49.20676" lon="7.0026">
        <ele>300</ele>
        <time>2012-01-22T09:16:53Z</time>
      </trkpt>
      <trkpt lat="49.20677" lon="7.0026">
        <ele>300</ele>
        <time>2012-01-22T09:16:54Z</time>
      </trkpt>
      <trkpt lat="49.20678" lon="7.0026">
        <ele>300</ele>
        <time>2012-01-22T09:16:55Z</time>
      </trkpt>
      <trkpt lat="49.20679" lon="7.0026">
        <ele>300</ele>
        <time>2012-01-22T09:16:56Z</time>
      </trkpt>
      <trkpt lat="49.20682" lon="7.00258">
        <ele>300</ele>
        <time>2012-01-22T09:16:59Z</time>
      </trkpt>
      <trkpt lat="49.20683" lon="7.00259">
        <ele>300</ele>
        <time>2012-01-22T09:17:00Z</time>
      </trkpt>
      <trkpt lat="49.20684" lon="7.00259">
        <ele>300</ele>
        <time>2012-01-22T09:17:01Z</time>
      </trkpt>
      <trkpt lat="49.20686" lon="7.00259">
        <ele>300</ele>
        <time>2012-01-22T09:17:02Z</time>
      </trkpt>
      <trkpt lat="49.20687" lon="7.00259">
        <ele>300</ele>
        <time>2012-01-22T09:17:03Z</time>
      </trkpt>
      <trkpt lat="49.20688" lon="7.00258">
        <ele>300</ele>
        <time>2012-01-22T09:17:04Z</time>
      </trkpt>
      <trkpt lat="49.20689" lon="7.00258">
        <ele>300</ele>
        <time>2012-01-22T09:17:05Z</time>
      </trkpt>
      <trkpt lat="49.20691" lon="7.00257">
        <ele>300</ele>
        <time>2012-01-22T09:17:06Z</time>
      </trkpt>
      <trkpt lat="49.20692" lon="7.00256">
        <ele>300</ele>
        <time>2012-01-22T09:17:07Z</time>
      </trkpt>
      <trkpt lat="49.20693" lon="7.00256">
        <ele>300</ele>
        <time>2012-01-22T09:17:08Z</time>
      </trkpt>
      <trkpt lat="49.20695" lon="7.00254">
        <ele>299</ele>
        <time>2012-01-22T09:17:10Z</time>
      </trkpt>
      <trkpt lat="49.20697" lon="7.00253">
        <ele>299</ele>
        <time>2012-01-22T09:17:12Z</time>
      </trkpt>
      <trkpt lat="49.20698" lon="7.00251">
        <ele>299</ele>
        <time>2012-01-22T09:17:14Z</time>
      </trkpt>
      <trkpt lat="49.207" lon="7.0025">
        <ele>299</ele>
        <time>2012-01-22T09:17:15Z</time>
      </trkpt>
      <trkpt lat="49.20702" lon="7.0025">
        <ele>299</ele>
        <time>2012-01-22T09:17:16Z</time>
      </trkpt>
      <trkpt lat="49.20703" lon="7.00248">
        <ele>299</ele>
        <time>2012-01-22T09:17:18Z</time>
      </trkpt>
      <trkpt lat="49.20705" lon="7.00246">
        <ele>299</ele>
        <time>2012-01-22T09:17:20Z</time>
      </trkpt>
      <trkpt lat="49.20705" lon="7.00244">
        <ele>299</ele>
        <time>2012-01-22T09:17:21Z</time>
      </trkpt>
      <trkpt lat="49.20707" lon="7.00243">
        <ele>299</ele>
        <time>2012-01-22T09:17:22Z</time>
      </trkpt>
      <trkpt lat="49.20708" lon="7.00242">
        <ele>299</ele>
        <time>2012-01-22T09:17:23Z</time>
      </trkpt>
      <trkpt lat="49.2071" lon="7.0024">
        <ele>299</ele>
        <time>2012-01-22T09:17:24Z</time>
      </trkpt>
      <trkpt lat="49.20711" lon="7.00239">
        <ele>299</ele>
        <time>2012-01-22T09:17:25Z</time>
      </trkpt>
      <trkpt lat="49.20713" lon="7.00239">
        <ele>299</ele>
        <time>2012-01-22T09:17:26Z</time>
      </trkpt>
      <trkpt lat="49.20715" lon="7.00237">
        <ele>299</ele>
        <time>2012-01-22T09:17:27Z</time>
      </trkpt>
      <trkpt lat="49.20716" lon="7.00235">
        <ele>299</ele>
        <time>2012-01-22T09:17:28Z</time>
      </trkpt>
      <trkpt lat="49.20718" lon="7.00235">
        <ele>300</ele>
        <time>2012-01-22T09:17:29Z</time>
      </trkpt>
      <trkpt lat="49.20719" lon="7.00234">
        <ele>300</ele>
        <time>2012-01-22T09:17:30Z</time>
      </trkpt>
      <trkpt lat="49.20722" lon="7.00232">
        <ele>301</ele>
        <time>2012-01-22T09:17:32Z</time>
      </trkpt>
      <trkpt lat="49.20723" lon="7.00231">
        <ele>301</ele>
        <time>2012-01-22T09:17:33Z</time>
      </trkpt>
      <trkpt lat="49.20725" lon="7.00228">
        <ele>301</ele>
        <time>2012-01-22T09:17:35Z</time>
      </trkpt>
      <trkpt lat="49.20727" lon="7.00226">
        <ele>302</ele>
        <time>2012-01-22T09:17:37Z</time>
      </trkpt>
      <trkpt lat="49.20729" lon="7.00224">
        <ele>302</ele>
        <time>2012-01-22T09:17:39Z</time>
      </trkpt>
      <trkpt lat="49.20729" lon="7.00222">
        <ele>302</ele>
        <time>2012-01-22T09:17:40Z</time>
      </trkpt>
      <trkpt lat="49.20731" lon="7.00219">
        <ele>302</ele>
        <time>2012-01-22T09:17:42Z</time>
      </trkpt>
      <trkpt lat="49.20733" lon="7.00218">
        <ele>302</ele>
        <time>2012-01-22T09:17:43Z</time>
      </trkpt>
      <trkpt lat="49.20734" lon="7.00217">
        <ele>302</ele>
        <time>2012-01-22T09:17:44Z</time>
      </trkpt>
      <trkpt lat="49.20735" lon="7.00216">
        <ele>302</ele>
        <time>2012-01-22T09:17:45Z</time>
      </trkpt>
      <trkpt lat="49.20736" lon="7.00215">
        <ele>302</ele>
        <time>2012-01-22T09:17:46Z</time>
      </trkpt>
      <trkpt lat="49.20738" lon="7.00214">
        <ele>302</ele>
        <time>2012-01-22T09:17:47Z</time>
      </trkpt>
      <trkpt lat="49.20739" lon="7.00212">
        <ele>302</ele>
        <time>2012-01-22T09:17:48Z</time>
      </trkpt>
      <trkpt lat="49.2074" lon="7.0021">
        <ele>302</ele>
        <time>2012-01-22T09:17:49Z</time>
      </trkpt>
      <trkpt lat="49.20741" lon="7.00209">
        <ele>302</ele>
        <time>2012-01-22T09:17:50Z</time>
      </trkpt>
      <trkpt lat="49.20742" lon="7.00208">
        <ele>302</ele>
        <time>2012-01-22T09:17:51Z</time>
      </trkpt>
      <trkpt lat="49.20743" lon="7.00206">
        <ele>302</ele>
        <time>2012-01-22T09:17:52Z</time>
      </trkpt>
      <trkpt lat="49.20744" lon="7.00205">
        <ele>302</ele>
        <time>2012-01-22T09:17:53Z</time>
      </trkpt>
      <trkpt lat="49.20747" lon="7.00202">
        <ele>302</ele>
        <time>2012-01-22T09:17:55Z</time>
      </trkpt>
      <trkpt lat="49.20748" lon="7.00202">
        <ele>302</ele>
        <time>2012-01-22T09:17:56Z</time>
      </trkpt>
      <trkpt lat="49.20749" lon="7.002">
        <ele>302</ele>
        <time>2012-01-22T09:17:58Z</time>
      </trkpt>
      <trkpt lat="49.20751" lon="7.00199">
        <ele>302</ele>
        <time>2012-01-22T09:17:59Z</time>
      </trkpt>
      <trkpt lat="49.20752" lon="7.00198">
        <ele>302</ele>
        <time>2012-01-22T09:18:00Z</time>
      </trkpt>
      <trkpt lat="49.20754" lon="7.00197">
        <ele>302</ele>
        <time>2012-01-22T09:18:01Z</time>
      </trkpt>
      <trkpt lat="49.20755" lon="7.00196">
        <ele>302</ele>
        <time>2012-01-22T09:18:02Z</time>
      </trkpt>
      <trkpt lat="49.20757" lon="7.00195">
        <ele>302</ele>
        <time>2012-01-22T09:18:03Z</time>
      </trkpt>
      <trkpt lat="49.20758" lon="7.00195">
        <ele>301</ele>
        <time>2012-01-22T09:18:04Z</time>
      </trkpt>
      <trkpt lat="49.2076" lon="7.00194">
        <ele>301</ele>
        <time>2012-01-22T09:18:05Z</time>
      </trkpt>
      <trkpt lat="49.20761" lon="7.00193">
        <ele>300</ele>
        <time>2012-01-22T09:18:06Z</time>
      </trkpt>
      <trkpt lat="49.20762" lon="7.00192">
        <ele>299</ele>
        <time>2012-01-22T09:18:07Z</time>
      </trkpt>
      <trkpt lat="49.20764" lon="7.0019">
        <ele>298</ele>
        <time>2012-01-22T09:18:09Z</time>
      </trkpt>
      <trkpt lat="49.20766" lon="7.00187">
        <ele>297</ele>
        <time>2012-01-22T09:18:11Z</time>
      </trkpt>
      <trkpt lat="49.20768" lon="7.00186">
        <ele>297</ele>
        <time>2012-01-22T09:18:13Z</time>
      </trkpt>
      <trkpt lat="49.20769" lon="7.00185">
        <ele>296</ele>
        <time>2012-01-22T09:18:14Z</time>
      </trkpt>
      <trkpt lat="49.20771" lon="7.00184">
        <ele>296</ele>
        <time>2012-01-22T09:18:16Z</time>
      </trkpt>
      <trkpt lat="49.20772" lon="7.00183">
        <ele>296</ele>
        <time>2012-01-22T09:18:17Z</time>
      </trkpt>
      <trkpt lat="49.20774" lon="7.00181">
        <ele>295</ele>
        <time>2012-01-22T09:18:18Z</time>
      </trkpt>
      <trkpt lat="49.20775" lon="7.0018">
        <ele>295</ele>
        <time>2012-01-22T09:18:19Z</time>
      </trkpt>
      <trkpt lat="49.20776" lon="7.00178">
        <ele>295</ele>
        <time>2012-01-22T09:18:20Z</time>
      </trkpt>
      <trkpt lat="49.20778" lon="7.00176">
        <ele>295</ele>
        <time>2012-01-22T09:18:21Z</time>
      </trkpt>
      <trkpt lat="49.20779" lon="7.00174">
        <ele>294</ele>
        <time>2012-01-22T09:18:23Z</time>
      </trkpt>
      <trkpt lat="49.20782" lon="7.00171">
        <ele>293</ele>
        <time>2012-01-22T09:18:25Z</time>
      </trkpt>
      <trkpt lat="49.20783" lon="7.0017">
        <ele>292</ele>
        <time>2012-01-22T09:18:26Z</time>
      </trkpt>
      <trkpt lat="49.20785" lon="7.00168">
        <ele>291</ele>
        <time>2012-01-22T09:18:28Z</time>
      </trkpt>
      <trkpt lat="49.20786" lon="7.00167">
        <ele>291</ele>
        <time>2012-01-22T09:18:29Z</time>
      </trkpt>
      <trkpt lat="49.20787" lon="7.00165">
        <ele>291</ele>
        <time>2012-01-22T09:18:30Z</time>
      </trkpt>
      <trkpt lat="49.20789" lon="7.00162">
        <ele>291</ele>
        <time>2012-01-22T09:18:32Z</time>
      </trkpt>
      <trkpt lat="49.20791" lon="7.0016">
        <ele>291</ele>
        <time>2012-01-22T09:18:33Z</time>
      </trkpt>
      <trkpt lat="49.20791" lon="7.00158">
        <ele>291</ele>
        <time>2012-01-22T09:18:34Z</time>
      </trkpt>
      <trkpt lat="49.20792" lon="7.00156">
        <ele>291</ele>
        <time>2012-01-22T09:18:35Z</time>
      </trkpt>
      <trkpt lat="49.20794" lon="7.00153">
        <ele>291</ele>
        <time>2012-01-22T09:18:37Z</time>
      </trkpt>
      <trkpt lat="49.20797" lon="7.00151">
        <ele>291</ele>
        <time>2012-01-22T09:18:39Z</time>
      </trkpt>
      <trkpt lat="49.20798" lon="7.0015">
        <ele>291</ele>
        <time>2012-01-22T09:18:40Z</time>
      </trkpt>
      <trkpt lat="49.208" lon="7.00149">
        <ele>291</ele>
        <time>2012-01-22T09:18:41Z</time>
      </trkpt>
      <trkpt lat="49.20801" lon="7.00148">
        <ele>291</ele>
        <time>2012-01-22T09:18:42Z</time>
      </trkpt>
      <trkpt lat="49.20802" lon="7.00147">
        <ele>291</ele>
        <time>2012-01-22T09:18:43Z</time>
      </trkpt>
      <trkpt lat="49.20804" lon="7.00146">
        <ele>291</ele>
        <time>2012-01-22T09:18:44Z</time>
      </trkpt>
      <trkpt lat="49.20805" lon="7.00145">
        <ele>291</ele>
        <time>2012-01-22T09:18:45Z</time>
      </trkpt>
      <trkpt lat="49.20806" lon="7.00145">
        <ele>291</ele>
        <time>2012-01-22T09:18:46Z</time>
      </trkpt>
      <trkpt lat="49.20808" lon="7.00143">
        <ele>291</ele>
        <time>2012-01-22T09:18:48Z</time>
      </trkpt>
      <trkpt lat="49.2081" lon="7.00141">
        <ele>291</ele>
        <time>2012-01-22T09:18:50Z</time>
      </trkpt>
      <trkpt lat="49.20812" lon="7.00139">
        <ele>291</ele>
        <time>2012-01-22T09:18:52Z</time>
      </trkpt>
      <trkpt lat="49.20813" lon="7.00138">
        <ele>291</ele>
        <time>2012-01-22T09:18:53Z</time>
      </trkpt>
      <trkpt lat="49.20814" lon="7.00137">
        <ele>291</ele>
        <time>2012-01-22T09:18:54Z</time>
      </trkpt>
      <trkpt lat="49.20816" lon="7.00137">
        <ele>291</ele>
        <time>2012-01-22T09:18:55Z</time>
      </trkpt>
      <trkpt lat="49.20817" lon="7.00136">
        <ele>291</ele>
        <time>2012-01-22T09:18:56Z</time>
      </trkpt>
      <trkpt lat="49.20818" lon="7.00135">
        <ele>291</ele>
        <time>2012-01-22T09:18:57Z</time>
      </trkpt>
      <trkpt lat="49.20819" lon="7.00135">
        <ele>291</ele>
        <time>2012-01-22T09:18:58Z</time>
      </trkpt>
      <trkpt lat="49.20821" lon="7.00134">
        <ele>291</ele>
        <time>2012-01-22T09:18:59Z</time>
      </trkpt>
      <trkpt lat="49.20823" lon="7.00133">
        <ele>291</ele>
        <time>2012-01-22T09:19:00Z</time>
      </trkpt>
      <trkpt lat="49.20824" lon="7.00132">
        <ele>291</ele>
        <time>2012-01-22T09:19:01Z</time>
      </trkpt>
      <trkpt lat="49.20826" lon="7.00131">
        <ele>291</ele>
        <time>2012-01-22T09:19:02Z</time>
      </trkpt>
      <trkpt lat="49.20827" lon="7.0013">
        <ele>291</ele>
        <time>2012-01-22T09:19:04Z</time>
      </trkpt>
      <trkpt lat="49.20829" lon="7.00129">
        <ele>291</ele>
        <time>2012-01-22T09:19:06Z</time>
      </trkpt>
      <trkpt lat="49.2083" lon="7.00129">
        <ele>291</ele>
        <time>2012-01-22T09:19:07Z</time>
      </trkpt>
      <trkpt lat="49.20832" lon="7.0013">
        <ele>291</ele>
        <time>2012-01-22T09:19:08Z</time>
      </trkpt>
      <trkpt lat="49.20833" lon="7.0013">
        <ele>291</ele>
        <time>2012-01-22T09:19:09Z</time>
      </trkpt>
      <trkpt lat="49.20835" lon="7.00131">
        <ele>291</ele>
        <time>2012-01-22T09:19:11Z</time>
      </trkpt>
      <trkpt lat="49.20837" lon="7.00131">
        <ele>291</ele>
        <time>2012-01-22T09:19:13Z</time>
      </trkpt>
      <trkpt lat="49.20838" lon="7.00131">
        <ele>291</ele>
        <time>2012-01-22T09:19:14Z</time>
      </trkpt>
      <trkpt lat="49.20841" lon="7.00132">
        <ele>291</ele>
        <time>2012-01-22T09:19:16Z</time>
      </trkpt>
      <trkpt lat="49.20843" lon="7.00132">
        <ele>291</ele>
        <time>2012-01-22T09:19:17Z</time>
      </trkpt>
      <trkpt lat="49.20844" lon="7.00133">
        <ele>291</ele>
        <time>2012-01-22T09:19:18Z</time>
      </trkpt>
      <trkpt lat="49.20845" lon="7.00134">
        <ele>291</ele>
        <time>2012-01-22T09:19:19Z</time>
      </trkpt>
      <trkpt lat="49.20848" lon="7.00134">
        <ele>291</ele>
        <time>2012-01-22T09:19:20Z</time>
      </trkpt>
      <trkpt lat="49.20849" lon="7.00134">
        <ele>291</ele>
        <time>2012-01-22T09:19:21Z</time>
      </trkpt>
      <trkpt lat="49.20851" lon="7.00135">
        <ele>291</ele>
        <time>2012-01-22T09:19:22Z</time>
      </trkpt>
      <trkpt lat="49.20853" lon="7.00135">
        <ele>291</ele>
        <time>2012-01-22T09:19:23Z</time>
      </trkpt>
      <trkpt lat="49.20855" lon="7.00135">
        <ele>291</ele>
        <time>2012-01-22T09:19:24Z</time>
      </trkpt>
      <trkpt lat="49.20856" lon="7.00136">
        <ele>291</ele>
        <time>2012-01-22T09:19:25Z</time>
      </trkpt>
      <trkpt lat="49.20858" lon="7.00136">
        <ele>292</ele>
        <time>2012-01-22T09:19:27Z</time>
      </trkpt>
      <trkpt lat="49.2086" lon="7.00137">
        <ele>292</ele>
        <time>2012-01-22T09:19:28Z</time>
      </trkpt>
      <trkpt lat="49.20861" lon="7.00137">
        <ele>293</ele>
        <time>2012-01-22T09:19:29Z</time>
      </trkpt>
      <trkpt lat="49.20863" lon="7.00138">
        <ele>293</ele>
        <time>2012-01-22T09:19:31Z</time>
      </trkpt>
      <trkpt lat="49.20865" lon="7.00139">
        <ele>293</ele>
        <time>2012-01-22T09:19:32Z</time>
      </trkpt>
      <trkpt lat="49.20867" lon="7.0014">
        <ele>294</ele>
        <time>2012-01-22T09:19:33Z</time>
      </trkpt>
      <trkpt lat="49.20869" lon="7.00141">
        <ele>294</ele>
        <time>2012-01-22T09:19:34Z</time>
      </trkpt>
      <trkpt lat="49.2087" lon="7.00141">
        <ele>295</ele>
        <time>2012-01-22T09:19:35Z</time>
      </trkpt>
      <trkpt lat="49.20871" lon="7.00142">
        <ele>296</ele>
        <time>2012-01-22T09:19:36Z</time>
      </trkpt>
      <trkpt lat="49.20873" lon="7.00143">
        <ele>296</ele>
        <time>2012-01-22T09:19:37Z</time>
      </trkpt>
      <trkpt lat="49.20874" lon="7.00143">
        <ele>296</ele>
        <time>2012-01-22T09:19:38Z</time>
      </trkpt>
      <trkpt lat="49.20875" lon="7.00144">
        <ele>297</ele>
        <time>2012-01-22T09:19:39Z</time>
      </trkpt>
      <trkpt lat="49.20877" lon="7.00145">
        <ele>297</ele>
        <time>2012-01-22T09:19:40Z</time>
      </trkpt>
      <trkpt lat="49.20879" lon="7.00146">
        <ele>297</ele>
        <time>2012-01-22T09:19:41Z</time>
      </trkpt>
      <trkpt lat="49.2088" lon="7.00146">
        <ele>297</ele>
        <time>2012-01-22T09:19:42Z</time>
      </trkpt>
      <trkpt lat="49.20882" lon="7.00146">
        <ele>298</ele>
        <time>2012-01-22T09:19:43Z</time>
      </trkpt>
      <trkpt lat="49.20884" lon="7.00147">
        <ele>298</ele>
        <time>2012-01-22T09:19:44Z</time>
      </trkpt>
      <trkpt lat="49.20886" lon="7.00148">
        <ele>299</ele>
        <time>2012-01-22T09:19:46Z</time>
      </trkpt>
      <trkpt lat="49.20888" lon="7.0015">
        <ele>300</ele>
        <time>2012-01-22T09:19:48Z</time>
      </trkpt>
      <trkpt lat="49.2089" lon="7.00151">
        <ele>300</ele>
        <time>2012-01-22T09:19:49Z</time>
      </trkpt>
      <trkpt lat="49.20891" lon="7.00152">
        <ele>300</ele>
        <time>2012-01-22T09:19:50Z</time>
      </trkpt>
      <trkpt lat="49.20892" lon="7.00153">
        <ele>301</ele>
        <time>2012-01-22T09:19:51Z</time>
      </trkpt>
      <trkpt lat="49.20894" lon="7.00154">
        <ele>301</ele>
        <time>2012-01-22T09:19:52Z</time>
      </trkpt>
      <trkpt lat="49.20895" lon="7.00156">
        <ele>302</ele>
        <time>2012-01-22T09:19:53Z</time>
      </trkpt>
      <trkpt lat="49.20897" lon="7.00159">
        <ele>303</ele>
        <time>2012-01-22T09:19:55Z</time>
      </trkpt>
      <trkpt lat="49.20898" lon="7.00161">
        <ele>304</ele>
        <time>2012-01-22T09:19:56Z</time>
      </trkpt>
      <trkpt lat="49.209" lon="7.00163">
        <ele>304</ele>
        <time>2012-01-22T09:19:57Z</time>
      </trkpt>
      <trkpt lat="49.20901" lon="7.00164">
        <ele>304</ele>
        <time>2012-01-22T09:19:58Z</time>
      </trkpt>
      <trkpt lat="49.20902" lon="7.00166">
        <ele>304</ele>
        <time>2012-01-22T09:19:59Z</time>
      </trkpt>
      <trkpt lat="49.20903" lon="7.00168">
        <ele>304</ele>
        <time>2012-01-22T09:20:01Z</time>
      </trkpt>
      <trkpt lat="49.20903" lon="7.00171">
        <ele>304</ele>
        <time>2012-01-22T09:20:03Z</time>
      </trkpt>
      <trkpt lat="49.20904" lon="7.00173">
        <ele>304</ele>
        <time>2012-01-22T09:20:04Z</time>
      </trkpt>
      <trkpt lat="49.20906" lon="7.00174">
        <ele>304</ele>
        <time>2012-01-22T09:20:05Z</time>
      </trkpt>
      <trkpt lat="49.20906" lon="7.00176">
        <ele>304</ele>
        <time>2012-01-22T09:20:06Z</time>
      </trkpt>
      <trkpt lat="49.20907" lon="7.00179">
        <ele>304</ele>
        <time>2012-01-22T09:20:08Z</time>
      </trkpt>
      <trkpt lat="49.20907" lon="7.00181">
        <ele>304</ele>
        <time>2012-01-22T09:20:09Z</time>
      </trkpt>
      <trkpt lat="49.20908" lon="7.00182">
        <ele>304</ele>
        <time>2012-01-22T09:20:10Z</time>
      </trkpt>
      <trkpt lat="49.20908" lon="7.00184">
        <ele>304</ele>
        <time>2012-01-22T09:20:11Z</time>
      </trkpt>
      <trkpt lat="49.2091" lon="7.00186">
        <ele>304</ele>
        <time>2012-01-22T09:20:12Z</time>
      </trkpt>
      <trkpt lat="49.20911" lon="7.00187">
        <ele>304</ele>
        <time>2012-01-22T09:20:13Z</time>
      </trkpt>
      <trkpt lat="49.20912" lon="7.00189">
        <ele>304</ele>
        <time>2012-01-22T09:20:14Z</time>
      </trkpt>
      <trkpt lat="49.20913" lon="7.0019">
        <ele>304</ele>
        <time>2012-01-22T09:20:15Z</time>
      </trkpt>
      <trkpt lat="49.20915" lon="7.00192">
        <ele>304</ele>
        <time>2012-01-22T09:20:16Z</time>
      </trkpt>
      <trkpt lat="49.20916" lon="7.00195">
        <ele>304</ele>
        <time>2012-01-22T09:20:18Z</time>
      </trkpt>
      <trkpt lat="49.20917" lon="7.00198">
        <ele>304</ele>
        <time>2012-01-22T09:20:20Z</time>
      </trkpt>
      <trkpt lat="49.20918" lon="7.002">
        <ele>304</ele>
        <time>2012-01-22T09:20:21Z</time>
      </trkpt>
      <trkpt lat="49.20919" lon="7.00203">
        <ele>304</ele>
        <time>2012-01-22T09:20:23Z</time>
      </trkpt>
      <trkpt lat="49.2092" lon="7.00206">
        <ele>304</ele>
        <time>2012-01-22T09:20:25Z</time>
      </trkpt>
      <trkpt lat="49.20921" lon="7.00208">
        <ele>304</ele>
        <time>2012-01-22T09:20:26Z</time>
      </trkpt>
      <trkpt lat="49.20922" lon="7.00211">
        <ele>304</ele>
        <time>2012-01-22T09:20:28Z</time>
      </trkpt>
      <trkpt lat="49.20923" lon="7.00213">
        <ele>303</ele>
        <time>2012-01-22T09:20:29Z</time>
      </trkpt>
      <trkpt lat="49.20924" lon="7.00215">
        <ele>303</ele>
        <time>2012-01-22T09:20:30Z</time>
      </trkpt>
      <trkpt lat="49.20926" lon="7.00217">
        <ele>303</ele>
        <time>2012-01-22T09:20:31Z</time>
      </trkpt>
      <trkpt lat="49.20928" lon="7.00219">
        <ele>303</ele>
        <time>2012-01-22T09:20:32Z</time>
      </trkpt>
      <trkpt lat="49.20929" lon="7.00221">
        <ele>303</ele>
        <time>2012-01-22T09:20:33Z</time>
      </trkpt>
      <trkpt lat="49.20931" lon="7.00223">
        <ele>303</ele>
        <time>2012-01-22T09:20:35Z</time>
      </trkpt>
      <trkpt lat="49.20931" lon="7.00225">
        <ele>303</ele>
        <time>2012-01-22T09:20:36Z</time>
      </trkpt>
      <trkpt lat="49.20933" lon="7.00227">
        <ele>303</ele>
        <time>2012-01-22T09:20:37Z</time>
      </trkpt>
      <trkpt lat="49.20932" lon="7.0023">
        <ele>303</ele>
        <time>2012-01-22T09:20:38Z</time>
      </trkpt>
      <trkpt lat="49.20932" lon="7.00232">
        <ele>303</ele>
        <time>2012-01-22T09:20:39Z</time>
      </trkpt>
      <trkpt lat="49.20933" lon="7.00234">
        <ele>303</ele>
        <time>2012-01-22T09:20:40Z</time>
      </trkpt>
      <trkpt lat="49.20933" lon="7.00236">
        <ele>303</ele>
        <time>2012-01-22T09:20:41Z</time>
      </trkpt>
      <trkpt lat="49.20933" lon="7.00238">
        <ele>303</ele>
        <time>2012-01-22T09:20:42Z</time>
      </trkpt>
      <trkpt lat="49.20935" lon="7.0024">
        <ele>303</ele>
        <time>2012-01-22T09:20:43Z</time>
      </trkpt>
      <trkpt lat="49.20935" lon="7.00242">
        <ele>303</ele>
        <time>2012-01-22T09:20:44Z</time>
      </trkpt>
      <trkpt lat="49.20936" lon="7.00244">
        <ele>303</ele>
        <time>2012-01-22T09:20:45Z</time>
      </trkpt>
      <trkpt lat="49.20936" lon="7.00246">
        <ele>303</ele>
        <time>2012-01-22T09:20:46Z</time>
      </trkpt>
      <trkpt lat="49.20936" lon="7.00249">
        <ele>303</ele>
        <time>2012-01-22T09:20:47Z</time>
      </trkpt>
      <trkpt lat="49.20938" lon="7.00251">
        <ele>303</ele>
        <time>2012-01-22T09:20:49Z</time>
      </trkpt>
      <trkpt lat="49.20939" lon="7.00254">
        <ele>303</ele>
        <time>2012-01-22T09:20:51Z</time>
      </trkpt>
      <trkpt lat="49.20941" lon="7.00257">
        <ele>303</ele>
        <time>2012-01-22T09:20:53Z</time>
      </trkpt>
      <trkpt lat="49.20942" lon="7.00258">
        <ele>303</ele>
        <time>2012-01-22T09:20:54Z</time>
      </trkpt>
      <trkpt lat="49.20943" lon="7.0026">
        <ele>303</ele>
        <time>2012-01-22T09:20:55Z</time>
      </trkpt>
      <trkpt lat="49.20943" lon="7.00262">
        <ele>303</ele>
        <time>2012-01-22T09:20:56Z</time>
      </trkpt>
      <trkpt lat="49.20943" lon="7.00265">
        <ele>303</ele>
        <time>2012-01-22T09:20:57Z</time>
      </trkpt>
      <trkpt lat="49.20944" lon="7.00267">
        <ele>303</ele>
        <time>2012-01-22T09:20:58Z</time>
      </trkpt>
      <trkpt lat="49.20944" lon="7.00268">
        <ele>303</ele>
        <time>2012-01-22T09:20:59Z</time>
      </trkpt>
      <trkpt lat="49.20945" lon="7.00271">
        <ele>303</ele>
        <time>2012-01-22T09:21:01Z</time>
      </trkpt>
      <trkpt lat="49.20947" lon="7.00272">
        <ele>303</ele>
        <time>2012-01-22T09:21:02Z</time>
      </trkpt>
      <trkpt lat="49.20948" lon="7.00276">
        <ele>303</ele>
        <time>2012-01-22T09:21:04Z</time>
      </trkpt>
      <trkpt lat="49.20948" lon="7.00278">
        <ele>303</ele>
        <time>2012-01-22T09:21:05Z</time>
      </trkpt>
      <trkpt lat="49.20948" lon="7.0028">
        <ele>303</ele>
        <time>2012-01-22T09:21:06Z</time>
      </trkpt>
      <trkpt lat="49.20948" lon="7.00282">
        <ele>303</ele>
        <time>2012-01-22T09:21:07Z</time>
      </trkpt>
      <trkpt lat="49.2095" lon="7.00285">
        <ele>303</ele>
        <time>2012-01-22T09:21:09Z</time>
      </trkpt>
      <trkpt lat="49.2095" lon="7.00287">
        <ele>303</ele>
        <time>2012-01-22T09:21:10Z</time>
      </trkpt>
      <trkpt lat="49.2095" lon="7.00289">
        <ele>303</ele>
        <time>2012-01-22T09:21:11Z</time>
      </trkpt>
      <trkpt lat="49.2095" lon="7.00291">
        <ele>303</ele>
        <time>2012-01-22T09:21:12Z</time>
      </trkpt>
      <trkpt lat="49.20951" lon="7.00293">
        <ele>302</ele>
        <time>2012-01-22T09:21:14Z</time>
      </trkpt>
      <trkpt lat="49.20952" lon="7.00295">
        <ele>301</ele>
        <time>2012-01-22T09:21:15Z</time>
      </trkpt>
      <trkpt lat="49.20953" lon="7.00297">
        <ele>301</ele>
        <time>2012-01-22T09:21:16Z</time>
      </trkpt>
      <trkpt lat="49.20953" lon="7.003">
        <ele>301</ele>
        <time>2012-01-22T09:21:17Z</time>
      </trkpt>
      <trkpt lat="49.20953" lon="7.00302">
        <ele>300</ele>
        <time>2012-01-22T09:21:18Z</time>
      </trkpt>
      <trkpt lat="49.20954" lon="7.00304">
        <ele>300</ele>
        <time>2012-01-22T09:21:19Z</time>
      </trkpt>
      <trkpt lat="49.20955" lon="7.00306">
        <ele>299</ele>
        <time>2012-01-22T09:21:20Z</time>
      </trkpt>
      <trkpt lat="49.20955" lon="7.00308">
        <ele>299</ele>
        <time>2012-01-22T09:21:21Z</time>
      </trkpt>
      <trkpt lat="49.20956" lon="7.0031">
        <ele>299</ele>
        <time>2012-01-22T09:21:22Z</time>
      </trkpt>
      <trkpt lat="49.20956" lon="7.00312">
        <ele>299</ele>
        <time>2012-01-22T09:21:23Z</time>
      </trkpt>
      <trkpt lat="49.20958" lon="7.00313">
        <ele>299</ele>
        <time>2012-01-22T09:21:24Z</time>
      </trkpt>
      <trkpt lat="49.20959" lon="7.00315">
        <ele>299</ele>
        <time>2012-01-22T09:21:25Z</time>
      </trkpt>
      <trkpt lat="49.20959" lon="7.00317">
        <ele>299</ele>
        <time>2012-01-22T09:21:26Z</time>
      </trkpt>
      <trkpt lat="49.2096" lon="7.00319">
        <ele>299</ele>
        <time>2012-01-22T09:21:27Z</time>
      </trkpt>
      <trkpt lat="49.2096" lon="7.00321">
        <ele>299</ele>
        <time>2012-01-22T09:21:28Z</time>
      </trkpt>
      <trkpt lat="49.20961" lon="7.00322">
        <ele>299</ele>
        <time>2012-01-22T09:21:29Z</time>
      </trkpt>
      <trkpt lat="49.20962" lon="7.00325">
        <ele>299</ele>
        <time>2012-01-22T09:21:30Z</time>
      </trkpt>
      <trkpt lat="49.20963" lon="7.00327">
        <ele>299</ele>
        <time>2012-01-22T09:21:31Z</time>
      </trkpt>
      <trkpt lat="49.20963" lon="7.00329">
        <ele>299</ele>
        <time>2012-01-22T09:21:32Z</time>
      </trkpt>
      <trkpt lat="49.20964" lon="7.00331">
        <ele>299</ele>
        <time>2012-01-22T09:21:33Z</time>
      </trkpt>
      <trkpt lat="49.20965" lon="7.00333">
        <ele>299</ele>
        <time>2012-01-22T09:21:34Z</time>
      </trkpt>
      <trkpt lat="49.20965" lon="7.00335">
        <ele>299</ele>
        <time>2012-01-22T09:21:35Z</time>
      </trkpt>
      <trkpt lat="49.20966" lon="7.00337">
        <ele>299</ele>
        <time>2012-01-22T09:21:36Z</time>
      </trkpt>
      <trkpt lat="49.20966" lon="7.00339">
        <ele>299</ele>
        <time>2012-01-22T09:21:37Z</time>
      </trkpt>
      <trkpt lat="49.20967" lon="7.00341">
        <ele>299</ele>
        <time>2012-01-22T09:21:38Z</time>
      </trkpt>
      <trkpt lat="49.20968" lon="7.00343">
        <ele>299</ele>
        <time>2012-01-22T09:21:39Z</time>
      </trkpt>
      <trkpt lat="49.20969" lon="7.00345">
        <ele>299</ele>
        <time>2012-01-22T09:21:40Z</time>
      </trkpt>
      <trkpt lat="49.20969" lon="7.00347">
        <ele>299</ele>
        <time>2012-01-22T09:21:41Z</time>
      </trkpt>
      <trkpt lat="49.2097" lon="7.00348">
        <ele>299</ele>
        <time>2012-01-22T09:21:42Z</time>
      </trkpt>
      <trkpt lat="49.20971" lon="7.0035">
        <ele>299</ele>
        <time>2012-01-22T09:21:43Z</time>
      </trkpt>
      <trkpt lat="49.20971" lon="7.00352">
        <ele>299</ele>
        <time>2012-01-22T09:21:44Z</time>
      </trkpt>
      <trkpt lat="49.20971" lon="7.00354">
        <ele>299</ele>
        <time>2012-01-22T09:21:45Z</time>
      </trkpt>
      <trkpt lat="49.20971" lon="7.00356">
        <ele>299</ele>
        <time>2012-01-22T09:21:46Z</time>
      </trkpt>
      <trkpt lat="49.20971" lon="7.00359">
        <ele>299</ele>
        <time>2012-01-22T09:21:47Z</time>
      </trkpt>
      <trkpt lat="49.20972" lon="7.00361">
        <ele>299</ele>
        <time>2012-01-22T09:21:48Z</time>
      </trkpt>
      <trkpt lat="49.20972" lon="7.00364">
        <ele>299</ele>
        <time>2012-01-22T09:21:50Z</time>
      </trkpt>
      <trkpt lat="49.20972" lon="7.00367">
        <ele>299</ele>
        <time>2012-01-22T09:21:51Z</time>
      </trkpt>
      <trkpt lat="49.20972" lon="7.0037">
        <ele>299</ele>
        <time>2012-01-22T09:21:53Z</time>
      </trkpt>
      <trkpt lat="49.20973" lon="7.00371">
        <ele>299</ele>
        <time>2012-01-22T09:21:54Z</time>
      </trkpt>
      <trkpt lat="49.20974" lon="7.00373">
        <ele>299</ele>
        <time>2012-01-22T09:21:55Z</time>
      </trkpt>
      <trkpt lat="49.20975" lon="7.00375">
        <ele>299</ele>
        <time>2012-01-22T09:21:56Z</time>
      </trkpt>
      <trkpt lat="49.20975" lon="7.00377">
        <ele>299</ele>
        <time>2012-01-22T09:21:57Z</time>
      </trkpt>
      <trkpt lat="49.20976" lon="7.00379">
        <ele>299</ele>
        <time>2012-01-22T09:21:58Z</time>
      </trkpt>
      <trkpt lat="49.20976" lon="7.00381">
        <ele>299</ele>
        <time>2012-01-22T09:21:59Z</time>
      </trkpt>
      <trkpt lat="49.20976" lon="7.00383">
        <ele>299</ele>
        <time>2012-01-22T09:22:00Z</time>
      </trkpt>
      <trkpt lat="49.20977" lon="7.00385">
        <ele>299</ele>
        <time>2012-01-22T09:22:01Z</time>
      </trkpt>
      <trkpt lat="49.20977" lon="7.00387">
        <ele>299</ele>
        <time>2012-01-22T09:22:02Z</time>
      </trkpt>
      <trkpt lat="49.20978" lon="7.00388">
        <ele>299</ele>
        <time>2012-01-22T09:22:03Z</time>
      </trkpt>
      <trkpt lat="49.20978" lon="7.0039">
        <ele>299</ele>
        <time>2012-01-22T09:22:04Z</time>
      </trkpt>
      <trkpt lat="49.20979" lon="7.00392">
        <ele>299</ele>
        <time>2012-01-22T09:22:05Z</time>
      </trkpt>
      <trkpt lat="49.20979" lon="7.00394">
        <ele>299</ele>
        <time>2012-01-22T09:22:06Z</time>
      </trkpt>
      <trkpt lat="49.20979" lon="7.00396">
        <ele>298</ele>
        <time>2012-01-22T09:22:07Z</time>
      </trkpt>
      <trkpt lat="49.20979" lon="7.00397">
        <ele>298</ele>
        <time>2012-01-22T09:22:08Z</time>
      </trkpt>
      <trkpt lat="49.2098" lon="7.00399">
        <ele>297</ele>
        <time>2012-01-22T09:22:09Z</time>
      </trkpt>
      <trkpt lat="49.20981" lon="7.00401">
        <ele>297</ele>
        <time>2012-01-22T09:22:10Z</time>
      </trkpt>
      <trkpt lat="49.20981" lon="7.00403">
        <ele>297</ele>
        <time>2012-01-22T09:22:11Z</time>
      </trkpt>
      <trkpt lat="49.20982" lon="7.00406">
        <ele>297</ele>
        <time>2012-01-22T09:22:12Z</time>
      </trkpt>
      <trkpt lat="49.20982" lon="7.00407">
        <ele>297</ele>
        <time>2012-01-22T09:22:13Z</time>
      </trkpt>
      <trkpt lat="49.20983" lon="7.00409">
        <ele>297</ele>
        <time>2012-01-22T09:22:14Z</time>
      </trkpt>
      <trkpt lat="49.20984" lon="7.00412">
        <ele>297</ele>
        <time>2012-01-22T09:22:15Z</time>
      </trkpt>
      <trkpt lat="49.20984" lon="7.00415">
        <ele>297</ele>
        <time>2012-01-22T09:22:16Z</time>
      </trkpt>
      <trkpt lat="49.20984" lon="7.00417">
        <ele>297</ele>
        <time>2012-01-22T09:22:17Z</time>
      </trkpt>
      <trkpt lat="49.20984" lon="7.00419">
        <ele>296</ele>
        <time>2012-01-22T09:22:18Z</time>
      </trkpt>
      <trkpt lat="49.20984" lon="7.00421">
        <ele>296</ele>
        <time>2012-01-22T09:22:19Z</time>
      </trkpt>
      <trkpt lat="49.20984" lon="7.00423">
        <ele>296</ele>
        <time>2012-01-22T09:22:20Z</time>
      </trkpt>
      <trkpt lat="49.20985" lon="7.00425">
        <ele>296</ele>
        <time>2012-01-22T09:22:21Z</time>
      </trkpt>
      <trkpt lat="49.20985" lon="7.00427">
        <ele>296</ele>
        <time>2012-01-22T09:22:22Z</time>
      </trkpt>
      <trkpt lat="49.20985" lon="7.00429">
        <ele>296</ele>
        <time>2012-01-22T09:22:23Z</time>
      </trkpt>
      <trkpt lat="49.20985" lon="7.00431">
        <ele>296</ele>
        <time>2012-01-22T09:22:24Z</time>
      </trkpt>
      <trkpt lat="49.20985" lon="7.00433">
        <ele>295</ele>
        <time>2012-01-22T09:22:25Z</time>
      </trkpt>
      <trkpt lat="49.20985" lon="7.00435">
        <ele>294</ele>
        <time>2012-01-22T09:22:26Z</time>
      </trkpt>
      <trkpt lat="49.20985" lon="7.00437">
        <ele>293</ele>
        <time>2012-01-22T09:22:27Z</time>
      </trkpt>
      <trkpt lat="49.20985" lon="7.00438">
        <ele>292</ele>
        <time>2012-01-22T09:22:28Z</time>
      </trkpt>
      <trkpt lat="49.20986" lon="7.0044">
        <ele>291</ele>
        <time>2012-01-22T09:22:29Z</time>
      </trkpt>
      <trkpt lat="49.20986" lon="7.00442">
        <ele>291</ele>
        <time>2012-01-22T09:22:30Z</time>
      </trkpt>
      <trkpt lat="49.20986" lon="7.00445">
        <ele>290</ele>
        <time>2012-01-22T09:22:31Z</time>
      </trkpt>
      <trkpt lat="49.20987" lon="7.00448">
        <ele>290</ele>
        <time>2012-01-22T09:22:32Z</time>
      </trkpt>
      <trkpt lat="49.20988" lon="7.0045">
        <ele>290</ele>
        <time>2012-01-22T09:22:33Z</time>
      </trkpt>
      <trkpt lat="49.20987" lon="7.00453">
        <ele>290</ele>
        <time>2012-01-22T09:22:34Z</time>
      </trkpt>
      <trkpt lat="49.20987" lon="7.00456">
        <ele>290</ele>
        <time>2012-01-22T09:22:35Z</time>
      </trkpt>
      <trkpt lat="49.20987" lon="7.00458">
        <ele>290</ele>
        <time>2012-01-22T09:22:36Z</time>
      </trkpt>
      <trkpt lat="49.20987" lon="7.0046">
        <ele>290</ele>
        <time>2012-01-22T09:22:37Z</time>
      </trkpt>
      <trkpt lat="49.20987" lon="7.00461">
        <ele>290</ele>
        <time>2012-01-22T09:22:38Z</time>
      </trkpt>
      <trkpt lat="49.20986" lon="7.00463">
        <ele>290</ele>
        <time>2012-01-22T09:22:39Z</time>
      </trkpt>
      <trkpt lat="49.20986" lon="7.00466">
        <ele>290</ele>
        <time>2012-01-22T09:22:40Z</time>
      </trkpt>
      <trkpt lat="49.20985" lon="7.00468">
        <ele>290</ele>
        <time>2012-01-22T09:22:41Z</time>
      </trkpt>
      <trkpt lat="49.20985" lon="7.00469">
        <ele>290</ele>
        <time>2012-01-22T09:22:42Z</time>
      </trkpt>
      <trkpt lat="49.20983" lon="7.00471">
        <ele>290</ele>
        <time>2012-01-22T09:22:43Z</time>
      </trkpt>
      <trkpt lat="49.20982" lon="7.00475">
        <ele>290</ele>
        <time>2012-01-22T09:22:45Z</time>
      </trkpt>
      <trkpt lat="49.20981" lon="7.00479">
        <ele>290</ele>
        <time>2012-01-22T09:22:47Z</time>
      </trkpt>
      <trkpt lat="49.2098" lon="7.00481">
        <ele>290</ele>
        <time>2012-01-22T09:22:48Z</time>
      </trkpt>
      <trkpt lat="49.20979" lon="7.00483">
        <ele>290</ele>
        <time>2012-01-22T09:22:49Z</time>
      </trkpt>
      <trkpt lat="49.20979" lon="7.00484">
        <ele>290</ele>
        <time>2012-01-22T09:22:50Z</time>
      </trkpt>
      <trkpt lat="49.20978" lon="7.00487">
        <ele>290</ele>
        <time>2012-01-22T09:22:52Z</time>
      </trkpt>
      <trkpt lat="49.20977" lon="7.0049">
        <ele>290</ele>
        <time>2012-01-22T09:22:54Z</time>
      </trkpt>
      <trkpt lat="49.20975" lon="7.00491">
        <ele>290</ele>
        <time>2012-01-22T09:22:56Z</time>
      </trkpt>
      <trkpt lat="49.20974" lon="7.00494">
        <ele>290</ele>
        <time>2012-01-22T09:22:58Z</time>
      </trkpt>
      <trkpt lat="49.20973" lon="7.00496">
        <ele>290</ele>
        <time>2012-01-22T09:22:59Z</time>
      </trkpt>
      <trkpt lat="49.20972" lon="7.00498">
        <ele>291</ele>
        <time>2012-01-22T09:23:00Z</time>
      </trkpt>
      <trkpt lat="49.20971" lon="7.00502">
        <ele>292</ele>
        <time>2012-01-22T09:23:02Z</time>
      </trkpt>
      <trkpt lat="49.2097" lon="7.00504">
        <ele>293</ele>
        <time>2012-01-22T09:23:03Z</time>
      </trkpt>
      <trkpt lat="49.20969" lon="7.00507">
        <ele>294</ele>
        <time>2012-01-22T09:23:05Z</time>
      </trkpt>
      <trkpt lat="49.20967" lon="7.0051">
        <ele>295</ele>
        <time>2012-01-22T09:23:07Z</time>
      </trkpt>
      <trkpt lat="49.20966" lon="7.00512">
        <ele>296</ele>
        <time>2012-01-22T09:23:09Z</time>
      </trkpt>
      <trkpt lat="49.20964" lon="7.00515">
        <ele>297</ele>
        <time>2012-01-22T09:23:11Z</time>
      </trkpt>
      <trkpt lat="49.20963" lon="7.00517">
        <ele>297</ele>
        <time>2012-01-22T09:23:12Z</time>
      </trkpt>
      <trkpt lat="49.20962" lon="7.00519">
        <ele>298</ele>
        <time>2012-01-22T09:23:13Z</time>
      </trkpt>
      <trkpt lat="49.20962" lon="7.00521">
        <ele>298</ele>
        <time>2012-01-22T09:23:14Z</time>
      </trkpt>
      <trkpt lat="49.20961" lon="7.00524">
        <ele>298</ele>
        <time>2012-01-22T09:23:15Z</time>
      </trkpt>
      <trkpt lat="49.20961" lon="7.00525">
        <ele>298</ele>
        <time>2012-01-22T09:23:16Z</time>
      </trkpt>
      <trkpt lat="49.20959" lon="7.00529">
        <ele>298</ele>
        <time>2012-01-22T09:23:18Z</time>
      </trkpt>
      <trkpt lat="49.20958" lon="7.00532">
        <ele>298</ele>
        <time>2012-01-22T09:23:19Z</time>
      </trkpt>
      <trkpt lat="49.20957" lon="7.00534">
        <ele>298</ele>
        <time>2012-01-22T09:23:20Z</time>
      </trkpt>
      <trkpt lat="49.20956" lon="7.00536">
        <ele>298</ele>
        <time>2012-01-22T09:23:21Z</time>
      </trkpt>
      <trkpt lat="49.20956" lon="7.00538">
        <ele>298</ele>
        <time>2012-01-22T09:23:22Z</time>
      </trkpt>
      <trkpt lat="49.20956" lon="7.00541">
        <ele>298</ele>
        <time>2012-01-22T09:23:23Z</time>
      </trkpt>
      <trkpt lat="49.20955" lon="7.00543">
        <ele>298</ele>
        <time>2012-01-22T09:23:24Z</time>
      </trkpt>
      <trkpt lat="49.20955" lon="7.00544">
        <ele>298</ele>
        <time>2012-01-22T09:23:25Z</time>
      </trkpt>
      <trkpt lat="49.20954" lon="7.00546">
        <ele>298</ele>
        <time>2012-01-22T09:23:26Z</time>
      </trkpt>
      <trkpt lat="49.20953" lon="7.00551">
        <ele>298</ele>
        <time>2012-01-22T09:23:28Z</time>
      </trkpt>
      <trkpt lat="49.20953" lon="7.00553">
        <ele>298</ele>
        <time>2012-01-22T09:23:29Z</time>
      </trkpt>
      <trkpt lat="49.20953" lon="7.00556">
        <ele>298</ele>
        <time>2012-01-22T09:23:31Z</time>
      </trkpt>
      <trkpt lat="49.20952" lon="7.00557">
        <ele>298</ele>
        <time>2012-01-22T09:23:32Z</time>
      </trkpt>
      <trkpt lat="49.20951" lon="7.00561">
        <ele>298</ele>
        <time>2012-01-22T09:23:34Z</time>
      </trkpt>
      <trkpt lat="49.20951" lon="7.00562">
        <ele>298</ele>
        <time>2012-01-22T09:23:35Z</time>
      </trkpt>
      <trkpt lat="49.20951" lon="7.00564">
        <ele>298</ele>
        <time>2012-01-22T09:23:36Z</time>
      </trkpt>
      <trkpt lat="49.20951" lon="7.00567">
        <ele>298</ele>
        <time>2012-01-22T09:23:37Z</time>
      </trkpt>
      <trkpt lat="49.20951" lon="7.00569">
        <ele>298</ele>
        <time>2012-01-22T09:23:38Z</time>
      </trkpt>
      <trkpt lat="49.20951" lon="7.00571">
        <ele>298</ele>
        <time>2012-01-22T09:23:39Z</time>
      </trkpt>
      <trkpt lat="49.2095" lon="7.00573">
        <ele>298</ele>
        <time>2012-01-22T09:23:40Z</time>
      </trkpt>
      <trkpt lat="49.20951" lon="7.00575">
        <ele>298</ele>
        <time>2012-01-22T09:23:42Z</time>
      </trkpt>
      <trkpt lat="49.20951" lon="7.00577">
        <ele>298</ele>
        <time>2012-01-22T09:23:43Z</time>
      </trkpt>
      <trkpt lat="49.2095" lon="7.00579">
        <ele>298</ele>
        <time>2012-01-22T09:23:44Z</time>
      </trkpt>
      <trkpt lat="49.2095" lon="7.00582">
        <ele>298</ele>
        <time>2012-01-22T09:23:45Z</time>
      </trkpt>
      <trkpt lat="49.2095" lon="7.00584">
        <ele>298</ele>
        <time>2012-01-22T09:23:46Z</time>
      </trkpt>
      <trkpt lat="49.2095" lon="7.00585">
        <ele>298</ele>
        <time>2012-01-22T09:23:47Z</time>
      </trkpt>
      <trkpt lat="49.20951" lon="7.00587">
        <ele>298</ele>
        <time>2012-01-22T09:23:48Z</time>
      </trkpt>
      <trkpt lat="49.2095" lon="7.0059">
        <ele>298</ele>
        <time>2012-01-22T09:23:50Z</time>
      </trkpt>
      <trkpt lat="49.20949" lon="7.00592">
        <ele>298</ele>
        <time>2012-01-22T09:23:51Z</time>
      </trkpt>
      <trkpt lat="49.20948" lon="7.00594">
        <ele>298</ele>
        <time>2012-01-22T09:23:53Z</time>
      </trkpt>
      <trkpt lat="49.20947" lon="7.00597">
        <ele>297</ele>
        <time>2012-01-22T09:23:55Z</time>
      </trkpt>
      <trkpt lat="49.20946" lon="7.00599">
        <ele>296</ele>
        <time>2012-01-22T09:23:56Z</time>
      </trkpt>
      <trkpt lat="49.20946" lon="7.00601">
        <ele>295</ele>
        <time>2012-01-22T09:23:57Z</time>
      </trkpt>
      <trkpt lat="49.20945" lon="7.00603">
        <ele>294</ele>
        <time>2012-01-22T09:23:58Z</time>
      </trkpt>
      <trkpt lat="49.20945" lon="7.00605">
        <ele>294</ele>
        <time>2012-01-22T09:23:59Z</time>
      </trkpt>
      <trkpt lat="49.20944" lon="7.00607">
        <ele>294</ele>
        <time>2012-01-22T09:24:00Z</time>
      </trkpt>
      <trkpt lat="49.20944" lon="7.00609">
        <ele>294</ele>
        <time>2012-01-22T09:24:01Z</time>
      </trkpt>
      <trkpt lat="49.20943" lon="7.00611">
        <ele>294</ele>
        <time>2012-01-22T09:24:02Z</time>
      </trkpt>
      <trkpt lat="49.20942" lon="7.00614">
        <ele>294</ele>
        <time>2012-01-22T09:24:03Z</time>
      </trkpt>
      <trkpt lat="49.20942" lon="7.00616">
        <ele>294</ele>
        <time>2012-01-22T09:24:04Z</time>
      </trkpt>
      <trkpt lat="49.20941" lon="7.00618">
        <ele>294</ele>
        <time>2012-01-22T09:24:05Z</time>
      </trkpt>
      <trkpt lat="49.20941" lon="7.0062">
        <ele>294</ele>
        <time>2012-01-22T09:24:06Z</time>
      </trkpt>
      <trkpt lat="49.2094" lon="7.00622">
        <ele>294</ele>
        <time>2012-01-22T09:24:07Z</time>
      </trkpt>
      <trkpt lat="49.2094" lon="7.00624">
        <ele>294</ele>
        <time>2012-01-22T09:24:08Z</time>
      </trkpt>
      <trkpt lat="49.2094" lon="7.00626">
        <ele>294</ele>
        <time>2012-01-22T09:24:09Z</time>
      </trkpt>
      <trkpt lat="49.20939" lon="7.00629">
        <ele>294</ele>
        <time>2012-01-22T09:24:11Z</time>
      </trkpt>
      <trkpt lat="49.20938" lon="7.00631">
        <ele>294</ele>
        <time>2012-01-22T09:24:13Z</time>
      </trkpt>
      <trkpt lat="49.20937" lon="7.00634">
        <ele>293</ele>
        <time>2012-01-22T09:24:14Z</time>
      </trkpt>
      <trkpt lat="49.20937" lon="7.00636">
        <ele>293</ele>
        <time>2012-01-22T09:24:15Z</time>
      </trkpt>
      <trkpt lat="49.20937" lon="7.00639">
        <ele>292</ele>
        <time>2012-01-22T09:24:16Z</time>
      </trkpt>
      <trkpt lat="49.20937" lon="7.00641">
        <ele>291</ele>
        <time>2012-01-22T09:24:17Z</time>
      </trkpt>
      <trkpt lat="49.20937" lon="7.00643">
        <ele>291</ele>
        <time>2012-01-22T09:24:18Z</time>
      </trkpt>
      <trkpt lat="49.20936" lon="7.00645">
        <ele>290</ele>
        <time>2012-01-22T09:24:19Z</time>
      </trkpt>
      <trkpt lat="49.20936" lon="7.00647">
        <ele>290</ele>
        <time>2012-01-22T09:24:20Z</time>
      </trkpt>
      <trkpt lat="49.20935" lon="7.0065">
        <ele>289</ele>
        <time>2012-01-22T09:24:21Z</time>
      </trkpt>
      <trkpt lat="49.20935" lon="7.00652">
        <ele>289</ele>
        <time>2012-01-22T09:24:22Z</time>
      </trkpt>
      <trkpt lat="49.20935" lon="7.00653">
        <ele>289</ele>
        <time>2012-01-22T09:24:23Z</time>
      </trkpt>
      <trkpt lat="49.20934" lon="7.00656">
        <ele>289</ele>
        <time>2012-01-22T09:24:25Z</time>
      </trkpt>
      <trkpt lat="49.20933" lon="7.00658">
        <ele>289</ele>
        <time>2012-01-22T09:24:26Z</time>
      </trkpt>
      <trkpt lat="49.20933" lon="7.0066">
        <ele>289</ele>
        <time>2012-01-22T09:24:27Z</time>
      </trkpt>
      <trkpt lat="49.20932" lon="7.00662">
        <ele>289</ele>
        <time>2012-01-22T09:24:28Z</time>
      </trkpt>
      <trkpt lat="49.20932" lon="7.00664">
        <ele>289</ele>
        <time>2012-01-22T09:24:29Z</time>
      </trkpt>
      <trkpt lat="49.20931" lon="7.00667">
        <ele>289</ele>
        <time>2012-01-22T09:24:31Z</time>
      </trkpt>
      <trkpt lat="49.2093" lon="7.00669">
        <ele>289</ele>
        <time>2012-01-22T09:24:32Z</time>
      </trkpt>
      <trkpt lat="49.20929" lon="7.00671">
        <ele>289</ele>
        <time>2012-01-22T09:24:33Z</time>
      </trkpt>
      <trkpt lat="49.20929" lon="7.00674">
        <ele>289</ele>
        <time>2012-01-22T09:24:35Z</time>
      </trkpt>
      <trkpt lat="49.20928" lon="7.00677">
        <ele>289</ele>
        <time>2012-01-22T09:24:37Z</time>
      </trkpt>
      <trkpt lat="49.20926" lon="7.00681">
        <ele>289</ele>
        <time>2012-01-22T09:24:39Z</time>
      </trkpt>
      <trkpt lat="49.20926" lon="7.00683">
        <ele>289</ele>
        <time>2012-01-22T09:24:40Z</time>
      </trkpt>
      <trkpt lat="49.20925" lon="7.00685">
        <ele>289</ele>
        <time>2012-01-22T09:24:41Z</time>
      </trkpt>
      <trkpt lat="49.20924" lon="7.00687">
        <ele>289</ele>
        <time>2012-01-22T09:24:42Z</time>
      </trkpt>
      <trkpt lat="49.20923" lon="7.00689">
        <ele>289</ele>
        <time>2012-01-22T09:24:43Z</time>
      </trkpt>
      <trkpt lat="49.20923" lon="7.00691">
        <ele>289</ele>
        <time>2012-01-22T09:24:44Z</time>
      </trkpt>
      <trkpt lat="49.20922" lon="7.00694">
        <ele>289</ele>
        <time>2012-01-22T09:24:45Z</time>
      </trkpt>
      <trkpt lat="49.20921" lon="7.00697">
        <ele>289</ele>
        <time>2012-01-22T09:24:46Z</time>
      </trkpt>
      <trkpt lat="49.20921" lon="7.00699">
        <ele>289</ele>
        <time>2012-01-22T09:24:47Z</time>
      </trkpt>
      <trkpt lat="49.2092" lon="7.00701">
        <ele>289</ele>
        <time>2012-01-22T09:24:48Z</time>
      </trkpt>
      <trkpt lat="49.20918" lon="7.00704">
        <ele>289</ele>
        <time>2012-01-22T09:24:49Z</time>
      </trkpt>
      <trkpt lat="49.20917" lon="7.00705">
        <ele>289</ele>
        <time>2012-01-22T09:24:50Z</time>
      </trkpt>
      <trkpt lat="49.20916" lon="7.00707">
        <ele>289</ele>
        <time>2012-01-22T09:24:51Z</time>
      </trkpt>
      <trkpt lat="49.20915" lon="7.00711">
        <ele>290</ele>
        <time>2012-01-22T09:24:53Z</time>
      </trkpt>
      <trkpt lat="49.20913" lon="7.00713">
        <ele>290</ele>
        <time>2012-01-22T09:24:55Z</time>
      </trkpt>
      <trkpt lat="49.20912" lon="7.00716">
        <ele>291</ele>
        <time>2012-01-22T09:24:57Z</time>
      </trkpt>
      <trkpt lat="49.2091" lon="7.00718">
        <ele>291</ele>
        <time>2012-01-22T09:24:58Z</time>
      </trkpt>
      <trkpt lat="49.20908" lon="7.0072">
        <ele>292</ele>
        <time>2012-01-22T09:25:00Z</time>
      </trkpt>
      <trkpt lat="49.20907" lon="7.00722">
        <ele>292</ele>
        <time>2012-01-22T09:25:01Z</time>
      </trkpt>
      <trkpt lat="49.20906" lon="7.00723">
        <ele>292</ele>
        <time>2012-01-22T09:25:02Z</time>
      </trkpt>
      <trkpt lat="49.20906" lon="7.00725">
        <ele>292</ele>
        <time>2012-01-22T09:25:03Z</time>
      </trkpt>
      <trkpt lat="49.20905" lon="7.00727">
        <ele>292</ele>
        <time>2012-01-22T09:25:04Z</time>
      </trkpt>
      <trkpt lat="49.20904" lon="7.00729">
        <ele>292</ele>
        <time>2012-01-22T09:25:05Z</time>
      </trkpt>
      <trkpt lat="49.20902" lon="7.00731">
        <ele>292</ele>
        <time>2012-01-22T09:25:06Z</time>
      </trkpt>
      <trkpt lat="49.20901" lon="7.00732">
        <ele>292</ele>
        <time>2012-01-22T09:25:07Z</time>
      </trkpt>
      <trkpt lat="49.209" lon="7.00732">
        <ele>292</ele>
        <time>2012-01-22T09:25:08Z</time>
      </trkpt>
      <trkpt lat="49.20898" lon="7.00735">
        <ele>292</ele>
        <time>2012-01-22T09:25:10Z</time>
      </trkpt>
      <trkpt lat="49.20897" lon="7.00736">
        <ele>292</ele>
        <time>2012-01-22T09:25:11Z</time>
      </trkpt>
      <trkpt lat="49.20895" lon="7.00737">
        <ele>292</ele>
        <time>2012-01-22T09:25:12Z</time>
      </trkpt>
      <trkpt lat="49.20894" lon="7.00739">
        <ele>292</ele>
        <time>2012-01-22T09:25:13Z</time>
      </trkpt>
      <trkpt lat="49.20893" lon="7.0074">
        <ele>292</ele>
        <time>2012-01-22T09:25:14Z</time>
      </trkpt>
      <trkpt lat="49.20891" lon="7.00743">
        <ele>292</ele>
        <time>2012-01-22T09:25:16Z</time>
      </trkpt>
      <trkpt lat="49.2089" lon="7.00744">
        <ele>292</ele>
        <time>2012-01-22T09:25:17Z</time>
      </trkpt>
      <trkpt lat="49.20889" lon="7.00745">
        <ele>292</ele>
        <time>2012-01-22T09:25:18Z</time>
      </trkpt>
      <trkpt lat="49.20886" lon="7.00748">
        <ele>292</ele>
        <time>2012-01-22T09:25:20Z</time>
      </trkpt>
      <trkpt lat="49.20884" lon="7.00749">
        <ele>292</ele>
        <time>2012-01-22T09:25:22Z</time>
      </trkpt>
      <trkpt lat="49.20883" lon="7.0075">
        <ele>292</ele>
        <time>2012-01-22T09:25:23Z</time>
      </trkpt>
      <trkpt lat="49.20882" lon="7.00751">
        <ele>292</ele>
        <time>2012-01-22T09:25:24Z</time>
      </trkpt>
      <trkpt lat="49.20881" lon="7.00752">
        <ele>292</ele>
        <time>2012-01-22T09:25:25Z</time>
      </trkpt>
      <trkpt lat="49.20879" lon="7.00753">
        <ele>292</ele>
        <time>2012-01-22T09:25:27Z</time>
      </trkpt>
      <trkpt lat="49.20877" lon="7.00754">
        <ele>292</ele>
        <time>2012-01-22T09:25:29Z</time>
      </trkpt>
      <trkpt lat="49.20875" lon="7.00757">
        <ele>292</ele>
        <time>2012-01-22T09:25:31Z</time>
      </trkpt>
      <trkpt lat="49.20874" lon="7.00758">
        <ele>292</ele>
        <time>2012-01-22T09:25:32Z</time>
      </trkpt>
      <trkpt lat="49.20872" lon="7.0076">
        <ele>292</ele>
        <time>2012-01-22T09:25:33Z</time>
      </trkpt>
      <trkpt lat="49.20871" lon="7.00762">
        <ele>292</ele>
        <time>2012-01-22T09:25:35Z</time>
      </trkpt>
      <trkpt lat="49.20869" lon="7.00763">
        <ele>292</ele>
        <time>2012-01-22T09:25:36Z</time>
      </trkpt>
      <trkpt lat="49.20868" lon="7.00765">
        <ele>292</ele>
        <time>2012-01-22T09:25:37Z</time>
      </trkpt>
      <trkpt lat="49.20866" lon="7.00766">
        <ele>292</ele>
        <time>2012-01-22T09:25:38Z</time>
      </trkpt>
      <trkpt lat="49.20865" lon="7.00769">
        <ele>292</ele>
        <time>2012-01-22T09:25:39Z</time>
      </trkpt>
      <trkpt lat="49.20864" lon="7.00771">
        <ele>292</ele>
        <time>2012-01-22T09:25:40Z</time>
      </trkpt>
      <trkpt lat="49.20862" lon="7.00773">
        <ele>293</ele>
        <time>2012-01-22T09:25:42Z</time>
      </trkpt>
      <trkpt lat="49.2086" lon="7.00775">
        <ele>294</ele>
        <time>2012-01-22T09:25:43Z</time>
      </trkpt>
      <trkpt lat="49.20859" lon="7.00776">
        <ele>294</ele>
        <time>2012-01-22T09:25:44Z</time>
      </trkpt>
      <trkpt lat="49.20858" lon="7.00777">
        <ele>294</ele>
        <time>2012-01-22T09:25:45Z</time>
      </trkpt>
      <trkpt lat="49.20856" lon="7.0078">
        <ele>295</ele>
        <time>2012-01-22T09:25:47Z</time>
      </trkpt>
      <trkpt lat="49.20854" lon="7.00782">
        <ele>295</ele>
        <time>2012-01-22T09:25:49Z</time>
      </trkpt>
      <trkpt lat="49.20852" lon="7.00785">
        <ele>296</ele>
        <time>2012-01-22T09:25:51Z</time>
      </trkpt>
      <trkpt lat="49.2085" lon="7.00788">
        <ele>296</ele>
        <time>2012-01-22T09:25:53Z</time>
      </trkpt>
      <trkpt lat="49.20848" lon="7.00791">
        <ele>296</ele>
        <time>2012-01-22T09:25:55Z</time>
      </trkpt>
      <trkpt lat="49.20847" lon="7.00792">
        <ele>296</ele>
        <time>2012-01-22T09:25:56Z</time>
      </trkpt>
      <trkpt lat="49.20846" lon="7.00794">
        <ele>296</ele>
        <time>2012-01-22T09:25:57Z</time>
      </trkpt>
      <trkpt lat="49.20845" lon="7.00795">
        <ele>296</ele>
        <time>2012-01-22T09:25:58Z</time>
      </trkpt>
      <trkpt lat="49.20844" lon="7.00797">
        <ele>296</ele>
        <time>2012-01-22T09:25:59Z</time>
      </trkpt>
      <trkpt lat="49.20843" lon="7.00799">
        <ele>296</ele>
        <time>2012-01-22T09:26:00Z</time>
      </trkpt>
      <trkpt lat="49.20842" lon="7.008">
        <ele>296</ele>
        <time>2012-01-22T09:26:01Z</time>
      </trkpt>
      <trkpt lat="49.20841" lon="7.00801">
        <ele>296</ele>
        <time>2012-01-22T09:26:02Z</time>
      </trkpt>
      <trkpt lat="49.2084" lon="7.00803">
        <ele>296</ele>
        <time>2012-01-22T09:26:03Z</time>
      </trkpt>
      <trkpt lat="49.20838" lon="7.00805">
        <ele>296</ele>
        <time>2012-01-22T09:26:05Z</time>
      </trkpt>
      <trkpt lat="49.20837" lon="7.00807">
        <ele>296</ele>
        <time>2012-01-22T09:26:06Z</time>
      </trkpt>
      <trkpt lat="49.20835" lon="7.00809">
        <ele>296</ele>
        <time>2012-01-22T09:26:08Z</time>
      </trkpt>
      <trkpt lat="49.20834" lon="7.00812">
        <ele>296</ele>
        <time>2012-01-22T09:26:10Z</time>
      </trkpt>
      <trkpt lat="49.20833" lon="7.00814">
        <ele>296</ele>
        <time>2012-01-22T09:26:11Z</time>
      </trkpt>
      <trkpt lat="49.20832" lon="7.00817">
        <ele>296</ele>
        <time>2012-01-22T09:26:13Z</time>
      </trkpt>
      <trkpt lat="49.20832" lon="7.00819">
        <ele>296</ele>
        <time>2012-01-22T09:26:14Z</time>
      </trkpt>
      <trkpt lat="49.20831" lon="7.00821">
        <ele>296</ele>
        <time>2012-01-22T09:26:15Z</time>
      </trkpt>
      <trkpt lat="49.2083" lon="7.00823">
        <ele>296</ele>
        <time>2012-01-22T09:26:16Z</time>
      </trkpt>
      <trkpt lat="49.20828" lon="7.00826">
        <ele>296</ele>
        <time>2012-01-22T09:26:18Z</time>
      </trkpt>
      <trkpt lat="49.20827" lon="7.00828">
        <ele>296</ele>
        <time>2012-01-22T09:26:20Z</time>
      </trkpt>
      <trkpt lat="49.20825" lon="7.00832">
        <ele>296</ele>
        <time>2012-01-22T09:26:22Z</time>
      </trkpt>
      <trkpt lat="49.20825" lon="7.00835">
        <ele>296</ele>
        <time>2012-01-22T09:26:23Z</time>
      </trkpt>
      <trkpt lat="49.20824" lon="7.00838">
        <ele>296</ele>
        <time>2012-01-22T09:26:24Z</time>
      </trkpt>
      <trkpt lat="49.20823" lon="7.0084">
        <ele>296</ele>
        <time>2012-01-22T09:26:25Z</time>
      </trkpt>
      <trkpt lat="49.20822" lon="7.00844">
        <ele>296</ele>
        <time>2012-01-22T09:26:27Z</time>
      </trkpt>
      <trkpt lat="49.20822" lon="7.00846">
        <ele>296</ele>
        <time>2012-01-22T09:26:29Z</time>
      </trkpt>
      <trkpt lat="49.20821" lon="7.00849">
        <ele>296</ele>
        <time>2012-01-22T09:26:31Z</time>
      </trkpt>
      <trkpt lat="49.20819" lon="7.00853">
        <ele>296</ele>
        <time>2012-01-22T09:26:33Z</time>
      </trkpt>
      <trkpt lat="49.20819" lon="7.00856">
        <ele>296</ele>
        <time>2012-01-22T09:26:34Z</time>
      </trkpt>
      <trkpt lat="49.20818" lon="7.00859">
        <ele>296</ele>
        <time>2012-01-22T09:26:35Z</time>
      </trkpt>
      <trkpt lat="49.20818" lon="7.00861">
        <ele>296</ele>
        <time>2012-01-22T09:26:36Z</time>
      </trkpt>
      <trkpt lat="49.20818" lon="7.00863">
        <ele>296</ele>
        <time>2012-01-22T09:26:37Z</time>
      </trkpt>
      <trkpt lat="49.20818" lon="7.00865">
        <ele>296</ele>
        <time>2012-01-22T09:26:38Z</time>
      </trkpt>
      <trkpt lat="49.20818" lon="7.00867">
        <ele>296</ele>
        <time>2012-01-22T09:26:39Z</time>
      </trkpt>
      <trkpt lat="49.20818" lon="7.00869">
        <ele>296</ele>
        <time>2012-01-22T09:26:40Z</time>
      </trkpt>
      <trkpt lat="49.20819" lon="7.00871">
        <ele>296</ele>
        <time>2012-01-22T09:26:41Z</time>
      </trkpt>
      <trkpt lat="49.20819" lon="7.00873">
        <ele>296</ele>
        <time>2012-01-22T09:26:42Z</time>
      </trkpt>
      <trkpt lat="49.20819" lon="7.00875">
        <ele>296</ele>
        <time>2012-01-22T09:26:43Z</time>
      </trkpt>
      <trkpt lat="49.20819" lon="7.00878">
        <ele>296</ele>
        <time>2012-01-22T09:26:45Z</time>
      </trkpt>
      <trkpt lat="49.20819" lon="7.0088">
        <ele>296</ele>
        <time>2012-01-22T09:26:46Z</time>
      </trkpt>
      <trkpt lat="49.20818" lon="7.00883">
        <ele>295</ele>
        <time>2012-01-22T09:26:48Z</time>
      </trkpt>
      <trkpt lat="49.20817" lon="7.00885">
        <ele>295</ele>
        <time>2012-01-22T09:26:49Z</time>
      </trkpt>
      <trkpt lat="49.20817" lon="7.00887">
        <ele>295</ele>
        <time>2012-01-22T09:26:50Z</time>
      </trkpt>
      <trkpt lat="49.20816" lon="7.0089">
        <ele>295</ele>
        <time>2012-01-22T09:26:51Z</time>
      </trkpt>
      <trkpt lat="49.20816" lon="7.00892">
        <ele>295</ele>
        <time>2012-01-22T09:26:52Z</time>
      </trkpt>
      <trkpt lat="49.20815" lon="7.00894">
        <ele>295</ele>
        <time>2012-01-22T09:26:53Z</time>
      </trkpt>
      <trkpt lat="49.20814" lon="7.00896">
        <ele>295</ele>
        <time>2012-01-22T09:26:54Z</time>
      </trkpt>
      <trkpt lat="49.20814" lon="7.00898">
        <ele>295</ele>
        <time>2012-01-22T09:26:56Z</time>
      </trkpt>
      <trkpt lat="49.20813" lon="7.00902">
        <ele>295</ele>
        <time>2012-01-22T09:26:58Z</time>
      </trkpt>
      <trkpt lat="49.20813" lon="7.00904">
        <ele>295</ele>
        <time>2012-01-22T09:26:59Z</time>
      </trkpt>
      <trkpt lat="49.20811" lon="7.00906">
        <ele>295</ele>
        <time>2012-01-22T09:27:00Z</time>
      </trkpt>
      <trkpt lat="49.20811" lon="7.00908">
        <ele>295</ele>
        <time>2012-01-22T09:27:01Z</time>
      </trkpt>
      <trkpt lat="49.2081" lon="7.0091">
        <ele>295</ele>
        <time>2012-01-22T09:27:02Z</time>
      </trkpt>
      <trkpt lat="49.20809" lon="7.00912">
        <ele>295</ele>
        <time>2012-01-22T09:27:03Z</time>
      </trkpt>
      <trkpt lat="49.20808" lon="7.00914">
        <ele>295</ele>
        <time>2012-01-22T09:27:04Z</time>
      </trkpt>
      <trkpt lat="49.20808" lon="7.00916">
        <ele>295</ele>
        <time>2012-01-22T09:27:05Z</time>
      </trkpt>
      <trkpt lat="49.20808" lon="7.00919">
        <ele>295</ele>
        <time>2012-01-22T09:27:07Z</time>
      </trkpt>
      <trkpt lat="49.20807" lon="7.00921">
        <ele>295</ele>
        <time>2012-01-22T09:27:08Z</time>
      </trkpt>
      <trkpt lat="49.20806" lon="7.00922">
        <ele>295</ele>
        <time>2012-01-22T09:27:09Z</time>
      </trkpt>
      <trkpt lat="49.20805" lon="7.00924">
        <ele>295</ele>
        <time>2012-01-22T09:27:10Z</time>
      </trkpt>
      <trkpt lat="49.20805" lon="7.00926">
        <ele>295</ele>
        <time>2012-01-22T09:27:11Z</time>
      </trkpt>
      <trkpt lat="49.20804" lon="7.00928">
        <ele>295</ele>
        <time>2012-01-22T09:27:12Z</time>
      </trkpt>
      <trkpt lat="49.20803" lon="7.0093">
        <ele>295</ele>
        <time>2012-01-22T09:27:13Z</time>
      </trkpt>
      <trkpt lat="49.20802" lon="7.00933">
        <ele>295</ele>
        <time>2012-01-22T09:27:14Z</time>
      </trkpt>
      <trkpt lat="49.20801" lon="7.00935">
        <ele>295</ele>
        <time>2012-01-22T09:27:15Z</time>
      </trkpt>
      <trkpt lat="49.208" lon="7.00936">
        <ele>295</ele>
        <time>2012-01-22T09:27:16Z</time>
      </trkpt>
      <trkpt lat="49.20799" lon="7.00938">
        <ele>295</ele>
        <time>2012-01-22T09:27:17Z</time>
      </trkpt>
      <trkpt lat="49.20798" lon="7.0094">
        <ele>295</ele>
        <time>2012-01-22T09:27:18Z</time>
      </trkpt>
      <trkpt lat="49.20797" lon="7.00942">
        <ele>295</ele>
        <time>2012-01-22T09:27:19Z</time>
      </trkpt>
      <trkpt lat="49.20797" lon="7.00944">
        <ele>295</ele>
        <time>2012-01-22T09:27:20Z</time>
      </trkpt>
      <trkpt lat="49.20796" lon="7.00946">
        <ele>295</ele>
        <time>2012-01-22T09:27:21Z</time>
      </trkpt>
      <trkpt lat="49.20796" lon="7.00948">
        <ele>295</ele>
        <time>2012-01-22T09:27:22Z</time>
      </trkpt>
      <trkpt lat="49.20796" lon="7.00949">
        <ele>294</ele>
        <time>2012-01-22T09:27:23Z</time>
      </trkpt>
      <trkpt lat="49.20795" lon="7.00952">
        <ele>294</ele>
        <time>2012-01-22T09:27:24Z</time>
      </trkpt>
      <trkpt lat="49.20795" lon="7.00954">
        <ele>294</ele>
        <time>2012-01-22T09:27:25Z</time>
      </trkpt>
      <trkpt lat="49.20794" lon="7.00955">
        <ele>294</ele>
        <time>2012-01-22T09:27:26Z</time>
      </trkpt>
      <trkpt lat="49.20794" lon="7.00957">
        <ele>294</ele>
        <time>2012-01-22T09:27:27Z</time>
      </trkpt>
      <trkpt lat="49.20793" lon="7.00961">
        <ele>294</ele>
        <time>2012-01-22T09:27:29Z</time>
      </trkpt>
      <trkpt lat="49.20792" lon="7.00964">
        <ele>294</ele>
        <time>2012-01-22T09:27:30Z</time>
      </trkpt>
      <trkpt lat="49.20792" lon="7.00966">
        <ele>293</ele>
        <time>2012-01-22T09:27:31Z</time>
      </trkpt>
      <trkpt lat="49.20791" lon="7.00968">
        <ele>293</ele>
        <time>2012-01-22T09:27:32Z</time>
      </trkpt>
      <trkpt lat="49.2079" lon="7.0097">
        <ele>293</ele>
        <time>2012-01-22T09:27:33Z</time>
      </trkpt>
      <trkpt lat="49.2079" lon="7.00972">
        <ele>292</ele>
        <time>2012-01-22T09:27:34Z</time>
      </trkpt>
      <trkpt lat="49.20789" lon="7.00975">
        <ele>292</ele>
        <time>2012-01-22T09:27:35Z</time>
      </trkpt>
      <trkpt lat="49.20788" lon="7.00977">
        <ele>292</ele>
        <time>2012-01-22T09:27:36Z</time>
      </trkpt>
      <trkpt lat="49.20787" lon="7.0098">
        <ele>292</ele>
        <time>2012-01-22T09:27:38Z</time>
      </trkpt>
      <trkpt lat="49.20787" lon="7.00982">
        <ele>292</ele>
        <time>2012-01-22T09:27:39Z</time>
      </trkpt>
      <trkpt lat="49.20786" lon="7.00984">
        <ele>292</ele>
        <time>2012-01-22T09:27:40Z</time>
      </trkpt>
      <trkpt lat="49.20786" lon="7.00986">
        <ele>292</ele>
        <time>2012-01-22T09:27:41Z</time>
      </trkpt>
      <trkpt lat="49.20786" lon="7.00988">
        <ele>292</ele>
        <time>2012-01-22T09:27:42Z</time>
      </trkpt>
      <trkpt lat="49.20786" lon="7.00989">
        <ele>292</ele>
        <time>2012-01-22T09:27:43Z</time>
      </trkpt>
      <trkpt lat="49.20785" lon="7.00992">
        <ele>292</ele>
        <time>2012-01-22T09:27:44Z</time>
      </trkpt>
      <trkpt lat="49.20785" lon="7.00994">
        <ele>292</ele>
        <time>2012-01-22T09:27:45Z</time>
      </trkpt>
      <trkpt lat="49.20784" lon="7.00996">
        <ele>292</ele>
        <time>2012-01-22T09:27:46Z</time>
      </trkpt>
      <trkpt lat="49.20783" lon="7.00998">
        <ele>292</ele>
        <time>2012-01-22T09:27:47Z</time>
      </trkpt>
      <trkpt lat="49.20783" lon="7.01">
        <ele>292</ele>
        <time>2012-01-22T09:27:48Z</time>
      </trkpt>
      <trkpt lat="49.20784" lon="7.01002">
        <ele>292</ele>
        <time>2012-01-22T09:27:49Z</time>
      </trkpt>
      <trkpt lat="49.20783" lon="7.01004">
        <ele>292</ele>
        <time>2012-01-22T09:27:50Z</time>
      </trkpt>
      <trkpt lat="49.20783" lon="7.01006">
        <ele>291</ele>
        <time>2012-01-22T09:27:51Z</time>
      </trkpt>
      <trkpt lat="49.20782" lon="7.01008">
        <ele>291</ele>
        <time>2012-01-22T09:27:52Z</time>
      </trkpt>
      <trkpt lat="49.20782" lon="7.0101">
        <ele>291</ele>
        <time>2012-01-22T09:27:53Z</time>
      </trkpt>
      <trkpt lat="49.20781" lon="7.01012">
        <ele>290</ele>
        <time>2012-01-22T09:27:54Z</time>
      </trkpt>
      <trkpt lat="49.20781" lon="7.01014">
        <ele>290</ele>
        <time>2012-01-22T09:27:55Z</time>
      </trkpt>
      <trkpt lat="49.2078" lon="7.01016">
        <ele>290</ele>
        <time>2012-01-22T09:27:56Z</time>
      </trkpt>
      <trkpt lat="49.2078" lon="7.01017">
        <ele>290</ele>
        <time>2012-01-22T09:27:57Z</time>
      </trkpt>
      <trkpt lat="49.2078" lon="7.01019">
        <ele>289</ele>
        <time>2012-01-22T09:27:58Z</time>
      </trkpt>
      <trkpt lat="49.20779" lon="7.01021">
        <ele>289</ele>
        <time>2012-01-22T09:27:59Z</time>
      </trkpt>
      <trkpt lat="49.20779" lon="7.01023">
        <ele>289</ele>
        <time>2012-01-22T09:28:00Z</time>
      </trkpt>
      <trkpt lat="49.20779" lon="7.01026">
        <ele>289</ele>
        <time>2012-01-22T09:28:01Z</time>
      </trkpt>
      <trkpt lat="49.20778" lon="7.01029">
        <ele>288</ele>
        <time>2012-01-22T09:28:03Z</time>
      </trkpt>
      <trkpt lat="49.20778" lon="7.01031">
        <ele>288</ele>
        <time>2012-01-22T09:28:04Z</time>
      </trkpt>
      <trkpt lat="49.20778" lon="7.01033">
        <ele>288</ele>
        <time>2012-01-22T09:28:05Z</time>
      </trkpt>
      <trkpt lat="49.20778" lon="7.01036">
        <ele>288</ele>
        <time>2012-01-22T09:28:06Z</time>
      </trkpt>
      <trkpt lat="49.20778" lon="7.01038">
        <ele>288</ele>
        <time>2012-01-22T09:28:07Z</time>
      </trkpt>
      <trkpt lat="49.20778" lon="7.01041">
        <ele>288</ele>
        <time>2012-01-22T09:28:08Z</time>
      </trkpt>
      <trkpt lat="49.20778" lon="7.01043">
        <ele>288</ele>
        <time>2012-01-22T09:28:09Z</time>
      </trkpt>
      <trkpt lat="49.20778" lon="7.01045">
        <ele>288</ele>
        <time>2012-01-22T09:28:10Z</time>
      </trkpt>
      <trkpt lat="49.20778" lon="7.01048">
        <ele>288</ele>
        <time>2012-01-22T09:28:11Z</time>
      </trkpt>
      <trkpt lat="49.20778" lon="7.0105">
        <ele>288</ele>
        <time>2012-01-22T09:28:12Z</time>
      </trkpt>
      <trkpt lat="49.20778" lon="7.01052">
        <ele>288</ele>
        <time>2012-01-22T09:28:13Z</time>
      </trkpt>
      <trkpt lat="49.20778" lon="7.01054">
        <ele>288</ele>
        <time>2012-01-22T09:28:14Z</time>
      </trkpt>
      <trkpt lat="49.20778" lon="7.01056">
        <ele>288</ele>
        <time>2012-01-22T09:28:15Z</time>
      </trkpt>
      <trkpt lat="49.20778" lon="7.01058">
        <ele>288</ele>
        <time>2012-01-22T09:28:16Z</time>
      </trkpt>
      <trkpt lat="49.20778" lon="7.0106">
        <ele>288</ele>
        <time>2012-01-22T09:28:17Z</time>
      </trkpt>
      <trkpt lat="49.20778" lon="7.01062">
        <ele>288</ele>
        <time>2012-01-22T09:28:18Z</time>
      </trkpt>
      <trkpt lat="49.20778" lon="7.01064">
        <ele>288</ele>
        <time>2012-01-22T09:28:19Z</time>
      </trkpt>
      <trkpt lat="49.20777" lon="7.01068">
        <ele>288</ele>
        <time>2012-01-22T09:28:20Z</time>
      </trkpt>
      <trkpt lat="49.20776" lon="7.01072">
        <ele>288</ele>
        <time>2012-01-22T09:28:21Z</time>
      </trkpt>
      <trkpt lat="49.20776" lon="7.01074">
        <ele>288</ele>
        <time>2012-01-22T09:28:22Z</time>
      </trkpt>
      <trkpt lat="49.20777" lon="7.01077">
        <ele>288</ele>
        <time>2012-01-22T09:28:23Z</time>
      </trkpt>
      <trkpt lat="49.20777" lon="7.01079">
        <ele>288</ele>
        <time>2012-01-22T09:28:24Z</time>
      </trkpt>
      <trkpt lat="49.20776" lon="7.01081">
        <ele>288</ele>
        <time>2012-01-22T09:28:25Z</time>
      </trkpt>
      <trkpt lat="49.20776" lon="7.01083">
        <ele>288</ele>
        <time>2012-01-22T09:28:26Z</time>
      </trkpt>
      <trkpt lat="49.20776" lon="7.01086">
        <ele>288</ele>
        <time>2012-01-22T09:28:27Z</time>
      </trkpt>
      <trkpt lat="49.20776" lon="7.01088">
        <ele>288</ele>
        <time>2012-01-22T09:28:28Z</time>
      </trkpt>
      <trkpt lat="49.20776" lon="7.0109">
        <ele>288</ele>
        <time>2012-01-22T09:28:29Z</time>
      </trkpt>
      <trkpt lat="49.20776" lon="7.01092">
        <ele>288</ele>
        <time>2012-01-22T09:28:30Z</time>
      </trkpt>
      <trkpt lat="49.20776" lon="7.01094">
        <ele>288</ele>
        <time>2012-01-22T09:28:31Z</time>
      </trkpt>
      <trkpt lat="49.20776" lon="7.01096">
        <ele>288</ele>
        <time>2012-01-22T09:28:32Z</time>
      </trkpt>
      <trkpt lat="49.20776" lon="7.01098">
        <ele>288</ele>
        <time>2012-01-22T09:28:33Z</time>
      </trkpt>
      <trkpt lat="49.20776" lon="7.011">
        <ele>288</ele>
        <time>2012-01-22T09:28:34Z</time>
      </trkpt>
      <trkpt lat="49.20775" lon="7.01102">
        <ele>288</ele>
        <time>2012-01-22T09:28:35Z</time>
      </trkpt>
      <trkpt lat="49.20775" lon="7.01104">
        <ele>288</ele>
        <time>2012-01-22T09:28:36Z</time>
      </trkpt>
      <trkpt lat="49.20774" lon="7.01107">
        <ele>288</ele>
        <time>2012-01-22T09:28:37Z</time>
      </trkpt>
      <trkpt lat="49.20773" lon="7.01108">
        <ele>288</ele>
        <time>2012-01-22T09:28:38Z</time>
      </trkpt>
      <trkpt lat="49.20773" lon="7.01112">
        <ele>287</ele>
        <time>2012-01-22T09:28:40Z</time>
      </trkpt>
      <trkpt lat="49.20773" lon="7.01113">
        <ele>287</ele>
        <time>2012-01-22T09:28:41Z</time>
      </trkpt>
      <trkpt lat="49.20773" lon="7.01115">
        <ele>287</ele>
        <time>2012-01-22T09:28:42Z</time>
      </trkpt>
      <trkpt lat="49.20773" lon="7.01118">
        <ele>287</ele>
        <time>2012-01-22T09:28:43Z</time>
      </trkpt>
      <trkpt lat="49.20772" lon="7.01119">
        <ele>287</ele>
        <time>2012-01-22T09:28:44Z</time>
      </trkpt>
      <trkpt lat="49.20771" lon="7.01121">
        <ele>287</ele>
        <time>2012-01-22T09:28:45Z</time>
      </trkpt>
      <trkpt lat="49.20771" lon="7.01122">
        <ele>287</ele>
        <time>2012-01-22T09:28:46Z</time>
      </trkpt>
      <trkpt lat="49.2077" lon="7.01124">
        <ele>287</ele>
        <time>2012-01-22T09:28:47Z</time>
      </trkpt>
      <trkpt lat="49.2077" lon="7.01126">
        <ele>287</ele>
        <time>2012-01-22T09:28:48Z</time>
      </trkpt>
      <trkpt lat="49.20769" lon="7.01128">
        <ele>287</ele>
        <time>2012-01-22T09:28:49Z</time>
      </trkpt>
      <trkpt lat="49.20768" lon="7.01131">
        <ele>287</ele>
        <time>2012-01-22T09:28:50Z</time>
      </trkpt>
      <trkpt lat="49.20768" lon="7.01132">
        <ele>287</ele>
        <time>2012-01-22T09:28:51Z</time>
      </trkpt>
      <trkpt lat="49.20767" lon="7.01135">
        <ele>287</ele>
        <time>2012-01-22T09:28:52Z</time>
      </trkpt>
      <trkpt lat="49.20766" lon="7.01138">
        <ele>287</ele>
        <time>2012-01-22T09:28:53Z</time>
      </trkpt>
      <trkpt lat="49.20766" lon="7.0114">
        <ele>287</ele>
        <time>2012-01-22T09:28:54Z</time>
      </trkpt>
      <trkpt lat="49.20765" lon="7.01143">
        <ele>287</ele>
        <time>2012-01-22T09:28:55Z</time>
      </trkpt>
      <trkpt lat="49.20765" lon="7.01144">
        <ele>287</ele>
        <time>2012-01-22T09:28:56Z</time>
      </trkpt>
      <trkpt lat="49.20764" lon="7.01147">
        <ele>287</ele>
        <time>2012-01-22T09:28:57Z</time>
      </trkpt>
      <trkpt lat="49.20763" lon="7.01149">
        <ele>287</ele>
        <time>2012-01-22T09:28:58Z</time>
      </trkpt>
      <trkpt lat="49.20763" lon="7.01152">
        <ele>287</ele>
        <time>2012-01-22T09:28:59Z</time>
      </trkpt>
      <trkpt lat="49.20763" lon="7.01153">
        <ele>287</ele>
        <time>2012-01-22T09:29:00Z</time>
      </trkpt>
      <trkpt lat="49.20762" lon="7.01156">
        <ele>287</ele>
        <time>2012-01-22T09:29:01Z</time>
      </trkpt>
      <trkpt lat="49.20761" lon="7.01157">
        <ele>287</ele>
        <time>2012-01-22T09:29:02Z</time>
      </trkpt>
      <trkpt lat="49.20761" lon="7.01159">
        <ele>287</ele>
        <time>2012-01-22T09:29:03Z</time>
      </trkpt>
      <trkpt lat="49.20759" lon="7.01161">
        <ele>287</ele>
        <time>2012-01-22T09:29:05Z</time>
      </trkpt>
      <trkpt lat="49.20758" lon="7.01164">
        <ele>287</ele>
        <time>2012-01-22T09:29:07Z</time>
      </trkpt>
      <trkpt lat="49.20758" lon="7.01166">
        <ele>287</ele>
        <time>2012-01-22T09:29:08Z</time>
      </trkpt>
      <trkpt lat="49.20757" lon="7.01168">
        <ele>287</ele>
        <time>2012-01-22T09:29:09Z</time>
      </trkpt>
      <trkpt lat="49.20757" lon="7.0117">
        <ele>287</ele>
        <time>2012-01-22T09:29:10Z</time>
      </trkpt>
      <trkpt lat="49.20756" lon="7.01172">
        <ele>287</ele>
        <time>2012-01-22T09:29:11Z</time>
      </trkpt>
      <trkpt lat="49.20755" lon="7.01174">
        <ele>287</ele>
        <time>2012-01-22T09:29:13Z</time>
      </trkpt>
      <trkpt lat="49.20753" lon="7.01178">
        <ele>287</ele>
        <time>2012-01-22T09:29:15Z</time>
      </trkpt>
      <trkpt lat="49.20753" lon="7.0118">
        <ele>287</ele>
        <time>2012-01-22T09:29:16Z</time>
      </trkpt>
      <trkpt lat="49.20752" lon="7.01182">
        <ele>287</ele>
        <time>2012-01-22T09:29:17Z</time>
      </trkpt>
      <trkpt lat="49.20752" lon="7.01184">
        <ele>287</ele>
        <time>2012-01-22T09:29:18Z</time>
      </trkpt>
      <trkpt lat="49.20752" lon="7.01186">
        <ele>287</ele>
        <time>2012-01-22T09:29:19Z</time>
      </trkpt>
      <trkpt lat="49.20752" lon="7.01188">
        <ele>287</ele>
        <time>2012-01-22T09:29:20Z</time>
      </trkpt>
      <trkpt lat="49.20751" lon="7.0119">
        <ele>287</ele>
        <time>2012-01-22T09:29:21Z</time>
      </trkpt>
      <trkpt lat="49.2075" lon="7.01192">
        <ele>287</ele>
        <time>2012-01-22T09:29:22Z</time>
      </trkpt>
      <trkpt lat="49.2075" lon="7.01194">
        <ele>286</ele>
        <time>2012-01-22T09:29:23Z</time>
      </trkpt>
      <trkpt lat="49.20749" lon="7.01197">
        <ele>286</ele>
        <time>2012-01-22T09:29:24Z</time>
      </trkpt>
      <trkpt lat="49.20748" lon="7.01199">
        <ele>286</ele>
        <time>2012-01-22T09:29:25Z</time>
      </trkpt>
      <trkpt lat="49.20748" lon="7.01201">
        <ele>285</ele>
        <time>2012-01-22T09:29:26Z</time>
      </trkpt>
      <trkpt lat="49.20747" lon="7.01203">
        <ele>285</ele>
        <time>2012-01-22T09:29:27Z</time>
      </trkpt>
      <trkpt lat="49.20746" lon="7.01205">
        <ele>285</ele>
        <time>2012-01-22T09:29:28Z</time>
      </trkpt>
      <trkpt lat="49.20746" lon="7.01207">
        <ele>285</ele>
        <time>2012-01-22T09:29:29Z</time>
      </trkpt>
      <trkpt lat="49.20745" lon="7.0121">
        <ele>285</ele>
        <time>2012-01-22T09:29:30Z</time>
      </trkpt>
      <trkpt lat="49.20745" lon="7.01211">
        <ele>285</ele>
        <time>2012-01-22T09:29:31Z</time>
      </trkpt>
      <trkpt lat="49.20745" lon="7.01215">
        <ele>285</ele>
        <time>2012-01-22T09:29:33Z</time>
      </trkpt>
      <trkpt lat="49.20744" lon="7.01217">
        <ele>285</ele>
        <time>2012-01-22T09:29:34Z</time>
      </trkpt>
      <trkpt lat="49.20744" lon="7.01219">
        <ele>285</ele>
        <time>2012-01-22T09:29:35Z</time>
      </trkpt>
      <trkpt lat="49.20744" lon="7.01221">
        <ele>285</ele>
        <time>2012-01-22T09:29:36Z</time>
      </trkpt>
      <trkpt lat="49.20743" lon="7.01224">
        <ele>285</ele>
        <time>2012-01-22T09:29:37Z</time>
      </trkpt>
      <trkpt lat="49.20742" lon="7.01226">
        <ele>285</ele>
        <time>2012-01-22T09:29:38Z</time>
      </trkpt>
      <trkpt lat="49.20742" lon="7.01228">
        <ele>284</ele>
        <time>2012-01-22T09:29:39Z</time>
      </trkpt>
      <trkpt lat="49.20741" lon="7.0123">
        <ele>284</ele>
        <time>2012-01-22T09:29:40Z</time>
      </trkpt>
      <trkpt lat="49.20741" lon="7.01233">
        <ele>284</ele>
        <time>2012-01-22T09:29:41Z</time>
      </trkpt>
      <trkpt lat="49.20741" lon="7.01234">
        <ele>284</ele>
        <time>2012-01-22T09:29:42Z</time>
      </trkpt>
      <trkpt lat="49.20739" lon="7.01238">
        <ele>284</ele>
        <time>2012-01-22T09:29:44Z</time>
      </trkpt>
      <trkpt lat="49.20739" lon="7.01242">
        <ele>284</ele>
        <time>2012-01-22T09:29:45Z</time>
      </trkpt>
      <trkpt lat="49.20739" lon="7.01244">
        <ele>284</ele>
        <time>2012-01-22T09:29:46Z</time>
      </trkpt>
      <trkpt lat="49.20738" lon="7.01247">
        <ele>284</ele>
        <time>2012-01-22T09:29:47Z</time>
      </trkpt>
      <trkpt lat="49.20737" lon="7.01249">
        <ele>284</ele>
        <time>2012-01-22T09:29:48Z</time>
      </trkpt>
      <trkpt lat="49.20736" lon="7.01252">
        <ele>284</ele>
        <time>2012-01-22T09:29:49Z</time>
      </trkpt>
      <trkpt lat="49.20736" lon="7.01254">
        <ele>285</ele>
        <time>2012-01-22T09:29:50Z</time>
      </trkpt>
      <trkpt lat="49.20735" lon="7.01256">
        <ele>285</ele>
        <time>2012-01-22T09:29:51Z</time>
      </trkpt>
      <trkpt lat="49.20735" lon="7.01259">
        <ele>286</ele>
        <time>2012-01-22T09:29:52Z</time>
      </trkpt>
      <trkpt lat="49.20734" lon="7.01262">
        <ele>287</ele>
        <time>2012-01-22T09:29:53Z</time>
      </trkpt>
      <trkpt lat="49.20734" lon="7.01265">
        <ele>287</ele>
        <time>2012-01-22T09:29:54Z</time>
      </trkpt>
      <trkpt lat="49.20733" lon="7.01268">
        <ele>288</ele>
        <time>2012-01-22T09:29:55Z</time>
      </trkpt>
      <trkpt lat="49.20732" lon="7.0127">
        <ele>288</ele>
        <time>2012-01-22T09:29:56Z</time>
      </trkpt>
      <trkpt lat="49.20732" lon="7.01272">
        <ele>288</ele>
        <time>2012-01-22T09:29:57Z</time>
      </trkpt>
      <trkpt lat="49.20731" lon="7.01274">
        <ele>288</ele>
        <time>2012-01-22T09:29:58Z</time>
      </trkpt>
      <trkpt lat="49.2073" lon="7.01277">
        <ele>288</ele>
        <time>2012-01-22T09:30:00Z</time>
      </trkpt>
      <trkpt lat="49.20729" lon="7.01279">
        <ele>288</ele>
        <time>2012-01-22T09:30:01Z</time>
      </trkpt>
      <trkpt lat="49.20728" lon="7.01282">
        <ele>288</ele>
        <time>2012-01-22T09:30:03Z</time>
      </trkpt>
      <trkpt lat="49.20726" lon="7.01283">
        <ele>288</ele>
        <time>2012-01-22T09:30:05Z</time>
      </trkpt>
      <trkpt lat="49.20724" lon="7.01284">
        <ele>288</ele>
        <time>2012-01-22T09:30:07Z</time>
      </trkpt>
      <trkpt lat="49.20723" lon="7.01285">
        <ele>289</ele>
        <time>2012-01-22T09:30:10Z</time>
      </trkpt>
      <trkpt lat="49.20723" lon="7.01284">
        <ele>291</ele>
        <time>2012-01-22T09:30:13Z</time>
      </trkpt>
      <trkpt lat="49.20724" lon="7.01282">
        <ele>293</ele>
        <time>2012-01-22T09:30:18Z</time>
      </trkpt>
      <trkpt lat="49.20723" lon="7.01281">
        <ele>297</ele>
        <time>2012-01-22T09:30:25Z</time>
      </trkpt>
      <trkpt lat="49.20721" lon="7.0128">
        <ele>298</ele>
        <time>2012-01-22T09:30:32Z</time>
      </trkpt>
      <trkpt lat="49.2072" lon="7.01279">
        <ele>299</ele>
        <time>2012-01-22T09:30:34Z</time>
      </trkpt>
      <trkpt lat="49.20719" lon="7.01281">
        <ele>301</ele>
        <time>2012-01-22T09:30:41Z</time>
      </trkpt>
      <trkpt lat="49.20718" lon="7.01283">
        <ele>301</ele>
        <time>2012-01-22T09:30:44Z</time>
      </trkpt>
      <trkpt lat="49.20717" lon="7.01284">
        <ele>301</ele>
        <time>2012-01-22T09:30:51Z</time>
      </trkpt>
      <trkpt lat="49.20716" lon="7.01284">
        <ele>302</ele>
        <time>2012-01-22T09:30:53Z</time>
      </trkpt>
      <trkpt lat="49.20715" lon="7.01284">
        <ele>303</ele>
        <time>2012-01-22T09:30:56Z</time>
      </trkpt>
      <trkpt lat="49.20714" lon="7.01286">
        <ele>304</ele>
        <time>2012-01-22T09:31:02Z</time>
      </trkpt>
      <trkpt lat="49.20715" lon="7.01286">
        <ele>305</ele>
        <time>2012-01-22T09:31:04Z</time>
      </trkpt>
      <trkpt lat="49.20716" lon="7.01286">
        <ele>305</ele>
        <time>2012-01-22T09:31:10Z</time>
      </trkpt>
      <trkpt lat="49.20718" lon="7.01286">
        <ele>307</ele>
        <time>2012-01-22T09:31:22Z</time>
      </trkpt>
      <trkpt lat="49.20719" lon="7.01285">
        <ele>308</ele>
        <time>2012-01-22T09:31:30Z</time>
      </trkpt>
      <trkpt lat="49.2072" lon="7.01284">
        <ele>308</ele>
        <time>2012-01-22T09:31:34Z</time>
      </trkpt>
      <trkpt lat="49.20721" lon="7.01284">
        <ele>308</ele>
        <time>2012-01-22T09:31:40Z</time>
      </trkpt>
      <trkpt lat="49.20722" lon="7.01282">
        <ele>308</ele>
        <time>2012-01-22T09:32:05Z</time>
      </trkpt>
      <trkpt lat="49.20721" lon="7.01281">
        <ele>309</ele>
        <time>2012-01-22T09:32:10Z</time>
      </trkpt>
      <trkpt lat="49.20723" lon="7.01279">
        <ele>312</ele>
        <time>2012-01-22T09:32:14Z</time>
      </trkpt>
      <trkpt lat="49.20721" lon="7.01279">
        <ele>314</ele>
        <time>2012-01-22T09:32:28Z</time>
      </trkpt>
      <trkpt lat="49.2072" lon="7.01279">
        <ele>314</ele>
        <time>2012-01-22T09:32:31Z</time>
      </trkpt>
      <trkpt lat="49.20719" lon="7.0128">
        <ele>314</ele>
        <time>2012-01-22T09:32:37Z</time>
      </trkpt>
      <trkpt lat="49.20718" lon="7.01282">
        <ele>311</ele>
        <time>2012-01-22T09:32:41Z</time>
      </trkpt>
      <trkpt lat="49.20717" lon="7.01284">
        <ele>310</ele>
        <time>2012-01-22T09:32:45Z</time>
      </trkpt>
      <trkpt lat="49.20715" lon="7.01286">
        <ele>309</ele>
        <time>2012-01-22T09:32:47Z</time>
      </trkpt>
      <trkpt lat="49.20714" lon="7.01288">
        <ele>308</ele>
        <time>2012-01-22T09:32:51Z</time>
      </trkpt>
      <trkpt lat="49.20713" lon="7.01289">
        <ele>307</ele>
        <time>2012-01-22T09:33:02Z</time>
      </trkpt>
      <trkpt lat="49.20712" lon="7.01291">
        <ele>307</ele>
        <time>2012-01-22T09:33:09Z</time>
      </trkpt>
      <trkpt lat="49.20713" lon="7.0129">
        <ele>307</ele>
        <time>2012-01-22T09:33:13Z</time>
      </trkpt>
      <trkpt lat="49.20715" lon="7.01288">
        <ele>307</ele>
        <time>2012-01-22T09:33:26Z</time>
      </trkpt>
      <trkpt lat="49.20716" lon="7.01287">
        <ele>307</ele>
        <time>2012-01-22T09:33:33Z</time>
      </trkpt>
      <trkpt lat="49.20715" lon="7.01285">
        <ele>307</ele>
        <time>2012-01-22T09:33:37Z</time>
      </trkpt>
      <trkpt lat="49.20715" lon="7.01283">
        <ele>307</ele>
        <time>2012-01-22T09:33:38Z</time>
      </trkpt>
      <trkpt lat="49.20715" lon="7.0128">
        <ele>307</ele>
        <time>2012-01-22T09:33:40Z</time>
      </trkpt>
      <trkpt lat="49.20715" lon="7.01279">
        <ele>307</ele>
        <time>2012-01-22T09:33:41Z</time>
      </trkpt>
      <trkpt lat="49.20715" lon="7.01277">
        <ele>307</ele>
        <time>2012-01-22T09:33:42Z</time>
      </trkpt>
      <trkpt lat="49.20715" lon="7.01275">
        <ele>307</ele>
        <time>2012-01-22T09:33:43Z</time>
      </trkpt>
      <trkpt lat="49.20714" lon="7.01272">
        <ele>307</ele>
        <time>2012-01-22T09:33:45Z</time>
      </trkpt>
      <trkpt lat="49.20715" lon="7.01271">
        <ele>307</ele>
        <time>2012-01-22T09:33:46Z</time>
      </trkpt>
      <trkpt lat="49.20714" lon="7.01269">
        <ele>307</ele>
        <time>2012-01-22T09:33:47Z</time>
      </trkpt>
      <trkpt lat="49.20714" lon="7.01267">
        <ele>307</ele>
        <time>2012-01-22T09:33:48Z</time>
      </trkpt>
      <trkpt lat="49.20713" lon="7.01264">
        <ele>307</ele>
        <time>2012-01-22T09:33:50Z</time>
      </trkpt>
      <trkpt lat="49.20713" lon="7.01262">
        <ele>307</ele>
        <time>2012-01-22T09:33:51Z</time>
      </trkpt>
      <trkpt lat="49.20712" lon="7.0126">
        <ele>307</ele>
        <time>2012-01-22T09:33:53Z</time>
      </trkpt>
      <trkpt lat="49.20711" lon="7.01257">
        <ele>307</ele>
        <time>2012-01-22T09:33:55Z</time>
      </trkpt>
      <trkpt lat="49.20711" lon="7.01255">
        <ele>307</ele>
        <time>2012-01-22T09:33:56Z</time>
      </trkpt>
      <trkpt lat="49.2071" lon="7.01253">
        <ele>307</ele>
        <time>2012-01-22T09:33:57Z</time>
      </trkpt>
      <trkpt lat="49.20709" lon="7.0125">
        <ele>307</ele>
        <time>2012-01-22T09:33:59Z</time>
      </trkpt>
      <trkpt lat="49.20708" lon="7.01248">
        <ele>307</ele>
        <time>2012-01-22T09:34:00Z</time>
      </trkpt>
      <trkpt lat="49.20707" lon="7.01245">
        <ele>307</ele>
        <time>2012-01-22T09:34:02Z</time>
      </trkpt>
      <trkpt lat="49.20707" lon="7.01243">
        <ele>307</ele>
        <time>2012-01-22T09:34:03Z</time>
      </trkpt>
      <trkpt lat="49.20706" lon="7.01242">
        <ele>307</ele>
        <time>2012-01-22T09:34:04Z</time>
      </trkpt>
      <trkpt lat="49.20705" lon="7.01239">
        <ele>307</ele>
        <time>2012-01-22T09:34:06Z</time>
      </trkpt>
      <trkpt lat="49.20705" lon="7.01237">
        <ele>307</ele>
        <time>2012-01-22T09:34:08Z</time>
      </trkpt>
      <trkpt lat="49.20704" lon="7.01235">
        <ele>307</ele>
        <time>2012-01-22T09:34:09Z</time>
      </trkpt>
      <trkpt lat="49.20704" lon="7.01233">
        <ele>307</ele>
        <time>2012-01-22T09:34:10Z</time>
      </trkpt>
      <trkpt lat="49.20704" lon="7.01231">
        <ele>307</ele>
        <time>2012-01-22T09:34:11Z</time>
      </trkpt>
      <trkpt lat="49.20703" lon="7.01228">
        <ele>307</ele>
        <time>2012-01-22T09:34:13Z</time>
      </trkpt>
      <trkpt lat="49.20702" lon="7.01225">
        <ele>307</ele>
        <time>2012-01-22T09:34:15Z</time>
      </trkpt>
      <trkpt lat="49.20701" lon="7.01222">
        <ele>307</ele>
        <time>2012-01-22T09:34:17Z</time>
      </trkpt>
      <trkpt lat="49.207" lon="7.0122">
        <ele>307</ele>
        <time>2012-01-22T09:34:18Z</time>
      </trkpt>
      <trkpt lat="49.20699" lon="7.01218">
        <ele>307</ele>
        <time>2012-01-22T09:34:19Z</time>
      </trkpt>
      <trkpt lat="49.20699" lon="7.01216">
        <ele>307</ele>
        <time>2012-01-22T09:34:20Z</time>
      </trkpt>
      <trkpt lat="49.20699" lon="7.01214">
        <ele>307</ele>
        <time>2012-01-22T09:34:22Z</time>
      </trkpt>
      <trkpt lat="49.20699" lon="7.01211">
        <ele>307</ele>
        <time>2012-01-22T09:34:24Z</time>
      </trkpt>
      <trkpt lat="49.20698" lon="7.01209">
        <ele>307</ele>
        <time>2012-01-22T09:34:25Z</time>
      </trkpt>
      <trkpt lat="49.20697" lon="7.01207">
        <ele>307</ele>
        <time>2012-01-22T09:34:26Z</time>
      </trkpt>
      <trkpt lat="49.20697" lon="7.01205">
        <ele>307</ele>
        <time>2012-01-22T09:34:27Z</time>
      </trkpt>
      <trkpt lat="49.20697" lon="7.01203">
        <ele>307</ele>
        <time>2012-01-22T09:34:28Z</time>
      </trkpt>
      <trkpt lat="49.20697" lon="7.01201">
        <ele>307</ele>
        <time>2012-01-22T09:34:29Z</time>
      </trkpt>
      <trkpt lat="49.20696" lon="7.01199">
        <ele>307</ele>
        <time>2012-01-22T09:34:30Z</time>
      </trkpt>
      <trkpt lat="49.20696" lon="7.01198">
        <ele>307</ele>
        <time>2012-01-22T09:34:31Z</time>
      </trkpt>
      <trkpt lat="49.20694" lon="7.01194">
        <ele>307</ele>
        <time>2012-01-22T09:34:33Z</time>
      </trkpt>
      <trkpt lat="49.20693" lon="7.01191">
        <ele>307</ele>
        <time>2012-01-22T09:34:35Z</time>
      </trkpt>
      <trkpt lat="49.20692" lon="7.01189">
        <ele>307</ele>
        <time>2012-01-22T09:34:36Z</time>
      </trkpt>
      <trkpt lat="49.20692" lon="7.01187">
        <ele>307</ele>
        <time>2012-01-22T09:34:37Z</time>
      </trkpt>
      <trkpt lat="49.20691" lon="7.01185">
        <ele>307</ele>
        <time>2012-01-22T09:34:39Z</time>
      </trkpt>
      <trkpt lat="49.20691" lon="7.01183">
        <ele>307</ele>
        <time>2012-01-22T09:34:40Z</time>
      </trkpt>
      <trkpt lat="49.20691" lon="7.0118">
        <ele>307</ele>
        <time>2012-01-22T09:34:42Z</time>
      </trkpt>
      <trkpt lat="49.20691" lon="7.01179">
        <ele>307</ele>
        <time>2012-01-22T09:34:43Z</time>
      </trkpt>
      <trkpt lat="49.2069" lon="7.01176">
        <ele>308</ele>
        <time>2012-01-22T09:34:44Z</time>
      </trkpt>
      <trkpt lat="49.20689" lon="7.01174">
        <ele>309</ele>
        <time>2012-01-22T09:34:46Z</time>
      </trkpt>
      <trkpt lat="49.20689" lon="7.01172">
        <ele>309</ele>
        <time>2012-01-22T09:34:47Z</time>
      </trkpt>
      <trkpt lat="49.20689" lon="7.01169">
        <ele>310</ele>
        <time>2012-01-22T09:34:49Z</time>
      </trkpt>
      <trkpt lat="49.20688" lon="7.01166">
        <ele>311</ele>
        <time>2012-01-22T09:34:51Z</time>
      </trkpt>
      <trkpt lat="49.20687" lon="7.01164">
        <ele>312</ele>
        <time>2012-01-22T09:34:52Z</time>
      </trkpt>
      <trkpt lat="49.20687" lon="7.01162">
        <ele>312</ele>
        <time>2012-01-22T09:34:53Z</time>
      </trkpt>
      <trkpt lat="49.20686" lon="7.0116">
        <ele>312</ele>
        <time>2012-01-22T09:34:54Z</time>
      </trkpt>
      <trkpt lat="49.20686" lon="7.01158">
        <ele>313</ele>
        <time>2012-01-22T09:34:55Z</time>
      </trkpt>
      <trkpt lat="49.20686" lon="7.01156">
        <ele>313</ele>
        <time>2012-01-22T09:34:56Z</time>
      </trkpt>
      <trkpt lat="49.20686" lon="7.01154">
        <ele>313</ele>
        <time>2012-01-22T09:34:57Z</time>
      </trkpt>
      <trkpt lat="49.20685" lon="7.01151">
        <ele>313</ele>
        <time>2012-01-22T09:34:59Z</time>
      </trkpt>
      <trkpt lat="49.20684" lon="7.01149">
        <ele>313</ele>
        <time>2012-01-22T09:35:00Z</time>
      </trkpt>
      <trkpt lat="49.20684" lon="7.01146">
        <ele>313</ele>
        <time>2012-01-22T09:35:01Z</time>
      </trkpt>
      <trkpt lat="49.20683" lon="7.01144">
        <ele>313</ele>
        <time>2012-01-22T09:35:02Z</time>
      </trkpt>
      <trkpt lat="49.20683" lon="7.01142">
        <ele>313</ele>
        <time>2012-01-22T09:35:03Z</time>
      </trkpt>
      <trkpt lat="49.20681" lon="7.01139">
        <ele>313</ele>
        <time>2012-01-22T09:35:04Z</time>
      </trkpt>
      <trkpt lat="49.20681" lon="7.01137">
        <ele>313</ele>
        <time>2012-01-22T09:35:05Z</time>
      </trkpt>
      <trkpt lat="49.20681" lon="7.01135">
        <ele>313</ele>
        <time>2012-01-22T09:35:06Z</time>
      </trkpt>
      <trkpt lat="49.2068" lon="7.01133">
        <ele>313</ele>
        <time>2012-01-22T09:35:07Z</time>
      </trkpt>
      <trkpt lat="49.2068" lon="7.01131">
        <ele>313</ele>
        <time>2012-01-22T09:35:08Z</time>
      </trkpt>
      <trkpt lat="49.20679" lon="7.01129">
        <ele>314</ele>
        <time>2012-01-22T09:35:09Z</time>
      </trkpt>
      <trkpt lat="49.20678" lon="7.01126">
        <ele>314</ele>
        <time>2012-01-22T09:35:10Z</time>
      </trkpt>
      <trkpt lat="49.20678" lon="7.01124">
        <ele>314</ele>
        <time>2012-01-22T09:35:12Z</time>
      </trkpt>
      <trkpt lat="49.20677" lon="7.01122">
        <ele>314</ele>
        <time>2012-01-22T09:35:13Z</time>
      </trkpt>
      <trkpt lat="49.20676" lon="7.01119">
        <ele>314</ele>
        <time>2012-01-22T09:35:15Z</time>
      </trkpt>
      <trkpt lat="49.20676" lon="7.01117">
        <ele>314</ele>
        <time>2012-01-22T09:35:16Z</time>
      </trkpt>
      <trkpt lat="49.20676" lon="7.01114">
        <ele>314</ele>
        <time>2012-01-22T09:35:18Z</time>
      </trkpt>
      <trkpt lat="49.20676" lon="7.01113">
        <ele>314</ele>
        <time>2012-01-22T09:35:19Z</time>
      </trkpt>
      <trkpt lat="49.20676" lon="7.01111">
        <ele>314</ele>
        <time>2012-01-22T09:35:20Z</time>
      </trkpt>
      <trkpt lat="49.20675" lon="7.01109">
        <ele>314</ele>
        <time>2012-01-22T09:35:21Z</time>
      </trkpt>
      <trkpt lat="49.20675" lon="7.01108">
        <ele>314</ele>
        <time>2012-01-22T09:35:22Z</time>
      </trkpt>
      <trkpt lat="49.20674" lon="7.01106">
        <ele>314</ele>
        <time>2012-01-22T09:35:23Z</time>
      </trkpt>
      <trkpt lat="49.20673" lon="7.01103">
        <ele>314</ele>
        <time>2012-01-22T09:35:25Z</time>
      </trkpt>
      <trkpt lat="49.20673" lon="7.01101">
        <ele>314</ele>
        <time>2012-01-22T09:35:26Z</time>
      </trkpt>
      <trkpt lat="49.20672" lon="7.01098">
        <ele>314</ele>
        <time>2012-01-22T09:35:28Z</time>
      </trkpt>
      <trkpt lat="49.20671" lon="7.01096">
        <ele>314</ele>
        <time>2012-01-22T09:35:29Z</time>
      </trkpt>
      <trkpt lat="49.2067" lon="7.01094">
        <ele>314</ele>
        <time>2012-01-22T09:35:30Z</time>
      </trkpt>
      <trkpt lat="49.2067" lon="7.01092">
        <ele>314</ele>
        <time>2012-01-22T09:35:31Z</time>
      </trkpt>
      <trkpt lat="49.20669" lon="7.01088">
        <ele>314</ele>
        <time>2012-01-22T09:35:33Z</time>
      </trkpt>
      <trkpt lat="49.20668" lon="7.01087">
        <ele>314</ele>
        <time>2012-01-22T09:35:34Z</time>
      </trkpt>
      <trkpt lat="49.20668" lon="7.01085">
        <ele>314</ele>
        <time>2012-01-22T09:35:35Z</time>
      </trkpt>
      <trkpt lat="49.20667" lon="7.01083">
        <ele>314</ele>
        <time>2012-01-22T09:35:36Z</time>
      </trkpt>
      <trkpt lat="49.20666" lon="7.01081">
        <ele>314</ele>
        <time>2012-01-22T09:35:37Z</time>
      </trkpt>
      <trkpt lat="49.20665" lon="7.01079">
        <ele>314</ele>
        <time>2012-01-22T09:35:38Z</time>
      </trkpt>
      <trkpt lat="49.20665" lon="7.01077">
        <ele>314</ele>
        <time>2012-01-22T09:35:39Z</time>
      </trkpt>
      <trkpt lat="49.20665" lon="7.01074">
        <ele>314</ele>
        <time>2012-01-22T09:35:41Z</time>
      </trkpt>
      <trkpt lat="49.20664" lon="7.01072">
        <ele>314</ele>
        <time>2012-01-22T09:35:42Z</time>
      </trkpt>
      <trkpt lat="49.20664" lon="7.01071">
        <ele>314</ele>
        <time>2012-01-22T09:35:43Z</time>
      </trkpt>
      <trkpt lat="49.20663" lon="7.01069">
        <ele>314</ele>
        <time>2012-01-22T09:35:44Z</time>
      </trkpt>
      <trkpt lat="49.20663" lon="7.01067">
        <ele>314</ele>
        <time>2012-01-22T09:35:45Z</time>
      </trkpt>
      <trkpt lat="49.20662" lon="7.01065">
        <ele>314</ele>
        <time>2012-01-22T09:35:46Z</time>
      </trkpt>
      <trkpt lat="49.20661" lon="7.01062">
        <ele>314</ele>
        <time>2012-01-22T09:35:48Z</time>
      </trkpt>
      <trkpt lat="49.2066" lon="7.0106">
        <ele>314</ele>
        <time>2012-01-22T09:35:49Z</time>
      </trkpt>
      <trkpt lat="49.2066" lon="7.01058">
        <ele>314</ele>
        <time>2012-01-22T09:35:50Z</time>
      </trkpt>
      <trkpt lat="49.20659" lon="7.01056">
        <ele>314</ele>
        <time>2012-01-22T09:35:51Z</time>
      </trkpt>
      <trkpt lat="49.20658" lon="7.01053">
        <ele>314</ele>
        <time>2012-01-22T09:35:52Z</time>
      </trkpt>
      <trkpt lat="49.20658" lon="7.01052">
        <ele>314</ele>
        <time>2012-01-22T09:35:53Z</time>
      </trkpt>
      <trkpt lat="49.20658" lon="7.01049">
        <ele>314</ele>
        <time>2012-01-22T09:35:55Z</time>
      </trkpt>
      <trkpt lat="49.20656" lon="7.01045">
        <ele>314</ele>
        <time>2012-01-22T09:35:57Z</time>
      </trkpt>
      <trkpt lat="49.20655" lon="7.01043">
        <ele>314</ele>
        <time>2012-01-22T09:35:58Z</time>
      </trkpt>
      <trkpt lat="49.20655" lon="7.01041">
        <ele>314</ele>
        <time>2012-01-22T09:35:59Z</time>
      </trkpt>
      <trkpt lat="49.20654" lon="7.01039">
        <ele>314</ele>
        <time>2012-01-22T09:36:00Z</time>
      </trkpt>
      <trkpt lat="49.20653" lon="7.01037">
        <ele>314</ele>
        <time>2012-01-22T09:36:01Z</time>
      </trkpt>
      <trkpt lat="49.20653" lon="7.01035">
        <ele>314</ele>
        <time>2012-01-22T09:36:02Z</time>
      </trkpt>
      <trkpt lat="49.20652" lon="7.01033">
        <ele>314</ele>
        <time>2012-01-22T09:36:03Z</time>
      </trkpt>
      <trkpt lat="49.20652" lon="7.01032">
        <ele>314</ele>
        <time>2012-01-22T09:36:04Z</time>
      </trkpt>
      <trkpt lat="49.20651" lon="7.01028">
        <ele>314</ele>
        <time>2012-01-22T09:36:06Z</time>
      </trkpt>
      <trkpt lat="49.2065" lon="7.01025">
        <ele>314</ele>
        <time>2012-01-22T09:36:08Z</time>
      </trkpt>
      <trkpt lat="49.2065" lon="7.01023">
        <ele>314</ele>
        <time>2012-01-22T09:36:10Z</time>
      </trkpt>
      <trkpt lat="49.2065" lon="7.0102">
        <ele>314</ele>
        <time>2012-01-22T09:36:12Z</time>
      </trkpt>
      <trkpt lat="49.20649" lon="7.01016">
        <ele>314</ele>
        <time>2012-01-22T09:36:14Z</time>
      </trkpt>
      <trkpt lat="49.20648" lon="7.01013">
        <ele>314</ele>
        <time>2012-01-22T09:36:16Z</time>
      </trkpt>
      <trkpt lat="49.20647" lon="7.01011">
        <ele>314</ele>
        <time>2012-01-22T09:36:17Z</time>
      </trkpt>
      <trkpt lat="49.20646" lon="7.01008">
        <ele>314</ele>
        <time>2012-01-22T09:36:19Z</time>
      </trkpt>
      <trkpt lat="49.20645" lon="7.01006">
        <ele>314</ele>
        <time>2012-01-22T09:36:20Z</time>
      </trkpt>
      <trkpt lat="49.20645" lon="7.01004">
        <ele>314</ele>
        <time>2012-01-22T09:36:21Z</time>
      </trkpt>
      <trkpt lat="49.20644" lon="7.01002">
        <ele>314</ele>
        <time>2012-01-22T09:36:22Z</time>
      </trkpt>
      <trkpt lat="49.20643" lon="7.01">
        <ele>314</ele>
        <time>2012-01-22T09:36:23Z</time>
      </trkpt>
      <trkpt lat="49.20642" lon="7.00998">
        <ele>314</ele>
        <time>2012-01-22T09:36:24Z</time>
      </trkpt>
      <trkpt lat="49.20642" lon="7.00996">
        <ele>314</ele>
        <time>2012-01-22T09:36:25Z</time>
      </trkpt>
      <trkpt lat="49.20641" lon="7.00994">
        <ele>314</ele>
        <time>2012-01-22T09:36:26Z</time>
      </trkpt>
      <trkpt lat="49.20641" lon="7.00992">
        <ele>314</ele>
        <time>2012-01-22T09:36:27Z</time>
      </trkpt>
      <trkpt lat="49.2064" lon="7.00989">
        <ele>314</ele>
        <time>2012-01-22T09:36:29Z</time>
      </trkpt>
      <trkpt lat="49.20639" lon="7.00986">
        <ele>314</ele>
        <time>2012-01-22T09:36:31Z</time>
      </trkpt>
      <trkpt lat="49.20639" lon="7.00985">
        <ele>314</ele>
        <time>2012-01-22T09:36:32Z</time>
      </trkpt>
      <trkpt lat="49.20639" lon="7.00983">
        <ele>314</ele>
        <time>2012-01-22T09:36:33Z</time>
      </trkpt>
      <trkpt lat="49.20638" lon="7.00981">
        <ele>314</ele>
        <time>2012-01-22T09:36:34Z</time>
      </trkpt>
      <trkpt lat="49.20637" lon="7.00979">
        <ele>314</ele>
        <time>2012-01-22T09:36:35Z</time>
      </trkpt>
      <trkpt lat="49.20637" lon="7.00975">
        <ele>314</ele>
        <time>2012-01-22T09:36:37Z</time>
      </trkpt>
      <trkpt lat="49.20636" lon="7.00974">
        <ele>314</ele>
        <time>2012-01-22T09:36:38Z</time>
      </trkpt>
      <trkpt lat="49.20635" lon="7.00971">
        <ele>314</ele>
        <time>2012-01-22T09:36:40Z</time>
      </trkpt>
      <trkpt lat="49.20634" lon="7.00968">
        <ele>314</ele>
        <time>2012-01-22T09:36:42Z</time>
      </trkpt>
      <trkpt lat="49.20634" lon="7.00966">
        <ele>314</ele>
        <time>2012-01-22T09:36:43Z</time>
      </trkpt>
      <trkpt lat="49.20634" lon="7.00964">
        <ele>314</ele>
        <time>2012-01-22T09:36:45Z</time>
      </trkpt>
      <trkpt lat="49.20633" lon="7.00962">
        <ele>314</ele>
        <time>2012-01-22T09:36:46Z</time>
      </trkpt>
      <trkpt lat="49.20633" lon="7.0096">
        <ele>315</ele>
        <time>2012-01-22T09:36:47Z</time>
      </trkpt>
      <trkpt lat="49.20632" lon="7.00958">
        <ele>315</ele>
        <time>2012-01-22T09:36:48Z</time>
      </trkpt>
      <trkpt lat="49.20632" lon="7.00955">
        <ele>316</ele>
        <time>2012-01-22T09:36:50Z</time>
      </trkpt>
      <trkpt lat="49.20631" lon="7.00953">
        <ele>316</ele>
        <time>2012-01-22T09:36:51Z</time>
      </trkpt>
      <trkpt lat="49.20631" lon="7.00952">
        <ele>317</ele>
        <time>2012-01-22T09:36:52Z</time>
      </trkpt>
      <trkpt lat="49.2063" lon="7.00949">
        <ele>317</ele>
        <time>2012-01-22T09:36:53Z</time>
      </trkpt>
      <trkpt lat="49.20629" lon="7.00947">
        <ele>317</ele>
        <time>2012-01-22T09:36:54Z</time>
      </trkpt>
      <trkpt lat="49.20628" lon="7.00945">
        <ele>317</ele>
        <time>2012-01-22T09:36:55Z</time>
      </trkpt>
      <trkpt lat="49.20628" lon="7.00943">
        <ele>317</ele>
        <time>2012-01-22T09:36:56Z</time>
      </trkpt>
      <trkpt lat="49.20626" lon="7.00941">
        <ele>318</ele>
        <time>2012-01-22T09:36:57Z</time>
      </trkpt>
      <trkpt lat="49.20626" lon="7.00937">
        <ele>319</ele>
        <time>2012-01-22T09:36:59Z</time>
      </trkpt>
      <trkpt lat="49.20625" lon="7.00934">
        <ele>319</ele>
        <time>2012-01-22T09:37:01Z</time>
      </trkpt>
      <trkpt lat="49.20625" lon="7.00931">
        <ele>319</ele>
        <time>2012-01-22T09:37:03Z</time>
      </trkpt>
      <trkpt lat="49.20625" lon="7.00928">
        <ele>319</ele>
        <time>2012-01-22T09:37:05Z</time>
      </trkpt>
      <trkpt lat="49.20625" lon="7.00926">
        <ele>319</ele>
        <time>2012-01-22T09:37:07Z</time>
      </trkpt>
      <trkpt lat="49.20625" lon="7.00924">
        <ele>319</ele>
        <time>2012-01-22T09:37:08Z</time>
      </trkpt>
      <trkpt lat="49.20624" lon="7.00922">
        <ele>319</ele>
        <time>2012-01-22T09:37:09Z</time>
      </trkpt>
      <trkpt lat="49.20624" lon="7.0092">
        <ele>319</ele>
        <time>2012-01-22T09:37:10Z</time>
      </trkpt>
      <trkpt lat="49.20623" lon="7.00919">
        <ele>319</ele>
        <time>2012-01-22T09:37:11Z</time>
      </trkpt>
      <trkpt lat="49.20623" lon="7.00916">
        <ele>319</ele>
        <time>2012-01-22T09:37:12Z</time>
      </trkpt>
      <trkpt lat="49.20622" lon="7.00914">
        <ele>319</ele>
        <time>2012-01-22T09:37:13Z</time>
      </trkpt>
      <trkpt lat="49.20621" lon="7.00912">
        <ele>319</ele>
        <time>2012-01-22T09:37:14Z</time>
      </trkpt>
      <trkpt lat="49.20621" lon="7.00911">
        <ele>319</ele>
        <time>2012-01-22T09:37:15Z</time>
      </trkpt>
      <trkpt lat="49.20621" lon="7.00909">
        <ele>319</ele>
        <time>2012-01-22T09:37:17Z</time>
      </trkpt>
      <trkpt lat="49.2062" lon="7.00907">
        <ele>319</ele>
        <time>2012-01-22T09:37:17Z</time>
      </trkpt>
      <trkpt lat="49.2062" lon="7.00905">
        <ele>319</ele>
        <time>2012-01-22T09:37:18Z</time>
      </trkpt>
      <trkpt lat="49.2062" lon="7.00903">
        <ele>319</ele>
        <time>2012-01-22T09:37:19Z</time>
      </trkpt>
      <trkpt lat="49.20619" lon="7.00901">
        <ele>319</ele>
        <time>2012-01-22T09:37:20Z</time>
      </trkpt>
      <trkpt lat="49.20618" lon="7.00899">
        <ele>319</ele>
        <time>2012-01-22T09:37:21Z</time>
      </trkpt>
      <trkpt lat="49.20618" lon="7.00897">
        <ele>319</ele>
        <time>2012-01-22T09:37:22Z</time>
      </trkpt>
      <trkpt lat="49.20617" lon="7.00895">
        <ele>319</ele>
        <time>2012-01-22T09:37:23Z</time>
      </trkpt>
      <trkpt lat="49.20616" lon="7.00893">
        <ele>319</ele>
        <time>2012-01-22T09:37:24Z</time>
      </trkpt>
      <trkpt lat="49.20616" lon="7.00891">
        <ele>319</ele>
        <time>2012-01-22T09:37:25Z</time>
      </trkpt>
      <trkpt lat="49.20615" lon="7.00889">
        <ele>319</ele>
        <time>2012-01-22T09:37:26Z</time>
      </trkpt>
      <trkpt lat="49.20615" lon="7.00887">
        <ele>319</ele>
        <time>2012-01-22T09:37:27Z</time>
      </trkpt>
      <trkpt lat="49.20615" lon="7.00885">
        <ele>319</ele>
        <time>2012-01-22T09:37:28Z</time>
      </trkpt>
      <trkpt lat="49.20614" lon="7.00883">
        <ele>319</ele>
        <time>2012-01-22T09:37:29Z</time>
      </trkpt>
      <trkpt lat="49.20613" lon="7.00881">
        <ele>319</ele>
        <time>2012-01-22T09:37:30Z</time>
      </trkpt>
      <trkpt lat="49.20613" lon="7.00879">
        <ele>319</ele>
        <time>2012-01-22T09:37:31Z</time>
      </trkpt>
      <trkpt lat="49.20612" lon="7.00877">
        <ele>319</ele>
        <time>2012-01-22T09:37:32Z</time>
      </trkpt>
      <trkpt lat="49.20612" lon="7.00875">
        <ele>319</ele>
        <time>2012-01-22T09:37:33Z</time>
      </trkpt>
      <trkpt lat="49.20611" lon="7.00873">
        <ele>319</ele>
        <time>2012-01-22T09:37:34Z</time>
      </trkpt>
      <trkpt lat="49.2061" lon="7.00871">
        <ele>319</ele>
        <time>2012-01-22T09:37:35Z</time>
      </trkpt>
      <trkpt lat="49.20609" lon="7.00868">
        <ele>319</ele>
        <time>2012-01-22T09:37:36Z</time>
      </trkpt>
      <trkpt lat="49.20609" lon="7.00866">
        <ele>319</ele>
        <time>2012-01-22T09:37:37Z</time>
      </trkpt>
      <trkpt lat="49.20608" lon="7.00864">
        <ele>319</ele>
        <time>2012-01-22T09:37:38Z</time>
      </trkpt>
      <trkpt lat="49.20607" lon="7.00862">
        <ele>319</ele>
        <time>2012-01-22T09:37:39Z</time>
      </trkpt>
      <trkpt lat="49.20607" lon="7.0086">
        <ele>320</ele>
        <time>2012-01-22T09:37:40Z</time>
      </trkpt>
      <trkpt lat="49.20606" lon="7.00857">
        <ele>320</ele>
        <time>2012-01-22T09:37:42Z</time>
      </trkpt>
      <trkpt lat="49.20606" lon="7.00855">
        <ele>320</ele>
        <time>2012-01-22T09:37:43Z</time>
      </trkpt>
      <trkpt lat="49.20605" lon="7.00853">
        <ele>321</ele>
        <time>2012-01-22T09:37:44Z</time>
      </trkpt>
      <trkpt lat="49.20605" lon="7.00851">
        <ele>321</ele>
        <time>2012-01-22T09:37:45Z</time>
      </trkpt>
      <trkpt lat="49.20605" lon="7.00849">
        <ele>321</ele>
        <time>2012-01-22T09:37:46Z</time>
      </trkpt>
      <trkpt lat="49.20604" lon="7.00845">
        <ele>321</ele>
        <time>2012-01-22T09:37:48Z</time>
      </trkpt>
      <trkpt lat="49.20603" lon="7.00843">
        <ele>321</ele>
        <time>2012-01-22T09:37:49Z</time>
      </trkpt>
      <trkpt lat="49.20603" lon="7.00841">
        <ele>321</ele>
        <time>2012-01-22T09:37:50Z</time>
      </trkpt>
      <trkpt lat="49.20603" lon="7.00839">
        <ele>321</ele>
        <time>2012-01-22T09:37:51Z</time>
      </trkpt>
      <trkpt lat="49.20602" lon="7.00838">
        <ele>321</ele>
        <time>2012-01-22T09:37:52Z</time>
      </trkpt>
      <trkpt lat="49.20602" lon="7.00836">
        <ele>321</ele>
        <time>2012-01-22T09:37:53Z</time>
      </trkpt>
      <trkpt lat="49.20602" lon="7.00834">
        <ele>321</ele>
        <time>2012-01-22T09:37:54Z</time>
      </trkpt>
      <trkpt lat="49.20601" lon="7.00832">
        <ele>321</ele>
        <time>2012-01-22T09:37:55Z</time>
      </trkpt>
      <trkpt lat="49.206" lon="7.00829">
        <ele>321</ele>
        <time>2012-01-22T09:37:57Z</time>
      </trkpt>
      <trkpt lat="49.206" lon="7.00826">
        <ele>321</ele>
        <time>2012-01-22T09:37:58Z</time>
      </trkpt>
      <trkpt lat="49.20599" lon="7.00823">
        <ele>321</ele>
        <time>2012-01-22T09:38:00Z</time>
      </trkpt>
      <trkpt lat="49.20599" lon="7.00821">
        <ele>321</ele>
        <time>2012-01-22T09:38:01Z</time>
      </trkpt>
      <trkpt lat="49.20597" lon="7.00818">
        <ele>321</ele>
        <time>2012-01-22T09:38:03Z</time>
      </trkpt>
      <trkpt lat="49.20596" lon="7.00816">
        <ele>321</ele>
        <time>2012-01-22T09:38:04Z</time>
      </trkpt>
      <trkpt lat="49.20595" lon="7.00812">
        <ele>321</ele>
        <time>2012-01-22T09:38:06Z</time>
      </trkpt>
      <trkpt lat="49.20594" lon="7.00811">
        <ele>321</ele>
        <time>2012-01-22T09:38:07Z</time>
      </trkpt>
      <trkpt lat="49.20593" lon="7.00809">
        <ele>321</ele>
        <time>2012-01-22T09:38:08Z</time>
      </trkpt>
      <trkpt lat="49.20592" lon="7.00807">
        <ele>321</ele>
        <time>2012-01-22T09:38:09Z</time>
      </trkpt>
      <trkpt lat="49.20592" lon="7.00805">
        <ele>321</ele>
        <time>2012-01-22T09:38:10Z</time>
      </trkpt>
      <trkpt lat="49.20591" lon="7.00803">
        <ele>321</ele>
        <time>2012-01-22T09:38:11Z</time>
      </trkpt>
      <trkpt lat="49.20591" lon="7.00802">
        <ele>321</ele>
        <time>2012-01-22T09:38:12Z</time>
      </trkpt>
      <trkpt lat="49.20591" lon="7.008">
        <ele>321</ele>
        <time>2012-01-22T09:38:13Z</time>
      </trkpt>
      <trkpt lat="49.2059" lon="7.00798">
        <ele>321</ele>
        <time>2012-01-22T09:38:14Z</time>
      </trkpt>
      <trkpt lat="49.20589" lon="7.00795">
        <ele>321</ele>
        <time>2012-01-22T09:38:15Z</time>
      </trkpt>
      <trkpt lat="49.20589" lon="7.00793">
        <ele>321</ele>
        <time>2012-01-22T09:38:16Z</time>
      </trkpt>
      <trkpt lat="49.20589" lon="7.00791">
        <ele>321</ele>
        <time>2012-01-22T09:38:17Z</time>
      </trkpt>
      <trkpt lat="49.20588" lon="7.00789">
        <ele>321</ele>
        <time>2012-01-22T09:38:18Z</time>
      </trkpt>
      <trkpt lat="49.20587" lon="7.00786">
        <ele>321</ele>
        <time>2012-01-22T09:38:20Z</time>
      </trkpt>
      <trkpt lat="49.20587" lon="7.00783">
        <ele>321</ele>
        <time>2012-01-22T09:38:21Z</time>
      </trkpt>
      <trkpt lat="49.20587" lon="7.00782">
        <ele>321</ele>
        <time>2012-01-22T09:38:22Z</time>
      </trkpt>
      <trkpt lat="49.20587" lon="7.0078">
        <ele>321</ele>
        <time>2012-01-22T09:38:23Z</time>
      </trkpt>
      <trkpt lat="49.20587" lon="7.00778">
        <ele>321</ele>
        <time>2012-01-22T09:38:24Z</time>
      </trkpt>
      <trkpt lat="49.20586" lon="7.00776">
        <ele>321</ele>
        <time>2012-01-22T09:38:25Z</time>
      </trkpt>
      <trkpt lat="49.20586" lon="7.00774">
        <ele>321</ele>
        <time>2012-01-22T09:38:26Z</time>
      </trkpt>
      <trkpt lat="49.20586" lon="7.00772">
        <ele>321</ele>
        <time>2012-01-22T09:38:27Z</time>
      </trkpt>
      <trkpt lat="49.20585" lon="7.0077">
        <ele>321</ele>
        <time>2012-01-22T09:38:29Z</time>
      </trkpt>
      <trkpt lat="49.20585" lon="7.00768">
        <ele>321</ele>
        <time>2012-01-22T09:38:30Z</time>
      </trkpt>
      <trkpt lat="49.20584" lon="7.00766">
        <ele>321</ele>
        <time>2012-01-22T09:38:31Z</time>
      </trkpt>
      <trkpt lat="49.20584" lon="7.00764">
        <ele>321</ele>
        <time>2012-01-22T09:38:32Z</time>
      </trkpt>
      <trkpt lat="49.20583" lon="7.00762">
        <ele>321</ele>
        <time>2012-01-22T09:38:33Z</time>
      </trkpt>
      <trkpt lat="49.20583" lon="7.0076">
        <ele>321</ele>
        <time>2012-01-22T09:38:34Z</time>
      </trkpt>
      <trkpt lat="49.20583" lon="7.00758">
        <ele>321</ele>
        <time>2012-01-22T09:38:35Z</time>
      </trkpt>
      <trkpt lat="49.20582" lon="7.00756">
        <ele>321</ele>
        <time>2012-01-22T09:38:36Z</time>
      </trkpt>
      <trkpt lat="49.20582" lon="7.00753">
        <ele>321</ele>
        <time>2012-01-22T09:38:38Z</time>
      </trkpt>
      <trkpt lat="49.20581" lon="7.00751">
        <ele>321</ele>
        <time>2012-01-22T09:38:39Z</time>
      </trkpt>
      <trkpt lat="49.20581" lon="7.00749">
        <ele>321</ele>
        <time>2012-01-22T09:38:40Z</time>
      </trkpt>
      <trkpt lat="49.2058" lon="7.00747">
        <ele>321</ele>
        <time>2012-01-22T09:38:41Z</time>
      </trkpt>
      <trkpt lat="49.2058" lon="7.00744">
        <ele>321</ele>
        <time>2012-01-22T09:38:43Z</time>
      </trkpt>
      <trkpt lat="49.20579" lon="7.00742">
        <ele>321</ele>
        <time>2012-01-22T09:38:44Z</time>
      </trkpt>
      <trkpt lat="49.20578" lon="7.00739">
        <ele>321</ele>
        <time>2012-01-22T09:38:46Z</time>
      </trkpt>
      <trkpt lat="49.20578" lon="7.00737">
        <ele>321</ele>
        <time>2012-01-22T09:38:47Z</time>
      </trkpt>
      <trkpt lat="49.20577" lon="7.00735">
        <ele>321</ele>
        <time>2012-01-22T09:38:48Z</time>
      </trkpt>
      <trkpt lat="49.20576" lon="7.00733">
        <ele>321</ele>
        <time>2012-01-22T09:38:49Z</time>
      </trkpt>
      <trkpt lat="49.20576" lon="7.00731">
        <ele>321</ele>
        <time>2012-01-22T09:38:50Z</time>
      </trkpt>
      <trkpt lat="49.20576" lon="7.00729">
        <ele>321</ele>
        <time>2012-01-22T09:38:51Z</time>
      </trkpt>
      <trkpt lat="49.20575" lon="7.00727">
        <ele>321</ele>
        <time>2012-01-22T09:38:52Z</time>
      </trkpt>
      <trkpt lat="49.20575" lon="7.00725">
        <ele>321</ele>
        <time>2012-01-22T09:38:53Z</time>
      </trkpt>
      <trkpt lat="49.20575" lon="7.00723">
        <ele>321</ele>
        <time>2012-01-22T09:38:54Z</time>
      </trkpt>
      <trkpt lat="49.20574" lon="7.00721">
        <ele>321</ele>
        <time>2012-01-22T09:38:55Z</time>
      </trkpt>
      <trkpt lat="49.20574" lon="7.00719">
        <ele>321</ele>
        <time>2012-01-22T09:38:56Z</time>
      </trkpt>
      <trkpt lat="49.20573" lon="7.00716">
        <ele>321</ele>
        <time>2012-01-22T09:38:58Z</time>
      </trkpt>
      <trkpt lat="49.20572" lon="7.00714">
        <ele>321</ele>
        <time>2012-01-22T09:38:59Z</time>
      </trkpt>
      <trkpt lat="49.20571" lon="7.00711">
        <ele>321</ele>
        <time>2012-01-22T09:39:00Z</time>
      </trkpt>
      <trkpt lat="49.2057" lon="7.0071">
        <ele>322</ele>
        <time>2012-01-22T09:39:01Z</time>
      </trkpt>
      <trkpt lat="49.2057" lon="7.00708">
        <ele>323</ele>
        <time>2012-01-22T09:39:02Z</time>
      </trkpt>
      <trkpt lat="49.20569" lon="7.00705">
        <ele>324</ele>
        <time>2012-01-22T09:39:04Z</time>
      </trkpt>
      <trkpt lat="49.20568" lon="7.00703">
        <ele>324</ele>
        <time>2012-01-22T09:39:05Z</time>
      </trkpt>
      <trkpt lat="49.20568" lon="7.00702">
        <ele>324</ele>
        <time>2012-01-22T09:39:06Z</time>
      </trkpt>
      <trkpt lat="49.20567" lon="7.00699">
        <ele>324</ele>
        <time>2012-01-22T09:39:07Z</time>
      </trkpt>
      <trkpt lat="49.20567" lon="7.00697">
        <ele>324</ele>
        <time>2012-01-22T09:39:08Z</time>
      </trkpt>
      <trkpt lat="49.20566" lon="7.00695">
        <ele>324</ele>
        <time>2012-01-22T09:39:09Z</time>
      </trkpt>
      <trkpt lat="49.20565" lon="7.00693">
        <ele>324</ele>
        <time>2012-01-22T09:39:10Z</time>
      </trkpt>
      <trkpt lat="49.20564" lon="7.00691">
        <ele>324</ele>
        <time>2012-01-22T09:39:11Z</time>
      </trkpt>
      <trkpt lat="49.20564" lon="7.00689">
        <ele>324</ele>
        <time>2012-01-22T09:39:12Z</time>
      </trkpt>
      <trkpt lat="49.20564" lon="7.00687">
        <ele>324</ele>
        <time>2012-01-22T09:39:13Z</time>
      </trkpt>
      <trkpt lat="49.20563" lon="7.00686">
        <ele>325</ele>
        <time>2012-01-22T09:39:14Z</time>
      </trkpt>
      <trkpt lat="49.20562" lon="7.00683">
        <ele>325</ele>
        <time>2012-01-22T09:39:15Z</time>
      </trkpt>
      <trkpt lat="49.20562" lon="7.0068">
        <ele>325</ele>
        <time>2012-01-22T09:39:17Z</time>
      </trkpt>
      <trkpt lat="49.20561" lon="7.00677">
        <ele>325</ele>
        <time>2012-01-22T09:39:18Z</time>
      </trkpt>
      <trkpt lat="49.20561" lon="7.00675">
        <ele>325</ele>
        <time>2012-01-22T09:39:19Z</time>
      </trkpt>
      <trkpt lat="49.20561" lon="7.00674">
        <ele>326</ele>
        <time>2012-01-22T09:39:20Z</time>
      </trkpt>
      <trkpt lat="49.2056" lon="7.0067">
        <ele>326</ele>
        <time>2012-01-22T09:39:22Z</time>
      </trkpt>
      <trkpt lat="49.2056" lon="7.00668">
        <ele>326</ele>
        <time>2012-01-22T09:39:24Z</time>
      </trkpt>
      <trkpt lat="49.20559" lon="7.00665">
        <ele>326</ele>
        <time>2012-01-22T09:39:26Z</time>
      </trkpt>
      <trkpt lat="49.20559" lon="7.00663">
        <ele>326</ele>
        <time>2012-01-22T09:39:27Z</time>
      </trkpt>
      <trkpt lat="49.20559" lon="7.00661">
        <ele>326</ele>
        <time>2012-01-22T09:39:28Z</time>
      </trkpt>
      <trkpt lat="49.20558" lon="7.00659">
        <ele>326</ele>
        <time>2012-01-22T09:39:29Z</time>
      </trkpt>
      <trkpt lat="49.20557" lon="7.00657">
        <ele>326</ele>
        <time>2012-01-22T09:39:30Z</time>
      </trkpt>
      <trkpt lat="49.20556" lon="7.00655">
        <ele>326</ele>
        <time>2012-01-22T09:39:31Z</time>
      </trkpt>
      <trkpt lat="49.20555" lon="7.00652">
        <ele>327</ele>
        <time>2012-01-22T09:39:33Z</time>
      </trkpt>
      <trkpt lat="49.20554" lon="7.0065">
        <ele>327</ele>
        <time>2012-01-22T09:39:34Z</time>
      </trkpt>
      <trkpt lat="49.20554" lon="7.00648">
        <ele>327</ele>
        <time>2012-01-22T09:39:35Z</time>
      </trkpt>
      <trkpt lat="49.20553" lon="7.00645">
        <ele>327</ele>
        <time>2012-01-22T09:39:37Z</time>
      </trkpt>
      <trkpt lat="49.20552" lon="7.00643">
        <ele>327</ele>
        <time>2012-01-22T09:39:38Z</time>
      </trkpt>
      <trkpt lat="49.20552" lon="7.00641">
        <ele>327</ele>
        <time>2012-01-22T09:39:39Z</time>
      </trkpt>
      <trkpt lat="49.20551" lon="7.00639">
        <ele>327</ele>
        <time>2012-01-22T09:39:40Z</time>
      </trkpt>
      <trkpt lat="49.20551" lon="7.00636">
        <ele>327</ele>
        <time>2012-01-22T09:39:41Z</time>
      </trkpt>
      <trkpt lat="49.2055" lon="7.00633">
        <ele>327</ele>
        <time>2012-01-22T09:39:43Z</time>
      </trkpt>
      <trkpt lat="49.20549" lon="7.00631">
        <ele>327</ele>
        <time>2012-01-22T09:39:44Z</time>
      </trkpt>
      <trkpt lat="49.20549" lon="7.00629">
        <ele>327</ele>
        <time>2012-01-22T09:39:45Z</time>
      </trkpt>
      <trkpt lat="49.20549" lon="7.00627">
        <ele>327</ele>
        <time>2012-01-22T09:39:46Z</time>
      </trkpt>
      <trkpt lat="49.20548" lon="7.00625">
        <ele>327</ele>
        <time>2012-01-22T09:39:47Z</time>
      </trkpt>
      <trkpt lat="49.20548" lon="7.00623">
        <ele>327</ele>
        <time>2012-01-22T09:39:48Z</time>
      </trkpt>
      <trkpt lat="49.20547" lon="7.0062">
        <ele>327</ele>
        <time>2012-01-22T09:39:50Z</time>
      </trkpt>
      <trkpt lat="49.20547" lon="7.00617">
        <ele>327</ele>
        <time>2012-01-22T09:39:52Z</time>
      </trkpt>
      <trkpt lat="49.20547" lon="7.00615">
        <ele>327</ele>
        <time>2012-01-22T09:39:53Z</time>
      </trkpt>
      <trkpt lat="49.20546" lon="7.00613">
        <ele>327</ele>
        <time>2012-01-22T09:39:54Z</time>
      </trkpt>
      <trkpt lat="49.20546" lon="7.00611">
        <ele>327</ele>
        <time>2012-01-22T09:39:55Z</time>
      </trkpt>
      <trkpt lat="49.20545" lon="7.00609">
        <ele>327</ele>
        <time>2012-01-22T09:39:56Z</time>
      </trkpt>
      <trkpt lat="49.20545" lon="7.00605">
        <ele>327</ele>
        <time>2012-01-22T09:39:58Z</time>
      </trkpt>
      <trkpt lat="49.20544" lon="7.00603">
        <ele>327</ele>
        <time>2012-01-22T09:39:59Z</time>
      </trkpt>
      <trkpt lat="49.20544" lon="7.00601">
        <ele>327</ele>
        <time>2012-01-22T09:40:00Z</time>
      </trkpt>
      <trkpt lat="49.20543" lon="7.006">
        <ele>327</ele>
        <time>2012-01-22T09:40:01Z</time>
      </trkpt>
      <trkpt lat="49.20543" lon="7.00597">
        <ele>327</ele>
        <time>2012-01-22T09:40:02Z</time>
      </trkpt>
      <trkpt lat="49.20542" lon="7.00595">
        <ele>328</ele>
        <time>2012-01-22T09:40:03Z</time>
      </trkpt>
      <trkpt lat="49.20542" lon="7.00593">
        <ele>328</ele>
        <time>2012-01-22T09:40:04Z</time>
      </trkpt>
      <trkpt lat="49.20541" lon="7.00592">
        <ele>328</ele>
        <time>2012-01-22T09:40:05Z</time>
      </trkpt>
      <trkpt lat="49.2054" lon="7.00588">
        <ele>329</ele>
        <time>2012-01-22T09:40:07Z</time>
      </trkpt>
      <trkpt lat="49.20539" lon="7.00586">
        <ele>329</ele>
        <time>2012-01-22T09:40:08Z</time>
      </trkpt>
      <trkpt lat="49.20538" lon="7.00584">
        <ele>329</ele>
        <time>2012-01-22T09:40:09Z</time>
      </trkpt>
      <trkpt lat="49.20538" lon="7.00582">
        <ele>329</ele>
        <time>2012-01-22T09:40:10Z</time>
      </trkpt>
      <trkpt lat="49.20538" lon="7.0058">
        <ele>329</ele>
        <time>2012-01-22T09:40:11Z</time>
      </trkpt>
      <trkpt lat="49.20538" lon="7.00578">
        <ele>330</ele>
        <time>2012-01-22T09:40:12Z</time>
      </trkpt>
      <trkpt lat="49.20538" lon="7.00576">
        <ele>330</ele>
        <time>2012-01-22T09:40:13Z</time>
      </trkpt>
      <trkpt lat="49.20537" lon="7.00574">
        <ele>330</ele>
        <time>2012-01-22T09:40:14Z</time>
      </trkpt>
      <trkpt lat="49.20537" lon="7.00572">
        <ele>330</ele>
        <time>2012-01-22T09:40:15Z</time>
      </trkpt>
      <trkpt lat="49.20538" lon="7.0057">
        <ele>330</ele>
        <time>2012-01-22T09:40:17Z</time>
      </trkpt>
      <trkpt lat="49.20538" lon="7.00567">
        <ele>330</ele>
        <time>2012-01-22T09:40:19Z</time>
      </trkpt>
      <trkpt lat="49.20536" lon="7.00563">
        <ele>330</ele>
        <time>2012-01-22T09:40:21Z</time>
      </trkpt>
      <trkpt lat="49.20536" lon="7.00562">
        <ele>330</ele>
        <time>2012-01-22T09:40:22Z</time>
      </trkpt>
      <trkpt lat="49.20536" lon="7.00559">
        <ele>330</ele>
        <time>2012-01-22T09:40:24Z</time>
      </trkpt>
      <trkpt lat="49.20535" lon="7.00556">
        <ele>330</ele>
        <time>2012-01-22T09:40:25Z</time>
      </trkpt>
      <trkpt lat="49.20534" lon="7.00553">
        <ele>330</ele>
        <time>2012-01-22T09:40:26Z</time>
      </trkpt>
      <trkpt lat="49.20533" lon="7.00551">
        <ele>330</ele>
        <time>2012-01-22T09:40:27Z</time>
      </trkpt>
      <trkpt lat="49.20532" lon="7.00549">
        <ele>330</ele>
        <time>2012-01-22T09:40:28Z</time>
      </trkpt>
      <trkpt lat="49.20531" lon="7.00546">
        <ele>331</ele>
        <time>2012-01-22T09:40:30Z</time>
      </trkpt>
      <trkpt lat="49.20531" lon="7.00544">
        <ele>331</ele>
        <time>2012-01-22T09:40:31Z</time>
      </trkpt>
      <trkpt lat="49.2053" lon="7.00542">
        <ele>331</ele>
        <time>2012-01-22T09:40:32Z</time>
      </trkpt>
      <trkpt lat="49.2053" lon="7.0054">
        <ele>331</ele>
        <time>2012-01-22T09:40:33Z</time>
      </trkpt>
      <trkpt lat="49.20529" lon="7.00538">
        <ele>331</ele>
        <time>2012-01-22T09:40:34Z</time>
      </trkpt>
      <trkpt lat="49.20528" lon="7.00536">
        <ele>331</ele>
        <time>2012-01-22T09:40:35Z</time>
      </trkpt>
      <trkpt lat="49.20528" lon="7.00534">
        <ele>331</ele>
        <time>2012-01-22T09:40:36Z</time>
      </trkpt>
      <trkpt lat="49.20526" lon="7.00532">
        <ele>331</ele>
        <time>2012-01-22T09:40:38Z</time>
      </trkpt>
      <trkpt lat="49.20525" lon="7.0053">
        <ele>331</ele>
        <time>2012-01-22T09:40:39Z</time>
      </trkpt>
      <trkpt lat="49.20524" lon="7.00528">
        <ele>331</ele>
        <time>2012-01-22T09:40:40Z</time>
      </trkpt>
      <trkpt lat="49.20524" lon="7.00526">
        <ele>331</ele>
        <time>2012-01-22T09:40:41Z</time>
      </trkpt>
      <trkpt lat="49.20523" lon="7.00524">
        <ele>331</ele>
        <time>2012-01-22T09:40:42Z</time>
      </trkpt>
      <trkpt lat="49.20523" lon="7.00522">
        <ele>331</ele>
        <time>2012-01-22T09:40:43Z</time>
      </trkpt>
      <trkpt lat="49.20523" lon="7.0052">
        <ele>331</ele>
        <time>2012-01-22T09:40:44Z</time>
      </trkpt>
      <trkpt lat="49.20522" lon="7.00518">
        <ele>331</ele>
        <time>2012-01-22T09:40:45Z</time>
      </trkpt>
      <trkpt lat="49.20522" lon="7.00515">
        <ele>331</ele>
        <time>2012-01-22T09:40:46Z</time>
      </trkpt>
      <trkpt lat="49.20521" lon="7.00513">
        <ele>331</ele>
        <time>2012-01-22T09:40:47Z</time>
      </trkpt>
      <trkpt lat="49.20521" lon="7.00512">
        <ele>331</ele>
        <time>2012-01-22T09:40:48Z</time>
      </trkpt>
      <trkpt lat="49.20521" lon="7.0051">
        <ele>331</ele>
        <time>2012-01-22T09:40:49Z</time>
      </trkpt>
      <trkpt lat="49.2052" lon="7.00508">
        <ele>331</ele>
        <time>2012-01-22T09:40:50Z</time>
      </trkpt>
      <trkpt lat="49.2052" lon="7.00505">
        <ele>331</ele>
        <time>2012-01-22T09:40:51Z</time>
      </trkpt>
      <trkpt lat="49.2052" lon="7.00504">
        <ele>331</ele>
        <time>2012-01-22T09:40:52Z</time>
      </trkpt>
      <trkpt lat="49.20519" lon="7.00502">
        <ele>331</ele>
        <time>2012-01-22T09:40:53Z</time>
      </trkpt>
      <trkpt lat="49.20519" lon="7.00499">
        <ele>331</ele>
        <time>2012-01-22T09:40:54Z</time>
      </trkpt>
      <trkpt lat="49.20518" lon="7.00497">
        <ele>331</ele>
        <time>2012-01-22T09:40:55Z</time>
      </trkpt>
      <trkpt lat="49.20517" lon="7.00494">
        <ele>331</ele>
        <time>2012-01-22T09:40:57Z</time>
      </trkpt>
      <trkpt lat="49.20517" lon="7.00493">
        <ele>331</ele>
        <time>2012-01-22T09:40:58Z</time>
      </trkpt>
      <trkpt lat="49.20517" lon="7.00489">
        <ele>331</ele>
        <time>2012-01-22T09:41:00Z</time>
      </trkpt>
      <trkpt lat="49.20516" lon="7.00487">
        <ele>331</ele>
        <time>2012-01-22T09:41:01Z</time>
      </trkpt>
      <trkpt lat="49.20515" lon="7.00485">
        <ele>331</ele>
        <time>2012-01-22T09:41:02Z</time>
      </trkpt>
      <trkpt lat="49.20515" lon="7.00483">
        <ele>331</ele>
        <time>2012-01-22T09:41:03Z</time>
      </trkpt>
      <trkpt lat="49.20514" lon="7.0048">
        <ele>331</ele>
        <time>2012-01-22T09:41:05Z</time>
      </trkpt>
      <trkpt lat="49.20514" lon="7.00478">
        <ele>331</ele>
        <time>2012-01-22T09:41:06Z</time>
      </trkpt>
      <trkpt lat="49.20513" lon="7.00475">
        <ele>331</ele>
        <time>2012-01-22T09:41:07Z</time>
      </trkpt>
      <trkpt lat="49.20512" lon="7.00472">
        <ele>331</ele>
        <time>2012-01-22T09:41:08Z</time>
      </trkpt>
      <trkpt lat="49.20511" lon="7.00469">
        <ele>332</ele>
        <time>2012-01-22T09:41:09Z</time>
      </trkpt>
      <trkpt lat="49.20511" lon="7.00467">
        <ele>332</ele>
        <time>2012-01-22T09:41:10Z</time>
      </trkpt>
      <trkpt lat="49.2051" lon="7.00464">
        <ele>333</ele>
        <time>2012-01-22T09:41:11Z</time>
      </trkpt>
      <trkpt lat="49.2051" lon="7.00462">
        <ele>333</ele>
        <time>2012-01-22T09:41:12Z</time>
      </trkpt>
      <trkpt lat="49.2051" lon="7.00461">
        <ele>333</ele>
        <time>2012-01-22T09:41:13Z</time>
      </trkpt>
      <trkpt lat="49.20509" lon="7.00457">
        <ele>333</ele>
        <time>2012-01-22T09:41:15Z</time>
      </trkpt>
      <trkpt lat="49.20509" lon="7.00455">
        <ele>333</ele>
        <time>2012-01-22T09:41:16Z</time>
      </trkpt>
      <trkpt lat="49.20507" lon="7.00452">
        <ele>334</ele>
        <time>2012-01-22T09:41:18Z</time>
      </trkpt>
      <trkpt lat="49.20507" lon="7.0045">
        <ele>334</ele>
        <time>2012-01-22T09:41:19Z</time>
      </trkpt>
      <trkpt lat="49.20506" lon="7.00447">
        <ele>334</ele>
        <time>2012-01-22T09:41:20Z</time>
      </trkpt>
      <trkpt lat="49.20506" lon="7.00446">
        <ele>334</ele>
        <time>2012-01-22T09:41:21Z</time>
      </trkpt>
      <trkpt lat="49.20506" lon="7.00444">
        <ele>334</ele>
        <time>2012-01-22T09:41:22Z</time>
      </trkpt>
      <trkpt lat="49.20505" lon="7.00442">
        <ele>334</ele>
        <time>2012-01-22T09:41:23Z</time>
      </trkpt>
      <trkpt lat="49.20504" lon="7.0044">
        <ele>334</ele>
        <time>2012-01-22T09:41:24Z</time>
      </trkpt>
      <trkpt lat="49.20504" lon="7.00437">
        <ele>334</ele>
        <time>2012-01-22T09:41:25Z</time>
      </trkpt>
      <trkpt lat="49.20504" lon="7.00435">
        <ele>334</ele>
        <time>2012-01-22T09:41:26Z</time>
      </trkpt>
      <trkpt lat="49.20503" lon="7.00434">
        <ele>334</ele>
        <time>2012-01-22T09:41:27Z</time>
      </trkpt>
      <trkpt lat="49.20503" lon="7.00432">
        <ele>334</ele>
        <time>2012-01-22T09:41:28Z</time>
      </trkpt>
      <trkpt lat="49.20503" lon="7.00429">
        <ele>334</ele>
        <time>2012-01-22T09:41:30Z</time>
      </trkpt>
      <trkpt lat="49.20502" lon="7.00427">
        <ele>334</ele>
        <time>2012-01-22T09:41:31Z</time>
      </trkpt>
      <trkpt lat="49.20502" lon="7.00425">
        <ele>334</ele>
        <time>2012-01-22T09:41:32Z</time>
      </trkpt>
      <trkpt lat="49.20502" lon="7.00423">
        <ele>334</ele>
        <time>2012-01-22T09:41:33Z</time>
      </trkpt>
      <trkpt lat="49.20501" lon="7.00421">
        <ele>334</ele>
        <time>2012-01-22T09:41:34Z</time>
      </trkpt>
      <trkpt lat="49.20501" lon="7.0042">
        <ele>334</ele>
        <time>2012-01-22T09:41:35Z</time>
      </trkpt>
      <trkpt lat="49.205" lon="7.00417">
        <ele>334</ele>
        <time>2012-01-22T09:41:36Z</time>
      </trkpt>
      <trkpt lat="49.20499" lon="7.00415">
        <ele>334</ele>
        <time>2012-01-22T09:41:37Z</time>
      </trkpt>
      <trkpt lat="49.20499" lon="7.00413">
        <ele>334</ele>
        <time>2012-01-22T09:41:38Z</time>
      </trkpt>
      <trkpt lat="49.20498" lon="7.00411">
        <ele>334</ele>
        <time>2012-01-22T09:41:39Z</time>
      </trkpt>
      <trkpt lat="49.20498" lon="7.00409">
        <ele>334</ele>
        <time>2012-01-22T09:41:40Z</time>
      </trkpt>
      <trkpt lat="49.20497" lon="7.00407">
        <ele>334</ele>
        <time>2012-01-22T09:41:41Z</time>
      </trkpt>
      <trkpt lat="49.20496" lon="7.00405">
        <ele>334</ele>
        <time>2012-01-22T09:41:42Z</time>
      </trkpt>
      <trkpt lat="49.20496" lon="7.00403">
        <ele>334</ele>
        <time>2012-01-22T09:41:43Z</time>
      </trkpt>
      <trkpt lat="49.20496" lon="7.004">
        <ele>334</ele>
        <time>2012-01-22T09:41:45Z</time>
      </trkpt>
      <trkpt lat="49.20495" lon="7.00397">
        <ele>334</ele>
        <time>2012-01-22T09:41:47Z</time>
      </trkpt>
      <trkpt lat="49.20495" lon="7.00394">
        <ele>334</ele>
        <time>2012-01-22T09:41:48Z</time>
      </trkpt>
      <trkpt lat="49.20495" lon="7.00392">
        <ele>334</ele>
        <time>2012-01-22T09:41:49Z</time>
      </trkpt>
      <trkpt lat="49.20494" lon="7.0039">
        <ele>334</ele>
        <time>2012-01-22T09:41:50Z</time>
      </trkpt>
      <trkpt lat="49.20494" lon="7.00388">
        <ele>334</ele>
        <time>2012-01-22T09:41:51Z</time>
      </trkpt>
      <trkpt lat="49.20493" lon="7.00385">
        <ele>334</ele>
        <time>2012-01-22T09:41:52Z</time>
      </trkpt>
      <trkpt lat="49.20492" lon="7.00383">
        <ele>334</ele>
        <time>2012-01-22T09:41:53Z</time>
      </trkpt>
      <trkpt lat="49.20492" lon="7.00381">
        <ele>334</ele>
        <time>2012-01-22T09:41:54Z</time>
      </trkpt>
      <trkpt lat="49.20491" lon="7.00378">
        <ele>334</ele>
        <time>2012-01-22T09:41:55Z</time>
      </trkpt>
      <trkpt lat="49.20491" lon="7.00376">
        <ele>334</ele>
        <time>2012-01-22T09:41:56Z</time>
      </trkpt>
      <trkpt lat="49.2049" lon="7.00374">
        <ele>334</ele>
        <time>2012-01-22T09:41:57Z</time>
      </trkpt>
      <trkpt lat="49.2049" lon="7.00372">
        <ele>334</ele>
        <time>2012-01-22T09:41:58Z</time>
      </trkpt>
      <trkpt lat="49.20489" lon="7.0037">
        <ele>334</ele>
        <time>2012-01-22T09:42:00Z</time>
      </trkpt>
      <trkpt lat="49.20488" lon="7.00367">
        <ele>334</ele>
        <time>2012-01-22T09:42:01Z</time>
      </trkpt>
      <trkpt lat="49.20487" lon="7.00365">
        <ele>334</ele>
        <time>2012-01-22T09:42:02Z</time>
      </trkpt>
      <trkpt lat="49.20486" lon="7.00363">
        <ele>334</ele>
        <time>2012-01-22T09:42:03Z</time>
      </trkpt>
      <trkpt lat="49.20485" lon="7.00361">
        <ele>334</ele>
        <time>2012-01-22T09:42:04Z</time>
      </trkpt>
      <trkpt lat="49.20485" lon="7.00359">
        <ele>334</ele>
        <time>2012-01-22T09:42:05Z</time>
      </trkpt>
      <trkpt lat="49.20484" lon="7.00357">
        <ele>334</ele>
        <time>2012-01-22T09:42:06Z</time>
      </trkpt>
      <trkpt lat="49.20483" lon="7.00355">
        <ele>334</ele>
        <time>2012-01-22T09:42:07Z</time>
      </trkpt>
      <trkpt lat="49.20483" lon="7.00352">
        <ele>334</ele>
        <time>2012-01-22T09:42:08Z</time>
      </trkpt>
      <trkpt lat="49.20482" lon="7.0035">
        <ele>334</ele>
        <time>2012-01-22T09:42:09Z</time>
      </trkpt>
      <trkpt lat="49.20481" lon="7.00349">
        <ele>334</ele>
        <time>2012-01-22T09:42:10Z</time>
      </trkpt>
      <trkpt lat="49.20481" lon="7.00345">
        <ele>334</ele>
        <time>2012-01-22T09:42:12Z</time>
      </trkpt>
      <trkpt lat="49.2048" lon="7.00343">
        <ele>334</ele>
        <time>2012-01-22T09:42:13Z</time>
      </trkpt>
      <trkpt lat="49.20479" lon="7.00339">
        <ele>334</ele>
        <time>2012-01-22T09:42:14Z</time>
      </trkpt>
      <trkpt lat="49.20478" lon="7.00337">
        <ele>334</ele>
        <time>2012-01-22T09:42:15Z</time>
      </trkpt>
      <trkpt lat="49.20477" lon="7.00335">
        <ele>334</ele>
        <time>2012-01-22T09:42:16Z</time>
      </trkpt>
      <trkpt lat="49.20477" lon="7.00333">
        <ele>335</ele>
        <time>2012-01-22T09:42:17Z</time>
      </trkpt>
      <trkpt lat="49.20477" lon="7.00331">
        <ele>336</ele>
        <time>2012-01-22T09:42:18Z</time>
      </trkpt>
      <trkpt lat="49.20476" lon="7.00329">
        <ele>336</ele>
        <time>2012-01-22T09:42:19Z</time>
      </trkpt>
      <trkpt lat="49.20476" lon="7.00326">
        <ele>336</ele>
        <time>2012-01-22T09:42:21Z</time>
      </trkpt>
      <trkpt lat="49.20475" lon="7.00323">
        <ele>336</ele>
        <time>2012-01-22T09:42:22Z</time>
      </trkpt>
      <trkpt lat="49.20475" lon="7.00322">
        <ele>336</ele>
        <time>2012-01-22T09:42:23Z</time>
      </trkpt>
      <trkpt lat="49.20474" lon="7.0032">
        <ele>336</ele>
        <time>2012-01-22T09:42:24Z</time>
      </trkpt>
      <trkpt lat="49.20474" lon="7.00316">
        <ele>336</ele>
        <time>2012-01-22T09:42:26Z</time>
      </trkpt>
      <trkpt lat="49.20473" lon="7.00314">
        <ele>336</ele>
        <time>2012-01-22T09:42:27Z</time>
      </trkpt>
      <trkpt lat="49.20473" lon="7.00312">
        <ele>336</ele>
        <time>2012-01-22T09:42:28Z</time>
      </trkpt>
      <trkpt lat="49.20472" lon="7.00311">
        <ele>336</ele>
        <time>2012-01-22T09:42:29Z</time>
      </trkpt>
      <trkpt lat="49.20472" lon="7.00308">
        <ele>336</ele>
        <time>2012-01-22T09:42:30Z</time>
      </trkpt>
      <trkpt lat="49.20471" lon="7.00306">
        <ele>336</ele>
        <time>2012-01-22T09:42:31Z</time>
      </trkpt>
      <trkpt lat="49.2047" lon="7.00302">
        <ele>336</ele>
        <time>2012-01-22T09:42:33Z</time>
      </trkpt>
      <trkpt lat="49.2047" lon="7.003">
        <ele>336</ele>
        <time>2012-01-22T09:42:34Z</time>
      </trkpt>
      <trkpt lat="49.2047" lon="7.00298">
        <ele>336</ele>
        <time>2012-01-22T09:42:35Z</time>
      </trkpt>
      <trkpt lat="49.20469" lon="7.00296">
        <ele>336</ele>
        <time>2012-01-22T09:42:36Z</time>
      </trkpt>
      <trkpt lat="49.20469" lon="7.00294">
        <ele>336</ele>
        <time>2012-01-22T09:42:37Z</time>
      </trkpt>
      <trkpt lat="49.20469" lon="7.00292">
        <ele>336</ele>
        <time>2012-01-22T09:42:38Z</time>
      </trkpt>
      <trkpt lat="49.20468" lon="7.0029">
        <ele>336</ele>
        <time>2012-01-22T09:42:39Z</time>
      </trkpt>
      <trkpt lat="49.20468" lon="7.00288">
        <ele>336</ele>
        <time>2012-01-22T09:42:40Z</time>
      </trkpt>
      <trkpt lat="49.20468" lon="7.00286">
        <ele>336</ele>
        <time>2012-01-22T09:42:41Z</time>
      </trkpt>
      <trkpt lat="49.20467" lon="7.00283">
        <ele>336</ele>
        <time>2012-01-22T09:42:43Z</time>
      </trkpt>
      <trkpt lat="49.20466" lon="7.0028">
        <ele>336</ele>
        <time>2012-01-22T09:42:45Z</time>
      </trkpt>
      <trkpt lat="49.20465" lon="7.00278">
        <ele>336</ele>
        <time>2012-01-22T09:42:46Z</time>
      </trkpt>
      <trkpt lat="49.20464" lon="7.00275">
        <ele>336</ele>
        <time>2012-01-22T09:42:47Z</time>
      </trkpt>
      <trkpt lat="49.20464" lon="7.00273">
        <ele>336</ele>
        <time>2012-01-22T09:42:48Z</time>
      </trkpt>
      <trkpt lat="49.20463" lon="7.00271">
        <ele>336</ele>
        <time>2012-01-22T09:42:49Z</time>
      </trkpt>
      <trkpt lat="49.20462" lon="7.00268">
        <ele>336</ele>
        <time>2012-01-22T09:42:51Z</time>
      </trkpt>
      <trkpt lat="49.20462" lon="7.00267">
        <ele>336</ele>
        <time>2012-01-22T09:42:52Z</time>
      </trkpt>
      <trkpt lat="49.20462" lon="7.00263">
        <ele>336</ele>
        <time>2012-01-22T09:42:54Z</time>
      </trkpt>
      <trkpt lat="49.20461" lon="7.0026">
        <ele>336</ele>
        <time>2012-01-22T09:42:55Z</time>
      </trkpt>
      <trkpt lat="49.20461" lon="7.00258">
        <ele>336</ele>
        <time>2012-01-22T09:42:56Z</time>
      </trkpt>
      <trkpt lat="49.20459" lon="7.00255">
        <ele>336</ele>
        <time>2012-01-22T09:42:57Z</time>
      </trkpt>
      <trkpt lat="49.2046" lon="7.00252">
        <ele>336</ele>
        <time>2012-01-22T09:42:58Z</time>
      </trkpt>
      <trkpt lat="49.20459" lon="7.0025">
        <ele>336</ele>
        <time>2012-01-22T09:42:59Z</time>
      </trkpt>
      <trkpt lat="49.20459" lon="7.00248">
        <ele>336</ele>
        <time>2012-01-22T09:43:00Z</time>
      </trkpt>
      <trkpt lat="49.20458" lon="7.00246">
        <ele>336</ele>
        <time>2012-01-22T09:43:01Z</time>
      </trkpt>
      <trkpt lat="49.20457" lon="7.00243">
        <ele>336</ele>
        <time>2012-01-22T09:43:02Z</time>
      </trkpt>
      <trkpt lat="49.20457" lon="7.00241">
        <ele>336</ele>
        <time>2012-01-22T09:43:03Z</time>
      </trkpt>
      <trkpt lat="49.20457" lon="7.00238">
        <ele>336</ele>
        <time>2012-01-22T09:43:05Z</time>
      </trkpt>
      <trkpt lat="49.20456" lon="7.00236">
        <ele>336</ele>
        <time>2012-01-22T09:43:06Z</time>
      </trkpt>
      <trkpt lat="49.20456" lon="7.00233">
        <ele>336</ele>
        <time>2012-01-22T09:43:07Z</time>
      </trkpt>
      <trkpt lat="49.20456" lon="7.00231">
        <ele>336</ele>
        <time>2012-01-22T09:43:08Z</time>
      </trkpt>
      <trkpt lat="49.20455" lon="7.00229">
        <ele>336</ele>
        <time>2012-01-22T09:43:09Z</time>
      </trkpt>
      <trkpt lat="49.20454" lon="7.00227">
        <ele>336</ele>
        <time>2012-01-22T09:43:10Z</time>
      </trkpt>
      <trkpt lat="49.20454" lon="7.00225">
        <ele>336</ele>
        <time>2012-01-22T09:43:11Z</time>
      </trkpt>
      <trkpt lat="49.20454" lon="7.00223">
        <ele>336</ele>
        <time>2012-01-22T09:43:12Z</time>
      </trkpt>
      <trkpt lat="49.20454" lon="7.0022">
        <ele>336</ele>
        <time>2012-01-22T09:43:14Z</time>
      </trkpt>
      <trkpt lat="49.20453" lon="7.00218">
        <ele>336</ele>
        <time>2012-01-22T09:43:15Z</time>
      </trkpt>
      <trkpt lat="49.20453" lon="7.00216">
        <ele>336</ele>
        <time>2012-01-22T09:43:17Z</time>
      </trkpt>
      <trkpt lat="49.20452" lon="7.00214">
        <ele>336</ele>
        <time>2012-01-22T09:43:18Z</time>
      </trkpt>
      <trkpt lat="49.20452" lon="7.00212">
        <ele>336</ele>
        <time>2012-01-22T09:43:19Z</time>
      </trkpt>
      <trkpt lat="49.20451" lon="7.0021">
        <ele>336</ele>
        <time>2012-01-22T09:43:20Z</time>
      </trkpt>
      <trkpt lat="49.20451" lon="7.00207">
        <ele>336</ele>
        <time>2012-01-22T09:43:21Z</time>
      </trkpt>
      <trkpt lat="49.2045" lon="7.00205">
        <ele>336</ele>
        <time>2012-01-22T09:43:22Z</time>
      </trkpt>
      <trkpt lat="49.20449" lon="7.00203">
        <ele>336</ele>
        <time>2012-01-22T09:43:23Z</time>
      </trkpt>
      <trkpt lat="49.20448" lon="7.00201">
        <ele>336</ele>
        <time>2012-01-22T09:43:24Z</time>
      </trkpt>
      <trkpt lat="49.20447" lon="7.00199">
        <ele>336</ele>
        <time>2012-01-22T09:43:25Z</time>
      </trkpt>
      <trkpt lat="49.20447" lon="7.00197">
        <ele>336</ele>
        <time>2012-01-22T09:43:26Z</time>
      </trkpt>
      <trkpt lat="49.20446" lon="7.00194">
        <ele>336</ele>
        <time>2012-01-22T09:43:27Z</time>
      </trkpt>
      <trkpt lat="49.20446" lon="7.00192">
        <ele>336</ele>
        <time>2012-01-22T09:43:28Z</time>
      </trkpt>
      <trkpt lat="49.20446" lon="7.0019">
        <ele>336</ele>
        <time>2012-01-22T09:43:29Z</time>
      </trkpt>
      <trkpt lat="49.20446" lon="7.00187">
        <ele>336</ele>
        <time>2012-01-22T09:43:31Z</time>
      </trkpt>
      <trkpt lat="49.20445" lon="7.00183">
        <ele>336</ele>
        <time>2012-01-22T09:43:33Z</time>
      </trkpt>
      <trkpt lat="49.20444" lon="7.00182">
        <ele>336</ele>
        <time>2012-01-22T09:43:34Z</time>
      </trkpt>
      <trkpt lat="49.20444" lon="7.00179">
        <ele>336</ele>
        <time>2012-01-22T09:43:35Z</time>
      </trkpt>
      <trkpt lat="49.20443" lon="7.00177">
        <ele>336</ele>
        <time>2012-01-22T09:43:36Z</time>
      </trkpt>
      <trkpt lat="49.20442" lon="7.00175">
        <ele>336</ele>
        <time>2012-01-22T09:43:37Z</time>
      </trkpt>
      <trkpt lat="49.20441" lon="7.00172">
        <ele>336</ele>
        <time>2012-01-22T09:43:39Z</time>
      </trkpt>
      <trkpt lat="49.2044" lon="7.00169">
        <ele>336</ele>
        <time>2012-01-22T09:43:40Z</time>
      </trkpt>
      <trkpt lat="49.2044" lon="7.00167">
        <ele>336</ele>
        <time>2012-01-22T09:43:41Z</time>
      </trkpt>
      <trkpt lat="49.2044" lon="7.00165">
        <ele>336</ele>
        <time>2012-01-22T09:43:42Z</time>
      </trkpt>
      <trkpt lat="49.20438" lon="7.00162">
        <ele>336</ele>
        <time>2012-01-22T09:43:44Z</time>
      </trkpt>
      <trkpt lat="49.20438" lon="7.0016">
        <ele>336</ele>
        <time>2012-01-22T09:43:45Z</time>
      </trkpt>
      <trkpt lat="49.20438" lon="7.00158">
        <ele>336</ele>
        <time>2012-01-22T09:43:46Z</time>
      </trkpt>
      <trkpt lat="49.20437" lon="7.00156">
        <ele>336</ele>
        <time>2012-01-22T09:43:47Z</time>
      </trkpt>
      <trkpt lat="49.20436" lon="7.00154">
        <ele>336</ele>
        <time>2012-01-22T09:43:48Z</time>
      </trkpt>
      <trkpt lat="49.20435" lon="7.00151">
        <ele>336</ele>
        <time>2012-01-22T09:43:49Z</time>
      </trkpt>
      <trkpt lat="49.20435" lon="7.00149">
        <ele>336</ele>
        <time>2012-01-22T09:43:50Z</time>
      </trkpt>
      <trkpt lat="49.20433" lon="7.00147">
        <ele>336</ele>
        <time>2012-01-22T09:43:51Z</time>
      </trkpt>
      <trkpt lat="49.20433" lon="7.00144">
        <ele>336</ele>
        <time>2012-01-22T09:43:53Z</time>
      </trkpt>
      <trkpt lat="49.20433" lon="7.00141">
        <ele>336</ele>
        <time>2012-01-22T09:43:54Z</time>
      </trkpt>
      <trkpt lat="49.20432" lon="7.00139">
        <ele>336</ele>
        <time>2012-01-22T09:43:55Z</time>
      </trkpt>
      <trkpt lat="49.20432" lon="7.00138">
        <ele>336</ele>
        <time>2012-01-22T09:43:56Z</time>
      </trkpt>
      <trkpt lat="49.20432" lon="7.00135">
        <ele>336</ele>
        <time>2012-01-22T09:43:57Z</time>
      </trkpt>
      <trkpt lat="49.20431" lon="7.00134">
        <ele>336</ele>
        <time>2012-01-22T09:43:58Z</time>
      </trkpt>
      <trkpt lat="49.20431" lon="7.00131">
        <ele>336</ele>
        <time>2012-01-22T09:43:59Z</time>
      </trkpt>
      <trkpt lat="49.2043" lon="7.00129">
        <ele>336</ele>
        <time>2012-01-22T09:44:00Z</time>
      </trkpt>
      <trkpt lat="49.2043" lon="7.00127">
        <ele>336</ele>
        <time>2012-01-22T09:44:01Z</time>
      </trkpt>
      <trkpt lat="49.2043" lon="7.00125">
        <ele>336</ele>
        <time>2012-01-22T09:44:02Z</time>
      </trkpt>
      <trkpt lat="49.20429" lon="7.00123">
        <ele>336</ele>
        <time>2012-01-22T09:44:03Z</time>
      </trkpt>
      <trkpt lat="49.20428" lon="7.00121">
        <ele>336</ele>
        <time>2012-01-22T09:44:04Z</time>
      </trkpt>
      <trkpt lat="49.20428" lon="7.00119">
        <ele>336</ele>
        <time>2012-01-22T09:44:05Z</time>
      </trkpt>
      <trkpt lat="49.20428" lon="7.00116">
        <ele>337</ele>
        <time>2012-01-22T09:44:07Z</time>
      </trkpt>
      <trkpt lat="49.20427" lon="7.00114">
        <ele>337</ele>
        <time>2012-01-22T09:44:08Z</time>
      </trkpt>
      <trkpt lat="49.20425" lon="7.00111">
        <ele>337</ele>
        <time>2012-01-22T09:44:09Z</time>
      </trkpt>
      <trkpt lat="49.20424" lon="7.00109">
        <ele>337</ele>
        <time>2012-01-22T09:44:10Z</time>
      </trkpt>
      <trkpt lat="49.20423" lon="7.00106">
        <ele>337</ele>
        <time>2012-01-22T09:44:11Z</time>
      </trkpt>
      <trkpt lat="49.20423" lon="7.00104">
        <ele>337</ele>
        <time>2012-01-22T09:44:13Z</time>
      </trkpt>
      <trkpt lat="49.20422" lon="7.00102">
        <ele>337</ele>
        <time>2012-01-22T09:44:14Z</time>
      </trkpt>
      <trkpt lat="49.20422" lon="7.001">
        <ele>337</ele>
        <time>2012-01-22T09:44:15Z</time>
      </trkpt>
      <trkpt lat="49.20421" lon="7.00098">
        <ele>337</ele>
        <time>2012-01-22T09:44:16Z</time>
      </trkpt>
      <trkpt lat="49.2042" lon="7.00095">
        <ele>337</ele>
        <time>2012-01-22T09:44:18Z</time>
      </trkpt>
      <trkpt lat="49.20419" lon="7.00092">
        <ele>337</ele>
        <time>2012-01-22T09:44:20Z</time>
      </trkpt>
      <trkpt lat="49.20419" lon="7.00089">
        <ele>338</ele>
        <time>2012-01-22T09:44:21Z</time>
      </trkpt>
      <trkpt lat="49.20418" lon="7.00087">
        <ele>338</ele>
        <time>2012-01-22T09:44:22Z</time>
      </trkpt>
      <trkpt lat="49.20417" lon="7.00085">
        <ele>338</ele>
        <time>2012-01-22T09:44:23Z</time>
      </trkpt>
      <trkpt lat="49.20417" lon="7.00082">
        <ele>338</ele>
        <time>2012-01-22T09:44:24Z</time>
      </trkpt>
      <trkpt lat="49.20417" lon="7.00079">
        <ele>338</ele>
        <time>2012-01-22T09:44:25Z</time>
      </trkpt>
      <trkpt lat="49.20417" lon="7.00077">
        <ele>338</ele>
        <time>2012-01-22T09:44:26Z</time>
      </trkpt>
      <trkpt lat="49.20417" lon="7.00075">
        <ele>338</ele>
        <time>2012-01-22T09:44:27Z</time>
      </trkpt>
      <trkpt lat="49.20417" lon="7.00072">
        <ele>338</ele>
        <time>2012-01-22T09:44:28Z</time>
      </trkpt>
      <trkpt lat="49.20417" lon="7.0007">
        <ele>338</ele>
        <time>2012-01-22T09:44:29Z</time>
      </trkpt>
      <trkpt lat="49.20416" lon="7.00068">
        <ele>338</ele>
        <time>2012-01-22T09:44:30Z</time>
      </trkpt>
      <trkpt lat="49.20416" lon="7.00065">
        <ele>338</ele>
        <time>2012-01-22T09:44:32Z</time>
      </trkpt>
      <trkpt lat="49.20414" lon="7.00062">
        <ele>338</ele>
        <time>2012-01-22T09:44:33Z</time>
      </trkpt>
      <trkpt lat="49.20414" lon="7.00059">
        <ele>338</ele>
        <time>2012-01-22T09:44:35Z</time>
      </trkpt>
      <trkpt lat="49.20413" lon="7.00057">
        <ele>338</ele>
        <time>2012-01-22T09:44:37Z</time>
      </trkpt>
      <trkpt lat="49.20413" lon="7.00055">
        <ele>338</ele>
        <time>2012-01-22T09:44:38Z</time>
      </trkpt>
      <trkpt lat="49.20412" lon="7.00053">
        <ele>338</ele>
        <time>2012-01-22T09:44:39Z</time>
      </trkpt>
      <trkpt lat="49.20412" lon="7.0005">
        <ele>338</ele>
        <time>2012-01-22T09:44:40Z</time>
      </trkpt>
      <trkpt lat="49.20411" lon="7.00048">
        <ele>338</ele>
        <time>2012-01-22T09:44:41Z</time>
      </trkpt>
      <trkpt lat="49.20411" lon="7.00046">
        <ele>338</ele>
        <time>2012-01-22T09:44:42Z</time>
      </trkpt>
      <trkpt lat="49.2041" lon="7.00044">
        <ele>338</ele>
        <time>2012-01-22T09:44:43Z</time>
      </trkpt>
      <trkpt lat="49.20408" lon="7.00039">
        <ele>338</ele>
        <time>2012-01-22T09:44:45Z</time>
      </trkpt>
      <trkpt lat="49.20407" lon="7.00037">
        <ele>338</ele>
        <time>2012-01-22T09:44:46Z</time>
      </trkpt>
      <trkpt lat="49.20407" lon="7.00035">
        <ele>338</ele>
        <time>2012-01-22T09:44:47Z</time>
      </trkpt>
      <trkpt lat="49.20406" lon="7.00033">
        <ele>338</ele>
        <time>2012-01-22T09:44:48Z</time>
      </trkpt>
      <trkpt lat="49.20406" lon="7.00031">
        <ele>338</ele>
        <time>2012-01-22T09:44:49Z</time>
      </trkpt>
      <trkpt lat="49.20405" lon="7.00029">
        <ele>338</ele>
        <time>2012-01-22T09:44:51Z</time>
      </trkpt>
      <trkpt lat="49.20405" lon="7.00027">
        <ele>338</ele>
        <time>2012-01-22T09:44:52Z</time>
      </trkpt>
      <trkpt lat="49.20404" lon="7.00024">
        <ele>338</ele>
        <time>2012-01-22T09:44:53Z</time>
      </trkpt>
      <trkpt lat="49.20404" lon="7.00023">
        <ele>338</ele>
        <time>2012-01-22T09:44:54Z</time>
      </trkpt>
      <trkpt lat="49.20403" lon="7.00021">
        <ele>338</ele>
        <time>2012-01-22T09:44:55Z</time>
      </trkpt>
      <trkpt lat="49.20403" lon="7.00018">
        <ele>338</ele>
        <time>2012-01-22T09:44:56Z</time>
      </trkpt>
      <trkpt lat="49.20402" lon="7.00016">
        <ele>338</ele>
        <time>2012-01-22T09:44:57Z</time>
      </trkpt>
      <trkpt lat="49.20401" lon="7.00013">
        <ele>338</ele>
        <time>2012-01-22T09:44:59Z</time>
      </trkpt>
      <trkpt lat="49.20401" lon="7.00011">
        <ele>338</ele>
        <time>2012-01-22T09:45:00Z</time>
      </trkpt>
      <trkpt lat="49.204" lon="7.00008">
        <ele>338</ele>
        <time>2012-01-22T09:45:02Z</time>
      </trkpt>
      <trkpt lat="49.20399" lon="7.00005">
        <ele>338</ele>
        <time>2012-01-22T09:45:04Z</time>
      </trkpt>
      <trkpt lat="49.20399" lon="7.00003">
        <ele>338</ele>
        <time>2012-01-22T09:45:05Z</time>
      </trkpt>
      <trkpt lat="49.20398" lon="7.00001">
        <ele>338</ele>
        <time>2012-01-22T09:45:06Z</time>
      </trkpt>
      <trkpt lat="49.20398" lon="6.99999">
        <ele>338</ele>
        <time>2012-01-22T09:45:07Z</time>
      </trkpt>
      <trkpt lat="49.20397" lon="6.99997">
        <ele>338</ele>
        <time>2012-01-22T09:45:08Z</time>
      </trkpt>
      <trkpt lat="49.20396" lon="6.99995">
        <ele>338</ele>
        <time>2012-01-22T09:45:09Z</time>
      </trkpt>
      <trkpt lat="49.20397" lon="6.99993">
        <ele>338</ele>
        <time>2012-01-22T09:45:11Z</time>
      </trkpt>
      <trkpt lat="49.20396" lon="6.99991">
        <ele>338</ele>
        <time>2012-01-22T09:45:12Z</time>
      </trkpt>
      <trkpt lat="49.20396" lon="6.99989">
        <ele>338</ele>
        <time>2012-01-22T09:45:13Z</time>
      </trkpt>
      <trkpt lat="49.20396" lon="6.99988">
        <ele>338</ele>
        <time>2012-01-22T09:45:14Z</time>
      </trkpt>
      <trkpt lat="49.20395" lon="6.99986">
        <ele>338</ele>
        <time>2012-01-22T09:45:15Z</time>
      </trkpt>
      <trkpt lat="49.20395" lon="6.99984">
        <ele>338</ele>
        <time>2012-01-22T09:45:16Z</time>
      </trkpt>
      <trkpt lat="49.20394" lon="6.99981">
        <ele>338</ele>
        <time>2012-01-22T09:45:17Z</time>
      </trkpt>
      <trkpt lat="49.20394" lon="6.99979">
        <ele>338</ele>
        <time>2012-01-22T09:45:18Z</time>
      </trkpt>
      <trkpt lat="49.20393" lon="6.99977">
        <ele>338</ele>
        <time>2012-01-22T09:45:19Z</time>
      </trkpt>
      <trkpt lat="49.20393" lon="6.99975">
        <ele>338</ele>
        <time>2012-01-22T09:45:20Z</time>
      </trkpt>
      <trkpt lat="49.20393" lon="6.99973">
        <ele>338</ele>
        <time>2012-01-22T09:45:21Z</time>
      </trkpt>
      <trkpt lat="49.20393" lon="6.99972">
        <ele>338</ele>
        <time>2012-01-22T09:45:22Z</time>
      </trkpt>
      <trkpt lat="49.20392" lon="6.9997">
        <ele>338</ele>
        <time>2012-01-22T09:45:23Z</time>
      </trkpt>
      <trkpt lat="49.20391" lon="6.99967">
        <ele>338</ele>
        <time>2012-01-22T09:45:25Z</time>
      </trkpt>
      <trkpt lat="49.20391" lon="6.99965">
        <ele>338</ele>
        <time>2012-01-22T09:45:26Z</time>
      </trkpt>
      <trkpt lat="49.20391" lon="6.99963">
        <ele>338</ele>
        <time>2012-01-22T09:45:28Z</time>
      </trkpt>
      <trkpt lat="49.2039" lon="6.99961">
        <ele>338</ele>
        <time>2012-01-22T09:45:29Z</time>
      </trkpt>
      <trkpt lat="49.2039" lon="6.99959">
        <ele>338</ele>
        <time>2012-01-22T09:45:30Z</time>
      </trkpt>
      <trkpt lat="49.20389" lon="6.99957">
        <ele>338</ele>
        <time>2012-01-22T09:45:31Z</time>
      </trkpt>
      <trkpt lat="49.20389" lon="6.99955">
        <ele>338</ele>
        <time>2012-01-22T09:45:32Z</time>
      </trkpt>
      <trkpt lat="49.20388" lon="6.99953">
        <ele>338</ele>
        <time>2012-01-22T09:45:33Z</time>
      </trkpt>
      <trkpt lat="49.20388" lon="6.99951">
        <ele>338</ele>
        <time>2012-01-22T09:45:34Z</time>
      </trkpt>
      <trkpt lat="49.20387" lon="6.99949">
        <ele>338</ele>
        <time>2012-01-22T09:45:35Z</time>
      </trkpt>
      <trkpt lat="49.20387" lon="6.99948">
        <ele>338</ele>
        <time>2012-01-22T09:45:36Z</time>
      </trkpt>
      <trkpt lat="49.20386" lon="6.99945">
        <ele>338</ele>
        <time>2012-01-22T09:45:37Z</time>
      </trkpt>
      <trkpt lat="49.20385" lon="6.99943">
        <ele>338</ele>
        <time>2012-01-22T09:45:38Z</time>
      </trkpt>
      <trkpt lat="49.20385" lon="6.99941">
        <ele>338</ele>
        <time>2012-01-22T09:45:39Z</time>
      </trkpt>
      <trkpt lat="49.20384" lon="6.99939">
        <ele>338</ele>
        <time>2012-01-22T09:45:40Z</time>
      </trkpt>
      <trkpt lat="49.20383" lon="6.99937">
        <ele>338</ele>
        <time>2012-01-22T09:45:41Z</time>
      </trkpt>
      <trkpt lat="49.20383" lon="6.99935">
        <ele>338</ele>
        <time>2012-01-22T09:45:42Z</time>
      </trkpt>
      <trkpt lat="49.20382" lon="6.99933">
        <ele>338</ele>
        <time>2012-01-22T09:45:43Z</time>
      </trkpt>
      <trkpt lat="49.20382" lon="6.9993">
        <ele>338</ele>
        <time>2012-01-22T09:45:44Z</time>
      </trkpt>
      <trkpt lat="49.20381" lon="6.99929">
        <ele>338</ele>
        <time>2012-01-22T09:45:45Z</time>
      </trkpt>
      <trkpt lat="49.20381" lon="6.99927">
        <ele>338</ele>
        <time>2012-01-22T09:45:46Z</time>
      </trkpt>
      <trkpt lat="49.2038" lon="6.99925">
        <ele>338</ele>
        <time>2012-01-22T09:45:47Z</time>
      </trkpt>
      <trkpt lat="49.2038" lon="6.99923">
        <ele>338</ele>
        <time>2012-01-22T09:45:48Z</time>
      </trkpt>
      <trkpt lat="49.20378" lon="6.9992">
        <ele>338</ele>
        <time>2012-01-22T09:45:49Z</time>
      </trkpt>
      <trkpt lat="49.20377" lon="6.99918">
        <ele>338</ele>
        <time>2012-01-22T09:45:50Z</time>
      </trkpt>
      <trkpt lat="49.20377" lon="6.99916">
        <ele>338</ele>
        <time>2012-01-22T09:45:51Z</time>
      </trkpt>
      <trkpt lat="49.20377" lon="6.99914">
        <ele>339</ele>
        <time>2012-01-22T09:45:52Z</time>
      </trkpt>
      <trkpt lat="49.20376" lon="6.99912">
        <ele>339</ele>
        <time>2012-01-22T09:45:53Z</time>
      </trkpt>
      <trkpt lat="49.20376" lon="6.99909">
        <ele>339</ele>
        <time>2012-01-22T09:45:55Z</time>
      </trkpt>
      <trkpt lat="49.20375" lon="6.99906">
        <ele>339</ele>
        <time>2012-01-22T09:45:57Z</time>
      </trkpt>
      <trkpt lat="49.20375" lon="6.99904">
        <ele>339</ele>
        <time>2012-01-22T09:45:58Z</time>
      </trkpt>
      <trkpt lat="49.20375" lon="6.99902">
        <ele>339</ele>
        <time>2012-01-22T09:45:59Z</time>
      </trkpt>
      <trkpt lat="49.20374" lon="6.999">
        <ele>339</ele>
        <time>2012-01-22T09:46:00Z</time>
      </trkpt>
      <trkpt lat="49.20374" lon="6.99898">
        <ele>339</ele>
        <time>2012-01-22T09:46:01Z</time>
      </trkpt>
      <trkpt lat="49.20373" lon="6.99895">
        <ele>339</ele>
        <time>2012-01-22T09:46:03Z</time>
      </trkpt>
      <trkpt lat="49.20372" lon="6.99892">
        <ele>339</ele>
        <time>2012-01-22T09:46:05Z</time>
      </trkpt>
      <trkpt lat="49.20371" lon="6.99887">
        <ele>339</ele>
        <time>2012-01-22T09:46:07Z</time>
      </trkpt>
      <trkpt lat="49.2037" lon="6.99885">
        <ele>339</ele>
        <time>2012-01-22T09:46:08Z</time>
      </trkpt>
      <trkpt lat="49.2037" lon="6.99883">
        <ele>339</ele>
        <time>2012-01-22T09:46:09Z</time>
      </trkpt>
      <trkpt lat="49.2037" lon="6.99881">
        <ele>339</ele>
        <time>2012-01-22T09:46:10Z</time>
      </trkpt>
      <trkpt lat="49.20369" lon="6.99878">
        <ele>339</ele>
        <time>2012-01-22T09:46:12Z</time>
      </trkpt>
      <trkpt lat="49.20369" lon="6.99876">
        <ele>339</ele>
        <time>2012-01-22T09:46:13Z</time>
      </trkpt>
      <trkpt lat="49.20369" lon="6.99873">
        <ele>339</ele>
        <time>2012-01-22T09:46:14Z</time>
      </trkpt>
      <trkpt lat="49.20368" lon="6.99871">
        <ele>339</ele>
        <time>2012-01-22T09:46:15Z</time>
      </trkpt>
      <trkpt lat="49.20368" lon="6.99869">
        <ele>339</ele>
        <time>2012-01-22T09:46:16Z</time>
      </trkpt>
      <trkpt lat="49.20367" lon="6.99867">
        <ele>339</ele>
        <time>2012-01-22T09:46:17Z</time>
      </trkpt>
      <trkpt lat="49.20366" lon="6.99864">
        <ele>339</ele>
        <time>2012-01-22T09:46:18Z</time>
      </trkpt>
      <trkpt lat="49.20365" lon="6.99862">
        <ele>339</ele>
        <time>2012-01-22T09:46:19Z</time>
      </trkpt>
      <trkpt lat="49.20364" lon="6.99859">
        <ele>339</ele>
        <time>2012-01-22T09:46:20Z</time>
      </trkpt>
      <trkpt lat="49.20364" lon="6.99857">
        <ele>339</ele>
        <time>2012-01-22T09:46:21Z</time>
      </trkpt>
      <trkpt lat="49.20364" lon="6.99854">
        <ele>339</ele>
        <time>2012-01-22T09:46:23Z</time>
      </trkpt>
      <trkpt lat="49.20363" lon="6.99851">
        <ele>339</ele>
        <time>2012-01-22T09:46:24Z</time>
      </trkpt>
      <trkpt lat="49.20362" lon="6.99849">
        <ele>339</ele>
        <time>2012-01-22T09:46:25Z</time>
      </trkpt>
      <trkpt lat="49.20362" lon="6.99847">
        <ele>339</ele>
        <time>2012-01-22T09:46:26Z</time>
      </trkpt>
      <trkpt lat="49.20361" lon="6.99845">
        <ele>339</ele>
        <time>2012-01-22T09:46:27Z</time>
      </trkpt>
      <trkpt lat="49.20361" lon="6.99842">
        <ele>339</ele>
        <time>2012-01-22T09:46:29Z</time>
      </trkpt>
      <trkpt lat="49.2036" lon="6.9984">
        <ele>339</ele>
        <time>2012-01-22T09:46:30Z</time>
      </trkpt>
      <trkpt lat="49.20359" lon="6.99837">
        <ele>339</ele>
        <time>2012-01-22T09:46:31Z</time>
      </trkpt>
      <trkpt lat="49.20359" lon="6.99834">
        <ele>339</ele>
        <time>2012-01-22T09:46:32Z</time>
      </trkpt>
      <trkpt lat="49.20358" lon="6.99832">
        <ele>339</ele>
        <time>2012-01-22T09:46:33Z</time>
      </trkpt>
      <trkpt lat="49.20357" lon="6.9983">
        <ele>339</ele>
        <time>2012-01-22T09:46:34Z</time>
      </trkpt>
      <trkpt lat="49.20357" lon="6.99826">
        <ele>339</ele>
        <time>2012-01-22T09:46:36Z</time>
      </trkpt>
      <trkpt lat="49.20357" lon="6.99824">
        <ele>339</ele>
        <time>2012-01-22T09:46:38Z</time>
      </trkpt>
      <trkpt lat="49.20356" lon="6.99822">
        <ele>339</ele>
        <time>2012-01-22T09:46:39Z</time>
      </trkpt>
      <trkpt lat="49.20356" lon="6.9982">
        <ele>339</ele>
        <time>2012-01-22T09:46:40Z</time>
      </trkpt>
      <trkpt lat="49.20355" lon="6.99818">
        <ele>340</ele>
        <time>2012-01-22T09:46:41Z</time>
      </trkpt>
      <trkpt lat="49.20355" lon="6.99816">
        <ele>341</ele>
        <time>2012-01-22T09:46:42Z</time>
      </trkpt>
      <trkpt lat="49.20354" lon="6.99813">
        <ele>342</ele>
        <time>2012-01-22T09:46:44Z</time>
      </trkpt>
      <trkpt lat="49.20354" lon="6.99811">
        <ele>342</ele>
        <time>2012-01-22T09:46:45Z</time>
      </trkpt>
      <trkpt lat="49.20353" lon="6.99809">
        <ele>343</ele>
        <time>2012-01-22T09:46:46Z</time>
      </trkpt>
      <trkpt lat="49.20353" lon="6.99808">
        <ele>343</ele>
        <time>2012-01-22T09:46:47Z</time>
      </trkpt>
      <trkpt lat="49.20353" lon="6.99805">
        <ele>344</ele>
        <time>2012-01-22T09:46:48Z</time>
      </trkpt>
      <trkpt lat="49.20352" lon="6.99802">
        <ele>345</ele>
        <time>2012-01-22T09:46:50Z</time>
      </trkpt>
      <trkpt lat="49.20351" lon="6.99801">
        <ele>345</ele>
        <time>2012-01-22T09:46:51Z</time>
      </trkpt>
      <trkpt lat="49.20351" lon="6.99799">
        <ele>346</ele>
        <time>2012-01-22T09:46:52Z</time>
      </trkpt>
      <trkpt lat="49.20351" lon="6.99796">
        <ele>346</ele>
        <time>2012-01-22T09:46:53Z</time>
      </trkpt>
      <trkpt lat="49.2035" lon="6.99794">
        <ele>346</ele>
        <time>2012-01-22T09:46:54Z</time>
      </trkpt>
      <trkpt lat="49.20349" lon="6.99792">
        <ele>346</ele>
        <time>2012-01-22T09:46:55Z</time>
      </trkpt>
      <trkpt lat="49.20349" lon="6.9979">
        <ele>346</ele>
        <time>2012-01-22T09:46:56Z</time>
      </trkpt>
      <trkpt lat="49.20348" lon="6.99788">
        <ele>346</ele>
        <time>2012-01-22T09:46:57Z</time>
      </trkpt>
      <trkpt lat="49.20348" lon="6.99786">
        <ele>347</ele>
        <time>2012-01-22T09:46:58Z</time>
      </trkpt>
      <trkpt lat="49.20348" lon="6.99783">
        <ele>347</ele>
        <time>2012-01-22T09:47:00Z</time>
      </trkpt>
      <trkpt lat="49.20347" lon="6.9978">
        <ele>348</ele>
        <time>2012-01-22T09:47:02Z</time>
      </trkpt>
      <trkpt lat="49.20347" lon="6.99778">
        <ele>348</ele>
        <time>2012-01-22T09:47:03Z</time>
      </trkpt>
      <trkpt lat="49.20347" lon="6.99776">
        <ele>348</ele>
        <time>2012-01-22T09:47:04Z</time>
      </trkpt>
      <trkpt lat="49.20346" lon="6.99774">
        <ele>348</ele>
        <time>2012-01-22T09:47:05Z</time>
      </trkpt>
      <trkpt lat="49.20346" lon="6.99771">
        <ele>348</ele>
        <time>2012-01-22T09:47:06Z</time>
      </trkpt>
      <trkpt lat="49.20346" lon="6.99769">
        <ele>348</ele>
        <time>2012-01-22T09:47:07Z</time>
      </trkpt>
      <trkpt lat="49.20346" lon="6.99767">
        <ele>348</ele>
        <time>2012-01-22T09:47:08Z</time>
      </trkpt>
      <trkpt lat="49.20346" lon="6.99766">
        <ele>348</ele>
        <time>2012-01-22T09:47:09Z</time>
      </trkpt>
      <trkpt lat="49.20345" lon="6.99764">
        <ele>348</ele>
        <time>2012-01-22T09:47:10Z</time>
      </trkpt>
      <trkpt lat="49.20345" lon="6.99762">
        <ele>348</ele>
        <time>2012-01-22T09:47:11Z</time>
      </trkpt>
      <trkpt lat="49.20344" lon="6.9976">
        <ele>348</ele>
        <time>2012-01-22T09:47:12Z</time>
      </trkpt>
      <trkpt lat="49.20343" lon="6.99757">
        <ele>348</ele>
        <time>2012-01-22T09:47:13Z</time>
      </trkpt>
      <trkpt lat="49.20343" lon="6.99755">
        <ele>348</ele>
        <time>2012-01-22T09:47:14Z</time>
      </trkpt>
      <trkpt lat="49.20342" lon="6.99753">
        <ele>348</ele>
        <time>2012-01-22T09:47:15Z</time>
      </trkpt>
      <trkpt lat="49.20341" lon="6.99751">
        <ele>347</ele>
        <time>2012-01-22T09:47:16Z</time>
      </trkpt>
      <trkpt lat="49.2034" lon="6.99749">
        <ele>347</ele>
        <time>2012-01-22T09:47:17Z</time>
      </trkpt>
      <trkpt lat="49.20339" lon="6.99746">
        <ele>347</ele>
        <time>2012-01-22T09:47:18Z</time>
      </trkpt>
      <trkpt lat="49.20338" lon="6.99743">
        <ele>347</ele>
        <time>2012-01-22T09:47:19Z</time>
      </trkpt>
      <trkpt lat="49.20337" lon="6.99741">
        <ele>347</ele>
        <time>2012-01-22T09:47:20Z</time>
      </trkpt>
      <trkpt lat="49.20337" lon="6.99739">
        <ele>347</ele>
        <time>2012-01-22T09:47:21Z</time>
      </trkpt>
      <trkpt lat="49.20337" lon="6.99736">
        <ele>347</ele>
        <time>2012-01-22T09:47:22Z</time>
      </trkpt>
      <trkpt lat="49.20337" lon="6.99735">
        <ele>347</ele>
        <time>2012-01-22T09:47:23Z</time>
      </trkpt>
      <trkpt lat="49.20337" lon="6.99733">
        <ele>347</ele>
        <time>2012-01-22T09:47:24Z</time>
      </trkpt>
      <trkpt lat="49.20337" lon="6.99731">
        <ele>347</ele>
        <time>2012-01-22T09:47:25Z</time>
      </trkpt>
      <trkpt lat="49.20336" lon="6.99728">
        <ele>347</ele>
        <time>2012-01-22T09:47:27Z</time>
      </trkpt>
      <trkpt lat="49.20336" lon="6.99726">
        <ele>347</ele>
        <time>2012-01-22T09:47:28Z</time>
      </trkpt>
      <trkpt lat="49.20336" lon="6.99724">
        <ele>347</ele>
        <time>2012-01-22T09:47:29Z</time>
      </trkpt>
      <trkpt lat="49.20335" lon="6.99721">
        <ele>347</ele>
        <time>2012-01-22T09:47:30Z</time>
      </trkpt>
      <trkpt lat="49.20335" lon="6.99718">
        <ele>347</ele>
        <time>2012-01-22T09:47:32Z</time>
      </trkpt>
      <trkpt lat="49.20334" lon="6.99717">
        <ele>347</ele>
        <time>2012-01-22T09:47:33Z</time>
      </trkpt>
      <trkpt lat="49.20333" lon="6.99714">
        <ele>347</ele>
        <time>2012-01-22T09:47:34Z</time>
      </trkpt>
      <trkpt lat="49.20333" lon="6.99712">
        <ele>347</ele>
        <time>2012-01-22T09:47:35Z</time>
      </trkpt>
      <trkpt lat="49.20332" lon="6.9971">
        <ele>347</ele>
        <time>2012-01-22T09:47:36Z</time>
      </trkpt>
      <trkpt lat="49.20332" lon="6.99708">
        <ele>347</ele>
        <time>2012-01-22T09:47:37Z</time>
      </trkpt>
      <trkpt lat="49.20332" lon="6.99706">
        <ele>347</ele>
        <time>2012-01-22T09:47:38Z</time>
      </trkpt>
      <trkpt lat="49.20331" lon="6.99703">
        <ele>347</ele>
        <time>2012-01-22T09:47:39Z</time>
      </trkpt>
      <trkpt lat="49.20331" lon="6.997">
        <ele>347</ele>
        <time>2012-01-22T09:47:40Z</time>
      </trkpt>
      <trkpt lat="49.2033" lon="6.99698">
        <ele>347</ele>
        <time>2012-01-22T09:47:41Z</time>
      </trkpt>
      <trkpt lat="49.2033" lon="6.99695">
        <ele>347</ele>
        <time>2012-01-22T09:47:43Z</time>
      </trkpt>
      <trkpt lat="49.20329" lon="6.99692">
        <ele>347</ele>
        <time>2012-01-22T09:47:44Z</time>
      </trkpt>
      <trkpt lat="49.20329" lon="6.9969">
        <ele>347</ele>
        <time>2012-01-22T09:47:45Z</time>
      </trkpt>
      <trkpt lat="49.20329" lon="6.99688">
        <ele>347</ele>
        <time>2012-01-22T09:47:46Z</time>
      </trkpt>
      <trkpt lat="49.20328" lon="6.99686">
        <ele>347</ele>
        <time>2012-01-22T09:47:47Z</time>
      </trkpt>
      <trkpt lat="49.20328" lon="6.99685">
        <ele>347</ele>
        <time>2012-01-22T09:47:48Z</time>
      </trkpt>
      <trkpt lat="49.20328" lon="6.99683">
        <ele>347</ele>
        <time>2012-01-22T09:47:49Z</time>
      </trkpt>
      <trkpt lat="49.20327" lon="6.99679">
        <ele>347</ele>
        <time>2012-01-22T09:47:51Z</time>
      </trkpt>
      <trkpt lat="49.20327" lon="6.99677">
        <ele>347</ele>
        <time>2012-01-22T09:47:52Z</time>
      </trkpt>
      <trkpt lat="49.20326" lon="6.99675">
        <ele>347</ele>
        <time>2012-01-22T09:47:53Z</time>
      </trkpt>
      <trkpt lat="49.20325" lon="6.99672">
        <ele>347</ele>
        <time>2012-01-22T09:47:54Z</time>
      </trkpt>
      <trkpt lat="49.20325" lon="6.9967">
        <ele>347</ele>
        <time>2012-01-22T09:47:55Z</time>
      </trkpt>
      <trkpt lat="49.20324" lon="6.99668">
        <ele>347</ele>
        <time>2012-01-22T09:47:56Z</time>
      </trkpt>
      <trkpt lat="49.20324" lon="6.99666">
        <ele>347</ele>
        <time>2012-01-22T09:47:57Z</time>
      </trkpt>
      <trkpt lat="49.20323" lon="6.99664">
        <ele>347</ele>
        <time>2012-01-22T09:47:58Z</time>
      </trkpt>
      <trkpt lat="49.20322" lon="6.99662">
        <ele>347</ele>
        <time>2012-01-22T09:47:59Z</time>
      </trkpt>
      <trkpt lat="49.20322" lon="6.99659">
        <ele>347</ele>
        <time>2012-01-22T09:48:00Z</time>
      </trkpt>
      <trkpt lat="49.20321" lon="6.99657">
        <ele>347</ele>
        <time>2012-01-22T09:48:01Z</time>
      </trkpt>
      <trkpt lat="49.20321" lon="6.99655">
        <ele>347</ele>
        <time>2012-01-22T09:48:02Z</time>
      </trkpt>
      <trkpt lat="49.2032" lon="6.99653">
        <ele>347</ele>
        <time>2012-01-22T09:48:03Z</time>
      </trkpt>
      <trkpt lat="49.20319" lon="6.99651">
        <ele>347</ele>
        <time>2012-01-22T09:48:05Z</time>
      </trkpt>
      <trkpt lat="49.20318" lon="6.99649">
        <ele>347</ele>
        <time>2012-01-22T09:48:06Z</time>
      </trkpt>
      <trkpt lat="49.20317" lon="6.99647">
        <ele>347</ele>
        <time>2012-01-22T09:48:07Z</time>
      </trkpt>
      <trkpt lat="49.20317" lon="6.99645">
        <ele>347</ele>
        <time>2012-01-22T09:48:08Z</time>
      </trkpt>
      <trkpt lat="49.20317" lon="6.99643">
        <ele>347</ele>
        <time>2012-01-22T09:48:09Z</time>
      </trkpt>
      <trkpt lat="49.20316" lon="6.99641">
        <ele>347</ele>
        <time>2012-01-22T09:48:10Z</time>
      </trkpt>
      <trkpt lat="49.20316" lon="6.9964">
        <ele>347</ele>
        <time>2012-01-22T09:48:11Z</time>
      </trkpt>
      <trkpt lat="49.20316" lon="6.99638">
        <ele>347</ele>
        <time>2012-01-22T09:48:12Z</time>
      </trkpt>
      <trkpt lat="49.20315" lon="6.99636">
        <ele>347</ele>
        <time>2012-01-22T09:48:13Z</time>
      </trkpt>
      <trkpt lat="49.20315" lon="6.99634">
        <ele>347</ele>
        <time>2012-01-22T09:48:14Z</time>
      </trkpt>
      <trkpt lat="49.20314" lon="6.99632">
        <ele>347</ele>
        <time>2012-01-22T09:48:15Z</time>
      </trkpt>
      <trkpt lat="49.20314" lon="6.9963">
        <ele>347</ele>
        <time>2012-01-22T09:48:16Z</time>
      </trkpt>
      <trkpt lat="49.20313" lon="6.99628">
        <ele>347</ele>
        <time>2012-01-22T09:48:17Z</time>
      </trkpt>
      <trkpt lat="49.20313" lon="6.99626">
        <ele>347</ele>
        <time>2012-01-22T09:48:18Z</time>
      </trkpt>
      <trkpt lat="49.20312" lon="6.99624">
        <ele>347</ele>
        <time>2012-01-22T09:48:19Z</time>
      </trkpt>
      <trkpt lat="49.20312" lon="6.99622">
        <ele>347</ele>
        <time>2012-01-22T09:48:20Z</time>
      </trkpt>
      <trkpt lat="49.20311" lon="6.9962">
        <ele>347</ele>
        <time>2012-01-22T09:48:21Z</time>
      </trkpt>
      <trkpt lat="49.20311" lon="6.99619">
        <ele>347</ele>
        <time>2012-01-22T09:48:22Z</time>
      </trkpt>
      <trkpt lat="49.20311" lon="6.99617">
        <ele>347</ele>
        <time>2012-01-22T09:48:23Z</time>
      </trkpt>
      <trkpt lat="49.2031" lon="6.99615">
        <ele>347</ele>
        <time>2012-01-22T09:48:24Z</time>
      </trkpt>
      <trkpt lat="49.20309" lon="6.99613">
        <ele>347</ele>
        <time>2012-01-22T09:48:25Z</time>
      </trkpt>
      <trkpt lat="49.20309" lon="6.99611">
        <ele>347</ele>
        <time>2012-01-22T09:48:26Z</time>
      </trkpt>
      <trkpt lat="49.20309" lon="6.99609">
        <ele>347</ele>
        <time>2012-01-22T09:48:27Z</time>
      </trkpt>
      <trkpt lat="49.20308" lon="6.99607">
        <ele>347</ele>
        <time>2012-01-22T09:48:28Z</time>
      </trkpt>
      <trkpt lat="49.20307" lon="6.99606">
        <ele>347</ele>
        <time>2012-01-22T09:48:29Z</time>
      </trkpt>
      <trkpt lat="49.20307" lon="6.99604">
        <ele>347</ele>
        <time>2012-01-22T09:48:30Z</time>
      </trkpt>
      <trkpt lat="49.20306" lon="6.99601">
        <ele>347</ele>
        <time>2012-01-22T09:48:32Z</time>
      </trkpt>
      <trkpt lat="49.20305" lon="6.99599">
        <ele>347</ele>
        <time>2012-01-22T09:48:33Z</time>
      </trkpt>
      <trkpt lat="49.20304" lon="6.99596">
        <ele>347</ele>
        <time>2012-01-22T09:48:34Z</time>
      </trkpt>
      <trkpt lat="49.20304" lon="6.99594">
        <ele>347</ele>
        <time>2012-01-22T09:48:35Z</time>
      </trkpt>
      <trkpt lat="49.20303" lon="6.99592">
        <ele>347</ele>
        <time>2012-01-22T09:48:36Z</time>
      </trkpt>
      <trkpt lat="49.20303" lon="6.99589">
        <ele>347</ele>
        <time>2012-01-22T09:48:38Z</time>
      </trkpt>
      <trkpt lat="49.20303" lon="6.99587">
        <ele>347</ele>
        <time>2012-01-22T09:48:39Z</time>
      </trkpt>
      <trkpt lat="49.20302" lon="6.99585">
        <ele>347</ele>
        <time>2012-01-22T09:48:40Z</time>
      </trkpt>
      <trkpt lat="49.20302" lon="6.99583">
        <ele>347</ele>
        <time>2012-01-22T09:48:41Z</time>
      </trkpt>
      <trkpt lat="49.20301" lon="6.99581">
        <ele>347</ele>
        <time>2012-01-22T09:48:42Z</time>
      </trkpt>
      <trkpt lat="49.20301" lon="6.99579">
        <ele>347</ele>
        <time>2012-01-22T09:48:43Z</time>
      </trkpt>
      <trkpt lat="49.203" lon="6.99577">
        <ele>347</ele>
        <time>2012-01-22T09:48:44Z</time>
      </trkpt>
      <trkpt lat="49.20299" lon="6.99575">
        <ele>347</ele>
        <time>2012-01-22T09:48:45Z</time>
      </trkpt>
      <trkpt lat="49.20299" lon="6.99573">
        <ele>347</ele>
        <time>2012-01-22T09:48:46Z</time>
      </trkpt>
      <trkpt lat="49.20299" lon="6.99571">
        <ele>347</ele>
        <time>2012-01-22T09:48:47Z</time>
      </trkpt>
      <trkpt lat="49.20298" lon="6.99569">
        <ele>347</ele>
        <time>2012-01-22T09:48:48Z</time>
      </trkpt>
      <trkpt lat="49.20298" lon="6.99567">
        <ele>347</ele>
        <time>2012-01-22T09:48:49Z</time>
      </trkpt>
      <trkpt lat="49.20298" lon="6.99565">
        <ele>347</ele>
        <time>2012-01-22T09:48:50Z</time>
      </trkpt>
      <trkpt lat="49.20297" lon="6.99563">
        <ele>347</ele>
        <time>2012-01-22T09:48:51Z</time>
      </trkpt>
      <trkpt lat="49.20296" lon="6.99561">
        <ele>347</ele>
        <time>2012-01-22T09:48:52Z</time>
      </trkpt>
      <trkpt lat="49.20296" lon="6.99559">
        <ele>347</ele>
        <time>2012-01-22T09:48:53Z</time>
      </trkpt>
      <trkpt lat="49.20295" lon="6.99556">
        <ele>347</ele>
        <time>2012-01-22T09:48:54Z</time>
      </trkpt>
      <trkpt lat="49.20294" lon="6.99554">
        <ele>347</ele>
        <time>2012-01-22T09:48:55Z</time>
      </trkpt>
      <trkpt lat="49.20294" lon="6.99552">
        <ele>347</ele>
        <time>2012-01-22T09:48:56Z</time>
      </trkpt>
      <trkpt lat="49.20294" lon="6.9955">
        <ele>347</ele>
        <time>2012-01-22T09:48:57Z</time>
      </trkpt>
      <trkpt lat="49.20293" lon="6.99549">
        <ele>347</ele>
        <time>2012-01-22T09:48:58Z</time>
      </trkpt>
      <trkpt lat="49.20293" lon="6.99545">
        <ele>347</ele>
        <time>2012-01-22T09:49:00Z</time>
      </trkpt>
      <trkpt lat="49.20292" lon="6.99543">
        <ele>347</ele>
        <time>2012-01-22T09:49:01Z</time>
      </trkpt>
      <trkpt lat="49.20291" lon="6.99541">
        <ele>347</ele>
        <time>2012-01-22T09:49:02Z</time>
      </trkpt>
      <trkpt lat="49.20291" lon="6.99538">
        <ele>347</ele>
        <time>2012-01-22T09:49:03Z</time>
      </trkpt>
      <trkpt lat="49.2029" lon="6.99536">
        <ele>347</ele>
        <time>2012-01-22T09:49:04Z</time>
      </trkpt>
      <trkpt lat="49.2029" lon="6.99534">
        <ele>347</ele>
        <time>2012-01-22T09:49:05Z</time>
      </trkpt>
      <trkpt lat="49.20289" lon="6.99532">
        <ele>347</ele>
        <time>2012-01-22T09:49:06Z</time>
      </trkpt>
      <trkpt lat="49.20289" lon="6.99531">
        <ele>347</ele>
        <time>2012-01-22T09:49:07Z</time>
      </trkpt>
      <trkpt lat="49.20288" lon="6.99529">
        <ele>347</ele>
        <time>2012-01-22T09:49:08Z</time>
      </trkpt>
      <trkpt lat="49.20287" lon="6.99526">
        <ele>347</ele>
        <time>2012-01-22T09:49:09Z</time>
      </trkpt>
      <trkpt lat="49.20287" lon="6.99524">
        <ele>347</ele>
        <time>2012-01-22T09:49:10Z</time>
      </trkpt>
      <trkpt lat="49.20286" lon="6.99522">
        <ele>346</ele>
        <time>2012-01-22T09:49:11Z</time>
      </trkpt>
      <trkpt lat="49.20285" lon="6.99519">
        <ele>346</ele>
        <time>2012-01-22T09:49:12Z</time>
      </trkpt>
      <trkpt lat="49.20284" lon="6.99516">
        <ele>345</ele>
        <time>2012-01-22T09:49:13Z</time>
      </trkpt>
      <trkpt lat="49.20284" lon="6.99514">
        <ele>345</ele>
        <time>2012-01-22T09:49:14Z</time>
      </trkpt>
      <trkpt lat="49.20282" lon="6.99512">
        <ele>345</ele>
        <time>2012-01-22T09:49:15Z</time>
      </trkpt>
      <trkpt lat="49.20281" lon="6.9951">
        <ele>345</ele>
        <time>2012-01-22T09:49:16Z</time>
      </trkpt>
      <trkpt lat="49.2028" lon="6.99508">
        <ele>345</ele>
        <time>2012-01-22T09:49:17Z</time>
      </trkpt>
      <trkpt lat="49.2028" lon="6.99506">
        <ele>345</ele>
        <time>2012-01-22T09:49:18Z</time>
      </trkpt>
      <trkpt lat="49.2028" lon="6.99504">
        <ele>345</ele>
        <time>2012-01-22T09:49:19Z</time>
      </trkpt>
      <trkpt lat="49.20279" lon="6.99502">
        <ele>345</ele>
        <time>2012-01-22T09:49:20Z</time>
      </trkpt>
      <trkpt lat="49.20279" lon="6.995">
        <ele>345</ele>
        <time>2012-01-22T09:49:21Z</time>
      </trkpt>
      <trkpt lat="49.20279" lon="6.99498">
        <ele>345</ele>
        <time>2012-01-22T09:49:22Z</time>
      </trkpt>
      <trkpt lat="49.20278" lon="6.99496">
        <ele>345</ele>
        <time>2012-01-22T09:49:23Z</time>
      </trkpt>
      <trkpt lat="49.20277" lon="6.99494">
        <ele>345</ele>
        <time>2012-01-22T09:49:24Z</time>
      </trkpt>
      <trkpt lat="49.20277" lon="6.99492">
        <ele>345</ele>
        <time>2012-01-22T09:49:25Z</time>
      </trkpt>
      <trkpt lat="49.20277" lon="6.9949">
        <ele>345</ele>
        <time>2012-01-22T09:49:26Z</time>
      </trkpt>
      <trkpt lat="49.20276" lon="6.99488">
        <ele>345</ele>
        <time>2012-01-22T09:49:27Z</time>
      </trkpt>
      <trkpt lat="49.20275" lon="6.99485">
        <ele>345</ele>
        <time>2012-01-22T09:49:28Z</time>
      </trkpt>
      <trkpt lat="49.20275" lon="6.99481">
        <ele>345</ele>
        <time>2012-01-22T09:49:30Z</time>
      </trkpt>
      <trkpt lat="49.20274" lon="6.9948">
        <ele>345</ele>
        <time>2012-01-22T09:49:31Z</time>
      </trkpt>
      <trkpt lat="49.20272" lon="6.99477">
        <ele>345</ele>
        <time>2012-01-22T09:49:33Z</time>
      </trkpt>
      <trkpt lat="49.2027" lon="6.99474">
        <ele>345</ele>
        <time>2012-01-22T09:49:35Z</time>
      </trkpt>
      <trkpt lat="49.20269" lon="6.99471">
        <ele>345</ele>
        <time>2012-01-22T09:49:37Z</time>
      </trkpt>
      <trkpt lat="49.20268" lon="6.99468">
        <ele>345</ele>
        <time>2012-01-22T09:49:39Z</time>
      </trkpt>
      <trkpt lat="49.20267" lon="6.99465">
        <ele>345</ele>
        <time>2012-01-22T09:49:40Z</time>
      </trkpt>
      <trkpt lat="49.20267" lon="6.99463">
        <ele>345</ele>
        <time>2012-01-22T09:49:41Z</time>
      </trkpt>
      <trkpt lat="49.20266" lon="6.99461">
        <ele>345</ele>
        <time>2012-01-22T09:49:42Z</time>
      </trkpt>
      <trkpt lat="49.20266" lon="6.9946">
        <ele>345</ele>
        <time>2012-01-22T09:49:43Z</time>
      </trkpt>
      <trkpt lat="49.20266" lon="6.99458">
        <ele>345</ele>
        <time>2012-01-22T09:49:44Z</time>
      </trkpt>
      <trkpt lat="49.20264" lon="6.99454">
        <ele>345</ele>
        <time>2012-01-22T09:49:46Z</time>
      </trkpt>
      <trkpt lat="49.20264" lon="6.99452">
        <ele>345</ele>
        <time>2012-01-22T09:49:47Z</time>
      </trkpt>
      <trkpt lat="49.20264" lon="6.9945">
        <ele>345</ele>
        <time>2012-01-22T09:49:48Z</time>
      </trkpt>
      <trkpt lat="49.20264" lon="6.99448">
        <ele>345</ele>
        <time>2012-01-22T09:49:49Z</time>
      </trkpt>
      <trkpt lat="49.20264" lon="6.99446">
        <ele>345</ele>
        <time>2012-01-22T09:49:50Z</time>
      </trkpt>
      <trkpt lat="49.20264" lon="6.99444">
        <ele>345</ele>
        <time>2012-01-22T09:49:51Z</time>
      </trkpt>
      <trkpt lat="49.20264" lon="6.99442">
        <ele>345</ele>
        <time>2012-01-22T09:49:52Z</time>
      </trkpt>
      <trkpt lat="49.20263" lon="6.99439">
        <ele>345</ele>
        <time>2012-01-22T09:49:53Z</time>
      </trkpt>
      <trkpt lat="49.20262" lon="6.99436">
        <ele>345</ele>
        <time>2012-01-22T09:49:54Z</time>
      </trkpt>
      <trkpt lat="49.20261" lon="6.99434">
        <ele>345</ele>
        <time>2012-01-22T09:49:55Z</time>
      </trkpt>
      <trkpt lat="49.20261" lon="6.99431">
        <ele>345</ele>
        <time>2012-01-22T09:49:56Z</time>
      </trkpt>
      <trkpt lat="49.2026" lon="6.99429">
        <ele>345</ele>
        <time>2012-01-22T09:49:57Z</time>
      </trkpt>
      <trkpt lat="49.2026" lon="6.99426">
        <ele>345</ele>
        <time>2012-01-22T09:49:58Z</time>
      </trkpt>
      <trkpt lat="49.20259" lon="6.99424">
        <ele>345</ele>
        <time>2012-01-22T09:49:59Z</time>
      </trkpt>
      <trkpt lat="49.20259" lon="6.99422">
        <ele>345</ele>
        <time>2012-01-22T09:50:00Z</time>
      </trkpt>
      <trkpt lat="49.20258" lon="6.9942">
        <ele>345</ele>
        <time>2012-01-22T09:50:01Z</time>
      </trkpt>
      <trkpt lat="49.20258" lon="6.99418">
        <ele>345</ele>
        <time>2012-01-22T09:50:02Z</time>
      </trkpt>
      <trkpt lat="49.20258" lon="6.99416">
        <ele>345</ele>
        <time>2012-01-22T09:50:03Z</time>
      </trkpt>
      <trkpt lat="49.20257" lon="6.99414">
        <ele>345</ele>
        <time>2012-01-22T09:50:04Z</time>
      </trkpt>
      <trkpt lat="49.20257" lon="6.99412">
        <ele>345</ele>
        <time>2012-01-22T09:50:05Z</time>
      </trkpt>
      <trkpt lat="49.20256" lon="6.9941">
        <ele>345</ele>
        <time>2012-01-22T09:50:06Z</time>
      </trkpt>
      <trkpt lat="49.20255" lon="6.99408">
        <ele>345</ele>
        <time>2012-01-22T09:50:07Z</time>
      </trkpt>
      <trkpt lat="49.20255" lon="6.99406">
        <ele>345</ele>
        <time>2012-01-22T09:50:08Z</time>
      </trkpt>
      <trkpt lat="49.20254" lon="6.99404">
        <ele>345</ele>
        <time>2012-01-22T09:50:09Z</time>
      </trkpt>
      <trkpt lat="49.20253" lon="6.99402">
        <ele>345</ele>
        <time>2012-01-22T09:50:10Z</time>
      </trkpt>
      <trkpt lat="49.20252" lon="6.994">
        <ele>345</ele>
        <time>2012-01-22T09:50:11Z</time>
      </trkpt>
      <trkpt lat="49.20252" lon="6.99398">
        <ele>345</ele>
        <time>2012-01-22T09:50:12Z</time>
      </trkpt>
      <trkpt lat="49.20252" lon="6.99396">
        <ele>345</ele>
        <time>2012-01-22T09:50:13Z</time>
      </trkpt>
      <trkpt lat="49.20251" lon="6.99394">
        <ele>345</ele>
        <time>2012-01-22T09:50:14Z</time>
      </trkpt>
      <trkpt lat="49.20251" lon="6.99391">
        <ele>345</ele>
        <time>2012-01-22T09:50:15Z</time>
      </trkpt>
      <trkpt lat="49.2025" lon="6.99389">
        <ele>345</ele>
        <time>2012-01-22T09:50:16Z</time>
      </trkpt>
      <trkpt lat="49.20251" lon="6.99387">
        <ele>345</ele>
        <time>2012-01-22T09:50:17Z</time>
      </trkpt>
      <trkpt lat="49.20251" lon="6.99385">
        <ele>345</ele>
        <time>2012-01-22T09:50:18Z</time>
      </trkpt>
      <trkpt lat="49.2025" lon="6.99383">
        <ele>345</ele>
        <time>2012-01-22T09:50:19Z</time>
      </trkpt>
      <trkpt lat="49.2025" lon="6.99381">
        <ele>345</ele>
        <time>2012-01-22T09:50:20Z</time>
      </trkpt>
      <trkpt lat="49.20249" lon="6.99379">
        <ele>345</ele>
        <time>2012-01-22T09:50:21Z</time>
      </trkpt>
      <trkpt lat="49.20248" lon="6.99377">
        <ele>345</ele>
        <time>2012-01-22T09:50:22Z</time>
      </trkpt>
      <trkpt lat="49.20248" lon="6.99375">
        <ele>345</ele>
        <time>2012-01-22T09:50:23Z</time>
      </trkpt>
      <trkpt lat="49.20248" lon="6.99373">
        <ele>345</ele>
        <time>2012-01-22T09:50:24Z</time>
      </trkpt>
      <trkpt lat="49.20247" lon="6.99371">
        <ele>345</ele>
        <time>2012-01-22T09:50:25Z</time>
      </trkpt>
      <trkpt lat="49.20247" lon="6.99369">
        <ele>345</ele>
        <time>2012-01-22T09:50:26Z</time>
      </trkpt>
      <trkpt lat="49.20247" lon="6.99367">
        <ele>345</ele>
        <time>2012-01-22T09:50:27Z</time>
      </trkpt>
      <trkpt lat="49.20246" lon="6.99365">
        <ele>345</ele>
        <time>2012-01-22T09:50:28Z</time>
      </trkpt>
      <trkpt lat="49.20245" lon="6.99363">
        <ele>345</ele>
        <time>2012-01-22T09:50:29Z</time>
      </trkpt>
      <trkpt lat="49.20245" lon="6.99361">
        <ele>345</ele>
        <time>2012-01-22T09:50:30Z</time>
      </trkpt>
      <trkpt lat="49.20244" lon="6.99359">
        <ele>345</ele>
        <time>2012-01-22T09:50:31Z</time>
      </trkpt>
      <trkpt lat="49.20244" lon="6.99358">
        <ele>345</ele>
        <time>2012-01-22T09:50:32Z</time>
      </trkpt>
      <trkpt lat="49.20244" lon="6.99355">
        <ele>345</ele>
        <time>2012-01-22T09:50:33Z</time>
      </trkpt>
      <trkpt lat="49.20243" lon="6.99353">
        <ele>345</ele>
        <time>2012-01-22T09:50:34Z</time>
      </trkpt>
      <trkpt lat="49.20243" lon="6.9935">
        <ele>345</ele>
        <time>2012-01-22T09:50:35Z</time>
      </trkpt>
      <trkpt lat="49.20242" lon="6.99348">
        <ele>345</ele>
        <time>2012-01-22T09:50:36Z</time>
      </trkpt>
      <trkpt lat="49.20242" lon="6.99346">
        <ele>345</ele>
        <time>2012-01-22T09:50:37Z</time>
      </trkpt>
      <trkpt lat="49.20241" lon="6.99344">
        <ele>345</ele>
        <time>2012-01-22T09:50:38Z</time>
      </trkpt>
      <trkpt lat="49.2024" lon="6.99342">
        <ele>345</ele>
        <time>2012-01-22T09:50:40Z</time>
      </trkpt>
      <trkpt lat="49.2024" lon="6.99338">
        <ele>345</ele>
        <time>2012-01-22T09:50:42Z</time>
      </trkpt>
      <trkpt lat="49.2024" lon="6.99336">
        <ele>345</ele>
        <time>2012-01-22T09:50:43Z</time>
      </trkpt>
      <trkpt lat="49.20239" lon="6.99334">
        <ele>345</ele>
        <time>2012-01-22T09:50:44Z</time>
      </trkpt>
      <trkpt lat="49.20239" lon="6.99332">
        <ele>345</ele>
        <time>2012-01-22T09:50:45Z</time>
      </trkpt>
      <trkpt lat="49.20238" lon="6.9933">
        <ele>345</ele>
        <time>2012-01-22T09:50:46Z</time>
      </trkpt>
      <trkpt lat="49.20237" lon="6.99327">
        <ele>345</ele>
        <time>2012-01-22T09:50:47Z</time>
      </trkpt>
      <trkpt lat="49.20237" lon="6.99325">
        <ele>345</ele>
        <time>2012-01-22T09:50:48Z</time>
      </trkpt>
      <trkpt lat="49.20237" lon="6.99322">
        <ele>345</ele>
        <time>2012-01-22T09:50:49Z</time>
      </trkpt>
      <trkpt lat="49.20236" lon="6.9932">
        <ele>345</ele>
        <time>2012-01-22T09:50:50Z</time>
      </trkpt>
      <trkpt lat="49.20236" lon="6.99318">
        <ele>345</ele>
        <time>2012-01-22T09:50:51Z</time>
      </trkpt>
      <trkpt lat="49.20235" lon="6.99317">
        <ele>345</ele>
        <time>2012-01-22T09:50:52Z</time>
      </trkpt>
      <trkpt lat="49.20235" lon="6.99314">
        <ele>345</ele>
        <time>2012-01-22T09:50:53Z</time>
      </trkpt>
      <trkpt lat="49.20235" lon="6.99311">
        <ele>345</ele>
        <time>2012-01-22T09:50:55Z</time>
      </trkpt>
      <trkpt lat="49.20235" lon="6.99308">
        <ele>346</ele>
        <time>2012-01-22T09:50:57Z</time>
      </trkpt>
      <trkpt lat="49.20234" lon="6.99306">
        <ele>346</ele>
        <time>2012-01-22T09:50:58Z</time>
      </trkpt>
      <trkpt lat="49.20234" lon="6.99304">
        <ele>346</ele>
        <time>2012-01-22T09:50:59Z</time>
      </trkpt>
      <trkpt lat="49.20233" lon="6.99302">
        <ele>346</ele>
        <time>2012-01-22T09:51:00Z</time>
      </trkpt>
      <trkpt lat="49.20232" lon="6.993">
        <ele>346</ele>
        <time>2012-01-22T09:51:01Z</time>
      </trkpt>
      <trkpt lat="49.20232" lon="6.99298">
        <ele>346</ele>
        <time>2012-01-22T09:51:02Z</time>
      </trkpt>
      <trkpt lat="49.20232" lon="6.99296">
        <ele>346</ele>
        <time>2012-01-22T09:51:03Z</time>
      </trkpt>
      <trkpt lat="49.20231" lon="6.99294">
        <ele>346</ele>
        <time>2012-01-22T09:51:04Z</time>
      </trkpt>
      <trkpt lat="49.2023" lon="6.99293">
        <ele>346</ele>
        <time>2012-01-22T09:51:05Z</time>
      </trkpt>
      <trkpt lat="49.2023" lon="6.9929">
        <ele>346</ele>
        <time>2012-01-22T09:51:06Z</time>
      </trkpt>
      <trkpt lat="49.20229" lon="6.99288">
        <ele>346</ele>
        <time>2012-01-22T09:51:07Z</time>
      </trkpt>
      <trkpt lat="49.20228" lon="6.99286">
        <ele>346</ele>
        <time>2012-01-22T09:51:08Z</time>
      </trkpt>
      <trkpt lat="49.20227" lon="6.99284">
        <ele>346</ele>
        <time>2012-01-22T09:51:09Z</time>
      </trkpt>
      <trkpt lat="49.20227" lon="6.99282">
        <ele>346</ele>
        <time>2012-01-22T09:51:10Z</time>
      </trkpt>
      <trkpt lat="49.20226" lon="6.9928">
        <ele>346</ele>
        <time>2012-01-22T09:51:11Z</time>
      </trkpt>
      <trkpt lat="49.20226" lon="6.99277">
        <ele>346</ele>
        <time>2012-01-22T09:51:12Z</time>
      </trkpt>
      <trkpt lat="49.20225" lon="6.99275">
        <ele>346</ele>
        <time>2012-01-22T09:51:13Z</time>
      </trkpt>
      <trkpt lat="49.20225" lon="6.99273">
        <ele>346</ele>
        <time>2012-01-22T09:51:14Z</time>
      </trkpt>
      <trkpt lat="49.20224" lon="6.99271">
        <ele>346</ele>
        <time>2012-01-22T09:51:15Z</time>
      </trkpt>
      <trkpt lat="49.20224" lon="6.99269">
        <ele>346</ele>
        <time>2012-01-22T09:51:16Z</time>
      </trkpt>
      <trkpt lat="49.20223" lon="6.99267">
        <ele>346</ele>
        <time>2012-01-22T09:51:17Z</time>
      </trkpt>
      <trkpt lat="49.20223" lon="6.99266">
        <ele>346</ele>
        <time>2012-01-22T09:51:18Z</time>
      </trkpt>
      <trkpt lat="49.20223" lon="6.99264">
        <ele>346</ele>
        <time>2012-01-22T09:51:19Z</time>
      </trkpt>
      <trkpt lat="49.20222" lon="6.99262">
        <ele>346</ele>
        <time>2012-01-22T09:51:20Z</time>
      </trkpt>
      <trkpt lat="49.20221" lon="6.99259">
        <ele>346</ele>
        <time>2012-01-22T09:51:21Z</time>
      </trkpt>
      <trkpt lat="49.20221" lon="6.99257">
        <ele>346</ele>
        <time>2012-01-22T09:51:22Z</time>
      </trkpt>
      <trkpt lat="49.2022" lon="6.99256">
        <ele>346</ele>
        <time>2012-01-22T09:51:23Z</time>
      </trkpt>
      <trkpt lat="49.2022" lon="6.99254">
        <ele>346</ele>
        <time>2012-01-22T09:51:24Z</time>
      </trkpt>
      <trkpt lat="49.20219" lon="6.99251">
        <ele>346</ele>
        <time>2012-01-22T09:51:25Z</time>
      </trkpt>
      <trkpt lat="49.20219" lon="6.99249">
        <ele>346</ele>
        <time>2012-01-22T09:51:26Z</time>
      </trkpt>
      <trkpt lat="49.20218" lon="6.99246">
        <ele>346</ele>
        <time>2012-01-22T09:51:27Z</time>
      </trkpt>
      <trkpt lat="49.20218" lon="6.99243">
        <ele>346</ele>
        <time>2012-01-22T09:51:29Z</time>
      </trkpt>
      <trkpt lat="49.20217" lon="6.99241">
        <ele>346</ele>
        <time>2012-01-22T09:51:30Z</time>
      </trkpt>
      <trkpt lat="49.20217" lon="6.99239">
        <ele>346</ele>
        <time>2012-01-22T09:51:31Z</time>
      </trkpt>
      <trkpt lat="49.20216" lon="6.99237">
        <ele>346</ele>
        <time>2012-01-22T09:51:32Z</time>
      </trkpt>
      <trkpt lat="49.20215" lon="6.99234">
        <ele>346</ele>
        <time>2012-01-22T09:51:33Z</time>
      </trkpt>
      <trkpt lat="49.20214" lon="6.99232">
        <ele>346</ele>
        <time>2012-01-22T09:51:34Z</time>
      </trkpt>
      <trkpt lat="49.20214" lon="6.9923">
        <ele>346</ele>
        <time>2012-01-22T09:51:35Z</time>
      </trkpt>
      <trkpt lat="49.20213" lon="6.99228">
        <ele>346</ele>
        <time>2012-01-22T09:51:36Z</time>
      </trkpt>
      <trkpt lat="49.20213" lon="6.99227">
        <ele>346</ele>
        <time>2012-01-22T09:51:37Z</time>
      </trkpt>
      <trkpt lat="49.20213" lon="6.99225">
        <ele>346</ele>
        <time>2012-01-22T09:51:38Z</time>
      </trkpt>
      <trkpt lat="49.20212" lon="6.99223">
        <ele>346</ele>
        <time>2012-01-22T09:51:39Z</time>
      </trkpt>
      <trkpt lat="49.20212" lon="6.99221">
        <ele>346</ele>
        <time>2012-01-22T09:51:40Z</time>
      </trkpt>
      <trkpt lat="49.20211" lon="6.99219">
        <ele>346</ele>
        <time>2012-01-22T09:51:41Z</time>
      </trkpt>
      <trkpt lat="49.2021" lon="6.99216">
        <ele>346</ele>
        <time>2012-01-22T09:51:43Z</time>
      </trkpt>
      <trkpt lat="49.20209" lon="6.99214">
        <ele>346</ele>
        <time>2012-01-22T09:51:44Z</time>
      </trkpt>
      <trkpt lat="49.20208" lon="6.9921">
        <ele>346</ele>
        <time>2012-01-22T09:51:46Z</time>
      </trkpt>
      <trkpt lat="49.20207" lon="6.99208">
        <ele>346</ele>
        <time>2012-01-22T09:51:47Z</time>
      </trkpt>
      <trkpt lat="49.20207" lon="6.99206">
        <ele>346</ele>
        <time>2012-01-22T09:51:48Z</time>
      </trkpt>
      <trkpt lat="49.20206" lon="6.99203">
        <ele>346</ele>
        <time>2012-01-22T09:51:49Z</time>
      </trkpt>
      <trkpt lat="49.20206" lon="6.99201">
        <ele>346</ele>
        <time>2012-01-22T09:51:50Z</time>
      </trkpt>
      <trkpt lat="49.20206" lon="6.992">
        <ele>346</ele>
        <time>2012-01-22T09:51:51Z</time>
      </trkpt>
      <trkpt lat="49.20205" lon="6.99197">
        <ele>346</ele>
        <time>2012-01-22T09:51:52Z</time>
      </trkpt>
      <trkpt lat="49.20205" lon="6.99196">
        <ele>346</ele>
        <time>2012-01-22T09:51:53Z</time>
      </trkpt>
      <trkpt lat="49.20205" lon="6.99194">
        <ele>346</ele>
        <time>2012-01-22T09:51:54Z</time>
      </trkpt>
      <trkpt lat="49.20204" lon="6.99192">
        <ele>346</ele>
        <time>2012-01-22T09:51:55Z</time>
      </trkpt>
      <trkpt lat="49.20204" lon="6.9919">
        <ele>346</ele>
        <time>2012-01-22T09:51:56Z</time>
      </trkpt>
      <trkpt lat="49.20204" lon="6.99188">
        <ele>346</ele>
        <time>2012-01-22T09:51:57Z</time>
      </trkpt>
      <trkpt lat="49.20203" lon="6.99187">
        <ele>346</ele>
        <time>2012-01-22T09:51:58Z</time>
      </trkpt>
      <trkpt lat="49.20203" lon="6.99185">
        <ele>345</ele>
        <time>2012-01-22T09:51:59Z</time>
      </trkpt>
      <trkpt lat="49.20203" lon="6.99183">
        <ele>345</ele>
        <time>2012-01-22T09:52:00Z</time>
      </trkpt>
      <trkpt lat="49.20202" lon="6.99181">
        <ele>345</ele>
        <time>2012-01-22T09:52:01Z</time>
      </trkpt>
      <trkpt lat="49.20202" lon="6.99179">
        <ele>345</ele>
        <time>2012-01-22T09:52:02Z</time>
      </trkpt>
      <trkpt lat="49.20202" lon="6.99178">
        <ele>345</ele>
        <time>2012-01-22T09:52:03Z</time>
      </trkpt>
      <trkpt lat="49.20201" lon="6.99175">
        <ele>345</ele>
        <time>2012-01-22T09:52:04Z</time>
      </trkpt>
      <trkpt lat="49.20201" lon="6.99173">
        <ele>344</ele>
        <time>2012-01-22T09:52:05Z</time>
      </trkpt>
      <trkpt lat="49.202" lon="6.99171">
        <ele>344</ele>
        <time>2012-01-22T09:52:06Z</time>
      </trkpt>
      <trkpt lat="49.202" lon="6.99169">
        <ele>344</ele>
        <time>2012-01-22T09:52:07Z</time>
      </trkpt>
      <trkpt lat="49.202" lon="6.99167">
        <ele>344</ele>
        <time>2012-01-22T09:52:08Z</time>
      </trkpt>
      <trkpt lat="49.20199" lon="6.99165">
        <ele>344</ele>
        <time>2012-01-22T09:52:09Z</time>
      </trkpt>
      <trkpt lat="49.20199" lon="6.99163">
        <ele>344</ele>
        <time>2012-01-22T09:52:10Z</time>
      </trkpt>
      <trkpt lat="49.20198" lon="6.99161">
        <ele>344</ele>
        <time>2012-01-22T09:52:11Z</time>
      </trkpt>
      <trkpt lat="49.20198" lon="6.9916">
        <ele>344</ele>
        <time>2012-01-22T09:52:12Z</time>
      </trkpt>
      <trkpt lat="49.20198" lon="6.99158">
        <ele>344</ele>
        <time>2012-01-22T09:52:13Z</time>
      </trkpt>
      <trkpt lat="49.20197" lon="6.99155">
        <ele>344</ele>
        <time>2012-01-22T09:52:14Z</time>
      </trkpt>
      <trkpt lat="49.20196" lon="6.99153">
        <ele>344</ele>
        <time>2012-01-22T09:52:15Z</time>
      </trkpt>
      <trkpt lat="49.20195" lon="6.99151">
        <ele>344</ele>
        <time>2012-01-22T09:52:16Z</time>
      </trkpt>
      <trkpt lat="49.20195" lon="6.99148">
        <ele>344</ele>
        <time>2012-01-22T09:52:17Z</time>
      </trkpt>
      <trkpt lat="49.20194" lon="6.99146">
        <ele>344</ele>
        <time>2012-01-22T09:52:18Z</time>
      </trkpt>
      <trkpt lat="49.20194" lon="6.99144">
        <ele>344</ele>
        <time>2012-01-22T09:52:19Z</time>
      </trkpt>
      <trkpt lat="49.20193" lon="6.99142">
        <ele>344</ele>
        <time>2012-01-22T09:52:20Z</time>
      </trkpt>
      <trkpt lat="49.20193" lon="6.9914">
        <ele>344</ele>
        <time>2012-01-22T09:52:21Z</time>
      </trkpt>
      <trkpt lat="49.20192" lon="6.99138">
        <ele>344</ele>
        <time>2012-01-22T09:52:22Z</time>
      </trkpt>
      <trkpt lat="49.20192" lon="6.99136">
        <ele>344</ele>
        <time>2012-01-22T09:52:23Z</time>
      </trkpt>
      <trkpt lat="49.20192" lon="6.99134">
        <ele>344</ele>
        <time>2012-01-22T09:52:24Z</time>
      </trkpt>
      <trkpt lat="49.20191" lon="6.99132">
        <ele>344</ele>
        <time>2012-01-22T09:52:25Z</time>
      </trkpt>
      <trkpt lat="49.20191" lon="6.9913">
        <ele>344</ele>
        <time>2012-01-22T09:52:26Z</time>
      </trkpt>
      <trkpt lat="49.2019" lon="6.99128">
        <ele>344</ele>
        <time>2012-01-22T09:52:27Z</time>
      </trkpt>
      <trkpt lat="49.2019" lon="6.99126">
        <ele>344</ele>
        <time>2012-01-22T09:52:28Z</time>
      </trkpt>
      <trkpt lat="49.20189" lon="6.99123">
        <ele>344</ele>
        <time>2012-01-22T09:52:29Z</time>
      </trkpt>
      <trkpt lat="49.20188" lon="6.99121">
        <ele>344</ele>
        <time>2012-01-22T09:52:30Z</time>
      </trkpt>
      <trkpt lat="49.20188" lon="6.9912">
        <ele>344</ele>
        <time>2012-01-22T09:52:31Z</time>
      </trkpt>
      <trkpt lat="49.20188" lon="6.99118">
        <ele>344</ele>
        <time>2012-01-22T09:52:32Z</time>
      </trkpt>
      <trkpt lat="49.20187" lon="6.99115">
        <ele>344</ele>
        <time>2012-01-22T09:52:33Z</time>
      </trkpt>
      <trkpt lat="49.20187" lon="6.99113">
        <ele>344</ele>
        <time>2012-01-22T09:52:34Z</time>
      </trkpt>
      <trkpt lat="49.20186" lon="6.99111">
        <ele>344</ele>
        <time>2012-01-22T09:52:35Z</time>
      </trkpt>
      <trkpt lat="49.20185" lon="6.99109">
        <ele>344</ele>
        <time>2012-01-22T09:52:36Z</time>
      </trkpt>
      <trkpt lat="49.20184" lon="6.99107">
        <ele>344</ele>
        <time>2012-01-22T09:52:37Z</time>
      </trkpt>
      <trkpt lat="49.20183" lon="6.99104">
        <ele>344</ele>
        <time>2012-01-22T09:52:38Z</time>
      </trkpt>
      <trkpt lat="49.20182" lon="6.99102">
        <ele>344</ele>
        <time>2012-01-22T09:52:39Z</time>
      </trkpt>
      <trkpt lat="49.20182" lon="6.991">
        <ele>344</ele>
        <time>2012-01-22T09:52:40Z</time>
      </trkpt>
      <trkpt lat="49.20181" lon="6.99098">
        <ele>344</ele>
        <time>2012-01-22T09:52:41Z</time>
      </trkpt>
      <trkpt lat="49.2018" lon="6.99096">
        <ele>344</ele>
        <time>2012-01-22T09:52:42Z</time>
      </trkpt>
      <trkpt lat="49.20179" lon="6.99095">
        <ele>344</ele>
        <time>2012-01-22T09:52:43Z</time>
      </trkpt>
      <trkpt lat="49.20178" lon="6.99091">
        <ele>343</ele>
        <time>2012-01-22T09:52:45Z</time>
      </trkpt>
      <trkpt lat="49.20178" lon="6.99089">
        <ele>343</ele>
        <time>2012-01-22T09:52:47Z</time>
      </trkpt>
      <trkpt lat="49.20178" lon="6.99086">
        <ele>343</ele>
        <time>2012-01-22T09:52:48Z</time>
      </trkpt>
      <trkpt lat="49.20177" lon="6.99084">
        <ele>343</ele>
        <time>2012-01-22T09:52:49Z</time>
      </trkpt>
      <trkpt lat="49.20177" lon="6.99082">
        <ele>343</ele>
        <time>2012-01-22T09:52:50Z</time>
      </trkpt>
      <trkpt lat="49.20177" lon="6.9908">
        <ele>343</ele>
        <time>2012-01-22T09:52:51Z</time>
      </trkpt>
      <trkpt lat="49.20176" lon="6.99078">
        <ele>343</ele>
        <time>2012-01-22T09:52:52Z</time>
      </trkpt>
      <trkpt lat="49.20176" lon="6.99074">
        <ele>343</ele>
        <time>2012-01-22T09:52:54Z</time>
      </trkpt>
      <trkpt lat="49.20176" lon="6.99073">
        <ele>343</ele>
        <time>2012-01-22T09:52:55Z</time>
      </trkpt>
      <trkpt lat="49.20176" lon="6.99071">
        <ele>343</ele>
        <time>2012-01-22T09:52:56Z</time>
      </trkpt>
      <trkpt lat="49.20175" lon="6.99067">
        <ele>343</ele>
        <time>2012-01-22T09:52:58Z</time>
      </trkpt>
      <trkpt lat="49.20175" lon="6.99065">
        <ele>343</ele>
        <time>2012-01-22T09:52:59Z</time>
      </trkpt>
      <trkpt lat="49.20175" lon="6.99063">
        <ele>343</ele>
        <time>2012-01-22T09:53:00Z</time>
      </trkpt>
      <trkpt lat="49.20174" lon="6.99061">
        <ele>343</ele>
        <time>2012-01-22T09:53:01Z</time>
      </trkpt>
      <trkpt lat="49.20174" lon="6.99059">
        <ele>343</ele>
        <time>2012-01-22T09:53:02Z</time>
      </trkpt>
      <trkpt lat="49.20173" lon="6.99056">
        <ele>343</ele>
        <time>2012-01-22T09:53:03Z</time>
      </trkpt>
      <trkpt lat="49.20173" lon="6.99053">
        <ele>343</ele>
        <time>2012-01-22T09:53:04Z</time>
      </trkpt>
      <trkpt lat="49.20173" lon="6.99051">
        <ele>343</ele>
        <time>2012-01-22T09:53:05Z</time>
      </trkpt>
      <trkpt lat="49.20174" lon="6.99049">
        <ele>343</ele>
        <time>2012-01-22T09:53:06Z</time>
      </trkpt>
      <trkpt lat="49.20174" lon="6.99046">
        <ele>343</ele>
        <time>2012-01-22T09:53:07Z</time>
      </trkpt>
      <trkpt lat="49.20174" lon="6.99044">
        <ele>343</ele>
        <time>2012-01-22T09:53:08Z</time>
      </trkpt>
      <trkpt lat="49.20174" lon="6.99041">
        <ele>343</ele>
        <time>2012-01-22T09:53:09Z</time>
      </trkpt>
      <trkpt lat="49.20176" lon="6.99039">
        <ele>343</ele>
        <time>2012-01-22T09:53:10Z</time>
      </trkpt>
      <trkpt lat="49.20176" lon="6.99037">
        <ele>343</ele>
        <time>2012-01-22T09:53:11Z</time>
      </trkpt>
      <trkpt lat="49.20177" lon="6.99035">
        <ele>343</ele>
        <time>2012-01-22T09:53:12Z</time>
      </trkpt>
      <trkpt lat="49.20178" lon="6.99032">
        <ele>343</ele>
        <time>2012-01-22T09:53:13Z</time>
      </trkpt>
      <trkpt lat="49.20178" lon="6.9903">
        <ele>343</ele>
        <time>2012-01-22T09:53:14Z</time>
      </trkpt>
      <trkpt lat="49.2018" lon="6.99027">
        <ele>343</ele>
        <time>2012-01-22T09:53:16Z</time>
      </trkpt>
      <trkpt lat="49.2018" lon="6.99025">
        <ele>343</ele>
        <time>2012-01-22T09:53:17Z</time>
      </trkpt>
      <trkpt lat="49.20181" lon="6.99024">
        <ele>343</ele>
        <time>2012-01-22T09:53:18Z</time>
      </trkpt>
      <trkpt lat="49.20181" lon="6.99022">
        <ele>343</ele>
        <time>2012-01-22T09:53:19Z</time>
      </trkpt>
      <trkpt lat="49.20182" lon="6.9902">
        <ele>343</ele>
        <time>2012-01-22T09:53:20Z</time>
      </trkpt>
      <trkpt lat="49.20182" lon="6.99018">
        <ele>343</ele>
        <time>2012-01-22T09:53:21Z</time>
      </trkpt>
      <trkpt lat="49.20182" lon="6.99016">
        <ele>343</ele>
        <time>2012-01-22T09:53:22Z</time>
      </trkpt>
      <trkpt lat="49.20183" lon="6.99014">
        <ele>343</ele>
        <time>2012-01-22T09:53:23Z</time>
      </trkpt>
      <trkpt lat="49.20184" lon="6.99012">
        <ele>343</ele>
        <time>2012-01-22T09:53:25Z</time>
      </trkpt>
      <trkpt lat="49.20185" lon="6.9901">
        <ele>343</ele>
        <time>2012-01-22T09:53:26Z</time>
      </trkpt>
      <trkpt lat="49.20185" lon="6.99008">
        <ele>343</ele>
        <time>2012-01-22T09:53:27Z</time>
      </trkpt>
      <trkpt lat="49.20187" lon="6.99006">
        <ele>343</ele>
        <time>2012-01-22T09:53:29Z</time>
      </trkpt>
      <trkpt lat="49.20188" lon="6.99003">
        <ele>343</ele>
        <time>2012-01-22T09:53:31Z</time>
      </trkpt>
      <trkpt lat="49.20189" lon="6.99001">
        <ele>343</ele>
        <time>2012-01-22T09:53:32Z</time>
      </trkpt>
      <trkpt lat="49.20189" lon="6.98998">
        <ele>343</ele>
        <time>2012-01-22T09:53:33Z</time>
      </trkpt>
      <trkpt lat="49.2019" lon="6.98996">
        <ele>343</ele>
        <time>2012-01-22T09:53:34Z</time>
      </trkpt>
      <trkpt lat="49.20191" lon="6.98994">
        <ele>343</ele>
        <time>2012-01-22T09:53:35Z</time>
      </trkpt>
      <trkpt lat="49.20192" lon="6.98992">
        <ele>343</ele>
        <time>2012-01-22T09:53:36Z</time>
      </trkpt>
      <trkpt lat="49.20192" lon="6.9899">
        <ele>343</ele>
        <time>2012-01-22T09:53:37Z</time>
      </trkpt>
      <trkpt lat="49.20195" lon="6.98988">
        <ele>343</ele>
        <time>2012-01-22T09:53:39Z</time>
      </trkpt>
      <trkpt lat="49.20195" lon="6.98986">
        <ele>342</ele>
        <time>2012-01-22T09:53:40Z</time>
      </trkpt>
      <trkpt lat="49.20196" lon="6.98984">
        <ele>341</ele>
        <time>2012-01-22T09:53:41Z</time>
      </trkpt>
      <trkpt lat="49.20196" lon="6.98982">
        <ele>341</ele>
        <time>2012-01-22T09:53:42Z</time>
      </trkpt>
      <trkpt lat="49.20197" lon="6.9898">
        <ele>340</ele>
        <time>2012-01-22T09:53:43Z</time>
      </trkpt>
      <trkpt lat="49.20198" lon="6.98976">
        <ele>339</ele>
        <time>2012-01-22T09:53:45Z</time>
      </trkpt>
      <trkpt lat="49.20199" lon="6.98974">
        <ele>339</ele>
        <time>2012-01-22T09:53:46Z</time>
      </trkpt>
      <trkpt lat="49.202" lon="6.98972">
        <ele>339</ele>
        <time>2012-01-22T09:53:48Z</time>
      </trkpt>
      <trkpt lat="49.20201" lon="6.98971">
        <ele>339</ele>
        <time>2012-01-22T09:53:49Z</time>
      </trkpt>
      <trkpt lat="49.20203" lon="6.9897">
        <ele>339</ele>
        <time>2012-01-22T09:53:50Z</time>
      </trkpt>
      <trkpt lat="49.20205" lon="6.98967">
        <ele>339</ele>
        <time>2012-01-22T09:53:52Z</time>
      </trkpt>
      <trkpt lat="49.20207" lon="6.98964">
        <ele>338</ele>
        <time>2012-01-22T09:53:54Z</time>
      </trkpt>
      <trkpt lat="49.20208" lon="6.98963">
        <ele>338</ele>
        <time>2012-01-22T09:53:55Z</time>
      </trkpt>
      <trkpt lat="49.20209" lon="6.98961">
        <ele>338</ele>
        <time>2012-01-22T09:53:56Z</time>
      </trkpt>
      <trkpt lat="49.2021" lon="6.9896">
        <ele>338</ele>
        <time>2012-01-22T09:53:57Z</time>
      </trkpt>
      <trkpt lat="49.20212" lon="6.98958">
        <ele>338</ele>
        <time>2012-01-22T09:53:59Z</time>
      </trkpt>
      <trkpt lat="49.20214" lon="6.98956">
        <ele>338</ele>
        <time>2012-01-22T09:54:01Z</time>
      </trkpt>
      <trkpt lat="49.20215" lon="6.98954">
        <ele>338</ele>
        <time>2012-01-22T09:54:03Z</time>
      </trkpt>
      <trkpt lat="49.20217" lon="6.98951">
        <ele>337</ele>
        <time>2012-01-22T09:54:05Z</time>
      </trkpt>
      <trkpt lat="49.20218" lon="6.98949">
        <ele>337</ele>
        <time>2012-01-22T09:54:07Z</time>
      </trkpt>
      <trkpt lat="49.2022" lon="6.98948">
        <ele>336</ele>
        <time>2012-01-22T09:54:10Z</time>
      </trkpt>
      <trkpt lat="49.20221" lon="6.98947">
        <ele>336</ele>
        <time>2012-01-22T09:54:13Z</time>
      </trkpt>
      <trkpt lat="49.20223" lon="6.98947">
        <ele>336</ele>
        <time>2012-01-22T09:54:16Z</time>
      </trkpt>
      <trkpt lat="49.20224" lon="6.98947">
        <ele>337</ele>
        <time>2012-01-22T09:54:22Z</time>
      </trkpt>
      <trkpt lat="49.20225" lon="6.98948">
        <ele>338</ele>
        <time>2012-01-22T09:54:26Z</time>
      </trkpt>
      <trkpt lat="49.20225" lon="6.98946">
        <ele>338</ele>
        <time>2012-01-22T09:54:32Z</time>
      </trkpt>
      <trkpt lat="49.20226" lon="6.98947">
        <ele>340</ele>
        <time>2012-01-22T09:54:48Z</time>
      </trkpt>
      <trkpt lat="49.20225" lon="6.98948">
        <ele>341</ele>
        <time>2012-01-22T09:54:53Z</time>
      </trkpt>
      <trkpt lat="49.20224" lon="6.98949">
        <ele>346</ele>
        <time>2012-01-22T09:55:01Z</time>
      </trkpt>
      <trkpt lat="49.20222" lon="6.98949">
        <ele>346</ele>
        <time>2012-01-22T09:55:07Z</time>
      </trkpt>
      <trkpt lat="49.20222" lon="6.98951">
        <ele>346</ele>
        <time>2012-01-22T09:55:14Z</time>
      </trkpt>
      <trkpt lat="49.20222" lon="6.98953">
        <ele>346</ele>
        <time>2012-01-22T09:55:17Z</time>
      </trkpt>
      <trkpt lat="49.20222" lon="6.98955">
        <ele>346</ele>
        <time>2012-01-22T09:55:20Z</time>
      </trkpt>
      <trkpt lat="49.20221" lon="6.98957">
        <ele>347</ele>
        <time>2012-01-22T09:55:21Z</time>
      </trkpt>
      <trkpt lat="49.20221" lon="6.98955">
        <ele>350</ele>
        <time>2012-01-22T09:56:02Z</time>
      </trkpt>
      <trkpt lat="49.20221" lon="6.98953">
        <ele>350</ele>
        <time>2012-01-22T09:56:05Z</time>
      </trkpt>
      <trkpt lat="49.20221" lon="6.98951">
        <ele>350</ele>
        <time>2012-01-22T09:56:09Z</time>
      </trkpt>
      <trkpt lat="49.20222" lon="6.98948">
        <ele>350</ele>
        <time>2012-01-22T09:56:11Z</time>
      </trkpt>
      <trkpt lat="49.20222" lon="6.98946">
        <ele>349</ele>
        <time>2012-01-22T09:56:12Z</time>
      </trkpt>
      <trkpt lat="49.20224" lon="6.98943">
        <ele>348</ele>
        <time>2012-01-22T09:56:14Z</time>
      </trkpt>
      <trkpt lat="49.20225" lon="6.9894">
        <ele>347</ele>
        <time>2012-01-22T09:56:16Z</time>
      </trkpt>
      <trkpt lat="49.20226" lon="6.98938">
        <ele>347</ele>
        <time>2012-01-22T09:56:17Z</time>
      </trkpt>
      <trkpt lat="49.20227" lon="6.98935">
        <ele>346</ele>
        <time>2012-01-22T09:56:19Z</time>
      </trkpt>
      <trkpt lat="49.20229" lon="6.98933">
        <ele>346</ele>
        <time>2012-01-22T09:56:20Z</time>
      </trkpt>
      <trkpt lat="49.2023" lon="6.9893">
        <ele>346</ele>
        <time>2012-01-22T09:56:21Z</time>
      </trkpt>
      <trkpt lat="49.2023" lon="6.98928">
        <ele>346</ele>
        <time>2012-01-22T09:56:22Z</time>
      </trkpt>
      <trkpt lat="49.20232" lon="6.98927">
        <ele>346</ele>
        <time>2012-01-22T09:56:23Z</time>
      </trkpt>
      <trkpt lat="49.20234" lon="6.98924">
        <ele>346</ele>
        <time>2012-01-22T09:56:25Z</time>
      </trkpt>
      <trkpt lat="49.20235" lon="6.98923">
        <ele>346</ele>
        <time>2012-01-22T09:56:26Z</time>
      </trkpt>
      <trkpt lat="49.20235" lon="6.98921">
        <ele>346</ele>
        <time>2012-01-22T09:56:27Z</time>
      </trkpt>
      <trkpt lat="49.20237" lon="6.98919">
        <ele>345</ele>
        <time>2012-01-22T09:56:29Z</time>
      </trkpt>
      <trkpt lat="49.20239" lon="6.98917">
        <ele>345</ele>
        <time>2012-01-22T09:56:31Z</time>
      </trkpt>
      <trkpt lat="49.20241" lon="6.98914">
        <ele>344</ele>
        <time>2012-01-22T09:56:33Z</time>
      </trkpt>
      <trkpt lat="49.20242" lon="6.98911">
        <ele>343</ele>
        <time>2012-01-22T09:56:35Z</time>
      </trkpt>
      <trkpt lat="49.20242" lon="6.98908">
        <ele>343</ele>
        <time>2012-01-22T09:56:36Z</time>
      </trkpt>
      <trkpt lat="49.20242" lon="6.98904">
        <ele>342</ele>
        <time>2012-01-22T09:56:38Z</time>
      </trkpt>
      <trkpt lat="49.20242" lon="6.98902">
        <ele>341</ele>
        <time>2012-01-22T09:56:39Z</time>
      </trkpt>
      <trkpt lat="49.20243" lon="6.989">
        <ele>340</ele>
        <time>2012-01-22T09:56:40Z</time>
      </trkpt>
      <trkpt lat="49.20243" lon="6.98897">
        <ele>340</ele>
        <time>2012-01-22T09:56:41Z</time>
      </trkpt>
      <trkpt lat="49.20244" lon="6.98894">
        <ele>339</ele>
        <time>2012-01-22T09:56:42Z</time>
      </trkpt>
      <trkpt lat="49.20244" lon="6.98891">
        <ele>339</ele>
        <time>2012-01-22T09:56:43Z</time>
      </trkpt>
      <trkpt lat="49.20245" lon="6.98889">
        <ele>339</ele>
        <time>2012-01-22T09:56:44Z</time>
      </trkpt>
      <trkpt lat="49.20245" lon="6.98886">
        <ele>339</ele>
        <time>2012-01-22T09:56:45Z</time>
      </trkpt>
      <trkpt lat="49.20245" lon="6.98883">
        <ele>339</ele>
        <time>2012-01-22T09:56:46Z</time>
      </trkpt>
      <trkpt lat="49.20247" lon="6.98881">
        <ele>339</ele>
        <time>2012-01-22T09:56:47Z</time>
      </trkpt>
      <trkpt lat="49.20247" lon="6.98879">
        <ele>339</ele>
        <time>2012-01-22T09:56:48Z</time>
      </trkpt>
      <trkpt lat="49.20247" lon="6.98876">
        <ele>338</ele>
        <time>2012-01-22T09:56:49Z</time>
      </trkpt>
      <trkpt lat="49.20248" lon="6.98874">
        <ele>338</ele>
        <time>2012-01-22T09:56:50Z</time>
      </trkpt>
      <trkpt lat="49.20248" lon="6.98872">
        <ele>338</ele>
        <time>2012-01-22T09:56:51Z</time>
      </trkpt>
      <trkpt lat="49.2025" lon="6.98871">
        <ele>337</ele>
        <time>2012-01-22T09:56:53Z</time>
      </trkpt>
      <trkpt lat="49.2025" lon="6.98869">
        <ele>336</ele>
        <time>2012-01-22T09:56:54Z</time>
      </trkpt>
      <trkpt lat="49.2025" lon="6.98866">
        <ele>336</ele>
        <time>2012-01-22T09:56:55Z</time>
      </trkpt>
      <trkpt lat="49.20252" lon="6.98865">
        <ele>336</ele>
        <time>2012-01-22T09:56:56Z</time>
      </trkpt>
      <trkpt lat="49.20253" lon="6.98865">
        <ele>336</ele>
        <time>2012-01-22T09:56:57Z</time>
      </trkpt>
      <trkpt lat="49.20255" lon="6.98863">
        <ele>336</ele>
        <time>2012-01-22T09:56:58Z</time>
      </trkpt>
      <trkpt lat="49.20255" lon="6.98861">
        <ele>336</ele>
        <time>2012-01-22T09:56:59Z</time>
      </trkpt>
      <trkpt lat="49.20256" lon="6.9886">
        <ele>336</ele>
        <time>2012-01-22T09:57:00Z</time>
      </trkpt>
      <trkpt lat="49.20256" lon="6.98856">
        <ele>336</ele>
        <time>2012-01-22T09:57:01Z</time>
      </trkpt>
      <trkpt lat="49.20257" lon="6.98854">
        <ele>336</ele>
        <time>2012-01-22T09:57:02Z</time>
      </trkpt>
      <trkpt lat="49.20258" lon="6.98852">
        <ele>336</ele>
        <time>2012-01-22T09:57:03Z</time>
      </trkpt>
      <trkpt lat="49.20258" lon="6.98851">
        <ele>336</ele>
        <time>2012-01-22T09:57:04Z</time>
      </trkpt>
      <trkpt lat="49.20259" lon="6.98847">
        <ele>336</ele>
        <time>2012-01-22T09:57:06Z</time>
      </trkpt>
      <trkpt lat="49.20261" lon="6.98845">
        <ele>336</ele>
        <time>2012-01-22T09:57:08Z</time>
      </trkpt>
      <trkpt lat="49.20262" lon="6.98843">
        <ele>336</ele>
        <time>2012-01-22T09:57:09Z</time>
      </trkpt>
      <trkpt lat="49.20263" lon="6.98841">
        <ele>335</ele>
        <time>2012-01-22T09:57:10Z</time>
      </trkpt>
      <trkpt lat="49.20263" lon="6.9884">
        <ele>335</ele>
        <time>2012-01-22T09:57:11Z</time>
      </trkpt>
      <trkpt lat="49.20264" lon="6.98837">
        <ele>335</ele>
        <time>2012-01-22T09:57:12Z</time>
      </trkpt>
      <trkpt lat="49.20265" lon="6.98835">
        <ele>334</ele>
        <time>2012-01-22T09:57:13Z</time>
      </trkpt>
      <trkpt lat="49.20266" lon="6.98833">
        <ele>334</ele>
        <time>2012-01-22T09:57:14Z</time>
      </trkpt>
      <trkpt lat="49.20266" lon="6.98831">
        <ele>334</ele>
        <time>2012-01-22T09:57:15Z</time>
      </trkpt>
      <trkpt lat="49.20268" lon="6.9883">
        <ele>334</ele>
        <time>2012-01-22T09:57:16Z</time>
      </trkpt>
      <trkpt lat="49.20269" lon="6.98828">
        <ele>334</ele>
        <time>2012-01-22T09:57:17Z</time>
      </trkpt>
      <trkpt lat="49.20271" lon="6.98828">
        <ele>333</ele>
        <time>2012-01-22T09:57:18Z</time>
      </trkpt>
      <trkpt lat="49.20273" lon="6.98829">
        <ele>333</ele>
        <time>2012-01-22T09:57:19Z</time>
      </trkpt>
      <trkpt lat="49.20274" lon="6.98826">
        <ele>333</ele>
        <time>2012-01-22T09:57:21Z</time>
      </trkpt>
      <trkpt lat="49.20276" lon="6.98823">
        <ele>333</ele>
        <time>2012-01-22T09:57:23Z</time>
      </trkpt>
      <trkpt lat="49.20278" lon="6.9882">
        <ele>333</ele>
        <time>2012-01-22T09:57:25Z</time>
      </trkpt>
      <trkpt lat="49.20279" lon="6.98819">
        <ele>333</ele>
        <time>2012-01-22T09:57:26Z</time>
      </trkpt>
      <trkpt lat="49.2028" lon="6.98818">
        <ele>333</ele>
        <time>2012-01-22T09:57:27Z</time>
      </trkpt>
      <trkpt lat="49.20281" lon="6.98817">
        <ele>333</ele>
        <time>2012-01-22T09:57:28Z</time>
      </trkpt>
      <trkpt lat="49.20283" lon="6.98815">
        <ele>332</ele>
        <time>2012-01-22T09:57:29Z</time>
      </trkpt>
      <trkpt lat="49.20284" lon="6.98814">
        <ele>332</ele>
        <time>2012-01-22T09:57:30Z</time>
      </trkpt>
      <trkpt lat="49.20285" lon="6.98813">
        <ele>332</ele>
        <time>2012-01-22T09:57:31Z</time>
      </trkpt>
      <trkpt lat="49.20287" lon="6.98809">
        <ele>331</ele>
        <time>2012-01-22T09:57:33Z</time>
      </trkpt>
      <trkpt lat="49.20288" lon="6.98806">
        <ele>330</ele>
        <time>2012-01-22T09:57:35Z</time>
      </trkpt>
      <trkpt lat="49.2029" lon="6.98804">
        <ele>330</ele>
        <time>2012-01-22T09:57:37Z</time>
      </trkpt>
      <trkpt lat="49.20291" lon="6.98803">
        <ele>330</ele>
        <time>2012-01-22T09:57:38Z</time>
      </trkpt>
      <trkpt lat="49.20292" lon="6.988">
        <ele>330</ele>
        <time>2012-01-22T09:57:39Z</time>
      </trkpt>
      <trkpt lat="49.20292" lon="6.98799">
        <ele>330</ele>
        <time>2012-01-22T09:57:40Z</time>
      </trkpt>
      <trkpt lat="49.20294" lon="6.98796">
        <ele>330</ele>
        <time>2012-01-22T09:57:42Z</time>
      </trkpt>
      <trkpt lat="49.20295" lon="6.98794">
        <ele>330</ele>
        <time>2012-01-22T09:57:43Z</time>
      </trkpt>
      <trkpt lat="49.20296" lon="6.98793">
        <ele>330</ele>
        <time>2012-01-22T09:57:44Z</time>
      </trkpt>
      <trkpt lat="49.20297" lon="6.98791">
        <ele>330</ele>
        <time>2012-01-22T09:57:45Z</time>
      </trkpt>
      <trkpt lat="49.20298" lon="6.9879">
        <ele>330</ele>
        <time>2012-01-22T09:57:46Z</time>
      </trkpt>
      <trkpt lat="49.203" lon="6.98788">
        <ele>330</ele>
        <time>2012-01-22T09:57:47Z</time>
      </trkpt>
      <trkpt lat="49.20302" lon="6.98785">
        <ele>330</ele>
        <time>2012-01-22T09:57:49Z</time>
      </trkpt>
      <trkpt lat="49.20303" lon="6.98785">
        <ele>330</ele>
        <time>2012-01-22T09:57:50Z</time>
      </trkpt>
      <trkpt lat="49.20305" lon="6.98783">
        <ele>330</ele>
        <time>2012-01-22T09:57:51Z</time>
      </trkpt>
      <trkpt lat="49.20305" lon="6.98781">
        <ele>330</ele>
        <time>2012-01-22T09:57:52Z</time>
      </trkpt>
      <trkpt lat="49.20307" lon="6.98778">
        <ele>330</ele>
        <time>2012-01-22T09:57:54Z</time>
      </trkpt>
      <trkpt lat="49.20308" lon="6.98777">
        <ele>330</ele>
        <time>2012-01-22T09:57:55Z</time>
      </trkpt>
      <trkpt lat="49.20309" lon="6.98774">
        <ele>330</ele>
        <time>2012-01-22T09:57:56Z</time>
      </trkpt>
      <trkpt lat="49.20311" lon="6.98772">
        <ele>330</ele>
        <time>2012-01-22T09:57:57Z</time>
      </trkpt>
      <trkpt lat="49.20312" lon="6.9877">
        <ele>330</ele>
        <time>2012-01-22T09:57:58Z</time>
      </trkpt>
      <trkpt lat="49.20313" lon="6.98769">
        <ele>330</ele>
        <time>2012-01-22T09:57:59Z</time>
      </trkpt>
      <trkpt lat="49.20314" lon="6.98766">
        <ele>330</ele>
        <time>2012-01-22T09:58:01Z</time>
      </trkpt>
      <trkpt lat="49.20314" lon="6.98763">
        <ele>330</ele>
        <time>2012-01-22T09:58:02Z</time>
      </trkpt>
      <trkpt lat="49.20315" lon="6.98761">
        <ele>330</ele>
        <time>2012-01-22T09:58:03Z</time>
      </trkpt>
      <trkpt lat="49.20316" lon="6.9876">
        <ele>330</ele>
        <time>2012-01-22T09:58:04Z</time>
      </trkpt>
      <trkpt lat="49.20317" lon="6.98758">
        <ele>330</ele>
        <time>2012-01-22T09:58:05Z</time>
      </trkpt>
      <trkpt lat="49.20317" lon="6.98756">
        <ele>331</ele>
        <time>2012-01-22T09:58:06Z</time>
      </trkpt>
      <trkpt lat="49.20317" lon="6.98755">
        <ele>331</ele>
        <time>2012-01-22T09:58:07Z</time>
      </trkpt>
      <trkpt lat="49.20319" lon="6.98751">
        <ele>331</ele>
        <time>2012-01-22T09:58:09Z</time>
      </trkpt>
      <trkpt lat="49.20319" lon="6.98749">
        <ele>331</ele>
        <time>2012-01-22T09:58:10Z</time>
      </trkpt>
      <trkpt lat="49.20319" lon="6.98747">
        <ele>331</ele>
        <time>2012-01-22T09:58:11Z</time>
      </trkpt>
      <trkpt lat="49.2032" lon="6.98745">
        <ele>331</ele>
        <time>2012-01-22T09:58:12Z</time>
      </trkpt>
      <trkpt lat="49.20321" lon="6.98743">
        <ele>331</ele>
        <time>2012-01-22T09:58:13Z</time>
      </trkpt>
      <trkpt lat="49.20321" lon="6.98742">
        <ele>331</ele>
        <time>2012-01-22T09:58:14Z</time>
      </trkpt>
      <trkpt lat="49.20322" lon="6.9874">
        <ele>331</ele>
        <time>2012-01-22T09:58:15Z</time>
      </trkpt>
      <trkpt lat="49.20323" lon="6.98737">
        <ele>331</ele>
        <time>2012-01-22T09:58:16Z</time>
      </trkpt>
      <trkpt lat="49.20323" lon="6.98735">
        <ele>331</ele>
        <time>2012-01-22T09:58:17Z</time>
      </trkpt>
      <trkpt lat="49.20323" lon="6.98733">
        <ele>331</ele>
        <time>2012-01-22T09:58:18Z</time>
      </trkpt>
      <trkpt lat="49.20324" lon="6.9873">
        <ele>331</ele>
        <time>2012-01-22T09:58:19Z</time>
      </trkpt>
      <trkpt lat="49.20324" lon="6.98728">
        <ele>331</ele>
        <time>2012-01-22T09:58:20Z</time>
      </trkpt>
      <trkpt lat="49.20325" lon="6.98725">
        <ele>331</ele>
        <time>2012-01-22T09:58:22Z</time>
      </trkpt>
      <trkpt lat="49.20326" lon="6.98723">
        <ele>331</ele>
        <time>2012-01-22T09:58:23Z</time>
      </trkpt>
      <trkpt lat="49.20328" lon="6.98721">
        <ele>331</ele>
        <time>2012-01-22T09:58:24Z</time>
      </trkpt>
      <trkpt lat="49.20329" lon="6.9872">
        <ele>331</ele>
        <time>2012-01-22T09:58:25Z</time>
      </trkpt>
      <trkpt lat="49.2033" lon="6.98719">
        <ele>331</ele>
        <time>2012-01-22T09:58:26Z</time>
      </trkpt>
      <trkpt lat="49.20331" lon="6.98717">
        <ele>331</ele>
        <time>2012-01-22T09:58:27Z</time>
      </trkpt>
      <trkpt lat="49.20332" lon="6.98715">
        <ele>331</ele>
        <time>2012-01-22T09:58:28Z</time>
      </trkpt>
      <trkpt lat="49.20334" lon="6.98713">
        <ele>331</ele>
        <time>2012-01-22T09:58:30Z</time>
      </trkpt>
      <trkpt lat="49.20336" lon="6.9871">
        <ele>331</ele>
        <time>2012-01-22T09:58:32Z</time>
      </trkpt>
      <trkpt lat="49.20337" lon="6.98708">
        <ele>331</ele>
        <time>2012-01-22T09:58:33Z</time>
      </trkpt>
      <trkpt lat="49.20337" lon="6.98703">
        <ele>331</ele>
        <time>2012-01-22T09:58:35Z</time>
      </trkpt>
      <trkpt lat="49.20338" lon="6.987">
        <ele>331</ele>
        <time>2012-01-22T09:58:36Z</time>
      </trkpt>
      <trkpt lat="49.20338" lon="6.98698">
        <ele>331</ele>
        <time>2012-01-22T09:58:37Z</time>
      </trkpt>
      <trkpt lat="49.20338" lon="6.98696">
        <ele>331</ele>
        <time>2012-01-22T09:58:38Z</time>
      </trkpt>
      <trkpt lat="49.20339" lon="6.98694">
        <ele>331</ele>
        <time>2012-01-22T09:58:39Z</time>
      </trkpt>
      <trkpt lat="49.2034" lon="6.98692">
        <ele>331</ele>
        <time>2012-01-22T09:58:40Z</time>
      </trkpt>
      <trkpt lat="49.20342" lon="6.98689">
        <ele>331</ele>
        <time>2012-01-22T09:58:42Z</time>
      </trkpt>
      <trkpt lat="49.20342" lon="6.98687">
        <ele>331</ele>
        <time>2012-01-22T09:58:43Z</time>
      </trkpt>
      <trkpt lat="49.20343" lon="6.98685">
        <ele>331</ele>
        <time>2012-01-22T09:58:44Z</time>
      </trkpt>
      <trkpt lat="49.20343" lon="6.98683">
        <ele>331</ele>
        <time>2012-01-22T09:58:45Z</time>
      </trkpt>
      <trkpt lat="49.20343" lon="6.9868">
        <ele>331</ele>
        <time>2012-01-22T09:58:46Z</time>
      </trkpt>
      <trkpt lat="49.20343" lon="6.98678">
        <ele>331</ele>
        <time>2012-01-22T09:58:47Z</time>
      </trkpt>
      <trkpt lat="49.20343" lon="6.98675">
        <ele>331</ele>
        <time>2012-01-22T09:58:48Z</time>
      </trkpt>
      <trkpt lat="49.20343" lon="6.98673">
        <ele>331</ele>
        <time>2012-01-22T09:58:49Z</time>
      </trkpt>
      <trkpt lat="49.20344" lon="6.98671">
        <ele>331</ele>
        <time>2012-01-22T09:58:50Z</time>
      </trkpt>
      <trkpt lat="49.20343" lon="6.98668">
        <ele>331</ele>
        <time>2012-01-22T09:58:51Z</time>
      </trkpt>
      <trkpt lat="49.20343" lon="6.98666">
        <ele>331</ele>
        <time>2012-01-22T09:58:52Z</time>
      </trkpt>
      <trkpt lat="49.20344" lon="6.98664">
        <ele>331</ele>
        <time>2012-01-22T09:58:53Z</time>
      </trkpt>
      <trkpt lat="49.20344" lon="6.98663">
        <ele>331</ele>
        <time>2012-01-22T09:58:54Z</time>
      </trkpt>
      <trkpt lat="49.20346" lon="6.9866">
        <ele>331</ele>
        <time>2012-01-22T09:58:56Z</time>
      </trkpt>
      <trkpt lat="49.20346" lon="6.98658">
        <ele>331</ele>
        <time>2012-01-22T09:58:57Z</time>
      </trkpt>
      <trkpt lat="49.20347" lon="6.98656">
        <ele>331</ele>
        <time>2012-01-22T09:58:58Z</time>
      </trkpt>
      <trkpt lat="49.20348" lon="6.98652">
        <ele>331</ele>
        <time>2012-01-22T09:59:00Z</time>
      </trkpt>
      <trkpt lat="49.2035" lon="6.98649">
        <ele>331</ele>
        <time>2012-01-22T09:59:02Z</time>
      </trkpt>
      <trkpt lat="49.20351" lon="6.98646">
        <ele>331</ele>
        <time>2012-01-22T09:59:04Z</time>
      </trkpt>
      <trkpt lat="49.20353" lon="6.98643">
        <ele>331</ele>
        <time>2012-01-22T09:59:06Z</time>
      </trkpt>
      <trkpt lat="49.20354" lon="6.9864">
        <ele>331</ele>
        <time>2012-01-22T09:59:08Z</time>
      </trkpt>
      <trkpt lat="49.20356" lon="6.98637">
        <ele>331</ele>
        <time>2012-01-22T09:59:10Z</time>
      </trkpt>
      <trkpt lat="49.20358" lon="6.98635">
        <ele>331</ele>
        <time>2012-01-22T09:59:12Z</time>
      </trkpt>
      <trkpt lat="49.20359" lon="6.98632">
        <ele>331</ele>
        <time>2012-01-22T09:59:14Z</time>
      </trkpt>
      <trkpt lat="49.20361" lon="6.98629">
        <ele>331</ele>
        <time>2012-01-22T09:59:16Z</time>
      </trkpt>
      <trkpt lat="49.20361" lon="6.98627">
        <ele>331</ele>
        <time>2012-01-22T09:59:17Z</time>
      </trkpt>
      <trkpt lat="49.20363" lon="6.98625">
        <ele>331</ele>
        <time>2012-01-22T09:59:19Z</time>
      </trkpt>
      <trkpt lat="49.20363" lon="6.98621">
        <ele>331</ele>
        <time>2012-01-22T09:59:20Z</time>
      </trkpt>
      <trkpt lat="49.20363" lon="6.98618">
        <ele>331</ele>
        <time>2012-01-22T09:59:21Z</time>
      </trkpt>
      <trkpt lat="49.20362" lon="6.98615">
        <ele>331</ele>
        <time>2012-01-22T09:59:22Z</time>
      </trkpt>
      <trkpt lat="49.20363" lon="6.98612">
        <ele>331</ele>
        <time>2012-01-22T09:59:23Z</time>
      </trkpt>
      <trkpt lat="49.20363" lon="6.98611">
        <ele>331</ele>
        <time>2012-01-22T09:59:24Z</time>
      </trkpt>
      <trkpt lat="49.20363" lon="6.98609">
        <ele>331</ele>
        <time>2012-01-22T09:59:25Z</time>
      </trkpt>
      <trkpt lat="49.20364" lon="6.98607">
        <ele>331</ele>
        <time>2012-01-22T09:59:26Z</time>
      </trkpt>
      <trkpt lat="49.20365" lon="6.98605">
        <ele>331</ele>
        <time>2012-01-22T09:59:28Z</time>
      </trkpt>
      <trkpt lat="49.20365" lon="6.98603">
        <ele>331</ele>
        <time>2012-01-22T09:59:29Z</time>
      </trkpt>
      <trkpt lat="49.20367" lon="6.98599">
        <ele>331</ele>
        <time>2012-01-22T09:59:31Z</time>
      </trkpt>
      <trkpt lat="49.20369" lon="6.98597">
        <ele>331</ele>
        <time>2012-01-22T09:59:33Z</time>
      </trkpt>
      <trkpt lat="49.20369" lon="6.98596">
        <ele>331</ele>
        <time>2012-01-22T09:59:34Z</time>
      </trkpt>
      <trkpt lat="49.2037" lon="6.98593">
        <ele>331</ele>
        <time>2012-01-22T09:59:36Z</time>
      </trkpt>
      <trkpt lat="49.20371" lon="6.98591">
        <ele>331</ele>
        <time>2012-01-22T09:59:37Z</time>
      </trkpt>
      <trkpt lat="49.20372" lon="6.98588">
        <ele>331</ele>
        <time>2012-01-22T09:59:39Z</time>
      </trkpt>
      <trkpt lat="49.20373" lon="6.98587">
        <ele>331</ele>
        <time>2012-01-22T09:59:40Z</time>
      </trkpt>
      <trkpt lat="49.20373" lon="6.98584">
        <ele>331</ele>
        <time>2012-01-22T09:59:41Z</time>
      </trkpt>
      <trkpt lat="49.20374" lon="6.98583">
        <ele>331</ele>
        <time>2012-01-22T09:59:42Z</time>
      </trkpt>
      <trkpt lat="49.20374" lon="6.98581">
        <ele>331</ele>
        <time>2012-01-22T09:59:43Z</time>
      </trkpt>
      <trkpt lat="49.20375" lon="6.98578">
        <ele>331</ele>
        <time>2012-01-22T09:59:45Z</time>
      </trkpt>
      <trkpt lat="49.20375" lon="6.98575">
        <ele>331</ele>
        <time>2012-01-22T09:59:47Z</time>
      </trkpt>
      <trkpt lat="49.20376" lon="6.98572">
        <ele>331</ele>
        <time>2012-01-22T09:59:49Z</time>
      </trkpt>
      <trkpt lat="49.20376" lon="6.98571">
        <ele>331</ele>
        <time>2012-01-22T09:59:50Z</time>
      </trkpt>
      <trkpt lat="49.20377" lon="6.98569">
        <ele>331</ele>
        <time>2012-01-22T09:59:51Z</time>
      </trkpt>
      <trkpt lat="49.20377" lon="6.98566">
        <ele>331</ele>
        <time>2012-01-22T09:59:52Z</time>
      </trkpt>
      <trkpt lat="49.20377" lon="6.98564">
        <ele>331</ele>
        <time>2012-01-22T09:59:53Z</time>
      </trkpt>
      <trkpt lat="49.20378" lon="6.9856">
        <ele>331</ele>
        <time>2012-01-22T09:59:55Z</time>
      </trkpt>
      <trkpt lat="49.20378" lon="6.98559">
        <ele>331</ele>
        <time>2012-01-22T09:59:56Z</time>
      </trkpt>
      <trkpt lat="49.2038" lon="6.98557">
        <ele>333</ele>
        <time>2012-01-22T09:59:58Z</time>
      </trkpt>
      <trkpt lat="49.2038" lon="6.98555">
        <ele>333</ele>
        <time>2012-01-22T09:59:59Z</time>
      </trkpt>
      <trkpt lat="49.2038" lon="6.98553">
        <ele>334</ele>
        <time>2012-01-22T10:00:00Z</time>
      </trkpt>
      <trkpt lat="49.2038" lon="6.98551">
        <ele>334</ele>
        <time>2012-01-22T10:00:01Z</time>
      </trkpt>
      <trkpt lat="49.20381" lon="6.98549">
        <ele>334</ele>
        <time>2012-01-22T10:00:02Z</time>
      </trkpt>
      <trkpt lat="49.20381" lon="6.98546">
        <ele>335</ele>
        <time>2012-01-22T10:00:03Z</time>
      </trkpt>
      <trkpt lat="49.20382" lon="6.98543">
        <ele>335</ele>
        <time>2012-01-22T10:00:04Z</time>
      </trkpt>
      <trkpt lat="49.20383" lon="6.9854">
        <ele>335</ele>
        <time>2012-01-22T10:00:06Z</time>
      </trkpt>
      <trkpt lat="49.20385" lon="6.98538">
        <ele>336</ele>
        <time>2012-01-22T10:00:08Z</time>
      </trkpt>
      <trkpt lat="49.20385" lon="6.98536">
        <ele>336</ele>
        <time>2012-01-22T10:00:09Z</time>
      </trkpt>
      <trkpt lat="49.20387" lon="6.98533">
        <ele>336</ele>
        <time>2012-01-22T10:00:11Z</time>
      </trkpt>
      <trkpt lat="49.20388" lon="6.98531">
        <ele>336</ele>
        <time>2012-01-22T10:00:13Z</time>
      </trkpt>
      <trkpt lat="49.20388" lon="6.98529">
        <ele>336</ele>
        <time>2012-01-22T10:00:14Z</time>
      </trkpt>
      <trkpt lat="49.20388" lon="6.98527">
        <ele>336</ele>
        <time>2012-01-22T10:00:15Z</time>
      </trkpt>
      <trkpt lat="49.20389" lon="6.98523">
        <ele>336</ele>
        <time>2012-01-22T10:00:17Z</time>
      </trkpt>
      <trkpt lat="49.2039" lon="6.9852">
        <ele>336</ele>
        <time>2012-01-22T10:00:19Z</time>
      </trkpt>
      <trkpt lat="49.20391" lon="6.98517">
        <ele>336</ele>
        <time>2012-01-22T10:00:21Z</time>
      </trkpt>
      <trkpt lat="49.20392" lon="6.98515">
        <ele>336</ele>
        <time>2012-01-22T10:00:23Z</time>
      </trkpt>
      <trkpt lat="49.20393" lon="6.98513">
        <ele>336</ele>
        <time>2012-01-22T10:00:25Z</time>
      </trkpt>
      <trkpt lat="49.20395" lon="6.98511">
        <ele>336</ele>
        <time>2012-01-22T10:00:27Z</time>
      </trkpt>
      <trkpt lat="49.20395" lon="6.98508">
        <ele>336</ele>
        <time>2012-01-22T10:00:29Z</time>
      </trkpt>
      <trkpt lat="49.20396" lon="6.98506">
        <ele>336</ele>
        <time>2012-01-22T10:00:31Z</time>
      </trkpt>
      <trkpt lat="49.20397" lon="6.98503">
        <ele>336</ele>
        <time>2012-01-22T10:00:33Z</time>
      </trkpt>
      <trkpt lat="49.20397" lon="6.985">
        <ele>336</ele>
        <time>2012-01-22T10:00:35Z</time>
      </trkpt>
      <trkpt lat="49.20398" lon="6.98497">
        <ele>336</ele>
        <time>2012-01-22T10:00:37Z</time>
      </trkpt>
      <trkpt lat="49.20398" lon="6.98492">
        <ele>336</ele>
        <time>2012-01-22T10:00:39Z</time>
      </trkpt>
      <trkpt lat="49.20397" lon="6.9849">
        <ele>336</ele>
        <time>2012-01-22T10:00:40Z</time>
      </trkpt>
      <trkpt lat="49.20396" lon="6.98487">
        <ele>336</ele>
        <time>2012-01-22T10:00:41Z</time>
      </trkpt>
      <trkpt lat="49.20396" lon="6.98484">
        <ele>336</ele>
        <time>2012-01-22T10:00:42Z</time>
      </trkpt>
      <trkpt lat="49.20396" lon="6.98481">
        <ele>336</ele>
        <time>2012-01-22T10:00:43Z</time>
      </trkpt>
      <trkpt lat="49.20396" lon="6.98479">
        <ele>336</ele>
        <time>2012-01-22T10:00:44Z</time>
      </trkpt>
      <trkpt lat="49.20395" lon="6.98477">
        <ele>336</ele>
        <time>2012-01-22T10:00:45Z</time>
      </trkpt>
      <trkpt lat="49.20395" lon="6.98474">
        <ele>336</ele>
        <time>2012-01-22T10:00:46Z</time>
      </trkpt>
      <trkpt lat="49.20395" lon="6.98472">
        <ele>336</ele>
        <time>2012-01-22T10:00:47Z</time>
      </trkpt>
      <trkpt lat="49.20395" lon="6.9847">
        <ele>336</ele>
        <time>2012-01-22T10:00:48Z</time>
      </trkpt>
      <trkpt lat="49.20395" lon="6.98467">
        <ele>336</ele>
        <time>2012-01-22T10:00:50Z</time>
      </trkpt>
      <trkpt lat="49.20395" lon="6.98465">
        <ele>336</ele>
        <time>2012-01-22T10:00:51Z</time>
      </trkpt>
      <trkpt lat="49.20395" lon="6.98463">
        <ele>336</ele>
        <time>2012-01-22T10:00:52Z</time>
      </trkpt>
      <trkpt lat="49.20395" lon="6.98461">
        <ele>336</ele>
        <time>2012-01-22T10:00:53Z</time>
      </trkpt>
      <trkpt lat="49.20395" lon="6.98458">
        <ele>336</ele>
        <time>2012-01-22T10:00:54Z</time>
      </trkpt>
      <trkpt lat="49.20395" lon="6.98456">
        <ele>336</ele>
        <time>2012-01-22T10:00:55Z</time>
      </trkpt>
      <trkpt lat="49.20395" lon="6.98453">
        <ele>336</ele>
        <time>2012-01-22T10:00:56Z</time>
      </trkpt>
      <trkpt lat="49.20394" lon="6.98451">
        <ele>336</ele>
        <time>2012-01-22T10:00:57Z</time>
      </trkpt>
      <trkpt lat="49.20394" lon="6.98448">
        <ele>336</ele>
        <time>2012-01-22T10:00:59Z</time>
      </trkpt>
      <trkpt lat="49.20395" lon="6.98446">
        <ele>336</ele>
        <time>2012-01-22T10:01:00Z</time>
      </trkpt>
      <trkpt lat="49.20395" lon="6.98444">
        <ele>336</ele>
        <time>2012-01-22T10:01:01Z</time>
      </trkpt>
      <trkpt lat="49.20395" lon="6.98441">
        <ele>336</ele>
        <time>2012-01-22T10:01:02Z</time>
      </trkpt>
      <trkpt lat="49.20394" lon="6.98439">
        <ele>336</ele>
        <time>2012-01-22T10:01:03Z</time>
      </trkpt>
      <trkpt lat="49.20394" lon="6.98437">
        <ele>336</ele>
        <time>2012-01-22T10:01:04Z</time>
      </trkpt>
      <trkpt lat="49.20394" lon="6.98435">
        <ele>336</ele>
        <time>2012-01-22T10:01:05Z</time>
      </trkpt>
      <trkpt lat="49.20394" lon="6.98433">
        <ele>336</ele>
        <time>2012-01-22T10:01:06Z</time>
      </trkpt>
      <trkpt lat="49.20394" lon="6.98431">
        <ele>336</ele>
        <time>2012-01-22T10:01:07Z</time>
      </trkpt>
      <trkpt lat="49.20394" lon="6.98429">
        <ele>336</ele>
        <time>2012-01-22T10:01:08Z</time>
      </trkpt>
      <trkpt lat="49.20395" lon="6.98428">
        <ele>336</ele>
        <time>2012-01-22T10:01:09Z</time>
      </trkpt>
      <trkpt lat="49.20395" lon="6.98424">
        <ele>336</ele>
        <time>2012-01-22T10:01:11Z</time>
      </trkpt>
      <trkpt lat="49.20396" lon="6.98422">
        <ele>336</ele>
        <time>2012-01-22T10:01:12Z</time>
      </trkpt>
      <trkpt lat="49.20396" lon="6.9842">
        <ele>336</ele>
        <time>2012-01-22T10:01:13Z</time>
      </trkpt>
      <trkpt lat="49.20396" lon="6.98418">
        <ele>336</ele>
        <time>2012-01-22T10:01:14Z</time>
      </trkpt>
      <trkpt lat="49.20396" lon="6.98416">
        <ele>336</ele>
        <time>2012-01-22T10:01:15Z</time>
      </trkpt>
      <trkpt lat="49.20396" lon="6.98413">
        <ele>336</ele>
        <time>2012-01-22T10:01:16Z</time>
      </trkpt>
      <trkpt lat="49.20395" lon="6.9841">
        <ele>337</ele>
        <time>2012-01-22T10:01:17Z</time>
      </trkpt>
      <trkpt lat="49.20395" lon="6.98408">
        <ele>337</ele>
        <time>2012-01-22T10:01:18Z</time>
      </trkpt>
      <trkpt lat="49.20395" lon="6.98405">
        <ele>338</ele>
        <time>2012-01-22T10:01:20Z</time>
      </trkpt>
      <trkpt lat="49.20396" lon="6.98403">
        <ele>338</ele>
        <time>2012-01-22T10:01:22Z</time>
      </trkpt>
      <trkpt lat="49.20397" lon="6.98401">
        <ele>338</ele>
        <time>2012-01-22T10:01:24Z</time>
      </trkpt>
      <trkpt lat="49.20398" lon="6.98398">
        <ele>338</ele>
        <time>2012-01-22T10:01:26Z</time>
      </trkpt>
      <trkpt lat="49.20398" lon="6.98395">
        <ele>338</ele>
        <time>2012-01-22T10:01:27Z</time>
      </trkpt>
      <trkpt lat="49.20399" lon="6.98393">
        <ele>338</ele>
        <time>2012-01-22T10:01:29Z</time>
      </trkpt>
      <trkpt lat="49.20399" lon="6.9839">
        <ele>338</ele>
        <time>2012-01-22T10:01:31Z</time>
      </trkpt>
      <trkpt lat="49.20399" lon="6.98387">
        <ele>338</ele>
        <time>2012-01-22T10:01:33Z</time>
      </trkpt>
      <trkpt lat="49.204" lon="6.98382">
        <ele>338</ele>
        <time>2012-01-22T10:01:35Z</time>
      </trkpt>
      <trkpt lat="49.20401" lon="6.98381">
        <ele>338</ele>
        <time>2012-01-22T10:01:36Z</time>
      </trkpt>
      <trkpt lat="49.20401" lon="6.98379">
        <ele>338</ele>
        <time>2012-01-22T10:01:37Z</time>
      </trkpt>
      <trkpt lat="49.20401" lon="6.98376">
        <ele>338</ele>
        <time>2012-01-22T10:01:39Z</time>
      </trkpt>
      <trkpt lat="49.20402" lon="6.98374">
        <ele>338</ele>
        <time>2012-01-22T10:01:40Z</time>
      </trkpt>
      <trkpt lat="49.20402" lon="6.9837">
        <ele>338</ele>
        <time>2012-01-22T10:01:42Z</time>
      </trkpt>
      <trkpt lat="49.20402" lon="6.98367">
        <ele>338</ele>
        <time>2012-01-22T10:01:44Z</time>
      </trkpt>
      <trkpt lat="49.20401" lon="6.98362">
        <ele>338</ele>
        <time>2012-01-22T10:01:46Z</time>
      </trkpt>
      <trkpt lat="49.20401" lon="6.9836">
        <ele>338</ele>
        <time>2012-01-22T10:01:47Z</time>
      </trkpt>
      <trkpt lat="49.20401" lon="6.98357">
        <ele>338</ele>
        <time>2012-01-22T10:01:48Z</time>
      </trkpt>
      <trkpt lat="49.204" lon="6.98354">
        <ele>338</ele>
        <time>2012-01-22T10:01:49Z</time>
      </trkpt>
      <trkpt lat="49.204" lon="6.98353">
        <ele>338</ele>
        <time>2012-01-22T10:01:50Z</time>
      </trkpt>
      <trkpt lat="49.204" lon="6.9835">
        <ele>338</ele>
        <time>2012-01-22T10:01:51Z</time>
      </trkpt>
      <trkpt lat="49.204" lon="6.98349">
        <ele>338</ele>
        <time>2012-01-22T10:01:52Z</time>
      </trkpt>
      <trkpt lat="49.204" lon="6.98347">
        <ele>338</ele>
        <time>2012-01-22T10:01:53Z</time>
      </trkpt>
      <trkpt lat="49.204" lon="6.98345">
        <ele>338</ele>
        <time>2012-01-22T10:01:54Z</time>
      </trkpt>
      <trkpt lat="49.20401" lon="6.98343">
        <ele>338</ele>
        <time>2012-01-22T10:01:55Z</time>
      </trkpt>
      <trkpt lat="49.20401" lon="6.9834">
        <ele>338</ele>
        <time>2012-01-22T10:01:57Z</time>
      </trkpt>
      <trkpt lat="49.20401" lon="6.98338">
        <ele>338</ele>
        <time>2012-01-22T10:01:58Z</time>
      </trkpt>
      <trkpt lat="49.20401" lon="6.98335">
        <ele>338</ele>
        <time>2012-01-22T10:01:59Z</time>
      </trkpt>
      <trkpt lat="49.20401" lon="6.98332">
        <ele>338</ele>
        <time>2012-01-22T10:02:00Z</time>
      </trkpt>
      <trkpt lat="49.204" lon="6.98329">
        <ele>338</ele>
        <time>2012-01-22T10:02:01Z</time>
      </trkpt>
      <trkpt lat="49.204" lon="6.98327">
        <ele>338</ele>
        <time>2012-01-22T10:02:02Z</time>
      </trkpt>
      <trkpt lat="49.204" lon="6.98324">
        <ele>338</ele>
        <time>2012-01-22T10:02:03Z</time>
      </trkpt>
      <trkpt lat="49.204" lon="6.98321">
        <ele>338</ele>
        <time>2012-01-22T10:02:04Z</time>
      </trkpt>
      <trkpt lat="49.20399" lon="6.98319">
        <ele>338</ele>
        <time>2012-01-22T10:02:05Z</time>
      </trkpt>
      <trkpt lat="49.20399" lon="6.98317">
        <ele>338</ele>
        <time>2012-01-22T10:02:06Z</time>
      </trkpt>
      <trkpt lat="49.20399" lon="6.98314">
        <ele>338</ele>
        <time>2012-01-22T10:02:07Z</time>
      </trkpt>
      <trkpt lat="49.20399" lon="6.98312">
        <ele>338</ele>
        <time>2012-01-22T10:02:08Z</time>
      </trkpt>
      <trkpt lat="49.20399" lon="6.9831">
        <ele>338</ele>
        <time>2012-01-22T10:02:09Z</time>
      </trkpt>
      <trkpt lat="49.204" lon="6.98307">
        <ele>338</ele>
        <time>2012-01-22T10:02:10Z</time>
      </trkpt>
      <trkpt lat="49.204" lon="6.98306">
        <ele>338</ele>
        <time>2012-01-22T10:02:11Z</time>
      </trkpt>
      <trkpt lat="49.204" lon="6.98304">
        <ele>338</ele>
        <time>2012-01-22T10:02:12Z</time>
      </trkpt>
      <trkpt lat="49.20401" lon="6.98302">
        <ele>338</ele>
        <time>2012-01-22T10:02:13Z</time>
      </trkpt>
      <trkpt lat="49.20401" lon="6.983">
        <ele>338</ele>
        <time>2012-01-22T10:02:14Z</time>
      </trkpt>
      <trkpt lat="49.20401" lon="6.98298">
        <ele>338</ele>
        <time>2012-01-22T10:02:15Z</time>
      </trkpt>
      <trkpt lat="49.20401" lon="6.98296">
        <ele>338</ele>
        <time>2012-01-22T10:02:16Z</time>
      </trkpt>
      <trkpt lat="49.20401" lon="6.98294">
        <ele>338</ele>
        <time>2012-01-22T10:02:17Z</time>
      </trkpt>
      <trkpt lat="49.20402" lon="6.98292">
        <ele>338</ele>
        <time>2012-01-22T10:02:18Z</time>
      </trkpt>
      <trkpt lat="49.20402" lon="6.9829">
        <ele>338</ele>
        <time>2012-01-22T10:02:19Z</time>
      </trkpt>
      <trkpt lat="49.20402" lon="6.98288">
        <ele>338</ele>
        <time>2012-01-22T10:02:20Z</time>
      </trkpt>
      <trkpt lat="49.20403" lon="6.98286">
        <ele>338</ele>
        <time>2012-01-22T10:02:21Z</time>
      </trkpt>
      <trkpt lat="49.20403" lon="6.98284">
        <ele>338</ele>
        <time>2012-01-22T10:02:22Z</time>
      </trkpt>
      <trkpt lat="49.20403" lon="6.98282">
        <ele>338</ele>
        <time>2012-01-22T10:02:23Z</time>
      </trkpt>
      <trkpt lat="49.20403" lon="6.98279">
        <ele>338</ele>
        <time>2012-01-22T10:02:24Z</time>
      </trkpt>
      <trkpt lat="49.20404" lon="6.98277">
        <ele>338</ele>
        <time>2012-01-22T10:02:25Z</time>
      </trkpt>
      <trkpt lat="49.20405" lon="6.98275">
        <ele>338</ele>
        <time>2012-01-22T10:02:27Z</time>
      </trkpt>
      <trkpt lat="49.20406" lon="6.98272">
        <ele>338</ele>
        <time>2012-01-22T10:02:29Z</time>
      </trkpt>
      <trkpt lat="49.20407" lon="6.98269">
        <ele>338</ele>
        <time>2012-01-22T10:02:31Z</time>
      </trkpt>
      <trkpt lat="49.20407" lon="6.98267">
        <ele>338</ele>
        <time>2012-01-22T10:02:32Z</time>
      </trkpt>
      <trkpt lat="49.20408" lon="6.98264">
        <ele>338</ele>
        <time>2012-01-22T10:02:34Z</time>
      </trkpt>
      <trkpt lat="49.20408" lon="6.98262">
        <ele>338</ele>
        <time>2012-01-22T10:02:35Z</time>
      </trkpt>
      <trkpt lat="49.20409" lon="6.98259">
        <ele>338</ele>
        <time>2012-01-22T10:02:37Z</time>
      </trkpt>
      <trkpt lat="49.20409" lon="6.98257">
        <ele>338</ele>
        <time>2012-01-22T10:02:38Z</time>
      </trkpt>
      <trkpt lat="49.20409" lon="6.98254">
        <ele>338</ele>
        <time>2012-01-22T10:02:39Z</time>
      </trkpt>
      <trkpt lat="49.20408" lon="6.98252">
        <ele>338</ele>
        <time>2012-01-22T10:02:40Z</time>
      </trkpt>
      <trkpt lat="49.20408" lon="6.9825">
        <ele>338</ele>
        <time>2012-01-22T10:02:41Z</time>
      </trkpt>
      <trkpt lat="49.20408" lon="6.98248">
        <ele>338</ele>
        <time>2012-01-22T10:02:42Z</time>
      </trkpt>
      <trkpt lat="49.20407" lon="6.98245">
        <ele>338</ele>
        <time>2012-01-22T10:02:43Z</time>
      </trkpt>
      <trkpt lat="49.20407" lon="6.98243">
        <ele>338</ele>
        <time>2012-01-22T10:02:44Z</time>
      </trkpt>
      <trkpt lat="49.20407" lon="6.98241">
        <ele>338</ele>
        <time>2012-01-22T10:02:45Z</time>
      </trkpt>
      <trkpt lat="49.20406" lon="6.9824">
        <ele>338</ele>
        <time>2012-01-22T10:02:46Z</time>
      </trkpt>
      <trkpt lat="49.20406" lon="6.98237">
        <ele>338</ele>
        <time>2012-01-22T10:02:47Z</time>
      </trkpt>
      <trkpt lat="49.20404" lon="6.98234">
        <ele>338</ele>
        <time>2012-01-22T10:02:49Z</time>
      </trkpt>
      <trkpt lat="49.20404" lon="6.98232">
        <ele>338</ele>
        <time>2012-01-22T10:02:50Z</time>
      </trkpt>
      <trkpt lat="49.20403" lon="6.9823">
        <ele>338</ele>
        <time>2012-01-22T10:02:51Z</time>
      </trkpt>
      <trkpt lat="49.20401" lon="6.98226">
        <ele>338</ele>
        <time>2012-01-22T10:02:53Z</time>
      </trkpt>
      <trkpt lat="49.20401" lon="6.98225">
        <ele>338</ele>
        <time>2012-01-22T10:02:54Z</time>
      </trkpt>
      <trkpt lat="49.204" lon="6.98222">
        <ele>338</ele>
        <time>2012-01-22T10:02:55Z</time>
      </trkpt>
      <trkpt lat="49.204" lon="6.98221">
        <ele>338</ele>
        <time>2012-01-22T10:02:56Z</time>
      </trkpt>
      <trkpt lat="49.20399" lon="6.98218">
        <ele>338</ele>
        <time>2012-01-22T10:02:58Z</time>
      </trkpt>
      <trkpt lat="49.20398" lon="6.98216">
        <ele>338</ele>
        <time>2012-01-22T10:02:59Z</time>
      </trkpt>
      <trkpt lat="49.20397" lon="6.98214">
        <ele>338</ele>
        <time>2012-01-22T10:03:00Z</time>
      </trkpt>
      <trkpt lat="49.20395" lon="6.98211">
        <ele>338</ele>
        <time>2012-01-22T10:03:02Z</time>
      </trkpt>
      <trkpt lat="49.20394" lon="6.98209">
        <ele>338</ele>
        <time>2012-01-22T10:03:03Z</time>
      </trkpt>
      <trkpt lat="49.20392" lon="6.98206">
        <ele>338</ele>
        <time>2012-01-22T10:03:05Z</time>
      </trkpt>
      <trkpt lat="49.20391" lon="6.98204">
        <ele>338</ele>
        <time>2012-01-22T10:03:06Z</time>
      </trkpt>
      <trkpt lat="49.2039" lon="6.98201">
        <ele>338</ele>
        <time>2012-01-22T10:03:08Z</time>
      </trkpt>
      <trkpt lat="49.20389" lon="6.98199">
        <ele>338</ele>
        <time>2012-01-22T10:03:09Z</time>
      </trkpt>
      <trkpt lat="49.20388" lon="6.98197">
        <ele>338</ele>
        <time>2012-01-22T10:03:10Z</time>
      </trkpt>
      <trkpt lat="49.20387" lon="6.98194">
        <ele>338</ele>
        <time>2012-01-22T10:03:12Z</time>
      </trkpt>
      <trkpt lat="49.20386" lon="6.98192">
        <ele>338</ele>
        <time>2012-01-22T10:03:13Z</time>
      </trkpt>
      <trkpt lat="49.20385" lon="6.9819">
        <ele>339</ele>
        <time>2012-01-22T10:03:14Z</time>
      </trkpt>
      <trkpt lat="49.20384" lon="6.98188">
        <ele>339</ele>
        <time>2012-01-22T10:03:15Z</time>
      </trkpt>
      <trkpt lat="49.20383" lon="6.98186">
        <ele>339</ele>
        <time>2012-01-22T10:03:16Z</time>
      </trkpt>
      <trkpt lat="49.20382" lon="6.98183">
        <ele>340</ele>
        <time>2012-01-22T10:03:18Z</time>
      </trkpt>
      <trkpt lat="49.20381" lon="6.9818">
        <ele>340</ele>
        <time>2012-01-22T10:03:20Z</time>
      </trkpt>
      <trkpt lat="49.20379" lon="6.98177">
        <ele>340</ele>
        <time>2012-01-22T10:03:22Z</time>
      </trkpt>
      <trkpt lat="49.20378" lon="6.98176">
        <ele>340</ele>
        <time>2012-01-22T10:03:23Z</time>
      </trkpt>
      <trkpt lat="49.20378" lon="6.98174">
        <ele>340</ele>
        <time>2012-01-22T10:03:24Z</time>
      </trkpt>
      <trkpt lat="49.20377" lon="6.98172">
        <ele>340</ele>
        <time>2012-01-22T10:03:25Z</time>
      </trkpt>
      <trkpt lat="49.20376" lon="6.98171">
        <ele>340</ele>
        <time>2012-01-22T10:03:26Z</time>
      </trkpt>
      <trkpt lat="49.20375" lon="6.98169">
        <ele>340</ele>
        <time>2012-01-22T10:03:27Z</time>
      </trkpt>
      <trkpt lat="49.20374" lon="6.98167">
        <ele>340</ele>
        <time>2012-01-22T10:03:28Z</time>
      </trkpt>
      <trkpt lat="49.20372" lon="6.98165">
        <ele>340</ele>
        <time>2012-01-22T10:03:29Z</time>
      </trkpt>
      <trkpt lat="49.20371" lon="6.98162">
        <ele>340</ele>
        <time>2012-01-22T10:03:31Z</time>
      </trkpt>
      <trkpt lat="49.20371" lon="6.9816">
        <ele>340</ele>
        <time>2012-01-22T10:03:32Z</time>
      </trkpt>
      <trkpt lat="49.2037" lon="6.98158">
        <ele>340</ele>
        <time>2012-01-22T10:03:33Z</time>
      </trkpt>
      <trkpt lat="49.20369" lon="6.98154">
        <ele>340</ele>
        <time>2012-01-22T10:03:35Z</time>
      </trkpt>
      <trkpt lat="49.20368" lon="6.98152">
        <ele>340</ele>
        <time>2012-01-22T10:03:37Z</time>
      </trkpt>
      <trkpt lat="49.20367" lon="6.98149">
        <ele>340</ele>
        <time>2012-01-22T10:03:39Z</time>
      </trkpt>
      <trkpt lat="49.20366" lon="6.98147">
        <ele>340</ele>
        <time>2012-01-22T10:03:40Z</time>
      </trkpt>
      <trkpt lat="49.20364" lon="6.98144">
        <ele>340</ele>
        <time>2012-01-22T10:03:42Z</time>
      </trkpt>
      <trkpt lat="49.20364" lon="6.98142">
        <ele>340</ele>
        <time>2012-01-22T10:03:43Z</time>
      </trkpt>
      <trkpt lat="49.20363" lon="6.9814">
        <ele>340</ele>
        <time>2012-01-22T10:03:44Z</time>
      </trkpt>
      <trkpt lat="49.20362" lon="6.98139">
        <ele>340</ele>
        <time>2012-01-22T10:03:45Z</time>
      </trkpt>
      <trkpt lat="49.20362" lon="6.98137">
        <ele>340</ele>
        <time>2012-01-22T10:03:46Z</time>
      </trkpt>
      <trkpt lat="49.20361" lon="6.98135">
        <ele>340</ele>
        <time>2012-01-22T10:03:47Z</time>
      </trkpt>
      <trkpt lat="49.2036" lon="6.98132">
        <ele>340</ele>
        <time>2012-01-22T10:03:49Z</time>
      </trkpt>
      <trkpt lat="49.20359" lon="6.9813">
        <ele>340</ele>
        <time>2012-01-22T10:03:50Z</time>
      </trkpt>
      <trkpt lat="49.20358" lon="6.98128">
        <ele>340</ele>
        <time>2012-01-22T10:03:51Z</time>
      </trkpt>
      <trkpt lat="49.20356" lon="6.98126">
        <ele>340</ele>
        <time>2012-01-22T10:03:53Z</time>
      </trkpt>
      <trkpt lat="49.20355" lon="6.98124">
        <ele>340</ele>
        <time>2012-01-22T10:03:54Z</time>
      </trkpt>
      <trkpt lat="49.20354" lon="6.98122">
        <ele>340</ele>
        <time>2012-01-22T10:03:55Z</time>
      </trkpt>
      <trkpt lat="49.20353" lon="6.9812">
        <ele>340</ele>
        <time>2012-01-22T10:03:56Z</time>
      </trkpt>
      <trkpt lat="49.20352" lon="6.98118">
        <ele>340</ele>
        <time>2012-01-22T10:03:57Z</time>
      </trkpt>
      <trkpt lat="49.20351" lon="6.98116">
        <ele>340</ele>
        <time>2012-01-22T10:03:58Z</time>
      </trkpt>
      <trkpt lat="49.2035" lon="6.98114">
        <ele>340</ele>
        <time>2012-01-22T10:03:59Z</time>
      </trkpt>
      <trkpt lat="49.20349" lon="6.98111">
        <ele>340</ele>
        <time>2012-01-22T10:04:00Z</time>
      </trkpt>
      <trkpt lat="49.20348" lon="6.9811">
        <ele>340</ele>
        <time>2012-01-22T10:04:01Z</time>
      </trkpt>
      <trkpt lat="49.20347" lon="6.98108">
        <ele>340</ele>
        <time>2012-01-22T10:04:02Z</time>
      </trkpt>
      <trkpt lat="49.20346" lon="6.98106">
        <ele>340</ele>
        <time>2012-01-22T10:04:03Z</time>
      </trkpt>
      <trkpt lat="49.20345" lon="6.98104">
        <ele>340</ele>
        <time>2012-01-22T10:04:04Z</time>
      </trkpt>
      <trkpt lat="49.20344" lon="6.98102">
        <ele>340</ele>
        <time>2012-01-22T10:04:05Z</time>
      </trkpt>
      <trkpt lat="49.20343" lon="6.98101">
        <ele>340</ele>
        <time>2012-01-22T10:04:06Z</time>
      </trkpt>
      <trkpt lat="49.20342" lon="6.98099">
        <ele>340</ele>
        <time>2012-01-22T10:04:07Z</time>
      </trkpt>
      <trkpt lat="49.20341" lon="6.98097">
        <ele>340</ele>
        <time>2012-01-22T10:04:08Z</time>
      </trkpt>
      <trkpt lat="49.2034" lon="6.98095">
        <ele>340</ele>
        <time>2012-01-22T10:04:09Z</time>
      </trkpt>
      <trkpt lat="49.20339" lon="6.98094">
        <ele>340</ele>
        <time>2012-01-22T10:04:10Z</time>
      </trkpt>
      <trkpt lat="49.20338" lon="6.98091">
        <ele>340</ele>
        <time>2012-01-22T10:04:12Z</time>
      </trkpt>
      <trkpt lat="49.20337" lon="6.98089">
        <ele>340</ele>
        <time>2012-01-22T10:04:13Z</time>
      </trkpt>
      <trkpt lat="49.20336" lon="6.98087">
        <ele>340</ele>
        <time>2012-01-22T10:04:14Z</time>
      </trkpt>
      <trkpt lat="49.20335" lon="6.98086">
        <ele>340</ele>
        <time>2012-01-22T10:04:15Z</time>
      </trkpt>
      <trkpt lat="49.20334" lon="6.98084">
        <ele>340</ele>
        <time>2012-01-22T10:04:16Z</time>
      </trkpt>
      <trkpt lat="49.20333" lon="6.98082">
        <ele>340</ele>
        <time>2012-01-22T10:04:17Z</time>
      </trkpt>
      <trkpt lat="49.20333" lon="6.9808">
        <ele>340</ele>
        <time>2012-01-22T10:04:18Z</time>
      </trkpt>
      <trkpt lat="49.20331" lon="6.98077">
        <ele>340</ele>
        <time>2012-01-22T10:04:20Z</time>
      </trkpt>
      <trkpt lat="49.20329" lon="6.98074">
        <ele>340</ele>
        <time>2012-01-22T10:04:22Z</time>
      </trkpt>
      <trkpt lat="49.20328" lon="6.98073">
        <ele>340</ele>
        <time>2012-01-22T10:04:23Z</time>
      </trkpt>
      <trkpt lat="49.20326" lon="6.98069">
        <ele>340</ele>
        <time>2012-01-22T10:04:25Z</time>
      </trkpt>
      <trkpt lat="49.20325" lon="6.98067">
        <ele>340</ele>
        <time>2012-01-22T10:04:27Z</time>
      </trkpt>
      <trkpt lat="49.20324" lon="6.98065">
        <ele>340</ele>
        <time>2012-01-22T10:04:28Z</time>
      </trkpt>
      <trkpt lat="49.20323" lon="6.98061">
        <ele>340</ele>
        <time>2012-01-22T10:04:30Z</time>
      </trkpt>
      <trkpt lat="49.20322" lon="6.9806">
        <ele>340</ele>
        <time>2012-01-22T10:04:31Z</time>
      </trkpt>
      <trkpt lat="49.20321" lon="6.98057">
        <ele>340</ele>
        <time>2012-01-22T10:04:32Z</time>
      </trkpt>
      <trkpt lat="49.20321" lon="6.98056">
        <ele>340</ele>
        <time>2012-01-22T10:04:33Z</time>
      </trkpt>
      <trkpt lat="49.20319" lon="6.98054">
        <ele>340</ele>
        <time>2012-01-22T10:04:34Z</time>
      </trkpt>
      <trkpt lat="49.20318" lon="6.98052">
        <ele>340</ele>
        <time>2012-01-22T10:04:35Z</time>
      </trkpt>
      <trkpt lat="49.20317" lon="6.98049">
        <ele>340</ele>
        <time>2012-01-22T10:04:37Z</time>
      </trkpt>
      <trkpt lat="49.20315" lon="6.98047">
        <ele>340</ele>
        <time>2012-01-22T10:04:39Z</time>
      </trkpt>
      <trkpt lat="49.20314" lon="6.98045">
        <ele>340</ele>
        <time>2012-01-22T10:04:40Z</time>
      </trkpt>
      <trkpt lat="49.20313" lon="6.98043">
        <ele>340</ele>
        <time>2012-01-22T10:04:41Z</time>
      </trkpt>
      <trkpt lat="49.20312" lon="6.9804">
        <ele>340</ele>
        <time>2012-01-22T10:04:43Z</time>
      </trkpt>
      <trkpt lat="49.20311" lon="6.98038">
        <ele>340</ele>
        <time>2012-01-22T10:04:44Z</time>
      </trkpt>
      <trkpt lat="49.2031" lon="6.98036">
        <ele>340</ele>
        <time>2012-01-22T10:04:45Z</time>
      </trkpt>
      <trkpt lat="49.20309" lon="6.98033">
        <ele>340</ele>
        <time>2012-01-22T10:04:47Z</time>
      </trkpt>
      <trkpt lat="49.20308" lon="6.98031">
        <ele>340</ele>
        <time>2012-01-22T10:04:48Z</time>
      </trkpt>
      <trkpt lat="49.20307" lon="6.98029">
        <ele>340</ele>
        <time>2012-01-22T10:04:49Z</time>
      </trkpt>
      <trkpt lat="49.20306" lon="6.98026">
        <ele>340</ele>
        <time>2012-01-22T10:04:50Z</time>
      </trkpt>
      <trkpt lat="49.20305" lon="6.98024">
        <ele>340</ele>
        <time>2012-01-22T10:04:51Z</time>
      </trkpt>
      <trkpt lat="49.20305" lon="6.98022">
        <ele>340</ele>
        <time>2012-01-22T10:04:52Z</time>
      </trkpt>
      <trkpt lat="49.20304" lon="6.9802">
        <ele>340</ele>
        <time>2012-01-22T10:04:53Z</time>
      </trkpt>
      <trkpt lat="49.20303" lon="6.98018">
        <ele>340</ele>
        <time>2012-01-22T10:04:54Z</time>
      </trkpt>
      <trkpt lat="49.20302" lon="6.98016">
        <ele>340</ele>
        <time>2012-01-22T10:04:55Z</time>
      </trkpt>
      <trkpt lat="49.20301" lon="6.98014">
        <ele>340</ele>
        <time>2012-01-22T10:04:56Z</time>
      </trkpt>
      <trkpt lat="49.203" lon="6.98011">
        <ele>340</ele>
        <time>2012-01-22T10:04:57Z</time>
      </trkpt>
      <trkpt lat="49.20299" lon="6.98009">
        <ele>340</ele>
        <time>2012-01-22T10:04:58Z</time>
      </trkpt>
      <trkpt lat="49.20298" lon="6.98007">
        <ele>340</ele>
        <time>2012-01-22T10:04:59Z</time>
      </trkpt>
      <trkpt lat="49.20297" lon="6.98005">
        <ele>340</ele>
        <time>2012-01-22T10:05:00Z</time>
      </trkpt>
      <trkpt lat="49.20296" lon="6.98003">
        <ele>340</ele>
        <time>2012-01-22T10:05:01Z</time>
      </trkpt>
      <trkpt lat="49.20295" lon="6.98001">
        <ele>340</ele>
        <time>2012-01-22T10:05:02Z</time>
      </trkpt>
      <trkpt lat="49.20294" lon="6.97999">
        <ele>340</ele>
        <time>2012-01-22T10:05:03Z</time>
      </trkpt>
      <trkpt lat="49.20293" lon="6.97998">
        <ele>340</ele>
        <time>2012-01-22T10:05:04Z</time>
      </trkpt>
      <trkpt lat="49.20293" lon="6.97996">
        <ele>340</ele>
        <time>2012-01-22T10:05:05Z</time>
      </trkpt>
      <trkpt lat="49.20292" lon="6.97994">
        <ele>340</ele>
        <time>2012-01-22T10:05:06Z</time>
      </trkpt>
      <trkpt lat="49.20291" lon="6.97992">
        <ele>340</ele>
        <time>2012-01-22T10:05:07Z</time>
      </trkpt>
      <trkpt lat="49.2029" lon="6.9799">
        <ele>340</ele>
        <time>2012-01-22T10:05:08Z</time>
      </trkpt>
      <trkpt lat="49.20288" lon="6.97987">
        <ele>340</ele>
        <time>2012-01-22T10:05:10Z</time>
      </trkpt>
      <trkpt lat="49.20287" lon="6.97983">
        <ele>340</ele>
        <time>2012-01-22T10:05:12Z</time>
      </trkpt>
      <trkpt lat="49.20286" lon="6.97982">
        <ele>340</ele>
        <time>2012-01-22T10:05:13Z</time>
      </trkpt>
      <trkpt lat="49.20286" lon="6.9798">
        <ele>340</ele>
        <time>2012-01-22T10:05:14Z</time>
      </trkpt>
      <trkpt lat="49.20285" lon="6.97977">
        <ele>340</ele>
        <time>2012-01-22T10:05:16Z</time>
      </trkpt>
      <trkpt lat="49.20284" lon="6.97975">
        <ele>340</ele>
        <time>2012-01-22T10:05:17Z</time>
      </trkpt>
      <trkpt lat="49.20283" lon="6.97972">
        <ele>340</ele>
        <time>2012-01-22T10:05:18Z</time>
      </trkpt>
      <trkpt lat="49.20282" lon="6.9797">
        <ele>340</ele>
        <time>2012-01-22T10:05:19Z</time>
      </trkpt>
      <trkpt lat="49.20281" lon="6.97968">
        <ele>340</ele>
        <time>2012-01-22T10:05:20Z</time>
      </trkpt>
      <trkpt lat="49.2028" lon="6.97966">
        <ele>340</ele>
        <time>2012-01-22T10:05:21Z</time>
      </trkpt>
      <trkpt lat="49.20279" lon="6.97964">
        <ele>340</ele>
        <time>2012-01-22T10:05:23Z</time>
      </trkpt>
      <trkpt lat="49.20278" lon="6.97963">
        <ele>340</ele>
        <time>2012-01-22T10:05:24Z</time>
      </trkpt>
      <trkpt lat="49.20277" lon="6.97961">
        <ele>340</ele>
        <time>2012-01-22T10:05:25Z</time>
      </trkpt>
      <trkpt lat="49.20275" lon="6.97958">
        <ele>340</ele>
        <time>2012-01-22T10:05:27Z</time>
      </trkpt>
      <trkpt lat="49.20274" lon="6.97956">
        <ele>340</ele>
        <time>2012-01-22T10:05:28Z</time>
      </trkpt>
      <trkpt lat="49.20273" lon="6.97954">
        <ele>340</ele>
        <time>2012-01-22T10:05:29Z</time>
      </trkpt>
      <trkpt lat="49.20272" lon="6.97952">
        <ele>340</ele>
        <time>2012-01-22T10:05:30Z</time>
      </trkpt>
      <trkpt lat="49.20271" lon="6.9795">
        <ele>340</ele>
        <time>2012-01-22T10:05:31Z</time>
      </trkpt>
      <trkpt lat="49.2027" lon="6.97948">
        <ele>340</ele>
        <time>2012-01-22T10:05:32Z</time>
      </trkpt>
      <trkpt lat="49.20269" lon="6.97948">
        <ele>340</ele>
        <time>2012-01-22T10:05:33Z</time>
      </trkpt>
      <trkpt lat="49.20268" lon="6.97946">
        <ele>340</ele>
        <time>2012-01-22T10:05:34Z</time>
      </trkpt>
      <trkpt lat="49.20267" lon="6.97944">
        <ele>340</ele>
        <time>2012-01-22T10:05:35Z</time>
      </trkpt>
      <trkpt lat="49.20266" lon="6.9794">
        <ele>340</ele>
        <time>2012-01-22T10:05:37Z</time>
      </trkpt>
      <trkpt lat="49.20265" lon="6.97938">
        <ele>340</ele>
        <time>2012-01-22T10:05:38Z</time>
      </trkpt>
      <trkpt lat="49.20264" lon="6.97935">
        <ele>340</ele>
        <time>2012-01-22T10:05:40Z</time>
      </trkpt>
      <trkpt lat="49.20262" lon="6.97933">
        <ele>340</ele>
        <time>2012-01-22T10:05:42Z</time>
      </trkpt>
      <trkpt lat="49.20261" lon="6.9793">
        <ele>340</ele>
        <time>2012-01-22T10:05:44Z</time>
      </trkpt>
      <trkpt lat="49.2026" lon="6.97928">
        <ele>340</ele>
        <time>2012-01-22T10:05:45Z</time>
      </trkpt>
      <trkpt lat="49.20259" lon="6.97927">
        <ele>339</ele>
        <time>2012-01-22T10:05:46Z</time>
      </trkpt>
      <trkpt lat="49.20257" lon="6.97924">
        <ele>338</ele>
        <time>2012-01-22T10:05:48Z</time>
      </trkpt>
      <trkpt lat="49.20257" lon="6.97922">
        <ele>338</ele>
        <time>2012-01-22T10:05:49Z</time>
      </trkpt>
      <trkpt lat="49.20256" lon="6.9792">
        <ele>338</ele>
        <time>2012-01-22T10:05:50Z</time>
      </trkpt>
      <trkpt lat="49.20254" lon="6.97918">
        <ele>338</ele>
        <time>2012-01-22T10:05:52Z</time>
      </trkpt>
      <trkpt lat="49.20253" lon="6.97916">
        <ele>338</ele>
        <time>2012-01-22T10:05:53Z</time>
      </trkpt>
      <trkpt lat="49.20252" lon="6.97914">
        <ele>338</ele>
        <time>2012-01-22T10:05:54Z</time>
      </trkpt>
      <trkpt lat="49.20251" lon="6.97912">
        <ele>338</ele>
        <time>2012-01-22T10:05:55Z</time>
      </trkpt>
      <trkpt lat="49.20251" lon="6.9791">
        <ele>338</ele>
        <time>2012-01-22T10:05:56Z</time>
      </trkpt>
      <trkpt lat="49.20251" lon="6.97907">
        <ele>338</ele>
        <time>2012-01-22T10:05:57Z</time>
      </trkpt>
      <trkpt lat="49.2025" lon="6.97905">
        <ele>337</ele>
        <time>2012-01-22T10:05:58Z</time>
      </trkpt>
      <trkpt lat="49.2025" lon="6.97903">
        <ele>337</ele>
        <time>2012-01-22T10:05:59Z</time>
      </trkpt>
      <trkpt lat="49.2025" lon="6.97901">
        <ele>335</ele>
        <time>2012-01-22T10:06:01Z</time>
      </trkpt>
      <trkpt lat="49.2025" lon="6.97898">
        <ele>334</ele>
        <time>2012-01-22T10:06:03Z</time>
      </trkpt>
      <trkpt lat="49.20251" lon="6.97896">
        <ele>333</ele>
        <time>2012-01-22T10:06:05Z</time>
      </trkpt>
      <trkpt lat="49.20251" lon="6.97893">
        <ele>332</ele>
        <time>2012-01-22T10:06:07Z</time>
      </trkpt>
      <trkpt lat="49.20252" lon="6.97891">
        <ele>332</ele>
        <time>2012-01-22T10:06:09Z</time>
      </trkpt>
      <trkpt lat="49.20253" lon="6.97888">
        <ele>332</ele>
        <time>2012-01-22T10:06:11Z</time>
      </trkpt>
      <trkpt lat="49.20254" lon="6.97885">
        <ele>332</ele>
        <time>2012-01-22T10:06:13Z</time>
      </trkpt>
      <trkpt lat="49.20254" lon="6.97883">
        <ele>332</ele>
        <time>2012-01-22T10:06:14Z</time>
      </trkpt>
      <trkpt lat="49.20254" lon="6.97881">
        <ele>332</ele>
        <time>2012-01-22T10:06:15Z</time>
      </trkpt>
      <trkpt lat="49.20254" lon="6.97879">
        <ele>332</ele>
        <time>2012-01-22T10:06:16Z</time>
      </trkpt>
      <trkpt lat="49.20254" lon="6.97877">
        <ele>331</ele>
        <time>2012-01-22T10:06:17Z</time>
      </trkpt>
      <trkpt lat="49.20255" lon="6.97875">
        <ele>331</ele>
        <time>2012-01-22T10:06:18Z</time>
      </trkpt>
      <trkpt lat="49.20254" lon="6.97871">
        <ele>330</ele>
        <time>2012-01-22T10:06:20Z</time>
      </trkpt>
      <trkpt lat="49.20254" lon="6.97869">
        <ele>329</ele>
        <time>2012-01-22T10:06:22Z</time>
      </trkpt>
      <trkpt lat="49.20255" lon="6.97866">
        <ele>327</ele>
        <time>2012-01-22T10:06:24Z</time>
      </trkpt>
      <trkpt lat="49.20254" lon="6.97863">
        <ele>326</ele>
        <time>2012-01-22T10:06:25Z</time>
      </trkpt>
      <trkpt lat="49.20253" lon="6.97858">
        <ele>326</ele>
        <time>2012-01-22T10:06:26Z</time>
      </trkpt>
      <trkpt lat="49.20253" lon="6.97856">
        <ele>325</ele>
        <time>2012-01-22T10:06:27Z</time>
      </trkpt>
      <trkpt lat="49.20253" lon="6.97854">
        <ele>325</ele>
        <time>2012-01-22T10:06:28Z</time>
      </trkpt>
      <trkpt lat="49.20253" lon="6.97851">
        <ele>325</ele>
        <time>2012-01-22T10:06:30Z</time>
      </trkpt>
      <trkpt lat="49.20253" lon="6.97848">
        <ele>325</ele>
        <time>2012-01-22T10:06:32Z</time>
      </trkpt>
      <trkpt lat="49.20253" lon="6.97847">
        <ele>324</ele>
        <time>2012-01-22T10:06:33Z</time>
      </trkpt>
      <trkpt lat="49.20253" lon="6.97845">
        <ele>324</ele>
        <time>2012-01-22T10:06:34Z</time>
      </trkpt>
      <trkpt lat="49.20253" lon="6.97843">
        <ele>324</ele>
        <time>2012-01-22T10:06:35Z</time>
      </trkpt>
      <trkpt lat="49.20252" lon="6.97841">
        <ele>324</ele>
        <time>2012-01-22T10:06:36Z</time>
      </trkpt>
      <trkpt lat="49.20253" lon="6.97837">
        <ele>324</ele>
        <time>2012-01-22T10:06:38Z</time>
      </trkpt>
      <trkpt lat="49.20253" lon="6.97835">
        <ele>324</ele>
        <time>2012-01-22T10:06:39Z</time>
      </trkpt>
      <trkpt lat="49.20253" lon="6.97833">
        <ele>324</ele>
        <time>2012-01-22T10:06:40Z</time>
      </trkpt>
      <trkpt lat="49.20253" lon="6.97831">
        <ele>323</ele>
        <time>2012-01-22T10:06:41Z</time>
      </trkpt>
      <trkpt lat="49.20253" lon="6.97829">
        <ele>322</ele>
        <time>2012-01-22T10:06:42Z</time>
      </trkpt>
      <trkpt lat="49.20253" lon="6.97827">
        <ele>321</ele>
        <time>2012-01-22T10:06:43Z</time>
      </trkpt>
      <trkpt lat="49.20253" lon="6.97825">
        <ele>320</ele>
        <time>2012-01-22T10:06:44Z</time>
      </trkpt>
      <trkpt lat="49.20254" lon="6.97822">
        <ele>319</ele>
        <time>2012-01-22T10:06:46Z</time>
      </trkpt>
      <trkpt lat="49.20253" lon="6.97817">
        <ele>318</ele>
        <time>2012-01-22T10:06:48Z</time>
      </trkpt>
      <trkpt lat="49.20253" lon="6.97815">
        <ele>318</ele>
        <time>2012-01-22T10:06:49Z</time>
      </trkpt>
      <trkpt lat="49.20253" lon="6.97813">
        <ele>318</ele>
        <time>2012-01-22T10:06:50Z</time>
      </trkpt>
      <trkpt lat="49.20254" lon="6.97811">
        <ele>318</ele>
        <time>2012-01-22T10:06:51Z</time>
      </trkpt>
      <trkpt lat="49.20254" lon="6.97809">
        <ele>318</ele>
        <time>2012-01-22T10:06:52Z</time>
      </trkpt>
      <trkpt lat="49.20254" lon="6.97807">
        <ele>317</ele>
        <time>2012-01-22T10:06:53Z</time>
      </trkpt>
      <trkpt lat="49.20254" lon="6.97805">
        <ele>317</ele>
        <time>2012-01-22T10:06:54Z</time>
      </trkpt>
      <trkpt lat="49.20254" lon="6.97803">
        <ele>316</ele>
        <time>2012-01-22T10:06:55Z</time>
      </trkpt>
      <trkpt lat="49.20254" lon="6.97801">
        <ele>316</ele>
        <time>2012-01-22T10:06:56Z</time>
      </trkpt>
      <trkpt lat="49.20254" lon="6.97798">
        <ele>315</ele>
        <time>2012-01-22T10:06:57Z</time>
      </trkpt>
      <trkpt lat="49.20254" lon="6.97796">
        <ele>314</ele>
        <time>2012-01-22T10:06:58Z</time>
      </trkpt>
      <trkpt lat="49.20254" lon="6.97794">
        <ele>314</ele>
        <time>2012-01-22T10:06:59Z</time>
      </trkpt>
      <trkpt lat="49.20254" lon="6.97792">
        <ele>313</ele>
        <time>2012-01-22T10:07:00Z</time>
      </trkpt>
      <trkpt lat="49.20254" lon="6.9779">
        <ele>312</ele>
        <time>2012-01-22T10:07:01Z</time>
      </trkpt>
      <trkpt lat="49.20254" lon="6.97788">
        <ele>311</ele>
        <time>2012-01-22T10:07:02Z</time>
      </trkpt>
      <trkpt lat="49.20254" lon="6.97786">
        <ele>311</ele>
        <time>2012-01-22T10:07:03Z</time>
      </trkpt>
      <trkpt lat="49.20253" lon="6.97784">
        <ele>311</ele>
        <time>2012-01-22T10:07:04Z</time>
      </trkpt>
      <trkpt lat="49.20253" lon="6.97781">
        <ele>311</ele>
        <time>2012-01-22T10:07:06Z</time>
      </trkpt>
      <trkpt lat="49.20253" lon="6.97777">
        <ele>311</ele>
        <time>2012-01-22T10:07:08Z</time>
      </trkpt>
      <trkpt lat="49.20253" lon="6.97775">
        <ele>311</ele>
        <time>2012-01-22T10:07:09Z</time>
      </trkpt>
      <trkpt lat="49.20253" lon="6.97773">
        <ele>311</ele>
        <time>2012-01-22T10:07:10Z</time>
      </trkpt>
      <trkpt lat="49.20253" lon="6.97769">
        <ele>311</ele>
        <time>2012-01-22T10:07:11Z</time>
      </trkpt>
      <trkpt lat="49.20253" lon="6.97767">
        <ele>311</ele>
        <time>2012-01-22T10:07:12Z</time>
      </trkpt>
      <trkpt lat="49.20253" lon="6.97765">
        <ele>311</ele>
        <time>2012-01-22T10:07:13Z</time>
      </trkpt>
      <trkpt lat="49.20253" lon="6.97762">
        <ele>311</ele>
        <time>2012-01-22T10:07:14Z</time>
      </trkpt>
      <trkpt lat="49.20253" lon="6.9776">
        <ele>311</ele>
        <time>2012-01-22T10:07:15Z</time>
      </trkpt>
      <trkpt lat="49.20253" lon="6.97758">
        <ele>311</ele>
        <time>2012-01-22T10:07:16Z</time>
      </trkpt>
      <trkpt lat="49.20253" lon="6.97756">
        <ele>311</ele>
        <time>2012-01-22T10:07:17Z</time>
      </trkpt>
      <trkpt lat="49.20252" lon="6.97753">
        <ele>311</ele>
        <time>2012-01-22T10:07:19Z</time>
      </trkpt>
      <trkpt lat="49.20253" lon="6.97751">
        <ele>311</ele>
        <time>2012-01-22T10:07:20Z</time>
      </trkpt>
      <trkpt lat="49.20253" lon="6.97748">
        <ele>311</ele>
        <time>2012-01-22T10:07:22Z</time>
      </trkpt>
      <trkpt lat="49.20253" lon="6.97746">
        <ele>310</ele>
        <time>2012-01-22T10:07:23Z</time>
      </trkpt>
      <trkpt lat="49.20252" lon="6.97745">
        <ele>310</ele>
        <time>2012-01-22T10:07:24Z</time>
      </trkpt>
      <trkpt lat="49.20252" lon="6.97743">
        <ele>310</ele>
        <time>2012-01-22T10:07:25Z</time>
      </trkpt>
      <trkpt lat="49.20252" lon="6.97741">
        <ele>309</ele>
        <time>2012-01-22T10:07:26Z</time>
      </trkpt>
      <trkpt lat="49.20252" lon="6.97739">
        <ele>309</ele>
        <time>2012-01-22T10:07:27Z</time>
      </trkpt>
      <trkpt lat="49.20252" lon="6.97736">
        <ele>309</ele>
        <time>2012-01-22T10:07:28Z</time>
      </trkpt>
      <trkpt lat="49.20252" lon="6.97733">
        <ele>309</ele>
        <time>2012-01-22T10:07:29Z</time>
      </trkpt>
      <trkpt lat="49.20253" lon="6.9773">
        <ele>308</ele>
        <time>2012-01-22T10:07:30Z</time>
      </trkpt>
      <trkpt lat="49.20253" lon="6.97728">
        <ele>308</ele>
        <time>2012-01-22T10:07:31Z</time>
      </trkpt>
      <trkpt lat="49.20253" lon="6.97725">
        <ele>308</ele>
        <time>2012-01-22T10:07:32Z</time>
      </trkpt>
      <trkpt lat="49.20252" lon="6.97722">
        <ele>308</ele>
        <time>2012-01-22T10:07:33Z</time>
      </trkpt>
      <trkpt lat="49.20252" lon="6.9772">
        <ele>308</ele>
        <time>2012-01-22T10:07:35Z</time>
      </trkpt>
      <trkpt lat="49.20252" lon="6.97718">
        <ele>308</ele>
        <time>2012-01-22T10:07:37Z</time>
      </trkpt>
      <trkpt lat="49.20252" lon="6.97715">
        <ele>308</ele>
        <time>2012-01-22T10:07:38Z</time>
      </trkpt>
      <trkpt lat="49.20251" lon="6.97712">
        <ele>308</ele>
        <time>2012-01-22T10:07:39Z</time>
      </trkpt>
      <trkpt lat="49.20251" lon="6.9771">
        <ele>308</ele>
        <time>2012-01-22T10:07:40Z</time>
      </trkpt>
      <trkpt lat="49.20251" lon="6.97707">
        <ele>308</ele>
        <time>2012-01-22T10:07:41Z</time>
      </trkpt>
      <trkpt lat="49.20251" lon="6.97704">
        <ele>308</ele>
        <time>2012-01-22T10:07:42Z</time>
      </trkpt>
      <trkpt lat="49.20251" lon="6.97703">
        <ele>308</ele>
        <time>2012-01-22T10:07:43Z</time>
      </trkpt>
      <trkpt lat="49.20251" lon="6.977">
        <ele>308</ele>
        <time>2012-01-22T10:07:44Z</time>
      </trkpt>
      <trkpt lat="49.20252" lon="6.97697">
        <ele>308</ele>
        <time>2012-01-22T10:07:45Z</time>
      </trkpt>
      <trkpt lat="49.20251" lon="6.97694">
        <ele>308</ele>
        <time>2012-01-22T10:07:46Z</time>
      </trkpt>
      <trkpt lat="49.20252" lon="6.97691">
        <ele>308</ele>
        <time>2012-01-22T10:07:48Z</time>
      </trkpt>
      <trkpt lat="49.20252" lon="6.97688">
        <ele>308</ele>
        <time>2012-01-22T10:07:50Z</time>
      </trkpt>
      <trkpt lat="49.20252" lon="6.97686">
        <ele>308</ele>
        <time>2012-01-22T10:07:51Z</time>
      </trkpt>
      <trkpt lat="49.20252" lon="6.97683">
        <ele>308</ele>
        <time>2012-01-22T10:07:52Z</time>
      </trkpt>
      <trkpt lat="49.20253" lon="6.97681">
        <ele>308</ele>
        <time>2012-01-22T10:07:53Z</time>
      </trkpt>
      <trkpt lat="49.20253" lon="6.97679">
        <ele>307</ele>
        <time>2012-01-22T10:07:55Z</time>
      </trkpt>
      <trkpt lat="49.20253" lon="6.97676">
        <ele>307</ele>
        <time>2012-01-22T10:07:57Z</time>
      </trkpt>
      <trkpt lat="49.20253" lon="6.97672">
        <ele>307</ele>
        <time>2012-01-22T10:07:59Z</time>
      </trkpt>
      <trkpt lat="49.20253" lon="6.97671">
        <ele>307</ele>
        <time>2012-01-22T10:08:00Z</time>
      </trkpt>
      <trkpt lat="49.20253" lon="6.97668">
        <ele>307</ele>
        <time>2012-01-22T10:08:01Z</time>
      </trkpt>
      <trkpt lat="49.20253" lon="6.97666">
        <ele>306</ele>
        <time>2012-01-22T10:08:02Z</time>
      </trkpt>
      <trkpt lat="49.20253" lon="6.97664">
        <ele>306</ele>
        <time>2012-01-22T10:08:04Z</time>
      </trkpt>
      <trkpt lat="49.20253" lon="6.97661">
        <ele>305</ele>
        <time>2012-01-22T10:08:06Z</time>
      </trkpt>
      <trkpt lat="49.20254" lon="6.97659">
        <ele>304</ele>
        <time>2012-01-22T10:08:08Z</time>
      </trkpt>
      <trkpt lat="49.20254" lon="6.97656">
        <ele>303</ele>
        <time>2012-01-22T10:08:10Z</time>
      </trkpt>
      <trkpt lat="49.20253" lon="6.97653">
        <ele>302</ele>
        <time>2012-01-22T10:08:12Z</time>
      </trkpt>
      <trkpt lat="49.20253" lon="6.97651">
        <ele>301</ele>
        <time>2012-01-22T10:08:14Z</time>
      </trkpt>
      <trkpt lat="49.20253" lon="6.97648">
        <ele>301</ele>
        <time>2012-01-22T10:08:16Z</time>
      </trkpt>
      <trkpt lat="49.20254" lon="6.97646">
        <ele>301</ele>
        <time>2012-01-22T10:08:17Z</time>
      </trkpt>
      <trkpt lat="49.20254" lon="6.97643">
        <ele>300</ele>
        <time>2012-01-22T10:08:19Z</time>
      </trkpt>
      <trkpt lat="49.20254" lon="6.9764">
        <ele>300</ele>
        <time>2012-01-22T10:08:21Z</time>
      </trkpt>
      <trkpt lat="49.20254" lon="6.97638">
        <ele>300</ele>
        <time>2012-01-22T10:08:22Z</time>
      </trkpt>
      <trkpt lat="49.20253" lon="6.97635">
        <ele>300</ele>
        <time>2012-01-22T10:08:24Z</time>
      </trkpt>
      <trkpt lat="49.20253" lon="6.97633">
        <ele>299</ele>
        <time>2012-01-22T10:08:26Z</time>
      </trkpt>
      <trkpt lat="49.20253" lon="6.9763">
        <ele>299</ele>
        <time>2012-01-22T10:08:28Z</time>
      </trkpt>
      <trkpt lat="49.20254" lon="6.97628">
        <ele>298</ele>
        <time>2012-01-22T10:08:30Z</time>
      </trkpt>
      <trkpt lat="49.20253" lon="6.97625">
        <ele>297</ele>
        <time>2012-01-22T10:08:32Z</time>
      </trkpt>
      <trkpt lat="49.20253" lon="6.97623">
        <ele>296</ele>
        <time>2012-01-22T10:08:33Z</time>
      </trkpt>
      <trkpt lat="49.20254" lon="6.97622">
        <ele>296</ele>
        <time>2012-01-22T10:08:34Z</time>
      </trkpt>
      <trkpt lat="49.20254" lon="6.9762">
        <ele>295</ele>
        <time>2012-01-22T10:08:35Z</time>
      </trkpt>
      <trkpt lat="49.20254" lon="6.97618">
        <ele>294</ele>
        <time>2012-01-22T10:08:36Z</time>
      </trkpt>
      <trkpt lat="49.20254" lon="6.97615">
        <ele>292</ele>
        <time>2012-01-22T10:08:38Z</time>
      </trkpt>
      <trkpt lat="49.20254" lon="6.97612">
        <ele>291</ele>
        <time>2012-01-22T10:08:40Z</time>
      </trkpt>
      <trkpt lat="49.20254" lon="6.9761">
        <ele>291</ele>
        <time>2012-01-22T10:08:41Z</time>
      </trkpt>
      <trkpt lat="49.20254" lon="6.97608">
        <ele>290</ele>
        <time>2012-01-22T10:08:42Z</time>
      </trkpt>
      <trkpt lat="49.20254" lon="6.97605">
        <ele>289</ele>
        <time>2012-01-22T10:08:44Z</time>
      </trkpt>
      <trkpt lat="49.20254" lon="6.97602">
        <ele>288</ele>
        <time>2012-01-22T10:08:46Z</time>
      </trkpt>
      <trkpt lat="49.20253" lon="6.97598">
        <ele>288</ele>
        <time>2012-01-22T10:08:47Z</time>
      </trkpt>
      <trkpt lat="49.20253" lon="6.97593">
        <ele>288</ele>
        <time>2012-01-22T10:08:49Z</time>
      </trkpt>
      <trkpt lat="49.20253" lon="6.97591">
        <ele>288</ele>
        <time>2012-01-22T10:08:50Z</time>
      </trkpt>
      <trkpt lat="49.20253" lon="6.97588">
        <ele>288</ele>
        <time>2012-01-22T10:08:51Z</time>
      </trkpt>
      <trkpt lat="49.20253" lon="6.97586">
        <ele>288</ele>
        <time>2012-01-22T10:08:52Z</time>
      </trkpt>
      <trkpt lat="49.20253" lon="6.97584">
        <ele>288</ele>
        <time>2012-01-22T10:08:53Z</time>
      </trkpt>
      <trkpt lat="49.20253" lon="6.97582">
        <ele>288</ele>
        <time>2012-01-22T10:08:54Z</time>
      </trkpt>
      <trkpt lat="49.20253" lon="6.97581">
        <ele>288</ele>
        <time>2012-01-22T10:08:55Z</time>
      </trkpt>
      <trkpt lat="49.20253" lon="6.97579">
        <ele>287</ele>
        <time>2012-01-22T10:08:56Z</time>
      </trkpt>
      <trkpt lat="49.20253" lon="6.97577">
        <ele>287</ele>
        <time>2012-01-22T10:08:57Z</time>
      </trkpt>
      <trkpt lat="49.20253" lon="6.97575">
        <ele>287</ele>
        <time>2012-01-22T10:08:58Z</time>
      </trkpt>
      <trkpt lat="49.20253" lon="6.97573">
        <ele>286</ele>
        <time>2012-01-22T10:08:59Z</time>
      </trkpt>
      <trkpt lat="49.20253" lon="6.97571">
        <ele>286</ele>
        <time>2012-01-22T10:09:00Z</time>
      </trkpt>
      <trkpt lat="49.20253" lon="6.97569">
        <ele>286</ele>
        <time>2012-01-22T10:09:01Z</time>
      </trkpt>
      <trkpt lat="49.20253" lon="6.97567">
        <ele>286</ele>
        <time>2012-01-22T10:09:02Z</time>
      </trkpt>
      <trkpt lat="49.20253" lon="6.97565">
        <ele>286</ele>
        <time>2012-01-22T10:09:03Z</time>
      </trkpt>
      <trkpt lat="49.20253" lon="6.97563">
        <ele>286</ele>
        <time>2012-01-22T10:09:04Z</time>
      </trkpt>
      <trkpt lat="49.20253" lon="6.97561">
        <ele>286</ele>
        <time>2012-01-22T10:09:05Z</time>
      </trkpt>
      <trkpt lat="49.20253" lon="6.97559">
        <ele>286</ele>
        <time>2012-01-22T10:09:06Z</time>
      </trkpt>
      <trkpt lat="49.20253" lon="6.97557">
        <ele>286</ele>
        <time>2012-01-22T10:09:07Z</time>
      </trkpt>
      <trkpt lat="49.20254" lon="6.97555">
        <ele>286</ele>
        <time>2012-01-22T10:09:08Z</time>
      </trkpt>
      <trkpt lat="49.20254" lon="6.97553">
        <ele>286</ele>
        <time>2012-01-22T10:09:09Z</time>
      </trkpt>
      <trkpt lat="49.20254" lon="6.97551">
        <ele>285</ele>
        <time>2012-01-22T10:09:10Z</time>
      </trkpt>
      <trkpt lat="49.20254" lon="6.97549">
        <ele>285</ele>
        <time>2012-01-22T10:09:11Z</time>
      </trkpt>
      <trkpt lat="49.20253" lon="6.97548">
        <ele>285</ele>
        <time>2012-01-22T10:09:12Z</time>
      </trkpt>
      <trkpt lat="49.20253" lon="6.97546">
        <ele>285</ele>
        <time>2012-01-22T10:09:13Z</time>
      </trkpt>
      <trkpt lat="49.20253" lon="6.97544">
        <ele>285</ele>
        <time>2012-01-22T10:09:14Z</time>
      </trkpt>
      <trkpt lat="49.20253" lon="6.97542">
        <ele>285</ele>
        <time>2012-01-22T10:09:15Z</time>
      </trkpt>
      <trkpt lat="49.20252" lon="6.9754">
        <ele>285</ele>
        <time>2012-01-22T10:09:16Z</time>
      </trkpt>
      <trkpt lat="49.20252" lon="6.97538">
        <ele>285</ele>
        <time>2012-01-22T10:09:17Z</time>
      </trkpt>
      <trkpt lat="49.20252" lon="6.97535">
        <ele>285</ele>
        <time>2012-01-22T10:09:18Z</time>
      </trkpt>
      <trkpt lat="49.20252" lon="6.9753">
        <ele>285</ele>
        <time>2012-01-22T10:09:19Z</time>
      </trkpt>
      <trkpt lat="49.20251" lon="6.97527">
        <ele>285</ele>
        <time>2012-01-22T10:09:20Z</time>
      </trkpt>
      <trkpt lat="49.20251" lon="6.97525">
        <ele>285</ele>
        <time>2012-01-22T10:09:21Z</time>
      </trkpt>
      <trkpt lat="49.20252" lon="6.97523">
        <ele>285</ele>
        <time>2012-01-22T10:09:22Z</time>
      </trkpt>
      <trkpt lat="49.20252" lon="6.97521">
        <ele>285</ele>
        <time>2012-01-22T10:09:23Z</time>
      </trkpt>
      <trkpt lat="49.20252" lon="6.97519">
        <ele>285</ele>
        <time>2012-01-22T10:09:24Z</time>
      </trkpt>
      <trkpt lat="49.20252" lon="6.97517">
        <ele>285</ele>
        <time>2012-01-22T10:09:25Z</time>
      </trkpt>
      <trkpt lat="49.20253" lon="6.97515">
        <ele>285</ele>
        <time>2012-01-22T10:09:26Z</time>
      </trkpt>
      <trkpt lat="49.20253" lon="6.97513">
        <ele>285</ele>
        <time>2012-01-22T10:09:27Z</time>
      </trkpt>
      <trkpt lat="49.20253" lon="6.9751">
        <ele>284</ele>
        <time>2012-01-22T10:09:29Z</time>
      </trkpt>
      <trkpt lat="49.20253" lon="6.97507">
        <ele>284</ele>
        <time>2012-01-22T10:09:31Z</time>
      </trkpt>
      <trkpt lat="49.20253" lon="6.97502">
        <ele>283</ele>
        <time>2012-01-22T10:09:32Z</time>
      </trkpt>
      <trkpt lat="49.20252" lon="6.975">
        <ele>283</ele>
        <time>2012-01-22T10:09:33Z</time>
      </trkpt>
      <trkpt lat="49.20252" lon="6.97498">
        <ele>283</ele>
        <time>2012-01-22T10:09:34Z</time>
      </trkpt>
      <trkpt lat="49.20252" lon="6.97496">
        <ele>283</ele>
        <time>2012-01-22T10:09:35Z</time>
      </trkpt>
      <trkpt lat="49.20252" lon="6.97494">
        <ele>283</ele>
        <time>2012-01-22T10:09:36Z</time>
      </trkpt>
      <trkpt lat="49.20252" lon="6.97492">
        <ele>282</ele>
        <time>2012-01-22T10:09:37Z</time>
      </trkpt>
      <trkpt lat="49.20252" lon="6.97491">
        <ele>282</ele>
        <time>2012-01-22T10:09:38Z</time>
      </trkpt>
      <trkpt lat="49.20252" lon="6.97489">
        <ele>281</ele>
        <time>2012-01-22T10:09:39Z</time>
      </trkpt>
      <trkpt lat="49.20252" lon="6.97485">
        <ele>281</ele>
        <time>2012-01-22T10:09:41Z</time>
      </trkpt>
      <trkpt lat="49.20252" lon="6.97482">
        <ele>280</ele>
        <time>2012-01-22T10:09:43Z</time>
      </trkpt>
      <trkpt lat="49.20252" lon="6.97479">
        <ele>280</ele>
        <time>2012-01-22T10:09:45Z</time>
      </trkpt>
      <trkpt lat="49.20253" lon="6.97477">
        <ele>279</ele>
        <time>2012-01-22T10:09:46Z</time>
      </trkpt>
      <trkpt lat="49.20253" lon="6.97476">
        <ele>279</ele>
        <time>2012-01-22T10:09:47Z</time>
      </trkpt>
      <trkpt lat="49.20254" lon="6.97474">
        <ele>278</ele>
        <time>2012-01-22T10:09:48Z</time>
      </trkpt>
      <trkpt lat="49.20253" lon="6.97471">
        <ele>277</ele>
        <time>2012-01-22T10:09:50Z</time>
      </trkpt>
      <trkpt lat="49.20253" lon="6.97469">
        <ele>277</ele>
        <time>2012-01-22T10:09:51Z</time>
      </trkpt>
      <trkpt lat="49.20253" lon="6.97466">
        <ele>276</ele>
        <time>2012-01-22T10:09:53Z</time>
      </trkpt>
      <trkpt lat="49.20253" lon="6.97463">
        <ele>275</ele>
        <time>2012-01-22T10:09:55Z</time>
      </trkpt>
      <trkpt lat="49.20253" lon="6.97461">
        <ele>274</ele>
        <time>2012-01-22T10:09:56Z</time>
      </trkpt>
      <trkpt lat="49.20253" lon="6.97459">
        <ele>273</ele>
        <time>2012-01-22T10:09:57Z</time>
      </trkpt>
      <trkpt lat="49.20253" lon="6.9745">
        <ele>272</ele>
        <time>2012-01-22T10:09:59Z</time>
      </trkpt>
      <trkpt lat="49.20253" lon="6.97447">
        <ele>272</ele>
        <time>2012-01-22T10:10:00Z</time>
      </trkpt>
      <trkpt lat="49.20252" lon="6.9744">
        <ele>272</ele>
        <time>2012-01-22T10:10:01Z</time>
      </trkpt>
      <trkpt lat="49.20253" lon="6.97437">
        <ele>272</ele>
        <time>2012-01-22T10:10:02Z</time>
      </trkpt>
      <trkpt lat="49.20252" lon="6.97432">
        <ele>272</ele>
        <time>2012-01-22T10:10:03Z</time>
      </trkpt>
      <trkpt lat="49.20252" lon="6.97429">
        <ele>272</ele>
        <time>2012-01-22T10:10:04Z</time>
      </trkpt>
      <trkpt lat="49.20251" lon="6.97425">
        <ele>272</ele>
        <time>2012-01-22T10:10:05Z</time>
      </trkpt>
      <trkpt lat="49.20251" lon="6.97422">
        <ele>272</ele>
        <time>2012-01-22T10:10:06Z</time>
      </trkpt>
      <trkpt lat="49.20252" lon="6.97421">
        <ele>273</ele>
        <time>2012-01-22T10:10:07Z</time>
      </trkpt>
      <trkpt lat="49.20252" lon="6.97417">
        <ele>273</ele>
        <time>2012-01-22T10:10:09Z</time>
      </trkpt>
      <trkpt lat="49.20252" lon="6.97416">
        <ele>273</ele>
        <time>2012-01-22T10:10:10Z</time>
      </trkpt>
      <trkpt lat="49.20252" lon="6.97414">
        <ele>273</ele>
        <time>2012-01-22T10:10:11Z</time>
      </trkpt>
      <trkpt lat="49.20252" lon="6.97412">
        <ele>273</ele>
        <time>2012-01-22T10:10:12Z</time>
      </trkpt>
      <trkpt lat="49.20252" lon="6.9741">
        <ele>273</ele>
        <time>2012-01-22T10:10:13Z</time>
      </trkpt>
      <trkpt lat="49.20252" lon="6.97408">
        <ele>273</ele>
        <time>2012-01-22T10:10:14Z</time>
      </trkpt>
      <trkpt lat="49.20251" lon="6.97406">
        <ele>273</ele>
        <time>2012-01-22T10:10:15Z</time>
      </trkpt>
      <trkpt lat="49.20251" lon="6.97404">
        <ele>273</ele>
        <time>2012-01-22T10:10:16Z</time>
      </trkpt>
      <trkpt lat="49.20252" lon="6.97402">
        <ele>273</ele>
        <time>2012-01-22T10:10:17Z</time>
      </trkpt>
      <trkpt lat="49.20252" lon="6.97399">
        <ele>273</ele>
        <time>2012-01-22T10:10:18Z</time>
      </trkpt>
      <trkpt lat="49.20252" lon="6.97397">
        <ele>273</ele>
        <time>2012-01-22T10:10:19Z</time>
      </trkpt>
      <trkpt lat="49.20252" lon="6.97395">
        <ele>273</ele>
        <time>2012-01-22T10:10:20Z</time>
      </trkpt>
      <trkpt lat="49.20252" lon="6.97394">
        <ele>273</ele>
        <time>2012-01-22T10:10:21Z</time>
      </trkpt>
      <trkpt lat="49.20251" lon="6.9739">
        <ele>273</ele>
        <time>2012-01-22T10:10:23Z</time>
      </trkpt>
      <trkpt lat="49.20251" lon="6.97388">
        <ele>273</ele>
        <time>2012-01-22T10:10:24Z</time>
      </trkpt>
      <trkpt lat="49.20251" lon="6.97386">
        <ele>273</ele>
        <time>2012-01-22T10:10:25Z</time>
      </trkpt>
      <trkpt lat="49.2025" lon="6.97382">
        <ele>273</ele>
        <time>2012-01-22T10:10:26Z</time>
      </trkpt>
      <trkpt lat="49.2025" lon="6.9738">
        <ele>273</ele>
        <time>2012-01-22T10:10:27Z</time>
      </trkpt>
      <trkpt lat="49.20251" lon="6.97378">
        <ele>273</ele>
        <time>2012-01-22T10:10:28Z</time>
      </trkpt>
      <trkpt lat="49.20251" lon="6.97372">
        <ele>273</ele>
        <time>2012-01-22T10:10:29Z</time>
      </trkpt>
      <trkpt lat="49.20251" lon="6.9737">
        <ele>273</ele>
        <time>2012-01-22T10:10:30Z</time>
      </trkpt>
      <trkpt lat="49.20252" lon="6.97368">
        <ele>273</ele>
        <time>2012-01-22T10:10:32Z</time>
      </trkpt>
      <trkpt lat="49.20251" lon="6.97366">
        <ele>273</ele>
        <time>2012-01-22T10:10:33Z</time>
      </trkpt>
      <trkpt lat="49.20251" lon="6.97364">
        <ele>273</ele>
        <time>2012-01-22T10:10:34Z</time>
      </trkpt>
      <trkpt lat="49.20251" lon="6.97361">
        <ele>273</ele>
        <time>2012-01-22T10:10:35Z</time>
      </trkpt>
      <trkpt lat="49.20251" lon="6.97359">
        <ele>273</ele>
        <time>2012-01-22T10:10:36Z</time>
      </trkpt>
      <trkpt lat="49.20251" lon="6.97356">
        <ele>273</ele>
        <time>2012-01-22T10:10:37Z</time>
      </trkpt>
      <trkpt lat="49.20251" lon="6.97353">
        <ele>274</ele>
        <time>2012-01-22T10:10:38Z</time>
      </trkpt>
      <trkpt lat="49.20251" lon="6.97351">
        <ele>274</ele>
        <time>2012-01-22T10:10:39Z</time>
      </trkpt>
      <trkpt lat="49.20252" lon="6.97349">
        <ele>274</ele>
        <time>2012-01-22T10:10:40Z</time>
      </trkpt>
      <trkpt lat="49.20252" lon="6.97347">
        <ele>274</ele>
        <time>2012-01-22T10:10:41Z</time>
      </trkpt>
      <trkpt lat="49.20252" lon="6.97344">
        <ele>275</ele>
        <time>2012-01-22T10:10:43Z</time>
      </trkpt>
      <trkpt lat="49.20253" lon="6.97343">
        <ele>276</ele>
        <time>2012-01-22T10:10:44Z</time>
      </trkpt>
      <trkpt lat="49.20252" lon="6.97341">
        <ele>276</ele>
        <time>2012-01-22T10:10:45Z</time>
      </trkpt>
      <trkpt lat="49.20252" lon="6.97339">
        <ele>276</ele>
        <time>2012-01-22T10:10:46Z</time>
      </trkpt>
      <trkpt lat="49.20253" lon="6.97335">
        <ele>277</ele>
        <time>2012-01-22T10:10:48Z</time>
      </trkpt>
      <trkpt lat="49.20252" lon="6.9733">
        <ele>277</ele>
        <time>2012-01-22T10:10:49Z</time>
      </trkpt>
      <trkpt lat="49.20251" lon="6.97327">
        <ele>278</ele>
        <time>2012-01-22T10:10:50Z</time>
      </trkpt>
      <trkpt lat="49.20251" lon="6.97325">
        <ele>278</ele>
        <time>2012-01-22T10:10:51Z</time>
      </trkpt>
      <trkpt lat="49.2025" lon="6.97323">
        <ele>279</ele>
        <time>2012-01-22T10:10:52Z</time>
      </trkpt>
      <trkpt lat="49.2025" lon="6.97318">
        <ele>280</ele>
        <time>2012-01-22T10:10:53Z</time>
      </trkpt>
      <trkpt lat="49.2025" lon="6.97316">
        <ele>281</ele>
        <time>2012-01-22T10:10:54Z</time>
      </trkpt>
      <trkpt lat="49.2025" lon="6.97314">
        <ele>281</ele>
        <time>2012-01-22T10:10:55Z</time>
      </trkpt>
      <trkpt lat="49.2025" lon="6.97312">
        <ele>281</ele>
        <time>2012-01-22T10:10:56Z</time>
      </trkpt>
      <trkpt lat="49.20249" lon="6.97307">
        <ele>282</ele>
        <time>2012-01-22T10:10:57Z</time>
      </trkpt>
      <trkpt lat="49.20249" lon="6.97305">
        <ele>282</ele>
        <time>2012-01-22T10:10:58Z</time>
      </trkpt>
      <trkpt lat="49.20249" lon="6.97303">
        <ele>282</ele>
        <time>2012-01-22T10:10:59Z</time>
      </trkpt>
      <trkpt lat="49.20249" lon="6.97302">
        <ele>282</ele>
        <time>2012-01-22T10:11:00Z</time>
      </trkpt>
      <trkpt lat="49.20249" lon="6.973">
        <ele>283</ele>
        <time>2012-01-22T10:11:01Z</time>
      </trkpt>
      <trkpt lat="49.20249" lon="6.97294">
        <ele>283</ele>
        <time>2012-01-22T10:11:03Z</time>
      </trkpt>
      <trkpt lat="49.20248" lon="6.97288">
        <ele>284</ele>
        <time>2012-01-22T10:11:05Z</time>
      </trkpt>
      <trkpt lat="49.20248" lon="6.97286">
        <ele>284</ele>
        <time>2012-01-22T10:11:06Z</time>
      </trkpt>
      <trkpt lat="49.20248" lon="6.97285">
        <ele>284</ele>
        <time>2012-01-22T10:11:07Z</time>
      </trkpt>
      <trkpt lat="49.20249" lon="6.97282">
        <ele>284</ele>
        <time>2012-01-22T10:11:09Z</time>
      </trkpt>
      <trkpt lat="49.20249" lon="6.9728">
        <ele>284</ele>
        <time>2012-01-22T10:11:10Z</time>
      </trkpt>
      <trkpt lat="49.20249" lon="6.97278">
        <ele>284</ele>
        <time>2012-01-22T10:11:11Z</time>
      </trkpt>
      <trkpt lat="49.20249" lon="6.97276">
        <ele>284</ele>
        <time>2012-01-22T10:11:12Z</time>
      </trkpt>
      <trkpt lat="49.20249" lon="6.97274">
        <ele>284</ele>
        <time>2012-01-22T10:11:13Z</time>
      </trkpt>
      <trkpt lat="49.20249" lon="6.97272">
        <ele>284</ele>
        <time>2012-01-22T10:11:14Z</time>
      </trkpt>
      <trkpt lat="49.2025" lon="6.97269">
        <ele>284</ele>
        <time>2012-01-22T10:11:16Z</time>
      </trkpt>
      <trkpt lat="49.2025" lon="6.97267">
        <ele>284</ele>
        <time>2012-01-22T10:11:17Z</time>
      </trkpt>
      <trkpt lat="49.2025" lon="6.97265">
        <ele>284</ele>
        <time>2012-01-22T10:11:18Z</time>
      </trkpt>
      <trkpt lat="49.2025" lon="6.97263">
        <ele>284</ele>
        <time>2012-01-22T10:11:19Z</time>
      </trkpt>
      <trkpt lat="49.2025" lon="6.97261">
        <ele>284</ele>
        <time>2012-01-22T10:11:21Z</time>
      </trkpt>
      <trkpt lat="49.2025" lon="6.97259">
        <ele>284</ele>
        <time>2012-01-22T10:11:22Z</time>
      </trkpt>
      <trkpt lat="49.2025" lon="6.97256">
        <ele>284</ele>
        <time>2012-01-22T10:11:24Z</time>
      </trkpt>
      <trkpt lat="49.20249" lon="6.97254">
        <ele>284</ele>
        <time>2012-01-22T10:11:25Z</time>
      </trkpt>
      <trkpt lat="49.20249" lon="6.97251">
        <ele>284</ele>
        <time>2012-01-22T10:11:26Z</time>
      </trkpt>
      <trkpt lat="49.20248" lon="6.97247">
        <ele>284</ele>
        <time>2012-01-22T10:11:27Z</time>
      </trkpt>
      <trkpt lat="49.20248" lon="6.97245">
        <ele>284</ele>
        <time>2012-01-22T10:11:28Z</time>
      </trkpt>
      <trkpt lat="49.20248" lon="6.97243">
        <ele>284</ele>
        <time>2012-01-22T10:11:29Z</time>
      </trkpt>
      <trkpt lat="49.20248" lon="6.9724">
        <ele>284</ele>
        <time>2012-01-22T10:11:30Z</time>
      </trkpt>
      <trkpt lat="49.20247" lon="6.97238">
        <ele>285</ele>
        <time>2012-01-22T10:11:31Z</time>
      </trkpt>
      <trkpt lat="49.20247" lon="6.97235">
        <ele>286</ele>
        <time>2012-01-22T10:11:32Z</time>
      </trkpt>
      <trkpt lat="49.20247" lon="6.97232">
        <ele>286</ele>
        <time>2012-01-22T10:11:34Z</time>
      </trkpt>
      <trkpt lat="49.20247" lon="6.97226">
        <ele>286</ele>
        <time>2012-01-22T10:11:35Z</time>
      </trkpt>
      <trkpt lat="49.20247" lon="6.97224">
        <ele>287</ele>
        <time>2012-01-22T10:11:36Z</time>
      </trkpt>
      <trkpt lat="49.20247" lon="6.97219">
        <ele>287</ele>
        <time>2012-01-22T10:11:37Z</time>
      </trkpt>
      <trkpt lat="49.20247" lon="6.97217">
        <ele>288</ele>
        <time>2012-01-22T10:11:38Z</time>
      </trkpt>
      <trkpt lat="49.20247" lon="6.97215">
        <ele>288</ele>
        <time>2012-01-22T10:11:39Z</time>
      </trkpt>
      <trkpt lat="49.20247" lon="6.97213">
        <ele>288</ele>
        <time>2012-01-22T10:11:40Z</time>
      </trkpt>
      <trkpt lat="49.20247" lon="6.97212">
        <ele>288</ele>
        <time>2012-01-22T10:11:41Z</time>
      </trkpt>
      <trkpt lat="49.20247" lon="6.9721">
        <ele>288</ele>
        <time>2012-01-22T10:11:42Z</time>
      </trkpt>
      <trkpt lat="49.20248" lon="6.97208">
        <ele>288</ele>
        <time>2012-01-22T10:11:43Z</time>
      </trkpt>
      <trkpt lat="49.20248" lon="6.97206">
        <ele>288</ele>
        <time>2012-01-22T10:11:44Z</time>
      </trkpt>
      <trkpt lat="49.20248" lon="6.97204">
        <ele>288</ele>
        <time>2012-01-22T10:11:45Z</time>
      </trkpt>
      <trkpt lat="49.20248" lon="6.97202">
        <ele>288</ele>
        <time>2012-01-22T10:11:46Z</time>
      </trkpt>
      <trkpt lat="49.20248" lon="6.97199">
        <ele>288</ele>
        <time>2012-01-22T10:11:48Z</time>
      </trkpt>
      <trkpt lat="49.20248" lon="6.97197">
        <ele>288</ele>
        <time>2012-01-22T10:11:49Z</time>
      </trkpt>
      <trkpt lat="49.20248" lon="6.97194">
        <ele>288</ele>
        <time>2012-01-22T10:11:50Z</time>
      </trkpt>
      <trkpt lat="49.20248" lon="6.9719">
        <ele>288</ele>
        <time>2012-01-22T10:11:51Z</time>
      </trkpt>
      <trkpt lat="49.20248" lon="6.97188">
        <ele>288</ele>
        <time>2012-01-22T10:11:52Z</time>
      </trkpt>
      <trkpt lat="49.20248" lon="6.97185">
        <ele>288</ele>
        <time>2012-01-22T10:11:54Z</time>
      </trkpt>
      <trkpt lat="49.20248" lon="6.97183">
        <ele>288</ele>
        <time>2012-01-22T10:11:55Z</time>
      </trkpt>
      <trkpt lat="49.20248" lon="6.97181">
        <ele>288</ele>
        <time>2012-01-22T10:11:56Z</time>
      </trkpt>
      <trkpt lat="49.20247" lon="6.97177">
        <ele>288</ele>
        <time>2012-01-22T10:11:58Z</time>
      </trkpt>
      <trkpt lat="49.20247" lon="6.97173">
        <ele>288</ele>
        <time>2012-01-22T10:11:59Z</time>
      </trkpt>
      <trkpt lat="49.20247" lon="6.97171">
        <ele>288</ele>
        <time>2012-01-22T10:12:00Z</time>
      </trkpt>
      <trkpt lat="49.20246" lon="6.97169">
        <ele>288</ele>
        <time>2012-01-22T10:12:01Z</time>
      </trkpt>
      <trkpt lat="49.20246" lon="6.97166">
        <ele>288</ele>
        <time>2012-01-22T10:12:02Z</time>
      </trkpt>
      <trkpt lat="49.20245" lon="6.97163">
        <ele>288</ele>
        <time>2012-01-22T10:12:03Z</time>
      </trkpt>
      <trkpt lat="49.20245" lon="6.97161">
        <ele>288</ele>
        <time>2012-01-22T10:12:04Z</time>
      </trkpt>
      <trkpt lat="49.20245" lon="6.97159">
        <ele>288</ele>
        <time>2012-01-22T10:12:05Z</time>
      </trkpt>
      <trkpt lat="49.20246" lon="6.97156">
        <ele>288</ele>
        <time>2012-01-22T10:12:07Z</time>
      </trkpt>
      <trkpt lat="49.20246" lon="6.97155">
        <ele>288</ele>
        <time>2012-01-22T10:12:08Z</time>
      </trkpt>
      <trkpt lat="49.20247" lon="6.97152">
        <ele>288</ele>
        <time>2012-01-22T10:12:10Z</time>
      </trkpt>
      <trkpt lat="49.20247" lon="6.97149">
        <ele>287</ele>
        <time>2012-01-22T10:12:12Z</time>
      </trkpt>
      <trkpt lat="49.20247" lon="6.97147">
        <ele>286</ele>
        <time>2012-01-22T10:12:13Z</time>
      </trkpt>
      <trkpt lat="49.20247" lon="6.97145">
        <ele>286</ele>
        <time>2012-01-22T10:12:14Z</time>
      </trkpt>
      <trkpt lat="49.20248" lon="6.97143">
        <ele>285</ele>
        <time>2012-01-22T10:12:16Z</time>
      </trkpt>
      <trkpt lat="49.20248" lon="6.9714">
        <ele>284</ele>
        <time>2012-01-22T10:12:18Z</time>
      </trkpt>
      <trkpt lat="49.20248" lon="6.97138">
        <ele>283</ele>
        <time>2012-01-22T10:12:19Z</time>
      </trkpt>
      <trkpt lat="49.20248" lon="6.97136">
        <ele>283</ele>
        <time>2012-01-22T10:12:20Z</time>
      </trkpt>
      <trkpt lat="49.20248" lon="6.97134">
        <ele>283</ele>
        <time>2012-01-22T10:12:21Z</time>
      </trkpt>
      <trkpt lat="49.20248" lon="6.97132">
        <ele>283</ele>
        <time>2012-01-22T10:12:22Z</time>
      </trkpt>
      <trkpt lat="49.20248" lon="6.97131">
        <ele>283</ele>
        <time>2012-01-22T10:12:23Z</time>
      </trkpt>
      <trkpt lat="49.20248" lon="6.97129">
        <ele>282</ele>
        <time>2012-01-22T10:12:24Z</time>
      </trkpt>
      <trkpt lat="49.20248" lon="6.97126">
        <ele>282</ele>
        <time>2012-01-22T10:12:25Z</time>
      </trkpt>
      <trkpt lat="49.20248" lon="6.97123">
        <ele>281</ele>
        <time>2012-01-22T10:12:26Z</time>
      </trkpt>
      <trkpt lat="49.20248" lon="6.97117">
        <ele>281</ele>
        <time>2012-01-22T10:12:27Z</time>
      </trkpt>
      <trkpt lat="49.20248" lon="6.97115">
        <ele>281</ele>
        <time>2012-01-22T10:12:28Z</time>
      </trkpt>
      <trkpt lat="49.20248" lon="6.97112">
        <ele>281</ele>
        <time>2012-01-22T10:12:29Z</time>
      </trkpt>
      <trkpt lat="49.20249" lon="6.9711">
        <ele>280</ele>
        <time>2012-01-22T10:12:30Z</time>
      </trkpt>
      <trkpt lat="49.20248" lon="6.97108">
        <ele>280</ele>
        <time>2012-01-22T10:12:31Z</time>
      </trkpt>
      <trkpt lat="49.20249" lon="6.97106">
        <ele>280</ele>
        <time>2012-01-22T10:12:32Z</time>
      </trkpt>
      <trkpt lat="49.20249" lon="6.97104">
        <ele>280</ele>
        <time>2012-01-22T10:12:33Z</time>
      </trkpt>
      <trkpt lat="49.20249" lon="6.97101">
        <ele>280</ele>
        <time>2012-01-22T10:12:35Z</time>
      </trkpt>
      <trkpt lat="49.20249" lon="6.97097">
        <ele>280</ele>
        <time>2012-01-22T10:12:37Z</time>
      </trkpt>
      <trkpt lat="49.20249" lon="6.97095">
        <ele>280</ele>
        <time>2012-01-22T10:12:38Z</time>
      </trkpt>
      <trkpt lat="49.20249" lon="6.97093">
        <ele>280</ele>
        <time>2012-01-22T10:12:39Z</time>
      </trkpt>
      <trkpt lat="49.20249" lon="6.97091">
        <ele>280</ele>
        <time>2012-01-22T10:12:40Z</time>
      </trkpt>
      <trkpt lat="49.20248" lon="6.97089">
        <ele>280</ele>
        <time>2012-01-22T10:12:41Z</time>
      </trkpt>
      <trkpt lat="49.20248" lon="6.97086">
        <ele>280</ele>
        <time>2012-01-22T10:12:43Z</time>
      </trkpt>
      <trkpt lat="49.20248" lon="6.97082">
        <ele>280</ele>
        <time>2012-01-22T10:12:45Z</time>
      </trkpt>
      <trkpt lat="49.20248" lon="6.9708">
        <ele>280</ele>
        <time>2012-01-22T10:12:46Z</time>
      </trkpt>
      <trkpt lat="49.20248" lon="6.97079">
        <ele>280</ele>
        <time>2012-01-22T10:12:47Z</time>
      </trkpt>
      <trkpt lat="49.20247" lon="6.97077">
        <ele>280</ele>
        <time>2012-01-22T10:12:48Z</time>
      </trkpt>
      <trkpt lat="49.20247" lon="6.97075">
        <ele>280</ele>
        <time>2012-01-22T10:12:49Z</time>
      </trkpt>
      <trkpt lat="49.20247" lon="6.97073">
        <ele>279</ele>
        <time>2012-01-22T10:12:50Z</time>
      </trkpt>
      <trkpt lat="49.20247" lon="6.97071">
        <ele>279</ele>
        <time>2012-01-22T10:12:51Z</time>
      </trkpt>
      <trkpt lat="49.20247" lon="6.97069">
        <ele>279</ele>
        <time>2012-01-22T10:12:52Z</time>
      </trkpt>
      <trkpt lat="49.20247" lon="6.97067">
        <ele>278</ele>
        <time>2012-01-22T10:12:53Z</time>
      </trkpt>
      <trkpt lat="49.20247" lon="6.97065">
        <ele>278</ele>
        <time>2012-01-22T10:12:54Z</time>
      </trkpt>
      <trkpt lat="49.20248" lon="6.97063">
        <ele>278</ele>
        <time>2012-01-22T10:12:55Z</time>
      </trkpt>
      <trkpt lat="49.20248" lon="6.97061">
        <ele>277</ele>
        <time>2012-01-22T10:12:56Z</time>
      </trkpt>
      <trkpt lat="49.20248" lon="6.97059">
        <ele>277</ele>
        <time>2012-01-22T10:12:57Z</time>
      </trkpt>
      <trkpt lat="49.20248" lon="6.97057">
        <ele>277</ele>
        <time>2012-01-22T10:12:58Z</time>
      </trkpt>
      <trkpt lat="49.20248" lon="6.97055">
        <ele>277</ele>
        <time>2012-01-22T10:12:59Z</time>
      </trkpt>
      <trkpt lat="49.20248" lon="6.97053">
        <ele>277</ele>
        <time>2012-01-22T10:13:00Z</time>
      </trkpt>
      <trkpt lat="49.20248" lon="6.97051">
        <ele>277</ele>
        <time>2012-01-22T10:13:01Z</time>
      </trkpt>
      <trkpt lat="49.20248" lon="6.97049">
        <ele>277</ele>
        <time>2012-01-22T10:13:02Z</time>
      </trkpt>
      <trkpt lat="49.20249" lon="6.97045">
        <ele>277</ele>
        <time>2012-01-22T10:13:04Z</time>
      </trkpt>
      <trkpt lat="49.20249" lon="6.97044">
        <ele>276</ele>
        <time>2012-01-22T10:13:05Z</time>
      </trkpt>
      <trkpt lat="49.20249" lon="6.97041">
        <ele>276</ele>
        <time>2012-01-22T10:13:06Z</time>
      </trkpt>
      <trkpt lat="49.2025" lon="6.97033">
        <ele>276</ele>
        <time>2012-01-22T10:13:07Z</time>
      </trkpt>
      <trkpt lat="49.2025" lon="6.9703">
        <ele>276</ele>
        <time>2012-01-22T10:13:08Z</time>
      </trkpt>
      <trkpt lat="49.2025" lon="6.97027">
        <ele>276</ele>
        <time>2012-01-22T10:13:09Z</time>
      </trkpt>
      <trkpt lat="49.2025" lon="6.97019">
        <ele>276</ele>
        <time>2012-01-22T10:13:10Z</time>
      </trkpt>
      <trkpt lat="49.2025" lon="6.97016">
        <ele>276</ele>
        <time>2012-01-22T10:13:11Z</time>
      </trkpt>
      <trkpt lat="49.2025" lon="6.97013">
        <ele>276</ele>
        <time>2012-01-22T10:13:12Z</time>
      </trkpt>
      <trkpt lat="49.2025" lon="6.9701">
        <ele>276</ele>
        <time>2012-01-22T10:13:13Z</time>
      </trkpt>
      <trkpt lat="49.2025" lon="6.97007">
        <ele>276</ele>
        <time>2012-01-22T10:13:14Z</time>
      </trkpt>
      <trkpt lat="49.2025" lon="6.97004">
        <ele>276</ele>
        <time>2012-01-22T10:13:15Z</time>
      </trkpt>
      <trkpt lat="49.2025" lon="6.97001">
        <ele>277</ele>
        <time>2012-01-22T10:13:16Z</time>
      </trkpt>
      <trkpt lat="49.2025" lon="6.96997">
        <ele>277</ele>
        <time>2012-01-22T10:13:17Z</time>
      </trkpt>
      <trkpt lat="49.2025" lon="6.96993">
        <ele>278</ele>
        <time>2012-01-22T10:13:18Z</time>
      </trkpt>
      <trkpt lat="49.2025" lon="6.96989">
        <ele>279</ele>
        <time>2012-01-22T10:13:19Z</time>
      </trkpt>
      <trkpt lat="49.2025" lon="6.96985">
        <ele>279</ele>
        <time>2012-01-22T10:13:20Z</time>
      </trkpt>
      <trkpt lat="49.2025" lon="6.9698">
        <ele>280</ele>
        <time>2012-01-22T10:13:21Z</time>
      </trkpt>
      <trkpt lat="49.2025" lon="6.96977">
        <ele>281</ele>
        <time>2012-01-22T10:13:22Z</time>
      </trkpt>
      <trkpt lat="49.2025" lon="6.96973">
        <ele>282</ele>
        <time>2012-01-22T10:13:23Z</time>
      </trkpt>
      <trkpt lat="49.2025" lon="6.9697">
        <ele>282</ele>
        <time>2012-01-22T10:13:24Z</time>
      </trkpt>
      <trkpt lat="49.2025" lon="6.96966">
        <ele>283</ele>
        <time>2012-01-22T10:13:25Z</time>
      </trkpt>
      <trkpt lat="49.2025" lon="6.96962">
        <ele>284</ele>
        <time>2012-01-22T10:13:26Z</time>
      </trkpt>
      <trkpt lat="49.2025" lon="6.96958">
        <ele>285</ele>
        <time>2012-01-22T10:13:27Z</time>
      </trkpt>
      <trkpt lat="49.2025" lon="6.96955">
        <ele>286</ele>
        <time>2012-01-22T10:13:28Z</time>
      </trkpt>
      <trkpt lat="49.2025" lon="6.96952">
        <ele>287</ele>
        <time>2012-01-22T10:13:29Z</time>
      </trkpt>
      <trkpt lat="49.2025" lon="6.96947">
        <ele>288</ele>
        <time>2012-01-22T10:13:30Z</time>
      </trkpt>
      <trkpt lat="49.2025" lon="6.96945">
        <ele>289</ele>
        <time>2012-01-22T10:13:31Z</time>
      </trkpt>
      <trkpt lat="49.2025" lon="6.96942">
        <ele>290</ele>
        <time>2012-01-22T10:13:32Z</time>
      </trkpt>
      <trkpt lat="49.2025" lon="6.96937">
        <ele>291</ele>
        <time>2012-01-22T10:13:33Z</time>
      </trkpt>
      <trkpt lat="49.2025" lon="6.96932">
        <ele>292</ele>
        <time>2012-01-22T10:13:34Z</time>
      </trkpt>
      <trkpt lat="49.20251" lon="6.96929">
        <ele>293</ele>
        <time>2012-01-22T10:13:35Z</time>
      </trkpt>
      <trkpt lat="49.20251" lon="6.96925">
        <ele>294</ele>
        <time>2012-01-22T10:13:36Z</time>
      </trkpt>
      <trkpt lat="49.20251" lon="6.96922">
        <ele>295</ele>
        <time>2012-01-22T10:13:37Z</time>
      </trkpt>
      <trkpt lat="49.20251" lon="6.9692">
        <ele>296</ele>
        <time>2012-01-22T10:13:38Z</time>
      </trkpt>
      <trkpt lat="49.20251" lon="6.96917">
        <ele>297</ele>
        <time>2012-01-22T10:13:39Z</time>
      </trkpt>
      <trkpt lat="49.20252" lon="6.96914">
        <ele>298</ele>
        <time>2012-01-22T10:13:40Z</time>
      </trkpt>
      <trkpt lat="49.20252" lon="6.96911">
        <ele>299</ele>
        <time>2012-01-22T10:13:41Z</time>
      </trkpt>
      <trkpt lat="49.20252" lon="6.96909">
        <ele>300</ele>
        <time>2012-01-22T10:13:42Z</time>
      </trkpt>
      <trkpt lat="49.20252" lon="6.96907">
        <ele>300</ele>
        <time>2012-01-22T10:13:43Z</time>
      </trkpt>
      <trkpt lat="49.20252" lon="6.96904">
        <ele>300</ele>
        <time>2012-01-22T10:13:44Z</time>
      </trkpt>
      <trkpt lat="49.20253" lon="6.96902">
        <ele>300</ele>
        <time>2012-01-22T10:13:45Z</time>
      </trkpt>
      <trkpt lat="49.20253" lon="6.96899">
        <ele>300</ele>
        <time>2012-01-22T10:13:46Z</time>
      </trkpt>
      <trkpt lat="49.20253" lon="6.96897">
        <ele>300</ele>
        <time>2012-01-22T10:13:47Z</time>
      </trkpt>
      <trkpt lat="49.20253" lon="6.96894">
        <ele>301</ele>
        <time>2012-01-22T10:13:48Z</time>
      </trkpt>
      <trkpt lat="49.20253" lon="6.96891">
        <ele>301</ele>
        <time>2012-01-22T10:13:49Z</time>
      </trkpt>
      <trkpt lat="49.20254" lon="6.96889">
        <ele>301</ele>
        <time>2012-01-22T10:13:50Z</time>
      </trkpt>
      <trkpt lat="49.20254" lon="6.96887">
        <ele>301</ele>
        <time>2012-01-22T10:13:51Z</time>
      </trkpt>
      <trkpt lat="49.20255" lon="6.96884">
        <ele>301</ele>
        <time>2012-01-22T10:13:52Z</time>
      </trkpt>
      <trkpt lat="49.20255" lon="6.96882">
        <ele>301</ele>
        <time>2012-01-22T10:13:53Z</time>
      </trkpt>
      <trkpt lat="49.20255" lon="6.96879">
        <ele>301</ele>
        <time>2012-01-22T10:13:54Z</time>
      </trkpt>
      <trkpt lat="49.20255" lon="6.96877">
        <ele>302</ele>
        <time>2012-01-22T10:13:55Z</time>
      </trkpt>
      <trkpt lat="49.20255" lon="6.96875">
        <ele>302</ele>
        <time>2012-01-22T10:13:56Z</time>
      </trkpt>
      <trkpt lat="49.20255" lon="6.96872">
        <ele>302</ele>
        <time>2012-01-22T10:13:57Z</time>
      </trkpt>
      <trkpt lat="49.20255" lon="6.9687">
        <ele>302</ele>
        <time>2012-01-22T10:13:58Z</time>
      </trkpt>
      <trkpt lat="49.20256" lon="6.96867">
        <ele>302</ele>
        <time>2012-01-22T10:13:59Z</time>
      </trkpt>
      <trkpt lat="49.20256" lon="6.96865">
        <ele>302</ele>
        <time>2012-01-22T10:14:00Z</time>
      </trkpt>
      <trkpt lat="49.20256" lon="6.96862">
        <ele>302</ele>
        <time>2012-01-22T10:14:01Z</time>
      </trkpt>
      <trkpt lat="49.20256" lon="6.96859">
        <ele>302</ele>
        <time>2012-01-22T10:14:02Z</time>
      </trkpt>
      <trkpt lat="49.20256" lon="6.96856">
        <ele>302</ele>
        <time>2012-01-22T10:14:03Z</time>
      </trkpt>
      <trkpt lat="49.20256" lon="6.96854">
        <ele>303</ele>
        <time>2012-01-22T10:14:04Z</time>
      </trkpt>
      <trkpt lat="49.20256" lon="6.96852">
        <ele>304</ele>
        <time>2012-01-22T10:14:05Z</time>
      </trkpt>
      <trkpt lat="49.20256" lon="6.9685">
        <ele>304</ele>
        <time>2012-01-22T10:14:06Z</time>
      </trkpt>
      <trkpt lat="49.20256" lon="6.96847">
        <ele>304</ele>
        <time>2012-01-22T10:14:07Z</time>
      </trkpt>
      <trkpt lat="49.20256" lon="6.96845">
        <ele>305</ele>
        <time>2012-01-22T10:14:08Z</time>
      </trkpt>
      <trkpt lat="49.20256" lon="6.9684">
        <ele>305</ele>
        <time>2012-01-22T10:14:09Z</time>
      </trkpt>
      <trkpt lat="49.20255" lon="6.96836">
        <ele>306</ele>
        <time>2012-01-22T10:14:10Z</time>
      </trkpt>
      <trkpt lat="49.20255" lon="6.96833">
        <ele>307</ele>
        <time>2012-01-22T10:14:11Z</time>
      </trkpt>
      <trkpt lat="49.20255" lon="6.96831">
        <ele>308</ele>
        <time>2012-01-22T10:14:12Z</time>
      </trkpt>
      <trkpt lat="49.20255" lon="6.96829">
        <ele>309</ele>
        <time>2012-01-22T10:14:13Z</time>
      </trkpt>
      <trkpt lat="49.20256" lon="6.96826">
        <ele>309</ele>
        <time>2012-01-22T10:14:14Z</time>
      </trkpt>
      <trkpt lat="49.20256" lon="6.96824">
        <ele>310</ele>
        <time>2012-01-22T10:14:15Z</time>
      </trkpt>
      <trkpt lat="49.20256" lon="6.96822">
        <ele>310</ele>
        <time>2012-01-22T10:14:16Z</time>
      </trkpt>
      <trkpt lat="49.20255" lon="6.96818">
        <ele>310</ele>
        <time>2012-01-22T10:14:17Z</time>
      </trkpt>
      <trkpt lat="49.20255" lon="6.96817">
        <ele>310</ele>
        <time>2012-01-22T10:14:18Z</time>
      </trkpt>
      <trkpt lat="49.20253" lon="6.96814">
        <ele>310</ele>
        <time>2012-01-22T10:14:20Z</time>
      </trkpt>
      <trkpt lat="49.20251" lon="6.96813">
        <ele>311</ele>
        <time>2012-01-22T10:14:21Z</time>
      </trkpt>
      <trkpt lat="49.2025" lon="6.96812">
        <ele>311</ele>
        <time>2012-01-22T10:14:22Z</time>
      </trkpt>
      <trkpt lat="49.20248" lon="6.9681">
        <ele>311</ele>
        <time>2012-01-22T10:14:23Z</time>
      </trkpt>
      <trkpt lat="49.20247" lon="6.96809">
        <ele>312</ele>
        <time>2012-01-22T10:14:24Z</time>
      </trkpt>
      <trkpt lat="49.20246" lon="6.96808">
        <ele>312</ele>
        <time>2012-01-22T10:14:25Z</time>
      </trkpt>
      <trkpt lat="49.20244" lon="6.96807">
        <ele>312</ele>
        <time>2012-01-22T10:14:26Z</time>
      </trkpt>
      <trkpt lat="49.20243" lon="6.96806">
        <ele>313</ele>
        <time>2012-01-22T10:14:27Z</time>
      </trkpt>
      <trkpt lat="49.20241" lon="6.96805">
        <ele>313</ele>
        <time>2012-01-22T10:14:28Z</time>
      </trkpt>
      <trkpt lat="49.2024" lon="6.96805">
        <ele>313</ele>
        <time>2012-01-22T10:14:29Z</time>
      </trkpt>
      <trkpt lat="49.20239" lon="6.96804">
        <ele>313</ele>
        <time>2012-01-22T10:14:30Z</time>
      </trkpt>
      <trkpt lat="49.20237" lon="6.96803">
        <ele>314</ele>
        <time>2012-01-22T10:14:32Z</time>
      </trkpt>
      <trkpt lat="49.20236" lon="6.96802">
        <ele>314</ele>
        <time>2012-01-22T10:14:33Z</time>
      </trkpt>
      <trkpt lat="49.20235" lon="6.96802">
        <ele>314</ele>
        <time>2012-01-22T10:14:34Z</time>
      </trkpt>
      <trkpt lat="49.20234" lon="6.96801">
        <ele>314</ele>
        <time>2012-01-22T10:14:35Z</time>
      </trkpt>
      <trkpt lat="49.20232" lon="6.968">
        <ele>314</ele>
        <time>2012-01-22T10:14:36Z</time>
      </trkpt>
      <trkpt lat="49.2023" lon="6.96799">
        <ele>314</ele>
        <time>2012-01-22T10:14:38Z</time>
      </trkpt>
      <trkpt lat="49.20229" lon="6.96799">
        <ele>314</ele>
        <time>2012-01-22T10:14:39Z</time>
      </trkpt>
      <trkpt lat="49.20228" lon="6.96798">
        <ele>314</ele>
        <time>2012-01-22T10:14:40Z</time>
      </trkpt>
      <trkpt lat="49.20227" lon="6.96797">
        <ele>314</ele>
        <time>2012-01-22T10:14:41Z</time>
      </trkpt>
      <trkpt lat="49.20225" lon="6.96796">
        <ele>314</ele>
        <time>2012-01-22T10:14:42Z</time>
      </trkpt>
      <trkpt lat="49.20224" lon="6.96796">
        <ele>314</ele>
        <time>2012-01-22T10:14:43Z</time>
      </trkpt>
      <trkpt lat="49.20223" lon="6.96795">
        <ele>314</ele>
        <time>2012-01-22T10:14:44Z</time>
      </trkpt>
      <trkpt lat="49.20221" lon="6.96794">
        <ele>314</ele>
        <time>2012-01-22T10:14:45Z</time>
      </trkpt>
      <trkpt lat="49.2022" lon="6.96794">
        <ele>315</ele>
        <time>2012-01-22T10:14:46Z</time>
      </trkpt>
      <trkpt lat="49.20219" lon="6.96793">
        <ele>315</ele>
        <time>2012-01-22T10:14:47Z</time>
      </trkpt>
      <trkpt lat="49.20218" lon="6.96792">
        <ele>315</ele>
        <time>2012-01-22T10:14:48Z</time>
      </trkpt>
      <trkpt lat="49.20216" lon="6.96792">
        <ele>315</ele>
        <time>2012-01-22T10:14:49Z</time>
      </trkpt>
      <trkpt lat="49.20215" lon="6.96791">
        <ele>315</ele>
        <time>2012-01-22T10:14:50Z</time>
      </trkpt>
      <trkpt lat="49.20214" lon="6.9679">
        <ele>315</ele>
        <time>2012-01-22T10:14:51Z</time>
      </trkpt>
      <trkpt lat="49.20213" lon="6.96789">
        <ele>315</ele>
        <time>2012-01-22T10:14:52Z</time>
      </trkpt>
      <trkpt lat="49.20211" lon="6.96789">
        <ele>315</ele>
        <time>2012-01-22T10:14:53Z</time>
      </trkpt>
      <trkpt lat="49.2021" lon="6.96788">
        <ele>315</ele>
        <time>2012-01-22T10:14:54Z</time>
      </trkpt>
      <trkpt lat="49.20208" lon="6.96787">
        <ele>315</ele>
        <time>2012-01-22T10:14:55Z</time>
      </trkpt>
      <trkpt lat="49.20207" lon="6.96787">
        <ele>315</ele>
        <time>2012-01-22T10:14:56Z</time>
      </trkpt>
      <trkpt lat="49.20206" lon="6.96786">
        <ele>315</ele>
        <time>2012-01-22T10:14:57Z</time>
      </trkpt>
      <trkpt lat="49.20205" lon="6.96785">
        <ele>315</ele>
        <time>2012-01-22T10:14:58Z</time>
      </trkpt>
      <trkpt lat="49.20204" lon="6.96785">
        <ele>315</ele>
        <time>2012-01-22T10:14:59Z</time>
      </trkpt>
      <trkpt lat="49.20203" lon="6.96785">
        <ele>315</ele>
        <time>2012-01-22T10:15:00Z</time>
      </trkpt>
      <trkpt lat="49.20201" lon="6.96784">
        <ele>315</ele>
        <time>2012-01-22T10:15:01Z</time>
      </trkpt>
      <trkpt lat="49.202" lon="6.96783">
        <ele>316</ele>
        <time>2012-01-22T10:15:02Z</time>
      </trkpt>
      <trkpt lat="49.20198" lon="6.96782">
        <ele>316</ele>
        <time>2012-01-22T10:15:03Z</time>
      </trkpt>
      <trkpt lat="49.20197" lon="6.96782">
        <ele>316</ele>
        <time>2012-01-22T10:15:04Z</time>
      </trkpt>
      <trkpt lat="49.20196" lon="6.96781">
        <ele>316</ele>
        <time>2012-01-22T10:15:05Z</time>
      </trkpt>
      <trkpt lat="49.20195" lon="6.9678">
        <ele>316</ele>
        <time>2012-01-22T10:15:06Z</time>
      </trkpt>
      <trkpt lat="49.20193" lon="6.9678">
        <ele>316</ele>
        <time>2012-01-22T10:15:07Z</time>
      </trkpt>
      <trkpt lat="49.20192" lon="6.96779">
        <ele>316</ele>
        <time>2012-01-22T10:15:08Z</time>
      </trkpt>
      <trkpt lat="49.20191" lon="6.96778">
        <ele>316</ele>
        <time>2012-01-22T10:15:09Z</time>
      </trkpt>
      <trkpt lat="49.2019" lon="6.96777">
        <ele>316</ele>
        <time>2012-01-22T10:15:10Z</time>
      </trkpt>
      <trkpt lat="49.20189" lon="6.96777">
        <ele>316</ele>
        <time>2012-01-22T10:15:11Z</time>
      </trkpt>
      <trkpt lat="49.20187" lon="6.96776">
        <ele>316</ele>
        <time>2012-01-22T10:15:12Z</time>
      </trkpt>
      <trkpt lat="49.20186" lon="6.96775">
        <ele>316</ele>
        <time>2012-01-22T10:15:13Z</time>
      </trkpt>
      <trkpt lat="49.20185" lon="6.96774">
        <ele>316</ele>
        <time>2012-01-22T10:15:14Z</time>
      </trkpt>
      <trkpt lat="49.20183" lon="6.96774">
        <ele>316</ele>
        <time>2012-01-22T10:15:15Z</time>
      </trkpt>
      <trkpt lat="49.20182" lon="6.96773">
        <ele>316</ele>
        <time>2012-01-22T10:15:16Z</time>
      </trkpt>
      <trkpt lat="49.20181" lon="6.96772">
        <ele>316</ele>
        <time>2012-01-22T10:15:17Z</time>
      </trkpt>
      <trkpt lat="49.20179" lon="6.96771">
        <ele>317</ele>
        <time>2012-01-22T10:15:19Z</time>
      </trkpt>
      <trkpt lat="49.20177" lon="6.9677">
        <ele>317</ele>
        <time>2012-01-22T10:15:20Z</time>
      </trkpt>
      <trkpt lat="49.20176" lon="6.96769">
        <ele>317</ele>
        <time>2012-01-22T10:15:21Z</time>
      </trkpt>
      <trkpt lat="49.20175" lon="6.96768">
        <ele>317</ele>
        <time>2012-01-22T10:15:22Z</time>
      </trkpt>
      <trkpt lat="49.20174" lon="6.96768">
        <ele>318</ele>
        <time>2012-01-22T10:15:23Z</time>
      </trkpt>
      <trkpt lat="49.20173" lon="6.96767">
        <ele>318</ele>
        <time>2012-01-22T10:15:24Z</time>
      </trkpt>
      <trkpt lat="49.20171" lon="6.96766">
        <ele>318</ele>
        <time>2012-01-22T10:15:25Z</time>
      </trkpt>
      <trkpt lat="49.2017" lon="6.96765">
        <ele>318</ele>
        <time>2012-01-22T10:15:26Z</time>
      </trkpt>
      <trkpt lat="49.20169" lon="6.96765">
        <ele>318</ele>
        <time>2012-01-22T10:15:27Z</time>
      </trkpt>
      <trkpt lat="49.20168" lon="6.96764">
        <ele>318</ele>
        <time>2012-01-22T10:15:28Z</time>
      </trkpt>
      <trkpt lat="49.20166" lon="6.96763">
        <ele>318</ele>
        <time>2012-01-22T10:15:29Z</time>
      </trkpt>
      <trkpt lat="49.20164" lon="6.96762">
        <ele>318</ele>
        <time>2012-01-22T10:15:31Z</time>
      </trkpt>
      <trkpt lat="49.20162" lon="6.96761">
        <ele>318</ele>
        <time>2012-01-22T10:15:33Z</time>
      </trkpt>
      <trkpt lat="49.20161" lon="6.9676">
        <ele>318</ele>
        <time>2012-01-22T10:15:34Z</time>
      </trkpt>
      <trkpt lat="49.2016" lon="6.96759">
        <ele>318</ele>
        <time>2012-01-22T10:15:35Z</time>
      </trkpt>
      <trkpt lat="49.20159" lon="6.96758">
        <ele>318</ele>
        <time>2012-01-22T10:15:36Z</time>
      </trkpt>
      <trkpt lat="49.20158" lon="6.96757">
        <ele>318</ele>
        <time>2012-01-22T10:15:37Z</time>
      </trkpt>
      <trkpt lat="49.20156" lon="6.96757">
        <ele>318</ele>
        <time>2012-01-22T10:15:38Z</time>
      </trkpt>
      <trkpt lat="49.20154" lon="6.96755">
        <ele>318</ele>
        <time>2012-01-22T10:15:40Z</time>
      </trkpt>
      <trkpt lat="49.20152" lon="6.96754">
        <ele>318</ele>
        <time>2012-01-22T10:15:42Z</time>
      </trkpt>
      <trkpt lat="49.2015" lon="6.96752">
        <ele>318</ele>
        <time>2012-01-22T10:15:44Z</time>
      </trkpt>
      <trkpt lat="49.20148" lon="6.96751">
        <ele>318</ele>
        <time>2012-01-22T10:15:46Z</time>
      </trkpt>
      <trkpt lat="49.20146" lon="6.9675">
        <ele>318</ele>
        <time>2012-01-22T10:15:48Z</time>
      </trkpt>
      <trkpt lat="49.20145" lon="6.9675">
        <ele>318</ele>
        <time>2012-01-22T10:15:49Z</time>
      </trkpt>
      <trkpt lat="49.20143" lon="6.9675">
        <ele>318</ele>
        <time>2012-01-22T10:15:50Z</time>
      </trkpt>
      <trkpt lat="49.20142" lon="6.96749">
        <ele>318</ele>
        <time>2012-01-22T10:15:51Z</time>
      </trkpt>
      <trkpt lat="49.20141" lon="6.96749">
        <ele>318</ele>
        <time>2012-01-22T10:15:52Z</time>
      </trkpt>
      <trkpt lat="49.20139" lon="6.96748">
        <ele>318</ele>
        <time>2012-01-22T10:15:53Z</time>
      </trkpt>
      <trkpt lat="49.20137" lon="6.96747">
        <ele>318</ele>
        <time>2012-01-22T10:15:55Z</time>
      </trkpt>
      <trkpt lat="49.20135" lon="6.96746">
        <ele>318</ele>
        <time>2012-01-22T10:15:56Z</time>
      </trkpt>
      <trkpt lat="49.20134" lon="6.96746">
        <ele>318</ele>
        <time>2012-01-22T10:15:57Z</time>
      </trkpt>
      <trkpt lat="49.20133" lon="6.96745">
        <ele>318</ele>
        <time>2012-01-22T10:15:58Z</time>
      </trkpt>
      <trkpt lat="49.20132" lon="6.96744">
        <ele>318</ele>
        <time>2012-01-22T10:15:59Z</time>
      </trkpt>
      <trkpt lat="49.2013" lon="6.96743">
        <ele>318</ele>
        <time>2012-01-22T10:16:00Z</time>
      </trkpt>
      <trkpt lat="49.20129" lon="6.96742">
        <ele>318</ele>
        <time>2012-01-22T10:16:01Z</time>
      </trkpt>
      <trkpt lat="49.20127" lon="6.96742">
        <ele>318</ele>
        <time>2012-01-22T10:16:02Z</time>
      </trkpt>
      <trkpt lat="49.20126" lon="6.96741">
        <ele>318</ele>
        <time>2012-01-22T10:16:03Z</time>
      </trkpt>
      <trkpt lat="49.20125" lon="6.9674">
        <ele>318</ele>
        <time>2012-01-22T10:16:04Z</time>
      </trkpt>
      <trkpt lat="49.20124" lon="6.96739">
        <ele>318</ele>
        <time>2012-01-22T10:16:05Z</time>
      </trkpt>
      <trkpt lat="49.20122" lon="6.96739">
        <ele>318</ele>
        <time>2012-01-22T10:16:06Z</time>
      </trkpt>
      <trkpt lat="49.20121" lon="6.96738">
        <ele>318</ele>
        <time>2012-01-22T10:16:07Z</time>
      </trkpt>
      <trkpt lat="49.20119" lon="6.96737">
        <ele>318</ele>
        <time>2012-01-22T10:16:08Z</time>
      </trkpt>
      <trkpt lat="49.20118" lon="6.96736">
        <ele>318</ele>
        <time>2012-01-22T10:16:09Z</time>
      </trkpt>
      <trkpt lat="49.20117" lon="6.96735">
        <ele>318</ele>
        <time>2012-01-22T10:16:10Z</time>
      </trkpt>
      <trkpt lat="49.20116" lon="6.96735">
        <ele>318</ele>
        <time>2012-01-22T10:16:11Z</time>
      </trkpt>
      <trkpt lat="49.20114" lon="6.96733">
        <ele>318</ele>
        <time>2012-01-22T10:16:13Z</time>
      </trkpt>
      <trkpt lat="49.20112" lon="6.96733">
        <ele>318</ele>
        <time>2012-01-22T10:16:14Z</time>
      </trkpt>
      <trkpt lat="49.20111" lon="6.96732">
        <ele>318</ele>
        <time>2012-01-22T10:16:15Z</time>
      </trkpt>
      <trkpt lat="49.2011" lon="6.96732">
        <ele>318</ele>
        <time>2012-01-22T10:16:16Z</time>
      </trkpt>
      <trkpt lat="49.20108" lon="6.96732">
        <ele>318</ele>
        <time>2012-01-22T10:16:17Z</time>
      </trkpt>
      <trkpt lat="49.20107" lon="6.96732">
        <ele>318</ele>
        <time>2012-01-22T10:16:18Z</time>
      </trkpt>
      <trkpt lat="49.20106" lon="6.96732">
        <ele>318</ele>
        <time>2012-01-22T10:16:19Z</time>
      </trkpt>
      <trkpt lat="49.20105" lon="6.96732">
        <ele>319</ele>
        <time>2012-01-22T10:16:20Z</time>
      </trkpt>
      <trkpt lat="49.20103" lon="6.96733">
        <ele>319</ele>
        <time>2012-01-22T10:16:21Z</time>
      </trkpt>
      <trkpt lat="49.20102" lon="6.96734">
        <ele>319</ele>
        <time>2012-01-22T10:16:22Z</time>
      </trkpt>
      <trkpt lat="49.201" lon="6.96734">
        <ele>319</ele>
        <time>2012-01-22T10:16:23Z</time>
      </trkpt>
      <trkpt lat="49.20099" lon="6.96734">
        <ele>319</ele>
        <time>2012-01-22T10:16:24Z</time>
      </trkpt>
      <trkpt lat="49.20098" lon="6.96733">
        <ele>319</ele>
        <time>2012-01-22T10:16:25Z</time>
      </trkpt>
      <trkpt lat="49.20096" lon="6.96733">
        <ele>319</ele>
        <time>2012-01-22T10:16:26Z</time>
      </trkpt>
      <trkpt lat="49.20095" lon="6.96732">
        <ele>319</ele>
        <time>2012-01-22T10:16:27Z</time>
      </trkpt>
      <trkpt lat="49.20093" lon="6.96731">
        <ele>320</ele>
        <time>2012-01-22T10:16:28Z</time>
      </trkpt>
      <trkpt lat="49.20092" lon="6.9673">
        <ele>320</ele>
        <time>2012-01-22T10:16:29Z</time>
      </trkpt>
      <trkpt lat="49.2009" lon="6.96729">
        <ele>320</ele>
        <time>2012-01-22T10:16:30Z</time>
      </trkpt>
      <trkpt lat="49.20089" lon="6.96728">
        <ele>320</ele>
        <time>2012-01-22T10:16:31Z</time>
      </trkpt>
      <trkpt lat="49.20087" lon="6.96727">
        <ele>321</ele>
        <time>2012-01-22T10:16:33Z</time>
      </trkpt>
      <trkpt lat="49.20085" lon="6.96725">
        <ele>321</ele>
        <time>2012-01-22T10:16:35Z</time>
      </trkpt>
      <trkpt lat="49.20084" lon="6.96724">
        <ele>321</ele>
        <time>2012-01-22T10:16:36Z</time>
      </trkpt>
      <trkpt lat="49.20083" lon="6.96723">
        <ele>321</ele>
        <time>2012-01-22T10:16:37Z</time>
      </trkpt>
      <trkpt lat="49.20081" lon="6.96722">
        <ele>321</ele>
        <time>2012-01-22T10:16:38Z</time>
      </trkpt>
      <trkpt lat="49.2008" lon="6.96722">
        <ele>321</ele>
        <time>2012-01-22T10:16:39Z</time>
      </trkpt>
      <trkpt lat="49.20079" lon="6.96721">
        <ele>321</ele>
        <time>2012-01-22T10:16:40Z</time>
      </trkpt>
      <trkpt lat="49.20078" lon="6.9672">
        <ele>321</ele>
        <time>2012-01-22T10:16:41Z</time>
      </trkpt>
      <trkpt lat="49.20077" lon="6.96719">
        <ele>321</ele>
        <time>2012-01-22T10:16:42Z</time>
      </trkpt>
      <trkpt lat="49.20074" lon="6.96718">
        <ele>321</ele>
        <time>2012-01-22T10:16:44Z</time>
      </trkpt>
      <trkpt lat="49.20073" lon="6.96717">
        <ele>321</ele>
        <time>2012-01-22T10:16:45Z</time>
      </trkpt>
      <trkpt lat="49.20072" lon="6.96716">
        <ele>321</ele>
        <time>2012-01-22T10:16:46Z</time>
      </trkpt>
      <trkpt lat="49.2007" lon="6.96715">
        <ele>321</ele>
        <time>2012-01-22T10:16:48Z</time>
      </trkpt>
      <trkpt lat="49.20068" lon="6.96714">
        <ele>321</ele>
        <time>2012-01-22T10:16:49Z</time>
      </trkpt>
      <trkpt lat="49.20067" lon="6.96713">
        <ele>321</ele>
        <time>2012-01-22T10:16:50Z</time>
      </trkpt>
      <trkpt lat="49.20066" lon="6.96712">
        <ele>321</ele>
        <time>2012-01-22T10:16:51Z</time>
      </trkpt>
      <trkpt lat="49.20065" lon="6.96712">
        <ele>321</ele>
        <time>2012-01-22T10:16:52Z</time>
      </trkpt>
      <trkpt lat="49.20063" lon="6.9671">
        <ele>321</ele>
        <time>2012-01-22T10:16:54Z</time>
      </trkpt>
      <trkpt lat="49.20061" lon="6.9671">
        <ele>321</ele>
        <time>2012-01-22T10:16:55Z</time>
      </trkpt>
      <trkpt lat="49.2006" lon="6.96709">
        <ele>321</ele>
        <time>2012-01-22T10:16:56Z</time>
      </trkpt>
      <trkpt lat="49.20059" lon="6.96708">
        <ele>321</ele>
        <time>2012-01-22T10:16:57Z</time>
      </trkpt>
      <trkpt lat="49.20057" lon="6.96707">
        <ele>321</ele>
        <time>2012-01-22T10:16:58Z</time>
      </trkpt>
      <trkpt lat="49.20056" lon="6.96706">
        <ele>321</ele>
        <time>2012-01-22T10:16:59Z</time>
      </trkpt>
      <trkpt lat="49.20055" lon="6.96706">
        <ele>321</ele>
        <time>2012-01-22T10:17:00Z</time>
      </trkpt>
      <trkpt lat="49.20053" lon="6.96704">
        <ele>321</ele>
        <time>2012-01-22T10:17:02Z</time>
      </trkpt>
      <trkpt lat="49.20051" lon="6.96703">
        <ele>321</ele>
        <time>2012-01-22T10:17:03Z</time>
      </trkpt>
      <trkpt lat="49.2005" lon="6.96703">
        <ele>321</ele>
        <time>2012-01-22T10:17:04Z</time>
      </trkpt>
      <trkpt lat="49.20049" lon="6.96702">
        <ele>321</ele>
        <time>2012-01-22T10:17:05Z</time>
      </trkpt>
      <trkpt lat="49.20047" lon="6.96701">
        <ele>321</ele>
        <time>2012-01-22T10:17:06Z</time>
      </trkpt>
      <trkpt lat="49.20046" lon="6.967">
        <ele>321</ele>
        <time>2012-01-22T10:17:07Z</time>
      </trkpt>
      <trkpt lat="49.20045" lon="6.96699">
        <ele>322</ele>
        <time>2012-01-22T10:17:08Z</time>
      </trkpt>
      <trkpt lat="49.20044" lon="6.96699">
        <ele>322</ele>
        <time>2012-01-22T10:17:09Z</time>
      </trkpt>
      <trkpt lat="49.20042" lon="6.96698">
        <ele>322</ele>
        <time>2012-01-22T10:17:10Z</time>
      </trkpt>
      <trkpt lat="49.20041" lon="6.96698">
        <ele>322</ele>
        <time>2012-01-22T10:17:11Z</time>
      </trkpt>
      <trkpt lat="49.2004" lon="6.96697">
        <ele>322</ele>
        <time>2012-01-22T10:17:12Z</time>
      </trkpt>
      <trkpt lat="49.20038" lon="6.96697">
        <ele>322</ele>
        <time>2012-01-22T10:17:13Z</time>
      </trkpt>
      <trkpt lat="49.20037" lon="6.96696">
        <ele>322</ele>
        <time>2012-01-22T10:17:14Z</time>
      </trkpt>
      <trkpt lat="49.20036" lon="6.96696">
        <ele>322</ele>
        <time>2012-01-22T10:17:15Z</time>
      </trkpt>
      <trkpt lat="49.20035" lon="6.96695">
        <ele>322</ele>
        <time>2012-01-22T10:17:16Z</time>
      </trkpt>
      <trkpt lat="49.20033" lon="6.96694">
        <ele>322</ele>
        <time>2012-01-22T10:17:17Z</time>
      </trkpt>
      <trkpt lat="49.20031" lon="6.96691">
        <ele>322</ele>
        <time>2012-01-22T10:17:19Z</time>
      </trkpt>
      <trkpt lat="49.2003" lon="6.9669">
        <ele>322</ele>
        <time>2012-01-22T10:17:20Z</time>
      </trkpt>
      <trkpt lat="49.20029" lon="6.9669">
        <ele>322</ele>
        <time>2012-01-22T10:17:21Z</time>
      </trkpt>
      <trkpt lat="49.20028" lon="6.96689">
        <ele>322</ele>
        <time>2012-01-22T10:17:22Z</time>
      </trkpt>
      <trkpt lat="49.20027" lon="6.96689">
        <ele>322</ele>
        <time>2012-01-22T10:17:23Z</time>
      </trkpt>
      <trkpt lat="49.20026" lon="6.96689">
        <ele>322</ele>
        <time>2012-01-22T10:17:24Z</time>
      </trkpt>
      <trkpt lat="49.20024" lon="6.96688">
        <ele>322</ele>
        <time>2012-01-22T10:17:25Z</time>
      </trkpt>
      <trkpt lat="49.20023" lon="6.96688">
        <ele>322</ele>
        <time>2012-01-22T10:17:26Z</time>
      </trkpt>
      <trkpt lat="49.20022" lon="6.96688">
        <ele>322</ele>
        <time>2012-01-22T10:17:27Z</time>
      </trkpt>
      <trkpt lat="49.2002" lon="6.96687">
        <ele>322</ele>
        <time>2012-01-22T10:17:28Z</time>
      </trkpt>
      <trkpt lat="49.20019" lon="6.96687">
        <ele>322</ele>
        <time>2012-01-22T10:17:29Z</time>
      </trkpt>
      <trkpt lat="49.20017" lon="6.96686">
        <ele>322</ele>
        <time>2012-01-22T10:17:30Z</time>
      </trkpt>
      <trkpt lat="49.20016" lon="6.96686">
        <ele>322</ele>
        <time>2012-01-22T10:17:31Z</time>
      </trkpt>
      <trkpt lat="49.20015" lon="6.96685">
        <ele>322</ele>
        <time>2012-01-22T10:17:32Z</time>
      </trkpt>
      <trkpt lat="49.20013" lon="6.96685">
        <ele>322</ele>
        <time>2012-01-22T10:17:33Z</time>
      </trkpt>
      <trkpt lat="49.20012" lon="6.96684">
        <ele>322</ele>
        <time>2012-01-22T10:17:34Z</time>
      </trkpt>
      <trkpt lat="49.20011" lon="6.96684">
        <ele>322</ele>
        <time>2012-01-22T10:17:35Z</time>
      </trkpt>
      <trkpt lat="49.20009" lon="6.96683">
        <ele>322</ele>
        <time>2012-01-22T10:17:36Z</time>
      </trkpt>
      <trkpt lat="49.20008" lon="6.96683">
        <ele>322</ele>
        <time>2012-01-22T10:17:37Z</time>
      </trkpt>
      <trkpt lat="49.20006" lon="6.96682">
        <ele>322</ele>
        <time>2012-01-22T10:17:38Z</time>
      </trkpt>
      <trkpt lat="49.20005" lon="6.96682">
        <ele>322</ele>
        <time>2012-01-22T10:17:39Z</time>
      </trkpt>
      <trkpt lat="49.20004" lon="6.96681">
        <ele>322</ele>
        <time>2012-01-22T10:17:40Z</time>
      </trkpt>
      <trkpt lat="49.20003" lon="6.96681">
        <ele>322</ele>
        <time>2012-01-22T10:17:41Z</time>
      </trkpt>
      <trkpt lat="49.20001" lon="6.96681">
        <ele>322</ele>
        <time>2012-01-22T10:17:42Z</time>
      </trkpt>
      <trkpt lat="49.2" lon="6.9668">
        <ele>322</ele>
        <time>2012-01-22T10:17:43Z</time>
      </trkpt>
      <trkpt lat="49.19999" lon="6.9668">
        <ele>322</ele>
        <time>2012-01-22T10:17:44Z</time>
      </trkpt>
      <trkpt lat="49.19997" lon="6.96679">
        <ele>322</ele>
        <time>2012-01-22T10:17:45Z</time>
      </trkpt>
      <trkpt lat="49.19996" lon="6.96679">
        <ele>322</ele>
        <time>2012-01-22T10:17:46Z</time>
      </trkpt>
      <trkpt lat="49.19995" lon="6.96678">
        <ele>322</ele>
        <time>2012-01-22T10:17:47Z</time>
      </trkpt>
      <trkpt lat="49.19994" lon="6.96678">
        <ele>322</ele>
        <time>2012-01-22T10:17:48Z</time>
      </trkpt>
      <trkpt lat="49.19993" lon="6.96677">
        <ele>322</ele>
        <time>2012-01-22T10:17:49Z</time>
      </trkpt>
      <trkpt lat="49.19991" lon="6.96677">
        <ele>322</ele>
        <time>2012-01-22T10:17:50Z</time>
      </trkpt>
      <trkpt lat="49.1999" lon="6.96676">
        <ele>322</ele>
        <time>2012-01-22T10:17:51Z</time>
      </trkpt>
      <trkpt lat="49.19989" lon="6.96675">
        <ele>322</ele>
        <time>2012-01-22T10:17:52Z</time>
      </trkpt>
      <trkpt lat="49.19987" lon="6.96674">
        <ele>322</ele>
        <time>2012-01-22T10:17:53Z</time>
      </trkpt>
      <trkpt lat="49.19986" lon="6.96674">
        <ele>322</ele>
        <time>2012-01-22T10:17:54Z</time>
      </trkpt>
      <trkpt lat="49.19985" lon="6.96674">
        <ele>322</ele>
        <time>2012-01-22T10:17:55Z</time>
      </trkpt>
      <trkpt lat="49.19984" lon="6.96673">
        <ele>322</ele>
        <time>2012-01-22T10:17:56Z</time>
      </trkpt>
      <trkpt lat="49.19981" lon="6.96671">
        <ele>322</ele>
        <time>2012-01-22T10:17:58Z</time>
      </trkpt>
      <trkpt lat="49.1998" lon="6.9667">
        <ele>322</ele>
        <time>2012-01-22T10:17:59Z</time>
      </trkpt>
      <trkpt lat="49.19978" lon="6.96668">
        <ele>322</ele>
        <time>2012-01-22T10:18:01Z</time>
      </trkpt>
      <trkpt lat="49.19976" lon="6.96666">
        <ele>322</ele>
        <time>2012-01-22T10:18:03Z</time>
      </trkpt>
      <trkpt lat="49.19975" lon="6.96665">
        <ele>322</ele>
        <time>2012-01-22T10:18:05Z</time>
      </trkpt>
      <trkpt lat="49.19973" lon="6.96664">
        <ele>322</ele>
        <time>2012-01-22T10:18:07Z</time>
      </trkpt>
      <trkpt lat="49.19972" lon="6.96664">
        <ele>322</ele>
        <time>2012-01-22T10:18:08Z</time>
      </trkpt>
      <trkpt lat="49.1997" lon="6.96663">
        <ele>322</ele>
        <time>2012-01-22T10:18:09Z</time>
      </trkpt>
      <trkpt lat="49.19969" lon="6.96661">
        <ele>322</ele>
        <time>2012-01-22T10:18:11Z</time>
      </trkpt>
      <trkpt lat="49.19967" lon="6.9666">
        <ele>322</ele>
        <time>2012-01-22T10:18:13Z</time>
      </trkpt>
      <trkpt lat="49.19965" lon="6.96659">
        <ele>322</ele>
        <time>2012-01-22T10:18:15Z</time>
      </trkpt>
      <trkpt lat="49.19963" lon="6.96658">
        <ele>322</ele>
        <time>2012-01-22T10:18:17Z</time>
      </trkpt>
      <trkpt lat="49.19962" lon="6.96657">
        <ele>322</ele>
        <time>2012-01-22T10:18:19Z</time>
      </trkpt>
      <trkpt lat="49.1996" lon="6.96654">
        <ele>322</ele>
        <time>2012-01-22T10:18:21Z</time>
      </trkpt>
      <trkpt lat="49.19959" lon="6.96653">
        <ele>322</ele>
        <time>2012-01-22T10:18:22Z</time>
      </trkpt>
      <trkpt lat="49.19957" lon="6.96652">
        <ele>322</ele>
        <time>2012-01-22T10:18:23Z</time>
      </trkpt>
      <trkpt lat="49.19956" lon="6.96651">
        <ele>322</ele>
        <time>2012-01-22T10:18:24Z</time>
      </trkpt>
      <trkpt lat="49.19955" lon="6.9665">
        <ele>322</ele>
        <time>2012-01-22T10:18:25Z</time>
      </trkpt>
      <trkpt lat="49.19953" lon="6.96649">
        <ele>322</ele>
        <time>2012-01-22T10:18:26Z</time>
      </trkpt>
      <trkpt lat="49.19952" lon="6.96647">
        <ele>322</ele>
        <time>2012-01-22T10:18:27Z</time>
      </trkpt>
      <trkpt lat="49.1995" lon="6.96646">
        <ele>322</ele>
        <time>2012-01-22T10:18:28Z</time>
      </trkpt>
      <trkpt lat="49.19949" lon="6.96645">
        <ele>322</ele>
        <time>2012-01-22T10:18:29Z</time>
      </trkpt>
      <trkpt lat="49.19947" lon="6.96644">
        <ele>322</ele>
        <time>2012-01-22T10:18:30Z</time>
      </trkpt>
      <trkpt lat="49.19945" lon="6.96643">
        <ele>322</ele>
        <time>2012-01-22T10:18:31Z</time>
      </trkpt>
      <trkpt lat="49.19944" lon="6.96642">
        <ele>322</ele>
        <time>2012-01-22T10:18:32Z</time>
      </trkpt>
      <trkpt lat="49.19942" lon="6.96641">
        <ele>322</ele>
        <time>2012-01-22T10:18:33Z</time>
      </trkpt>
      <trkpt lat="49.19941" lon="6.9664">
        <ele>322</ele>
        <time>2012-01-22T10:18:34Z</time>
      </trkpt>
      <trkpt lat="49.1994" lon="6.96639">
        <ele>322</ele>
        <time>2012-01-22T10:18:36Z</time>
      </trkpt>
      <trkpt lat="49.19939" lon="6.96638">
        <ele>322</ele>
        <time>2012-01-22T10:18:39Z</time>
      </trkpt>
      <trkpt lat="49.19937" lon="6.96637">
        <ele>322</ele>
        <time>2012-01-22T10:18:41Z</time>
      </trkpt>
      <trkpt lat="49.19935" lon="6.96636">
        <ele>322</ele>
        <time>2012-01-22T10:18:42Z</time>
      </trkpt>
      <trkpt lat="49.19933" lon="6.96634">
        <ele>322</ele>
        <time>2012-01-22T10:18:44Z</time>
      </trkpt>
      <trkpt lat="49.19932" lon="6.96634">
        <ele>322</ele>
        <time>2012-01-22T10:18:45Z</time>
      </trkpt>
      <trkpt lat="49.19931" lon="6.96633">
        <ele>322</ele>
        <time>2012-01-22T10:18:46Z</time>
      </trkpt>
      <trkpt lat="49.1993" lon="6.96632">
        <ele>322</ele>
        <time>2012-01-22T10:18:47Z</time>
      </trkpt>
      <trkpt lat="49.19928" lon="6.96631">
        <ele>322</ele>
        <time>2012-01-22T10:18:48Z</time>
      </trkpt>
      <trkpt lat="49.19926" lon="6.9663">
        <ele>322</ele>
        <time>2012-01-22T10:18:50Z</time>
      </trkpt>
      <trkpt lat="49.19925" lon="6.96629">
        <ele>322</ele>
        <time>2012-01-22T10:18:51Z</time>
      </trkpt>
      <trkpt lat="49.19923" lon="6.96627">
        <ele>322</ele>
        <time>2012-01-22T10:18:53Z</time>
      </trkpt>
      <trkpt lat="49.19922" lon="6.96627">
        <ele>322</ele>
        <time>2012-01-22T10:18:54Z</time>
      </trkpt>
      <trkpt lat="49.1992" lon="6.96626">
        <ele>322</ele>
        <time>2012-01-22T10:18:55Z</time>
      </trkpt>
      <trkpt lat="49.19919" lon="6.96625">
        <ele>322</ele>
        <time>2012-01-22T10:18:56Z</time>
      </trkpt>
      <trkpt lat="49.19918" lon="6.96624">
        <ele>322</ele>
        <time>2012-01-22T10:18:57Z</time>
      </trkpt>
      <trkpt lat="49.19917" lon="6.96623">
        <ele>322</ele>
        <time>2012-01-22T10:18:58Z</time>
      </trkpt>
      <trkpt lat="49.19915" lon="6.96622">
        <ele>322</ele>
        <time>2012-01-22T10:18:59Z</time>
      </trkpt>
      <trkpt lat="49.19914" lon="6.96621">
        <ele>322</ele>
        <time>2012-01-22T10:19:00Z</time>
      </trkpt>
      <trkpt lat="49.19912" lon="6.9662">
        <ele>322</ele>
        <time>2012-01-22T10:19:01Z</time>
      </trkpt>
      <trkpt lat="49.19911" lon="6.96619">
        <ele>322</ele>
        <time>2012-01-22T10:19:02Z</time>
      </trkpt>
      <trkpt lat="49.1991" lon="6.96618">
        <ele>322</ele>
        <time>2012-01-22T10:19:03Z</time>
      </trkpt>
      <trkpt lat="49.19908" lon="6.96617">
        <ele>322</ele>
        <time>2012-01-22T10:19:04Z</time>
      </trkpt>
      <trkpt lat="49.19907" lon="6.96616">
        <ele>322</ele>
        <time>2012-01-22T10:19:05Z</time>
      </trkpt>
      <trkpt lat="49.19906" lon="6.96616">
        <ele>322</ele>
        <time>2012-01-22T10:19:06Z</time>
      </trkpt>
      <trkpt lat="49.19905" lon="6.96615">
        <ele>322</ele>
        <time>2012-01-22T10:19:07Z</time>
      </trkpt>
      <trkpt lat="49.19904" lon="6.96614">
        <ele>322</ele>
        <time>2012-01-22T10:19:08Z</time>
      </trkpt>
      <trkpt lat="49.19902" lon="6.96612">
        <ele>322</ele>
        <time>2012-01-22T10:19:09Z</time>
      </trkpt>
      <trkpt lat="49.19901" lon="6.96611">
        <ele>322</ele>
        <time>2012-01-22T10:19:10Z</time>
      </trkpt>
      <trkpt lat="49.19899" lon="6.9661">
        <ele>322</ele>
        <time>2012-01-22T10:19:11Z</time>
      </trkpt>
      <trkpt lat="49.19898" lon="6.96609">
        <ele>322</ele>
        <time>2012-01-22T10:19:12Z</time>
      </trkpt>
      <trkpt lat="49.19897" lon="6.96608">
        <ele>322</ele>
        <time>2012-01-22T10:19:13Z</time>
      </trkpt>
      <trkpt lat="49.19896" lon="6.96607">
        <ele>322</ele>
        <time>2012-01-22T10:19:14Z</time>
      </trkpt>
      <trkpt lat="49.19894" lon="6.96606">
        <ele>322</ele>
        <time>2012-01-22T10:19:15Z</time>
      </trkpt>
      <trkpt lat="49.19893" lon="6.96605">
        <ele>322</ele>
        <time>2012-01-22T10:19:16Z</time>
      </trkpt>
      <trkpt lat="49.19891" lon="6.96604">
        <ele>322</ele>
        <time>2012-01-22T10:19:17Z</time>
      </trkpt>
      <trkpt lat="49.1989" lon="6.96604">
        <ele>322</ele>
        <time>2012-01-22T10:19:18Z</time>
      </trkpt>
      <trkpt lat="49.19889" lon="6.96603">
        <ele>322</ele>
        <time>2012-01-22T10:19:19Z</time>
      </trkpt>
      <trkpt lat="49.19888" lon="6.96602">
        <ele>322</ele>
        <time>2012-01-22T10:19:20Z</time>
      </trkpt>
      <trkpt lat="49.19886" lon="6.96601">
        <ele>322</ele>
        <time>2012-01-22T10:19:22Z</time>
      </trkpt>
      <trkpt lat="49.19884" lon="6.966">
        <ele>322</ele>
        <time>2012-01-22T10:19:23Z</time>
      </trkpt>
      <trkpt lat="49.19883" lon="6.96599">
        <ele>322</ele>
        <time>2012-01-22T10:19:24Z</time>
      </trkpt>
      <trkpt lat="49.19882" lon="6.96598">
        <ele>322</ele>
        <time>2012-01-22T10:19:25Z</time>
      </trkpt>
      <trkpt lat="49.1988" lon="6.96597">
        <ele>322</ele>
        <time>2012-01-22T10:19:26Z</time>
      </trkpt>
      <trkpt lat="49.19879" lon="6.96596">
        <ele>322</ele>
        <time>2012-01-22T10:19:27Z</time>
      </trkpt>
      <trkpt lat="49.19878" lon="6.96596">
        <ele>322</ele>
        <time>2012-01-22T10:19:28Z</time>
      </trkpt>
      <trkpt lat="49.19876" lon="6.96595">
        <ele>322</ele>
        <time>2012-01-22T10:19:29Z</time>
      </trkpt>
      <trkpt lat="49.19875" lon="6.96594">
        <ele>322</ele>
        <time>2012-01-22T10:19:30Z</time>
      </trkpt>
      <trkpt lat="49.19874" lon="6.96593">
        <ele>322</ele>
        <time>2012-01-22T10:19:31Z</time>
      </trkpt>
      <trkpt lat="49.19873" lon="6.96593">
        <ele>322</ele>
        <time>2012-01-22T10:19:32Z</time>
      </trkpt>
      <trkpt lat="49.19871" lon="6.96592">
        <ele>322</ele>
        <time>2012-01-22T10:19:33Z</time>
      </trkpt>
      <trkpt lat="49.1987" lon="6.96591">
        <ele>322</ele>
        <time>2012-01-22T10:19:34Z</time>
      </trkpt>
      <trkpt lat="49.19869" lon="6.9659">
        <ele>322</ele>
        <time>2012-01-22T10:19:35Z</time>
      </trkpt>
      <trkpt lat="49.19867" lon="6.9659">
        <ele>322</ele>
        <time>2012-01-22T10:19:36Z</time>
      </trkpt>
      <trkpt lat="49.19866" lon="6.96589">
        <ele>322</ele>
        <time>2012-01-22T10:19:37Z</time>
      </trkpt>
      <trkpt lat="49.19865" lon="6.96588">
        <ele>322</ele>
        <time>2012-01-22T10:19:38Z</time>
      </trkpt>
      <trkpt lat="49.19864" lon="6.96588">
        <ele>322</ele>
        <time>2012-01-22T10:19:39Z</time>
      </trkpt>
      <trkpt lat="49.19862" lon="6.96586">
        <ele>322</ele>
        <time>2012-01-22T10:19:41Z</time>
      </trkpt>
      <trkpt lat="49.1986" lon="6.96586">
        <ele>322</ele>
        <time>2012-01-22T10:19:42Z</time>
      </trkpt>
      <trkpt lat="49.19859" lon="6.96585">
        <ele>322</ele>
        <time>2012-01-22T10:19:43Z</time>
      </trkpt>
      <trkpt lat="49.19858" lon="6.96584">
        <ele>322</ele>
        <time>2012-01-22T10:19:44Z</time>
      </trkpt>
      <trkpt lat="49.19857" lon="6.96584">
        <ele>322</ele>
        <time>2012-01-22T10:19:45Z</time>
      </trkpt>
      <trkpt lat="49.19855" lon="6.96583">
        <ele>322</ele>
        <time>2012-01-22T10:19:46Z</time>
      </trkpt>
      <trkpt lat="49.19854" lon="6.96582">
        <ele>322</ele>
        <time>2012-01-22T10:19:47Z</time>
      </trkpt>
      <trkpt lat="49.19853" lon="6.96582">
        <ele>322</ele>
        <time>2012-01-22T10:19:48Z</time>
      </trkpt>
      <trkpt lat="49.19852" lon="6.96581">
        <ele>322</ele>
        <time>2012-01-22T10:19:49Z</time>
      </trkpt>
      <trkpt lat="49.19851" lon="6.96581">
        <ele>322</ele>
        <time>2012-01-22T10:19:50Z</time>
      </trkpt>
      <trkpt lat="49.19849" lon="6.96579">
        <ele>322</ele>
        <time>2012-01-22T10:19:52Z</time>
      </trkpt>
      <trkpt lat="49.19847" lon="6.96578">
        <ele>322</ele>
        <time>2012-01-22T10:19:53Z</time>
      </trkpt>
      <trkpt lat="49.19846" lon="6.96578">
        <ele>322</ele>
        <time>2012-01-22T10:19:54Z</time>
      </trkpt>
      <trkpt lat="49.19845" lon="6.96577">
        <ele>322</ele>
        <time>2012-01-22T10:19:55Z</time>
      </trkpt>
      <trkpt lat="49.19844" lon="6.96576">
        <ele>322</ele>
        <time>2012-01-22T10:19:56Z</time>
      </trkpt>
      <trkpt lat="49.19842" lon="6.96576">
        <ele>322</ele>
        <time>2012-01-22T10:19:57Z</time>
      </trkpt>
      <trkpt lat="49.19841" lon="6.96576">
        <ele>322</ele>
        <time>2012-01-22T10:19:58Z</time>
      </trkpt>
      <trkpt lat="49.19839" lon="6.96575">
        <ele>322</ele>
        <time>2012-01-22T10:19:59Z</time>
      </trkpt>
      <trkpt lat="49.19838" lon="6.96575">
        <ele>322</ele>
        <time>2012-01-22T10:20:00Z</time>
      </trkpt>
      <trkpt lat="49.19837" lon="6.96574">
        <ele>322</ele>
        <time>2012-01-22T10:20:01Z</time>
      </trkpt>
      <trkpt lat="49.19836" lon="6.96574">
        <ele>322</ele>
        <time>2012-01-22T10:20:02Z</time>
      </trkpt>
      <trkpt lat="49.19834" lon="6.96573">
        <ele>322</ele>
        <time>2012-01-22T10:20:03Z</time>
      </trkpt>
      <trkpt lat="49.19833" lon="6.96572">
        <ele>322</ele>
        <time>2012-01-22T10:20:04Z</time>
      </trkpt>
      <trkpt lat="49.19831" lon="6.96571">
        <ele>322</ele>
        <time>2012-01-22T10:20:05Z</time>
      </trkpt>
      <trkpt lat="49.1983" lon="6.96571">
        <ele>322</ele>
        <time>2012-01-22T10:20:06Z</time>
      </trkpt>
      <trkpt lat="49.19828" lon="6.9657">
        <ele>322</ele>
        <time>2012-01-22T10:20:07Z</time>
      </trkpt>
      <trkpt lat="49.19827" lon="6.96569">
        <ele>322</ele>
        <time>2012-01-22T10:20:08Z</time>
      </trkpt>
      <trkpt lat="49.19826" lon="6.96568">
        <ele>322</ele>
        <time>2012-01-22T10:20:09Z</time>
      </trkpt>
      <trkpt lat="49.19825" lon="6.96568">
        <ele>322</ele>
        <time>2012-01-22T10:20:10Z</time>
      </trkpt>
      <trkpt lat="49.19824" lon="6.96567">
        <ele>322</ele>
        <time>2012-01-22T10:20:11Z</time>
      </trkpt>
      <trkpt lat="49.19822" lon="6.96566">
        <ele>322</ele>
        <time>2012-01-22T10:20:12Z</time>
      </trkpt>
      <trkpt lat="49.19821" lon="6.96566">
        <ele>322</ele>
        <time>2012-01-22T10:20:13Z</time>
      </trkpt>
      <trkpt lat="49.1982" lon="6.96565">
        <ele>322</ele>
        <time>2012-01-22T10:20:14Z</time>
      </trkpt>
      <trkpt lat="49.19819" lon="6.96565">
        <ele>322</ele>
        <time>2012-01-22T10:20:15Z</time>
      </trkpt>
      <trkpt lat="49.19817" lon="6.96564">
        <ele>322</ele>
        <time>2012-01-22T10:20:16Z</time>
      </trkpt>
      <trkpt lat="49.19816" lon="6.96562">
        <ele>322</ele>
        <time>2012-01-22T10:20:18Z</time>
      </trkpt>
      <trkpt lat="49.19815" lon="6.96561">
        <ele>322</ele>
        <time>2012-01-22T10:20:19Z</time>
      </trkpt>
      <trkpt lat="49.19812" lon="6.96559">
        <ele>322</ele>
        <time>2012-01-22T10:20:21Z</time>
      </trkpt>
      <trkpt lat="49.19811" lon="6.96558">
        <ele>322</ele>
        <time>2012-01-22T10:20:22Z</time>
      </trkpt>
      <trkpt lat="49.1981" lon="6.96557">
        <ele>322</ele>
        <time>2012-01-22T10:20:23Z</time>
      </trkpt>
      <trkpt lat="49.19808" lon="6.96556">
        <ele>322</ele>
        <time>2012-01-22T10:20:25Z</time>
      </trkpt>
      <trkpt lat="49.19807" lon="6.96555">
        <ele>322</ele>
        <time>2012-01-22T10:20:26Z</time>
      </trkpt>
      <trkpt lat="49.19806" lon="6.96555">
        <ele>322</ele>
        <time>2012-01-22T10:20:27Z</time>
      </trkpt>
      <trkpt lat="49.19804" lon="6.96554">
        <ele>322</ele>
        <time>2012-01-22T10:20:28Z</time>
      </trkpt>
      <trkpt lat="49.19802" lon="6.96552">
        <ele>322</ele>
        <time>2012-01-22T10:20:30Z</time>
      </trkpt>
      <trkpt lat="49.19801" lon="6.96552">
        <ele>322</ele>
        <time>2012-01-22T10:20:31Z</time>
      </trkpt>
      <trkpt lat="49.19799" lon="6.9655">
        <ele>322</ele>
        <time>2012-01-22T10:20:33Z</time>
      </trkpt>
      <trkpt lat="49.19798" lon="6.9655">
        <ele>322</ele>
        <time>2012-01-22T10:20:34Z</time>
      </trkpt>
      <trkpt lat="49.19796" lon="6.96549">
        <ele>322</ele>
        <time>2012-01-22T10:20:35Z</time>
      </trkpt>
      <trkpt lat="49.19795" lon="6.96547">
        <ele>322</ele>
        <time>2012-01-22T10:20:36Z</time>
      </trkpt>
      <trkpt lat="49.19793" lon="6.96547">
        <ele>322</ele>
        <time>2012-01-22T10:20:37Z</time>
      </trkpt>
      <trkpt lat="49.19792" lon="6.96546">
        <ele>322</ele>
        <time>2012-01-22T10:20:38Z</time>
      </trkpt>
      <trkpt lat="49.19791" lon="6.96546">
        <ele>322</ele>
        <time>2012-01-22T10:20:39Z</time>
      </trkpt>
      <trkpt lat="49.1979" lon="6.96546">
        <ele>322</ele>
        <time>2012-01-22T10:20:40Z</time>
      </trkpt>
      <trkpt lat="49.19788" lon="6.96546">
        <ele>322</ele>
        <time>2012-01-22T10:20:42Z</time>
      </trkpt>
      <trkpt lat="49.19787" lon="6.96546">
        <ele>322</ele>
        <time>2012-01-22T10:20:43Z</time>
      </trkpt>
      <trkpt lat="49.19785" lon="6.96545">
        <ele>322</ele>
        <time>2012-01-22T10:20:45Z</time>
      </trkpt>
      <trkpt lat="49.19783" lon="6.96545">
        <ele>322</ele>
        <time>2012-01-22T10:20:46Z</time>
      </trkpt>
      <trkpt lat="49.19782" lon="6.96544">
        <ele>322</ele>
        <time>2012-01-22T10:20:47Z</time>
      </trkpt>
      <trkpt lat="49.1978" lon="6.96544">
        <ele>322</ele>
        <time>2012-01-22T10:20:48Z</time>
      </trkpt>
      <trkpt lat="49.19779" lon="6.96544">
        <ele>322</ele>
        <time>2012-01-22T10:20:49Z</time>
      </trkpt>
      <trkpt lat="49.19778" lon="6.96543">
        <ele>322</ele>
        <time>2012-01-22T10:20:50Z</time>
      </trkpt>
      <trkpt lat="49.19776" lon="6.96543">
        <ele>322</ele>
        <time>2012-01-22T10:20:51Z</time>
      </trkpt>
      <trkpt lat="49.19775" lon="6.96543">
        <ele>322</ele>
        <time>2012-01-22T10:20:52Z</time>
      </trkpt>
      <trkpt lat="49.19773" lon="6.96543">
        <ele>322</ele>
        <time>2012-01-22T10:20:53Z</time>
      </trkpt>
      <trkpt lat="49.19772" lon="6.96542">
        <ele>322</ele>
        <time>2012-01-22T10:20:54Z</time>
      </trkpt>
      <trkpt lat="49.1977" lon="6.96542">
        <ele>322</ele>
        <time>2012-01-22T10:20:55Z</time>
      </trkpt>
      <trkpt lat="49.19769" lon="6.96542">
        <ele>322</ele>
        <time>2012-01-22T10:20:56Z</time>
      </trkpt>
      <trkpt lat="49.19768" lon="6.96543">
        <ele>322</ele>
        <time>2012-01-22T10:20:57Z</time>
      </trkpt>
      <trkpt lat="49.19767" lon="6.96543">
        <ele>322</ele>
        <time>2012-01-22T10:20:58Z</time>
      </trkpt>
      <trkpt lat="49.19765" lon="6.96543">
        <ele>322</ele>
        <time>2012-01-22T10:20:59Z</time>
      </trkpt>
      <trkpt lat="49.19764" lon="6.96543">
        <ele>322</ele>
        <time>2012-01-22T10:21:00Z</time>
      </trkpt>
      <trkpt lat="49.19763" lon="6.96543">
        <ele>322</ele>
        <time>2012-01-22T10:21:01Z</time>
      </trkpt>
      <trkpt lat="49.19762" lon="6.96543">
        <ele>322</ele>
        <time>2012-01-22T10:21:02Z</time>
      </trkpt>
      <trkpt lat="49.1976" lon="6.96543">
        <ele>322</ele>
        <time>2012-01-22T10:21:03Z</time>
      </trkpt>
      <trkpt lat="49.19758" lon="6.96543">
        <ele>322</ele>
        <time>2012-01-22T10:21:05Z</time>
      </trkpt>
      <trkpt lat="49.19757" lon="6.96543">
        <ele>322</ele>
        <time>2012-01-22T10:21:06Z</time>
      </trkpt>
      <trkpt lat="49.19756" lon="6.96543">
        <ele>322</ele>
        <time>2012-01-22T10:21:07Z</time>
      </trkpt>
      <trkpt lat="49.19754" lon="6.96543">
        <ele>322</ele>
        <time>2012-01-22T10:21:08Z</time>
      </trkpt>
      <trkpt lat="49.19753" lon="6.96543">
        <ele>322</ele>
        <time>2012-01-22T10:21:09Z</time>
      </trkpt>
      <trkpt lat="49.19752" lon="6.96543">
        <ele>322</ele>
        <time>2012-01-22T10:21:10Z</time>
      </trkpt>
      <trkpt lat="49.19751" lon="6.96543">
        <ele>322</ele>
        <time>2012-01-22T10:21:11Z</time>
      </trkpt>
      <trkpt lat="49.19749" lon="6.96543">
        <ele>322</ele>
        <time>2012-01-22T10:21:12Z</time>
      </trkpt>
      <trkpt lat="49.19748" lon="6.96544">
        <ele>322</ele>
        <time>2012-01-22T10:21:13Z</time>
      </trkpt>
      <trkpt lat="49.19747" lon="6.96544">
        <ele>322</ele>
        <time>2012-01-22T10:21:14Z</time>
      </trkpt>
      <trkpt lat="49.19746" lon="6.96544">
        <ele>322</ele>
        <time>2012-01-22T10:21:15Z</time>
      </trkpt>
      <trkpt lat="49.19743" lon="6.96545">
        <ele>322</ele>
        <time>2012-01-22T10:21:17Z</time>
      </trkpt>
      <trkpt lat="49.19741" lon="6.96546">
        <ele>322</ele>
        <time>2012-01-22T10:21:19Z</time>
      </trkpt>
      <trkpt lat="49.1974" lon="6.96547">
        <ele>322</ele>
        <time>2012-01-22T10:21:20Z</time>
      </trkpt>
      <trkpt lat="49.19739" lon="6.96547">
        <ele>322</ele>
        <time>2012-01-22T10:21:21Z</time>
      </trkpt>
      <trkpt lat="49.19738" lon="6.96548">
        <ele>322</ele>
        <time>2012-01-22T10:21:22Z</time>
      </trkpt>
      <trkpt lat="49.19736" lon="6.96549">
        <ele>322</ele>
        <time>2012-01-22T10:21:23Z</time>
      </trkpt>
      <trkpt lat="49.19735" lon="6.96549">
        <ele>322</ele>
        <time>2012-01-22T10:21:24Z</time>
      </trkpt>
      <trkpt lat="49.19734" lon="6.96549">
        <ele>322</ele>
        <time>2012-01-22T10:21:25Z</time>
      </trkpt>
      <trkpt lat="49.19732" lon="6.96549">
        <ele>322</ele>
        <time>2012-01-22T10:21:26Z</time>
      </trkpt>
      <trkpt lat="49.19731" lon="6.96549">
        <ele>322</ele>
        <time>2012-01-22T10:21:27Z</time>
      </trkpt>
      <trkpt lat="49.19729" lon="6.9655">
        <ele>322</ele>
        <time>2012-01-22T10:21:28Z</time>
      </trkpt>
      <trkpt lat="49.19728" lon="6.9655">
        <ele>322</ele>
        <time>2012-01-22T10:21:29Z</time>
      </trkpt>
      <trkpt lat="49.19726" lon="6.96551">
        <ele>322</ele>
        <time>2012-01-22T10:21:30Z</time>
      </trkpt>
      <trkpt lat="49.19725" lon="6.96552">
        <ele>322</ele>
        <time>2012-01-22T10:21:31Z</time>
      </trkpt>
      <trkpt lat="49.19724" lon="6.96552">
        <ele>322</ele>
        <time>2012-01-22T10:21:32Z</time>
      </trkpt>
      <trkpt lat="49.19722" lon="6.96552">
        <ele>322</ele>
        <time>2012-01-22T10:21:33Z</time>
      </trkpt>
      <trkpt lat="49.19721" lon="6.96552">
        <ele>322</ele>
        <time>2012-01-22T10:21:34Z</time>
      </trkpt>
      <trkpt lat="49.1972" lon="6.96553">
        <ele>322</ele>
        <time>2012-01-22T10:21:35Z</time>
      </trkpt>
      <trkpt lat="49.19719" lon="6.96553">
        <ele>322</ele>
        <time>2012-01-22T10:21:36Z</time>
      </trkpt>
      <trkpt lat="49.19718" lon="6.96553">
        <ele>322</ele>
        <time>2012-01-22T10:21:37Z</time>
      </trkpt>
      <trkpt lat="49.19717" lon="6.96554">
        <ele>322</ele>
        <time>2012-01-22T10:21:38Z</time>
      </trkpt>
      <trkpt lat="49.19714" lon="6.96555">
        <ele>322</ele>
        <time>2012-01-22T10:21:40Z</time>
      </trkpt>
      <trkpt lat="49.19713" lon="6.96556">
        <ele>322</ele>
        <time>2012-01-22T10:21:41Z</time>
      </trkpt>
      <trkpt lat="49.19712" lon="6.96558">
        <ele>322</ele>
        <time>2012-01-22T10:21:43Z</time>
      </trkpt>
      <trkpt lat="49.1971" lon="6.96558">
        <ele>322</ele>
        <time>2012-01-22T10:21:44Z</time>
      </trkpt>
      <trkpt lat="49.19709" lon="6.96559">
        <ele>322</ele>
        <time>2012-01-22T10:21:45Z</time>
      </trkpt>
      <trkpt lat="49.19708" lon="6.9656">
        <ele>322</ele>
        <time>2012-01-22T10:21:46Z</time>
      </trkpt>
      <trkpt lat="49.19707" lon="6.96561">
        <ele>322</ele>
        <time>2012-01-22T10:21:47Z</time>
      </trkpt>
      <trkpt lat="49.19706" lon="6.96562">
        <ele>322</ele>
        <time>2012-01-22T10:21:48Z</time>
      </trkpt>
      <trkpt lat="49.19704" lon="6.96562">
        <ele>322</ele>
        <time>2012-01-22T10:21:49Z</time>
      </trkpt>
      <trkpt lat="49.19703" lon="6.96563">
        <ele>322</ele>
        <time>2012-01-22T10:21:50Z</time>
      </trkpt>
      <trkpt lat="49.19702" lon="6.96564">
        <ele>322</ele>
        <time>2012-01-22T10:21:51Z</time>
      </trkpt>
      <trkpt lat="49.19701" lon="6.96565">
        <ele>322</ele>
        <time>2012-01-22T10:21:52Z</time>
      </trkpt>
      <trkpt lat="49.19699" lon="6.96566">
        <ele>322</ele>
        <time>2012-01-22T10:21:53Z</time>
      </trkpt>
      <trkpt lat="49.19698" lon="6.96567">
        <ele>322</ele>
        <time>2012-01-22T10:21:54Z</time>
      </trkpt>
      <trkpt lat="49.19696" lon="6.96569">
        <ele>322</ele>
        <time>2012-01-22T10:21:56Z</time>
      </trkpt>
      <trkpt lat="49.19695" lon="6.96571">
        <ele>322</ele>
        <time>2012-01-22T10:21:57Z</time>
      </trkpt>
      <trkpt lat="49.19692" lon="6.96571">
        <ele>322</ele>
        <time>2012-01-22T10:21:58Z</time>
      </trkpt>
      <trkpt lat="49.1969" lon="6.96571">
        <ele>322</ele>
        <time>2012-01-22T10:21:59Z</time>
      </trkpt>
      <trkpt lat="49.19689" lon="6.96572">
        <ele>322</ele>
        <time>2012-01-22T10:22:00Z</time>
      </trkpt>
      <trkpt lat="49.19688" lon="6.96573">
        <ele>322</ele>
        <time>2012-01-22T10:22:01Z</time>
      </trkpt>
      <trkpt lat="49.19687" lon="6.96575">
        <ele>322</ele>
        <time>2012-01-22T10:22:02Z</time>
      </trkpt>
      <trkpt lat="49.19685" lon="6.96576">
        <ele>322</ele>
        <time>2012-01-22T10:22:03Z</time>
      </trkpt>
      <trkpt lat="49.19683" lon="6.96579">
        <ele>322</ele>
        <time>2012-01-22T10:22:05Z</time>
      </trkpt>
      <trkpt lat="49.19682" lon="6.96581">
        <ele>322</ele>
        <time>2012-01-22T10:22:06Z</time>
      </trkpt>
      <trkpt lat="49.19681" lon="6.96581">
        <ele>322</ele>
        <time>2012-01-22T10:22:07Z</time>
      </trkpt>
      <trkpt lat="49.1968" lon="6.96583">
        <ele>322</ele>
        <time>2012-01-22T10:22:08Z</time>
      </trkpt>
      <trkpt lat="49.19679" lon="6.96585">
        <ele>322</ele>
        <time>2012-01-22T10:22:09Z</time>
      </trkpt>
      <trkpt lat="49.19677" lon="6.96588">
        <ele>322</ele>
        <time>2012-01-22T10:22:11Z</time>
      </trkpt>
      <trkpt lat="49.19677" lon="6.9659">
        <ele>322</ele>
        <time>2012-01-22T10:22:12Z</time>
      </trkpt>
      <trkpt lat="49.19676" lon="6.96592">
        <ele>322</ele>
        <time>2012-01-22T10:22:13Z</time>
      </trkpt>
      <trkpt lat="49.19675" lon="6.96593">
        <ele>322</ele>
        <time>2012-01-22T10:22:14Z</time>
      </trkpt>
      <trkpt lat="49.19675" lon="6.96595">
        <ele>322</ele>
        <time>2012-01-22T10:22:15Z</time>
      </trkpt>
      <trkpt lat="49.19674" lon="6.96597">
        <ele>322</ele>
        <time>2012-01-22T10:22:16Z</time>
      </trkpt>
      <trkpt lat="49.19673" lon="6.96599">
        <ele>322</ele>
        <time>2012-01-22T10:22:17Z</time>
      </trkpt>
      <trkpt lat="49.19672" lon="6.966">
        <ele>322</ele>
        <time>2012-01-22T10:22:18Z</time>
      </trkpt>
      <trkpt lat="49.19672" lon="6.96602">
        <ele>322</ele>
        <time>2012-01-22T10:22:19Z</time>
      </trkpt>
      <trkpt lat="49.19671" lon="6.96604">
        <ele>322</ele>
        <time>2012-01-22T10:22:20Z</time>
      </trkpt>
      <trkpt lat="49.1967" lon="6.96606">
        <ele>322</ele>
        <time>2012-01-22T10:22:21Z</time>
      </trkpt>
      <trkpt lat="49.1967" lon="6.96609">
        <ele>322</ele>
        <time>2012-01-22T10:22:22Z</time>
      </trkpt>
      <trkpt lat="49.19669" lon="6.96612">
        <ele>322</ele>
        <time>2012-01-22T10:22:24Z</time>
      </trkpt>
      <trkpt lat="49.19667" lon="6.96615">
        <ele>322</ele>
        <time>2012-01-22T10:22:26Z</time>
      </trkpt>
      <trkpt lat="49.19667" lon="6.96618">
        <ele>322</ele>
        <time>2012-01-22T10:22:27Z</time>
      </trkpt>
      <trkpt lat="49.19667" lon="6.96619">
        <ele>322</ele>
        <time>2012-01-22T10:22:28Z</time>
      </trkpt>
      <trkpt lat="49.19666" lon="6.96621">
        <ele>322</ele>
        <time>2012-01-22T10:22:29Z</time>
      </trkpt>
      <trkpt lat="49.19666" lon="6.96623">
        <ele>322</ele>
        <time>2012-01-22T10:22:30Z</time>
      </trkpt>
      <trkpt lat="49.19665" lon="6.96625">
        <ele>322</ele>
        <time>2012-01-22T10:22:31Z</time>
      </trkpt>
      <trkpt lat="49.19665" lon="6.96628">
        <ele>322</ele>
        <time>2012-01-22T10:22:32Z</time>
      </trkpt>
      <trkpt lat="49.19664" lon="6.96629">
        <ele>322</ele>
        <time>2012-01-22T10:22:33Z</time>
      </trkpt>
      <trkpt lat="49.19664" lon="6.96631">
        <ele>322</ele>
        <time>2012-01-22T10:22:34Z</time>
      </trkpt>
      <trkpt lat="49.19664" lon="6.96633">
        <ele>322</ele>
        <time>2012-01-22T10:22:35Z</time>
      </trkpt>
      <trkpt lat="49.19663" lon="6.96635">
        <ele>322</ele>
        <time>2012-01-22T10:22:36Z</time>
      </trkpt>
      <trkpt lat="49.19662" lon="6.96637">
        <ele>322</ele>
        <time>2012-01-22T10:22:37Z</time>
      </trkpt>
      <trkpt lat="49.19662" lon="6.96639">
        <ele>322</ele>
        <time>2012-01-22T10:22:38Z</time>
      </trkpt>
      <trkpt lat="49.19661" lon="6.96641">
        <ele>322</ele>
        <time>2012-01-22T10:22:39Z</time>
      </trkpt>
      <trkpt lat="49.19661" lon="6.96643">
        <ele>322</ele>
        <time>2012-01-22T10:22:40Z</time>
      </trkpt>
      <trkpt lat="49.19661" lon="6.96646">
        <ele>322</ele>
        <time>2012-01-22T10:22:41Z</time>
      </trkpt>
      <trkpt lat="49.19661" lon="6.96648">
        <ele>322</ele>
        <time>2012-01-22T10:22:42Z</time>
      </trkpt>
      <trkpt lat="49.1966" lon="6.96649">
        <ele>322</ele>
        <time>2012-01-22T10:22:43Z</time>
      </trkpt>
      <trkpt lat="49.19659" lon="6.96651">
        <ele>322</ele>
        <time>2012-01-22T10:22:44Z</time>
      </trkpt>
      <trkpt lat="49.19659" lon="6.96653">
        <ele>322</ele>
        <time>2012-01-22T10:22:45Z</time>
      </trkpt>
      <trkpt lat="49.19659" lon="6.96655">
        <ele>322</ele>
        <time>2012-01-22T10:22:46Z</time>
      </trkpt>
      <trkpt lat="49.19658" lon="6.96657">
        <ele>322</ele>
        <time>2012-01-22T10:22:47Z</time>
      </trkpt>
      <trkpt lat="49.19658" lon="6.96659">
        <ele>322</ele>
        <time>2012-01-22T10:22:48Z</time>
      </trkpt>
      <trkpt lat="49.19658" lon="6.96661">
        <ele>322</ele>
        <time>2012-01-22T10:22:49Z</time>
      </trkpt>
      <trkpt lat="49.19657" lon="6.96663">
        <ele>322</ele>
        <time>2012-01-22T10:22:50Z</time>
      </trkpt>
      <trkpt lat="49.19657" lon="6.96665">
        <ele>322</ele>
        <time>2012-01-22T10:22:51Z</time>
      </trkpt>
      <trkpt lat="49.19656" lon="6.96667">
        <ele>322</ele>
        <time>2012-01-22T10:22:52Z</time>
      </trkpt>
      <trkpt lat="49.19655" lon="6.96669">
        <ele>322</ele>
        <time>2012-01-22T10:22:53Z</time>
      </trkpt>
      <trkpt lat="49.19655" lon="6.96671">
        <ele>322</ele>
        <time>2012-01-22T10:22:54Z</time>
      </trkpt>
      <trkpt lat="49.19654" lon="6.96673">
        <ele>322</ele>
        <time>2012-01-22T10:22:55Z</time>
      </trkpt>
      <trkpt lat="49.19654" lon="6.96675">
        <ele>322</ele>
        <time>2012-01-22T10:22:56Z</time>
      </trkpt>
      <trkpt lat="49.19653" lon="6.96677">
        <ele>322</ele>
        <time>2012-01-22T10:22:57Z</time>
      </trkpt>
      <trkpt lat="49.19653" lon="6.96679">
        <ele>322</ele>
        <time>2012-01-22T10:22:58Z</time>
      </trkpt>
      <trkpt lat="49.19653" lon="6.96681">
        <ele>322</ele>
        <time>2012-01-22T10:22:59Z</time>
      </trkpt>
      <trkpt lat="49.19652" lon="6.96683">
        <ele>322</ele>
        <time>2012-01-22T10:23:00Z</time>
      </trkpt>
      <trkpt lat="49.19651" lon="6.96685">
        <ele>322</ele>
        <time>2012-01-22T10:23:01Z</time>
      </trkpt>
      <trkpt lat="49.19651" lon="6.96687">
        <ele>322</ele>
        <time>2012-01-22T10:23:02Z</time>
      </trkpt>
      <trkpt lat="49.19651" lon="6.96689">
        <ele>322</ele>
        <time>2012-01-22T10:23:03Z</time>
      </trkpt>
      <trkpt lat="49.19649" lon="6.96692">
        <ele>322</ele>
        <time>2012-01-22T10:23:05Z</time>
      </trkpt>
      <trkpt lat="49.19648" lon="6.96694">
        <ele>322</ele>
        <time>2012-01-22T10:23:06Z</time>
      </trkpt>
      <trkpt lat="49.19648" lon="6.96695">
        <ele>322</ele>
        <time>2012-01-22T10:23:07Z</time>
      </trkpt>
      <trkpt lat="49.19647" lon="6.96698">
        <ele>322</ele>
        <time>2012-01-22T10:23:09Z</time>
      </trkpt>
      <trkpt lat="49.19646" lon="6.967">
        <ele>322</ele>
        <time>2012-01-22T10:23:10Z</time>
      </trkpt>
      <trkpt lat="49.19645" lon="6.96702">
        <ele>322</ele>
        <time>2012-01-22T10:23:11Z</time>
      </trkpt>
      <trkpt lat="49.19645" lon="6.96703">
        <ele>322</ele>
        <time>2012-01-22T10:23:12Z</time>
      </trkpt>
      <trkpt lat="49.19645" lon="6.96705">
        <ele>322</ele>
        <time>2012-01-22T10:23:13Z</time>
      </trkpt>
      <trkpt lat="49.19644" lon="6.96707">
        <ele>322</ele>
        <time>2012-01-22T10:23:14Z</time>
      </trkpt>
      <trkpt lat="49.19644" lon="6.96709">
        <ele>322</ele>
        <time>2012-01-22T10:23:15Z</time>
      </trkpt>
      <trkpt lat="49.19643" lon="6.96711">
        <ele>322</ele>
        <time>2012-01-22T10:23:17Z</time>
      </trkpt>
      <trkpt lat="49.19642" lon="6.96714">
        <ele>322</ele>
        <time>2012-01-22T10:23:19Z</time>
      </trkpt>
      <trkpt lat="49.19641" lon="6.96716">
        <ele>322</ele>
        <time>2012-01-22T10:23:20Z</time>
      </trkpt>
      <trkpt lat="49.1964" lon="6.96718">
        <ele>322</ele>
        <time>2012-01-22T10:23:21Z</time>
      </trkpt>
      <trkpt lat="49.19638" lon="6.96721">
        <ele>322</ele>
        <time>2012-01-22T10:23:23Z</time>
      </trkpt>
      <trkpt lat="49.19638" lon="6.96722">
        <ele>322</ele>
        <time>2012-01-22T10:23:24Z</time>
      </trkpt>
      <trkpt lat="49.19637" lon="6.96724">
        <ele>322</ele>
        <time>2012-01-22T10:23:25Z</time>
      </trkpt>
      <trkpt lat="49.19636" lon="6.96726">
        <ele>322</ele>
        <time>2012-01-22T10:23:26Z</time>
      </trkpt>
      <trkpt lat="49.19635" lon="6.96727">
        <ele>322</ele>
        <time>2012-01-22T10:23:27Z</time>
      </trkpt>
      <trkpt lat="49.19634" lon="6.96729">
        <ele>322</ele>
        <time>2012-01-22T10:23:28Z</time>
      </trkpt>
      <trkpt lat="49.19633" lon="6.96731">
        <ele>322</ele>
        <time>2012-01-22T10:23:29Z</time>
      </trkpt>
      <trkpt lat="49.19631" lon="6.96735">
        <ele>322</ele>
        <time>2012-01-22T10:23:31Z</time>
      </trkpt>
      <trkpt lat="49.1963" lon="6.96736">
        <ele>322</ele>
        <time>2012-01-22T10:23:32Z</time>
      </trkpt>
      <trkpt lat="49.19629" lon="6.96738">
        <ele>322</ele>
        <time>2012-01-22T10:23:33Z</time>
      </trkpt>
      <trkpt lat="49.19628" lon="6.96739">
        <ele>322</ele>
        <time>2012-01-22T10:23:34Z</time>
      </trkpt>
      <trkpt lat="49.19627" lon="6.9674">
        <ele>322</ele>
        <time>2012-01-22T10:23:35Z</time>
      </trkpt>
      <trkpt lat="49.19625" lon="6.96743">
        <ele>322</ele>
        <time>2012-01-22T10:23:37Z</time>
      </trkpt>
      <trkpt lat="49.19624" lon="6.96745">
        <ele>322</ele>
        <time>2012-01-22T10:23:38Z</time>
      </trkpt>
      <trkpt lat="49.19622" lon="6.96746">
        <ele>322</ele>
        <time>2012-01-22T10:23:39Z</time>
      </trkpt>
      <trkpt lat="49.19621" lon="6.96747">
        <ele>322</ele>
        <time>2012-01-22T10:23:40Z</time>
      </trkpt>
      <trkpt lat="49.1962" lon="6.96748">
        <ele>322</ele>
        <time>2012-01-22T10:23:41Z</time>
      </trkpt>
      <trkpt lat="49.19619" lon="6.96749">
        <ele>322</ele>
        <time>2012-01-22T10:23:42Z</time>
      </trkpt>
      <trkpt lat="49.19617" lon="6.96751">
        <ele>322</ele>
        <time>2012-01-22T10:23:44Z</time>
      </trkpt>
      <trkpt lat="49.19615" lon="6.96752">
        <ele>322</ele>
        <time>2012-01-22T10:23:45Z</time>
      </trkpt>
      <trkpt lat="49.19614" lon="6.96752">
        <ele>322</ele>
        <time>2012-01-22T10:23:46Z</time>
      </trkpt>
      <trkpt lat="49.19613" lon="6.96754">
        <ele>322</ele>
        <time>2012-01-22T10:23:47Z</time>
      </trkpt>
      <trkpt lat="49.19611" lon="6.96755">
        <ele>322</ele>
        <time>2012-01-22T10:23:48Z</time>
      </trkpt>
      <trkpt lat="49.1961" lon="6.96756">
        <ele>322</ele>
        <time>2012-01-22T10:23:49Z</time>
      </trkpt>
      <trkpt lat="49.19609" lon="6.96757">
        <ele>322</ele>
        <time>2012-01-22T10:23:50Z</time>
      </trkpt>
      <trkpt lat="49.19608" lon="6.96758">
        <ele>322</ele>
        <time>2012-01-22T10:23:51Z</time>
      </trkpt>
      <trkpt lat="49.19607" lon="6.96758">
        <ele>322</ele>
        <time>2012-01-22T10:23:52Z</time>
      </trkpt>
      <trkpt lat="49.19606" lon="6.96759">
        <ele>322</ele>
        <time>2012-01-22T10:23:53Z</time>
      </trkpt>
      <trkpt lat="49.19604" lon="6.96759">
        <ele>322</ele>
        <time>2012-01-22T10:23:54Z</time>
      </trkpt>
      <trkpt lat="49.19603" lon="6.96759">
        <ele>322</ele>
        <time>2012-01-22T10:23:55Z</time>
      </trkpt>
      <trkpt lat="49.19601" lon="6.9676">
        <ele>322</ele>
        <time>2012-01-22T10:23:56Z</time>
      </trkpt>
      <trkpt lat="49.196" lon="6.9676">
        <ele>322</ele>
        <time>2012-01-22T10:23:57Z</time>
      </trkpt>
      <trkpt lat="49.19599" lon="6.9676">
        <ele>321</ele>
        <time>2012-01-22T10:23:58Z</time>
      </trkpt>
      <trkpt lat="49.19597" lon="6.9676">
        <ele>321</ele>
        <time>2012-01-22T10:23:59Z</time>
      </trkpt>
      <trkpt lat="49.19596" lon="6.9676">
        <ele>321</ele>
        <time>2012-01-22T10:24:00Z</time>
      </trkpt>
      <trkpt lat="49.19594" lon="6.9676">
        <ele>321</ele>
        <time>2012-01-22T10:24:01Z</time>
      </trkpt>
      <trkpt lat="49.19593" lon="6.9676">
        <ele>321</ele>
        <time>2012-01-22T10:24:02Z</time>
      </trkpt>
      <trkpt lat="49.19592" lon="6.96761">
        <ele>321</ele>
        <time>2012-01-22T10:24:03Z</time>
      </trkpt>
      <trkpt lat="49.1959" lon="6.96761">
        <ele>321</ele>
        <time>2012-01-22T10:24:04Z</time>
      </trkpt>
      <trkpt lat="49.19588" lon="6.96761">
        <ele>321</ele>
        <time>2012-01-22T10:24:05Z</time>
      </trkpt>
      <trkpt lat="49.19587" lon="6.96761">
        <ele>321</ele>
        <time>2012-01-22T10:24:06Z</time>
      </trkpt>
      <trkpt lat="49.19585" lon="6.96762">
        <ele>321</ele>
        <time>2012-01-22T10:24:07Z</time>
      </trkpt>
      <trkpt lat="49.19584" lon="6.96762">
        <ele>321</ele>
        <time>2012-01-22T10:24:08Z</time>
      </trkpt>
      <trkpt lat="49.19582" lon="6.96762">
        <ele>321</ele>
        <time>2012-01-22T10:24:09Z</time>
      </trkpt>
      <trkpt lat="49.19581" lon="6.96762">
        <ele>321</ele>
        <time>2012-01-22T10:24:10Z</time>
      </trkpt>
      <trkpt lat="49.19579" lon="6.96762">
        <ele>321</ele>
        <time>2012-01-22T10:24:11Z</time>
      </trkpt>
      <trkpt lat="49.19578" lon="6.96763">
        <ele>320</ele>
        <time>2012-01-22T10:24:12Z</time>
      </trkpt>
      <trkpt lat="49.19577" lon="6.96763">
        <ele>320</ele>
        <time>2012-01-22T10:24:13Z</time>
      </trkpt>
      <trkpt lat="49.19575" lon="6.96763">
        <ele>320</ele>
        <time>2012-01-22T10:24:14Z</time>
      </trkpt>
      <trkpt lat="49.19574" lon="6.96763">
        <ele>320</ele>
        <time>2012-01-22T10:24:15Z</time>
      </trkpt>
      <trkpt lat="49.19572" lon="6.96763">
        <ele>320</ele>
        <time>2012-01-22T10:24:16Z</time>
      </trkpt>
      <trkpt lat="49.19571" lon="6.96764">
        <ele>320</ele>
        <time>2012-01-22T10:24:17Z</time>
      </trkpt>
      <trkpt lat="49.19569" lon="6.96764">
        <ele>320</ele>
        <time>2012-01-22T10:24:18Z</time>
      </trkpt>
      <trkpt lat="49.19568" lon="6.96764">
        <ele>320</ele>
        <time>2012-01-22T10:24:19Z</time>
      </trkpt>
      <trkpt lat="49.19566" lon="6.96764">
        <ele>319</ele>
        <time>2012-01-22T10:24:20Z</time>
      </trkpt>
      <trkpt lat="49.19565" lon="6.96764">
        <ele>319</ele>
        <time>2012-01-22T10:24:21Z</time>
      </trkpt>
      <trkpt lat="49.19564" lon="6.96764">
        <ele>319</ele>
        <time>2012-01-22T10:24:22Z</time>
      </trkpt>
      <trkpt lat="49.19562" lon="6.96764">
        <ele>319</ele>
        <time>2012-01-22T10:24:23Z</time>
      </trkpt>
      <trkpt lat="49.19561" lon="6.96765">
        <ele>319</ele>
        <time>2012-01-22T10:24:24Z</time>
      </trkpt>
      <trkpt lat="49.1956" lon="6.96765">
        <ele>319</ele>
        <time>2012-01-22T10:24:25Z</time>
      </trkpt>
      <trkpt lat="49.19558" lon="6.96765">
        <ele>319</ele>
        <time>2012-01-22T10:24:26Z</time>
      </trkpt>
      <trkpt lat="49.19557" lon="6.96765">
        <ele>319</ele>
        <time>2012-01-22T10:24:27Z</time>
      </trkpt>
      <trkpt lat="49.19554" lon="6.96766">
        <ele>318</ele>
        <time>2012-01-22T10:24:29Z</time>
      </trkpt>
      <trkpt lat="49.19553" lon="6.96766">
        <ele>318</ele>
        <time>2012-01-22T10:24:30Z</time>
      </trkpt>
      <trkpt lat="49.19551" lon="6.96766">
        <ele>318</ele>
        <time>2012-01-22T10:24:31Z</time>
      </trkpt>
      <trkpt lat="49.1955" lon="6.96767">
        <ele>318</ele>
        <time>2012-01-22T10:24:32Z</time>
      </trkpt>
      <trkpt lat="49.19549" lon="6.96767">
        <ele>318</ele>
        <time>2012-01-22T10:24:33Z</time>
      </trkpt>
      <trkpt lat="49.19547" lon="6.96767">
        <ele>318</ele>
        <time>2012-01-22T10:24:34Z</time>
      </trkpt>
      <trkpt lat="49.19546" lon="6.96767">
        <ele>318</ele>
        <time>2012-01-22T10:24:35Z</time>
      </trkpt>
      <trkpt lat="49.19545" lon="6.96767">
        <ele>318</ele>
        <time>2012-01-22T10:24:36Z</time>
      </trkpt>
      <trkpt lat="49.19543" lon="6.96767">
        <ele>318</ele>
        <time>2012-01-22T10:24:37Z</time>
      </trkpt>
      <trkpt lat="49.19541" lon="6.96767">
        <ele>317</ele>
        <time>2012-01-22T10:24:39Z</time>
      </trkpt>
      <trkpt lat="49.1954" lon="6.96767">
        <ele>317</ele>
        <time>2012-01-22T10:24:40Z</time>
      </trkpt>
      <trkpt lat="49.19538" lon="6.96767">
        <ele>317</ele>
        <time>2012-01-22T10:24:41Z</time>
      </trkpt>
      <trkpt lat="49.19537" lon="6.96766">
        <ele>317</ele>
        <time>2012-01-22T10:24:42Z</time>
      </trkpt>
      <trkpt lat="49.19535" lon="6.96766">
        <ele>317</ele>
        <time>2012-01-22T10:24:43Z</time>
      </trkpt>
      <trkpt lat="49.19533" lon="6.96766">
        <ele>317</ele>
        <time>2012-01-22T10:24:44Z</time>
      </trkpt>
      <trkpt lat="49.19532" lon="6.96766">
        <ele>317</ele>
        <time>2012-01-22T10:24:45Z</time>
      </trkpt>
      <trkpt lat="49.1953" lon="6.96766">
        <ele>317</ele>
        <time>2012-01-22T10:24:46Z</time>
      </trkpt>
      <trkpt lat="49.19529" lon="6.96766">
        <ele>317</ele>
        <time>2012-01-22T10:24:47Z</time>
      </trkpt>
      <trkpt lat="49.19527" lon="6.96766">
        <ele>317</ele>
        <time>2012-01-22T10:24:48Z</time>
      </trkpt>
      <trkpt lat="49.19526" lon="6.96767">
        <ele>317</ele>
        <time>2012-01-22T10:24:49Z</time>
      </trkpt>
      <trkpt lat="49.19525" lon="6.96767">
        <ele>317</ele>
        <time>2012-01-22T10:24:50Z</time>
      </trkpt>
      <trkpt lat="49.19523" lon="6.96767">
        <ele>317</ele>
        <time>2012-01-22T10:24:51Z</time>
      </trkpt>
      <trkpt lat="49.19522" lon="6.96767">
        <ele>317</ele>
        <time>2012-01-22T10:24:52Z</time>
      </trkpt>
      <trkpt lat="49.19521" lon="6.96767">
        <ele>317</ele>
        <time>2012-01-22T10:24:53Z</time>
      </trkpt>
      <trkpt lat="49.19519" lon="6.96767">
        <ele>317</ele>
        <time>2012-01-22T10:24:54Z</time>
      </trkpt>
      <trkpt lat="49.19518" lon="6.96767">
        <ele>317</ele>
        <time>2012-01-22T10:24:55Z</time>
      </trkpt>
      <trkpt lat="49.19516" lon="6.96767">
        <ele>317</ele>
        <time>2012-01-22T10:24:56Z</time>
      </trkpt>
      <trkpt lat="49.19514" lon="6.96767">
        <ele>317</ele>
        <time>2012-01-22T10:24:57Z</time>
      </trkpt>
      <trkpt lat="49.19513" lon="6.96767">
        <ele>317</ele>
        <time>2012-01-22T10:24:58Z</time>
      </trkpt>
      <trkpt lat="49.19511" lon="6.96767">
        <ele>317</ele>
        <time>2012-01-22T10:24:59Z</time>
      </trkpt>
      <trkpt lat="49.1951" lon="6.96767">
        <ele>316</ele>
        <time>2012-01-22T10:25:00Z</time>
      </trkpt>
      <trkpt lat="49.19509" lon="6.96767">
        <ele>316</ele>
        <time>2012-01-22T10:25:01Z</time>
      </trkpt>
      <trkpt lat="49.19508" lon="6.96767">
        <ele>316</ele>
        <time>2012-01-22T10:25:02Z</time>
      </trkpt>
      <trkpt lat="49.19506" lon="6.96767">
        <ele>316</ele>
        <time>2012-01-22T10:25:03Z</time>
      </trkpt>
      <trkpt lat="49.19505" lon="6.96767">
        <ele>315</ele>
        <time>2012-01-22T10:25:04Z</time>
      </trkpt>
      <trkpt lat="49.19503" lon="6.96767">
        <ele>315</ele>
        <time>2012-01-22T10:25:05Z</time>
      </trkpt>
      <trkpt lat="49.19502" lon="6.96766">
        <ele>315</ele>
        <time>2012-01-22T10:25:06Z</time>
      </trkpt>
      <trkpt lat="49.19501" lon="6.96766">
        <ele>315</ele>
        <time>2012-01-22T10:25:07Z</time>
      </trkpt>
      <trkpt lat="49.195" lon="6.96765">
        <ele>315</ele>
        <time>2012-01-22T10:25:08Z</time>
      </trkpt>
      <trkpt lat="49.19498" lon="6.96765">
        <ele>315</ele>
        <time>2012-01-22T10:25:09Z</time>
      </trkpt>
      <trkpt lat="49.19497" lon="6.96764">
        <ele>315</ele>
        <time>2012-01-22T10:25:10Z</time>
      </trkpt>
      <trkpt lat="49.19495" lon="6.96764">
        <ele>315</ele>
        <time>2012-01-22T10:25:11Z</time>
      </trkpt>
      <trkpt lat="49.19494" lon="6.96763">
        <ele>315</ele>
        <time>2012-01-22T10:25:12Z</time>
      </trkpt>
      <trkpt lat="49.19492" lon="6.96763">
        <ele>315</ele>
        <time>2012-01-22T10:25:13Z</time>
      </trkpt>
      <trkpt lat="49.19491" lon="6.96762">
        <ele>315</ele>
        <time>2012-01-22T10:25:14Z</time>
      </trkpt>
      <trkpt lat="49.1949" lon="6.96761">
        <ele>315</ele>
        <time>2012-01-22T10:25:15Z</time>
      </trkpt>
      <trkpt lat="49.19488" lon="6.96761">
        <ele>315</ele>
        <time>2012-01-22T10:25:16Z</time>
      </trkpt>
      <trkpt lat="49.19486" lon="6.9676">
        <ele>315</ele>
        <time>2012-01-22T10:25:17Z</time>
      </trkpt>
      <trkpt lat="49.19485" lon="6.96759">
        <ele>314</ele>
        <time>2012-01-22T10:25:18Z</time>
      </trkpt>
      <trkpt lat="49.19483" lon="6.96759">
        <ele>314</ele>
        <time>2012-01-22T10:25:19Z</time>
      </trkpt>
      <trkpt lat="49.19482" lon="6.96758">
        <ele>314</ele>
        <time>2012-01-22T10:25:20Z</time>
      </trkpt>
      <trkpt lat="49.19481" lon="6.96758">
        <ele>314</ele>
        <time>2012-01-22T10:25:21Z</time>
      </trkpt>
      <trkpt lat="49.19479" lon="6.96757">
        <ele>314</ele>
        <time>2012-01-22T10:25:22Z</time>
      </trkpt>
      <trkpt lat="49.19478" lon="6.96756">
        <ele>314</ele>
        <time>2012-01-22T10:25:23Z</time>
      </trkpt>
      <trkpt lat="49.19476" lon="6.96756">
        <ele>314</ele>
        <time>2012-01-22T10:25:24Z</time>
      </trkpt>
      <trkpt lat="49.19474" lon="6.96755">
        <ele>314</ele>
        <time>2012-01-22T10:25:25Z</time>
      </trkpt>
      <trkpt lat="49.19473" lon="6.96754">
        <ele>314</ele>
        <time>2012-01-22T10:25:26Z</time>
      </trkpt>
      <trkpt lat="49.19471" lon="6.96753">
        <ele>314</ele>
        <time>2012-01-22T10:25:27Z</time>
      </trkpt>
      <trkpt lat="49.1947" lon="6.96753">
        <ele>314</ele>
        <time>2012-01-22T10:25:28Z</time>
      </trkpt>
      <trkpt lat="49.19468" lon="6.96752">
        <ele>314</ele>
        <time>2012-01-22T10:25:29Z</time>
      </trkpt>
      <trkpt lat="49.19467" lon="6.96751">
        <ele>314</ele>
        <time>2012-01-22T10:25:30Z</time>
      </trkpt>
      <trkpt lat="49.19466" lon="6.9675">
        <ele>314</ele>
        <time>2012-01-22T10:25:31Z</time>
      </trkpt>
      <trkpt lat="49.19464" lon="6.9675">
        <ele>314</ele>
        <time>2012-01-22T10:25:32Z</time>
      </trkpt>
      <trkpt lat="49.19463" lon="6.96749">
        <ele>314</ele>
        <time>2012-01-22T10:25:33Z</time>
      </trkpt>
      <trkpt lat="49.19462" lon="6.96748">
        <ele>314</ele>
        <time>2012-01-22T10:25:34Z</time>
      </trkpt>
      <trkpt lat="49.1946" lon="6.96748">
        <ele>314</ele>
        <time>2012-01-22T10:25:35Z</time>
      </trkpt>
      <trkpt lat="49.19458" lon="6.96747">
        <ele>314</ele>
        <time>2012-01-22T10:25:36Z</time>
      </trkpt>
      <trkpt lat="49.19456" lon="6.96746">
        <ele>314</ele>
        <time>2012-01-22T10:25:38Z</time>
      </trkpt>
      <trkpt lat="49.19455" lon="6.96746">
        <ele>314</ele>
        <time>2012-01-22T10:25:39Z</time>
      </trkpt>
      <trkpt lat="49.19453" lon="6.96745">
        <ele>314</ele>
        <time>2012-01-22T10:25:40Z</time>
      </trkpt>
      <trkpt lat="49.19452" lon="6.96745">
        <ele>314</ele>
        <time>2012-01-22T10:25:41Z</time>
      </trkpt>
      <trkpt lat="49.1945" lon="6.96745">
        <ele>314</ele>
        <time>2012-01-22T10:25:42Z</time>
      </trkpt>
      <trkpt lat="49.19449" lon="6.96744">
        <ele>314</ele>
        <time>2012-01-22T10:25:43Z</time>
      </trkpt>
      <trkpt lat="49.19447" lon="6.96744">
        <ele>314</ele>
        <time>2012-01-22T10:25:44Z</time>
      </trkpt>
      <trkpt lat="49.19446" lon="6.96743">
        <ele>314</ele>
        <time>2012-01-22T10:25:45Z</time>
      </trkpt>
      <trkpt lat="49.19445" lon="6.96743">
        <ele>314</ele>
        <time>2012-01-22T10:25:46Z</time>
      </trkpt>
      <trkpt lat="49.19444" lon="6.96742">
        <ele>314</ele>
        <time>2012-01-22T10:25:47Z</time>
      </trkpt>
      <trkpt lat="49.19442" lon="6.96741">
        <ele>314</ele>
        <time>2012-01-22T10:25:48Z</time>
      </trkpt>
      <trkpt lat="49.19441" lon="6.96741">
        <ele>314</ele>
        <time>2012-01-22T10:25:49Z</time>
      </trkpt>
      <trkpt lat="49.19439" lon="6.9674">
        <ele>314</ele>
        <time>2012-01-22T10:25:50Z</time>
      </trkpt>
      <trkpt lat="49.19437" lon="6.96739">
        <ele>314</ele>
        <time>2012-01-22T10:25:51Z</time>
      </trkpt>
      <trkpt lat="49.19436" lon="6.96738">
        <ele>314</ele>
        <time>2012-01-22T10:25:52Z</time>
      </trkpt>
      <trkpt lat="49.19434" lon="6.96737">
        <ele>314</ele>
        <time>2012-01-22T10:25:53Z</time>
      </trkpt>
      <trkpt lat="49.19433" lon="6.96737">
        <ele>314</ele>
        <time>2012-01-22T10:25:54Z</time>
      </trkpt>
      <trkpt lat="49.19431" lon="6.96736">
        <ele>314</ele>
        <time>2012-01-22T10:25:55Z</time>
      </trkpt>
      <trkpt lat="49.1943" lon="6.96735">
        <ele>314</ele>
        <time>2012-01-22T10:25:56Z</time>
      </trkpt>
      <trkpt lat="49.19428" lon="6.96734">
        <ele>314</ele>
        <time>2012-01-22T10:25:57Z</time>
      </trkpt>
      <trkpt lat="49.19426" lon="6.96732">
        <ele>314</ele>
        <time>2012-01-22T10:25:58Z</time>
      </trkpt>
      <trkpt lat="49.19424" lon="6.96732">
        <ele>314</ele>
        <time>2012-01-22T10:25:59Z</time>
      </trkpt>
      <trkpt lat="49.19423" lon="6.96731">
        <ele>314</ele>
        <time>2012-01-22T10:26:00Z</time>
      </trkpt>
      <trkpt lat="49.19421" lon="6.96731">
        <ele>314</ele>
        <time>2012-01-22T10:26:01Z</time>
      </trkpt>
      <trkpt lat="49.1942" lon="6.9673">
        <ele>314</ele>
        <time>2012-01-22T10:26:02Z</time>
      </trkpt>
      <trkpt lat="49.19418" lon="6.9673">
        <ele>314</ele>
        <time>2012-01-22T10:26:03Z</time>
      </trkpt>
      <trkpt lat="49.19417" lon="6.96729">
        <ele>314</ele>
        <time>2012-01-22T10:26:04Z</time>
      </trkpt>
      <trkpt lat="49.19416" lon="6.96729">
        <ele>314</ele>
        <time>2012-01-22T10:26:05Z</time>
      </trkpt>
      <trkpt lat="49.19414" lon="6.96728">
        <ele>314</ele>
        <time>2012-01-22T10:26:07Z</time>
      </trkpt>
      <trkpt lat="49.19412" lon="6.96726">
        <ele>314</ele>
        <time>2012-01-22T10:26:08Z</time>
      </trkpt>
      <trkpt lat="49.19411" lon="6.96726">
        <ele>314</ele>
        <time>2012-01-22T10:26:09Z</time>
      </trkpt>
      <trkpt lat="49.1941" lon="6.96725">
        <ele>314</ele>
        <time>2012-01-22T10:26:10Z</time>
      </trkpt>
      <trkpt lat="49.19408" lon="6.96724">
        <ele>314</ele>
        <time>2012-01-22T10:26:12Z</time>
      </trkpt>
      <trkpt lat="49.19407" lon="6.96722">
        <ele>314</ele>
        <time>2012-01-22T10:26:13Z</time>
      </trkpt>
      <trkpt lat="49.19405" lon="6.96721">
        <ele>314</ele>
        <time>2012-01-22T10:26:14Z</time>
      </trkpt>
      <trkpt lat="49.19403" lon="6.96721">
        <ele>314</ele>
        <time>2012-01-22T10:26:15Z</time>
      </trkpt>
      <trkpt lat="49.19402" lon="6.9672">
        <ele>314</ele>
        <time>2012-01-22T10:26:16Z</time>
      </trkpt>
      <trkpt lat="49.19401" lon="6.9672">
        <ele>314</ele>
        <time>2012-01-22T10:26:17Z</time>
      </trkpt>
      <trkpt lat="49.194" lon="6.9672">
        <ele>314</ele>
        <time>2012-01-22T10:26:18Z</time>
      </trkpt>
      <trkpt lat="49.19397" lon="6.96719">
        <ele>314</ele>
        <time>2012-01-22T10:26:20Z</time>
      </trkpt>
      <trkpt lat="49.19395" lon="6.96718">
        <ele>314</ele>
        <time>2012-01-22T10:26:22Z</time>
      </trkpt>
      <trkpt lat="49.19393" lon="6.96718">
        <ele>314</ele>
        <time>2012-01-22T10:26:23Z</time>
      </trkpt>
      <trkpt lat="49.19392" lon="6.96717">
        <ele>314</ele>
        <time>2012-01-22T10:26:24Z</time>
      </trkpt>
      <trkpt lat="49.1939" lon="6.96717">
        <ele>314</ele>
        <time>2012-01-22T10:26:25Z</time>
      </trkpt>
      <trkpt lat="49.19389" lon="6.96716">
        <ele>313</ele>
        <time>2012-01-22T10:26:26Z</time>
      </trkpt>
      <trkpt lat="49.19388" lon="6.96716">
        <ele>313</ele>
        <time>2012-01-22T10:26:27Z</time>
      </trkpt>
      <trkpt lat="49.19387" lon="6.96716">
        <ele>313</ele>
        <time>2012-01-22T10:26:28Z</time>
      </trkpt>
      <trkpt lat="49.19385" lon="6.96716">
        <ele>313</ele>
        <time>2012-01-22T10:26:29Z</time>
      </trkpt>
      <trkpt lat="49.19384" lon="6.96715">
        <ele>313</ele>
        <time>2012-01-22T10:26:30Z</time>
      </trkpt>
      <trkpt lat="49.19382" lon="6.96715">
        <ele>313</ele>
        <time>2012-01-22T10:26:31Z</time>
      </trkpt>
      <trkpt lat="49.19381" lon="6.96713">
        <ele>313</ele>
        <time>2012-01-22T10:26:32Z</time>
      </trkpt>
      <trkpt lat="49.19379" lon="6.96713">
        <ele>313</ele>
        <time>2012-01-22T10:26:33Z</time>
      </trkpt>
      <trkpt lat="49.19378" lon="6.96713">
        <ele>313</ele>
        <time>2012-01-22T10:26:34Z</time>
      </trkpt>
      <trkpt lat="49.19377" lon="6.96711">
        <ele>313</ele>
        <time>2012-01-22T10:26:35Z</time>
      </trkpt>
      <trkpt lat="49.19375" lon="6.96711">
        <ele>313</ele>
        <time>2012-01-22T10:26:36Z</time>
      </trkpt>
      <trkpt lat="49.19374" lon="6.96711">
        <ele>312</ele>
        <time>2012-01-22T10:26:37Z</time>
      </trkpt>
      <trkpt lat="49.19373" lon="6.9671">
        <ele>312</ele>
        <time>2012-01-22T10:26:38Z</time>
      </trkpt>
      <trkpt lat="49.19372" lon="6.9671">
        <ele>312</ele>
        <time>2012-01-22T10:26:39Z</time>
      </trkpt>
      <trkpt lat="49.19368" lon="6.96712">
        <ele>311</ele>
        <time>2012-01-22T10:26:42Z</time>
      </trkpt>
      <trkpt lat="49.19367" lon="6.96713">
        <ele>311</ele>
        <time>2012-01-22T10:26:43Z</time>
      </trkpt>
      <trkpt lat="49.19365" lon="6.96713">
        <ele>311</ele>
        <time>2012-01-22T10:26:44Z</time>
      </trkpt>
      <trkpt lat="49.19364" lon="6.96712">
        <ele>310</ele>
        <time>2012-01-22T10:26:45Z</time>
      </trkpt>
      <trkpt lat="49.19362" lon="6.96711">
        <ele>310</ele>
        <time>2012-01-22T10:26:46Z</time>
      </trkpt>
      <trkpt lat="49.1936" lon="6.96709">
        <ele>310</ele>
        <time>2012-01-22T10:26:47Z</time>
      </trkpt>
      <trkpt lat="49.19358" lon="6.96709">
        <ele>310</ele>
        <time>2012-01-22T10:26:48Z</time>
      </trkpt>
      <trkpt lat="49.19357" lon="6.96708">
        <ele>310</ele>
        <time>2012-01-22T10:26:49Z</time>
      </trkpt>
      <trkpt lat="49.19355" lon="6.96707">
        <ele>310</ele>
        <time>2012-01-22T10:26:50Z</time>
      </trkpt>
      <trkpt lat="49.19353" lon="6.96706">
        <ele>310</ele>
        <time>2012-01-22T10:26:51Z</time>
      </trkpt>
      <trkpt lat="49.19352" lon="6.96705">
        <ele>310</ele>
        <time>2012-01-22T10:26:52Z</time>
      </trkpt>
      <trkpt lat="49.19351" lon="6.96704">
        <ele>310</ele>
        <time>2012-01-22T10:26:53Z</time>
      </trkpt>
      <trkpt lat="49.19349" lon="6.96703">
        <ele>310</ele>
        <time>2012-01-22T10:26:54Z</time>
      </trkpt>
      <trkpt lat="49.19348" lon="6.96703">
        <ele>310</ele>
        <time>2012-01-22T10:26:55Z</time>
      </trkpt>
      <trkpt lat="49.19346" lon="6.96702">
        <ele>310</ele>
        <time>2012-01-22T10:26:57Z</time>
      </trkpt>
      <trkpt lat="49.19345" lon="6.96702">
        <ele>310</ele>
        <time>2012-01-22T10:26:59Z</time>
      </trkpt>
      <trkpt lat="49.19343" lon="6.96701">
        <ele>310</ele>
        <time>2012-01-22T10:27:01Z</time>
      </trkpt>
      <trkpt lat="49.19342" lon="6.96701">
        <ele>310</ele>
        <time>2012-01-22T10:27:02Z</time>
      </trkpt>
      <trkpt lat="49.1934" lon="6.96701">
        <ele>310</ele>
        <time>2012-01-22T10:27:03Z</time>
      </trkpt>
      <trkpt lat="49.19338" lon="6.967">
        <ele>310</ele>
        <time>2012-01-22T10:27:05Z</time>
      </trkpt>
      <trkpt lat="49.19337" lon="6.967">
        <ele>310</ele>
        <time>2012-01-22T10:27:06Z</time>
      </trkpt>
      <trkpt lat="49.19334" lon="6.96699">
        <ele>310</ele>
        <time>2012-01-22T10:27:08Z</time>
      </trkpt>
      <trkpt lat="49.19333" lon="6.96699">
        <ele>309</ele>
        <time>2012-01-22T10:27:09Z</time>
      </trkpt>
      <trkpt lat="49.19332" lon="6.96699">
        <ele>309</ele>
        <time>2012-01-22T10:27:10Z</time>
      </trkpt>
      <trkpt lat="49.1933" lon="6.96699">
        <ele>308</ele>
        <time>2012-01-22T10:27:11Z</time>
      </trkpt>
      <trkpt lat="49.19328" lon="6.96698">
        <ele>308</ele>
        <time>2012-01-22T10:27:13Z</time>
      </trkpt>
      <trkpt lat="49.19326" lon="6.96697">
        <ele>307</ele>
        <time>2012-01-22T10:27:14Z</time>
      </trkpt>
      <trkpt lat="49.19325" lon="6.96697">
        <ele>307</ele>
        <time>2012-01-22T10:27:15Z</time>
      </trkpt>
      <trkpt lat="49.19323" lon="6.96696">
        <ele>307</ele>
        <time>2012-01-22T10:27:16Z</time>
      </trkpt>
      <trkpt lat="49.19322" lon="6.96695">
        <ele>306</ele>
        <time>2012-01-22T10:27:17Z</time>
      </trkpt>
      <trkpt lat="49.1932" lon="6.96693">
        <ele>306</ele>
        <time>2012-01-22T10:27:18Z</time>
      </trkpt>
      <trkpt lat="49.19319" lon="6.96692">
        <ele>306</ele>
        <time>2012-01-22T10:27:19Z</time>
      </trkpt>
      <trkpt lat="49.19317" lon="6.96691">
        <ele>306</ele>
        <time>2012-01-22T10:27:20Z</time>
      </trkpt>
      <trkpt lat="49.19316" lon="6.9669">
        <ele>306</ele>
        <time>2012-01-22T10:27:21Z</time>
      </trkpt>
      <trkpt lat="49.19315" lon="6.9669">
        <ele>306</ele>
        <time>2012-01-22T10:27:22Z</time>
      </trkpt>
      <trkpt lat="49.19312" lon="6.9669">
        <ele>306</ele>
        <time>2012-01-22T10:27:24Z</time>
      </trkpt>
      <trkpt lat="49.19311" lon="6.96689">
        <ele>306</ele>
        <time>2012-01-22T10:27:25Z</time>
      </trkpt>
      <trkpt lat="49.1931" lon="6.96688">
        <ele>306</ele>
        <time>2012-01-22T10:27:26Z</time>
      </trkpt>
      <trkpt lat="49.19308" lon="6.96688">
        <ele>306</ele>
        <time>2012-01-22T10:27:27Z</time>
      </trkpt>
      <trkpt lat="49.19307" lon="6.96685">
        <ele>306</ele>
        <time>2012-01-22T10:27:29Z</time>
      </trkpt>
      <trkpt lat="49.19306" lon="6.96682">
        <ele>306</ele>
        <time>2012-01-22T10:27:30Z</time>
      </trkpt>
      <trkpt lat="49.19304" lon="6.96679">
        <ele>306</ele>
        <time>2012-01-22T10:27:31Z</time>
      </trkpt>
      <trkpt lat="49.19303" lon="6.96677">
        <ele>306</ele>
        <time>2012-01-22T10:27:32Z</time>
      </trkpt>
      <trkpt lat="49.19302" lon="6.96676">
        <ele>306</ele>
        <time>2012-01-22T10:27:33Z</time>
      </trkpt>
      <trkpt lat="49.193" lon="6.96674">
        <ele>306</ele>
        <time>2012-01-22T10:27:34Z</time>
      </trkpt>
      <trkpt lat="49.19299" lon="6.96673">
        <ele>306</ele>
        <time>2012-01-22T10:27:35Z</time>
      </trkpt>
      <trkpt lat="49.19297" lon="6.96673">
        <ele>306</ele>
        <time>2012-01-22T10:27:36Z</time>
      </trkpt>
      <trkpt lat="49.19296" lon="6.96672">
        <ele>306</ele>
        <time>2012-01-22T10:27:37Z</time>
      </trkpt>
      <trkpt lat="49.19294" lon="6.96672">
        <ele>306</ele>
        <time>2012-01-22T10:27:38Z</time>
      </trkpt>
      <trkpt lat="49.19293" lon="6.96671">
        <ele>306</ele>
        <time>2012-01-22T10:27:39Z</time>
      </trkpt>
      <trkpt lat="49.19291" lon="6.96671">
        <ele>306</ele>
        <time>2012-01-22T10:27:40Z</time>
      </trkpt>
      <trkpt lat="49.1929" lon="6.9667">
        <ele>306</ele>
        <time>2012-01-22T10:27:41Z</time>
      </trkpt>
      <trkpt lat="49.19289" lon="6.96669">
        <ele>306</ele>
        <time>2012-01-22T10:27:42Z</time>
      </trkpt>
      <trkpt lat="49.19287" lon="6.96668">
        <ele>306</ele>
        <time>2012-01-22T10:27:43Z</time>
      </trkpt>
      <trkpt lat="49.19286" lon="6.96667">
        <ele>306</ele>
        <time>2012-01-22T10:27:44Z</time>
      </trkpt>
      <trkpt lat="49.19284" lon="6.96666">
        <ele>306</ele>
        <time>2012-01-22T10:27:46Z</time>
      </trkpt>
      <trkpt lat="49.19282" lon="6.96665">
        <ele>306</ele>
        <time>2012-01-22T10:27:47Z</time>
      </trkpt>
      <trkpt lat="49.19282" lon="6.96663">
        <ele>306</ele>
        <time>2012-01-22T10:27:48Z</time>
      </trkpt>
      <trkpt lat="49.1928" lon="6.96661">
        <ele>306</ele>
        <time>2012-01-22T10:27:49Z</time>
      </trkpt>
      <trkpt lat="49.19279" lon="6.9666">
        <ele>307</ele>
        <time>2012-01-22T10:27:50Z</time>
      </trkpt>
      <trkpt lat="49.19277" lon="6.96659">
        <ele>307</ele>
        <time>2012-01-22T10:27:51Z</time>
      </trkpt>
      <trkpt lat="49.19276" lon="6.96659">
        <ele>308</ele>
        <time>2012-01-22T10:27:52Z</time>
      </trkpt>
      <trkpt lat="49.19274" lon="6.96658">
        <ele>308</ele>
        <time>2012-01-22T10:27:53Z</time>
      </trkpt>
      <trkpt lat="49.19272" lon="6.96656">
        <ele>308</ele>
        <time>2012-01-22T10:27:55Z</time>
      </trkpt>
      <trkpt lat="49.1927" lon="6.96653">
        <ele>308</ele>
        <time>2012-01-22T10:27:56Z</time>
      </trkpt>
      <trkpt lat="49.19268" lon="6.96653">
        <ele>308</ele>
        <time>2012-01-22T10:27:57Z</time>
      </trkpt>
      <trkpt lat="49.19266" lon="6.9665">
        <ele>308</ele>
        <time>2012-01-22T10:27:58Z</time>
      </trkpt>
      <trkpt lat="49.19265" lon="6.9665">
        <ele>309</ele>
        <time>2012-01-22T10:27:59Z</time>
      </trkpt>
      <trkpt lat="49.19263" lon="6.96649">
        <ele>309</ele>
        <time>2012-01-22T10:28:01Z</time>
      </trkpt>
      <trkpt lat="49.19262" lon="6.96648">
        <ele>309</ele>
        <time>2012-01-22T10:28:02Z</time>
      </trkpt>
      <trkpt lat="49.1926" lon="6.96647">
        <ele>309</ele>
        <time>2012-01-22T10:28:03Z</time>
      </trkpt>
      <trkpt lat="49.19259" lon="6.96646">
        <ele>309</ele>
        <time>2012-01-22T10:28:04Z</time>
      </trkpt>
      <trkpt lat="49.19258" lon="6.96646">
        <ele>309</ele>
        <time>2012-01-22T10:28:05Z</time>
      </trkpt>
      <trkpt lat="49.19257" lon="6.96645">
        <ele>309</ele>
        <time>2012-01-22T10:28:06Z</time>
      </trkpt>
      <trkpt lat="49.19255" lon="6.96643">
        <ele>309</ele>
        <time>2012-01-22T10:28:07Z</time>
      </trkpt>
      <trkpt lat="49.19254" lon="6.96643">
        <ele>309</ele>
        <time>2012-01-22T10:28:08Z</time>
      </trkpt>
      <trkpt lat="49.19252" lon="6.96642">
        <ele>309</ele>
        <time>2012-01-22T10:28:09Z</time>
      </trkpt>
      <trkpt lat="49.19251" lon="6.96641">
        <ele>309</ele>
        <time>2012-01-22T10:28:10Z</time>
      </trkpt>
      <trkpt lat="49.1925" lon="6.9664">
        <ele>309</ele>
        <time>2012-01-22T10:28:11Z</time>
      </trkpt>
      <trkpt lat="49.19248" lon="6.96639">
        <ele>309</ele>
        <time>2012-01-22T10:28:12Z</time>
      </trkpt>
      <trkpt lat="49.19247" lon="6.96639">
        <ele>309</ele>
        <time>2012-01-22T10:28:13Z</time>
      </trkpt>
      <trkpt lat="49.19246" lon="6.96638">
        <ele>309</ele>
        <time>2012-01-22T10:28:14Z</time>
      </trkpt>
      <trkpt lat="49.19244" lon="6.96637">
        <ele>309</ele>
        <time>2012-01-22T10:28:15Z</time>
      </trkpt>
      <trkpt lat="49.19243" lon="6.96637">
        <ele>309</ele>
        <time>2012-01-22T10:28:16Z</time>
      </trkpt>
      <trkpt lat="49.19242" lon="6.96637">
        <ele>309</ele>
        <time>2012-01-22T10:28:17Z</time>
      </trkpt>
      <trkpt lat="49.1924" lon="6.96636">
        <ele>309</ele>
        <time>2012-01-22T10:28:18Z</time>
      </trkpt>
      <trkpt lat="49.19239" lon="6.96636">
        <ele>309</ele>
        <time>2012-01-22T10:28:19Z</time>
      </trkpt>
      <trkpt lat="49.19238" lon="6.96636">
        <ele>309</ele>
        <time>2012-01-22T10:28:20Z</time>
      </trkpt>
      <trkpt lat="49.19236" lon="6.96635">
        <ele>309</ele>
        <time>2012-01-22T10:28:22Z</time>
      </trkpt>
      <trkpt lat="49.19233" lon="6.96634">
        <ele>309</ele>
        <time>2012-01-22T10:28:24Z</time>
      </trkpt>
      <trkpt lat="49.19232" lon="6.96634">
        <ele>309</ele>
        <time>2012-01-22T10:28:25Z</time>
      </trkpt>
      <trkpt lat="49.1923" lon="6.96632">
        <ele>309</ele>
        <time>2012-01-22T10:28:26Z</time>
      </trkpt>
      <trkpt lat="49.19229" lon="6.96631">
        <ele>309</ele>
        <time>2012-01-22T10:28:27Z</time>
      </trkpt>
      <trkpt lat="49.19227" lon="6.9663">
        <ele>309</ele>
        <time>2012-01-22T10:28:28Z</time>
      </trkpt>
      <trkpt lat="49.19225" lon="6.9663">
        <ele>309</ele>
        <time>2012-01-22T10:28:29Z</time>
      </trkpt>
      <trkpt lat="49.19224" lon="6.96629">
        <ele>309</ele>
        <time>2012-01-22T10:28:30Z</time>
      </trkpt>
      <trkpt lat="49.19223" lon="6.96629">
        <ele>309</ele>
        <time>2012-01-22T10:28:31Z</time>
      </trkpt>
      <trkpt lat="49.19221" lon="6.96629">
        <ele>309</ele>
        <time>2012-01-22T10:28:32Z</time>
      </trkpt>
      <trkpt lat="49.1922" lon="6.96628">
        <ele>309</ele>
        <time>2012-01-22T10:28:33Z</time>
      </trkpt>
      <trkpt lat="49.19219" lon="6.96628">
        <ele>309</ele>
        <time>2012-01-22T10:28:34Z</time>
      </trkpt>
      <trkpt lat="49.19218" lon="6.96628">
        <ele>309</ele>
        <time>2012-01-22T10:28:35Z</time>
      </trkpt>
      <trkpt lat="49.19215" lon="6.96628">
        <ele>309</ele>
        <time>2012-01-22T10:28:37Z</time>
      </trkpt>
      <trkpt lat="49.19214" lon="6.96628">
        <ele>308</ele>
        <time>2012-01-22T10:28:38Z</time>
      </trkpt>
      <trkpt lat="49.19213" lon="6.96628">
        <ele>308</ele>
        <time>2012-01-22T10:28:39Z</time>
      </trkpt>
      <trkpt lat="49.19211" lon="6.96627">
        <ele>308</ele>
        <time>2012-01-22T10:28:41Z</time>
      </trkpt>
      <trkpt lat="49.1921" lon="6.96627">
        <ele>308</ele>
        <time>2012-01-22T10:28:42Z</time>
      </trkpt>
      <trkpt lat="49.19208" lon="6.96627">
        <ele>308</ele>
        <time>2012-01-22T10:28:43Z</time>
      </trkpt>
      <trkpt lat="49.19205" lon="6.96627">
        <ele>308</ele>
        <time>2012-01-22T10:28:45Z</time>
      </trkpt>
      <trkpt lat="49.19203" lon="6.96627">
        <ele>308</ele>
        <time>2012-01-22T10:28:46Z</time>
      </trkpt>
      <trkpt lat="49.19202" lon="6.96627">
        <ele>308</ele>
        <time>2012-01-22T10:28:47Z</time>
      </trkpt>
      <trkpt lat="49.192" lon="6.96627">
        <ele>308</ele>
        <time>2012-01-22T10:28:48Z</time>
      </trkpt>
      <trkpt lat="49.19199" lon="6.96627">
        <ele>308</ele>
        <time>2012-01-22T10:28:49Z</time>
      </trkpt>
      <trkpt lat="49.19197" lon="6.96627">
        <ele>308</ele>
        <time>2012-01-22T10:28:50Z</time>
      </trkpt>
      <trkpt lat="49.19196" lon="6.96627">
        <ele>308</ele>
        <time>2012-01-22T10:28:51Z</time>
      </trkpt>
      <trkpt lat="49.19195" lon="6.96627">
        <ele>308</ele>
        <time>2012-01-22T10:28:52Z</time>
      </trkpt>
      <trkpt lat="49.19194" lon="6.96628">
        <ele>308</ele>
        <time>2012-01-22T10:28:53Z</time>
      </trkpt>
      <trkpt lat="49.19191" lon="6.96628">
        <ele>308</ele>
        <time>2012-01-22T10:28:55Z</time>
      </trkpt>
      <trkpt lat="49.1919" lon="6.96628">
        <ele>308</ele>
        <time>2012-01-22T10:28:56Z</time>
      </trkpt>
      <trkpt lat="49.19189" lon="6.96628">
        <ele>307</ele>
        <time>2012-01-22T10:28:58Z</time>
      </trkpt>
      <trkpt lat="49.19187" lon="6.96628">
        <ele>306</ele>
        <time>2012-01-22T10:29:02Z</time>
      </trkpt>
      <trkpt lat="49.19186" lon="6.96627">
        <ele>306</ele>
        <time>2012-01-22T10:29:04Z</time>
      </trkpt>
      <trkpt lat="49.19185" lon="6.96625">
        <ele>306</ele>
        <time>2012-01-22T10:29:07Z</time>
      </trkpt>
      <trkpt lat="49.19185" lon="6.96623">
        <ele>306</ele>
        <time>2012-01-22T10:29:13Z</time>
      </trkpt>
      <trkpt lat="49.19185" lon="6.96621">
        <ele>307</ele>
        <time>2012-01-22T10:29:16Z</time>
      </trkpt>
      <trkpt lat="49.19184" lon="6.96623">
        <ele>307</ele>
        <time>2012-01-22T10:29:21Z</time>
      </trkpt>
      <trkpt lat="49.19185" lon="6.96624">
        <ele>307</ele>
        <time>2012-01-22T10:29:25Z</time>
      </trkpt>
      <trkpt lat="49.19185" lon="6.96622">
        <ele>307</ele>
        <time>2012-01-22T10:29:31Z</time>
      </trkpt>
      <trkpt lat="49.19186" lon="6.96622">
        <ele>307</ele>
        <time>2012-01-22T10:29:35Z</time>
      </trkpt>
      <trkpt lat="49.19186" lon="6.96621">
        <ele>307</ele>
        <time>2012-01-22T10:29:38Z</time>
      </trkpt>
      <trkpt lat="49.19186" lon="6.96619">
        <ele>307</ele>
        <time>2012-01-22T10:29:40Z</time>
      </trkpt>
      <trkpt lat="49.19185" lon="6.96617">
        <ele>307</ele>
        <time>2012-01-22T10:29:47Z</time>
      </trkpt>
      <trkpt lat="49.19185" lon="6.96615">
        <ele>307</ele>
        <time>2012-01-22T10:30:02Z</time>
      </trkpt>
      <trkpt lat="49.19184" lon="6.96617">
        <ele>307</ele>
        <time>2012-01-22T10:30:11Z</time>
      </trkpt>
      <trkpt lat="49.19183" lon="6.96619">
        <ele>307</ele>
        <time>2012-01-22T10:30:16Z</time>
      </trkpt>
      <trkpt lat="49.19182" lon="6.96618">
        <ele>307</ele>
        <time>2012-01-22T10:30:19Z</time>
      </trkpt>
      <trkpt lat="49.19181" lon="6.96616">
        <ele>307</ele>
        <time>2012-01-22T10:30:25Z</time>
      </trkpt>
      <trkpt lat="49.19182" lon="6.96619">
        <ele>307</ele>
        <time>2012-01-22T10:30:26Z</time>
      </trkpt>
      <trkpt lat="49.19183" lon="6.9662">
        <ele>307</ele>
        <time>2012-01-22T10:30:33Z</time>
      </trkpt>
      <trkpt lat="49.19184" lon="6.96621">
        <ele>307</ele>
        <time>2012-01-22T10:30:37Z</time>
      </trkpt>
      <trkpt lat="49.19185" lon="6.96623">
        <ele>307</ele>
        <time>2012-01-22T10:30:44Z</time>
      </trkpt>
      <trkpt lat="49.19184" lon="6.96621">
        <ele>307</ele>
        <time>2012-01-22T10:30:46Z</time>
      </trkpt>
      <trkpt lat="49.19183" lon="6.96621">
        <ele>307</ele>
        <time>2012-01-22T10:30:49Z</time>
      </trkpt>
      <trkpt lat="49.19181" lon="6.96621">
        <ele>307</ele>
        <time>2012-01-22T10:30:58Z</time>
      </trkpt>
      <trkpt lat="49.1918" lon="6.96622">
        <ele>307</ele>
        <time>2012-01-22T10:31:00Z</time>
      </trkpt>
      <trkpt lat="49.19178" lon="6.96621">
        <ele>307</ele>
        <time>2012-01-22T10:31:02Z</time>
      </trkpt>
      <trkpt lat="49.19177" lon="6.96621">
        <ele>307</ele>
        <time>2012-01-22T10:31:03Z</time>
      </trkpt>
      <trkpt lat="49.19175" lon="6.96622">
        <ele>307</ele>
        <time>2012-01-22T10:31:05Z</time>
      </trkpt>
      <trkpt lat="49.19173" lon="6.96623">
        <ele>307</ele>
        <time>2012-01-22T10:31:07Z</time>
      </trkpt>
      <trkpt lat="49.19172" lon="6.96623">
        <ele>307</ele>
        <time>2012-01-22T10:31:08Z</time>
      </trkpt>
      <trkpt lat="49.1917" lon="6.96625">
        <ele>307</ele>
        <time>2012-01-22T10:31:10Z</time>
      </trkpt>
      <trkpt lat="49.19168" lon="6.96625">
        <ele>307</ele>
        <time>2012-01-22T10:31:12Z</time>
      </trkpt>
      <trkpt lat="49.19166" lon="6.96625">
        <ele>307</ele>
        <time>2012-01-22T10:31:14Z</time>
      </trkpt>
      <trkpt lat="49.19164" lon="6.96623">
        <ele>306</ele>
        <time>2012-01-22T10:31:16Z</time>
      </trkpt>
      <trkpt lat="49.19163" lon="6.9662">
        <ele>306</ele>
        <time>2012-01-22T10:31:17Z</time>
      </trkpt>
      <trkpt lat="49.19162" lon="6.96617">
        <ele>306</ele>
        <time>2012-01-22T10:31:18Z</time>
      </trkpt>
      <trkpt lat="49.19161" lon="6.96615">
        <ele>306</ele>
        <time>2012-01-22T10:31:19Z</time>
      </trkpt>
      <trkpt lat="49.1916" lon="6.96613">
        <ele>306</ele>
        <time>2012-01-22T10:31:20Z</time>
      </trkpt>
      <trkpt lat="49.19159" lon="6.96612">
        <ele>306</ele>
        <time>2012-01-22T10:31:21Z</time>
      </trkpt>
      <trkpt lat="49.19159" lon="6.9661">
        <ele>306</ele>
        <time>2012-01-22T10:31:22Z</time>
      </trkpt>
      <trkpt lat="49.19157" lon="6.96607">
        <ele>306</ele>
        <time>2012-01-22T10:31:24Z</time>
      </trkpt>
      <trkpt lat="49.19157" lon="6.96604">
        <ele>306</ele>
        <time>2012-01-22T10:31:26Z</time>
      </trkpt>
      <trkpt lat="49.19157" lon="6.96602">
        <ele>306</ele>
        <time>2012-01-22T10:31:27Z</time>
      </trkpt>
      <trkpt lat="49.19157" lon="6.96599">
        <ele>306</ele>
        <time>2012-01-22T10:31:28Z</time>
      </trkpt>
      <trkpt lat="49.19157" lon="6.96597">
        <ele>306</ele>
        <time>2012-01-22T10:31:29Z</time>
      </trkpt>
      <trkpt lat="49.19156" lon="6.96595">
        <ele>306</ele>
        <time>2012-01-22T10:31:30Z</time>
      </trkpt>
      <trkpt lat="49.19156" lon="6.96593">
        <ele>306</ele>
        <time>2012-01-22T10:31:31Z</time>
      </trkpt>
      <trkpt lat="49.19156" lon="6.96591">
        <ele>306</ele>
        <time>2012-01-22T10:31:32Z</time>
      </trkpt>
      <trkpt lat="49.19156" lon="6.96588">
        <ele>306</ele>
        <time>2012-01-22T10:31:33Z</time>
      </trkpt>
      <trkpt lat="49.19156" lon="6.96586">
        <ele>306</ele>
        <time>2012-01-22T10:31:35Z</time>
      </trkpt>
      <trkpt lat="49.19154" lon="6.96584">
        <ele>306</ele>
        <time>2012-01-22T10:31:37Z</time>
      </trkpt>
      <trkpt lat="49.19153" lon="6.96584">
        <ele>306</ele>
        <time>2012-01-22T10:31:38Z</time>
      </trkpt>
      <trkpt lat="49.19152" lon="6.96583">
        <ele>306</ele>
        <time>2012-01-22T10:31:39Z</time>
      </trkpt>
      <trkpt lat="49.1915" lon="6.96581">
        <ele>306</ele>
        <time>2012-01-22T10:31:41Z</time>
      </trkpt>
      <trkpt lat="49.1915" lon="6.96578">
        <ele>306</ele>
        <time>2012-01-22T10:31:43Z</time>
      </trkpt>
      <trkpt lat="49.1915" lon="6.96575">
        <ele>306</ele>
        <time>2012-01-22T10:31:45Z</time>
      </trkpt>
      <trkpt lat="49.19152" lon="6.96574">
        <ele>306</ele>
        <time>2012-01-22T10:31:54Z</time>
      </trkpt>
      <trkpt lat="49.19151" lon="6.96572">
        <ele>306</ele>
        <time>2012-01-22T10:32:00Z</time>
      </trkpt>
      <trkpt lat="49.19151" lon="6.9657">
        <ele>306</ele>
        <time>2012-01-22T10:32:04Z</time>
      </trkpt>
      <trkpt lat="49.19151" lon="6.96567">
        <ele>306</ele>
        <time>2012-01-22T10:32:06Z</time>
      </trkpt>
      <trkpt lat="49.19151" lon="6.96565">
        <ele>306</ele>
        <time>2012-01-22T10:32:07Z</time>
      </trkpt>
      <trkpt lat="49.19151" lon="6.96563">
        <ele>306</ele>
        <time>2012-01-22T10:32:09Z</time>
      </trkpt>
      <trkpt lat="49.19151" lon="6.96561">
        <ele>306</ele>
        <time>2012-01-22T10:32:11Z</time>
      </trkpt>
      <trkpt lat="49.19151" lon="6.96559">
        <ele>306</ele>
        <time>2012-01-22T10:32:12Z</time>
      </trkpt>
      <trkpt lat="49.19151" lon="6.96557">
        <ele>306</ele>
        <time>2012-01-22T10:32:13Z</time>
      </trkpt>
      <trkpt lat="49.19151" lon="6.96555">
        <ele>306</ele>
        <time>2012-01-22T10:32:14Z</time>
      </trkpt>
      <trkpt lat="49.19151" lon="6.96551">
        <ele>306</ele>
        <time>2012-01-22T10:32:16Z</time>
      </trkpt>
      <trkpt lat="49.1915" lon="6.96549">
        <ele>306</ele>
        <time>2012-01-22T10:32:17Z</time>
      </trkpt>
      <trkpt lat="49.1915" lon="6.96547">
        <ele>306</ele>
        <time>2012-01-22T10:32:18Z</time>
      </trkpt>
      <trkpt lat="49.1915" lon="6.96545">
        <ele>306</ele>
        <time>2012-01-22T10:32:19Z</time>
      </trkpt>
      <trkpt lat="49.1915" lon="6.96543">
        <ele>306</ele>
        <time>2012-01-22T10:32:20Z</time>
      </trkpt>
      <trkpt lat="49.19151" lon="6.96541">
        <ele>306</ele>
        <time>2012-01-22T10:32:21Z</time>
      </trkpt>
      <trkpt lat="49.19151" lon="6.96539">
        <ele>306</ele>
        <time>2012-01-22T10:32:22Z</time>
      </trkpt>
      <trkpt lat="49.19151" lon="6.96537">
        <ele>306</ele>
        <time>2012-01-22T10:32:23Z</time>
      </trkpt>
      <trkpt lat="49.19152" lon="6.96534">
        <ele>306</ele>
        <time>2012-01-22T10:32:25Z</time>
      </trkpt>
      <trkpt lat="49.19151" lon="6.96532">
        <ele>306</ele>
        <time>2012-01-22T10:32:26Z</time>
      </trkpt>
      <trkpt lat="49.19151" lon="6.9653">
        <ele>306</ele>
        <time>2012-01-22T10:32:27Z</time>
      </trkpt>
      <trkpt lat="49.19151" lon="6.96528">
        <ele>306</ele>
        <time>2012-01-22T10:32:28Z</time>
      </trkpt>
      <trkpt lat="49.19151" lon="6.96526">
        <ele>306</ele>
        <time>2012-01-22T10:32:30Z</time>
      </trkpt>
      <trkpt lat="49.19152" lon="6.96523">
        <ele>306</ele>
        <time>2012-01-22T10:32:32Z</time>
      </trkpt>
      <trkpt lat="49.19152" lon="6.9652">
        <ele>306</ele>
        <time>2012-01-22T10:32:34Z</time>
      </trkpt>
      <trkpt lat="49.19152" lon="6.96518">
        <ele>306</ele>
        <time>2012-01-22T10:32:35Z</time>
      </trkpt>
      <trkpt lat="49.19152" lon="6.96517">
        <ele>306</ele>
        <time>2012-01-22T10:32:36Z</time>
      </trkpt>
      <trkpt lat="49.19152" lon="6.96514">
        <ele>306</ele>
        <time>2012-01-22T10:32:38Z</time>
      </trkpt>
      <trkpt lat="49.19153" lon="6.96511">
        <ele>306</ele>
        <time>2012-01-22T10:32:40Z</time>
      </trkpt>
      <trkpt lat="49.19153" lon="6.96508">
        <ele>306</ele>
        <time>2012-01-22T10:32:42Z</time>
      </trkpt>
      <trkpt lat="49.19154" lon="6.96506">
        <ele>306</ele>
        <time>2012-01-22T10:32:43Z</time>
      </trkpt>
      <trkpt lat="49.19154" lon="6.96504">
        <ele>306</ele>
        <time>2012-01-22T10:32:44Z</time>
      </trkpt>
      <trkpt lat="49.19153" lon="6.96502">
        <ele>306</ele>
        <time>2012-01-22T10:32:46Z</time>
      </trkpt>
      <trkpt lat="49.19153" lon="6.965">
        <ele>306</ele>
        <time>2012-01-22T10:32:48Z</time>
      </trkpt>
      <trkpt lat="49.19153" lon="6.96497">
        <ele>306</ele>
        <time>2012-01-22T10:32:50Z</time>
      </trkpt>
      <trkpt lat="49.19152" lon="6.96495">
        <ele>306</ele>
        <time>2012-01-22T10:32:51Z</time>
      </trkpt>
      <trkpt lat="49.19152" lon="6.96492">
        <ele>306</ele>
        <time>2012-01-22T10:32:53Z</time>
      </trkpt>
      <trkpt lat="49.19152" lon="6.96489">
        <ele>306</ele>
        <time>2012-01-22T10:32:54Z</time>
      </trkpt>
      <trkpt lat="49.19152" lon="6.96488">
        <ele>306</ele>
        <time>2012-01-22T10:32:55Z</time>
      </trkpt>
      <trkpt lat="49.19152" lon="6.96486">
        <ele>306</ele>
        <time>2012-01-22T10:32:57Z</time>
      </trkpt>
      <trkpt lat="49.19152" lon="6.96483">
        <ele>306</ele>
        <time>2012-01-22T10:32:59Z</time>
      </trkpt>
      <trkpt lat="49.19153" lon="6.9648">
        <ele>306</ele>
        <time>2012-01-22T10:33:01Z</time>
      </trkpt>
      <trkpt lat="49.19153" lon="6.96479">
        <ele>306</ele>
        <time>2012-01-22T10:33:02Z</time>
      </trkpt>
      <trkpt lat="49.19153" lon="6.96477">
        <ele>306</ele>
        <time>2012-01-22T10:33:03Z</time>
      </trkpt>
      <trkpt lat="49.19154" lon="6.96474">
        <ele>306</ele>
        <time>2012-01-22T10:33:05Z</time>
      </trkpt>
      <trkpt lat="49.19154" lon="6.96473">
        <ele>306</ele>
        <time>2012-01-22T10:33:06Z</time>
      </trkpt>
    </trkseg>
  </trk>
</gpx>